<?xml version='1.0' encoding='UTF-8'?><gpx version="1.1" creator="JPX - https://github.com/jenetics/jpx" xmlns="http://www.topografix.com/GPX/1/1"><trk><trkseg><trkpt lat="42.11510653495921" lon="12.773014933320974"><ele>283.0</ele><time>2026-03-22T08:04:07.999Z</time></trkpt><trkpt lat="42.11516947204838" lon="12.773156108244837"><ele>283.0</ele><time>2026-03-22T08:04:11Z</time></trkpt><trkpt lat="42.11490987925939" lon="12.772827080210309"><ele>283.5</ele><time>2026-03-22T08:04:29.312Z</time></trkpt><trkpt lat="42.11484660021371" lon="12.772858746325698"><ele>284.0</ele><time>2026-03-22T08:08:39.999Z</time></trkpt><trkpt lat="42.11479687342961" lon="12.772801313455952"><ele>284.5</ele><time>2026-03-22T08:09:04Z</time></trkpt><trkpt lat="42.11478263131404" lon="12.772709309597191"><ele>285.0</ele><time>2026-03-22T08:09:09Z</time></trkpt><trkpt lat="42.114845053928036" lon="12.772749523459977"><ele>285.5</ele><time>2026-03-22T08:09:52.999Z</time></trkpt><trkpt lat="42.114787760535485" lon="12.772698517472135"><ele>286.0</ele><time>2026-03-22T08:14:02.999Z</time></trkpt><trkpt lat="42.11468269647689" lon="12.772817103557072"><ele>286.0</ele><time>2026-03-22T08:17:21Z</time></trkpt><trkpt lat="42.11462765315737" lon="12.77287014785564"><ele>286.0</ele><time>2026-03-22T08:17:22Z</time></trkpt><trkpt lat="42.11455362259391" lon="12.7729098926896"><ele>286.0</ele><time>2026-03-22T08:17:23Z</time></trkpt><trkpt lat="42.11445433799093" lon="12.77292994252333"><ele>286.0</ele><time>2026-03-22T08:17:24Z</time></trkpt><trkpt lat="42.11436955550132" lon="12.772951852060405"><ele>286.0</ele><time>2026-03-22T08:17:25Z</time></trkpt><trkpt lat="42.114307425039705" lon="12.77298764986947"><ele>286.0</ele><time>2026-03-22T08:17:26Z</time></trkpt><trkpt lat="42.114235640685706" lon="12.773030756861045"><ele>286.0</ele><time>2026-03-22T08:17:27.999Z</time></trkpt><trkpt lat="42.11424955841612" lon="12.773210081028251"><ele>286.0</ele><time>2026-03-22T08:17:28.999Z</time></trkpt><trkpt lat="42.11433449929479" lon="12.773224415928365"><ele>286.0</ele><time>2026-03-22T08:17:29.999Z</time></trkpt><trkpt lat="42.1144045165859" lon="12.77326422131486"><ele>286.0</ele><time>2026-03-22T08:17:30.999Z</time></trkpt><trkpt lat="42.114477603415686" lon="12.773313921560057"><ele>286.0</ele><time>2026-03-22T08:17:31.999Z</time></trkpt><trkpt lat="42.114561337770425" lon="12.773369888350743"><ele>285.99999999999994</ele><time>2026-03-22T08:17:32.999Z</time></trkpt><trkpt lat="42.11462044620861" lon="12.773428093944451"><ele>286.0</ele><time>2026-03-22T08:17:33.999Z</time></trkpt><trkpt lat="42.11468027199414" lon="12.773490888150107"><ele>286.0</ele><time>2026-03-22T08:17:34.999Z</time></trkpt><trkpt lat="42.114731248205366" lon="12.7735513773242"><ele>286.0</ele><time>2026-03-22T08:17:35.999Z</time></trkpt><trkpt lat="42.114778744123925" lon="12.7736187226774"><ele>286.0</ele><time>2026-03-22T08:17:36.999Z</time></trkpt><trkpt lat="42.11483338986913" lon="12.773702120882914"><ele>285.99999999999994</ele><time>2026-03-22T08:17:37.999Z</time></trkpt><trkpt lat="42.1148793547701" lon="12.77377893065915"><ele>286.0</ele><time>2026-03-22T08:17:38.999Z</time></trkpt><trkpt lat="42.11492914202789" lon="12.773874338274082"><ele>284.5</ele><time>2026-03-22T08:17:39.999Z</time></trkpt><trkpt lat="42.11498585193885" lon="12.773989771157353"><ele>283.0</ele><time>2026-03-22T08:17:40.999Z</time></trkpt><trkpt lat="42.115031548235606" lon="12.774088515509934"><ele>281.5</ele><time>2026-03-22T08:17:41.999Z</time></trkpt><trkpt lat="42.115069950008646" lon="12.774171244551964"><ele>280.0</ele><time>2026-03-22T08:17:42.999Z</time></trkpt><trkpt lat="42.11510906073569" lon="12.774255500899184"><ele>278.5</ele><time>2026-03-22T08:17:43.999Z</time></trkpt><trkpt lat="42.11514883200874" lon="12.774341180263457"><ele>277.0</ele><time>2026-03-22T08:17:44.999Z</time></trkpt><trkpt lat="42.115188852512766" lon="12.774427396540954"><ele>277.0</ele><time>2026-03-22T08:17:45.999Z</time></trkpt><trkpt lat="42.115227833898295" lon="12.774511374244055"><ele>277.0</ele><time>2026-03-22T08:17:46.999Z</time></trkpt><trkpt lat="42.11526818945374" lon="12.77459515812448"><ele>277.0</ele><time>2026-03-22T08:17:47.999Z</time></trkpt><trkpt lat="42.115349286763255" lon="12.7746787519389"><ele>277.0</ele><time>2026-03-22T08:17:48.999Z</time></trkpt><trkpt lat="42.11539872820619" lon="12.774759303499899"><ele>277.0</ele><time>2026-03-22T08:17:49.999Z</time></trkpt><trkpt lat="42.1154381817473" lon="12.774846719936939"><ele>277.0</ele><time>2026-03-22T08:17:50.999Z</time></trkpt><trkpt lat="42.11548157939798" lon="12.774953610919772"><ele>277.0</ele><time>2026-03-22T08:17:51.999Z</time></trkpt><trkpt lat="42.115518378659814" lon="12.775073783328862"><ele>277.0</ele><time>2026-03-22T08:17:52.999Z</time></trkpt><trkpt lat="42.11554860931423" lon="12.775203388586057"><ele>277.0</ele><time>2026-03-22T08:17:53.999Z</time></trkpt><trkpt lat="42.11558310170966" lon="12.775288840540528"><ele>277.0</ele><time>2026-03-22T08:17:54.999Z</time></trkpt><trkpt lat="42.115628856811654" lon="12.775355270194014"><ele>277.0</ele><time>2026-03-22T08:17:55.999Z</time></trkpt><trkpt lat="42.11569173556134" lon="12.775371091111777"><ele>277.0</ele><time>2026-03-22T08:17:56.999Z</time></trkpt><trkpt lat="42.11584271073572" lon="12.77531200765134"><ele>275.5</ele><time>2026-03-22T08:17:58.999Z</time></trkpt><trkpt lat="42.11590951307247" lon="12.775269430468974"><ele>274.0</ele><time>2026-03-22T08:17:59.999Z</time></trkpt><trkpt lat="42.11599275219309" lon="12.775357684944463"><ele>272.5</ele><time>2026-03-22T08:18:01.999Z</time></trkpt><trkpt lat="42.11609654329695" lon="12.775512760583613"><ele>271.0</ele><time>2026-03-22T08:18:03.999Z</time></trkpt><trkpt lat="42.11616633390297" lon="12.775643636327953"><ele>271.0</ele><time>2026-03-22T08:18:04.999Z</time></trkpt><trkpt lat="42.116240105873615" lon="12.775807819796219"><ele>271.0</ele><time>2026-03-22T08:18:05.999Z</time></trkpt><trkpt lat="42.11631816737957" lon="12.775973044641427"><ele>271.0</ele><time>2026-03-22T08:18:06.999Z</time></trkpt><trkpt lat="42.116374865695064" lon="12.776077378952792"><ele>271.0</ele><time>2026-03-22T08:18:07.999Z</time></trkpt><trkpt lat="42.11643006659218" lon="12.776143259228295"><ele>271.16666666666663</ele><time>2026-03-22T08:18:08.999Z</time></trkpt><trkpt lat="42.11646488409155" lon="12.776274758675848"><ele>271.3333333333333</ele><time>2026-03-22T08:18:09.999Z</time></trkpt><trkpt lat="42.11653883852113" lon="12.77632971428802"><ele>271.5</ele><time>2026-03-22T08:18:10.999Z</time></trkpt><trkpt lat="42.11660883611661" lon="12.776349731564977"><ele>271.6666666666667</ele><time>2026-03-22T08:18:11.999Z</time></trkpt><trkpt lat="42.11667332290617" lon="12.776339737070808"><ele>271.83333333333337</ele><time>2026-03-22T08:18:12.999Z</time></trkpt><trkpt lat="42.11675129536299" lon="12.7763593943059"><ele>272.0</ele><time>2026-03-22T08:18:14.999Z</time></trkpt><trkpt lat="42.116761718254004" lon="12.776501601279687"><ele>271.4</ele><time>2026-03-22T08:18:16.999Z</time></trkpt><trkpt lat="42.11671168675943" lon="12.776638937265522"><ele>270.79999999999995</ele><time>2026-03-22T08:18:18.999Z</time></trkpt><trkpt lat="42.1167065457427" lon="12.776770542158225"><ele>270.2</ele><time>2026-03-22T08:18:20.999Z</time></trkpt><trkpt lat="42.116759385202684" lon="12.776821056622053"><ele>269.59999999999997</ele><time>2026-03-22T08:18:22.999Z</time></trkpt><trkpt lat="42.11685001470948" lon="12.776894488627201"><ele>269.0</ele><time>2026-03-22T08:18:24.999Z</time></trkpt><trkpt lat="42.11690102858317" lon="12.776971954086804"><ele>269.0</ele><time>2026-03-22T08:18:25.999Z</time></trkpt><trkpt lat="42.11693631964501" lon="12.777061197024844"><ele>269.0</ele><time>2026-03-22T08:18:26.999Z</time></trkpt><trkpt lat="42.11697362723051" lon="12.777159602151636"><ele>269.0</ele><time>2026-03-22T08:18:27.999Z</time></trkpt><trkpt lat="42.117004711969976" lon="12.777279186593365"><ele>269.0</ele><time>2026-03-22T08:18:28.999Z</time></trkpt><trkpt lat="42.11704866134815" lon="12.77742225722386"><ele>269.0</ele><time>2026-03-22T08:18:29.999Z</time></trkpt><trkpt lat="42.117108326156206" lon="12.777542371067488"><ele>269.0</ele><time>2026-03-22T08:18:30.999Z</time></trkpt><trkpt lat="42.11717690116137" lon="12.777632665671455"><ele>269.0</ele><time>2026-03-22T08:18:31.999Z</time></trkpt><trkpt lat="42.117237699309484" lon="12.77774281762525"><ele>269.0</ele><time>2026-03-22T08:18:32.999Z</time></trkpt><trkpt lat="42.11716108535153" lon="12.77795916714346"><ele>269.0</ele><time>2026-03-22T08:18:33.999Z</time></trkpt><trkpt lat="42.11716811400634" lon="12.778072390900153"><ele>270.8</ele><time>2026-03-22T08:18:34.999Z</time></trkpt><trkpt lat="42.117160926680526" lon="12.778203911872941"><ele>272.59999999999997</ele><time>2026-03-22T08:18:35.999Z</time></trkpt><trkpt lat="42.117141711015215" lon="12.778348425076944"><ele>274.4</ele><time>2026-03-22T08:18:36.999Z</time></trkpt><trkpt lat="42.117119297776895" lon="12.778507242712587"><ele>276.2</ele><time>2026-03-22T08:18:37.999Z</time></trkpt><trkpt lat="42.11709414585602" lon="12.778666407690652"><ele>278.0</ele><time>2026-03-22T08:18:38.999Z</time></trkpt><trkpt lat="42.11707787441394" lon="12.778794313595723"><ele>278.8</ele><time>2026-03-22T08:18:39.999Z</time></trkpt><trkpt lat="42.117069107120635" lon="12.778902499863243"><ele>279.6</ele><time>2026-03-22T08:18:40.999Z</time></trkpt><trkpt lat="42.11705934297237" lon="12.779086219426661"><ele>280.4</ele><time>2026-03-22T08:18:42.999Z</time></trkpt><trkpt lat="42.11705317095445" lon="12.779185871028803"><ele>281.2</ele><time>2026-03-22T08:18:43.999Z</time></trkpt><trkpt lat="42.11704790692558" lon="12.779284414924835"><ele>282.0</ele><time>2026-03-22T08:18:44.999Z</time></trkpt><trkpt lat="42.11703102207317" lon="12.779411540786183"><ele>282.0</ele><time>2026-03-22T08:18:45.999Z</time></trkpt><trkpt lat="42.11702413565969" lon="12.779538359999218"><ele>282.0</ele><time>2026-03-22T08:18:46.999Z</time></trkpt><trkpt lat="42.11703391420007" lon="12.779644259610109"><ele>282.0</ele><time>2026-03-22T08:18:47.999Z</time></trkpt><trkpt lat="42.11704284346876" lon="12.77974559093594"><ele>282.0</ele><time>2026-03-22T08:18:48.999Z</time></trkpt><trkpt lat="42.11706044544795" lon="12.77985866437052"><ele>282.0</ele><time>2026-03-22T08:18:49.999Z</time></trkpt><trkpt lat="42.11705271836269" lon="12.779976246298215"><ele>282.0</ele><time>2026-03-22T08:18:50.999Z</time></trkpt><trkpt lat="42.117024375856154" lon="12.78006424725438"><ele>282.0</ele><time>2026-03-22T08:18:51.999Z</time></trkpt><trkpt lat="42.11700844650933" lon="12.780164058797356"><ele>282.0</ele><time>2026-03-22T08:18:52.999Z</time></trkpt><trkpt lat="42.11700180611875" lon="12.780270841588507"><ele>282.0</ele><time>2026-03-22T08:18:53.999Z</time></trkpt><trkpt lat="42.11698761254551" lon="12.78036890979585"><ele>282.0</ele><time>2026-03-22T08:18:54.999Z</time></trkpt><trkpt lat="42.1169790484441" lon="12.780484208844667"><ele>282.0</ele><time>2026-03-22T08:18:55.999Z</time></trkpt><trkpt lat="42.11699709000334" lon="12.78060612473744"><ele>282.0</ele><time>2026-03-22T08:18:56.999Z</time></trkpt><trkpt lat="42.11701095510498" lon="12.780740761585422"><ele>281.8</ele><time>2026-03-22T08:18:57.999Z</time></trkpt><trkpt lat="42.11701650161475" lon="12.780862290062707"><ele>281.6</ele><time>2026-03-22T08:18:58.999Z</time></trkpt><trkpt lat="42.117003227836946" lon="12.780982910822484"><ele>281.40000000000003</ele><time>2026-03-22T08:18:59.999Z</time></trkpt><trkpt lat="42.116986406448326" lon="12.781085176352072"><ele>281.2</ele><time>2026-03-22T08:19:00.999Z</time></trkpt><trkpt lat="42.11695833294728" lon="12.781161544448056"><ele>281.0</ele><time>2026-03-22T08:19:01.999Z</time></trkpt><trkpt lat="42.11684938131321" lon="12.781268737574104"><ele>281.1666666666667</ele><time>2026-03-22T08:19:03.999Z</time></trkpt><trkpt lat="42.116789569711266" lon="12.78134115673008"><ele>281.33333333333337</ele><time>2026-03-22T08:19:04.998Z</time></trkpt><trkpt lat="42.11679070638123" lon="12.781463545995171"><ele>281.5</ele><time>2026-03-22T08:19:06.998Z</time></trkpt><trkpt lat="42.11683281552525" lon="12.781551060264386"><ele>281.6666666666667</ele><time>2026-03-22T08:19:07.998Z</time></trkpt><trkpt lat="42.116858251549495" lon="12.781650199555177"><ele>281.8333333333333</ele><time>2026-03-22T08:19:09Z</time></trkpt><trkpt lat="42.116852645997774" lon="12.781751233887844"><ele>282.0</ele><time>2026-03-22T08:19:10Z</time></trkpt><trkpt lat="42.11683140423669" lon="12.781879052968803"><ele>282.0</ele><time>2026-03-22T08:19:11Z</time></trkpt><trkpt lat="42.11680232020443" lon="12.781988790501893"><ele>282.0</ele><time>2026-03-22T08:19:12Z</time></trkpt><trkpt lat="42.11678873927844" lon="12.782079164646634"><ele>282.0</ele><time>2026-03-22T08:19:13Z</time></trkpt><trkpt lat="42.11676044613218" lon="12.782159749699666"><ele>282.0</ele><time>2026-03-22T08:19:14Z</time></trkpt><trkpt lat="42.11672200185382" lon="12.782253232287843"><ele>282.0</ele><time>2026-03-22T08:19:15Z</time></trkpt><trkpt lat="42.116686041670825" lon="12.782329320786813"><ele>282.0</ele><time>2026-03-22T08:19:16Z</time></trkpt><trkpt lat="42.11659296111654" lon="12.782360813667768"><ele>283.4</ele><time>2026-03-22T08:19:19Z</time></trkpt><trkpt lat="42.1164993518452" lon="12.78225924282603"><ele>284.79999999999995</ele><time>2026-03-22T08:19:21Z</time></trkpt><trkpt lat="42.116395039308244" lon="12.782237723284972"><ele>286.2</ele><time>2026-03-22T08:19:23Z</time></trkpt><trkpt lat="42.11629574195877" lon="12.782290586361439"><ele>287.59999999999997</ele><time>2026-03-22T08:19:25Z</time></trkpt><trkpt lat="42.116227415563365" lon="12.782341505066674"><ele>289.0</ele><time>2026-03-22T08:19:26Z</time></trkpt><trkpt lat="42.11617030301631" lon="12.782425547292503"><ele>289.0</ele><time>2026-03-22T08:19:26.999Z</time></trkpt><trkpt lat="42.11608638769543" lon="12.782513987729578"><ele>289.0</ele><time>2026-03-22T08:19:27.999Z</time></trkpt><trkpt lat="42.116015105882454" lon="12.782559090858015"><ele>289.0</ele><time>2026-03-22T08:19:28.999Z</time></trkpt><trkpt lat="42.115963811743626" lon="12.782475070155078"><ele>289.0</ele><time>2026-03-22T08:19:32.999Z</time></trkpt><trkpt lat="42.115981773882716" lon="12.782321222000858"><ele>289.0</ele><time>2026-03-22T08:19:34.999Z</time></trkpt><trkpt lat="42.116024532517955" lon="12.782254602200384"><ele>289.0</ele><time>2026-03-22T08:19:35.999Z</time></trkpt><trkpt lat="42.116079201050624" lon="12.782092510624562"><ele>289.0</ele><time>2026-03-22T08:19:37.999Z</time></trkpt><trkpt lat="42.11612203738125" lon="12.78200892160924"><ele>289.0</ele><time>2026-03-22T08:19:38.999Z</time></trkpt><trkpt lat="42.116132236867514" lon="12.781881364339736"><ele>289.0</ele><time>2026-03-22T08:19:40.999Z</time></trkpt><trkpt lat="42.11605344404665" lon="12.781824222610894"><ele>289.0</ele><time>2026-03-22T08:19:43.999Z</time></trkpt><trkpt lat="42.11597818352451" lon="12.781950371440038"><ele>289.0</ele><time>2026-03-22T08:19:45.999Z</time></trkpt><trkpt lat="42.11592354937367" lon="12.782048547089797"><ele>289.0</ele><time>2026-03-22T08:19:46.999Z</time></trkpt><trkpt lat="42.11584017964091" lon="12.782207567592431"><ele>289.0</ele><time>2026-03-22T08:19:47.999Z</time></trkpt><trkpt lat="42.11576055448848" lon="12.782373775525425"><ele>289.0</ele><time>2026-03-22T08:19:48.999Z</time></trkpt><trkpt lat="42.1156675166071" lon="12.782540837443294"><ele>289.0</ele><time>2026-03-22T08:19:49.999Z</time></trkpt><trkpt lat="42.11558190974343" lon="12.782687298728282"><ele>292.0</ele><time>2026-03-22T08:19:50.999Z</time></trkpt><trkpt lat="42.11548650509123" lon="12.782871455712792"><ele>295.0</ele><time>2026-03-22T08:19:51.999Z</time></trkpt><trkpt lat="42.11539356980551" lon="12.78303568721211"><ele>298.0</ele><time>2026-03-22T08:19:52.999Z</time></trkpt><trkpt lat="42.11531395325201" lon="12.783186618067905"><ele>298.0</ele><time>2026-03-22T08:19:53.999Z</time></trkpt><trkpt lat="42.11523146170881" lon="12.783313224465282"><ele>298.0</ele><time>2026-03-22T08:19:54.999Z</time></trkpt><trkpt lat="42.11512247122159" lon="12.783386059069576"><ele>298.0</ele><time>2026-03-22T08:19:55.999Z</time></trkpt><trkpt lat="42.11501523441503" lon="12.783435694426394"><ele>298.0</ele><time>2026-03-22T08:19:56.999Z</time></trkpt><trkpt lat="42.114906899873354" lon="12.78349524497054"><ele>302.25</ele><time>2026-03-22T08:19:57.999Z</time></trkpt><trkpt lat="42.11479777533119" lon="12.783571567600465"><ele>306.5</ele><time>2026-03-22T08:19:58.999Z</time></trkpt><trkpt lat="42.11468358486924" lon="12.783634377361638"><ele>310.75</ele><time>2026-03-22T08:19:59.999Z</time></trkpt><trkpt lat="42.11459497681654" lon="12.783725989691831"><ele>315.0</ele><time>2026-03-22T08:20:00.999Z</time></trkpt><trkpt lat="42.11452963224001" lon="12.783835466600339"><ele>315.0</ele><time>2026-03-22T08:20:01.999Z</time></trkpt><trkpt lat="42.11448522162824" lon="12.783951255959021"><ele>315.0</ele><time>2026-03-22T08:20:02.999Z</time></trkpt><trkpt lat="42.114467570001246" lon="12.784080078833027"><ele>315.0</ele><time>2026-03-22T08:20:03.999Z</time></trkpt><trkpt lat="42.11447157891843" lon="12.78422446450069"><ele>315.0</ele><time>2026-03-22T08:20:04.999Z</time></trkpt><trkpt lat="42.11449564412114" lon="12.784368943787603"><ele>315.0</ele><time>2026-03-22T08:20:05.999Z</time></trkpt><trkpt lat="42.11454374082568" lon="12.784516916443083"><ele>312.0</ele><time>2026-03-22T08:20:06.999Z</time></trkpt><trkpt lat="42.11459101397343" lon="12.784686813624065"><ele>309.0</ele><time>2026-03-22T08:20:07.999Z</time></trkpt><trkpt lat="42.11464145924339" lon="12.784856443797485"><ele>306.0</ele><time>2026-03-22T08:20:08.999Z</time></trkpt><trkpt lat="42.11470415464258" lon="12.784989883888015"><ele>303.0</ele><time>2026-03-22T08:20:09.999Z</time></trkpt><trkpt lat="42.114780698907126" lon="12.785085453105461"><ele>303.0</ele><time>2026-03-22T08:20:10.999Z</time></trkpt><trkpt lat="42.11486115368061" lon="12.78514693364226"><ele>303.0</ele><time>2026-03-22T08:20:11.999Z</time></trkpt><trkpt lat="42.11494289349939" lon="12.785171455641638"><ele>303.0</ele><time>2026-03-22T08:20:12.999Z</time></trkpt><trkpt lat="42.11503896174778" lon="12.785162035945016"><ele>303.0</ele><time>2026-03-22T08:20:13.999Z</time></trkpt><trkpt lat="42.11514452872998" lon="12.78512930813898"><ele>303.0</ele><time>2026-03-22T08:20:14.999Z</time></trkpt><trkpt lat="42.115259634146796" lon="12.785082458633555"><ele>303.5</ele><time>2026-03-22T08:20:15.999Z</time></trkpt><trkpt lat="42.1153861072674" lon="12.785031287589552"><ele>304.0</ele><time>2026-03-22T08:20:16.999Z</time></trkpt><trkpt lat="42.115518101993246" lon="12.784979598621515"><ele>304.5</ele><time>2026-03-22T08:20:17.999Z</time></trkpt><trkpt lat="42.11564781701841" lon="12.784930972458488"><ele>305.0</ele><time>2026-03-22T08:20:18.999Z</time></trkpt><trkpt lat="42.11578225461529" lon="12.784888057314424"><ele>305.0</ele><time>2026-03-22T08:20:19.999Z</time></trkpt><trkpt lat="42.115931175027846" lon="12.784863582809088"><ele>305.0</ele><time>2026-03-22T08:20:20.999Z</time></trkpt><trkpt lat="42.11608113184106" lon="12.784860515555014"><ele>305.0</ele><time>2026-03-22T08:20:21.999Z</time></trkpt><trkpt lat="42.11622103430478" lon="12.78487666025344"><ele>305.0</ele><time>2026-03-22T08:20:22.999Z</time></trkpt><trkpt lat="42.116379100333724" lon="12.78489885313159"><ele>305.0</ele><time>2026-03-22T08:20:23.999Z</time></trkpt><trkpt lat="42.11653319966428" lon="12.784904527136415"><ele>305.0</ele><time>2026-03-22T08:20:24.999Z</time></trkpt><trkpt lat="42.116695000284025" lon="12.78489762304139"><ele>305.0</ele><time>2026-03-22T08:20:25.999Z</time></trkpt><trkpt lat="42.1168438801804" lon="12.784887106438616"><ele>306.5</ele><time>2026-03-22T08:20:26.999Z</time></trkpt><trkpt lat="42.11697737984883" lon="12.78488585509309"><ele>308.0</ele><time>2026-03-22T08:20:27.999Z</time></trkpt><trkpt lat="42.117098016925965" lon="12.784898906167198"><ele>309.5</ele><time>2026-03-22T08:20:28.999Z</time></trkpt><trkpt lat="42.11722228068907" lon="12.784937458106096"><ele>311.0</ele><time>2026-03-22T08:20:29.999Z</time></trkpt><trkpt lat="42.11733354231721" lon="12.785012304754344"><ele>312.2</ele><time>2026-03-22T08:20:30.999Z</time></trkpt><trkpt lat="42.117431175585175" lon="12.785082359312403"><ele>313.40000000000003</ele><time>2026-03-22T08:20:31.999Z</time></trkpt><trkpt lat="42.11751998386" lon="12.785101366362703"><ele>314.6</ele><time>2026-03-22T08:20:32.999Z</time></trkpt><trkpt lat="42.11759677761976" lon="12.785072168274267"><ele>315.8</ele><time>2026-03-22T08:20:33.999Z</time></trkpt><trkpt lat="42.117663827497275" lon="12.785008199970495"><ele>317.0</ele><time>2026-03-22T08:20:34.999Z</time></trkpt><trkpt lat="42.11771583956867" lon="12.784912170496984"><ele>317.0</ele><time>2026-03-22T08:20:35.999Z</time></trkpt><trkpt lat="42.1177511266747" lon="12.784789484986456"><ele>317.0</ele><time>2026-03-22T08:20:36.999Z</time></trkpt><trkpt lat="42.11777235371611" lon="12.784648008991217"><ele>317.0</ele><time>2026-03-22T08:20:37.999Z</time></trkpt><trkpt lat="42.117778924941454" lon="12.784495030626331"><ele>317.0</ele><time>2026-03-22T08:20:38.999Z</time></trkpt><trkpt lat="42.11778674454395" lon="12.784338501944266"><ele>317.0</ele><time>2026-03-22T08:20:39.999Z</time></trkpt><trkpt lat="42.117803555330795" lon="12.784179647547235"><ele>316.5</ele><time>2026-03-22T08:20:40.999Z</time></trkpt><trkpt lat="42.11781365090761" lon="12.784041244415052"><ele>316.0</ele><time>2026-03-22T08:20:41.999Z</time></trkpt><trkpt lat="42.11783574302109" lon="12.783929230621423"><ele>315.5</ele><time>2026-03-22T08:20:42.999Z</time></trkpt><trkpt lat="42.117866431794994" lon="12.783848292405901"><ele>315.0</ele><time>2026-03-22T08:20:43.999Z</time></trkpt><trkpt lat="42.11797491906441" lon="12.783805331252234"><ele>314.5</ele><time>2026-03-22T08:20:45.999Z</time></trkpt><trkpt lat="42.11802994440171" lon="12.783863182462579"><ele>314.0</ele><time>2026-03-22T08:20:46.999Z</time></trkpt><trkpt lat="42.11806656387603" lon="12.783961830071668"><ele>314.0</ele><time>2026-03-22T08:20:47.999Z</time></trkpt><trkpt lat="42.11809682530575" lon="12.784085893715723"><ele>314.0</ele><time>2026-03-22T08:20:48.999Z</time></trkpt><trkpt lat="42.118138415311776" lon="12.784231287655725"><ele>314.0</ele><time>2026-03-22T08:20:49.999Z</time></trkpt><trkpt lat="42.118191430828816" lon="12.784388580878279"><ele>314.0</ele><time>2026-03-22T08:20:50.999Z</time></trkpt><trkpt lat="42.118254344451024" lon="12.784584395267522"><ele>318.6666666666667</ele><time>2026-03-22T08:20:51.999Z</time></trkpt><trkpt lat="42.11831961062333" lon="12.784796058328041"><ele>323.3333333333333</ele><time>2026-03-22T08:20:52.999Z</time></trkpt><trkpt lat="42.11839653207545" lon="12.785028288809553"><ele>328.0</ele><time>2026-03-22T08:20:53.999Z</time></trkpt><trkpt lat="42.1184675947471" lon="12.78526768109639"><ele>328.5</ele><time>2026-03-22T08:20:54.999Z</time></trkpt><trkpt lat="42.11851881830215" lon="12.785491830256692"><ele>329.0</ele><time>2026-03-22T08:20:55.999Z</time></trkpt><trkpt lat="42.11855049623669" lon="12.785680169170769"><ele>329.5</ele><time>2026-03-22T08:20:56.999Z</time></trkpt><trkpt lat="42.11857483387328" lon="12.785822884953397"><ele>330.0</ele><time>2026-03-22T08:20:57.999Z</time></trkpt><trkpt lat="42.11859639564098" lon="12.785928070729712"><ele>330.0</ele><time>2026-03-22T08:20:58.999Z</time></trkpt><trkpt lat="42.11861395441373" lon="12.78601495795925"><ele>330.0</ele><time>2026-03-22T08:20:59.999Z</time></trkpt><trkpt lat="42.11864404789982" lon="12.786115793496961"><ele>330.0</ele><time>2026-03-22T08:21:01.999Z</time></trkpt><trkpt lat="42.1187425077349" lon="12.786041242941625"><ele>330.0</ele><time>2026-03-22T08:21:03.998Z</time></trkpt><trkpt lat="42.11884577055696" lon="12.7859392936822"><ele>330.0</ele><time>2026-03-22T08:21:05.998Z</time></trkpt><trkpt lat="42.118927415843224" lon="12.785881455376959"><ele>330.0</ele><time>2026-03-22T08:21:06.998Z</time></trkpt><trkpt lat="42.11902111521243" lon="12.785821897870921"><ele>330.0</ele><time>2026-03-22T08:21:07.998Z</time></trkpt><trkpt lat="42.11911921236525" lon="12.785777711019305"><ele>330.0</ele><time>2026-03-22T08:21:08.998Z</time></trkpt><trkpt lat="42.119184084681" lon="12.785756137219511"><ele>330.0</ele><time>2026-03-22T08:21:09.998Z</time></trkpt><trkpt lat="42.11924591180517" lon="12.785787284937268"><ele>330.0</ele><time>2026-03-22T08:21:10.998Z</time></trkpt><trkpt lat="42.119318966517866" lon="12.785830138441488"><ele>330.0</ele><time>2026-03-22T08:21:11.998Z</time></trkpt><trkpt lat="42.11938577286345" lon="12.785862225083033"><ele>333.6</ele><time>2026-03-22T08:21:12.998Z</time></trkpt><trkpt lat="42.11948955488264" lon="12.785789226071865"><ele>337.2</ele><time>2026-03-22T08:21:14.999Z</time></trkpt><trkpt lat="42.11951358914357" lon="12.785681971151355"><ele>340.79999999999995</ele><time>2026-03-22T08:21:15.999Z</time></trkpt><trkpt lat="42.119545927305495" lon="12.785537528245941"><ele>344.4</ele><time>2026-03-22T08:21:16.999Z</time></trkpt><trkpt lat="42.11958821431318" lon="12.785409077631522"><ele>348.0</ele><time>2026-03-22T08:21:17.999Z</time></trkpt><trkpt lat="42.11962511966558" lon="12.785323509602854"><ele>348.0</ele><time>2026-03-22T08:21:18.999Z</time></trkpt><trkpt lat="42.1196632906547" lon="12.785240895739761"><ele>348.0</ele><time>2026-03-22T08:21:20.999Z</time></trkpt><trkpt lat="42.11974086278036" lon="12.785347306957291"><ele>348.0</ele><time>2026-03-22T08:21:24Z</time></trkpt><trkpt lat="42.11976137468863" lon="12.785453624596682"><ele>348.0</ele><time>2026-03-22T08:21:25Z</time></trkpt><trkpt lat="42.11980133088657" lon="12.785561339515828"><ele>348.0</ele><time>2026-03-22T08:21:26Z</time></trkpt><trkpt lat="42.11985489605952" lon="12.785692505186766"><ele>351.75</ele><time>2026-03-22T08:21:27Z</time></trkpt><trkpt lat="42.119905835367526" lon="12.785826384750225"><ele>355.5</ele><time>2026-03-22T08:21:28Z</time></trkpt><trkpt lat="42.11995346953725" lon="12.785970296272032"><ele>359.25</ele><time>2026-03-22T08:21:29Z</time></trkpt><trkpt lat="42.12000929015724" lon="12.786117288539387"><ele>363.0</ele><time>2026-03-22T08:21:30Z</time></trkpt><trkpt lat="42.12005267887357" lon="12.78625982624086"><ele>363.8333333333333</ele><time>2026-03-22T08:21:31Z</time></trkpt><trkpt lat="42.120076185302565" lon="12.786384359699356"><ele>364.6666666666667</ele><time>2026-03-22T08:21:32Z</time></trkpt><trkpt lat="42.12010320578029" lon="12.786481793438872"><ele>365.5</ele><time>2026-03-22T08:21:33Z</time></trkpt><trkpt lat="42.12013185822544" lon="12.786580022263568"><ele>366.33333333333337</ele><time>2026-03-22T08:21:34Z</time></trkpt><trkpt lat="42.12016476450003" lon="12.78668470272827"><ele>367.1666666666667</ele><time>2026-03-22T08:21:35Z</time></trkpt><trkpt lat="42.120192967794935" lon="12.786795547065898"><ele>368.0</ele><time>2026-03-22T08:21:36Z</time></trkpt><trkpt lat="42.12023443098013" lon="12.786912805710475"><ele>369.0</ele><time>2026-03-22T08:21:37Z</time></trkpt><trkpt lat="42.12028494563683" lon="12.787041930901818"><ele>370.0</ele><time>2026-03-22T08:21:38Z</time></trkpt><trkpt lat="42.12031372505733" lon="12.787177726512699"><ele>371.0</ele><time>2026-03-22T08:21:39Z</time></trkpt><trkpt lat="42.12034088405056" lon="12.787343687878183"><ele>372.0</ele><time>2026-03-22T08:21:40Z</time></trkpt><trkpt lat="42.12036033037541" lon="12.787536664956525"><ele>372.5</ele><time>2026-03-22T08:21:41Z</time></trkpt><trkpt lat="42.120379907544105" lon="12.787730438245475"><ele>373.0</ele><time>2026-03-22T08:21:42Z</time></trkpt><trkpt lat="42.120402651125715" lon="12.787914426362875"><ele>373.5</ele><time>2026-03-22T08:21:43Z</time></trkpt><trkpt lat="42.120428345349396" lon="12.788111099315104"><ele>374.0</ele><time>2026-03-22T08:21:44Z</time></trkpt><trkpt lat="42.1204589101619" lon="12.788296240429565"><ele>374.0</ele><time>2026-03-22T08:21:45Z</time></trkpt><trkpt lat="42.12050201345429" lon="12.788449434591408"><ele>374.0</ele><time>2026-03-22T08:21:46Z</time></trkpt><trkpt lat="42.12052936710359" lon="12.788612799857082"><ele>374.0</ele><time>2026-03-22T08:21:47Z</time></trkpt><trkpt lat="42.12055923191691" lon="12.788757578967948"><ele>374.0</ele><time>2026-03-22T08:21:48Z</time></trkpt><trkpt lat="42.12058022496452" lon="12.788879102105518"><ele>374.5</ele><time>2026-03-22T08:21:49Z</time></trkpt><trkpt lat="42.120610859817255" lon="12.7889832078292"><ele>375.0</ele><time>2026-03-22T08:21:50Z</time></trkpt><trkpt lat="42.12064357391522" lon="12.789084608319714"><ele>375.5</ele><time>2026-03-22T08:21:51Z</time></trkpt><trkpt lat="42.1206733885818" lon="12.789195888370731"><ele>376.0</ele><time>2026-03-22T08:21:52Z</time></trkpt><trkpt lat="42.12069764066484" lon="12.789290208035784"><ele>376.5</ele><time>2026-03-22T08:21:53Z</time></trkpt><trkpt lat="42.12072215843552" lon="12.789399486383022"><ele>377.0</ele><time>2026-03-22T08:21:54Z</time></trkpt><trkpt lat="42.12075271865344" lon="12.789506340787918"><ele>380.0</ele><time>2026-03-22T08:21:55Z</time></trkpt><trkpt lat="42.12078416502597" lon="12.789620484110412"><ele>383.0</ele><time>2026-03-22T08:21:56Z</time></trkpt><trkpt lat="42.120809460575366" lon="12.789752293631944"><ele>386.0</ele><time>2026-03-22T08:21:57Z</time></trkpt><trkpt lat="42.12081958245943" lon="12.78987197704298"><ele>389.0</ele><time>2026-03-22T08:21:58Z</time></trkpt><trkpt lat="42.12082255310295" lon="12.789969970471319"><ele>392.0</ele><time>2026-03-22T08:21:59Z</time></trkpt><trkpt lat="42.12082948616823" lon="12.790121820148919"><ele>393.0</ele><time>2026-03-22T08:22:01Z</time></trkpt><trkpt lat="42.12084413856606" lon="12.790273013828392"><ele>394.0</ele><time>2026-03-22T08:22:03Z</time></trkpt><trkpt lat="42.12086305137781" lon="12.790396102468463"><ele>395.0</ele><time>2026-03-22T08:22:04Z</time></trkpt><trkpt lat="42.12088201855923" lon="12.790545506361775"><ele>396.0</ele><time>2026-03-22T08:22:05Z</time></trkpt><trkpt lat="42.12090764589994" lon="12.790685977072922"><ele>397.0</ele><time>2026-03-22T08:22:06Z</time></trkpt><trkpt lat="42.12091243722761" lon="12.790829570104913"><ele>397.0</ele><time>2026-03-22T08:22:07Z</time></trkpt><trkpt lat="42.12092504166692" lon="12.790984601257968"><ele>397.0</ele><time>2026-03-22T08:22:08Z</time></trkpt><trkpt lat="42.120946453687914" lon="12.791163625826638"><ele>397.0</ele><time>2026-03-22T08:22:09Z</time></trkpt><trkpt lat="42.12096305445423" lon="12.791360083701022"><ele>397.0</ele><time>2026-03-22T08:22:10Z</time></trkpt><trkpt lat="42.12096922485679" lon="12.791561661068785"><ele>400.40000000000003</ele><time>2026-03-22T08:22:11Z</time></trkpt><trkpt lat="42.120984122858616" lon="12.791748506365312"><ele>403.8</ele><time>2026-03-22T08:22:12Z</time></trkpt><trkpt lat="42.12100145856159" lon="12.791925171909424"><ele>407.2</ele><time>2026-03-22T08:22:13Z</time></trkpt><trkpt lat="42.12100965745139" lon="12.792049995174649"><ele>410.6</ele><time>2026-03-22T08:22:14Z</time></trkpt><trkpt lat="42.12100472045885" lon="12.792159205396374"><ele>414.0</ele><time>2026-03-22T08:22:16Z</time></trkpt><trkpt lat="42.12131217522508" lon="12.792209095615856"><ele>416.25</ele><time>2026-03-22T08:22:19Z</time></trkpt><trkpt lat="42.12143643069092" lon="12.79222731118387"><ele>418.5</ele><time>2026-03-22T08:22:20Z</time></trkpt><trkpt lat="42.12158664112886" lon="12.792238730266584"><ele>420.75</ele><time>2026-03-22T08:22:21Z</time></trkpt><trkpt lat="42.12176025539666" lon="12.792253445588067"><ele>423.0</ele><time>2026-03-22T08:22:22Z</time></trkpt><trkpt lat="42.12191531562913" lon="12.792253033099033"><ele>423.0</ele><time>2026-03-22T08:22:23Z</time></trkpt><trkpt lat="42.12201896471101" lon="12.792242292590558"><ele>423.0</ele><time>2026-03-22T08:22:24Z</time></trkpt><trkpt lat="42.12213417289116" lon="12.792246288303588"><ele>423.0</ele><time>2026-03-22T08:22:25Z</time></trkpt><trkpt lat="42.12224595038049" lon="12.792248309892942"><ele>423.0</ele><time>2026-03-22T08:22:26Z</time></trkpt><trkpt lat="42.12232478055115" lon="12.792239127989424"><ele>423.0</ele><time>2026-03-22T08:22:27Z</time></trkpt><trkpt lat="42.12238970461727" lon="12.792239200699148"><ele>425.2</ele><time>2026-03-22T08:22:28Z</time></trkpt><trkpt lat="42.12243456350723" lon="12.792336647465422"><ele>427.4</ele><time>2026-03-22T08:22:30Z</time></trkpt><trkpt lat="42.122453950342134" lon="12.792522952435535"><ele>429.59999999999997</ele><time>2026-03-22T08:22:32Z</time></trkpt><trkpt lat="42.12245621569093" lon="12.792636802825752"><ele>431.79999999999995</ele><time>2026-03-22T08:22:33Z</time></trkpt><trkpt lat="42.122463668712385" lon="12.792747003998787"><ele>434.0</ele><time>2026-03-22T08:22:34Z</time></trkpt><trkpt lat="42.12248555135703" lon="12.792876850039644"><ele>436.4</ele><time>2026-03-22T08:22:35Z</time></trkpt><trkpt lat="42.12250257402972" lon="12.79300894024994"><ele>438.79999999999995</ele><time>2026-03-22T08:22:36Z</time></trkpt><trkpt lat="42.12252420847654" lon="12.793151665032632"><ele>441.20000000000005</ele><time>2026-03-22T08:22:37Z</time></trkpt><trkpt lat="42.122543179720466" lon="12.79330166449503"><ele>443.6</ele><time>2026-03-22T08:22:38Z</time></trkpt><trkpt lat="42.12254888341883" lon="12.79342507721341"><ele>446.0</ele><time>2026-03-22T08:22:39Z</time></trkpt><trkpt lat="42.12254907455658" lon="12.79353657906041"><ele>447.99999999999994</ele><time>2026-03-22T08:22:40Z</time></trkpt><trkpt lat="42.12255458749429" lon="12.793660566102327"><ele>450.0</ele><time>2026-03-22T08:22:41Z</time></trkpt><trkpt lat="42.12257395992242" lon="12.793781974617337"><ele>452.0</ele><time>2026-03-22T08:22:42Z</time></trkpt><trkpt lat="42.122596785946016" lon="12.793893428455696"><ele>454.0</ele><time>2026-03-22T08:22:43Z</time></trkpt><trkpt lat="42.12261060576552" lon="12.794002874012605"><ele>455.99999999999994</ele><time>2026-03-22T08:22:44Z</time></trkpt><trkpt lat="42.12262330585541" lon="12.794088818025985"><ele>458.0</ele><time>2026-03-22T08:22:45Z</time></trkpt><trkpt lat="42.12262574162192" lon="12.794181781661466"><ele>458.0</ele><time>2026-03-22T08:22:46Z</time></trkpt><trkpt lat="42.12254361464041" lon="12.794328582667871"><ele>458.0</ele><time>2026-03-22T08:22:48Z</time></trkpt><trkpt lat="42.12247639978897" lon="12.79442331859076"><ele>458.0</ele><time>2026-03-22T08:22:49Z</time></trkpt><trkpt lat="42.12240794037664" lon="12.794535709408974"><ele>458.0</ele><time>2026-03-22T08:22:50Z</time></trkpt><trkpt lat="42.122334972141495" lon="12.794665258771651"><ele>461.0</ele><time>2026-03-22T08:22:51Z</time></trkpt><trkpt lat="42.12225071414574" lon="12.794806883305743"><ele>463.99999999999994</ele><time>2026-03-22T08:22:52Z</time></trkpt><trkpt lat="42.122187118027185" lon="12.794910300345645"><ele>466.99999999999994</ele><time>2026-03-22T08:22:53Z</time></trkpt><trkpt lat="42.12213510188371" lon="12.795004084137574"><ele>470.0</ele><time>2026-03-22T08:22:54Z</time></trkpt><trkpt lat="42.12207876490901" lon="12.79512004736891"><ele>473.0</ele><time>2026-03-22T08:22:55Z</time></trkpt><trkpt lat="42.122025710636436" lon="12.795219521289793"><ele>476.79999999999995</ele><time>2026-03-22T08:22:56Z</time></trkpt><trkpt lat="42.12194014801508" lon="12.795283067592027"><ele>480.59999999999997</ele><time>2026-03-22T08:22:58Z</time></trkpt><trkpt lat="42.1219593848299" lon="12.795365896379705"><ele>484.40000000000003</ele><time>2026-03-22T08:23:04Z</time></trkpt><trkpt lat="42.12212392567666" lon="12.79546906286986"><ele>488.20000000000005</ele><time>2026-03-22T08:23:06.999Z</time></trkpt><trkpt lat="42.12222339690569" lon="12.795510132914423"><ele>492.0</ele><time>2026-03-22T08:23:07.999Z</time></trkpt><trkpt lat="42.12232220884748" lon="12.795569044421711"><ele>492.6</ele><time>2026-03-22T08:23:08.999Z</time></trkpt><trkpt lat="42.12241269995417" lon="12.79563048203208"><ele>493.20000000000005</ele><time>2026-03-22T08:23:09.999Z</time></trkpt><trkpt lat="42.122506226218384" lon="12.79569504373613"><ele>493.8</ele><time>2026-03-22T08:23:10.999Z</time></trkpt><trkpt lat="42.12260331616056" lon="12.795749812197984"><ele>494.4</ele><time>2026-03-22T08:23:11.999Z</time></trkpt><trkpt lat="42.122692564688485" lon="12.795817803536229"><ele>495.0</ele><time>2026-03-22T08:23:12.999Z</time></trkpt><trkpt lat="42.12277785973049" lon="12.795876771879819"><ele>494.99999999999994</ele><time>2026-03-22T08:23:13.999Z</time></trkpt><trkpt lat="42.12280522993224" lon="12.795961742686842"><ele>495.0</ele><time>2026-03-22T08:23:15.999Z</time></trkpt><trkpt lat="42.12273738990727" lon="12.796026398667374"><ele>494.99999999999994</ele><time>2026-03-22T08:23:17.999Z</time></trkpt><trkpt lat="42.122693479971076" lon="12.796088474458536"><ele>494.99999999999994</ele><time>2026-03-22T08:23:18.999Z</time></trkpt><trkpt lat="42.12265333690941" lon="12.796163178502827"><ele>495.0</ele><time>2026-03-22T08:23:19.999Z</time></trkpt><trkpt lat="42.12260076140854" lon="12.79623093563653"><ele>494.99999999999994</ele><time>2026-03-22T08:23:21Z</time></trkpt><trkpt lat="42.122544584466745" lon="12.796316676955483"><ele>494.99999999999994</ele><time>2026-03-22T08:23:22Z</time></trkpt><trkpt lat="42.12248622791178" lon="12.796402975733352"><ele>499.0</ele><time>2026-03-22T08:23:23Z</time></trkpt><trkpt lat="42.122427834700964" lon="12.796512350238519"><ele>503.0</ele><time>2026-03-22T08:23:24Z</time></trkpt><trkpt lat="42.12236959313353" lon="12.796640761220722"><ele>507.0</ele><time>2026-03-22T08:23:25Z</time></trkpt><trkpt lat="42.122309029723105" lon="12.796765386907177"><ele>511.0</ele><time>2026-03-22T08:23:26Z</time></trkpt><trkpt lat="42.12221991591398" lon="12.796902261298202"><ele>514.8</ele><time>2026-03-22T08:23:27Z</time></trkpt><trkpt lat="42.1221393499094" lon="12.79701723208805"><ele>518.6</ele><time>2026-03-22T08:23:28Z</time></trkpt><trkpt lat="42.12206120300419" lon="12.797094429379875"><ele>522.4</ele><time>2026-03-22T08:23:29Z</time></trkpt><trkpt lat="42.121994276938416" lon="12.79719209125747"><ele>526.2</ele><time>2026-03-22T08:23:31Z</time></trkpt><trkpt lat="42.12202807853385" lon="12.797280232219292"><ele>530.0</ele><time>2026-03-22T08:23:59Z</time></trkpt><trkpt lat="42.12209215654858" lon="12.797362578617195"><ele>530.0</ele><time>2026-03-22T08:24:03Z</time></trkpt><trkpt lat="42.122144955508055" lon="12.797448887655888"><ele>530.0</ele><time>2026-03-22T08:24:06Z</time></trkpt><trkpt lat="42.12220918554674" lon="12.797505201304993"><ele>530.0</ele><time>2026-03-22T08:24:08Z</time></trkpt><trkpt lat="42.122256844042774" lon="12.79757173489647"><ele>530.0</ele><time>2026-03-22T08:24:11Z</time></trkpt><trkpt lat="42.12228237698693" lon="12.797650435728052"><ele>530.0</ele><time>2026-03-22T08:24:42Z</time></trkpt><trkpt lat="42.12233055784258" lon="12.797736491067381"><ele>530.0</ele><time>2026-03-22T08:24:45Z</time></trkpt><trkpt lat="42.12240922799993" lon="12.79779393591121"><ele>531.8571428571428</ele><time>2026-03-22T08:24:48Z</time></trkpt><trkpt lat="42.12247243799221" lon="12.797873945514329"><ele>533.7142857142857</ele><time>2026-03-22T08:24:51Z</time></trkpt><trkpt lat="42.122519407976185" lon="12.797947699206034"><ele>535.5714285714286</ele><time>2026-03-22T08:24:53Z</time></trkpt><trkpt lat="42.122577969702114" lon="12.798009454132314"><ele>537.4285714285713</ele><time>2026-03-22T08:24:55Z</time></trkpt><trkpt lat="42.122612402190605" lon="12.79808948278307"><ele>539.2857142857142</ele><time>2026-03-22T08:24:58Z</time></trkpt><trkpt lat="42.122587310093856" lon="12.798169547913428"><ele>541.1428571428571</ele><time>2026-03-22T08:25:20.999Z</time></trkpt><trkpt lat="42.12261027752787" lon="12.79825852737278"><ele>543.0</ele><time>2026-03-22T08:25:25.999Z</time></trkpt><trkpt lat="42.12260746453419" lon="12.798354171679712"><ele>543.0</ele><time>2026-03-22T08:25:29Z</time></trkpt><trkpt lat="42.122648750064904" lon="12.79842821604412"><ele>543.0</ele><time>2026-03-22T08:25:32Z</time></trkpt><trkpt lat="42.12264336320069" lon="12.798567001710284"><ele>543.0</ele><time>2026-03-22T08:27:46Z</time></trkpt><trkpt lat="42.122654100614184" lon="12.798686175363459"><ele>543.0</ele><time>2026-03-22T08:27:48Z</time></trkpt><trkpt lat="42.12265680667227" lon="12.798827182718"><ele>543.0</ele><time>2026-03-22T08:27:50Z</time></trkpt><trkpt lat="42.122675141615055" lon="12.798966015736887"><ele>543.1999999999999</ele><time>2026-03-22T08:27:51Z</time></trkpt><trkpt lat="42.122665945463524" lon="12.79910375602559"><ele>543.4</ele><time>2026-03-22T08:27:53Z</time></trkpt><trkpt lat="42.12268577982172" lon="12.799224389719436"><ele>543.5999999999999</ele><time>2026-03-22T08:27:55Z</time></trkpt><trkpt lat="42.122694978164475" lon="12.799331426170209"><ele>543.8</ele><time>2026-03-22T08:27:56Z</time></trkpt><trkpt lat="42.1226981126637" lon="12.799465951691586"><ele>544.0</ele><time>2026-03-22T08:27:58Z</time></trkpt><trkpt lat="42.12271549772375" lon="12.79961729765984"><ele>544.0</ele><time>2026-03-22T08:28:00Z</time></trkpt><trkpt lat="42.122727913825564" lon="12.79979159807029"><ele>544.0</ele><time>2026-03-22T08:28:02Z</time></trkpt><trkpt lat="42.122739771513125" lon="12.799879861313368"><ele>544.0</ele><time>2026-03-22T08:28:03Z</time></trkpt><trkpt lat="42.122763786681524" lon="12.800051022636367"><ele>544.0</ele><time>2026-03-22T08:28:05Z</time></trkpt><trkpt lat="42.122767785483255" lon="12.800151941618886"><ele>544.0</ele><time>2026-03-22T08:28:06Z</time></trkpt><trkpt lat="42.12276920980373" lon="12.800311650992032"><ele>544.6</ele><time>2026-03-22T08:28:08Z</time></trkpt><trkpt lat="42.12279307313374" lon="12.800393503704317"><ele>545.2</ele><time>2026-03-22T08:28:09Z</time></trkpt><trkpt lat="42.12288085269208" lon="12.800555886034008"><ele>545.8000000000001</ele><time>2026-03-22T08:28:11Z</time></trkpt><trkpt lat="42.12293149234976" lon="12.800656597649326"><ele>546.4</ele><time>2026-03-22T08:28:12Z</time></trkpt><trkpt lat="42.12297876489905" lon="12.800739719878939"><ele>547.0</ele><time>2026-03-22T08:28:13Z</time></trkpt><trkpt lat="42.1230311620224" lon="12.80082610921152"><ele>547.0</ele><time>2026-03-22T08:28:14Z</time></trkpt><trkpt lat="42.123097084687984" lon="12.800931651826152"><ele>547.0</ele><time>2026-03-22T08:28:16Z</time></trkpt><trkpt lat="42.12317994414398" lon="12.801026646844345"><ele>547.0</ele><time>2026-03-22T08:28:18Z</time></trkpt><trkpt lat="42.1233156353112" lon="12.801058377769971"><ele>547.0</ele><time>2026-03-22T08:28:20Z</time></trkpt><trkpt lat="42.12340482548961" lon="12.801060544447587"><ele>547.0</ele><time>2026-03-22T08:28:21Z</time></trkpt><trkpt lat="42.12346459708599" lon="12.80110005522738"><ele>547.8000000000001</ele><time>2026-03-22T08:28:23Z</time></trkpt><trkpt lat="42.12347179647349" lon="12.80126714442362"><ele>548.6</ele><time>2026-03-22T08:28:25Z</time></trkpt><trkpt lat="42.12347753924957" lon="12.801380986379247"><ele>549.4000000000001</ele><time>2026-03-22T08:28:26Z</time></trkpt><trkpt lat="42.12349178801506" lon="12.801490065276802"><ele>550.2</ele><time>2026-03-22T08:28:27Z</time></trkpt><trkpt lat="42.12349103071367" lon="12.801611094689752"><ele>551.0</ele><time>2026-03-22T08:28:28Z</time></trkpt><trkpt lat="42.12347792848718" lon="12.801731375183316"><ele>552.8</ele><time>2026-03-22T08:28:29Z</time></trkpt><trkpt lat="42.12345973868299" lon="12.801857163955791"><ele>554.6</ele><time>2026-03-22T08:28:30Z</time></trkpt><trkpt lat="42.12343257371933" lon="12.80199758223421"><ele>556.4</ele><time>2026-03-22T08:28:31Z</time></trkpt><trkpt lat="42.1234020072064" lon="12.802135461743335"><ele>558.2</ele><time>2026-03-22T08:28:32Z</time></trkpt><trkpt lat="42.12337874288163" lon="12.802272174340299"><ele>560.0</ele><time>2026-03-22T08:28:33Z</time></trkpt><trkpt lat="42.12335468815951" lon="12.802438832013834"><ele>560.0</ele><time>2026-03-22T08:28:34Z</time></trkpt><trkpt lat="42.12334659439166" lon="12.802628735896755"><ele>560.0</ele><time>2026-03-22T08:28:35Z</time></trkpt><trkpt lat="42.12334479286869" lon="12.802796017836553"><ele>560.0</ele><time>2026-03-22T08:28:36Z</time></trkpt><trkpt lat="42.123347108035205" lon="12.802922154771673"><ele>560.0</ele><time>2026-03-22T08:28:37Z</time></trkpt><trkpt lat="42.123344393128406" lon="12.803020875375733"><ele>560.0</ele><time>2026-03-22T08:28:38Z</time></trkpt><trkpt lat="42.12332211879897" lon="12.803120106582945"><ele>560.4</ele><time>2026-03-22T08:28:39Z</time></trkpt><trkpt lat="42.12330542083564" lon="12.803247526035396"><ele>560.8</ele><time>2026-03-22T08:28:40Z</time></trkpt><trkpt lat="42.12329734684571" lon="12.803363663215368"><ele>561.2</ele><time>2026-03-22T08:28:41Z</time></trkpt><trkpt lat="42.12327478811737" lon="12.803492282502893"><ele>561.6</ele><time>2026-03-22T08:28:42Z</time></trkpt><trkpt lat="42.12324057418348" lon="12.803620964739274"><ele>562.0</ele><time>2026-03-22T08:28:43Z</time></trkpt><trkpt lat="42.1231978060276" lon="12.80371372160813"><ele>564.8000000000001</ele><time>2026-03-22T08:28:44Z</time></trkpt><trkpt lat="42.123136636347205" lon="12.803753852015047"><ele>567.6</ele><time>2026-03-22T08:28:45Z</time></trkpt><trkpt lat="42.12304559494582" lon="12.803770796640503"><ele>570.4000000000001</ele><time>2026-03-22T08:28:46Z</time></trkpt><trkpt lat="42.12293697191752" lon="12.8037919205476"><ele>573.2</ele><time>2026-03-22T08:28:47Z</time></trkpt><trkpt lat="42.12284410664902" lon="12.803845184886914"><ele>576.0</ele><time>2026-03-22T08:28:48Z</time></trkpt><trkpt lat="42.12272939585354" lon="12.803897383707664"><ele>576.0</ele><time>2026-03-22T08:28:49Z</time></trkpt><trkpt lat="42.122635445887134" lon="12.803996077363768"><ele>576.0</ele><time>2026-03-22T08:28:50Z</time></trkpt><trkpt lat="42.122544181774735" lon="12.804099663002518"><ele>576.0</ele><time>2026-03-22T08:28:51Z</time></trkpt><trkpt lat="42.12247009560175" lon="12.80421619741204"><ele>576.0</ele><time>2026-03-22T08:28:52Z</time></trkpt><trkpt lat="42.122400458061904" lon="12.804330473432108"><ele>577.6</ele><time>2026-03-22T08:28:53Z</time></trkpt><trkpt lat="42.122337347405335" lon="12.804422001646518"><ele>579.2</ele><time>2026-03-22T08:28:54Z</time></trkpt><trkpt lat="42.122255376886926" lon="12.804479854171344"><ele>580.8</ele><time>2026-03-22T08:28:55Z</time></trkpt><trkpt lat="42.12217774046064" lon="12.80452329200919"><ele>582.4</ele><time>2026-03-22T08:28:56Z</time></trkpt><trkpt lat="42.12209017693828" lon="12.804590314966946"><ele>584.0</ele><time>2026-03-22T08:28:57Z</time></trkpt><trkpt lat="42.12199854342222" lon="12.804719070063117"><ele>584.0</ele><time>2026-03-22T08:28:58Z</time></trkpt><trkpt lat="42.121894061865945" lon="12.804876410431795"><ele>584.0</ele><time>2026-03-22T08:28:59Z</time></trkpt><trkpt lat="42.12180278844822" lon="12.80501442287037"><ele>584.0</ele><time>2026-03-22T08:29:00Z</time></trkpt><trkpt lat="42.121722438530874" lon="12.805137362725295"><ele>584.0</ele><time>2026-03-22T08:29:01Z</time></trkpt><trkpt lat="42.12162770968247" lon="12.80527852661844"><ele>585.5</ele><time>2026-03-22T08:29:02Z</time></trkpt><trkpt lat="42.12155437095263" lon="12.805443779207936"><ele>587.0</ele><time>2026-03-22T08:29:03Z</time></trkpt><trkpt lat="42.121487985839025" lon="12.805602967014874"><ele>588.5</ele><time>2026-03-22T08:29:04Z</time></trkpt><trkpt lat="42.1214074903594" lon="12.805733898517152"><ele>590.0</ele><time>2026-03-22T08:29:05Z</time></trkpt><trkpt lat="42.121340110012504" lon="12.805839825556118"><ele>590.0</ele><time>2026-03-22T08:29:06Z</time></trkpt><trkpt lat="42.12129430065508" lon="12.805960787309191"><ele>590.0</ele><time>2026-03-22T08:29:07Z</time></trkpt><trkpt lat="42.121247391120356" lon="12.806085635070941"><ele>590.0</ele><time>2026-03-22T08:29:08Z</time></trkpt><trkpt lat="42.12120925221758" lon="12.806164800117667"><ele>590.0</ele><time>2026-03-22T08:29:09Z</time></trkpt><trkpt lat="42.1211598808592" lon="12.8062384668913"><ele>590.0</ele><time>2026-03-22T08:29:10Z</time></trkpt><trkpt lat="42.12110342099046" lon="12.806312515379208"><ele>590.0</ele><time>2026-03-22T08:29:11Z</time></trkpt><trkpt lat="42.12102241487778" lon="12.80638411391185"><ele>589.6</ele><time>2026-03-22T08:29:12Z</time></trkpt><trkpt lat="42.12094638668917" lon="12.806463686158967"><ele>589.2</ele><time>2026-03-22T08:29:13Z</time></trkpt><trkpt lat="42.12089507339576" lon="12.806543577132123"><ele>588.8</ele><time>2026-03-22T08:29:14Z</time></trkpt><trkpt lat="42.120842178402896" lon="12.806665510425324"><ele>588.4</ele><time>2026-03-22T08:29:15.999Z</time></trkpt><trkpt lat="42.12088627783244" lon="12.806815209981682"><ele>588.0</ele><time>2026-03-22T08:29:17.999Z</time></trkpt><trkpt lat="42.12093383372203" lon="12.806925137957608"><ele>588.0</ele><time>2026-03-22T08:29:19.999Z</time></trkpt><trkpt lat="42.121016731036676" lon="12.807016653494765"><ele>588.0</ele><time>2026-03-22T08:29:22.999Z</time></trkpt><trkpt lat="42.12109177375224" lon="12.807036930666213"><ele>588.0</ele><time>2026-03-22T08:29:24.999Z</time></trkpt><trkpt lat="42.121181553000625" lon="12.807077852548517"><ele>588.0</ele><time>2026-03-22T08:29:26.999Z</time></trkpt><trkpt lat="42.12125294065482" lon="12.807173783126338"><ele>588.0</ele><time>2026-03-22T08:29:30.999Z</time></trkpt><trkpt lat="42.121452952315636" lon="12.807448202830638"><ele>588.0</ele><time>2026-03-22T08:29:33.999Z</time></trkpt><trkpt lat="42.121545189148684" lon="12.807612455606339"><ele>588.0</ele><time>2026-03-22T08:29:34.999Z</time></trkpt><trkpt lat="42.12165060279296" lon="12.807776705496238"><ele>588.0</ele><time>2026-03-22T08:29:35.999Z</time></trkpt><trkpt lat="42.12173569783795" lon="12.80792422372856"><ele>593.0</ele><time>2026-03-22T08:29:36.999Z</time></trkpt><trkpt lat="42.12179844341255" lon="12.808054779872664"><ele>598.0</ele><time>2026-03-22T08:29:37.999Z</time></trkpt><trkpt lat="42.12183912038191" lon="12.808146513875302"><ele>603.0</ele><time>2026-03-22T08:29:39Z</time></trkpt><trkpt lat="42.121878617749424" lon="12.808228851771906"><ele>608.0</ele><time>2026-03-22T08:29:40Z</time></trkpt><trkpt lat="42.12193820066446" lon="12.808301874927409"><ele>613.0</ele><time>2026-03-22T08:29:41Z</time></trkpt><trkpt lat="42.1220318546052" lon="12.808287255616447"><ele>618.0</ele><time>2026-03-22T08:29:42Z</time></trkpt><trkpt lat="42.12210131651861" lon="12.808219045266412"><ele>618.0</ele><time>2026-03-22T08:29:43Z</time></trkpt><trkpt lat="42.122154544469915" lon="12.80811404238384"><ele>618.0</ele><time>2026-03-22T08:29:44Z</time></trkpt><trkpt lat="42.12222054157482" lon="12.808022935967074"><ele>618.0</ele><time>2026-03-22T08:29:45Z</time></trkpt><trkpt lat="42.12229376361832" lon="12.807895379797333"><ele>618.0</ele><time>2026-03-22T08:29:46Z</time></trkpt><trkpt lat="42.12241848260111" lon="12.807775829158551"><ele>613.75</ele><time>2026-03-22T08:29:47Z</time></trkpt><trkpt lat="42.12253054669958" lon="12.807657538029222"><ele>609.5</ele><time>2026-03-22T08:29:48Z</time></trkpt><trkpt lat="42.12264453241262" lon="12.807571639778962"><ele>605.25</ele><time>2026-03-22T08:29:49Z</time></trkpt><trkpt lat="42.12274474276618" lon="12.807540049197819"><ele>601.0</ele><time>2026-03-22T08:29:50Z</time></trkpt><trkpt lat="42.12284490598701" lon="12.807515467216213"><ele>601.0</ele><time>2026-03-22T08:29:51Z</time></trkpt><trkpt lat="42.122954357969" lon="12.807539211053248"><ele>601.0</ele><time>2026-03-22T08:29:52Z</time></trkpt><trkpt lat="42.123017114320255" lon="12.80755876670411"><ele>601.0</ele><time>2026-03-22T08:29:53Z</time></trkpt><trkpt lat="42.12309468957675" lon="12.807569629420826"><ele>601.0</ele><time>2026-03-22T08:29:54Z</time></trkpt><trkpt lat="42.123201124719294" lon="12.807644694814403"><ele>601.0</ele><time>2026-03-22T08:29:55Z</time></trkpt><trkpt lat="42.12328425697742" lon="12.80769790517351"><ele>611.75</ele><time>2026-03-22T08:29:56Z</time></trkpt><trkpt lat="42.12333507159001" lon="12.80803277437261"><ele>622.5</ele><time>2026-03-22T08:29:57Z</time></trkpt><trkpt lat="42.123405870251894" lon="12.80804113463401"><ele>633.25</ele><time>2026-03-22T08:29:58Z</time></trkpt><trkpt lat="42.12348178761644" lon="12.808053850302553"><ele>644.0</ele><time>2026-03-22T08:30:00Z</time></trkpt><trkpt lat="42.123564878847155" lon="12.808129599660946"><ele>644.0</ele><time>2026-03-22T08:30:09Z</time></trkpt><trkpt lat="42.123636852690076" lon="12.808160095436609"><ele>644.0</ele><time>2026-03-22T08:30:10Z</time></trkpt><trkpt lat="42.123732249479474" lon="12.808182588683401"><ele>644.0</ele><time>2026-03-22T08:30:11Z</time></trkpt><trkpt lat="42.123826609172546" lon="12.808229271367054"><ele>644.0</ele><time>2026-03-22T08:30:12Z</time></trkpt><trkpt lat="42.12393237306513" lon="12.808306649375341"><ele>644.0</ele><time>2026-03-22T08:30:13Z</time></trkpt><trkpt lat="42.12405289140949" lon="12.808388113112548"><ele>643.6</ele><time>2026-03-22T08:30:14Z</time></trkpt><trkpt lat="42.124141094982" lon="12.808497658255733"><ele>643.2</ele><time>2026-03-22T08:30:15Z</time></trkpt><trkpt lat="42.12422303929191" lon="12.80850103264146"><ele>642.8000000000001</ele><time>2026-03-22T08:30:16Z</time></trkpt><trkpt lat="42.12431940412302" lon="12.808465169846123"><ele>642.4000000000001</ele><time>2026-03-22T08:30:17Z</time></trkpt><trkpt lat="42.12443478423392" lon="12.808419468533442"><ele>642.0</ele><time>2026-03-22T08:30:18Z</time></trkpt><trkpt lat="42.12454431957979" lon="12.808323189085364"><ele>642.0</ele><time>2026-03-22T08:30:19Z</time></trkpt><trkpt lat="42.12465741012541" lon="12.808211333901774"><ele>642.0</ele><time>2026-03-22T08:30:20Z</time></trkpt><trkpt lat="42.12472751045908" lon="12.808065065283323"><ele>642.0</ele><time>2026-03-22T08:30:21Z</time></trkpt><trkpt lat="42.12480885969191" lon="12.80794219584379"><ele>642.0</ele><time>2026-03-22T08:30:22Z</time></trkpt><trkpt lat="42.12490275021085" lon="12.80781209470212"><ele>644.25</ele><time>2026-03-22T08:30:23Z</time></trkpt><trkpt lat="42.124975355295135" lon="12.807709549146379"><ele>646.5</ele><time>2026-03-22T08:30:24Z</time></trkpt><trkpt lat="42.1250578731315" lon="12.807685414059682"><ele>648.75</ele><time>2026-03-22T08:30:25Z</time></trkpt><trkpt lat="42.125162116571616" lon="12.807766935507614"><ele>651.0</ele><time>2026-03-22T08:30:27Z</time></trkpt><trkpt lat="42.12530877637889" lon="12.807874928252966"><ele>651.0</ele><time>2026-03-22T08:30:29Z</time></trkpt><trkpt lat="42.12537722900474" lon="12.807930419598284"><ele>651.0</ele><time>2026-03-22T08:30:30Z</time></trkpt><trkpt lat="42.12547699153703" lon="12.808020188883225"><ele>651.0</ele><time>2026-03-22T08:30:31Z</time></trkpt><trkpt lat="42.12559178015441" lon="12.808118293981938"><ele>651.0</ele><time>2026-03-22T08:30:32Z</time></trkpt><trkpt lat="42.12572427118677" lon="12.808270611777706"><ele>649.3333333333334</ele><time>2026-03-22T08:30:33Z</time></trkpt><trkpt lat="42.12588155854982" lon="12.808439981656422"><ele>647.6666666666667</ele><time>2026-03-22T08:30:34Z</time></trkpt><trkpt lat="42.12602853023058" lon="12.808588360321808"><ele>646.0</ele><time>2026-03-22T08:30:35Z</time></trkpt><trkpt lat="42.12612922803461" lon="12.80871962988426"><ele>649.75</ele><time>2026-03-22T08:30:36Z</time></trkpt><trkpt lat="42.126207678613646" lon="12.80884150214549"><ele>653.5</ele><time>2026-03-22T08:30:37Z</time></trkpt><trkpt lat="42.126269863856564" lon="12.80896705515335"><ele>657.25</ele><time>2026-03-22T08:30:38Z</time></trkpt><trkpt lat="42.12634302808549" lon="12.809101128319154"><ele>661.0</ele><time>2026-03-22T08:30:39Z</time></trkpt><trkpt lat="42.126382346061526" lon="12.8092947991701"><ele>661.5</ele><time>2026-03-22T08:30:40Z</time></trkpt><trkpt lat="42.126425597769675" lon="12.80952514359916"><ele>662.0</ele><time>2026-03-22T08:30:41Z</time></trkpt><trkpt lat="42.12648474310573" lon="12.809721875534581"><ele>662.5</ele><time>2026-03-22T08:30:42Z</time></trkpt><trkpt lat="42.12654965381613" lon="12.80983849905849"><ele>663.0</ele><time>2026-03-22T08:30:43Z</time></trkpt><trkpt lat="42.12664963213976" lon="12.809947371739899"><ele>663.0</ele><time>2026-03-22T08:30:45Z</time></trkpt><trkpt lat="42.126728798998435" lon="12.809959178169885"><ele>663.0</ele><time>2026-03-22T08:30:46Z</time></trkpt><trkpt lat="42.12681694665869" lon="12.809860901110206"><ele>663.0</ele><time>2026-03-22T08:30:47Z</time></trkpt><trkpt lat="42.12690887195153" lon="12.809761636895225"><ele>663.0</ele><time>2026-03-22T08:30:48Z</time></trkpt><trkpt lat="42.12702930290753" lon="12.809645045554069"><ele>663.0</ele><time>2026-03-22T08:30:49Z</time></trkpt><trkpt lat="42.12716425623441" lon="12.809570834832838"><ele>663.0</ele><time>2026-03-22T08:30:50Z</time></trkpt><trkpt lat="42.127293183957455" lon="12.809491784952575"><ele>663.0</ele><time>2026-03-22T08:30:51Z</time></trkpt><trkpt lat="42.12742084933521" lon="12.809416004521049"><ele>663.0</ele><time>2026-03-22T08:30:52Z</time></trkpt><trkpt lat="42.12756078454607" lon="12.809333365185"><ele>657.6666666666666</ele><time>2026-03-22T08:30:53Z</time></trkpt><trkpt lat="42.127721248522185" lon="12.809231772230724"><ele>652.3333333333333</ele><time>2026-03-22T08:30:54Z</time></trkpt><trkpt lat="42.12787615691481" lon="12.809095429261268"><ele>647.0</ele><time>2026-03-22T08:30:55Z</time></trkpt><trkpt lat="42.12803198671624" lon="12.80896643753405"><ele>647.0</ele><time>2026-03-22T08:30:56Z</time></trkpt><trkpt lat="42.12816597412211" lon="12.80886310931218"><ele>647.0</ele><time>2026-03-22T08:30:57Z</time></trkpt><trkpt lat="42.128265060577846" lon="12.808767090911276"><ele>647.0</ele><time>2026-03-22T08:30:58Z</time></trkpt><trkpt lat="42.12837096477256" lon="12.808666062964333"><ele>647.0</ele><time>2026-03-22T08:30:59Z</time></trkpt><trkpt lat="42.12847815765957" lon="12.808548603147711"><ele>648.6666666666666</ele><time>2026-03-22T08:31:00Z</time></trkpt><trkpt lat="42.12858228503103" lon="12.808418531976105"><ele>650.3333333333334</ele><time>2026-03-22T08:31:01Z</time></trkpt><trkpt lat="42.1286932482895" lon="12.80825924998872"><ele>652.0</ele><time>2026-03-22T08:31:02Z</time></trkpt><trkpt lat="42.12881921445289" lon="12.808156732338752"><ele>652.0</ele><time>2026-03-22T08:31:03Z</time></trkpt><trkpt lat="42.12894428273181" lon="12.808061114896415"><ele>652.0</ele><time>2026-03-22T08:31:04Z</time></trkpt><trkpt lat="42.12908335032176" lon="12.807963416843492"><ele>652.0</ele><time>2026-03-22T08:31:05Z</time></trkpt><trkpt lat="42.12921248276203" lon="12.807881317347606"><ele>652.0</ele><time>2026-03-22T08:31:06Z</time></trkpt><trkpt lat="42.129344319724844" lon="12.807809585428164"><ele>653.75</ele><time>2026-03-22T08:31:07Z</time></trkpt><trkpt lat="42.12948020905014" lon="12.807746664852495"><ele>655.5</ele><time>2026-03-22T08:31:08Z</time></trkpt><trkpt lat="42.129618281310975" lon="12.807700062443582"><ele>657.25</ele><time>2026-03-22T08:31:09Z</time></trkpt><trkpt lat="42.12975915782112" lon="12.8076706240909"><ele>659.0</ele><time>2026-03-22T08:31:10Z</time></trkpt><trkpt lat="42.12989782480738" lon="12.807646090773229"><ele>659.0</ele><time>2026-03-22T08:31:11Z</time></trkpt><trkpt lat="42.13003831259328" lon="12.807618588302875"><ele>659.0</ele><time>2026-03-22T08:31:12Z</time></trkpt><trkpt lat="42.13017911413217" lon="12.807582455961825"><ele>659.0</ele><time>2026-03-22T08:31:13Z</time></trkpt><trkpt lat="42.13030371220077" lon="12.807546510414296"><ele>659.0</ele><time>2026-03-22T08:31:14Z</time></trkpt><trkpt lat="42.130422321550746" lon="12.807507989691779"><ele>659.0</ele><time>2026-03-22T08:31:15Z</time></trkpt><trkpt lat="42.13054397545583" lon="12.80746152533581"><ele>659.0</ele><time>2026-03-22T08:31:16Z</time></trkpt><trkpt lat="42.130675762931936" lon="12.807384629537669"><ele>659.0</ele><time>2026-03-22T08:31:17Z</time></trkpt><trkpt lat="42.130780035843074" lon="12.807283723792757"><ele>659.0</ele><time>2026-03-22T08:31:18Z</time></trkpt><trkpt lat="42.13088782375923" lon="12.807224626187942"><ele>660.5</ele><time>2026-03-22T08:31:19Z</time></trkpt><trkpt lat="42.13098329790603" lon="12.807148719497661"><ele>662.0</ele><time>2026-03-22T08:31:20Z</time></trkpt><trkpt lat="42.13109950469734" lon="12.807080469324088"><ele>663.5</ele><time>2026-03-22T08:31:20.999Z</time></trkpt><trkpt lat="42.13121147157753" lon="12.807058199052527"><ele>665.0</ele><time>2026-03-22T08:31:21.999Z</time></trkpt><trkpt lat="42.131325187033625" lon="12.80702199805268"><ele>665.0</ele><time>2026-03-22T08:31:22.999Z</time></trkpt><trkpt lat="42.131437793262144" lon="12.806993773980565"><ele>665.0</ele><time>2026-03-22T08:31:23.999Z</time></trkpt><trkpt lat="42.131536556565486" lon="12.807004002935939"><ele>665.0</ele><time>2026-03-22T08:31:24.999Z</time></trkpt><trkpt lat="42.131632722354226" lon="12.807031645446658"><ele>665.0</ele><time>2026-03-22T08:31:25.999Z</time></trkpt><trkpt lat="42.13172644843488" lon="12.80705133863037"><ele>665.0</ele><time>2026-03-22T08:31:26.999Z</time></trkpt><trkpt lat="42.131817636773675" lon="12.807069889426705"><ele>666.0</ele><time>2026-03-22T08:31:27.999Z</time></trkpt><trkpt lat="42.13188552979216" lon="12.807081706490463"><ele>667.0</ele><time>2026-03-22T08:31:28.999Z</time></trkpt><trkpt lat="42.131996184439146" lon="12.807090873376653"><ele>668.0</ele><time>2026-03-22T08:31:29.999Z</time></trkpt><trkpt lat="42.13209599055014" lon="12.807073561371794"><ele>669.0</ele><time>2026-03-22T08:31:30.999Z</time></trkpt><trkpt lat="42.13221928063984" lon="12.807095949142862"><ele>670.0</ele><time>2026-03-22T08:31:31.999Z</time></trkpt><trkpt lat="42.13233137356458" lon="12.807119839424187"><ele>670.2</ele><time>2026-03-22T08:31:32.999Z</time></trkpt><trkpt lat="42.13246104512554" lon="12.807081967174463"><ele>670.4</ele><time>2026-03-22T08:31:33.999Z</time></trkpt><trkpt lat="42.13256648604958" lon="12.807056698764773"><ele>670.5999999999999</ele><time>2026-03-22T08:31:34.999Z</time></trkpt><trkpt lat="42.13266274682096" lon="12.80703503103571"><ele>670.8</ele><time>2026-03-22T08:31:35.999Z</time></trkpt><trkpt lat="42.13276685958316" lon="12.807002965595013"><ele>671.0</ele><time>2026-03-22T08:31:36.999Z</time></trkpt><trkpt lat="42.13289468596737" lon="12.80689471574535"><ele>664.3333333333333</ele><time>2026-03-22T08:31:37.999Z</time></trkpt><trkpt lat="42.13303310951697" lon="12.806776917430538"><ele>657.6666666666666</ele><time>2026-03-22T08:31:38.999Z</time></trkpt><trkpt lat="42.133182542941356" lon="12.806632908521465"><ele>651.0</ele><time>2026-03-22T08:31:39.999Z</time></trkpt><trkpt lat="42.13330888077542" lon="12.80651387594988"><ele>651.0</ele><time>2026-03-22T08:31:40.999Z</time></trkpt><trkpt lat="42.13343016048366" lon="12.80640326498231"><ele>651.0</ele><time>2026-03-22T08:31:41.999Z</time></trkpt><trkpt lat="42.13352439671005" lon="12.806314938017254"><ele>651.0</ele><time>2026-03-22T08:31:42.999Z</time></trkpt><trkpt lat="42.13362288104282" lon="12.806209352979312"><ele>651.0</ele><time>2026-03-22T08:31:43.999Z</time></trkpt><trkpt lat="42.13372630924682" lon="12.806088615755673"><ele>650.0</ele><time>2026-03-22T08:31:45Z</time></trkpt><trkpt lat="42.133817560054766" lon="12.805978510728302"><ele>649.0</ele><time>2026-03-22T08:31:46Z</time></trkpt><trkpt lat="42.133879876756716" lon="12.805896026844334"><ele>648.0</ele><time>2026-03-22T08:31:47Z</time></trkpt><trkpt lat="42.133951874912434" lon="12.805826728597543"><ele>647.0</ele><time>2026-03-22T08:31:48Z</time></trkpt><trkpt lat="42.13403562451459" lon="12.805796057851644"><ele>646.0</ele><time>2026-03-22T08:31:49Z</time></trkpt><trkpt lat="42.13409558641393" lon="12.805737684965871"><ele>646.0</ele><time>2026-03-22T08:31:51Z</time></trkpt><trkpt lat="42.134216291166055" lon="12.80581894399866"><ele>646.0</ele><time>2026-03-22T08:32:12Z</time></trkpt><trkpt lat="42.13430415969667" lon="12.805837054494159"><ele>646.0</ele><time>2026-03-22T08:32:14Z</time></trkpt><trkpt lat="42.13430995230693" lon="12.805666956549413"><ele>646.0</ele><time>2026-03-22T08:32:15Z</time></trkpt><trkpt lat="42.13410178033363" lon="12.805995477461186"><ele>651.5</ele><time>2026-03-22T08:32:18Z</time></trkpt><trkpt lat="42.13448845224351" lon="12.806147314582367"><ele>657.0</ele><time>2026-03-22T08:32:22Z</time></trkpt><trkpt lat="42.13450940878552" lon="12.806227938920406"><ele>657.0</ele><time>2026-03-22T08:32:26Z</time></trkpt><trkpt lat="42.134558416274665" lon="12.806335136366984"><ele>657.0</ele><time>2026-03-22T08:32:29Z</time></trkpt><trkpt lat="42.1346184551763" lon="12.806469337900063"><ele>657.0</ele><time>2026-03-22T08:32:31Z</time></trkpt><trkpt lat="42.13466342061136" lon="12.806560776003087"><ele>657.0</ele><time>2026-03-22T08:32:32Z</time></trkpt><trkpt lat="42.13470831778536" lon="12.80666633900281"><ele>657.0</ele><time>2026-03-22T08:32:33Z</time></trkpt><trkpt lat="42.13475794846987" lon="12.806761439554144"><ele>658.6666666666666</ele><time>2026-03-22T08:32:34Z</time></trkpt><trkpt lat="42.134810865798556" lon="12.806865197962619"><ele>660.3333333333334</ele><time>2026-03-22T08:32:35Z</time></trkpt><trkpt lat="42.13485081207109" lon="12.806960611355118"><ele>662.0</ele><time>2026-03-22T08:32:36Z</time></trkpt><trkpt lat="42.13484734471702" lon="12.807073515173782"><ele>663.6666666666667</ele><time>2026-03-22T08:32:37Z</time></trkpt><trkpt lat="42.13489079601963" lon="12.80717903967106"><ele>665.3333333333334</ele><time>2026-03-22T08:32:38Z</time></trkpt><trkpt lat="42.134934718813646" lon="12.807276965845446"><ele>667.0</ele><time>2026-03-22T08:32:39Z</time></trkpt><trkpt lat="42.13498197484382" lon="12.807378416214483"><ele>663.1666666666667</ele><time>2026-03-22T08:32:40Z</time></trkpt><trkpt lat="42.13503763641303" lon="12.807490854562873"><ele>659.3333333333334</ele><time>2026-03-22T08:32:41Z</time></trkpt><trkpt lat="42.13509614181878" lon="12.807570287497418"><ele>655.5</ele><time>2026-03-22T08:32:42Z</time></trkpt><trkpt lat="42.135137326510595" lon="12.807658740591844"><ele>651.6666666666666</ele><time>2026-03-22T08:32:43Z</time></trkpt><trkpt lat="42.135193154015575" lon="12.807735231394451"><ele>647.8333333333333</ele><time>2026-03-22T08:32:44Z</time></trkpt><trkpt lat="42.13526276610563" lon="12.807808365048817"><ele>644.0</ele><time>2026-03-22T08:32:45Z</time></trkpt><trkpt lat="42.13534479533128" lon="12.807879881737893"><ele>644.0</ele><time>2026-03-22T08:32:46Z</time></trkpt><trkpt lat="42.135447852252774" lon="12.807930991146222"><ele>644.0</ele><time>2026-03-22T08:32:47Z</time></trkpt><trkpt lat="42.13554320833744" lon="12.80796838865435"><ele>644.0</ele><time>2026-03-22T08:32:48Z</time></trkpt><trkpt lat="42.13563315997692" lon="12.807988711727525"><ele>644.0</ele><time>2026-03-22T08:32:49Z</time></trkpt><trkpt lat="42.13571923080246" lon="12.807995099437452"><ele>644.0</ele><time>2026-03-22T08:32:50Z</time></trkpt><trkpt lat="42.135832762692054" lon="12.808016925247296"><ele>636.8000000000001</ele><time>2026-03-22T08:32:51Z</time></trkpt><trkpt lat="42.13592762964011" lon="12.808077488283207"><ele>629.6</ele><time>2026-03-22T08:32:52Z</time></trkpt><trkpt lat="42.13601686647667" lon="12.808155239795765"><ele>622.4</ele><time>2026-03-22T08:32:53Z</time></trkpt><trkpt lat="42.1361001906216" lon="12.808234406177746"><ele>615.2</ele><time>2026-03-22T08:32:54Z</time></trkpt><trkpt lat="42.13615419759514" lon="12.808303068534878"><ele>608.0</ele><time>2026-03-22T08:32:55Z</time></trkpt><trkpt lat="42.13623245171036" lon="12.808407047472063"><ele>608.4</ele><time>2026-03-22T08:32:57Z</time></trkpt><trkpt lat="42.13622247393467" lon="12.808515520333868"><ele>608.8</ele><time>2026-03-22T08:32:58Z</time></trkpt><trkpt lat="42.13629449773091" lon="12.808573330286292"><ele>609.2</ele><time>2026-03-22T08:32:59Z</time></trkpt><trkpt lat="42.13618355044077" lon="12.808643489005487"><ele>609.6</ele><time>2026-03-22T08:33:01Z</time></trkpt><trkpt lat="42.136138331289345" lon="12.808822567051807"><ele>610.0</ele><time>2026-03-22T08:33:03Z</time></trkpt><trkpt lat="42.13612330751723" lon="12.808922181267917"><ele>610.0</ele><time>2026-03-22T08:33:04Z</time></trkpt><trkpt lat="42.1361132285344" lon="12.809087598226096"><ele>610.0</ele><time>2026-03-22T08:33:06Z</time></trkpt><trkpt lat="42.13611071817252" lon="12.809185361382545"><ele>610.0</ele><time>2026-03-22T08:33:07Z</time></trkpt><trkpt lat="42.136123938514466" lon="12.809293401572347"><ele>610.0</ele><time>2026-03-22T08:33:08Z</time></trkpt><trkpt lat="42.13613858700582" lon="12.809388495080718"><ele>610.0</ele><time>2026-03-22T08:33:09Z</time></trkpt><trkpt lat="42.13616787816917" lon="12.809491606784512"><ele>610.0</ele><time>2026-03-22T08:33:10Z</time></trkpt><trkpt lat="42.13614405242815" lon="12.80959167794966"><ele>608.8</ele><time>2026-03-22T08:33:11Z</time></trkpt><trkpt lat="42.13612287144105" lon="12.809692168624984"><ele>607.6</ele><time>2026-03-22T08:33:12Z</time></trkpt><trkpt lat="42.136113532797175" lon="12.8098139070438"><ele>606.4</ele><time>2026-03-22T08:33:13Z</time></trkpt><trkpt lat="42.136086595760425" lon="12.809953407773373"><ele>605.2</ele><time>2026-03-22T08:33:14Z</time></trkpt><trkpt lat="42.13606257006" lon="12.81008427381155"><ele>604.0</ele><time>2026-03-22T08:33:15Z</time></trkpt><trkpt lat="42.13602406486175" lon="12.810234360498093"><ele>601.6666666666667</ele><time>2026-03-22T08:33:16Z</time></trkpt><trkpt lat="42.13601035866743" lon="12.810330638557785"><ele>599.3333333333334</ele><time>2026-03-22T08:33:17Z</time></trkpt><trkpt lat="42.13601228199456" lon="12.810427968373254"><ele>597.0</ele><time>2026-03-22T08:33:18Z</time></trkpt><trkpt lat="42.13598112640108" lon="12.81051510735778"><ele>594.6666666666666</ele><time>2026-03-22T08:33:19Z</time></trkpt><trkpt lat="42.135972421956964" lon="12.810602222127821"><ele>592.3333333333333</ele><time>2026-03-22T08:33:20Z</time></trkpt><trkpt lat="42.135970961369814" lon="12.81073653704606"><ele>590.0</ele><time>2026-03-22T08:33:22Z</time></trkpt><trkpt lat="42.13597017478691" lon="12.810837766475078"><ele>590.0</ele><time>2026-03-22T08:33:25Z</time></trkpt><trkpt lat="42.13596932515089" lon="12.810947110678397"><ele>590.0</ele><time>2026-03-22T08:33:27Z</time></trkpt><trkpt lat="42.13596843973214" lon="12.8110610596516"><ele>590.0</ele><time>2026-03-22T08:33:29Z</time></trkpt><trkpt lat="42.13601888182021" lon="12.811176817593134"><ele>590.0</ele><time>2026-03-22T08:33:31Z</time></trkpt><trkpt lat="42.13597139219728" lon="12.811317945420145"><ele>590.0</ele><time>2026-03-22T08:33:32.999Z</time></trkpt><trkpt lat="42.13598995544288" lon="12.811419827809644"><ele>589.3333333333333</ele><time>2026-03-22T08:33:33.999Z</time></trkpt><trkpt lat="42.13594951278012" lon="12.811547723864559"><ele>588.6666666666666</ele><time>2026-03-22T08:33:35.999Z</time></trkpt><trkpt lat="42.135942525657654" lon="12.81166503321819"><ele>588.0</ele><time>2026-03-22T08:33:38.999Z</time></trkpt><trkpt lat="42.135918500299354" lon="12.811780856732518"><ele>587.3333333333334</ele><time>2026-03-22T08:33:41.999Z</time></trkpt><trkpt lat="42.13590850689743" lon="12.811870214237333"><ele>586.6666666666667</ele><time>2026-03-22T08:33:44.999Z</time></trkpt><trkpt lat="42.13591199841246" lon="12.811997787381765"><ele>586.0</ele><time>2026-03-22T08:33:57Z</time></trkpt><trkpt lat="42.135928666396964" lon="12.812084265077326"><ele>586.0</ele><time>2026-03-22T08:33:59Z</time></trkpt><trkpt lat="42.13593739901802" lon="12.812175775021323"><ele>586.0</ele><time>2026-03-22T08:34:00Z</time></trkpt><trkpt lat="42.13594437570114" lon="12.812300284421582"><ele>586.0</ele><time>2026-03-22T08:34:01Z</time></trkpt><trkpt lat="42.13594350324623" lon="12.812458749943234"><ele>586.0</ele><time>2026-03-22T08:34:02Z</time></trkpt><trkpt lat="42.135949700883074" lon="12.812592829671187"><ele>586.0</ele><time>2026-03-22T08:34:03Z</time></trkpt><trkpt lat="42.13597205506082" lon="12.81269832794476"><ele>586.8333333333334</ele><time>2026-03-22T08:34:04Z</time></trkpt><trkpt lat="42.135993879519404" lon="12.8128110861138"><ele>587.6666666666667</ele><time>2026-03-22T08:34:06Z</time></trkpt><trkpt lat="42.13599312650024" lon="12.81290878150947"><ele>588.5</ele><time>2026-03-22T08:34:09Z</time></trkpt><trkpt lat="42.136014435733976" lon="12.812821455688772"><ele>589.3333333333334</ele><time>2026-03-22T08:34:15Z</time></trkpt><trkpt lat="42.136007340152304" lon="12.81295838563783"><ele>590.1666666666666</ele><time>2026-03-22T08:34:19Z</time></trkpt><trkpt lat="42.13603323166315" lon="12.81307043589158"><ele>591.0</ele><time>2026-03-22T08:34:20Z</time></trkpt><trkpt lat="42.13605743448374" lon="12.813188952768165"><ele>591.0</ele><time>2026-03-22T08:34:21Z</time></trkpt><trkpt lat="42.13607780229748" lon="12.813323227832946"><ele>591.0</ele><time>2026-03-22T08:34:22Z</time></trkpt><trkpt lat="42.136079431316034" lon="12.813464791066803"><ele>591.0</ele><time>2026-03-22T08:34:23Z</time></trkpt><trkpt lat="42.13607674384401" lon="12.813625656817516"><ele>591.0</ele><time>2026-03-22T08:34:24Z</time></trkpt><trkpt lat="42.13606808923925" lon="12.813795126013702"><ele>590.25</ele><time>2026-03-22T08:34:25Z</time></trkpt><trkpt lat="42.13605750478961" lon="12.813984101157311"><ele>589.5</ele><time>2026-03-22T08:34:26Z</time></trkpt><trkpt lat="42.13606666524971" lon="12.814171084131214"><ele>588.75</ele><time>2026-03-22T08:34:27Z</time></trkpt><trkpt lat="42.13611148273265" lon="12.814325443998175"><ele>588.0</ele><time>2026-03-22T08:34:28Z</time></trkpt><trkpt lat="42.13616733205677" lon="12.814451910961843"><ele>586.8</ele><time>2026-03-22T08:34:29Z</time></trkpt><trkpt lat="42.13624274665517" lon="12.814562977339975"><ele>585.5999999999999</ele><time>2026-03-22T08:34:30Z</time></trkpt><trkpt lat="42.136312384663505" lon="12.814660075891979"><ele>584.4000000000001</ele><time>2026-03-22T08:34:31Z</time></trkpt><trkpt lat="42.136351402573865" lon="12.814749885116731"><ele>583.2</ele><time>2026-03-22T08:34:32Z</time></trkpt><trkpt lat="42.13629839455073" lon="12.814908385920507"><ele>582.0</ele><time>2026-03-22T08:34:34Z</time></trkpt><trkpt lat="42.13625381195482" lon="12.815003351645041"><ele>582.0</ele><time>2026-03-22T08:34:35Z</time></trkpt><trkpt lat="42.13616937460588" lon="12.815070703204837"><ele>582.0</ele><time>2026-03-22T08:34:36Z</time></trkpt><trkpt lat="42.1360835401629" lon="12.815130639202804"><ele>582.0</ele><time>2026-03-22T08:34:37Z</time></trkpt><trkpt lat="42.13599655094594" lon="12.815194625330053"><ele>582.0</ele><time>2026-03-22T08:34:38Z</time></trkpt><trkpt lat="42.135939488132756" lon="12.815312196347417"><ele>582.0</ele><time>2026-03-22T08:34:39Z</time></trkpt><trkpt lat="42.135872916831" lon="12.815420988320676"><ele>581.75</ele><time>2026-03-22T08:34:40Z</time></trkpt><trkpt lat="42.13582631117785" lon="12.815539559068272"><ele>581.5</ele><time>2026-03-22T08:34:41Z</time></trkpt><trkpt lat="42.13576607445543" lon="12.815681710945631"><ele>581.25</ele><time>2026-03-22T08:34:42Z</time></trkpt><trkpt lat="42.13570646643784" lon="12.815808507575943"><ele>581.0</ele><time>2026-03-22T08:34:43Z</time></trkpt><trkpt lat="42.13563092400151" lon="12.815933614661464"><ele>577.8</ele><time>2026-03-22T08:34:44Z</time></trkpt><trkpt lat="42.13556966353247" lon="12.816055051854299"><ele>574.6</ele><time>2026-03-22T08:34:45Z</time></trkpt><trkpt lat="42.13550895751911" lon="12.816167791094454"><ele>571.4</ele><time>2026-03-22T08:34:46Z</time></trkpt><trkpt lat="42.135442745915896" lon="12.816286680895631"><ele>568.2</ele><time>2026-03-22T08:34:47Z</time></trkpt><trkpt lat="42.135379620201626" lon="12.816400711333578"><ele>565.0</ele><time>2026-03-22T08:34:48Z</time></trkpt><trkpt lat="42.13533986274865" lon="12.816525296652642"><ele>565.0</ele><time>2026-03-22T08:34:49Z</time></trkpt><trkpt lat="42.13531228034423" lon="12.816655946291394"><ele>565.0</ele><time>2026-03-22T08:34:50Z</time></trkpt><trkpt lat="42.13531126722281" lon="12.81681530371802"><ele>565.0</ele><time>2026-03-22T08:34:51Z</time></trkpt><trkpt lat="42.1353028683453" lon="12.816975822260884"><ele>565.0</ele><time>2026-03-22T08:34:52Z</time></trkpt><trkpt lat="42.13528731090314" lon="12.817117877680957"><ele>565.0</ele><time>2026-03-22T08:34:53Z</time></trkpt><trkpt lat="42.13526310143944" lon="12.81724942284756"><ele>564.4</ele><time>2026-03-22T08:34:54Z</time></trkpt><trkpt lat="42.13524745403979" lon="12.817379253860183"><ele>563.8</ele><time>2026-03-22T08:34:55Z</time></trkpt><trkpt lat="42.13527203966367" lon="12.817500049239625"><ele>563.2</ele><time>2026-03-22T08:34:56Z</time></trkpt><trkpt lat="42.1353044684223" lon="12.817614839852796"><ele>562.6</ele><time>2026-03-22T08:34:57Z</time></trkpt><trkpt lat="42.13535767456224" lon="12.817714320419327"><ele>562.0</ele><time>2026-03-22T08:34:58Z</time></trkpt><trkpt lat="42.13543690049155" lon="12.817796441738361"><ele>560.6</ele><time>2026-03-22T08:34:59Z</time></trkpt><trkpt lat="42.135543009083136" lon="12.817877437629791"><ele>559.2</ele><time>2026-03-22T08:35:00Z</time></trkpt><trkpt lat="42.135631997562065" lon="12.817966031723792"><ele>557.8</ele><time>2026-03-22T08:35:01Z</time></trkpt><trkpt lat="42.13571114526095" lon="12.818051696149048"><ele>556.4</ele><time>2026-03-22T08:35:02Z</time></trkpt><trkpt lat="42.135803235715564" lon="12.818118805345769"><ele>555.0</ele><time>2026-03-22T08:35:03Z</time></trkpt><trkpt lat="42.13589081645911" lon="12.818168407577863"><ele>555.0</ele><time>2026-03-22T08:35:04Z</time></trkpt><trkpt lat="42.136008434482015" lon="12.818191025436748"><ele>555.0</ele><time>2026-03-22T08:35:05Z</time></trkpt><trkpt lat="42.13613503229945" lon="12.818195923961435"><ele>555.0</ele><time>2026-03-22T08:35:06Z</time></trkpt><trkpt lat="42.13624695607027" lon="12.818222365304932"><ele>555.0</ele><time>2026-03-22T08:35:07Z</time></trkpt><trkpt lat="42.136352714883216" lon="12.818252989518284"><ele>555.0</ele><time>2026-03-22T08:35:08Z</time></trkpt><trkpt lat="42.13646478861818" lon="12.818283648319621"><ele>555.0</ele><time>2026-03-22T08:35:09Z</time></trkpt><trkpt lat="42.136594624179914" lon="12.818338083771874"><ele>555.0</ele><time>2026-03-22T08:35:10Z</time></trkpt><trkpt lat="42.136724635361006" lon="12.818375005326708"><ele>555.0</ele><time>2026-03-22T08:35:11Z</time></trkpt><trkpt lat="42.13682393238485" lon="12.818375509908972"><ele>553.2</ele><time>2026-03-22T08:35:12Z</time></trkpt><trkpt lat="42.13691427836493" lon="12.81837748950621"><ele>551.4</ele><time>2026-03-22T08:35:13Z</time></trkpt><trkpt lat="42.13699738193377" lon="12.818391696982218"><ele>549.6</ele><time>2026-03-22T08:35:14Z</time></trkpt><trkpt lat="42.137096014443266" lon="12.818375936785866"><ele>547.8</ele><time>2026-03-22T08:35:15Z</time></trkpt><trkpt lat="42.13719755204507" lon="12.818364389103305"><ele>546.0</ele><time>2026-03-22T08:35:16Z</time></trkpt><trkpt lat="42.13728873436881" lon="12.818385445798112"><ele>548.6</ele><time>2026-03-22T08:35:17Z</time></trkpt><trkpt lat="42.13738798370737" lon="12.818396481545555"><ele>551.2</ele><time>2026-03-22T08:35:18Z</time></trkpt><trkpt lat="42.137485352665664" lon="12.818408722482417"><ele>553.8</ele><time>2026-03-22T08:35:19Z</time></trkpt><trkpt lat="42.13757682508343" lon="12.818461292019055"><ele>556.4</ele><time>2026-03-22T08:35:20Z</time></trkpt><trkpt lat="42.13767666207891" lon="12.818512303652541"><ele>559.0</ele><time>2026-03-22T08:35:21Z</time></trkpt><trkpt lat="42.13776501819768" lon="12.818559304875118"><ele>559.0</ele><time>2026-03-22T08:35:22Z</time></trkpt><trkpt lat="42.13786253736523" lon="12.818599357541158"><ele>559.0</ele><time>2026-03-22T08:35:23Z</time></trkpt><trkpt lat="42.137931469508686" lon="12.818679277040411"><ele>559.0</ele><time>2026-03-22T08:35:24Z</time></trkpt><trkpt lat="42.138024127507514" lon="12.818777861244286"><ele>559.0</ele><time>2026-03-22T08:35:25Z</time></trkpt><trkpt lat="42.13809128691776" lon="12.818865267766682"><ele>559.0</ele><time>2026-03-22T08:35:26Z</time></trkpt><trkpt lat="42.13813126272093" lon="12.818938936011843"><ele>559.0</ele><time>2026-03-22T08:35:27Z</time></trkpt><trkpt lat="42.13818506905322" lon="12.819016374215026"><ele>559.0</ele><time>2026-03-22T08:35:28Z</time></trkpt><trkpt lat="42.138211575211734" lon="12.819179420199088"><ele>559.0</ele><time>2026-03-22T08:35:30Z</time></trkpt><trkpt lat="42.13819657137013" lon="12.819310751530683"><ele>559.0</ele><time>2026-03-22T08:35:30.999Z</time></trkpt><trkpt lat="42.138140107046866" lon="12.819421780115132"><ele>559.0</ele><time>2026-03-22T08:35:31.999Z</time></trkpt><trkpt lat="42.138122659449046" lon="12.819545247166817"><ele>561.5</ele><time>2026-03-22T08:35:32.999Z</time></trkpt><trkpt lat="42.13813124302221" lon="12.819679446056218"><ele>564.0</ele><time>2026-03-22T08:35:33.999Z</time></trkpt><trkpt lat="42.1381732672275" lon="12.819842082742719"><ele>566.5</ele><time>2026-03-22T08:35:34.999Z</time></trkpt><trkpt lat="42.13823072806491" lon="12.82000028231665"><ele>569.0</ele><time>2026-03-22T08:35:35.999Z</time></trkpt><trkpt lat="42.138313302637854" lon="12.820099237786271"><ele>564.5</ele><time>2026-03-22T08:35:36.999Z</time></trkpt><trkpt lat="42.13835460725896" lon="12.82020642472216"><ele>560.0</ele><time>2026-03-22T08:35:37.999Z</time></trkpt><trkpt lat="42.13838977438599" lon="12.820302332725968"><ele>555.5</ele><time>2026-03-22T08:35:38.999Z</time></trkpt><trkpt lat="42.13840858176046" lon="12.820414393692182"><ele>551.0</ele><time>2026-03-22T08:35:39.999Z</time></trkpt><trkpt lat="42.138415889825765" lon="12.820528663470286"><ele>546.5</ele><time>2026-03-22T08:35:40.999Z</time></trkpt><trkpt lat="42.13842595060939" lon="12.82066812240076"><ele>542.0</ele><time>2026-03-22T08:35:41.999Z</time></trkpt><trkpt lat="42.13845088124807" lon="12.82079953587636"><ele>542.0</ele><time>2026-03-22T08:35:42.999Z</time></trkpt><trkpt lat="42.13849817108246" lon="12.820930512902049"><ele>542.0</ele><time>2026-03-22T08:35:43.999Z</time></trkpt><trkpt lat="42.138555529895555" lon="12.821048823515378"><ele>542.0</ele><time>2026-03-22T08:35:44.999Z</time></trkpt><trkpt lat="42.13860261254973" lon="12.82116082019572"><ele>542.0</ele><time>2026-03-22T08:35:45.999Z</time></trkpt><trkpt lat="42.138631034883794" lon="12.821271082572796"><ele>542.0</ele><time>2026-03-22T08:35:46.999Z</time></trkpt><trkpt lat="42.13866480225365" lon="12.821383255147667"><ele>541.4</ele><time>2026-03-22T08:35:47.999Z</time></trkpt><trkpt lat="42.13870928729147" lon="12.821501063761911"><ele>540.8000000000001</ele><time>2026-03-22T08:35:48.999Z</time></trkpt><trkpt lat="42.13875682644755" lon="12.821614786258866"><ele>540.2</ele><time>2026-03-22T08:35:49.999Z</time></trkpt><trkpt lat="42.138801981228575" lon="12.821731583069768"><ele>539.6</ele><time>2026-03-22T08:35:50.999Z</time></trkpt><trkpt lat="42.13884071134442" lon="12.82184791076368"><ele>539.0</ele><time>2026-03-22T08:35:51.999Z</time></trkpt><trkpt lat="42.1388674929367" lon="12.82198041554501"><ele>539.0</ele><time>2026-03-22T08:35:52.999Z</time></trkpt><trkpt lat="42.13886932299904" lon="12.82210993393261"><ele>539.0</ele><time>2026-03-22T08:35:53.999Z</time></trkpt><trkpt lat="42.138873495688365" lon="12.82221265227869"><ele>539.0</ele><time>2026-03-22T08:35:54.999Z</time></trkpt><trkpt lat="42.13888241287436" lon="12.822345456551599"><ele>539.0</ele><time>2026-03-22T08:35:55.999Z</time></trkpt><trkpt lat="42.138864883435886" lon="12.822461884909206"><ele>539.0</ele><time>2026-03-22T08:35:57Z</time></trkpt><trkpt lat="42.138855190921774" lon="12.822580259202205"><ele>539.0</ele><time>2026-03-22T08:35:58Z</time></trkpt><trkpt lat="42.138844269874895" lon="12.822696794190067"><ele>534.6</ele><time>2026-03-22T08:35:59Z</time></trkpt><trkpt lat="42.13882505951073" lon="12.822790918583598"><ele>530.2</ele><time>2026-03-22T08:36:00Z</time></trkpt><trkpt lat="42.138759183471734" lon="12.822879747022329"><ele>525.8000000000001</ele><time>2026-03-22T08:36:01Z</time></trkpt><trkpt lat="42.138712823554435" lon="12.82301364806369"><ele>521.4</ele><time>2026-03-22T08:36:02Z</time></trkpt><trkpt lat="42.138638237157785" lon="12.823153579266597"><ele>517.0</ele><time>2026-03-22T08:36:03Z</time></trkpt><trkpt lat="42.138570387656436" lon="12.823273944071365"><ele>517.0</ele><time>2026-03-22T08:36:04Z</time></trkpt><trkpt lat="42.13850009708748" lon="12.823391975919384"><ele>517.0</ele><time>2026-03-22T08:36:05Z</time></trkpt><trkpt lat="42.13842028680498" lon="12.823509237475916"><ele>517.0</ele><time>2026-03-22T08:36:06Z</time></trkpt><trkpt lat="42.13832429463794" lon="12.82362464697019"><ele>517.0</ele><time>2026-03-22T08:36:07Z</time></trkpt><trkpt lat="42.13823555574479" lon="12.8237626008687"><ele>518.75</ele><time>2026-03-22T08:36:08Z</time></trkpt><trkpt lat="42.138158695301826" lon="12.823913884241401"><ele>520.5</ele><time>2026-03-22T08:36:09Z</time></trkpt><trkpt lat="42.13806087553146" lon="12.82402831323896"><ele>522.25</ele><time>2026-03-22T08:36:10Z</time></trkpt><trkpt lat="42.13796587935717" lon="12.824155967778255"><ele>524.0</ele><time>2026-03-22T08:36:11Z</time></trkpt><trkpt lat="42.13787834938096" lon="12.824268515339885"><ele>519.0</ele><time>2026-03-22T08:36:12Z</time></trkpt><trkpt lat="42.137812334429874" lon="12.824397729571139"><ele>514.0</ele><time>2026-03-22T08:36:13Z</time></trkpt><trkpt lat="42.1377454834836" lon="12.82448729054763"><ele>509.0</ele><time>2026-03-22T08:36:14Z</time></trkpt><trkpt lat="42.13769384362849" lon="12.824556332483724"><ele>504.0</ele><time>2026-03-22T08:36:15Z</time></trkpt><trkpt lat="42.13763675219709" lon="12.824612095512471"><ele>498.99999999999994</ele><time>2026-03-22T08:36:16Z</time></trkpt><trkpt lat="42.137566514624474" lon="12.824629895784039"><ele>494.0</ele><time>2026-03-22T08:36:17Z</time></trkpt><trkpt lat="42.137499698482856" lon="12.824642488749484"><ele>494.0</ele><time>2026-03-22T08:36:18Z</time></trkpt><trkpt lat="42.13741257833923" lon="12.824599136312393"><ele>494.0</ele><time>2026-03-22T08:36:19Z</time></trkpt><trkpt lat="42.1373079932142" lon="12.824546000247592"><ele>494.0</ele><time>2026-03-22T08:36:20Z</time></trkpt><trkpt lat="42.1371953602446" lon="12.824477948513392"><ele>494.0</ele><time>2026-03-22T08:36:21Z</time></trkpt><trkpt lat="42.13708865590782" lon="12.82443236393968"><ele>494.0</ele><time>2026-03-22T08:36:22Z</time></trkpt><trkpt lat="42.137000478052705" lon="12.824403693145934"><ele>498.5</ele><time>2026-03-22T08:36:23Z</time></trkpt><trkpt lat="42.13686537472983" lon="12.824424324869536"><ele>503.0</ele><time>2026-03-22T08:36:25Z</time></trkpt><trkpt lat="42.13679723466589" lon="12.824530751271665"><ele>507.5</ele><time>2026-03-22T08:36:27Z</time></trkpt><trkpt lat="42.13674593061049" lon="12.824674430146866"><ele>512.0</ele><time>2026-03-22T08:36:28Z</time></trkpt><trkpt lat="42.13669138749225" lon="12.824830955685321"><ele>512.0</ele><time>2026-03-22T08:36:29Z</time></trkpt><trkpt lat="42.13661440663048" lon="12.82501640979928"><ele>512.0</ele><time>2026-03-22T08:36:30Z</time></trkpt><trkpt lat="42.13655416278016" lon="12.825213984637209"><ele>512.0</ele><time>2026-03-22T08:36:31Z</time></trkpt><trkpt lat="42.13651938421725" lon="12.825377536527965"><ele>512.0</ele><time>2026-03-22T08:36:32Z</time></trkpt><trkpt lat="42.13651216087133" lon="12.825530155303019"><ele>510.0</ele><time>2026-03-22T08:36:33Z</time></trkpt><trkpt lat="42.136492478967426" lon="12.825703566104956"><ele>508.00000000000006</ele><time>2026-03-22T08:36:34Z</time></trkpt><trkpt lat="42.136475924167776" lon="12.825847256916898"><ele>506.00000000000006</ele><time>2026-03-22T08:36:35Z</time></trkpt><trkpt lat="42.136448693805065" lon="12.825971005331127"><ele>504.0</ele><time>2026-03-22T08:36:36Z</time></trkpt><trkpt lat="42.136403131517035" lon="12.826079224630528"><ele>502.0</ele><time>2026-03-22T08:36:37Z</time></trkpt><trkpt lat="42.13633091224553" lon="12.826168228972591"><ele>502.0</ele><time>2026-03-22T08:36:38Z</time></trkpt><trkpt lat="42.13625670600454" lon="12.826278475394362"><ele>502.00000000000006</ele><time>2026-03-22T08:36:39Z</time></trkpt><trkpt lat="42.13621343028352" lon="12.826380049066989"><ele>502.00000000000006</ele><time>2026-03-22T08:36:40Z</time></trkpt><trkpt lat="42.13615518318981" lon="12.826494587787442"><ele>502.0</ele><time>2026-03-22T08:36:41Z</time></trkpt><trkpt lat="42.136077428454236" lon="12.826589720633859"><ele>502.0</ele><time>2026-03-22T08:36:42Z</time></trkpt><trkpt lat="42.136017306783174" lon="12.826699302554761"><ele>502.0</ele><time>2026-03-22T08:36:43Z</time></trkpt><trkpt lat="42.13596387175214" lon="12.826808553693553"><ele>502.00000000000006</ele><time>2026-03-22T08:36:44Z</time></trkpt><trkpt lat="42.13594947782769" lon="12.826935024029334"><ele>502.00000000000006</ele><time>2026-03-22T08:36:45Z</time></trkpt><trkpt lat="42.13593649996616" lon="12.827058173955514"><ele>502.0</ele><time>2026-03-22T08:36:46Z</time></trkpt><trkpt lat="42.135944635717834" lon="12.827199001729438"><ele>502.0</ele><time>2026-03-22T08:36:47Z</time></trkpt><trkpt lat="42.135925570092105" lon="12.827342977798889"><ele>499.8</ele><time>2026-03-22T08:36:48Z</time></trkpt><trkpt lat="42.13591484952966" lon="12.827494365780973"><ele>497.6</ele><time>2026-03-22T08:36:49Z</time></trkpt><trkpt lat="42.13589762501369" lon="12.82764386102964"><ele>495.40000000000003</ele><time>2026-03-22T08:36:50Z</time></trkpt><trkpt lat="42.13587667263162" lon="12.827772168953867"><ele>493.20000000000005</ele><time>2026-03-22T08:36:51Z</time></trkpt><trkpt lat="42.135843070192045" lon="12.827891049490157"><ele>491.0</ele><time>2026-03-22T08:36:52Z</time></trkpt><trkpt lat="42.13578864561025" lon="12.827993841838264"><ele>496.8</ele><time>2026-03-22T08:36:53Z</time></trkpt><trkpt lat="42.135713182223746" lon="12.8281185021424"><ele>502.6</ele><time>2026-03-22T08:36:54Z</time></trkpt><trkpt lat="42.13565370940999" lon="12.828259759116742"><ele>508.4</ele><time>2026-03-22T08:36:55Z</time></trkpt><trkpt lat="42.13561910118996" lon="12.828396566273915"><ele>514.2</ele><time>2026-03-22T08:36:56Z</time></trkpt><trkpt lat="42.13561061351415" lon="12.828533041154484"><ele>520.0</ele><time>2026-03-22T08:36:57Z</time></trkpt><trkpt lat="42.13562363279227" lon="12.82867728673109"><ele>520.5</ele><time>2026-03-22T08:36:58Z</time></trkpt><trkpt lat="42.13561893593492" lon="12.828828604213571"><ele>521.0</ele><time>2026-03-22T08:36:59Z</time></trkpt><trkpt lat="42.1356024019062" lon="12.82900720583783"><ele>521.5</ele><time>2026-03-22T08:37:00Z</time></trkpt><trkpt lat="42.13558538160591" lon="12.829173190751977"><ele>522.0</ele><time>2026-03-22T08:37:01Z</time></trkpt><trkpt lat="42.13557171619405" lon="12.829334191455764"><ele>520.0</ele><time>2026-03-22T08:37:02Z</time></trkpt><trkpt lat="42.13556449231822" lon="12.82950241445893"><ele>518.0</ele><time>2026-03-22T08:37:03Z</time></trkpt><trkpt lat="42.13556553985398" lon="12.829672266348902"><ele>516.0</ele><time>2026-03-22T08:37:04Z</time></trkpt><trkpt lat="42.13556858216807" lon="12.829829054628357"><ele>514.0</ele><time>2026-03-22T08:37:05Z</time></trkpt><trkpt lat="42.135571744736865" lon="12.829954307309963"><ele>514.0</ele><time>2026-03-22T08:37:06Z</time></trkpt><trkpt lat="42.13555481560584" lon="12.830086730043556"><ele>514.0</ele><time>2026-03-22T08:37:07Z</time></trkpt><trkpt lat="42.13553984300182" lon="12.830219294378457"><ele>514.0</ele><time>2026-03-22T08:37:08Z</time></trkpt><trkpt lat="42.13553505206943" lon="12.83034634472723"><ele>514.0</ele><time>2026-03-22T08:37:09Z</time></trkpt><trkpt lat="42.135518794378214" lon="12.830472126212477"><ele>514.0</ele><time>2026-03-22T08:37:10Z</time></trkpt><trkpt lat="42.13549196868529" lon="12.83058705459848"><ele>512.0</ele><time>2026-03-22T08:37:11Z</time></trkpt><trkpt lat="42.135462607132446" lon="12.830682248339432"><ele>510.0</ele><time>2026-03-22T08:37:12Z</time></trkpt><trkpt lat="42.13541498320308" lon="12.830776746839692"><ele>508.0</ele><time>2026-03-22T08:37:13Z</time></trkpt><trkpt lat="42.13534822362093" lon="12.83089473704024"><ele>506.0</ele><time>2026-03-22T08:37:14Z</time></trkpt><trkpt lat="42.13527231616128" lon="12.831050992394204"><ele>504.0</ele><time>2026-03-22T08:37:15Z</time></trkpt><trkpt lat="42.13520758229108" lon="12.831195673052799"><ele>500.0</ele><time>2026-03-22T08:37:16Z</time></trkpt><trkpt lat="42.1351710903241" lon="12.83133341598344"><ele>496.0</ele><time>2026-03-22T08:37:17Z</time></trkpt><trkpt lat="42.135123248640596" lon="12.831484936134723"><ele>492.0</ele><time>2026-03-22T08:37:18Z</time></trkpt><trkpt lat="42.13509011218619" lon="12.831646686865211"><ele>488.0</ele><time>2026-03-22T08:37:19Z</time></trkpt><trkpt lat="42.135063683766255" lon="12.831789115660568"><ele>484.4</ele><time>2026-03-22T08:37:20Z</time></trkpt><trkpt lat="42.13505398832975" lon="12.831922827858465"><ele>480.79999999999995</ele><time>2026-03-22T08:37:21Z</time></trkpt><trkpt lat="42.13503546738126" lon="12.832056267400581"><ele>477.2</ele><time>2026-03-22T08:37:22Z</time></trkpt><trkpt lat="42.135009237320034" lon="12.83215486153423"><ele>473.6</ele><time>2026-03-22T08:37:23Z</time></trkpt><trkpt lat="42.13490995786395" lon="12.8322111747151"><ele>470.0</ele><time>2026-03-22T08:37:25Z</time></trkpt><trkpt lat="42.13484179580948" lon="12.832344013730996"><ele>474.2</ele><time>2026-03-22T08:37:27Z</time></trkpt><trkpt lat="42.13479173503841" lon="12.8324167843872"><ele>478.4</ele><time>2026-03-22T08:37:28Z</time></trkpt><trkpt lat="42.13471398441872" lon="12.832504781122623"><ele>482.6</ele><time>2026-03-22T08:37:29Z</time></trkpt><trkpt lat="42.134643866841245" lon="12.832613705641338"><ele>486.8</ele><time>2026-03-22T08:37:30Z</time></trkpt><trkpt lat="42.134567559197656" lon="12.832737665293868"><ele>491.0</ele><time>2026-03-22T08:37:31Z</time></trkpt><trkpt lat="42.13448050056382" lon="12.832851162645248"><ele>491.0</ele><time>2026-03-22T08:37:32Z</time></trkpt><trkpt lat="42.13440534734401" lon="12.832960851160605"><ele>491.0</ele><time>2026-03-22T08:37:33Z</time></trkpt><trkpt lat="42.13433369291797" lon="12.833069649795297"><ele>491.0</ele><time>2026-03-22T08:37:34Z</time></trkpt><trkpt lat="42.134261787587135" lon="12.833174866071168"><ele>491.0</ele><time>2026-03-22T08:37:35Z</time></trkpt><trkpt lat="42.134243852156764" lon="12.833310488192332"><ele>491.0</ele><time>2026-03-22T08:37:36Z</time></trkpt><trkpt lat="42.13421261892721" lon="12.83342676266171"><ele>487.66666666666663</ele><time>2026-03-22T08:37:37Z</time></trkpt><trkpt lat="42.13419328759464" lon="12.833546325614442"><ele>484.3333333333333</ele><time>2026-03-22T08:37:37.999Z</time></trkpt><trkpt lat="42.13419191557834" lon="12.833662042181155"><ele>481.0</ele><time>2026-03-22T08:37:38.999Z</time></trkpt><trkpt lat="42.13421163288209" lon="12.83377571645437"><ele>477.66666666666663</ele><time>2026-03-22T08:37:39.999Z</time></trkpt><trkpt lat="42.13422560847634" lon="12.833881517031614"><ele>474.3333333333333</ele><time>2026-03-22T08:37:40.999Z</time></trkpt><trkpt lat="42.13422936862817" lon="12.83397504835598"><ele>471.0</ele><time>2026-03-22T08:37:41.999Z</time></trkpt><trkpt lat="42.134226868925474" lon="12.834064819427509"><ele>471.0</ele><time>2026-03-22T08:37:42.999Z</time></trkpt><trkpt lat="42.134183556285976" lon="12.8341417210856"><ele>471.0</ele><time>2026-03-22T08:37:43.999Z</time></trkpt><trkpt lat="42.13412552606201" lon="12.834230802426596"><ele>471.0</ele><time>2026-03-22T08:37:44.999Z</time></trkpt><trkpt lat="42.13406351430599" lon="12.834344853877464"><ele>471.0</ele><time>2026-03-22T08:37:45.999Z</time></trkpt><trkpt lat="42.133994142250536" lon="12.834484715564589"><ele>471.0</ele><time>2026-03-22T08:37:46.999Z</time></trkpt><trkpt lat="42.133955339352134" lon="12.83463090796197"><ele>479.6</ele><time>2026-03-22T08:37:47.999Z</time></trkpt><trkpt lat="42.133916604373304" lon="12.834768761240221"><ele>488.20000000000005</ele><time>2026-03-22T08:37:48.999Z</time></trkpt><trkpt lat="42.13389753914567" lon="12.834921015569389"><ele>496.79999999999995</ele><time>2026-03-22T08:37:49.999Z</time></trkpt><trkpt lat="42.13385784849903" lon="12.835060044079338"><ele>505.4</ele><time>2026-03-22T08:37:50.999Z</time></trkpt><trkpt lat="42.133843484738236" lon="12.835207282145388"><ele>514.0</ele><time>2026-03-22T08:37:51.999Z</time></trkpt><trkpt lat="42.13384945572048" lon="12.835372064021"><ele>514.0</ele><time>2026-03-22T08:37:52.999Z</time></trkpt><trkpt lat="42.13382803112813" lon="12.835536832533593"><ele>514.0</ele><time>2026-03-22T08:37:53.999Z</time></trkpt><trkpt lat="42.133823069174696" lon="12.835701102594937"><ele>514.0</ele><time>2026-03-22T08:37:54.999Z</time></trkpt><trkpt lat="42.13379341986443" lon="12.835860006662461"><ele>514.0</ele><time>2026-03-22T08:37:55.999Z</time></trkpt><trkpt lat="42.13376673620807" lon="12.836020110982577"><ele>511.79999999999995</ele><time>2026-03-22T08:37:56.999Z</time></trkpt><trkpt lat="42.133734115982016" lon="12.836171155583315"><ele>509.59999999999997</ele><time>2026-03-22T08:37:57.999Z</time></trkpt><trkpt lat="42.133721087717795" lon="12.836323516118393"><ele>507.4</ele><time>2026-03-22T08:37:58.999Z</time></trkpt><trkpt lat="42.133734084820624" lon="12.83646177008736"><ele>505.2</ele><time>2026-03-22T08:37:59.999Z</time></trkpt><trkpt lat="42.13373652704208" lon="12.83660170515497"><ele>503.0</ele><time>2026-03-22T08:38:00.999Z</time></trkpt><trkpt lat="42.13375003567593" lon="12.83677318985636"><ele>501.59999999999997</ele><time>2026-03-22T08:38:01.999Z</time></trkpt><trkpt lat="42.133770498196924" lon="12.836910945709072"><ele>500.19999999999993</ele><time>2026-03-22T08:38:03Z</time></trkpt><trkpt lat="42.13375767881825" lon="12.837038748161179"><ele>498.8</ele><time>2026-03-22T08:38:04Z</time></trkpt><trkpt lat="42.13375667259813" lon="12.837157031064908"><ele>497.4</ele><time>2026-03-22T08:38:05Z</time></trkpt><trkpt lat="42.13375515466778" lon="12.83728666219275"><ele>496.0</ele><time>2026-03-22T08:38:06Z</time></trkpt><trkpt lat="42.13375606281086" lon="12.837412131313139"><ele>496.0</ele><time>2026-03-22T08:38:07Z</time></trkpt><trkpt lat="42.13376006097953" lon="12.837541610232691"><ele>496.0</ele><time>2026-03-22T08:38:08Z</time></trkpt><trkpt lat="42.133771187707424" lon="12.837674493160677"><ele>496.0</ele><time>2026-03-22T08:38:09Z</time></trkpt><trkpt lat="42.13379592095127" lon="12.837819952584393"><ele>496.0</ele><time>2026-03-22T08:38:10Z</time></trkpt><trkpt lat="42.1338404191802" lon="12.837962634901626"><ele>496.0</ele><time>2026-03-22T08:38:11Z</time></trkpt><trkpt lat="42.13389716031403" lon="12.838079620033824"><ele>496.33333333333337</ele><time>2026-03-22T08:38:12Z</time></trkpt><trkpt lat="42.13395978391875" lon="12.83816250579223"><ele>496.6666666666667</ele><time>2026-03-22T08:38:13Z</time></trkpt><trkpt lat="42.1339988451117" lon="12.838264562588424"><ele>497.0</ele><time>2026-03-22T08:38:14Z</time></trkpt><trkpt lat="42.13404868999516" lon="12.838318599845985"><ele>497.33333333333337</ele><time>2026-03-22T08:38:15Z</time></trkpt><trkpt lat="42.13411056472632" lon="12.838427722109863"><ele>497.6666666666667</ele><time>2026-03-22T08:38:17Z</time></trkpt><trkpt lat="42.13416327929388" lon="12.83851769310478"><ele>498.0</ele><time>2026-03-22T08:38:19Z</time></trkpt><trkpt lat="42.13416464465248" lon="12.83862461254063"><ele>495.2</ele><time>2026-03-22T08:38:22Z</time></trkpt><trkpt lat="42.13422853350161" lon="12.838598345325236"><ele>492.4</ele><time>2026-03-22T08:42:23Z</time></trkpt><trkpt lat="42.13424996133528" lon="12.838467112656936"><ele>489.59999999999997</ele><time>2026-03-22T08:45:28Z</time></trkpt><trkpt lat="42.1342989891403" lon="12.838386899663714"><ele>486.79999999999995</ele><time>2026-03-22T08:45:29Z</time></trkpt><trkpt lat="42.134353208871524" lon="12.838223502204581"><ele>484.0</ele><time>2026-03-22T08:45:31Z</time></trkpt><trkpt lat="42.134382393766295" lon="12.838087258605963"><ele>483.6666666666667</ele><time>2026-03-22T08:45:32Z</time></trkpt><trkpt lat="42.134406668722534" lon="12.837962549126864"><ele>483.33333333333337</ele><time>2026-03-22T08:45:33Z</time></trkpt><trkpt lat="42.13441049778064" lon="12.837829781821943"><ele>483.0</ele><time>2026-03-22T08:45:34Z</time></trkpt><trkpt lat="42.13442199521575" lon="12.837707263469898"><ele>482.66666666666663</ele><time>2026-03-22T08:45:35Z</time></trkpt><trkpt lat="42.13442134358392" lon="12.837601653295092"><ele>482.3333333333333</ele><time>2026-03-22T08:45:36Z</time></trkpt><trkpt lat="42.13446212096919" lon="12.837536276603544"><ele>482.0</ele><time>2026-03-22T08:45:37Z</time></trkpt><trkpt lat="42.134479674768215" lon="12.837448950657338"><ele>481.49999999999994</ele><time>2026-03-22T08:45:38Z</time></trkpt><trkpt lat="42.134511062509524" lon="12.837357809056272"><ele>481.0</ele><time>2026-03-22T08:45:39Z</time></trkpt><trkpt lat="42.134555122424004" lon="12.837257658940747"><ele>480.5</ele><time>2026-03-22T08:45:40Z</time></trkpt><trkpt lat="42.13459253429754" lon="12.83714662991039"><ele>480.0</ele><time>2026-03-22T08:45:41Z</time></trkpt><trkpt lat="42.13464345923341" lon="12.837048459417227"><ele>479.49999999999994</ele><time>2026-03-22T08:45:42Z</time></trkpt><trkpt lat="42.134672819454074" lon="12.836926264194576"><ele>479.0</ele><time>2026-03-22T08:45:43Z</time></trkpt><trkpt lat="42.13471762153004" lon="12.836818293361839"><ele>478.3333333333333</ele><time>2026-03-22T08:45:44Z</time></trkpt><trkpt lat="42.134742660784525" lon="12.836643458361308"><ele>477.66666666666663</ele><time>2026-03-22T08:45:46Z</time></trkpt><trkpt lat="42.13474888918628" lon="12.836538029017653"><ele>477.0</ele><time>2026-03-22T08:45:47Z</time></trkpt><trkpt lat="42.13473684374174" lon="12.836433950143096"><ele>476.33333333333337</ele><time>2026-03-22T08:45:48Z</time></trkpt><trkpt lat="42.13474407360773" lon="12.836349552198246"><ele>475.6666666666667</ele><time>2026-03-22T08:45:49Z</time></trkpt><trkpt lat="42.13475559744212" lon="12.836249830935191"><ele>475.0</ele><time>2026-03-22T08:45:50Z</time></trkpt><trkpt lat="42.13479876335548" lon="12.836151312062741"><ele>475.0</ele><time>2026-03-22T08:45:51Z</time></trkpt><trkpt lat="42.13485452682995" lon="12.836036150113001"><ele>475.0</ele><time>2026-03-22T08:45:52Z</time></trkpt><trkpt lat="42.134907921836884" lon="12.835886465609885"><ele>475.0</ele><time>2026-03-22T08:45:53Z</time></trkpt><trkpt lat="42.13496152698096" lon="12.835709715668392"><ele>475.0</ele><time>2026-03-22T08:45:54Z</time></trkpt><trkpt lat="42.13501471459885" lon="12.835555128218406"><ele>475.1666666666667</ele><time>2026-03-22T08:45:55Z</time></trkpt><trkpt lat="42.13506220903748" lon="12.835428177671638"><ele>475.33333333333337</ele><time>2026-03-22T08:45:56Z</time></trkpt><trkpt lat="42.13510618547162" lon="12.835309661542151"><ele>475.5</ele><time>2026-03-22T08:45:57Z</time></trkpt><trkpt lat="42.13515430655338" lon="12.835222419006627"><ele>475.66666666666663</ele><time>2026-03-22T08:45:58Z</time></trkpt><trkpt lat="42.13519922793695" lon="12.835143203740023"><ele>475.8333333333333</ele><time>2026-03-22T08:45:59Z</time></trkpt><trkpt lat="42.13525525337933" lon="12.835059310375255"><ele>476.0</ele><time>2026-03-22T08:46:00Z</time></trkpt><trkpt lat="42.13531456127583" lon="12.834956547833691"><ele>475.99999999999994</ele><time>2026-03-22T08:46:01Z</time></trkpt><trkpt lat="42.1353691736021" lon="12.834847651542736"><ele>476.0</ele><time>2026-03-22T08:46:02Z</time></trkpt><trkpt lat="42.13543974517008" lon="12.834761688439965"><ele>476.0</ele><time>2026-03-22T08:46:02.999Z</time></trkpt><trkpt lat="42.135486749303986" lon="12.834678831823766"><ele>476.0</ele><time>2026-03-22T08:46:03.999Z</time></trkpt><trkpt lat="42.13553134116675" lon="12.834606868385746"><ele>475.99999999999994</ele><time>2026-03-22T08:46:04.999Z</time></trkpt><trkpt lat="42.13558184656391" lon="12.834550871331425"><ele>476.0</ele><time>2026-03-22T08:46:05.999Z</time></trkpt><trkpt lat="42.13564000974372" lon="12.83451000998483"><ele>475.99999999999994</ele><time>2026-03-22T08:46:06.999Z</time></trkpt><trkpt lat="42.13570394890926" lon="12.834485938416059"><ele>476.0</ele><time>2026-03-22T08:46:07.999Z</time></trkpt><trkpt lat="42.135772074883384" lon="12.834450631898603"><ele>476.0</ele><time>2026-03-22T08:46:08.999Z</time></trkpt><trkpt lat="42.13585307162591" lon="12.834425315502378"><ele>476.0</ele><time>2026-03-22T08:46:09.999Z</time></trkpt><trkpt lat="42.13593027755226" lon="12.834386210228166"><ele>475.99999999999994</ele><time>2026-03-22T08:46:10.999Z</time></trkpt><trkpt lat="42.13601329585635" lon="12.834347056433309"><ele>476.0</ele><time>2026-03-22T08:46:11.999Z</time></trkpt><trkpt lat="42.13608124261774" lon="12.834311086984467"><ele>477.8</ele><time>2026-03-22T08:46:12.999Z</time></trkpt><trkpt lat="42.13616444417734" lon="12.834253469300613"><ele>479.6</ele><time>2026-03-22T08:46:13.999Z</time></trkpt><trkpt lat="42.13624842369473" lon="12.834176019427678"><ele>481.4</ele><time>2026-03-22T08:46:14.999Z</time></trkpt><trkpt lat="42.13632255384892" lon="12.834075886670842"><ele>483.2</ele><time>2026-03-22T08:46:15.999Z</time></trkpt><trkpt lat="42.13636082438226" lon="12.833964457775247"><ele>485.0</ele><time>2026-03-22T08:46:16.999Z</time></trkpt><trkpt lat="42.13641068127938" lon="12.833868136359527"><ele>485.0</ele><time>2026-03-22T08:46:17.999Z</time></trkpt><trkpt lat="42.136490173624644" lon="12.833764542717761"><ele>485.0</ele><time>2026-03-22T08:46:18.999Z</time></trkpt><trkpt lat="42.13655796061907" lon="12.833686100458834"><ele>485.0</ele><time>2026-03-22T08:46:19.999Z</time></trkpt><trkpt lat="42.13660457329112" lon="12.833606612542933"><ele>485.0</ele><time>2026-03-22T08:46:20.999Z</time></trkpt><trkpt lat="42.13668157353694" lon="12.833494612084419"><ele>485.0</ele><time>2026-03-22T08:46:21.999Z</time></trkpt><trkpt lat="42.1367480697368" lon="12.833388124254634"><ele>485.75</ele><time>2026-03-22T08:46:22.999Z</time></trkpt><trkpt lat="42.13681410558563" lon="12.833300821018591"><ele>486.5</ele><time>2026-03-22T08:46:23.999Z</time></trkpt><trkpt lat="42.13687944862475" lon="12.833199213077974"><ele>487.25</ele><time>2026-03-22T08:46:25Z</time></trkpt><trkpt lat="42.13694702988816" lon="12.833023456308547"><ele>488.0</ele><time>2026-03-22T08:46:26Z</time></trkpt><trkpt lat="42.13701683527839" lon="12.832881300114327"><ele>488.0</ele><time>2026-03-22T08:46:27Z</time></trkpt><trkpt lat="42.137091536977664" lon="12.832771696259414"><ele>487.99999999999994</ele><time>2026-03-22T08:46:28Z</time></trkpt><trkpt lat="42.137172536199586" lon="12.832624336171138"><ele>487.99999999999994</ele><time>2026-03-22T08:46:29Z</time></trkpt><trkpt lat="42.137237707546404" lon="12.832521350271964"><ele>488.0</ele><time>2026-03-22T08:46:30Z</time></trkpt><trkpt lat="42.13729921009655" lon="12.832444051715171"><ele>488.0</ele><time>2026-03-22T08:46:31Z</time></trkpt><trkpt lat="42.13735480213328" lon="12.832358972514571"><ele>490.79999999999995</ele><time>2026-03-22T08:46:32Z</time></trkpt><trkpt lat="42.137406541297125" lon="12.832282413620305"><ele>493.59999999999997</ele><time>2026-03-22T08:46:33Z</time></trkpt><trkpt lat="42.13753007433553" lon="12.832216704103843"><ele>496.40000000000003</ele><time>2026-03-22T08:46:35Z</time></trkpt><trkpt lat="42.137612477807195" lon="12.832191316176063"><ele>499.20000000000005</ele><time>2026-03-22T08:46:36Z</time></trkpt><trkpt lat="42.13768431574844" lon="12.832142789444108"><ele>502.0</ele><time>2026-03-22T08:46:37Z</time></trkpt><trkpt lat="42.13774979673346" lon="12.83208132579453"><ele>502.00000000000006</ele><time>2026-03-22T08:46:38Z</time></trkpt><trkpt lat="42.13782094251024" lon="12.832002643824122"><ele>502.0</ele><time>2026-03-22T08:46:39Z</time></trkpt><trkpt lat="42.13787418645487" lon="12.831920368702246"><ele>502.0</ele><time>2026-03-22T08:46:40Z</time></trkpt><trkpt lat="42.137938661391296" lon="12.83184813232694"><ele>502.0</ele><time>2026-03-22T08:46:41Z</time></trkpt><trkpt lat="42.138004960812545" lon="12.831771516905148"><ele>502.00000000000006</ele><time>2026-03-22T08:46:42Z</time></trkpt><trkpt lat="42.138078552552834" lon="12.83170088539928"><ele>502.0</ele><time>2026-03-22T08:46:43Z</time></trkpt><trkpt lat="42.138145112966136" lon="12.831639244527018"><ele>496.40000000000003</ele><time>2026-03-22T08:46:44Z</time></trkpt><trkpt lat="42.13820033488201" lon="12.831584462652275"><ele>490.80000000000007</ele><time>2026-03-22T08:46:45Z</time></trkpt><trkpt lat="42.138259946949006" lon="12.831527877204897"><ele>485.2</ele><time>2026-03-22T08:46:46Z</time></trkpt><trkpt lat="42.138372456434574" lon="12.831453495930816"><ele>479.6</ele><time>2026-03-22T08:46:48Z</time></trkpt><trkpt lat="42.13846579551034" lon="12.831435177916545"><ele>474.0</ele><time>2026-03-22T08:46:50Z</time></trkpt><trkpt lat="42.138544603939444" lon="12.83151214012886"><ele>474.0</ele><time>2026-03-22T08:46:52Z</time></trkpt><trkpt lat="42.138572355164385" lon="12.83159226689857"><ele>474.0</ele><time>2026-03-22T08:46:53Z</time></trkpt><trkpt lat="42.138613131767" lon="12.831694283228009"><ele>474.0</ele><time>2026-03-22T08:46:54Z</time></trkpt><trkpt lat="42.13868040340793" lon="12.831795594033792"><ele>474.0</ele><time>2026-03-22T08:46:55Z</time></trkpt><trkpt lat="42.138755535814575" lon="12.831908676383076"><ele>474.0</ele><time>2026-03-22T08:46:56Z</time></trkpt><trkpt lat="42.13882192205204" lon="12.832002402952792"><ele>480.1666666666667</ele><time>2026-03-22T08:46:57Z</time></trkpt><trkpt lat="42.13885961739643" lon="12.832079593944417"><ele>486.33333333333337</ele><time>2026-03-22T08:46:58Z</time></trkpt><trkpt lat="42.13891176599141" lon="12.832137837479038"><ele>492.5</ele><time>2026-03-22T08:46:59Z</time></trkpt><trkpt lat="42.13898690091985" lon="12.832157030956783"><ele>498.6666666666667</ele><time>2026-03-22T08:47:00Z</time></trkpt><trkpt lat="42.139095331334765" lon="12.832154674790244"><ele>504.83333333333337</ele><time>2026-03-22T08:47:01Z</time></trkpt><trkpt lat="42.13919749123516" lon="12.832149251114815"><ele>511.0</ele><time>2026-03-22T08:47:02Z</time></trkpt><trkpt lat="42.13929951064289" lon="12.832131557546527"><ele>511.0</ele><time>2026-03-22T08:47:03Z</time></trkpt><trkpt lat="42.13938218437153" lon="12.832109494651231"><ele>511.0</ele><time>2026-03-22T08:47:04Z</time></trkpt><trkpt lat="42.13944944709046" lon="12.832047654749767"><ele>511.0</ele><time>2026-03-22T08:47:05Z</time></trkpt><trkpt lat="42.139538560473525" lon="12.831973029350145"><ele>511.0</ele><time>2026-03-22T08:47:06Z</time></trkpt><trkpt lat="42.13961232179715" lon="12.831920544024468"><ele>511.0</ele><time>2026-03-22T08:47:07Z</time></trkpt><trkpt lat="42.13972157886328" lon="12.831844215063398"><ele>511.00000000000006</ele><time>2026-03-22T08:47:09Z</time></trkpt><trkpt lat="42.13980374158496" lon="12.831811676722104"><ele>511.0</ele><time>2026-03-22T08:47:11Z</time></trkpt><trkpt lat="42.13987215155037" lon="12.831754380186313"><ele>511.0</ele><time>2026-03-22T08:47:14Z</time></trkpt><trkpt lat="42.13993488142939" lon="12.831743562685409"><ele>511.0</ele><time>2026-03-22T08:47:16Z</time></trkpt><trkpt lat="42.14001870307846" lon="12.83168762424897"><ele>511.00000000000006</ele><time>2026-03-22T08:47:18Z</time></trkpt><trkpt lat="42.14010068418306" lon="12.831726032254522"><ele>511.0</ele><time>2026-03-22T08:47:20Z</time></trkpt><trkpt lat="42.14023310343462" lon="12.831660672574577"><ele>505.33333333333337</ele><time>2026-03-22T08:47:22Z</time></trkpt><trkpt lat="42.140299752835" lon="12.831599284834022"><ele>499.6666666666667</ele><time>2026-03-22T08:47:23Z</time></trkpt><trkpt lat="42.14035741503122" lon="12.831557611303158"><ele>494.0</ele><time>2026-03-22T08:47:24Z</time></trkpt><trkpt lat="42.140433696247" lon="12.831540133803125"><ele>488.33333333333337</ele><time>2026-03-22T08:47:25Z</time></trkpt><trkpt lat="42.140507145997745" lon="12.831518380341434"><ele>482.6666666666667</ele><time>2026-03-22T08:47:26Z</time></trkpt><trkpt lat="42.14062214779428" lon="12.83148017497449"><ele>477.0</ele><time>2026-03-22T08:47:28Z</time></trkpt><trkpt lat="42.14071453088815" lon="12.83151306003158"><ele>480.20000000000005</ele><time>2026-03-22T08:47:30Z</time></trkpt><trkpt lat="42.14080863822574" lon="12.831477205880978"><ele>483.40000000000003</ele><time>2026-03-22T08:47:32Z</time></trkpt><trkpt lat="42.14088233753458" lon="12.831394755440833"><ele>486.59999999999997</ele><time>2026-03-22T08:47:34Z</time></trkpt><trkpt lat="42.14091639633828" lon="12.831304280130299"><ele>489.79999999999995</ele><time>2026-03-22T08:47:37Z</time></trkpt><trkpt lat="42.14098351121432" lon="12.831210254415126"><ele>493.0</ele><time>2026-03-22T08:47:39Z</time></trkpt><trkpt lat="42.141039295037196" lon="12.831119722106884"><ele>493.0</ele><time>2026-03-22T08:47:41Z</time></trkpt><trkpt lat="42.14114775737437" lon="12.8310345291888"><ele>492.99999999999994</ele><time>2026-03-22T08:47:43Z</time></trkpt><trkpt lat="42.14121400136737" lon="12.83101292683119"><ele>492.99999999999994</ele><time>2026-03-22T08:47:45Z</time></trkpt><trkpt lat="42.141271020899" lon="12.8309595214849"><ele>493.0</ele><time>2026-03-22T08:47:47Z</time></trkpt><trkpt lat="42.141346910616434" lon="12.830932681458247"><ele>493.0</ele><time>2026-03-22T08:47:50Z</time></trkpt><trkpt lat="42.141796529981235" lon="12.830694556541228"><ele>492.0</ele><time>2026-03-22T08:47:53Z</time></trkpt><trkpt lat="42.14190190763823" lon="12.830669883707696"><ele>490.99999999999994</ele><time>2026-03-22T08:47:55Z</time></trkpt><trkpt lat="42.141987312781076" lon="12.830640958354179"><ele>489.99999999999994</ele><time>2026-03-22T08:47:57Z</time></trkpt><trkpt lat="42.14207297821423" lon="12.830621101125944"><ele>489.0</ele><time>2026-03-22T08:47:59Z</time></trkpt><trkpt lat="42.14217783115237" lon="12.830629577699044"><ele>488.0</ele><time>2026-03-22T08:48:01Z</time></trkpt><trkpt lat="42.14224199562961" lon="12.830617779262043"><ele>487.99999999999994</ele><time>2026-03-22T08:48:02Z</time></trkpt><trkpt lat="42.142324857672875" lon="12.83059616000972"><ele>488.0</ele><time>2026-03-22T08:48:03Z</time></trkpt><trkpt lat="42.14241377187698" lon="12.83058391188768"><ele>488.0</ele><time>2026-03-22T08:48:04Z</time></trkpt><trkpt lat="42.142498120127144" lon="12.83054043765243"><ele>488.0</ele><time>2026-03-22T08:48:05Z</time></trkpt><trkpt lat="42.142575000326936" lon="12.830489592665915"><ele>487.99999999999994</ele><time>2026-03-22T08:48:06Z</time></trkpt><trkpt lat="42.14265029894589" lon="12.830425026447196"><ele>488.0</ele><time>2026-03-22T08:48:06.999Z</time></trkpt><trkpt lat="42.142707441550954" lon="12.830375221449778"><ele>489.1428571428571</ele><time>2026-03-22T08:48:07.999Z</time></trkpt><trkpt lat="42.14276656875979" lon="12.830300189831481"><ele>490.2857142857143</ele><time>2026-03-22T08:48:08.999Z</time></trkpt><trkpt lat="42.14282169794112" lon="12.830240351402018"><ele>491.42857142857144</ele><time>2026-03-22T08:48:09.999Z</time></trkpt><trkpt lat="42.14283986603228" lon="12.830156300346372"><ele>492.57142857142856</ele><time>2026-03-22T08:48:11.999Z</time></trkpt><trkpt lat="42.14290857718841" lon="12.83010296443083"><ele>493.7142857142858</ele><time>2026-03-22T08:48:12.999Z</time></trkpt><trkpt lat="42.142978373420654" lon="12.830046088287743"><ele>494.8571428571429</ele><time>2026-03-22T08:48:13.999Z</time></trkpt><trkpt lat="42.143043423844965" lon="12.83000566760058"><ele>496.0</ele><time>2026-03-22T08:48:14.999Z</time></trkpt><trkpt lat="42.14311473685279" lon="12.829941042297307"><ele>495.50000000000006</ele><time>2026-03-22T08:48:15.999Z</time></trkpt><trkpt lat="42.143188874410306" lon="12.829866267123856"><ele>495.0</ele><time>2026-03-22T08:48:16.999Z</time></trkpt><trkpt lat="42.1432492783207" lon="12.829824257943413"><ele>494.5</ele><time>2026-03-22T08:48:17.999Z</time></trkpt><trkpt lat="42.14331502330153" lon="12.829793386661324"><ele>494.0</ele><time>2026-03-22T08:48:18.999Z</time></trkpt><trkpt lat="42.14338763119675" lon="12.829747156271933"><ele>493.50000000000006</ele><time>2026-03-22T08:48:19.999Z</time></trkpt><trkpt lat="42.14344917425077" lon="12.829715198969954"><ele>493.0</ele><time>2026-03-22T08:48:20.999Z</time></trkpt><trkpt lat="42.143538951509065" lon="12.829597686337314"><ele>493.0</ele><time>2026-03-22T08:48:22.999Z</time></trkpt><trkpt lat="42.143602783932" lon="12.829549124533472"><ele>493.0</ele><time>2026-03-22T08:48:23.999Z</time></trkpt><trkpt lat="42.14368422524518" lon="12.829481245525896"><ele>493.0</ele><time>2026-03-22T08:48:25.999Z</time></trkpt><trkpt lat="42.14373979464967" lon="12.82941888924905"><ele>493.0</ele><time>2026-03-22T08:48:27.999Z</time></trkpt><trkpt lat="42.143727549714974" lon="12.829326143525197"><ele>493.0</ele><time>2026-03-22T08:48:28.999Z</time></trkpt><trkpt lat="42.14372139286421" lon="12.829239752481689"><ele>493.0</ele><time>2026-03-22T08:48:29.999Z</time></trkpt><trkpt lat="42.143703627943175" lon="12.829152611330267"><ele>493.0</ele><time>2026-03-22T08:48:31Z</time></trkpt><trkpt lat="42.143686520919964" lon="12.829066960639974"><ele>488.33333333333337</ele><time>2026-03-22T08:48:32Z</time></trkpt><trkpt lat="42.14367545269613" lon="12.828971137627104"><ele>483.6666666666667</ele><time>2026-03-22T08:48:33Z</time></trkpt><trkpt lat="42.14365289727365" lon="12.828872178666586"><ele>479.0</ele><time>2026-03-22T08:48:34Z</time></trkpt><trkpt lat="42.143627905807946" lon="12.828772723839116"><ele>474.33333333333337</ele><time>2026-03-22T08:48:35Z</time></trkpt><trkpt lat="42.143625948020905" lon="12.828677090254374"><ele>469.6666666666667</ele><time>2026-03-22T08:48:36Z</time></trkpt><trkpt lat="42.14362078828518" lon="12.828522490979136"><ele>465.0</ele><time>2026-03-22T08:48:38Z</time></trkpt><trkpt lat="42.14366578360332" lon="12.828385642005923"><ele>462.5</ele><time>2026-03-22T08:48:40Z</time></trkpt><trkpt lat="42.14372100152671" lon="12.828310796375554"><ele>460.0</ele><time>2026-03-22T08:48:41Z</time></trkpt><trkpt lat="42.14378753741281" lon="12.828233968527446"><ele>457.5</ele><time>2026-03-22T08:48:43Z</time></trkpt><trkpt lat="42.14373671576042" lon="12.828163348570193"><ele>455.0</ele><time>2026-03-22T08:48:48Z</time></trkpt><trkpt lat="42.14367190046981" lon="12.828190387518362"><ele>452.5</ele><time>2026-03-22T08:48:49Z</time></trkpt><trkpt lat="42.143589075368034" lon="12.828220479337048"><ele>450.0</ele><time>2026-03-22T08:48:51Z</time></trkpt><trkpt lat="42.14348078070492" lon="12.828248033783124"><ele>450.0</ele><time>2026-03-22T08:49:31Z</time></trkpt><trkpt lat="42.14335940731159" lon="12.828237727692525"><ele>450.0</ele><time>2026-03-22T08:49:34Z</time></trkpt><trkpt lat="42.14329633125055" lon="12.828194029560873"><ele>450.0</ele><time>2026-03-22T08:49:35Z</time></trkpt><trkpt lat="42.143239356661795" lon="12.828115710331906"><ele>450.0</ele><time>2026-03-22T08:49:36Z</time></trkpt><trkpt lat="42.14320494343375" lon="12.828024193775377"><ele>450.0</ele><time>2026-03-22T08:49:37Z</time></trkpt><trkpt lat="42.143145728322864" lon="12.82797251262691"><ele>450.0</ele><time>2026-03-22T08:49:38Z</time></trkpt><trkpt lat="42.14308041035411" lon="12.827919831413496"><ele>448.3333333333333</ele><time>2026-03-22T08:49:39Z</time></trkpt><trkpt lat="42.143001062326135" lon="12.827873641038067"><ele>446.66666666666663</ele><time>2026-03-22T08:49:40Z</time></trkpt><trkpt lat="42.14291623261098" lon="12.827864087940316"><ele>445.0</ele><time>2026-03-22T08:49:41Z</time></trkpt><trkpt lat="42.14283049512441" lon="12.827888327729797"><ele>443.3333333333333</ele><time>2026-03-22T08:49:42Z</time></trkpt><trkpt lat="42.1427517147307" lon="12.827905287731229"><ele>441.66666666666663</ele><time>2026-03-22T08:49:43Z</time></trkpt><trkpt lat="42.142686630931394" lon="12.827919431975323"><ele>440.0</ele><time>2026-03-22T08:49:44Z</time></trkpt><trkpt lat="42.142587462831415" lon="12.827909919029397"><ele>440.0</ele><time>2026-03-22T08:49:46Z</time></trkpt><trkpt lat="42.14253110635536" lon="12.82784019236039"><ele>440.0</ele><time>2026-03-22T08:49:48Z</time></trkpt><trkpt lat="42.142541226762276" lon="12.827715819146338"><ele>440.0</ele><time>2026-03-22T08:49:49Z</time></trkpt><trkpt lat="42.142504938068186" lon="12.827580984769687"><ele>440.0</ele><time>2026-03-22T08:49:50Z</time></trkpt><trkpt lat="42.14247541288929" lon="12.827424678173566"><ele>440.0</ele><time>2026-03-22T08:49:51Z</time></trkpt><trkpt lat="42.14244597805327" lon="12.827295449586835"><ele>437.66666666666663</ele><time>2026-03-22T08:49:52Z</time></trkpt><trkpt lat="42.14240850886236" lon="12.827171308198865"><ele>435.3333333333333</ele><time>2026-03-22T08:49:53Z</time></trkpt><trkpt lat="42.142391603035485" lon="12.827054310989974"><ele>433.0</ele><time>2026-03-22T08:49:54Z</time></trkpt><trkpt lat="42.142365119298624" lon="12.82695669721257"><ele>430.66666666666663</ele><time>2026-03-22T08:49:55Z</time></trkpt><trkpt lat="42.14233598641224" lon="12.82687494401342"><ele>428.3333333333333</ele><time>2026-03-22T08:49:56Z</time></trkpt><trkpt lat="42.142279772899364" lon="12.826786514927726"><ele>426.0</ele><time>2026-03-22T08:49:57Z</time></trkpt><trkpt lat="42.142224528856985" lon="12.826717377185876"><ele>421.25</ele><time>2026-03-22T08:49:58Z</time></trkpt><trkpt lat="42.14212948704444" lon="12.826647739672998"><ele>416.5</ele><time>2026-03-22T08:49:59Z</time></trkpt><trkpt lat="42.14201774595555" lon="12.826550370265776"><ele>411.75</ele><time>2026-03-22T08:50:00Z</time></trkpt><trkpt lat="42.14190628941459" lon="12.826448453308586"><ele>407.0</ele><time>2026-03-22T08:50:01Z</time></trkpt><trkpt lat="42.14180320705262" lon="12.826367012955648"><ele>406.99999999999994</ele><time>2026-03-22T08:50:02Z</time></trkpt><trkpt lat="42.141703886205605" lon="12.826305175125569"><ele>407.0</ele><time>2026-03-22T08:50:03Z</time></trkpt><trkpt lat="42.141618155182776" lon="12.826253841233617"><ele>407.0</ele><time>2026-03-22T08:50:04Z</time></trkpt><trkpt lat="42.14153604811401" lon="12.826210506659766"><ele>407.0</ele><time>2026-03-22T08:50:05Z</time></trkpt><trkpt lat="42.14146302946576" lon="12.826165354276386"><ele>406.99999999999994</ele><time>2026-03-22T08:50:05.999Z</time></trkpt><trkpt lat="42.14139437660426" lon="12.826129336776022"><ele>407.0</ele><time>2026-03-22T08:50:06.999Z</time></trkpt><trkpt lat="42.141326716608326" lon="12.826096239071616"><ele>405.40000000000003</ele><time>2026-03-22T08:50:07.999Z</time></trkpt><trkpt lat="42.1412554040087" lon="12.826067486789581"><ele>403.8</ele><time>2026-03-22T08:50:08.999Z</time></trkpt><trkpt lat="42.14119085776906" lon="12.826040413970057"><ele>402.2</ele><time>2026-03-22T08:50:09.999Z</time></trkpt><trkpt lat="42.141084187600875" lon="12.825959087625328"><ele>400.6</ele><time>2026-03-22T08:50:11.999Z</time></trkpt><trkpt lat="42.140986832970604" lon="12.825903868111894"><ele>399.0</ele><time>2026-03-22T08:50:13.999Z</time></trkpt><trkpt lat="42.14088309519338" lon="12.82594436564007"><ele>398.1666666666667</ele><time>2026-03-22T08:50:14.999Z</time></trkpt><trkpt lat="42.14079603815875" lon="12.825938751681123"><ele>397.33333333333337</ele><time>2026-03-22T08:50:15.999Z</time></trkpt><trkpt lat="42.1407195578433" lon="12.825873538456639"><ele>396.5</ele><time>2026-03-22T08:50:16.999Z</time></trkpt><trkpt lat="42.14066498070365" lon="12.825787723243952"><ele>395.6666666666667</ele><time>2026-03-22T08:50:17.999Z</time></trkpt><trkpt lat="42.14062493755739" lon="12.825675101351623"><ele>394.83333333333337</ele><time>2026-03-22T08:50:18.999Z</time></trkpt><trkpt lat="42.14060385937632" lon="12.825549699711273"><ele>394.0</ele><time>2026-03-22T08:50:19.999Z</time></trkpt><trkpt lat="42.140592589149335" lon="12.825425218640174"><ele>398.2</ele><time>2026-03-22T08:50:20.999Z</time></trkpt><trkpt lat="42.140591502078195" lon="12.825314317946807"><ele>402.4</ele><time>2026-03-22T08:50:21.999Z</time></trkpt><trkpt lat="42.14059798416955" lon="12.825188389086808"><ele>406.6</ele><time>2026-03-22T08:50:22.999Z</time></trkpt><trkpt lat="42.14062313977411" lon="12.825037021698623"><ele>410.8</ele><time>2026-03-22T08:50:23.999Z</time></trkpt><trkpt lat="42.14063250784739" lon="12.824878856354267"><ele>415.0</ele><time>2026-03-22T08:50:24.999Z</time></trkpt><trkpt lat="42.14063960050722" lon="12.824707737185447"><ele>416.0</ele><time>2026-03-22T08:50:25.999Z</time></trkpt><trkpt lat="42.14065591828294" lon="12.82452910222739"><ele>417.0</ele><time>2026-03-22T08:50:26.999Z</time></trkpt><trkpt lat="42.14069246438806" lon="12.824356420570945"><ele>418.0</ele><time>2026-03-22T08:50:27.999Z</time></trkpt><trkpt lat="42.140765118781886" lon="12.824207477946576"><ele>419.0</ele><time>2026-03-22T08:50:28.999Z</time></trkpt><trkpt lat="42.140814609477296" lon="12.824039299334501"><ele>419.5</ele><time>2026-03-22T08:50:29.999Z</time></trkpt><trkpt lat="42.1408824772759" lon="12.823897743894523"><ele>420.0</ele><time>2026-03-22T08:50:30.999Z</time></trkpt><trkpt lat="42.14090451466335" lon="12.82372855079656"><ele>420.5</ele><time>2026-03-22T08:50:31.999Z</time></trkpt><trkpt lat="42.140893800336684" lon="12.823559605030002"><ele>421.0</ele><time>2026-03-22T08:50:32.999Z</time></trkpt><trkpt lat="42.14091045357227" lon="12.823391989607224"><ele>421.0</ele><time>2026-03-22T08:50:33.999Z</time></trkpt><trkpt lat="42.14092359371632" lon="12.823216746145258"><ele>421.0</ele><time>2026-03-22T08:50:34.999Z</time></trkpt><trkpt lat="42.14094182066295" lon="12.823040273787184"><ele>421.0</ele><time>2026-03-22T08:50:35.999Z</time></trkpt><trkpt lat="42.14096730576059" lon="12.822861778013843"><ele>421.0</ele><time>2026-03-22T08:50:37Z</time></trkpt><trkpt lat="42.14098500066916" lon="12.822682471928664"><ele>422.5</ele><time>2026-03-22T08:50:38Z</time></trkpt><trkpt lat="42.14102835164657" lon="12.82250588157621"><ele>424.0</ele><time>2026-03-22T08:50:39Z</time></trkpt><trkpt lat="42.14106112995553" lon="12.82234564952447"><ele>425.5</ele><time>2026-03-22T08:50:40Z</time></trkpt><trkpt lat="42.141088315653576" lon="12.822209728922116"><ele>427.0</ele><time>2026-03-22T08:50:41Z</time></trkpt><trkpt lat="42.14111733836978" lon="12.822088871469894"><ele>427.0</ele><time>2026-03-22T08:50:42Z</time></trkpt><trkpt lat="42.14114968903405" lon="12.821949388119629"><ele>427.0</ele><time>2026-03-22T08:50:43Z</time></trkpt><trkpt lat="42.1411828974992" lon="12.821804920324066"><ele>427.0</ele><time>2026-03-22T08:50:44Z</time></trkpt><trkpt lat="42.14122081600482" lon="12.821655197944324"><ele>427.0</ele><time>2026-03-22T08:50:45Z</time></trkpt><trkpt lat="42.141260599764614" lon="12.821509928031913"><ele>428.75</ele><time>2026-03-22T08:50:46Z</time></trkpt><trkpt lat="42.14130654112383" lon="12.8213627881448"><ele>430.5</ele><time>2026-03-22T08:50:47Z</time></trkpt><trkpt lat="42.14135927565633" lon="12.821215307844149"><ele>432.25</ele><time>2026-03-22T08:50:48Z</time></trkpt><trkpt lat="42.14142215668427" lon="12.821073182941666"><ele>434.0</ele><time>2026-03-22T08:50:49Z</time></trkpt><trkpt lat="42.1414927698117" lon="12.820942074309217"><ele>432.2</ele><time>2026-03-22T08:50:50Z</time></trkpt><trkpt lat="42.14158195369217" lon="12.820821228289896"><ele>430.4</ele><time>2026-03-22T08:50:51Z</time></trkpt><trkpt lat="42.141671082272964" lon="12.82070545740459"><ele>428.6</ele><time>2026-03-22T08:50:52Z</time></trkpt><trkpt lat="42.14173777917786" lon="12.820600663441022"><ele>426.8</ele><time>2026-03-22T08:50:53Z</time></trkpt><trkpt lat="42.141784763281855" lon="12.82052617423613"><ele>425.0</ele><time>2026-03-22T08:50:54Z</time></trkpt><trkpt lat="42.14179341373918" lon="12.820436373361234"><ele>425.0</ele><time>2026-03-22T08:50:55Z</time></trkpt><trkpt lat="42.14182627463528" lon="12.820271106504752"><ele>425.0</ele><time>2026-03-22T08:50:57Z</time></trkpt><trkpt lat="42.14184596231037" lon="12.820136124088593"><ele>425.0</ele><time>2026-03-22T08:50:59Z</time></trkpt><trkpt lat="42.14194073364839" lon="12.8201553834536"><ele>425.0</ele><time>2026-03-22T08:51:00Z</time></trkpt><trkpt lat="42.14200370184169" lon="12.82010927635143"><ele>425.0</ele><time>2026-03-22T08:51:01Z</time></trkpt><trkpt lat="42.14208842035345" lon="12.820094868744054"><ele>425.8</ele><time>2026-03-22T08:51:02Z</time></trkpt><trkpt lat="42.14217282998078" lon="12.82003737888111"><ele>426.6</ele><time>2026-03-22T08:51:03Z</time></trkpt><trkpt lat="42.142258728700746" lon="12.819955076136333"><ele>427.4</ele><time>2026-03-22T08:51:04Z</time></trkpt><trkpt lat="42.14234787529533" lon="12.819873010177187"><ele>428.2</ele><time>2026-03-22T08:51:05Z</time></trkpt><trkpt lat="42.142439703510576" lon="12.81977875020004"><ele>429.0</ele><time>2026-03-22T08:51:06Z</time></trkpt><trkpt lat="42.142533458056185" lon="12.81968438869119"><ele>429.0</ele><time>2026-03-22T08:51:07Z</time></trkpt><trkpt lat="42.14263947170494" lon="12.819599622770253"><ele>429.0</ele><time>2026-03-22T08:51:08Z</time></trkpt><trkpt lat="42.14275291344304" lon="12.8195281169668"><ele>429.0</ele><time>2026-03-22T08:51:09Z</time></trkpt><trkpt lat="42.14285566285317" lon="12.819450122866991"><ele>429.0</ele><time>2026-03-22T08:51:10Z</time></trkpt><trkpt lat="42.142969080876895" lon="12.819317713873486"><ele>429.0</ele><time>2026-03-22T08:51:11Z</time></trkpt><trkpt lat="42.14311276075295" lon="12.819164193216865"><ele>429.0</ele><time>2026-03-22T08:51:12Z</time></trkpt><trkpt lat="42.14324348113462" lon="12.81898857912815"><ele>429.0</ele><time>2026-03-22T08:51:13Z</time></trkpt><trkpt lat="42.143374244487376" lon="12.81885045650741"><ele>429.0</ele><time>2026-03-22T08:51:14Z</time></trkpt><trkpt lat="42.143501355008915" lon="12.818742782069117"><ele>429.0</ele><time>2026-03-22T08:51:15Z</time></trkpt><trkpt lat="42.14360988468047" lon="12.81863144161194"><ele>429.0</ele><time>2026-03-22T08:51:16Z</time></trkpt><trkpt lat="42.143708312345204" lon="12.818521321680203"><ele>429.0</ele><time>2026-03-22T08:51:17Z</time></trkpt><trkpt lat="42.143817875676206" lon="12.818416421084363"><ele>429.0</ele><time>2026-03-22T08:51:18Z</time></trkpt><trkpt lat="42.143920483642425" lon="12.818309180306624"><ele>429.0</ele><time>2026-03-22T08:51:19Z</time></trkpt><trkpt lat="42.14403391794542" lon="12.818196222881227"><ele>429.0</ele><time>2026-03-22T08:51:20Z</time></trkpt><trkpt lat="42.14415769914821" lon="12.818066440342617"><ele>429.0</ele><time>2026-03-22T08:51:21Z</time></trkpt><trkpt lat="42.14428478372496" lon="12.81793059069767"><ele>429.25</ele><time>2026-03-22T08:51:22Z</time></trkpt><trkpt lat="42.14440883912046" lon="12.817790651250327"><ele>429.5</ele><time>2026-03-22T08:51:23Z</time></trkpt><trkpt lat="42.1445211994897" lon="12.817662774547165"><ele>429.75</ele><time>2026-03-22T08:51:24Z</time></trkpt><trkpt lat="42.14461820283777" lon="12.81753696741688"><ele>430.0</ele><time>2026-03-22T08:51:25Z</time></trkpt><trkpt lat="42.14472447568586" lon="12.817435621770183"><ele>430.0</ele><time>2026-03-22T08:51:26Z</time></trkpt><trkpt lat="42.14482397783491" lon="12.817355983030343"><ele>430.0</ele><time>2026-03-22T08:51:27Z</time></trkpt><trkpt lat="42.14491031147217" lon="12.81728956815609"><ele>430.0</ele><time>2026-03-22T08:51:28Z</time></trkpt><trkpt lat="42.14499258770147" lon="12.817232247269255"><ele>430.0</ele><time>2026-03-22T08:51:29Z</time></trkpt><trkpt lat="42.145062264519325" lon="12.817193337336189"><ele>430.0</ele><time>2026-03-22T08:51:30Z</time></trkpt><trkpt lat="42.145129818407604" lon="12.817206746793243"><ele>427.5</ele><time>2026-03-22T08:51:31Z</time></trkpt><trkpt lat="42.1452084232176" lon="12.817189884140443"><ele>425.0</ele><time>2026-03-22T08:51:32Z</time></trkpt><trkpt lat="42.14530830017252" lon="12.817156803466215"><ele>422.5</ele><time>2026-03-22T08:51:33Z</time></trkpt><trkpt lat="42.14543382829434" lon="12.81713719161714"><ele>420.0</ele><time>2026-03-22T08:51:34Z</time></trkpt><trkpt lat="42.145574622463975" lon="12.817089977162613"><ele>417.25</ele><time>2026-03-22T08:51:35Z</time></trkpt><trkpt lat="42.145729470319125" lon="12.817041439782805"><ele>414.5</ele><time>2026-03-22T08:51:36Z</time></trkpt><trkpt lat="42.14587360507601" lon="12.81700066598483"><ele>411.75</ele><time>2026-03-22T08:51:37Z</time></trkpt><trkpt lat="42.146009456699844" lon="12.816955145603977"><ele>409.0</ele><time>2026-03-22T08:51:38Z</time></trkpt><trkpt lat="42.14614391768962" lon="12.816883475271757"><ele>410.25</ele><time>2026-03-22T08:51:39Z</time></trkpt><trkpt lat="42.146281894671944" lon="12.816787484724617"><ele>411.5</ele><time>2026-03-22T08:51:40Z</time></trkpt><trkpt lat="42.146413783964334" lon="12.81669849432965"><ele>412.75</ele><time>2026-03-22T08:51:41Z</time></trkpt><trkpt lat="42.1465402431416" lon="12.8166140703634"><ele>414.0</ele><time>2026-03-22T08:51:42Z</time></trkpt><trkpt lat="42.146660814999684" lon="12.816521665378934"><ele>414.0</ele><time>2026-03-22T08:51:43Z</time></trkpt><trkpt lat="42.14678234384016" lon="12.81641902713046"><ele>414.0</ele><time>2026-03-22T08:51:44Z</time></trkpt><trkpt lat="42.14689338315524" lon="12.816308108454272"><ele>414.0</ele><time>2026-03-22T08:51:45Z</time></trkpt><trkpt lat="42.14698900948013" lon="12.816171724308319"><ele>414.0</ele><time>2026-03-22T08:51:46Z</time></trkpt><trkpt lat="42.147070151464504" lon="12.81603838893967"><ele>413.75</ele><time>2026-03-22T08:51:47Z</time></trkpt><trkpt lat="42.14715831241178" lon="12.81590525082732"><ele>413.5</ele><time>2026-03-22T08:51:48Z</time></trkpt><trkpt lat="42.147264843760006" lon="12.815796486459616"><ele>413.25</ele><time>2026-03-22T08:51:49Z</time></trkpt><trkpt lat="42.14736044799603" lon="12.815681454097346"><ele>413.0</ele><time>2026-03-22T08:51:50Z</time></trkpt><trkpt lat="42.147456657814416" lon="12.815590190179412"><ele>414.0</ele><time>2026-03-22T08:51:51Z</time></trkpt><trkpt lat="42.14755454069481" lon="12.815527235952928"><ele>415.0</ele><time>2026-03-22T08:51:52Z</time></trkpt><trkpt lat="42.14766650841845" lon="12.815468584744943"><ele>416.0</ele><time>2026-03-22T08:51:53Z</time></trkpt><trkpt lat="42.147775110344654" lon="12.815415227321292"><ele>417.0</ele><time>2026-03-22T08:51:54Z</time></trkpt><trkpt lat="42.14788502343336" lon="12.81537250731412"><ele>417.0</ele><time>2026-03-22T08:51:55Z</time></trkpt><trkpt lat="42.14798992314022" lon="12.815306266795599"><ele>417.0</ele><time>2026-03-22T08:51:56Z</time></trkpt><trkpt lat="42.14809152788139" lon="12.81525958528511"><ele>417.0</ele><time>2026-03-22T08:51:57Z</time></trkpt><trkpt lat="42.14819669439259" lon="12.815221121728227"><ele>417.0</ele><time>2026-03-22T08:51:58Z</time></trkpt><trkpt lat="42.14830807500616" lon="12.81515473327603"><ele>416.5</ele><time>2026-03-22T08:51:59Z</time></trkpt><trkpt lat="42.148434164244" lon="12.815087366056908"><ele>416.0</ele><time>2026-03-22T08:52:00Z</time></trkpt><trkpt lat="42.14855414830442" lon="12.81500777595691"><ele>415.5</ele><time>2026-03-22T08:52:01Z</time></trkpt><trkpt lat="42.148664715327165" lon="12.814932476149627"><ele>415.0</ele><time>2026-03-22T08:52:02Z</time></trkpt><trkpt lat="42.14876240654101" lon="12.814863325865582"><ele>415.0</ele><time>2026-03-22T08:52:03Z</time></trkpt><trkpt lat="42.148858839922816" lon="12.814791849884902"><ele>415.0</ele><time>2026-03-22T08:52:04Z</time></trkpt><trkpt lat="42.148952837355004" lon="12.814719257304123"><ele>415.0</ele><time>2026-03-22T08:52:04.999Z</time></trkpt><trkpt lat="42.14904301493136" lon="12.814630288949546"><ele>415.0</ele><time>2026-03-22T08:52:05.999Z</time></trkpt><trkpt lat="42.14914153516727" lon="12.814548983799517"><ele>415.0</ele><time>2026-03-22T08:52:06.999Z</time></trkpt><trkpt lat="42.1492498089645" lon="12.814451099063454"><ele>412.5</ele><time>2026-03-22T08:52:07.999Z</time></trkpt><trkpt lat="42.149364948235565" lon="12.814324003678603"><ele>410.0</ele><time>2026-03-22T08:52:08.999Z</time></trkpt><trkpt lat="42.14947201481856" lon="12.814222965911172"><ele>407.5</ele><time>2026-03-22T08:52:09.999Z</time></trkpt><trkpt lat="42.14956702401473" lon="12.814097483175138"><ele>405.0</ele><time>2026-03-22T08:52:10.999Z</time></trkpt><trkpt lat="42.149675533490246" lon="12.814001456196957"><ele>405.0</ele><time>2026-03-22T08:52:11.999Z</time></trkpt><trkpt lat="42.14981146019541" lon="12.81392623852004"><ele>405.0</ele><time>2026-03-22T08:52:12.999Z</time></trkpt><trkpt lat="42.149955154221026" lon="12.81386046598772"><ele>405.0</ele><time>2026-03-22T08:52:13.999Z</time></trkpt><trkpt lat="42.15010134790658" lon="12.813795807132244"><ele>402.0</ele><time>2026-03-22T08:52:14.999Z</time></trkpt><trkpt lat="42.15022868919717" lon="12.81374166482812"><ele>399.0</ele><time>2026-03-22T08:52:15.999Z</time></trkpt><trkpt lat="42.1503584497994" lon="12.813692257429352"><ele>396.0</ele><time>2026-03-22T08:52:16.999Z</time></trkpt><trkpt lat="42.15047805679086" lon="12.813610055465196"><ele>393.0</ele><time>2026-03-22T08:52:17.999Z</time></trkpt><trkpt lat="42.15060662947216" lon="12.813516187764197"><ele>391.75</ele><time>2026-03-22T08:52:18.999Z</time></trkpt><trkpt lat="42.15073409351199" lon="12.813474387365096"><ele>390.5</ele><time>2026-03-22T08:52:19.999Z</time></trkpt><trkpt lat="42.15084770567878" lon="12.81340432855358"><ele>389.25</ele><time>2026-03-22T08:52:20.999Z</time></trkpt><trkpt lat="42.15093037684702" lon="12.813292168408633"><ele>388.0</ele><time>2026-03-22T08:52:21.999Z</time></trkpt><trkpt lat="42.15102611519585" lon="12.813174439643227"><ele>388.0</ele><time>2026-03-22T08:52:22.999Z</time></trkpt><trkpt lat="42.15112982460641" lon="12.813031015798341"><ele>388.0</ele><time>2026-03-22T08:52:23.999Z</time></trkpt><trkpt lat="42.151244622192166" lon="12.81289339501508"><ele>388.0</ele><time>2026-03-22T08:52:24.999Z</time></trkpt><trkpt lat="42.151356394698944" lon="12.812748394958366"><ele>386.6666666666667</ele><time>2026-03-22T08:52:25.999Z</time></trkpt><trkpt lat="42.151462267192684" lon="12.812603272473863"><ele>385.33333333333337</ele><time>2026-03-22T08:52:26.999Z</time></trkpt><trkpt lat="42.1515616721639" lon="12.81245270373984"><ele>384.0</ele><time>2026-03-22T08:52:27.999Z</time></trkpt><trkpt lat="42.15164313981661" lon="12.812281555891273"><ele>384.0</ele><time>2026-03-22T08:52:28.999Z</time></trkpt><trkpt lat="42.15171497819934" lon="12.812098140626743"><ele>384.0</ele><time>2026-03-22T08:52:29.999Z</time></trkpt><trkpt lat="42.15178712670853" lon="12.811914150127873"><ele>384.0</ele><time>2026-03-22T08:52:30.999Z</time></trkpt><trkpt lat="42.15186417019156" lon="12.81174742057543"><ele>383.25</ele><time>2026-03-22T08:52:31.999Z</time></trkpt><trkpt lat="42.15194037340977" lon="12.811586252168867"><ele>382.5</ele><time>2026-03-22T08:52:32.999Z</time></trkpt><trkpt lat="42.152036608687204" lon="12.8114401692097"><ele>381.75</ele><time>2026-03-22T08:52:33.999Z</time></trkpt><trkpt lat="42.152123452045856" lon="12.811284498669162"><ele>381.0</ele><time>2026-03-22T08:52:34.999Z</time></trkpt><trkpt lat="42.15220988264352" lon="12.811133377529128"><ele>381.0</ele><time>2026-03-22T08:52:35.999Z</time></trkpt><trkpt lat="42.15229220221191" lon="12.811005889445031"><ele>381.0</ele><time>2026-03-22T08:52:36.999Z</time></trkpt><trkpt lat="42.152376006144394" lon="12.81089669038725"><ele>381.0</ele><time>2026-03-22T08:52:37.999Z</time></trkpt><trkpt lat="42.152464878514806" lon="12.810776186246818"><ele>381.0</ele><time>2026-03-22T08:52:38.999Z</time></trkpt><trkpt lat="42.15256631688018" lon="12.810696203217194"><ele>381.0</ele><time>2026-03-22T08:52:39.999Z</time></trkpt><trkpt lat="42.15266558385274" lon="12.810611738060103"><ele>381.0</ele><time>2026-03-22T08:52:40.999Z</time></trkpt><trkpt lat="42.15278336088902" lon="12.810514761259332"><ele>381.0</ele><time>2026-03-22T08:52:41.999Z</time></trkpt><trkpt lat="42.152917810394726" lon="12.810447237167539"><ele>381.0</ele><time>2026-03-22T08:52:43Z</time></trkpt><trkpt lat="42.153037847801826" lon="12.810350070524372"><ele>381.0</ele><time>2026-03-22T08:52:44Z</time></trkpt><trkpt lat="42.15314366611854" lon="12.810251368162996"><ele>381.0</ele><time>2026-03-22T08:52:45Z</time></trkpt><trkpt lat="42.153243121378836" lon="12.810160920640488"><ele>381.0</ele><time>2026-03-22T08:52:46Z</time></trkpt><trkpt lat="42.153334686613526" lon="12.81006464601029"><ele>381.0</ele><time>2026-03-22T08:52:47Z</time></trkpt><trkpt lat="42.1534240147507" lon="12.809982580403775"><ele>380.20000000000005</ele><time>2026-03-22T08:52:48Z</time></trkpt><trkpt lat="42.15351272345956" lon="12.80990877723691"><ele>379.40000000000003</ele><time>2026-03-22T08:52:49Z</time></trkpt><trkpt lat="42.15359968050842" lon="12.809836039713232"><ele>378.6</ele><time>2026-03-22T08:52:50Z</time></trkpt><trkpt lat="42.15368602069629" lon="12.809769324366702"><ele>377.8</ele><time>2026-03-22T08:52:51Z</time></trkpt><trkpt lat="42.1537690731873" lon="12.809704148798092"><ele>377.0</ele><time>2026-03-22T08:52:52Z</time></trkpt><trkpt lat="42.153840448375405" lon="12.809648401815402"><ele>377.0</ele><time>2026-03-22T08:52:53Z</time></trkpt><trkpt lat="42.15389876783676" lon="12.809602279757202"><ele>377.0</ele><time>2026-03-22T08:52:54Z</time></trkpt><trkpt lat="42.15397292934946" lon="12.809521354826165"><ele>377.0</ele><time>2026-03-22T08:52:56Z</time></trkpt><trkpt lat="42.15388661016307" lon="12.80933919143741"><ele>377.0</ele><time>2026-03-22T08:52:59Z</time></trkpt><trkpt lat="42.1538334189973" lon="12.80928793300163"><ele>377.0</ele><time>2026-03-22T08:53:00Z</time></trkpt><trkpt lat="42.153776827275934" lon="12.809211619985449"><ele>375.0</ele><time>2026-03-22T08:53:01Z</time></trkpt><trkpt lat="42.153709254285715" lon="12.809131115503007"><ele>373.0</ele><time>2026-03-22T08:53:02Z</time></trkpt><trkpt lat="42.15365297313128" lon="12.809040177338618"><ele>371.0</ele><time>2026-03-22T08:53:03Z</time></trkpt><trkpt lat="42.15362723283297" lon="12.808953188731358"><ele>369.0</ele><time>2026-03-22T08:53:04Z</time></trkpt><trkpt lat="42.15367088101924" lon="12.808786285636089"><ele>367.0</ele><time>2026-03-22T08:53:06Z</time></trkpt><trkpt lat="42.15372516629298" lon="12.808678137473825"><ele>367.0</ele><time>2026-03-22T08:53:07Z</time></trkpt><trkpt lat="42.15379892232281" lon="12.808565418450812"><ele>367.0</ele><time>2026-03-22T08:53:08Z</time></trkpt><trkpt lat="42.153877024821995" lon="12.808422209694166"><ele>367.0</ele><time>2026-03-22T08:53:09Z</time></trkpt><trkpt lat="42.15395694728415" lon="12.808275279222501"><ele>367.0</ele><time>2026-03-22T08:53:10Z</time></trkpt><trkpt lat="42.154049196252025" lon="12.808113031767808"><ele>366.0</ele><time>2026-03-22T08:53:11Z</time></trkpt><trkpt lat="42.15416569831438" lon="12.807952961104528"><ele>365.0</ele><time>2026-03-22T08:53:12Z</time></trkpt><trkpt lat="42.15427526204757" lon="12.807779130341574"><ele>364.0</ele><time>2026-03-22T08:53:13Z</time></trkpt><trkpt lat="42.154380578459175" lon="12.807610042413906"><ele>363.0</ele><time>2026-03-22T08:53:14Z</time></trkpt><trkpt lat="42.154481986444985" lon="12.807445396910685"><ele>362.0</ele><time>2026-03-22T08:53:15Z</time></trkpt><trkpt lat="42.15456550984528" lon="12.807289970646458"><ele>361.0</ele><time>2026-03-22T08:53:16Z</time></trkpt><trkpt lat="42.154641362799836" lon="12.807223656268153"><ele>360.0</ele><time>2026-03-22T08:53:17Z</time></trkpt><trkpt lat="42.15470744280105" lon="12.807195690024969"><ele>360.0</ele><time>2026-03-22T08:53:19Z</time></trkpt><trkpt lat="42.15483543249979" lon="12.807277568984535"><ele>360.0</ele><time>2026-03-22T08:53:21Z</time></trkpt><trkpt lat="42.15492457795442" lon="12.807318664531342"><ele>360.0</ele><time>2026-03-22T08:53:22Z</time></trkpt><trkpt lat="42.155029500947194" lon="12.80733394527841"><ele>360.0</ele><time>2026-03-22T08:53:23Z</time></trkpt><trkpt lat="42.15513049074377" lon="12.807367575360066"><ele>360.0</ele><time>2026-03-22T08:53:24Z</time></trkpt><trkpt lat="42.15523848607208" lon="12.807368848784565"><ele>359.5</ele><time>2026-03-22T08:53:25Z</time></trkpt><trkpt lat="42.15535831225959" lon="12.807376807987746"><ele>359.0</ele><time>2026-03-22T08:53:26Z</time></trkpt><trkpt lat="42.155473482786476" lon="12.80738404800242"><ele>358.5</ele><time>2026-03-22T08:53:27Z</time></trkpt><trkpt lat="42.15560098210861" lon="12.807368324528602"><ele>358.0</ele><time>2026-03-22T08:53:28Z</time></trkpt><trkpt lat="42.15574833576944" lon="12.807367587157083"><ele>358.0</ele><time>2026-03-22T08:53:29Z</time></trkpt><trkpt lat="42.15588761867427" lon="12.807365916846878"><ele>358.0</ele><time>2026-03-22T08:53:30Z</time></trkpt><trkpt lat="42.15604298950693" lon="12.807364053600212"><ele>358.0</ele><time>2026-03-22T08:53:31Z</time></trkpt><trkpt lat="42.15618237205226" lon="12.807362382087742"><ele>358.0</ele><time>2026-03-22T08:53:32Z</time></trkpt><trkpt lat="42.15632786601216" lon="12.807428103776388"><ele>358.0</ele><time>2026-03-22T08:53:33Z</time></trkpt><trkpt lat="42.15645442769919" lon="12.807449547469748"><ele>358.0</ele><time>2026-03-22T08:53:34Z</time></trkpt><trkpt lat="42.1565760794871" lon="12.807455998356254"><ele>358.0</ele><time>2026-03-22T08:53:35Z</time></trkpt><trkpt lat="42.156678557430915" lon="12.807476068281662"><ele>358.0</ele><time>2026-03-22T08:53:36Z</time></trkpt><trkpt lat="42.15676768288303" lon="12.807495782573335"><ele>358.0</ele><time>2026-03-22T08:53:37Z</time></trkpt><trkpt lat="42.15684195973686" lon="12.807479905584714"><ele>355.79999999999995</ele><time>2026-03-22T08:53:38Z</time></trkpt><trkpt lat="42.15691741416847" lon="12.807421707639234"><ele>353.6</ele><time>2026-03-22T08:53:39Z</time></trkpt><trkpt lat="42.156967651423415" lon="12.807338511105351"><ele>351.4</ele><time>2026-03-22T08:53:40Z</time></trkpt><trkpt lat="42.15697016122557" lon="12.807216738008584"><ele>349.20000000000005</ele><time>2026-03-22T08:53:41Z</time></trkpt><trkpt lat="42.156955155565306" lon="12.807119296079915"><ele>347.0</ele><time>2026-03-22T08:53:42Z</time></trkpt><trkpt lat="42.156897039302" lon="12.806978757048197"><ele>347.0</ele><time>2026-03-22T08:53:43Z</time></trkpt><trkpt lat="42.15686330724088" lon="12.806855542826861"><ele>347.0</ele><time>2026-03-22T08:53:44Z</time></trkpt><trkpt lat="42.15681835060588" lon="12.806759074671728"><ele>347.0</ele><time>2026-03-22T08:53:45Z</time></trkpt><trkpt lat="42.156787137566184" lon="12.806674347813562"><ele>347.0</ele><time>2026-03-22T08:53:46Z</time></trkpt><trkpt lat="42.15676432249469" lon="12.806595092937577"><ele>347.0</ele><time>2026-03-22T08:53:47Z</time></trkpt><trkpt lat="42.15672348926868" lon="12.806444849011006"><ele>347.0</ele><time>2026-03-22T08:53:49Z</time></trkpt><trkpt lat="42.1566776612377" lon="12.806306173852546"><ele>346.42857142857144</ele><time>2026-03-22T08:53:51Z</time></trkpt><trkpt lat="42.15663137697672" lon="12.806226756674551"><ele>345.85714285714283</ele><time>2026-03-22T08:53:53Z</time></trkpt><trkpt lat="42.15666784877338" lon="12.806156214549949"><ele>345.2857142857143</ele><time>2026-03-22T08:54:01Z</time></trkpt><trkpt lat="42.15673638103654" lon="12.806084592732786"><ele>344.7142857142857</ele><time>2026-03-22T08:54:03.999Z</time></trkpt><trkpt lat="42.15681009277138" lon="12.806020378596406"><ele>344.1428571428571</ele><time>2026-03-22T08:54:05.999Z</time></trkpt><trkpt lat="42.15686859042409" lon="12.805982294229743"><ele>343.57142857142856</ele><time>2026-03-22T08:54:06.999Z</time></trkpt><trkpt lat="42.15692580994606" lon="12.80593301449775"><ele>343.0</ele><time>2026-03-22T08:54:07.999Z</time></trkpt><trkpt lat="42.15699748585736" lon="12.805927555310051"><ele>342.8333333333333</ele><time>2026-03-22T08:54:08.999Z</time></trkpt><trkpt lat="42.1570659134174" lon="12.80577006677922"><ele>342.66666666666663</ele><time>2026-03-22T08:54:10.999Z</time></trkpt><trkpt lat="42.15708101138176" lon="12.805660267143468"><ele>342.5</ele><time>2026-03-22T08:54:11.999Z</time></trkpt><trkpt lat="42.15711474335659" lon="12.805551552850865"><ele>342.3333333333333</ele><time>2026-03-22T08:54:12.999Z</time></trkpt><trkpt lat="42.15715002395294" lon="12.805462996486803"><ele>342.1666666666667</ele><time>2026-03-22T08:54:13.999Z</time></trkpt><trkpt lat="42.157205109065266" lon="12.805409695275962"><ele>342.0</ele><time>2026-03-22T08:54:14.999Z</time></trkpt><trkpt lat="42.157261112481045" lon="12.805342606281704"><ele>342.0</ele><time>2026-03-22T08:54:15.999Z</time></trkpt><trkpt lat="42.15732755898982" lon="12.805272266709807"><ele>342.0</ele><time>2026-03-22T08:54:16.999Z</time></trkpt><trkpt lat="42.15741242974039" lon="12.805183777595223"><ele>342.0</ele><time>2026-03-22T08:54:17.999Z</time></trkpt><trkpt lat="42.15751012049245" lon="12.805082326201276"><ele>342.0</ele><time>2026-03-22T08:54:18.999Z</time></trkpt><trkpt lat="42.157583263954955" lon="12.804981274794839"><ele>342.0</ele><time>2026-03-22T08:54:19.999Z</time></trkpt><trkpt lat="42.15764976713912" lon="12.80489072150522"><ele>339.8</ele><time>2026-03-22T08:54:20.999Z</time></trkpt><trkpt lat="42.15772613251454" lon="12.80480451893818"><ele>337.6</ele><time>2026-03-22T08:54:21.999Z</time></trkpt><trkpt lat="42.15781758926589" lon="12.804723695798717"><ele>335.40000000000003</ele><time>2026-03-22T08:54:22.999Z</time></trkpt><trkpt lat="42.157917827871174" lon="12.804640430566508"><ele>333.20000000000005</ele><time>2026-03-22T08:54:23.999Z</time></trkpt><trkpt lat="42.15799309161273" lon="12.80457791068041"><ele>331.0</ele><time>2026-03-22T08:54:24.999Z</time></trkpt><trkpt lat="42.158090935159755" lon="12.804496633732663"><ele>331.0</ele><time>2026-03-22T08:54:25.999Z</time></trkpt><trkpt lat="42.1581793286476" lon="12.80442189528635"><ele>331.0</ele><time>2026-03-22T08:54:26.999Z</time></trkpt><trkpt lat="42.15825094323314" lon="12.804360140126525"><ele>331.0</ele><time>2026-03-22T08:54:27.999Z</time></trkpt><trkpt lat="42.1583318803272" lon="12.804278626283537"><ele>331.0</ele><time>2026-03-22T08:54:28.999Z</time></trkpt><trkpt lat="42.158388897054856" lon="12.804219705839852"><ele>331.0</ele><time>2026-03-22T08:54:29.999Z</time></trkpt><trkpt lat="42.15842430233827" lon="12.804148859632093"><ele>331.0</ele><time>2026-03-22T08:54:30.999Z</time></trkpt><trkpt lat="42.158453659687076" lon="12.80406376710062"><ele>327.8</ele><time>2026-03-22T08:54:31.999Z</time></trkpt><trkpt lat="42.15849678451199" lon="12.803947464466034"><ele>324.6</ele><time>2026-03-22T08:54:32.999Z</time></trkpt><trkpt lat="42.15852867043315" lon="12.803792488633505"><ele>321.4</ele><time>2026-03-22T08:54:33.999Z</time></trkpt><trkpt lat="42.15856127016414" lon="12.80364483271352"><ele>318.2</ele><time>2026-03-22T08:54:34.999Z</time></trkpt><trkpt lat="42.158597641675115" lon="12.803504154512222"><ele>315.0</ele><time>2026-03-22T08:54:35.999Z</time></trkpt><trkpt lat="42.15864592691665" lon="12.803368316389248"><ele>314.5</ele><time>2026-03-22T08:54:36.999Z</time></trkpt><trkpt lat="42.15868899321415" lon="12.803232200755632"><ele>314.0</ele><time>2026-03-22T08:54:37.999Z</time></trkpt><trkpt lat="42.15874008120602" lon="12.80309683677362"><ele>313.5</ele><time>2026-03-22T08:54:38.999Z</time></trkpt><trkpt lat="42.15880063288823" lon="12.802963741935788"><ele>313.0</ele><time>2026-03-22T08:54:39.999Z</time></trkpt><trkpt lat="42.15887424633683" lon="12.802821521036543"><ele>313.0</ele><time>2026-03-22T08:54:40.999Z</time></trkpt><trkpt lat="42.15894829698369" lon="12.802674395831838"><ele>313.0</ele><time>2026-03-22T08:54:41.999Z</time></trkpt><trkpt lat="42.15901377026086" lon="12.802535390930034"><ele>313.0</ele><time>2026-03-22T08:54:42.999Z</time></trkpt><trkpt lat="42.15908516128673" lon="12.802398705759888"><ele>313.0</ele><time>2026-03-22T08:54:43.999Z</time></trkpt><trkpt lat="42.15917031737906" lon="12.802267697124986"><ele>310.8</ele><time>2026-03-22T08:54:44.999Z</time></trkpt><trkpt lat="42.15925334426152" lon="12.802163445639867"><ele>308.6</ele><time>2026-03-22T08:54:45.999Z</time></trkpt><trkpt lat="42.159322630249584" lon="12.802066507919042"><ele>306.4</ele><time>2026-03-22T08:54:46.999Z</time></trkpt><trkpt lat="42.15938903286373" lon="12.801958578368144"><ele>304.2</ele><time>2026-03-22T08:54:47.999Z</time></trkpt><trkpt lat="42.15944035728278" lon="12.801818112881183"><ele>302.0</ele><time>2026-03-22T08:54:49Z</time></trkpt><trkpt lat="42.159497622285905" lon="12.80168760605613"><ele>301.83333333333337</ele><time>2026-03-22T08:54:50Z</time></trkpt><trkpt lat="42.15955509513993" lon="12.801568210053473"><ele>301.6666666666667</ele><time>2026-03-22T08:54:51Z</time></trkpt><trkpt lat="42.15958230509717" lon="12.801462269936843"><ele>301.5</ele><time>2026-03-22T08:54:52Z</time></trkpt><trkpt lat="42.159586052357675" lon="12.801325883897801"><ele>301.3333333333333</ele><time>2026-03-22T08:54:54Z</time></trkpt><trkpt lat="42.159546933698664" lon="12.801249177968195"><ele>301.16666666666663</ele><time>2026-03-22T08:54:55Z</time></trkpt><trkpt lat="42.159497680460674" lon="12.801151318070142"><ele>301.0</ele><time>2026-03-22T08:54:56Z</time></trkpt><trkpt lat="42.15947129513155" lon="12.801071020068672"><ele>300.5</ele><time>2026-03-22T08:54:57Z</time></trkpt><trkpt lat="42.159436507290295" lon="12.800974161621403"><ele>300.0</ele><time>2026-03-22T08:54:58Z</time></trkpt><trkpt lat="42.15941079405089" lon="12.800876491100873"><ele>299.5</ele><time>2026-03-22T08:54:59Z</time></trkpt><trkpt lat="42.159442543575665" lon="12.800737814511638"><ele>299.0</ele><time>2026-03-22T08:55:01Z</time></trkpt><trkpt lat="42.15951199738497" lon="12.800641739273635"><ele>298.5</ele><time>2026-03-22T08:55:03Z</time></trkpt><trkpt lat="42.15957383195466" lon="12.800622087776286"><ele>298.0</ele><time>2026-03-22T08:55:05Z</time></trkpt><trkpt lat="42.159641318404184" lon="12.800598246575928"><ele>298.0</ele><time>2026-03-22T08:55:08Z</time></trkpt><trkpt lat="42.15970766296353" lon="12.800559488255406"><ele>298.0</ele><time>2026-03-22T08:55:11Z</time></trkpt><trkpt lat="42.159768497382494" lon="12.80052473902142"><ele>298.0</ele><time>2026-03-22T08:55:13Z</time></trkpt><trkpt lat="42.159870622645876" lon="12.800459959314011"><ele>298.0</ele><time>2026-03-22T08:55:15Z</time></trkpt><trkpt lat="42.15993996115399" lon="12.800400594717606"><ele>298.0</ele><time>2026-03-22T08:55:16Z</time></trkpt><trkpt lat="42.16002835456782" lon="12.80031788724534"><ele>298.0</ele><time>2026-03-22T08:55:17Z</time></trkpt><trkpt lat="42.16012686366761" lon="12.800216290411438"><ele>298.0</ele><time>2026-03-22T08:55:18Z</time></trkpt><trkpt lat="42.16022075601047" lon="12.80009351159468"><ele>298.0</ele><time>2026-03-22T08:55:19Z</time></trkpt><trkpt lat="42.16029867065528" lon="12.799967861174308"><ele>298.0</ele><time>2026-03-22T08:55:20Z</time></trkpt><trkpt lat="42.16037645277264" lon="12.799870462112748"><ele>298.0</ele><time>2026-03-22T08:55:21Z</time></trkpt><trkpt lat="42.16046002553847" lon="12.799769590829706"><ele>298.0</ele><time>2026-03-22T08:55:22Z</time></trkpt><trkpt lat="42.16057398196887" lon="12.799689046477711"><ele>298.0</ele><time>2026-03-22T08:55:23Z</time></trkpt><trkpt lat="42.16070504380647" lon="12.79957429650667"><ele>298.0</ele><time>2026-03-22T08:55:24Z</time></trkpt><trkpt lat="42.16081553285145" lon="12.799465489364591"><ele>298.0</ele><time>2026-03-22T08:55:25Z</time></trkpt><trkpt lat="42.16092014276166" lon="12.799353707370507"><ele>295.75</ele><time>2026-03-22T08:55:26Z</time></trkpt><trkpt lat="42.1610211680357" lon="12.79923923055915"><ele>293.5</ele><time>2026-03-22T08:55:27Z</time></trkpt><trkpt lat="42.16111045942125" lon="12.79912988703344"><ele>291.25</ele><time>2026-03-22T08:55:28Z</time></trkpt><trkpt lat="42.16118439196548" lon="12.799005097336641"><ele>289.0</ele><time>2026-03-22T08:55:29Z</time></trkpt><trkpt lat="42.16127185357464" lon="12.798904823620825"><ele>289.0</ele><time>2026-03-22T08:55:30Z</time></trkpt><trkpt lat="42.161349705212864" lon="12.79879090022635"><ele>289.0</ele><time>2026-03-22T08:55:31Z</time></trkpt><trkpt lat="42.16142055856459" lon="12.79866661318414"><ele>289.0</ele><time>2026-03-22T08:55:32Z</time></trkpt><trkpt lat="42.16147430829071" lon="12.798533362756187"><ele>289.0</ele><time>2026-03-22T08:55:33Z</time></trkpt><trkpt lat="42.161524321932816" lon="12.798419228500695"><ele>289.0</ele><time>2026-03-22T08:55:34Z</time></trkpt><trkpt lat="42.161571167851974" lon="12.798312470878171"><ele>286.8333333333333</ele><time>2026-03-22T08:55:35Z</time></trkpt><trkpt lat="42.16162342710216" lon="12.79821861515303"><ele>284.66666666666663</ele><time>2026-03-22T08:55:36Z</time></trkpt><trkpt lat="42.161678045901446" lon="12.79813102733262"><ele>282.5</ele><time>2026-03-22T08:55:37Z</time></trkpt><trkpt lat="42.16173327359368" lon="12.798046310417998"><ele>280.3333333333333</ele><time>2026-03-22T08:55:38Z</time></trkpt><trkpt lat="42.161802759498876" lon="12.797956441421427"><ele>278.1666666666667</ele><time>2026-03-22T08:55:39Z</time></trkpt><trkpt lat="42.16186712157238" lon="12.797866446415213"><ele>276.0</ele><time>2026-03-22T08:55:40Z</time></trkpt><trkpt lat="42.16191419750936" lon="12.797721047165822"><ele>275.8</ele><time>2026-03-22T08:55:41Z</time></trkpt><trkpt lat="42.161974295411014" lon="12.797592348133659"><ele>275.6</ele><time>2026-03-22T08:55:42Z</time></trkpt><trkpt lat="42.16202724773305" lon="12.797465485246752"><ele>275.4</ele><time>2026-03-22T08:55:43Z</time></trkpt><trkpt lat="42.16207473990939" lon="12.797342481936175"><ele>275.2</ele><time>2026-03-22T08:55:44Z</time></trkpt><trkpt lat="42.16211951672597" lon="12.797230574377496"><ele>275.0</ele><time>2026-03-22T08:55:45Z</time></trkpt><trkpt lat="42.162178245417245" lon="12.79711651942064"><ele>275.0</ele><time>2026-03-22T08:55:46Z</time></trkpt><trkpt lat="42.16227040744461" lon="12.797056920163007"><ele>275.0</ele><time>2026-03-22T08:55:47Z</time></trkpt><trkpt lat="42.1623757397585" lon="12.797031331383561"><ele>275.0</ele><time>2026-03-22T08:55:48Z</time></trkpt><trkpt lat="42.16245399395611" lon="12.797029204912716"><ele>275.0</ele><time>2026-03-22T08:55:49Z</time></trkpt><trkpt lat="42.16252209344668" lon="12.797152987677029"><ele>275.0</ele><time>2026-03-22T08:55:51Z</time></trkpt><trkpt lat="42.16257205210565" lon="12.79723174116512"><ele>274.0</ele><time>2026-03-22T08:55:52Z</time></trkpt><trkpt lat="42.16261889478702" lon="12.797338773988953"><ele>273.0</ele><time>2026-03-22T08:55:53Z</time></trkpt><trkpt lat="42.16267534768805" lon="12.797474764652387"><ele>272.0</ele><time>2026-03-22T08:55:54Z</time></trkpt><trkpt lat="42.16274024409317" lon="12.79759843691752"><ele>271.0</ele><time>2026-03-22T08:55:55Z</time></trkpt><trkpt lat="42.16280265031118" lon="12.797705999172768"><ele>270.0</ele><time>2026-03-22T08:55:56Z</time></trkpt><trkpt lat="42.16285424236586" lon="12.797814946482037"><ele>270.0</ele><time>2026-03-22T08:55:57Z</time></trkpt><trkpt lat="42.16290352843888" lon="12.797940958385423"><ele>270.0</ele><time>2026-03-22T08:55:58Z</time></trkpt><trkpt lat="42.16295195728583" lon="12.798079818358694"><ele>270.0</ele><time>2026-03-22T08:55:59Z</time></trkpt><trkpt lat="42.16299843123409" lon="12.798207537204117"><ele>270.0</ele><time>2026-03-22T08:56:00Z</time></trkpt><trkpt lat="42.163046008402866" lon="12.798334506621718"><ele>270.0</ele><time>2026-03-22T08:56:01Z</time></trkpt><trkpt lat="42.16308966745003" lon="12.798454288785168"><ele>268.8</ele><time>2026-03-22T08:56:02Z</time></trkpt><trkpt lat="42.16313112190029" lon="12.798571926664279"><ele>267.6</ele><time>2026-03-22T08:56:03Z</time></trkpt><trkpt lat="42.163175242563064" lon="12.79869715962177"><ele>266.4</ele><time>2026-03-22T08:56:04Z</time></trkpt><trkpt lat="42.1632240207304" lon="12.798832321448714"><ele>265.2</ele><time>2026-03-22T08:56:05Z</time></trkpt><trkpt lat="42.16327107330562" lon="12.7989579248593"><ele>264.0</ele><time>2026-03-22T08:56:06Z</time></trkpt><trkpt lat="42.16331519952917" lon="12.799075128921123"><ele>264.0</ele><time>2026-03-22T08:56:07Z</time></trkpt><trkpt lat="42.16335523077349" lon="12.799189392224864"><ele>264.0</ele><time>2026-03-22T08:56:07.999Z</time></trkpt><trkpt lat="42.16339303687581" lon="12.799292119478618"><ele>264.0</ele><time>2026-03-22T08:56:08.999Z</time></trkpt><trkpt lat="42.16341558573531" lon="12.799403589549083"><ele>264.0</ele><time>2026-03-22T08:56:09.999Z</time></trkpt><trkpt lat="42.16346281254023" lon="12.799492963288369"><ele>264.0</ele><time>2026-03-22T08:56:10.999Z</time></trkpt><trkpt lat="42.16354233977856" lon="12.799585109695155"><ele>264.59999999999997</ele><time>2026-03-22T08:56:11.999Z</time></trkpt><trkpt lat="42.16362617508228" lon="12.799678288751082"><ele>265.2</ele><time>2026-03-22T08:56:12.999Z</time></trkpt><trkpt lat="42.16370105288645" lon="12.79977566458541"><ele>265.79999999999995</ele><time>2026-03-22T08:56:13.999Z</time></trkpt><trkpt lat="42.16373385906032" lon="12.799892368373806"><ele>266.4</ele><time>2026-03-22T08:56:14.999Z</time></trkpt><trkpt lat="42.16376253116204" lon="12.799998803318429"><ele>267.0</ele><time>2026-03-22T08:56:15.999Z</time></trkpt><trkpt lat="42.16379379076119" lon="12.800078938954577"><ele>267.0</ele><time>2026-03-22T08:56:16.999Z</time></trkpt><trkpt lat="42.16383233754048" lon="12.800157682037762"><ele>267.0</ele><time>2026-03-22T08:56:18.999Z</time></trkpt><trkpt lat="42.16390097429162" lon="12.800213487403344"><ele>267.0</ele><time>2026-03-22T08:56:20.999Z</time></trkpt><trkpt lat="42.164026394744816" lon="12.800188428433263"><ele>267.0</ele><time>2026-03-22T08:56:22.999Z</time></trkpt><trkpt lat="42.16411733574751" lon="12.800187591159213"><ele>267.0</ele><time>2026-03-22T08:56:23.999Z</time></trkpt><trkpt lat="42.16420124650953" lon="12.800175656987816"><ele>265.6</ele><time>2026-03-22T08:56:24.999Z</time></trkpt><trkpt lat="42.1643122592779" lon="12.800195260725328"><ele>264.2</ele><time>2026-03-22T08:56:26.999Z</time></trkpt><trkpt lat="42.164418658975244" lon="12.800243002204517"><ele>262.8</ele><time>2026-03-22T08:56:28.999Z</time></trkpt><trkpt lat="42.164454196817815" lon="12.800326723626606"><ele>261.4</ele><time>2026-03-22T08:56:29.999Z</time></trkpt><trkpt lat="42.164456022639726" lon="12.800425520419505"><ele>260.0</ele><time>2026-03-22T08:56:30.999Z</time></trkpt><trkpt lat="42.16447139170226" lon="12.800540902234221"><ele>260.0</ele><time>2026-03-22T08:56:31.999Z</time></trkpt><trkpt lat="42.164484814066725" lon="12.800651406941792"><ele>260.0</ele><time>2026-03-22T08:56:32.999Z</time></trkpt><trkpt lat="42.16443967207508" lon="12.800733304623803"><ele>260.0</ele><time>2026-03-22T08:56:34.999Z</time></trkpt><trkpt lat="42.16450773142541" lon="12.800724425109204"><ele>260.0</ele><time>2026-03-22T08:56:53.999Z</time></trkpt><trkpt lat="42.1645554369723" lon="12.800619416490683"><ele>260.0</ele><time>2026-03-22T08:56:57Z</time></trkpt><trkpt lat="42.16459684996442" lon="12.80054498429456"><ele>260.0</ele><time>2026-03-22T08:57:00Z</time></trkpt><trkpt lat="42.16465040215228" lon="12.80049565827146"><ele>260.0</ele><time>2026-03-22T08:57:03Z</time></trkpt><trkpt lat="42.164713162082286" lon="12.800465251965633"><ele>260.0</ele><time>2026-03-22T08:57:08Z</time></trkpt><trkpt lat="42.16464564081649" lon="12.800458597017595"><ele>260.0</ele><time>2026-03-22T08:57:14Z</time></trkpt><trkpt lat="42.164565036941426" lon="12.80054966277636"><ele>260.0</ele><time>2026-03-22T08:57:16Z</time></trkpt><trkpt lat="42.16452435553231" lon="12.800622027201712"><ele>260.0</ele><time>2026-03-22T08:57:17Z</time></trkpt><trkpt lat="42.164483978508464" lon="12.800708029287115"><ele>260.0</ele><time>2026-03-22T08:57:18Z</time></trkpt><trkpt lat="42.16441254952926" lon="12.80081078204882"><ele>260.0</ele><time>2026-03-22T08:57:19Z</time></trkpt><trkpt lat="42.164365062105404" lon="12.800968276488188"><ele>260.0</ele><time>2026-03-22T08:57:20Z</time></trkpt><trkpt lat="42.16431406046496" lon="12.80113419305843"><ele>260.0</ele><time>2026-03-22T08:57:21Z</time></trkpt><trkpt lat="42.16425850293028" lon="12.801277605618955"><ele>260.0</ele><time>2026-03-22T08:57:22Z</time></trkpt><trkpt lat="42.16420253601165" lon="12.801400104167552"><ele>260.0</ele><time>2026-03-22T08:57:23Z</time></trkpt><trkpt lat="42.16415663831499" lon="12.801500916346507"><ele>260.0</ele><time>2026-03-22T08:57:24Z</time></trkpt><trkpt lat="42.1641202599162" lon="12.801581988401367"><ele>260.0</ele><time>2026-03-22T08:57:25Z</time></trkpt><trkpt lat="42.164057150309496" lon="12.801727743521608"><ele>260.0</ele><time>2026-03-22T08:57:27Z</time></trkpt><trkpt lat="42.16403194996034" lon="12.801843360856047"><ele>260.0</ele><time>2026-03-22T08:57:28Z</time></trkpt><trkpt lat="42.16402036843248" lon="12.802000464204545"><ele>261.0</ele><time>2026-03-22T08:57:29Z</time></trkpt><trkpt lat="42.16401100496008" lon="12.802165723642442"><ele>262.0</ele><time>2026-03-22T08:57:30Z</time></trkpt><trkpt lat="42.16401004448637" lon="12.802307066980383"><ele>263.0</ele><time>2026-03-22T08:57:31Z</time></trkpt><trkpt lat="42.164002450502295" lon="12.80241626263398"><ele>264.0</ele><time>2026-03-22T08:57:32Z</time></trkpt><trkpt lat="42.163972803755904" lon="12.802530312308503"><ele>265.0</ele><time>2026-03-22T08:57:33Z</time></trkpt><trkpt lat="42.163944384177306" lon="12.802649956595515"><ele>266.2</ele><time>2026-03-22T08:57:34Z</time></trkpt><trkpt lat="42.163914677882985" lon="12.802761257618554"><ele>267.4</ele><time>2026-03-22T08:57:35Z</time></trkpt><trkpt lat="42.16399561230075" lon="12.80293735698157"><ele>268.6</ele><time>2026-03-22T08:57:37Z</time></trkpt><trkpt lat="42.164021305023226" lon="12.803033559279513"><ele>269.8</ele><time>2026-03-22T08:57:38Z</time></trkpt><trkpt lat="42.16405620767" lon="12.803137716503924"><ele>271.0</ele><time>2026-03-22T08:57:39Z</time></trkpt><trkpt lat="42.16407451521357" lon="12.803260045990688"><ele>271.0</ele><time>2026-03-22T08:57:40Z</time></trkpt><trkpt lat="42.1641248504374" lon="12.803374528862514"><ele>271.0</ele><time>2026-03-22T08:57:41Z</time></trkpt><trkpt lat="42.16416958090982" lon="12.803508423979265"><ele>271.0</ele><time>2026-03-22T08:57:42Z</time></trkpt><trkpt lat="42.164214033528374" lon="12.803625995329545"><ele>271.0</ele><time>2026-03-22T08:57:43Z</time></trkpt><trkpt lat="42.16427021953428" lon="12.803761321042954"><ele>271.0</ele><time>2026-03-22T08:57:44Z</time></trkpt><trkpt lat="42.16432373842034" lon="12.803899435756094"><ele>272.6</ele><time>2026-03-22T08:57:45Z</time></trkpt><trkpt lat="42.164353069616325" lon="12.804046551467131"><ele>274.20000000000005</ele><time>2026-03-22T08:57:46Z</time></trkpt><trkpt lat="42.164393899957986" lon="12.804158365036477"><ele>275.79999999999995</ele><time>2026-03-22T08:57:47Z</time></trkpt><trkpt lat="42.164454662012695" lon="12.804261495165772"><ele>277.4</ele><time>2026-03-22T08:57:48Z</time></trkpt><trkpt lat="42.164507214622766" lon="12.804385222156602"><ele>279.0</ele><time>2026-03-22T08:57:49Z</time></trkpt><trkpt lat="42.16456692486825" lon="12.804485492028258"><ele>279.8</ele><time>2026-03-22T08:57:50Z</time></trkpt><trkpt lat="42.16461158053097" lon="12.804584528882588"><ele>280.59999999999997</ele><time>2026-03-22T08:57:51Z</time></trkpt><trkpt lat="42.16470232231469" lon="12.804642033675679"><ele>281.4</ele><time>2026-03-22T08:57:52Z</time></trkpt><trkpt lat="42.164774839035964" lon="12.804656387512175"><ele>282.2</ele><time>2026-03-22T08:57:53Z</time></trkpt><trkpt lat="42.16486171246792" lon="12.804685174444833"><ele>283.0</ele><time>2026-03-22T08:57:54Z</time></trkpt><trkpt lat="42.164962869909935" lon="12.804729195799194"><ele>280.16666666666663</ele><time>2026-03-22T08:57:55Z</time></trkpt><trkpt lat="42.165031556491975" lon="12.804765521960158"><ele>277.3333333333333</ele><time>2026-03-22T08:57:56Z</time></trkpt><trkpt lat="42.16509366235672" lon="12.804799589460446"><ele>274.5</ele><time>2026-03-22T08:57:57Z</time></trkpt><trkpt lat="42.16520324083978" lon="12.804862576439216"><ele>271.6666666666667</ele><time>2026-03-22T08:57:59Z</time></trkpt><trkpt lat="42.1652877463925" lon="12.80491260354617"><ele>268.83333333333337</ele><time>2026-03-22T08:58:01Z</time></trkpt><trkpt lat="42.1653541046012" lon="12.80495208121259"><ele>266.0</ele><time>2026-03-22T08:58:02Z</time></trkpt><trkpt lat="42.16543289811579" lon="12.805013648369997"><ele>266.0</ele><time>2026-03-22T08:58:03Z</time></trkpt><trkpt lat="42.1655346231806" lon="12.80505234841934"><ele>266.0</ele><time>2026-03-22T08:58:04Z</time></trkpt><trkpt lat="42.165623123387434" lon="12.805092541369136"><ele>266.0</ele><time>2026-03-22T08:58:05Z</time></trkpt><trkpt lat="42.165719723292966" lon="12.805141772086662"><ele>266.0</ele><time>2026-03-22T08:58:05.999Z</time></trkpt><trkpt lat="42.16581459772496" lon="12.805201610477482"><ele>266.0</ele><time>2026-03-22T08:58:06.999Z</time></trkpt><trkpt lat="42.16589535528992" lon="12.805258691111787"><ele>265.5</ele><time>2026-03-22T08:58:07.999Z</time></trkpt><trkpt lat="42.16595684343776" lon="12.805306709760229"><ele>265.0</ele><time>2026-03-22T08:58:08.999Z</time></trkpt><trkpt lat="42.16601144951296" lon="12.805373420383034"><ele>264.5</ele><time>2026-03-22T08:58:09.999Z</time></trkpt><trkpt lat="42.166063730986856" lon="12.80554806356776"><ele>264.0</ele><time>2026-03-22T08:58:11.999Z</time></trkpt><trkpt lat="42.16608372400782" lon="12.805647345604905"><ele>263.5</ele><time>2026-03-22T08:58:12.999Z</time></trkpt><trkpt lat="42.166081233239815" lon="12.805737586333073"><ele>263.0</ele><time>2026-03-22T08:58:13.999Z</time></trkpt><trkpt lat="42.16607892704179" lon="12.805823186162451"><ele>263.0</ele><time>2026-03-22T08:58:14.999Z</time></trkpt><trkpt lat="42.166113427251695" lon="12.80596053552406"><ele>263.0</ele><time>2026-03-22T08:58:16.999Z</time></trkpt><trkpt lat="42.166144313628784" lon="12.806109632989303"><ele>263.0</ele><time>2026-03-22T08:58:18.999Z</time></trkpt><trkpt lat="42.16616618136021" lon="12.806255936431628"><ele>263.0</ele><time>2026-03-22T08:58:20.999Z</time></trkpt><trkpt lat="42.16618797854452" lon="12.806353530427899"><ele>263.0</ele><time>2026-03-22T08:58:21.999Z</time></trkpt><trkpt lat="42.16621045536179" lon="12.806456850300268"><ele>263.6</ele><time>2026-03-22T08:58:22.999Z</time></trkpt><trkpt lat="42.16624520039954" lon="12.80657753827718"><ele>264.20000000000005</ele><time>2026-03-22T08:58:23.999Z</time></trkpt><trkpt lat="42.166297965597096" lon="12.806699209123426"><ele>264.8</ele><time>2026-03-22T08:58:24.999Z</time></trkpt><trkpt lat="42.16637510826993" lon="12.806809052344756"><ele>265.40000000000003</ele><time>2026-03-22T08:58:25.999Z</time></trkpt><trkpt lat="42.16644491524494" lon="12.806923247214037"><ele>266.0</ele><time>2026-03-22T08:58:26.999Z</time></trkpt><trkpt lat="42.166541085203384" lon="12.806967523451576"><ele>266.0</ele><time>2026-03-22T08:58:27.999Z</time></trkpt><trkpt lat="42.16661805401994" lon="12.807046167757097"><ele>266.0</ele><time>2026-03-22T08:58:28.999Z</time></trkpt><trkpt lat="42.166677020890624" lon="12.807129061728363"><ele>266.0</ele><time>2026-03-22T08:58:29.999Z</time></trkpt><trkpt lat="42.166731268337124" lon="12.807231334017096"><ele>266.0</ele><time>2026-03-22T08:58:30.999Z</time></trkpt><trkpt lat="42.166764997227645" lon="12.807355197145275"><ele>266.0</ele><time>2026-03-22T08:58:31.999Z</time></trkpt><trkpt lat="42.16680773689022" lon="12.807480174770582"><ele>266.0</ele><time>2026-03-22T08:58:32.999Z</time></trkpt><trkpt lat="42.16685633312194" lon="12.807614289427276"><ele>266.0</ele><time>2026-03-22T08:58:33.999Z</time></trkpt><trkpt lat="42.16690301010458" lon="12.807743107299299"><ele>266.0</ele><time>2026-03-22T08:58:34.999Z</time></trkpt><trkpt lat="42.166948477376934" lon="12.807871525198308"><ele>266.0</ele><time>2026-03-22T08:58:35.999Z</time></trkpt><trkpt lat="42.16698850949617" lon="12.807993888425356"><ele>266.0</ele><time>2026-03-22T08:58:36.999Z</time></trkpt><trkpt lat="42.167019811881175" lon="12.80811709736106"><ele>266.6</ele><time>2026-03-22T08:58:37.999Z</time></trkpt><trkpt lat="42.167036983168586" lon="12.808236112031484"><ele>267.20000000000005</ele><time>2026-03-22T08:58:38.999Z</time></trkpt><trkpt lat="42.167034345481895" lon="12.808357907688766"><ele>267.79999999999995</ele><time>2026-03-22T08:58:39.999Z</time></trkpt><trkpt lat="42.16702807553187" lon="12.808489017675472"><ele>268.4</ele><time>2026-03-22T08:58:40.999Z</time></trkpt><trkpt lat="42.167025445483084" lon="12.80863569550274"><ele>269.0</ele><time>2026-03-22T08:58:41.999Z</time></trkpt><trkpt lat="42.16703187308205" lon="12.808778521080404"><ele>270.4</ele><time>2026-03-22T08:58:42.999Z</time></trkpt><trkpt lat="42.167064882316005" lon="12.80891841832171"><ele>271.79999999999995</ele><time>2026-03-22T08:58:43.999Z</time></trkpt><trkpt lat="42.16711208551398" lon="12.80905209550208"><ele>273.20000000000005</ele><time>2026-03-22T08:58:44.999Z</time></trkpt><trkpt lat="42.16716850890187" lon="12.809179498384644"><ele>274.6</ele><time>2026-03-22T08:58:45.999Z</time></trkpt><trkpt lat="42.16722585144371" lon="12.80930202357559"><ele>276.0</ele><time>2026-03-22T08:58:46.999Z</time></trkpt><trkpt lat="42.16727628029479" lon="12.80943924733917"><ele>275.6</ele><time>2026-03-22T08:58:47.999Z</time></trkpt><trkpt lat="42.16731010348104" lon="12.809569613278569"><ele>275.20000000000005</ele><time>2026-03-22T08:58:48.999Z</time></trkpt><trkpt lat="42.16733609894349" lon="12.809701601904472"><ele>274.79999999999995</ele><time>2026-03-22T08:58:49.999Z</time></trkpt><trkpt lat="42.16735789452278" lon="12.809833103163545"><ele>274.4</ele><time>2026-03-22T08:58:50.999Z</time></trkpt><trkpt lat="42.16739013203708" lon="12.809978400538974"><ele>274.0</ele><time>2026-03-22T08:58:51.999Z</time></trkpt><trkpt lat="42.16741286535411" lon="12.810118127773746"><ele>274.59999999999997</ele><time>2026-03-22T08:58:52.999Z</time></trkpt><trkpt lat="42.16745197013418" lon="12.81025945640251"><ele>275.2</ele><time>2026-03-22T08:58:53.999Z</time></trkpt><trkpt lat="42.16750372070417" lon="12.810400213866394"><ele>275.79999999999995</ele><time>2026-03-22T08:58:54.999Z</time></trkpt><trkpt lat="42.16754536621261" lon="12.8105253464226"><ele>276.4</ele><time>2026-03-22T08:58:55.999Z</time></trkpt><trkpt lat="42.16758640472417" lon="12.810637748196394"><ele>277.0</ele><time>2026-03-22T08:58:56.999Z</time></trkpt><trkpt lat="42.16761017864971" lon="12.810737342191779"><ele>277.0</ele><time>2026-03-22T08:58:57.999Z</time></trkpt><trkpt lat="42.16761445728861" lon="12.81083675053081"><ele>277.0</ele><time>2026-03-22T08:58:58.999Z</time></trkpt><trkpt lat="42.16763670330267" lon="12.81094021619329"><ele>277.0</ele><time>2026-03-22T08:59:01Z</time></trkpt><trkpt lat="42.167741246656504" lon="12.810956712453754"><ele>277.0</ele><time>2026-03-22T08:59:02Z</time></trkpt><trkpt lat="42.16780411466824" lon="12.810989888841195"><ele>277.0</ele><time>2026-03-22T08:59:03Z</time></trkpt><trkpt lat="42.167871385628786" lon="12.811010850186166"><ele>277.0</ele><time>2026-03-22T08:59:04Z</time></trkpt><trkpt lat="42.167955682714194" lon="12.811038503891877"><ele>276.66666666666663</ele><time>2026-03-22T08:59:05Z</time></trkpt><trkpt lat="42.168043914125505" lon="12.8110680983683"><ele>276.3333333333333</ele><time>2026-03-22T08:59:06Z</time></trkpt><trkpt lat="42.16811517903721" lon="12.81109396109956"><ele>276.0</ele><time>2026-03-22T08:59:07Z</time></trkpt><trkpt lat="42.16818667930031" lon="12.811064512444801"><ele>275.6666666666667</ele><time>2026-03-22T08:59:08Z</time></trkpt><trkpt lat="42.168281779026145" lon="12.811027950045524"><ele>275.33333333333337</ele><time>2026-03-22T08:59:09Z</time></trkpt><trkpt lat="42.16837721590758" lon="12.810977337988298"><ele>275.0</ele><time>2026-03-22T08:59:10Z</time></trkpt><trkpt lat="42.16847082519272" lon="12.810903563222833"><ele>274.83333333333337</ele><time>2026-03-22T08:59:11Z</time></trkpt><trkpt lat="42.16855452708782" lon="12.81082755055546"><ele>274.6666666666667</ele><time>2026-03-22T08:59:12Z</time></trkpt><trkpt lat="42.168626607179654" lon="12.8107655068025"><ele>274.5</ele><time>2026-03-22T08:59:13Z</time></trkpt><trkpt lat="42.16869235403345" lon="12.810730443567925"><ele>274.3333333333333</ele><time>2026-03-22T08:59:14Z</time></trkpt><trkpt lat="42.16873990426683" lon="12.810673432154664"><ele>274.16666666666663</ele><time>2026-03-22T08:59:15Z</time></trkpt><trkpt lat="42.16881417515257" lon="12.810674465644995"><ele>274.0</ele><time>2026-03-22T08:59:20Z</time></trkpt><trkpt lat="42.168911195488164" lon="12.810719175617733"><ele>274.00000000000006</ele><time>2026-03-22T08:59:23Z</time></trkpt><trkpt lat="42.16898480529437" lon="12.810789087327997"><ele>274.0</ele><time>2026-03-22T08:59:25Z</time></trkpt><trkpt lat="42.169029904314996" lon="12.810848643560536"><ele>274.0</ele><time>2026-03-22T08:59:26Z</time></trkpt><trkpt lat="42.16906952437665" lon="12.810921767798847"><ele>274.0</ele><time>2026-03-22T08:59:27Z</time></trkpt><trkpt lat="42.169147466953426" lon="12.810923789557924"><ele>274.0</ele><time>2026-03-22T08:59:28Z</time></trkpt><trkpt lat="42.169201722658656" lon="12.810979079878171"><ele>274.00000000000006</ele><time>2026-03-22T08:59:29Z</time></trkpt><trkpt lat="42.16927280624877" lon="12.811027728039347"><ele>274.0</ele><time>2026-03-22T08:59:30Z</time></trkpt><trkpt lat="42.169349010824426" lon="12.81109620633231"><ele>275.8</ele><time>2026-03-22T08:59:31Z</time></trkpt><trkpt lat="42.1694244433862" lon="12.811133046921524"><ele>277.59999999999997</ele><time>2026-03-22T08:59:32Z</time></trkpt><trkpt lat="42.169530968758664" lon="12.811169897927622"><ele>279.4</ele><time>2026-03-22T08:59:33Z</time></trkpt><trkpt lat="42.169639743548366" lon="12.811237584952606"><ele>281.2</ele><time>2026-03-22T08:59:34Z</time></trkpt><trkpt lat="42.16972784463595" lon="12.81130293416759"><ele>283.0</ele><time>2026-03-22T08:59:35Z</time></trkpt><trkpt lat="42.16987087342406" lon="12.81140096826819"><ele>284.2</ele><time>2026-03-22T08:59:36Z</time></trkpt><trkpt lat="42.16996282326663" lon="12.811469754194002"><ele>285.4</ele><time>2026-03-22T08:59:37Z</time></trkpt><trkpt lat="42.17006459275925" lon="12.81153056660818"><ele>286.59999999999997</ele><time>2026-03-22T08:59:38Z</time></trkpt><trkpt lat="42.170157044516785" lon="12.811623391034678"><ele>287.8</ele><time>2026-03-22T08:59:39Z</time></trkpt><trkpt lat="42.17025434375398" lon="12.811693379546096"><ele>289.0</ele><time>2026-03-22T08:59:40Z</time></trkpt><trkpt lat="42.170357610404984" lon="12.811760039594576"><ele>289.0</ele><time>2026-03-22T08:59:41Z</time></trkpt><trkpt lat="42.17047117822269" lon="12.811793533139065"><ele>289.0</ele><time>2026-03-22T08:59:42Z</time></trkpt><trkpt lat="42.1705979751659" lon="12.81175969199711"><ele>289.0</ele><time>2026-03-22T08:59:43Z</time></trkpt><trkpt lat="42.170715662773816" lon="12.811752652525419"><ele>289.0</ele><time>2026-03-22T08:59:44Z</time></trkpt><trkpt lat="42.170819195384944" lon="12.811727489754544"><ele>291.3333333333333</ele><time>2026-03-22T08:59:45Z</time></trkpt><trkpt lat="42.171032061972625" lon="12.811751680304662"><ele>293.6666666666667</ele><time>2026-03-22T08:59:47Z</time></trkpt><trkpt lat="42.17115425307975" lon="12.811729749010688"><ele>296.0</ele><time>2026-03-22T08:59:48Z</time></trkpt><trkpt lat="42.17127644195934" lon="12.811709435328845"><ele>296.0</ele><time>2026-03-22T08:59:49Z</time></trkpt><trkpt lat="42.171380878860425" lon="12.811671897530351"><ele>296.0</ele><time>2026-03-22T08:59:50Z</time></trkpt><trkpt lat="42.17151703951147" lon="12.811664376547755"><ele>296.0</ele><time>2026-03-22T08:59:51Z</time></trkpt><trkpt lat="42.1716189357491" lon="12.811684094593607"><ele>296.0</ele><time>2026-03-22T08:59:52Z</time></trkpt><trkpt lat="42.17171166738726" lon="12.81172684179662"><ele>296.0</ele><time>2026-03-22T08:59:53Z</time></trkpt><trkpt lat="42.17181700262998" lon="12.811731012522465"><ele>295.83333333333337</ele><time>2026-03-22T08:59:54Z</time></trkpt><trkpt lat="42.171921378569564" lon="12.811698836367391"><ele>295.6666666666667</ele><time>2026-03-22T08:59:55Z</time></trkpt><trkpt lat="42.17199339588853" lon="12.811733380075376"><ele>295.5</ele><time>2026-03-22T08:59:56Z</time></trkpt><trkpt lat="42.17205824734354" lon="12.8117267935437"><ele>295.3333333333333</ele><time>2026-03-22T08:59:57Z</time></trkpt><trkpt lat="42.17212281720559" lon="12.811840050095"><ele>295.16666666666663</ele><time>2026-03-22T08:59:59Z</time></trkpt><trkpt lat="42.17219213123955" lon="12.811901980431717"><ele>295.0</ele><time>2026-03-22T09:00:00Z</time></trkpt><trkpt lat="42.17225471169118" lon="12.811957894550035"><ele>296.16666666666663</ele><time>2026-03-22T09:00:01Z</time></trkpt><trkpt lat="42.172330009034596" lon="12.811999392333266"><ele>297.3333333333333</ele><time>2026-03-22T09:00:02Z</time></trkpt><trkpt lat="42.17241019711709" lon="12.812025455534288"><ele>298.5</ele><time>2026-03-22T09:00:03Z</time></trkpt><trkpt lat="42.17247345273984" lon="12.811950007094058"><ele>299.6666666666667</ele><time>2026-03-22T09:00:04Z</time></trkpt><trkpt lat="42.17255640773143" lon="12.811927314958249"><ele>300.83333333333337</ele><time>2026-03-22T09:00:05Z</time></trkpt><trkpt lat="42.17263455128013" lon="12.811917925696191"><ele>302.0</ele><time>2026-03-22T09:00:06Z</time></trkpt><trkpt lat="42.17271290170466" lon="12.811880125621434"><ele>302.0</ele><time>2026-03-22T09:00:07Z</time></trkpt><trkpt lat="42.17278558501239" lon="12.811853475727474"><ele>302.0</ele><time>2026-03-22T09:00:08Z</time></trkpt><trkpt lat="42.172856010287084" lon="12.811843184067719"><ele>302.0</ele><time>2026-03-22T09:00:10Z</time></trkpt><trkpt lat="42.172948209017854" lon="12.812106132854947"><ele>302.0</ele><time>2026-03-22T09:00:13.999Z</time></trkpt><trkpt lat="42.17299180187922" lon="12.812189241164003"><ele>302.0</ele><time>2026-03-22T09:00:14.999Z</time></trkpt><trkpt lat="42.173041701319974" lon="12.812272248762476"><ele>302.0</ele><time>2026-03-22T09:00:16.999Z</time></trkpt><trkpt lat="42.17311266000966" lon="12.812340710852089"><ele>302.0</ele><time>2026-03-22T09:00:19.999Z</time></trkpt><trkpt lat="42.17319925605472" lon="12.81240790559521"><ele>302.0</ele><time>2026-03-22T09:00:21.999Z</time></trkpt><trkpt lat="42.17325524991621" lon="12.812456698499068"><ele>302.0</ele><time>2026-03-22T09:00:22.999Z</time></trkpt><trkpt lat="42.173309496904494" lon="12.8125194209439"><ele>302.0</ele><time>2026-03-22T09:00:23.999Z</time></trkpt><trkpt lat="42.17341965491167" lon="12.812596100669554"><ele>302.0</ele><time>2026-03-22T09:00:25.999Z</time></trkpt><trkpt lat="42.17349378660557" lon="12.812647906339727"><ele>305.0</ele><time>2026-03-22T09:00:27.999Z</time></trkpt><trkpt lat="42.173567863448746" lon="12.812628336118959"><ele>308.0</ele><time>2026-03-22T09:00:29.999Z</time></trkpt><trkpt lat="42.17359533315507" lon="12.81249939857431"><ele>311.0</ele><time>2026-03-22T09:00:32.999Z</time></trkpt><trkpt lat="42.17353563971893" lon="12.812413532543795"><ele>314.0</ele><time>2026-03-22T09:00:33.999Z</time></trkpt><trkpt lat="42.173600292310645" lon="12.812436796509068"><ele>317.0</ele><time>2026-03-22T09:00:38.999Z</time></trkpt><trkpt lat="42.1736531015591" lon="12.812524888811602"><ele>320.0</ele><time>2026-03-22T09:00:39.999Z</time></trkpt><trkpt lat="42.17373294920657" lon="12.812613723239027"><ele>318.6</ele><time>2026-03-22T09:00:40.999Z</time></trkpt><trkpt lat="42.17381179405737" lon="12.812711457540143"><ele>317.2</ele><time>2026-03-22T09:00:41.999Z</time></trkpt><trkpt lat="42.17387679627379" lon="12.812813766857596"><ele>315.8</ele><time>2026-03-22T09:00:42.999Z</time></trkpt><trkpt lat="42.17388578070553" lon="12.812953434250604"><ele>314.4</ele><time>2026-03-22T09:00:43.999Z</time></trkpt><trkpt lat="42.173943206693416" lon="12.813047437592473"><ele>313.0</ele><time>2026-03-22T09:00:45.999Z</time></trkpt><trkpt lat="42.17398464696232" lon="12.813120350769072"><ele>316.0</ele><time>2026-03-22T09:00:47.999Z</time></trkpt><trkpt lat="42.174042259131255" lon="12.813228212736233"><ele>319.0</ele><time>2026-03-22T09:00:49.999Z</time></trkpt><trkpt lat="42.174079720462665" lon="12.813300828636871"><ele>322.0</ele><time>2026-03-22T09:00:50.999Z</time></trkpt><trkpt lat="42.174119853259086" lon="12.813371733522873"><ele>325.0</ele><time>2026-03-22T09:00:51.999Z</time></trkpt><trkpt lat="42.174203540649465" lon="12.813497080513145"><ele>328.0</ele><time>2026-03-22T09:00:53.999Z</time></trkpt><trkpt lat="42.17425161713167" lon="12.813569091106043"><ele>331.0</ele><time>2026-03-22T09:00:54.999Z</time></trkpt><trkpt lat="42.17430990954498" lon="12.813637862971046"><ele>331.0</ele><time>2026-03-22T09:00:55.999Z</time></trkpt><trkpt lat="42.174368570919995" lon="12.813716540324828"><ele>331.0</ele><time>2026-03-22T09:00:56.999Z</time></trkpt><trkpt lat="42.17443215804456" lon="12.813801824080988"><ele>331.0</ele><time>2026-03-22T09:00:57.999Z</time></trkpt><trkpt lat="42.174493839504656" lon="12.813886533799183"><ele>331.0</ele><time>2026-03-22T09:00:58.999Z</time></trkpt><trkpt lat="42.1745665453512" lon="12.81398688473515"><ele>331.0</ele><time>2026-03-22T09:01:00.999Z</time></trkpt><trkpt lat="42.17461161031222" lon="12.814049084910579"><ele>331.0</ele><time>2026-03-22T09:01:02.999Z</time></trkpt><trkpt lat="42.17469599375647" lon="12.814165549557826"><ele>331.0</ele><time>2026-03-22T09:01:09Z</time></trkpt><trkpt lat="42.17475398705608" lon="12.814230499827676"><ele>331.0</ele><time>2026-03-22T09:01:10Z</time></trkpt><trkpt lat="42.17482773351494" lon="12.81429572949339"><ele>331.0</ele><time>2026-03-22T09:01:11Z</time></trkpt><trkpt lat="42.17490896112519" lon="12.814337679822986"><ele>331.0</ele><time>2026-03-22T09:01:12Z</time></trkpt><trkpt lat="42.17492934233516" lon="12.814419452028673"><ele>331.0</ele><time>2026-03-22T09:01:13Z</time></trkpt><trkpt lat="42.17484115839559" lon="12.814547750561252"><ele>331.0</ele><time>2026-03-22T09:01:14Z</time></trkpt><trkpt lat="42.17491790691542" lon="12.814699989772182"><ele>332.0</ele><time>2026-03-22T09:01:16Z</time></trkpt><trkpt lat="42.174961579415005" lon="12.814773970180138"><ele>333.0</ele><time>2026-03-22T09:01:17Z</time></trkpt><trkpt lat="42.17502710218331" lon="12.81488737642543"><ele>334.0</ele><time>2026-03-22T09:01:19Z</time></trkpt><trkpt lat="42.17506593020992" lon="12.814957672916986"><ele>335.0</ele><time>2026-03-22T09:01:20Z</time></trkpt><trkpt lat="42.17510892439749" lon="12.815027501245508"><ele>336.0</ele><time>2026-03-22T09:01:21Z</time></trkpt><trkpt lat="42.17515979165553" lon="12.815097541413639"><ele>337.0</ele><time>2026-03-22T09:01:22Z</time></trkpt><trkpt lat="42.1752101650477" lon="12.815159179902889"><ele>337.0</ele><time>2026-03-22T09:01:23Z</time></trkpt><trkpt lat="42.17528748065102" lon="12.815249216599064"><ele>337.0</ele><time>2026-03-22T09:01:25Z</time></trkpt><trkpt lat="42.17533432174785" lon="12.815306330170964"><ele>337.0</ele><time>2026-03-22T09:01:26Z</time></trkpt><trkpt lat="42.175382545539684" lon="12.815365463232583"><ele>337.0</ele><time>2026-03-22T09:01:27Z</time></trkpt><trkpt lat="42.17547598553726" lon="12.815476294313425"><ele>337.0</ele><time>2026-03-22T09:01:29Z</time></trkpt><trkpt lat="42.17553243010178" lon="12.815542686982285"><ele>337.0</ele><time>2026-03-22T09:01:30Z</time></trkpt><trkpt lat="42.175598223437675" lon="12.815624130793369"><ele>337.0</ele><time>2026-03-22T09:01:31Z</time></trkpt><trkpt lat="42.175678056618004" lon="12.815724365846766"><ele>337.0</ele><time>2026-03-22T09:01:32Z</time></trkpt><trkpt lat="42.175769183659476" lon="12.815840690511799"><ele>337.0</ele><time>2026-03-22T09:01:33Z</time></trkpt><trkpt lat="42.175861060931055" lon="12.815982597320936"><ele>337.0</ele><time>2026-03-22T09:01:34Z</time></trkpt><trkpt lat="42.17598991766636" lon="12.816120433760409"><ele>342.3333333333333</ele><time>2026-03-22T09:01:35Z</time></trkpt><trkpt lat="42.17613368193766" lon="12.816232899310473"><ele>347.6666666666667</ele><time>2026-03-22T09:01:36Z</time></trkpt><trkpt lat="42.176280650649716" lon="12.816368699648722"><ele>353.0</ele><time>2026-03-22T09:01:37Z</time></trkpt><trkpt lat="42.17643574717708" lon="12.816509003378158"><ele>354.0</ele><time>2026-03-22T09:01:38Z</time></trkpt><trkpt lat="42.17660427995751" lon="12.816671324093189"><ele>355.0</ele><time>2026-03-22T09:01:39Z</time></trkpt><trkpt lat="42.17677522490105" lon="12.816815936279458"><ele>356.0</ele><time>2026-03-22T09:01:40Z</time></trkpt><trkpt lat="42.17693659305029" lon="12.81690806212496"><ele>356.0</ele><time>2026-03-22T09:01:41Z</time></trkpt><trkpt lat="42.17709901630135" lon="12.81697902121018"><ele>356.0</ele><time>2026-03-22T09:01:42Z</time></trkpt><trkpt lat="42.177260618369836" lon="12.817031564977905"><ele>356.0</ele><time>2026-03-22T09:01:43Z</time></trkpt><trkpt lat="42.177426904132425" lon="12.8170534642161"><ele>359.0</ele><time>2026-03-22T09:01:44Z</time></trkpt><trkpt lat="42.17758500625487" lon="12.81708714018121"><ele>362.0</ele><time>2026-03-22T09:01:45Z</time></trkpt><trkpt lat="42.17773599727118" lon="12.817125166218881"><ele>365.0</ele><time>2026-03-22T09:01:46Z</time></trkpt><trkpt lat="42.1778834670799" lon="12.817165259423113"><ele>365.0</ele><time>2026-03-22T09:01:47Z</time></trkpt><trkpt lat="42.178027945604335" lon="12.817208507855623"><ele>365.0</ele><time>2026-03-22T09:01:48Z</time></trkpt><trkpt lat="42.17816986844242" lon="12.817260326810853"><ele>365.0</ele><time>2026-03-22T09:01:49Z</time></trkpt><trkpt lat="42.17831081791576" lon="12.817305356487832"><ele>365.0</ele><time>2026-03-22T09:01:50Z</time></trkpt><trkpt lat="42.17846482998656" lon="12.817351307162411"><ele>367.6666666666667</ele><time>2026-03-22T09:01:51Z</time></trkpt><trkpt lat="42.17861745527935" lon="12.817402750028968"><ele>370.3333333333333</ele><time>2026-03-22T09:01:52Z</time></trkpt><trkpt lat="42.178768185570085" lon="12.817454469105387"><ele>373.0</ele><time>2026-03-22T09:01:53Z</time></trkpt><trkpt lat="42.178907157355845" lon="12.81750875441883"><ele>374.0</ele><time>2026-03-22T09:01:54Z</time></trkpt><trkpt lat="42.179042422025276" lon="12.817544078030163"><ele>375.0</ele><time>2026-03-22T09:01:55Z</time></trkpt><trkpt lat="42.179171548933624" lon="12.817586987847038"><ele>376.0</ele><time>2026-03-22T09:01:56Z</time></trkpt><trkpt lat="42.179301796682815" lon="12.817632026646304"><ele>377.0</ele><time>2026-03-22T09:01:57Z</time></trkpt><trkpt lat="42.17943736759448" lon="12.817666523522021"><ele>377.0</ele><time>2026-03-22T09:01:58Z</time></trkpt><trkpt lat="42.17957514122914" lon="12.817682834357207"><ele>377.0</ele><time>2026-03-22T09:01:59Z</time></trkpt><trkpt lat="42.17972220472405" lon="12.81769359834249"><ele>377.0</ele><time>2026-03-22T09:02:00Z</time></trkpt><trkpt lat="42.17985359818731" lon="12.8177556227795"><ele>377.0</ele><time>2026-03-22T09:02:01Z</time></trkpt><trkpt lat="42.1799958019324" lon="12.817818831042725"><ele>379.0</ele><time>2026-03-22T09:02:02Z</time></trkpt><trkpt lat="42.18012755694227" lon="12.817892016333317"><ele>381.0</ele><time>2026-03-22T09:02:03Z</time></trkpt><trkpt lat="42.18024516216167" lon="12.817963347341786"><ele>383.0</ele><time>2026-03-22T09:02:04Z</time></trkpt><trkpt lat="42.18034874347328" lon="12.818027857745223"><ele>385.0</ele><time>2026-03-22T09:02:05Z</time></trkpt><trkpt lat="42.18044971603988" lon="12.818098374441213"><ele>385.0</ele><time>2026-03-22T09:02:06Z</time></trkpt><trkpt lat="42.18054166981663" lon="12.818210724995232"><ele>385.0</ele><time>2026-03-22T09:02:07Z</time></trkpt><trkpt lat="42.18065642202766" lon="12.818327975437617"><ele>385.0</ele><time>2026-03-22T09:02:08Z</time></trkpt><trkpt lat="42.18076863390752" lon="12.818439178279206"><ele>385.0</ele><time>2026-03-22T09:02:09Z</time></trkpt><trkpt lat="42.1808826279282" lon="12.818547540217587"><ele>386.25</ele><time>2026-03-22T09:02:10Z</time></trkpt><trkpt lat="42.181004096718205" lon="12.818656374263837"><ele>387.5</ele><time>2026-03-22T09:02:11Z</time></trkpt><trkpt lat="42.181120073145856" lon="12.818759124912305"><ele>388.75</ele><time>2026-03-22T09:02:11.999Z</time></trkpt><trkpt lat="42.18123491949847" lon="12.818841991762778"><ele>390.0</ele><time>2026-03-22T09:02:12.999Z</time></trkpt><trkpt lat="42.18133426534992" lon="12.818928837864373"><ele>390.0</ele><time>2026-03-22T09:02:13.999Z</time></trkpt><trkpt lat="42.18142277832079" lon="12.819032600341092"><ele>390.0</ele><time>2026-03-22T09:02:14.999Z</time></trkpt><trkpt lat="42.18150439108788" lon="12.819113160162072"><ele>390.0</ele><time>2026-03-22T09:02:15.999Z</time></trkpt><trkpt lat="42.18156220207357" lon="12.819184876599941"><ele>390.0</ele><time>2026-03-22T09:02:16.999Z</time></trkpt><trkpt lat="42.18161040622896" lon="12.819250564373869"><ele>390.0</ele><time>2026-03-22T09:02:17.999Z</time></trkpt><trkpt lat="42.18166909376182" lon="12.819333544408613"><ele>389.25</ele><time>2026-03-22T09:02:18.999Z</time></trkpt><trkpt lat="42.18173910572082" lon="12.819434483619286"><ele>388.5</ele><time>2026-03-22T09:02:19.999Z</time></trkpt><trkpt lat="42.181817462386746" lon="12.819552968460297"><ele>387.75</ele><time>2026-03-22T09:02:20.999Z</time></trkpt><trkpt lat="42.18190221670829" lon="12.819679299943113"><ele>387.0</ele><time>2026-03-22T09:02:21.999Z</time></trkpt><trkpt lat="42.18199053160593" lon="12.819803211788477"><ele>387.0</ele><time>2026-03-22T09:02:22.999Z</time></trkpt><trkpt lat="42.18208410208409" lon="12.81993556364623"><ele>387.0</ele><time>2026-03-22T09:02:23.999Z</time></trkpt><trkpt lat="42.18217593694326" lon="12.820068736268398"><ele>387.0</ele><time>2026-03-22T09:02:24.999Z</time></trkpt><trkpt lat="42.1822725858702" lon="12.820208890090319"><ele>387.0</ele><time>2026-03-22T09:02:25.999Z</time></trkpt><trkpt lat="42.182368602427154" lon="12.820348569611248"><ele>387.0</ele><time>2026-03-22T09:02:26.999Z</time></trkpt><trkpt lat="42.18246447168851" lon="12.820488119326738"><ele>387.0</ele><time>2026-03-22T09:02:27.999Z</time></trkpt><trkpt lat="42.18256033659111" lon="12.820623616949284"><ele>387.0</ele><time>2026-03-22T09:02:28.999Z</time></trkpt><trkpt lat="42.1826591822678" lon="12.820763306979025"><ele>387.0</ele><time>2026-03-22T09:02:29.999Z</time></trkpt><trkpt lat="42.1827607941321" lon="12.8209078756231"><ele>388.0</ele><time>2026-03-22T09:02:30.999Z</time></trkpt><trkpt lat="42.18286229333344" lon="12.821052849164165"><ele>389.0</ele><time>2026-03-22T09:02:31.999Z</time></trkpt><trkpt lat="42.18296226507451" lon="12.821198526201481"><ele>390.0</ele><time>2026-03-22T09:02:32.999Z</time></trkpt><trkpt lat="42.183052917461346" lon="12.82134624013854"><ele>391.0</ele><time>2026-03-22T09:02:33.999Z</time></trkpt><trkpt lat="42.183123941642734" lon="12.821494069317477"><ele>391.0</ele><time>2026-03-22T09:02:34.999Z</time></trkpt><trkpt lat="42.183175598646955" lon="12.82164318519635"><ele>391.0</ele><time>2026-03-22T09:02:35.999Z</time></trkpt><trkpt lat="42.18321119635455" lon="12.82180252176666"><ele>391.0</ele><time>2026-03-22T09:02:36.999Z</time></trkpt><trkpt lat="42.18325225198354" lon="12.821966591539077"><ele>391.0</ele><time>2026-03-22T09:02:37.999Z</time></trkpt><trkpt lat="42.183293842255495" lon="12.822133840285177"><ele>392.25</ele><time>2026-03-22T09:02:38.999Z</time></trkpt><trkpt lat="42.18333746975671" lon="12.822307160363481"><ele>393.5</ele><time>2026-03-22T09:02:39.999Z</time></trkpt><trkpt lat="42.18338510586958" lon="12.822491064232604"><ele>394.75</ele><time>2026-03-22T09:02:40.999Z</time></trkpt><trkpt lat="42.18342795633338" lon="12.822688088537127"><ele>396.0</ele><time>2026-03-22T09:02:41.999Z</time></trkpt><trkpt lat="42.18347100255115" lon="12.822893024051744"><ele>396.66666666666663</ele><time>2026-03-22T09:02:42.999Z</time></trkpt><trkpt lat="42.183519588438955" lon="12.823108624047414"><ele>397.3333333333333</ele><time>2026-03-22T09:02:43.999Z</time></trkpt><trkpt lat="42.183578287488494" lon="12.82332831427622"><ele>398.0</ele><time>2026-03-22T09:02:44.999Z</time></trkpt><trkpt lat="42.18365018917734" lon="12.823530884583109"><ele>398.0</ele><time>2026-03-22T09:02:45.999Z</time></trkpt><trkpt lat="42.18371555676629" lon="12.823696087923551"><ele>398.0</ele><time>2026-03-22T09:02:46.999Z</time></trkpt><trkpt lat="42.183766711415274" lon="12.82382743742374"><ele>398.0</ele><time>2026-03-22T09:02:47.999Z</time></trkpt><trkpt lat="42.18380354860009" lon="12.823940417939024"><ele>398.0</ele><time>2026-03-22T09:02:49.999Z</time></trkpt><trkpt lat="42.18389641893824" lon="12.823889973603736"><ele>398.0</ele><time>2026-03-22T09:02:51.999Z</time></trkpt><trkpt lat="42.18395584671412" lon="12.823766246751253"><ele>398.0</ele><time>2026-03-22T09:02:53.999Z</time></trkpt><trkpt lat="42.183987237788656" lon="12.823681501239989"><ele>398.0</ele><time>2026-03-22T09:02:54.999Z</time></trkpt><trkpt lat="42.18403117481026" lon="12.82356790740911"><ele>398.0</ele><time>2026-03-22T09:02:55.999Z</time></trkpt><trkpt lat="42.184096511365276" lon="12.823429663384008"><ele>398.0</ele><time>2026-03-22T09:02:56.999Z</time></trkpt><trkpt lat="42.18414584837237" lon="12.823266126139885"><ele>398.0</ele><time>2026-03-22T09:02:57.999Z</time></trkpt><trkpt lat="42.18421373915595" lon="12.823092149769575"><ele>397.0</ele><time>2026-03-22T09:02:58.999Z</time></trkpt><trkpt lat="42.18428678300108" lon="12.822906926837351"><ele>396.0</ele><time>2026-03-22T09:02:59.999Z</time></trkpt><trkpt lat="42.18435847271619" lon="12.822730874240301"><ele>395.0</ele><time>2026-03-22T09:03:00.999Z</time></trkpt><trkpt lat="42.18443051218315" lon="12.822568551534893"><ele>394.0</ele><time>2026-03-22T09:03:01.999Z</time></trkpt><trkpt lat="42.184523374977374" lon="12.822420130518216"><ele>392.0</ele><time>2026-03-22T09:03:02.999Z</time></trkpt><trkpt lat="42.18460972572976" lon="12.822254604896159"><ele>390.0</ele><time>2026-03-22T09:03:03.999Z</time></trkpt><trkpt lat="42.18468865404064" lon="12.822079143888688"><ele>388.0</ele><time>2026-03-22T09:03:04.999Z</time></trkpt><trkpt lat="42.184778723518235" lon="12.82191776219952"><ele>388.0</ele><time>2026-03-22T09:03:05.999Z</time></trkpt><trkpt lat="42.18487411017025" lon="12.821760396373548"><ele>388.0</ele><time>2026-03-22T09:03:06.999Z</time></trkpt><trkpt lat="42.18497045788469" lon="12.821611153035569"><ele>388.0</ele><time>2026-03-22T09:03:07.999Z</time></trkpt><trkpt lat="42.18506770085845" lon="12.82146453568975"><ele>388.0</ele><time>2026-03-22T09:03:08.999Z</time></trkpt><trkpt lat="42.18517900870536" lon="12.821337914998821"><ele>388.0</ele><time>2026-03-22T09:03:09.999Z</time></trkpt><trkpt lat="42.18527219546364" lon="12.82118290523234"><ele>388.0</ele><time>2026-03-22T09:03:10.999Z</time></trkpt><trkpt lat="42.18536423905869" lon="12.821068960885132"><ele>388.0</ele><time>2026-03-22T09:03:11.999Z</time></trkpt><trkpt lat="42.185453216361964" lon="12.820968054923611"><ele>388.0</ele><time>2026-03-22T09:03:13Z</time></trkpt><trkpt lat="42.18554207223462" lon="12.820896267688225"><ele>388.1666666666667</ele><time>2026-03-22T09:03:14Z</time></trkpt><trkpt lat="42.185616018712764" lon="12.82082975939001"><ele>388.33333333333337</ele><time>2026-03-22T09:03:15Z</time></trkpt><trkpt lat="42.18568935947362" lon="12.820768524916545"><ele>388.5</ele><time>2026-03-22T09:03:16Z</time></trkpt><trkpt lat="42.18575654189597" lon="12.82069195527377"><ele>388.66666666666663</ele><time>2026-03-22T09:03:17Z</time></trkpt><trkpt lat="42.18583082485851" lon="12.820632243477528"><ele>388.8333333333333</ele><time>2026-03-22T09:03:18Z</time></trkpt><trkpt lat="42.18591459933351" lon="12.820561346436993"><ele>389.0</ele><time>2026-03-22T09:03:19Z</time></trkpt><trkpt lat="42.18600269110943" lon="12.820474501889707"><ele>389.0</ele><time>2026-03-22T09:03:20Z</time></trkpt><trkpt lat="42.186092089727936" lon="12.82038129914803"><ele>389.0</ele><time>2026-03-22T09:03:21Z</time></trkpt><trkpt lat="42.18618482778639" lon="12.820272339489515"><ele>389.0</ele><time>2026-03-22T09:03:22Z</time></trkpt><trkpt lat="42.1862715480375" lon="12.82014683680065"><ele>389.0</ele><time>2026-03-22T09:03:23Z</time></trkpt><trkpt lat="42.18634590175375" lon="12.819999616937164"><ele>387.25</ele><time>2026-03-22T09:03:24Z</time></trkpt><trkpt lat="42.18641801504933" lon="12.819843711000383"><ele>385.5</ele><time>2026-03-22T09:03:25Z</time></trkpt><trkpt lat="42.186491044256805" lon="12.819682884157142"><ele>383.75</ele><time>2026-03-22T09:03:26Z</time></trkpt><trkpt lat="42.18656241371414" lon="12.819519814846812"><ele>382.0</ele><time>2026-03-22T09:03:27Z</time></trkpt><trkpt lat="42.18662962379798" lon="12.819354770700203"><ele>381.5</ele><time>2026-03-22T09:03:28Z</time></trkpt><trkpt lat="42.186682233880816" lon="12.819204000715573"><ele>381.0</ele><time>2026-03-22T09:03:29Z</time></trkpt><trkpt lat="42.18670177827673" lon="12.819042692955495"><ele>380.5</ele><time>2026-03-22T09:03:30Z</time></trkpt><trkpt lat="42.18673611819667" lon="12.81886467312838"><ele>380.0</ele><time>2026-03-22T09:03:31Z</time></trkpt><trkpt lat="42.18680463008049" lon="12.818707525013371"><ele>380.0</ele><time>2026-03-22T09:03:32Z</time></trkpt><trkpt lat="42.186910249626635" lon="12.818559106559563"><ele>380.0</ele><time>2026-03-22T09:03:33Z</time></trkpt><trkpt lat="42.18702616408745" lon="12.818427699917942"><ele>380.0</ele><time>2026-03-22T09:03:34Z</time></trkpt><trkpt lat="42.18713119856719" lon="12.818295435180412"><ele>380.0</ele><time>2026-03-22T09:03:35Z</time></trkpt><trkpt lat="42.18723185956172" lon="12.818182570544295"><ele>379.75</ele><time>2026-03-22T09:03:36Z</time></trkpt><trkpt lat="42.18733094395657" lon="12.81807968432684"><ele>379.5</ele><time>2026-03-22T09:03:37Z</time></trkpt><trkpt lat="42.187440711593155" lon="12.817976988732175"><ele>379.25</ele><time>2026-03-22T09:03:38Z</time></trkpt><trkpt lat="42.18755676330479" lon="12.817886902219408"><ele>379.0</ele><time>2026-03-22T09:03:39Z</time></trkpt><trkpt lat="42.18768665454907" lon="12.817799733006304"><ele>375.66666666666663</ele><time>2026-03-22T09:03:40Z</time></trkpt><trkpt lat="42.18782751424419" lon="12.817691073855906"><ele>372.3333333333333</ele><time>2026-03-22T09:03:41Z</time></trkpt><trkpt lat="42.18797072560593" lon="12.817568619220728"><ele>369.0</ele><time>2026-03-22T09:03:42Z</time></trkpt><trkpt lat="42.18810794185488" lon="12.817439081123462"><ele>367.0</ele><time>2026-03-22T09:03:43Z</time></trkpt><trkpt lat="42.18822823807185" lon="12.817315999283597"><ele>365.0</ele><time>2026-03-22T09:03:44Z</time></trkpt><trkpt lat="42.188325279137146" lon="12.817196914570232"><ele>363.0</ele><time>2026-03-22T09:03:45Z</time></trkpt><trkpt lat="42.18839238444371" lon="12.817065768170767"><ele>361.0</ele><time>2026-03-22T09:03:46Z</time></trkpt><trkpt lat="42.18845834932502" lon="12.816932989545021"><ele>360.25</ele><time>2026-03-22T09:03:47Z</time></trkpt><trkpt lat="42.18852455047752" lon="12.816801778638707"><ele>359.5</ele><time>2026-03-22T09:03:48Z</time></trkpt><trkpt lat="42.188585765478145" lon="12.816673118359228"><ele>358.75</ele><time>2026-03-22T09:03:49Z</time></trkpt><trkpt lat="42.188656318168086" lon="12.816561043323045"><ele>358.0</ele><time>2026-03-22T09:03:50Z</time></trkpt><trkpt lat="42.18874870285615" lon="12.816468898787262"><ele>358.0</ele><time>2026-03-22T09:03:51Z</time></trkpt><trkpt lat="42.188837480728914" lon="12.816403571529076"><ele>358.0</ele><time>2026-03-22T09:03:52Z</time></trkpt><trkpt lat="42.188921750058725" lon="12.816357901614344"><ele>358.0</ele><time>2026-03-22T09:03:53Z</time></trkpt><trkpt lat="42.188999808239416" lon="12.816350643269796"><ele>358.0</ele><time>2026-03-22T09:03:54Z</time></trkpt><trkpt lat="42.189084432905666" lon="12.816357416536652"><ele>358.0</ele><time>2026-03-22T09:03:55Z</time></trkpt><trkpt lat="42.18915242019934" lon="12.816434953244098"><ele>358.0</ele><time>2026-03-22T09:03:56Z</time></trkpt><trkpt lat="42.189232703676204" lon="12.81645433347063"><ele>357.16666666666663</ele><time>2026-03-22T09:03:57Z</time></trkpt><trkpt lat="42.18930276033678" lon="12.816460805707024"><ele>356.3333333333333</ele><time>2026-03-22T09:03:58Z</time></trkpt><trkpt lat="42.18938764854284" lon="12.81639827435288"><ele>355.5</ele><time>2026-03-22T09:04:00Z</time></trkpt><trkpt lat="42.18945423899213" lon="12.816422230649167"><ele>354.6666666666667</ele><time>2026-03-22T09:04:01Z</time></trkpt><trkpt lat="42.189533819113564" lon="12.816437409570012"><ele>353.83333333333337</ele><time>2026-03-22T09:04:02Z</time></trkpt><trkpt lat="42.18962167507416" lon="12.816437701156064"><ele>353.0</ele><time>2026-03-22T09:04:03Z</time></trkpt><trkpt lat="42.1896968623474" lon="12.816403613644546"><ele>353.0</ele><time>2026-03-22T09:04:04Z</time></trkpt><trkpt lat="42.189806145191106" lon="12.81640292897226"><ele>353.0</ele><time>2026-03-22T09:04:06Z</time></trkpt><trkpt lat="42.189871812999236" lon="12.816390921088527"><ele>353.0</ele><time>2026-03-22T09:04:07Z</time></trkpt><trkpt lat="42.18995481943431" lon="12.816375742746489"><ele>353.0</ele><time>2026-03-22T09:04:08Z</time></trkpt><trkpt lat="42.19004747472783" lon="12.816358800067043"><ele>353.0</ele><time>2026-03-22T09:04:09Z</time></trkpt><trkpt lat="42.190131054677636" lon="12.816343516896103"><ele>353.0</ele><time>2026-03-22T09:04:10Z</time></trkpt><trkpt lat="42.1902269530588" lon="12.816327427914894"><ele>353.4</ele><time>2026-03-22T09:04:11Z</time></trkpt><trkpt lat="42.19032947936574" lon="12.81631025487215"><ele>353.79999999999995</ele><time>2026-03-22T09:04:12Z</time></trkpt><trkpt lat="42.19043786540567" lon="12.816292100277797"><ele>354.2</ele><time>2026-03-22T09:04:13Z</time></trkpt><trkpt lat="42.19055324946079" lon="12.816272773542284"><ele>354.6</ele><time>2026-03-22T09:04:14Z</time></trkpt><trkpt lat="42.1906726753609" lon="12.816252769800373"><ele>355.0</ele><time>2026-03-22T09:04:15Z</time></trkpt><trkpt lat="42.1907932767149" lon="12.816232569163295"><ele>355.5</ele><time>2026-03-22T09:04:16Z</time></trkpt><trkpt lat="42.190911856153136" lon="12.816212707195621"><ele>356.0</ele><time>2026-03-22T09:04:17Z</time></trkpt><trkpt lat="42.19102881950209" lon="12.816193115942896"><ele>356.5</ele><time>2026-03-22T09:04:18Z</time></trkpt><trkpt lat="42.19114474045577" lon="12.816173699275708"><ele>357.0</ele><time>2026-03-22T09:04:19Z</time></trkpt><trkpt lat="42.191264098446496" lon="12.816153706908365"><ele>357.0</ele><time>2026-03-22T09:04:20Z</time></trkpt><trkpt lat="42.19138296697357" lon="12.8161337291421"><ele>357.0</ele><time>2026-03-22T09:04:21Z</time></trkpt><trkpt lat="42.19149479510184" lon="12.81611416635878"><ele>357.0</ele><time>2026-03-22T09:04:22Z</time></trkpt><trkpt lat="42.19160072756271" lon="12.816095634987539"><ele>357.0</ele><time>2026-03-22T09:04:23Z</time></trkpt><trkpt lat="42.19170697970018" lon="12.816077047707639"><ele>357.0</ele><time>2026-03-22T09:04:24Z</time></trkpt><trkpt lat="42.191799082687396" lon="12.816060935524293"><ele>357.25</ele><time>2026-03-22T09:04:25Z</time></trkpt><trkpt lat="42.19187451623716" lon="12.816048174009097"><ele>357.5</ele><time>2026-03-22T09:04:26Z</time></trkpt><trkpt lat="42.191941067275074" lon="12.81603693673258"><ele>357.75</ele><time>2026-03-22T09:04:27Z</time></trkpt><trkpt lat="42.19202144525774" lon="12.816023364748657"><ele>358.0</ele><time>2026-03-22T09:04:28.999Z</time></trkpt><trkpt lat="42.19196959256268" lon="12.8154774018291"><ele>357.5</ele><time>2026-03-22T09:04:29.999Z</time></trkpt><trkpt lat="42.191954463700164" lon="12.815387230055984"><ele>357.0</ele><time>2026-03-22T09:04:30.999Z</time></trkpt><trkpt lat="42.19199666518404" lon="12.815289736431646"><ele>356.5</ele><time>2026-03-22T09:04:31.999Z</time></trkpt><trkpt lat="42.192025738538014" lon="12.815184801167483"><ele>356.0</ele><time>2026-03-22T09:04:32.999Z</time></trkpt><trkpt lat="42.192069141797056" lon="12.815079453496509"><ele>355.5</ele><time>2026-03-22T09:04:33.999Z</time></trkpt><trkpt lat="42.19210691738441" lon="12.814980966040237"><ele>355.0</ele><time>2026-03-22T09:04:34.999Z</time></trkpt><trkpt lat="42.19213193507034" lon="12.814896940958784"><ele>354.8333333333333</ele><time>2026-03-22T09:04:35.999Z</time></trkpt><trkpt lat="42.19217862046562" lon="12.81480579778569"><ele>354.66666666666663</ele><time>2026-03-22T09:04:37.999Z</time></trkpt><trkpt lat="42.19224253884066" lon="12.814774816352404"><ele>354.5</ele><time>2026-03-22T09:14:03Z</time></trkpt><trkpt lat="42.192312401041235" lon="12.814705902677627"><ele>354.3333333333333</ele><time>2026-03-22T09:14:05Z</time></trkpt><trkpt lat="42.19236795448234" lon="12.814621618472229"><ele>354.1666666666667</ele><time>2026-03-22T09:14:06Z</time></trkpt><trkpt lat="42.19243420646598" lon="12.814530816795324"><ele>354.0</ele><time>2026-03-22T09:14:07Z</time></trkpt><trkpt lat="42.19251211215" lon="12.814422826723336"><ele>355.25</ele><time>2026-03-22T09:14:08Z</time></trkpt><trkpt lat="42.192607772653105" lon="12.814314828906888"><ele>356.5</ele><time>2026-03-22T09:14:09Z</time></trkpt><trkpt lat="42.19272580370975" lon="12.814249323916261"><ele>357.75</ele><time>2026-03-22T09:14:10Z</time></trkpt><trkpt lat="42.19283934220132" lon="12.814162767923502"><ele>359.0</ele><time>2026-03-22T09:14:11Z</time></trkpt><trkpt lat="42.19294629953068" lon="12.814064938631992"><ele>359.0</ele><time>2026-03-22T09:14:12Z</time></trkpt><trkpt lat="42.19306707663172" lon="12.813964392170497"><ele>359.0</ele><time>2026-03-22T09:14:13Z</time></trkpt><trkpt lat="42.19316973885442" lon="12.81384864898091"><ele>359.0</ele><time>2026-03-22T09:14:14Z</time></trkpt><trkpt lat="42.193280211347364" lon="12.81373917825864"><ele>359.0</ele><time>2026-03-22T09:14:15Z</time></trkpt><trkpt lat="42.193393566802285" lon="12.813645377320713"><ele>358.75</ele><time>2026-03-22T09:14:16Z</time></trkpt><trkpt lat="42.193501951610195" lon="12.813530449352621"><ele>358.5</ele><time>2026-03-22T09:14:17Z</time></trkpt><trkpt lat="42.19360406913469" lon="12.813414905762706"><ele>358.25</ele><time>2026-03-22T09:14:18Z</time></trkpt><trkpt lat="42.19370655642808" lon="12.813331892272567"><ele>358.0</ele><time>2026-03-22T09:14:19Z</time></trkpt><trkpt lat="42.193800394198696" lon="12.813233802698385"><ele>357.79999999999995</ele><time>2026-03-22T09:14:20Z</time></trkpt><trkpt lat="42.1938956827318" lon="12.813133198421943"><ele>357.6</ele><time>2026-03-22T09:14:21Z</time></trkpt><trkpt lat="42.193991023582406" lon="12.813042217634578"><ele>357.4</ele><time>2026-03-22T09:14:22Z</time></trkpt><trkpt lat="42.194074953465034" lon="12.812957995551072"><ele>357.20000000000005</ele><time>2026-03-22T09:14:23Z</time></trkpt><trkpt lat="42.194141602245296" lon="12.812897814370599"><ele>357.0</ele><time>2026-03-22T09:14:24Z</time></trkpt><trkpt lat="42.194201042460165" lon="12.812836516368572"><ele>357.0</ele><time>2026-03-22T09:14:25Z</time></trkpt><trkpt lat="42.194252242922055" lon="12.812769037821786"><ele>357.0</ele><time>2026-03-22T09:14:26Z</time></trkpt><trkpt lat="42.19432349663849" lon="12.81270728803862"><ele>357.0</ele><time>2026-03-22T09:14:27Z</time></trkpt><trkpt lat="42.19440464882837" lon="12.812589433162438"><ele>357.0</ele><time>2026-03-22T09:14:29Z</time></trkpt><trkpt lat="42.19447275600975" lon="12.812461865035637"><ele>357.0</ele><time>2026-03-22T09:14:31Z</time></trkpt><trkpt lat="42.19452021170094" lon="12.812347444213808"><ele>357.5</ele><time>2026-03-22T09:14:33Z</time></trkpt><trkpt lat="42.19457479698724" lon="12.81225868251801"><ele>358.0</ele><time>2026-03-22T09:14:35Z</time></trkpt><trkpt lat="42.194616048720626" lon="12.812181866627242"><ele>358.5</ele><time>2026-03-22T09:14:36Z</time></trkpt><trkpt lat="42.19466042966526" lon="12.812084473834197"><ele>359.0</ele><time>2026-03-22T09:14:37Z</time></trkpt><trkpt lat="42.19471078932067" lon="12.811983714389173"><ele>359.5</ele><time>2026-03-22T09:14:38Z</time></trkpt><trkpt lat="42.19477603804164" lon="12.811872664766204"><ele>360.0</ele><time>2026-03-22T09:14:39Z</time></trkpt><trkpt lat="42.19484726998495" lon="12.811745512537344"><ele>360.5</ele><time>2026-03-22T09:14:40Z</time></trkpt><trkpt lat="42.1949124973878" lon="12.811612436898894"><ele>361.0</ele><time>2026-03-22T09:14:41Z</time></trkpt><trkpt lat="42.194986168653095" lon="12.811462913034202"><ele>361.5</ele><time>2026-03-22T09:14:42Z</time></trkpt><trkpt lat="42.195051992539014" lon="12.811296178899752"><ele>362.0</ele><time>2026-03-22T09:14:43Z</time></trkpt><trkpt lat="42.19511708936548" lon="12.811109601667145"><ele>363.0</ele><time>2026-03-22T09:14:44Z</time></trkpt><trkpt lat="42.19519024805078" lon="12.810916169881528"><ele>364.0</ele><time>2026-03-22T09:14:45Z</time></trkpt><trkpt lat="42.19526541621965" lon="12.81072473378319"><ele>365.0</ele><time>2026-03-22T09:14:46Z</time></trkpt><trkpt lat="42.19534416067661" lon="12.81053173359596"><ele>365.0</ele><time>2026-03-22T09:14:47Z</time></trkpt><trkpt lat="42.195413799147204" lon="12.810343212268215"><ele>365.0</ele><time>2026-03-22T09:14:48Z</time></trkpt><trkpt lat="42.19547742888932" lon="12.810188104425722"><ele>365.0</ele><time>2026-03-22T09:14:49Z</time></trkpt><trkpt lat="42.19554544576832" lon="12.810055439394151"><ele>365.0</ele><time>2026-03-22T09:14:50Z</time></trkpt><trkpt lat="42.19556689534767" lon="12.809956862063466"><ele>364.75</ele><time>2026-03-22T09:14:51Z</time></trkpt><trkpt lat="42.19559624293603" lon="12.809847472694756"><ele>364.5</ele><time>2026-03-22T09:14:53Z</time></trkpt><trkpt lat="42.19564516267526" lon="12.80968358269924"><ele>364.25</ele><time>2026-03-22T09:14:55Z</time></trkpt><trkpt lat="42.19586404403473" lon="12.809683495940412"><ele>364.0</ele><time>2026-03-22T09:14:56Z</time></trkpt><trkpt lat="42.19595423381194" lon="12.809599959973584"><ele>364.0</ele><time>2026-03-22T09:14:57Z</time></trkpt><trkpt lat="42.19604775653901" lon="12.80953199063964"><ele>364.0</ele><time>2026-03-22T09:14:58Z</time></trkpt><trkpt lat="42.19612832481846" lon="12.809461753834203"><ele>364.0</ele><time>2026-03-22T09:14:59Z</time></trkpt><trkpt lat="42.19620535833925" lon="12.80939145243799"><ele>364.0</ele><time>2026-03-22T09:15:00Z</time></trkpt><trkpt lat="42.19628963585347" lon="12.809304989971539"><ele>364.0</ele><time>2026-03-22T09:15:01Z</time></trkpt><trkpt lat="42.19637742666901" lon="12.809222313976761"><ele>364.6</ele><time>2026-03-22T09:15:02Z</time></trkpt><trkpt lat="42.19646683412723" lon="12.809138887672557"><ele>365.2</ele><time>2026-03-22T09:15:03Z</time></trkpt><trkpt lat="42.196560111902464" lon="12.809061086538433"><ele>365.8</ele><time>2026-03-22T09:15:04Z</time></trkpt><trkpt lat="42.196650500551954" lon="12.808993740931742"><ele>366.40000000000003</ele><time>2026-03-22T09:15:05Z</time></trkpt><trkpt lat="42.1967331704578" lon="12.808918422777671"><ele>367.0</ele><time>2026-03-22T09:15:06Z</time></trkpt><trkpt lat="42.19679504827808" lon="12.808842364377883"><ele>367.20000000000005</ele><time>2026-03-22T09:15:07Z</time></trkpt><trkpt lat="42.19685156568967" lon="12.80877478802476"><ele>367.4</ele><time>2026-03-22T09:15:08Z</time></trkpt><trkpt lat="42.19693236333771" lon="12.808628186097684"><ele>367.6</ele><time>2026-03-22T09:15:09.999Z</time></trkpt><trkpt lat="42.196966561828354" lon="12.808513548876398"><ele>367.79999999999995</ele><time>2026-03-22T09:15:10.999Z</time></trkpt><trkpt lat="42.197005442360606" lon="12.808392282810585"><ele>368.0</ele><time>2026-03-22T09:15:11.999Z</time></trkpt><trkpt lat="42.19704559269676" lon="12.808264937229124"><ele>368.0</ele><time>2026-03-22T09:15:12.999Z</time></trkpt><trkpt lat="42.19708968062631" lon="12.808155687760653"><ele>368.0</ele><time>2026-03-22T09:15:13.999Z</time></trkpt><trkpt lat="42.19712928458803" lon="12.808040009015217"><ele>368.0</ele><time>2026-03-22T09:15:14.999Z</time></trkpt><trkpt lat="42.19716925934699" lon="12.80792021267392"><ele>368.0</ele><time>2026-03-22T09:15:15.999Z</time></trkpt><trkpt lat="42.19721464331076" lon="12.807789478691628"><ele>368.0</ele><time>2026-03-22T09:15:16.999Z</time></trkpt><trkpt lat="42.1972628471462" lon="12.807661817235894"><ele>368.4</ele><time>2026-03-22T09:15:17.999Z</time></trkpt><trkpt lat="42.197307820374185" lon="12.807525058228226"><ele>368.79999999999995</ele><time>2026-03-22T09:15:18.999Z</time></trkpt><trkpt lat="42.19735399521497" lon="12.807398469102617"><ele>369.2</ele><time>2026-03-22T09:15:19.999Z</time></trkpt><trkpt lat="42.19740432774046" lon="12.807268978671638"><ele>369.6</ele><time>2026-03-22T09:15:20.999Z</time></trkpt><trkpt lat="42.197450186083266" lon="12.807139890865896"><ele>370.0</ele><time>2026-03-22T09:15:21.999Z</time></trkpt><trkpt lat="42.19749438905635" lon="12.807018685107781"><ele>370.0</ele><time>2026-03-22T09:15:22.999Z</time></trkpt><trkpt lat="42.197531764165035" lon="12.806904808614753"><ele>370.0</ele><time>2026-03-22T09:15:23.999Z</time></trkpt><trkpt lat="42.19756999627906" lon="12.806790236419898"><ele>370.0</ele><time>2026-03-22T09:15:24.999Z</time></trkpt><trkpt lat="42.197590232818676" lon="12.806689178597592"><ele>370.0</ele><time>2026-03-22T09:15:25.999Z</time></trkpt><trkpt lat="42.19758362567207" lon="12.806594003790702"><ele>370.0</ele><time>2026-03-22T09:15:26.999Z</time></trkpt><trkpt lat="42.19757754654527" lon="12.806485345982852"><ele>370.0</ele><time>2026-03-22T09:15:27.999Z</time></trkpt><trkpt lat="42.19757725430551" lon="12.806368326018855"><ele>370.4</ele><time>2026-03-22T09:15:28.999Z</time></trkpt><trkpt lat="42.19759892494143" lon="12.806245500292977"><ele>370.8</ele><time>2026-03-22T09:15:29.999Z</time></trkpt><trkpt lat="42.197641179274676" lon="12.806114511349502"><ele>371.20000000000005</ele><time>2026-03-22T09:15:30.999Z</time></trkpt><trkpt lat="42.19770239840772" lon="12.805968246804374"><ele>371.6</ele><time>2026-03-22T09:15:31.999Z</time></trkpt><trkpt lat="42.197772261719024" lon="12.805828745325435"><ele>372.0</ele><time>2026-03-22T09:15:32.999Z</time></trkpt><trkpt lat="42.19783656731163" lon="12.805689657101668"><ele>373.0</ele><time>2026-03-22T09:15:33.999Z</time></trkpt><trkpt lat="42.19790714642193" lon="12.805564510923308"><ele>374.0</ele><time>2026-03-22T09:15:34.999Z</time></trkpt><trkpt lat="42.19796306905725" lon="12.805433315576947"><ele>375.0</ele><time>2026-03-22T09:15:35.999Z</time></trkpt><trkpt lat="42.198010346036995" lon="12.805303148832294"><ele>376.0</ele><time>2026-03-22T09:15:36.999Z</time></trkpt><trkpt lat="42.198065337964714" lon="12.805177458987716"><ele>377.0</ele><time>2026-03-22T09:15:37.999Z</time></trkpt><trkpt lat="42.19811842798647" lon="12.805071161378226"><ele>377.33333333333337</ele><time>2026-03-22T09:15:38.999Z</time></trkpt><trkpt lat="42.19817445564279" lon="12.804999046184562"><ele>377.6666666666667</ele><time>2026-03-22T09:15:39.999Z</time></trkpt><trkpt lat="42.19822798327783" lon="12.80492234763807"><ele>378.0</ele><time>2026-03-22T09:15:40.999Z</time></trkpt><trkpt lat="42.19829647898322" lon="12.804853118200283"><ele>378.3333333333333</ele><time>2026-03-22T09:15:41.999Z</time></trkpt><trkpt lat="42.19837240828027" lon="12.804791062050562"><ele>378.66666666666663</ele><time>2026-03-22T09:15:42.999Z</time></trkpt><trkpt lat="42.198450002870295" lon="12.80473704456525"><ele>379.0</ele><time>2026-03-22T09:15:43.999Z</time></trkpt><trkpt lat="42.1985333150597" lon="12.804698542200146"><ele>379.0</ele><time>2026-03-22T09:15:44.999Z</time></trkpt><trkpt lat="42.198617531317" lon="12.804672979528563"><ele>379.0</ele><time>2026-03-22T09:15:45.999Z</time></trkpt><trkpt lat="42.198697396507846" lon="12.804658763579384"><ele>379.0</ele><time>2026-03-22T09:15:46.999Z</time></trkpt><trkpt lat="42.198780572740354" lon="12.804642765287863"><ele>379.0</ele><time>2026-03-22T09:15:47.999Z</time></trkpt><trkpt lat="42.19885588455315" lon="12.804622553860103"><ele>379.0</ele><time>2026-03-22T09:15:49Z</time></trkpt><trkpt lat="42.19897581625121" lon="12.804602916391568"><ele>379.0</ele><time>2026-03-22T09:15:51Z</time></trkpt><trkpt lat="42.1990728131168" lon="12.804580925122831"><ele>379.0</ele><time>2026-03-22T09:15:53Z</time></trkpt><trkpt lat="42.19915183273302" lon="12.804592231283214"><ele>379.0</ele><time>2026-03-22T09:15:55Z</time></trkpt><trkpt lat="42.19920666962361" lon="12.804519057786516"><ele>379.0</ele><time>2026-03-22T09:15:56Z</time></trkpt><trkpt lat="42.19916723575096" lon="12.804611427923724"><ele>379.0</ele><time>2026-03-22T09:16:54Z</time></trkpt><trkpt lat="42.19924879102367" lon="12.804592011819365"><ele>379.0</ele><time>2026-03-22T09:24:11.999Z</time></trkpt><trkpt lat="42.19931993423201" lon="12.804556177867"><ele>379.0</ele><time>2026-03-22T09:24:16Z</time></trkpt><trkpt lat="42.199213658710796" lon="12.80429872228383"><ele>380.25</ele><time>2026-03-22T09:24:29Z</time></trkpt><trkpt lat="42.19916125206377" lon="12.804210997020105"><ele>381.5</ele><time>2026-03-22T09:24:30Z</time></trkpt><trkpt lat="42.199096288807176" lon="12.804085334819845"><ele>382.75</ele><time>2026-03-22T09:24:31Z</time></trkpt><trkpt lat="42.19902811108006" lon="12.803939683976392"><ele>384.0</ele><time>2026-03-22T09:24:32Z</time></trkpt><trkpt lat="42.19895268876382" lon="12.803779823561914"><ele>384.75</ele><time>2026-03-22T09:24:33Z</time></trkpt><trkpt lat="42.198869693102175" lon="12.80362164710554"><ele>385.5</ele><time>2026-03-22T09:24:34Z</time></trkpt><trkpt lat="42.19878148106711" lon="12.803450203936233"><ele>386.25</ele><time>2026-03-22T09:24:35Z</time></trkpt><trkpt lat="42.198697551074005" lon="12.803280859946193"><ele>387.0</ele><time>2026-03-22T09:24:36Z</time></trkpt><trkpt lat="42.198600974667265" lon="12.803148311481532"><ele>389.0</ele><time>2026-03-22T09:24:37Z</time></trkpt><trkpt lat="42.198492232150606" lon="12.803055158333548"><ele>391.0</ele><time>2026-03-22T09:24:38Z</time></trkpt><trkpt lat="42.19836875838729" lon="12.802976587748212"><ele>393.0</ele><time>2026-03-22T09:24:39Z</time></trkpt><trkpt lat="42.19824163854498" lon="12.802884842370858"><ele>395.0</ele><time>2026-03-22T09:24:40Z</time></trkpt><trkpt lat="42.19811528244343" lon="12.802770518940484"><ele>397.3333333333333</ele><time>2026-03-22T09:24:41Z</time></trkpt><trkpt lat="42.1979707426914" lon="12.802667644532354"><ele>399.66666666666663</ele><time>2026-03-22T09:24:42Z</time></trkpt><trkpt lat="42.19782243191748" lon="12.80256676707261"><ele>402.0</ele><time>2026-03-22T09:24:43Z</time></trkpt><trkpt lat="42.197688737326175" lon="12.802463487464733"><ele>403.0</ele><time>2026-03-22T09:24:44Z</time></trkpt><trkpt lat="42.19756195243955" lon="12.802362847804467"><ele>404.0</ele><time>2026-03-22T09:24:45Z</time></trkpt><trkpt lat="42.197440306785246" lon="12.80226513570728"><ele>405.0</ele><time>2026-03-22T09:24:46Z</time></trkpt><trkpt lat="42.1973348260008" lon="12.802168487439209"><ele>406.0</ele><time>2026-03-22T09:24:47Z</time></trkpt><trkpt lat="42.19725966345666" lon="12.802089272215884"><ele>408.00000000000006</ele><time>2026-03-22T09:24:48Z</time></trkpt><trkpt lat="42.19720287928041" lon="12.802008763962899"><ele>410.0</ele><time>2026-03-22T09:24:49Z</time></trkpt><trkpt lat="42.197152211253446" lon="12.801910733371027"><ele>412.0</ele><time>2026-03-22T09:24:50Z</time></trkpt><trkpt lat="42.197106979016205" lon="12.801809017464358"><ele>414.0</ele><time>2026-03-22T09:24:51Z</time></trkpt><trkpt lat="42.197064233489115" lon="12.80169260033437"><ele>416.00000000000006</ele><time>2026-03-22T09:24:52Z</time></trkpt><trkpt lat="42.19702486583247" lon="12.801586186195024"><ele>418.0</ele><time>2026-03-22T09:24:53Z</time></trkpt><trkpt lat="42.19696820309541" lon="12.80148132980199"><ele>419.2</ele><time>2026-03-22T09:24:54Z</time></trkpt><trkpt lat="42.19693806234124" lon="12.80138385289575"><ele>420.4</ele><time>2026-03-22T09:24:55Z</time></trkpt><trkpt lat="42.19689840777325" lon="12.801278797380972"><ele>421.59999999999997</ele><time>2026-03-22T09:24:56Z</time></trkpt><trkpt lat="42.19684812216169" lon="12.801169155984846"><ele>422.79999999999995</ele><time>2026-03-22T09:24:57Z</time></trkpt><trkpt lat="42.19680827678192" lon="12.801041730558959"><ele>424.0</ele><time>2026-03-22T09:24:58Z</time></trkpt><trkpt lat="42.19679202266516" lon="12.80090343575047"><ele>424.2</ele><time>2026-03-22T09:24:59Z</time></trkpt><trkpt lat="42.196797161454036" lon="12.80076325557833"><ele>424.4</ele><time>2026-03-22T09:25:00Z</time></trkpt><trkpt lat="42.196783786430395" lon="12.800616037007298"><ele>424.6</ele><time>2026-03-22T09:25:01Z</time></trkpt><trkpt lat="42.19674892103507" lon="12.8004710651916"><ele>424.8</ele><time>2026-03-22T09:25:02Z</time></trkpt><trkpt lat="42.196703253669156" lon="12.80032153496048"><ele>425.0</ele><time>2026-03-22T09:25:03Z</time></trkpt><trkpt lat="42.19664280859301" lon="12.800175384126652"><ele>424.8</ele><time>2026-03-22T09:25:04Z</time></trkpt><trkpt lat="42.19659143219661" lon="12.80002747382549"><ele>424.6</ele><time>2026-03-22T09:25:05Z</time></trkpt><trkpt lat="42.1965387361956" lon="12.799875763426067"><ele>424.4</ele><time>2026-03-22T09:25:06Z</time></trkpt><trkpt lat="42.196490839956056" lon="12.79973787137609"><ele>424.2</ele><time>2026-03-22T09:25:07Z</time></trkpt><trkpt lat="42.196455483077976" lon="12.79963607940604"><ele>424.0</ele><time>2026-03-22T09:25:08Z</time></trkpt><trkpt lat="42.19641798880216" lon="12.799534127584257"><ele>424.83333333333337</ele><time>2026-03-22T09:25:09Z</time></trkpt><trkpt lat="42.19637936288388" lon="12.799444340434308"><ele>425.6666666666667</ele><time>2026-03-22T09:25:09.999Z</time></trkpt><trkpt lat="42.19634172213921" lon="12.799348420526242"><ele>426.5</ele><time>2026-03-22T09:25:10.999Z</time></trkpt><trkpt lat="42.196295887359604" lon="12.799271291067011"><ele>427.33333333333337</ele><time>2026-03-22T09:25:11.999Z</time></trkpt><trkpt lat="42.196249639820564" lon="12.799188831981093"><ele>428.1666666666667</ele><time>2026-03-22T09:25:12.999Z</time></trkpt><trkpt lat="42.19620286584314" lon="12.799098781470757"><ele>429.0</ele><time>2026-03-22T09:25:13.999Z</time></trkpt><trkpt lat="42.19615473665527" lon="12.799015592131925"><ele>429.0</ele><time>2026-03-22T09:25:14.999Z</time></trkpt><trkpt lat="42.196113568328606" lon="12.798930585300429"><ele>429.0</ele><time>2026-03-22T09:25:15.999Z</time></trkpt><trkpt lat="42.196074573882264" lon="12.798846699893552"><ele>429.0</ele><time>2026-03-22T09:25:16.999Z</time></trkpt><trkpt lat="42.1960343298881" lon="12.798775686187183"><ele>429.0</ele><time>2026-03-22T09:25:17.999Z</time></trkpt><trkpt lat="42.195990205916424" lon="12.79870916153245"><ele>429.0</ele><time>2026-03-22T09:25:18.999Z</time></trkpt><trkpt lat="42.19594192749162" lon="12.798633197379502"><ele>429.0</ele><time>2026-03-22T09:25:19.999Z</time></trkpt><trkpt lat="42.19586960290588" lon="12.798568899010828"><ele>429.0</ele><time>2026-03-22T09:25:20.999Z</time></trkpt><trkpt lat="42.19577181773662" lon="12.798510396114542"><ele>426.6</ele><time>2026-03-22T09:25:21.999Z</time></trkpt><trkpt lat="42.19566337099487" lon="12.798444212636161"><ele>424.2</ele><time>2026-03-22T09:25:22.999Z</time></trkpt><trkpt lat="42.19557433681676" lon="12.798368508924439"><ele>421.8</ele><time>2026-03-22T09:25:23.999Z</time></trkpt><trkpt lat="42.195497557860996" lon="12.798270157300422"><ele>419.40000000000003</ele><time>2026-03-22T09:25:24.999Z</time></trkpt><trkpt lat="42.19542648611921" lon="12.798163492399826"><ele>417.0</ele><time>2026-03-22T09:25:25.999Z</time></trkpt><trkpt lat="42.19535877065934" lon="12.798059462882895"><ele>417.0</ele><time>2026-03-22T09:25:26.999Z</time></trkpt><trkpt lat="42.195283254329745" lon="12.797955934462099"><ele>417.0</ele><time>2026-03-22T09:25:27.999Z</time></trkpt><trkpt lat="42.19519237423088" lon="12.797846195041917"><ele>417.0</ele><time>2026-03-22T09:25:28.999Z</time></trkpt><trkpt lat="42.19509277291372" lon="12.79773256382441"><ele>417.0</ele><time>2026-03-22T09:25:29.999Z</time></trkpt><trkpt lat="42.19499526172704" lon="12.79762335484351"><ele>417.0</ele><time>2026-03-22T09:25:30.999Z</time></trkpt><trkpt lat="42.194911022178076" lon="12.797516563398936"><ele>417.0</ele><time>2026-03-22T09:25:31.999Z</time></trkpt><trkpt lat="42.194829251645785" lon="12.797425809337618"><ele>417.0</ele><time>2026-03-22T09:25:32.999Z</time></trkpt><trkpt lat="42.19476100431214" lon="12.797326920598477"><ele>417.0</ele><time>2026-03-22T09:25:33.999Z</time></trkpt><trkpt lat="42.19471044636317" lon="12.797214470800856"><ele>417.0</ele><time>2026-03-22T09:25:34.999Z</time></trkpt><trkpt lat="42.194671191098394" lon="12.79707510029516"><ele>417.0</ele><time>2026-03-22T09:25:35.999Z</time></trkpt><trkpt lat="42.194629402715606" lon="12.796933625278513"><ele>417.0</ele><time>2026-03-22T09:25:36.999Z</time></trkpt><trkpt lat="42.19457002326854" lon="12.796792430509386"><ele>417.0</ele><time>2026-03-22T09:25:37.999Z</time></trkpt><trkpt lat="42.194506621003576" lon="12.796653798581312"><ele>417.0</ele><time>2026-03-22T09:25:38.999Z</time></trkpt><trkpt lat="42.19443615927171" lon="12.796506241052944"><ele>415.8</ele><time>2026-03-22T09:25:39.999Z</time></trkpt><trkpt lat="42.194379775240535" lon="12.796362672577096"><ele>414.6</ele><time>2026-03-22T09:25:40.999Z</time></trkpt><trkpt lat="42.19432776775543" lon="12.796234966380029"><ele>413.40000000000003</ele><time>2026-03-22T09:25:41.999Z</time></trkpt><trkpt lat="42.194284153311806" lon="12.796121196344744"><ele>412.20000000000005</ele><time>2026-03-22T09:25:42.999Z</time></trkpt><trkpt lat="42.19423760308262" lon="12.796001181327185"><ele>411.0</ele><time>2026-03-22T09:25:43.999Z</time></trkpt><trkpt lat="42.19418928119859" lon="12.795900286922112"><ele>409.6</ele><time>2026-03-22T09:25:44.999Z</time></trkpt><trkpt lat="42.19412718500433" lon="12.795802405995275"><ele>408.20000000000005</ele><time>2026-03-22T09:25:45.999Z</time></trkpt><trkpt lat="42.19406201905268" lon="12.795701535510025"><ele>406.79999999999995</ele><time>2026-03-22T09:25:46.999Z</time></trkpt><trkpt lat="42.19399118450798" lon="12.795604914837128"><ele>405.4</ele><time>2026-03-22T09:25:47.999Z</time></trkpt><trkpt lat="42.19391203367957" lon="12.795505781788883"><ele>404.0</ele><time>2026-03-22T09:25:48.999Z</time></trkpt><trkpt lat="42.19382464855089" lon="12.795402016384255"><ele>404.0</ele><time>2026-03-22T09:25:49.999Z</time></trkpt><trkpt lat="42.1937306231914" lon="12.795307375439332"><ele>404.0</ele><time>2026-03-22T09:25:50.999Z</time></trkpt><trkpt lat="42.19363438024687" lon="12.795227558681102"><ele>404.0</ele><time>2026-03-22T09:25:51.999Z</time></trkpt><trkpt lat="42.19353414462899" lon="12.795160772298013"><ele>404.0</ele><time>2026-03-22T09:25:52.999Z</time></trkpt><trkpt lat="42.193442226026264" lon="12.795095363642025"><ele>404.0</ele><time>2026-03-22T09:25:53.999Z</time></trkpt><trkpt lat="42.19336295671807" lon="12.795031444244566"><ele>402.79999999999995</ele><time>2026-03-22T09:25:54.999Z</time></trkpt><trkpt lat="42.19329696114948" lon="12.794973562857972"><ele>401.59999999999997</ele><time>2026-03-22T09:25:55.999Z</time></trkpt><trkpt lat="42.19322931557674" lon="12.79489214779832"><ele>400.4</ele><time>2026-03-22T09:25:57.999Z</time></trkpt><trkpt lat="42.19328405008509" lon="12.794718686925481"><ele>399.2</ele><time>2026-03-22T09:25:59.999Z</time></trkpt><trkpt lat="42.19331020587569" lon="12.794625044334483"><ele>398.0</ele><time>2026-03-22T09:26:00.999Z</time></trkpt><trkpt lat="42.19336896422707" lon="12.794533249268202"><ele>398.0</ele><time>2026-03-22T09:26:02.999Z</time></trkpt><trkpt lat="42.193483469915485" lon="12.794658878870012"><ele>398.0</ele><time>2026-03-22T09:26:04.999Z</time></trkpt><trkpt lat="42.193551125382356" lon="12.794725836196914"><ele>398.0</ele><time>2026-03-22T09:26:05.999Z</time></trkpt><trkpt lat="42.193614958645846" lon="12.794791179832892"><ele>398.0</ele><time>2026-03-22T09:26:07.999Z</time></trkpt><trkpt lat="42.19373085930587" lon="12.794625150801506"><ele>398.0</ele><time>2026-03-22T09:26:09.999Z</time></trkpt><trkpt lat="42.19368498256977" lon="12.79449257963141"><ele>398.0</ele><time>2026-03-22T09:26:11.999Z</time></trkpt><trkpt lat="42.193629882462744" lon="12.79442945172624"><ele>398.0</ele><time>2026-03-22T09:26:12.999Z</time></trkpt><trkpt lat="42.19354013652724" lon="12.794351879403969"><ele>398.0</ele><time>2026-03-22T09:26:13.999Z</time></trkpt><trkpt lat="42.19344535153758" lon="12.794284815820152"><ele>398.0</ele><time>2026-03-22T09:26:14.999Z</time></trkpt><trkpt lat="42.193340823447095" lon="12.794210053744921"><ele>397.5</ele><time>2026-03-22T09:26:15.999Z</time></trkpt><trkpt lat="42.193226317795315" lon="12.79410215937359"><ele>397.0</ele><time>2026-03-22T09:26:16.999Z</time></trkpt><trkpt lat="42.1931159093231" lon="12.793969876284907"><ele>396.5</ele><time>2026-03-22T09:26:17.999Z</time></trkpt><trkpt lat="42.19300634601342" lon="12.793830241509268"><ele>396.0</ele><time>2026-03-22T09:26:19Z</time></trkpt><trkpt lat="42.192897191094644" lon="12.793688071445665"><ele>397.0</ele><time>2026-03-22T09:26:20Z</time></trkpt><trkpt lat="42.192806152082355" lon="12.793584724674917"><ele>398.0</ele><time>2026-03-22T09:26:21Z</time></trkpt><trkpt lat="42.192717102438884" lon="12.79349570662531"><ele>399.0</ele><time>2026-03-22T09:26:22Z</time></trkpt><trkpt lat="42.19263135391539" lon="12.793409149573474"><ele>400.0</ele><time>2026-03-22T09:26:23Z</time></trkpt><trkpt lat="42.19252813988654" lon="12.793324849337747"><ele>401.25</ele><time>2026-03-22T09:26:24Z</time></trkpt><trkpt lat="42.19241594002446" lon="12.793266239980067"><ele>402.5</ele><time>2026-03-22T09:26:25Z</time></trkpt><trkpt lat="42.19230126446529" lon="12.793196461854263"><ele>403.75</ele><time>2026-03-22T09:26:26Z</time></trkpt><trkpt lat="42.19218992230171" lon="12.793143359325875"><ele>405.0</ele><time>2026-03-22T09:26:27Z</time></trkpt><trkpt lat="42.19206120467811" lon="12.793080363956165"><ele>408.0</ele><time>2026-03-22T09:26:28Z</time></trkpt><trkpt lat="42.19192845015696" lon="12.793000304097527"><ele>411.0</ele><time>2026-03-22T09:26:29Z</time></trkpt><trkpt lat="42.1918059040175" lon="12.79293953061739"><ele>414.0</ele><time>2026-03-22T09:26:30Z</time></trkpt><trkpt lat="42.19168986702364" lon="12.792887121957039"><ele>417.0</ele><time>2026-03-22T09:26:31Z</time></trkpt><trkpt lat="42.19159146934952" lon="12.792843771852224"><ele>418.0</ele><time>2026-03-22T09:26:32Z</time></trkpt><trkpt lat="42.191492868801326" lon="12.792802088494302"><ele>419.0</ele><time>2026-03-22T09:26:33Z</time></trkpt><trkpt lat="42.19138279246044" lon="12.792755553764717"><ele>420.0</ele><time>2026-03-22T09:26:34Z</time></trkpt><trkpt lat="42.191274718644266" lon="12.792706951713921"><ele>421.0</ele><time>2026-03-22T09:26:35Z</time></trkpt><trkpt lat="42.19116790145906" lon="12.792649441612937"><ele>422.0</ele><time>2026-03-22T09:26:36Z</time></trkpt><trkpt lat="42.19105993468772" lon="12.792591955196611"><ele>424.5</ele><time>2026-03-22T09:26:37Z</time></trkpt><trkpt lat="42.19095460655555" lon="12.792563787188708"><ele>427.0</ele><time>2026-03-22T09:26:38Z</time></trkpt><trkpt lat="42.19085170720184" lon="12.792496830624517"><ele>429.5</ele><time>2026-03-22T09:26:39Z</time></trkpt><trkpt lat="42.190755185553805" lon="12.792415456346944"><ele>432.0</ele><time>2026-03-22T09:26:40Z</time></trkpt><trkpt lat="42.190655129731574" lon="12.792304564565978"><ele>432.0</ele><time>2026-03-22T09:26:41Z</time></trkpt><trkpt lat="42.19054483647158" lon="12.792168687569406"><ele>432.0</ele><time>2026-03-22T09:26:42Z</time></trkpt><trkpt lat="42.19043304275313" lon="12.792043957437986"><ele>432.0</ele><time>2026-03-22T09:26:43Z</time></trkpt><trkpt lat="42.19032554605141" lon="12.791927230448108"><ele>432.0</ele><time>2026-03-22T09:26:44Z</time></trkpt><trkpt lat="42.19021456273507" lon="12.791795177899386"><ele>434.5</ele><time>2026-03-22T09:26:45Z</time></trkpt><trkpt lat="42.190101073233755" lon="12.79167987674042"><ele>437.0</ele><time>2026-03-22T09:26:46Z</time></trkpt><trkpt lat="42.18997732713214" lon="12.791570011328039"><ele>439.5</ele><time>2026-03-22T09:26:47Z</time></trkpt><trkpt lat="42.18984397965599" lon="12.791461209238083"><ele>442.0</ele><time>2026-03-22T09:26:48Z</time></trkpt><trkpt lat="42.189720546703086" lon="12.791340780822383"><ele>442.0</ele><time>2026-03-22T09:26:49Z</time></trkpt><trkpt lat="42.18959843263522" lon="12.79122059186551"><ele>442.0</ele><time>2026-03-22T09:26:50Z</time></trkpt><trkpt lat="42.18948828531638" lon="12.791084346850797"><ele>442.0</ele><time>2026-03-22T09:26:51Z</time></trkpt><trkpt lat="42.189379225931" lon="12.790965171966013"><ele>442.0</ele><time>2026-03-22T09:26:52Z</time></trkpt><trkpt lat="42.189272311405965" lon="12.790843070138262"><ele>443.75</ele><time>2026-03-22T09:26:53Z</time></trkpt><trkpt lat="42.189168982339936" lon="12.79072506305105"><ele>445.5</ele><time>2026-03-22T09:26:54Z</time></trkpt><trkpt lat="42.18906948039336" lon="12.79060853345507"><ele>447.25</ele><time>2026-03-22T09:26:55Z</time></trkpt><trkpt lat="42.188976637602465" lon="12.79049648199506"><ele>449.0</ele><time>2026-03-22T09:26:56Z</time></trkpt><trkpt lat="42.18888471777154" lon="12.790376803662694"><ele>450.25</ele><time>2026-03-22T09:26:57Z</time></trkpt><trkpt lat="42.18878804034156" lon="12.79025130745404"><ele>451.5</ele><time>2026-03-22T09:26:58Z</time></trkpt><trkpt lat="42.18868587273374" lon="12.790120814247704"><ele>452.75</ele><time>2026-03-22T09:26:59Z</time></trkpt><trkpt lat="42.188577244416955" lon="12.789989219671078"><ele>454.0</ele><time>2026-03-22T09:27:00Z</time></trkpt><trkpt lat="42.18846209890678" lon="12.789882350654231"><ele>456.0</ele><time>2026-03-22T09:27:01Z</time></trkpt><trkpt lat="42.18836579584944" lon="12.789751400736325"><ele>458.0</ele><time>2026-03-22T09:27:02Z</time></trkpt><trkpt lat="42.188265832063365" lon="12.789604367387154"><ele>460.0</ele><time>2026-03-22T09:27:03Z</time></trkpt><trkpt lat="42.18817734739487" lon="12.789449418323413"><ele>462.0</ele><time>2026-03-22T09:27:04Z</time></trkpt><trkpt lat="42.18808177485823" lon="12.789299318738061"><ele>463.5</ele><time>2026-03-22T09:27:04.999Z</time></trkpt><trkpt lat="42.18798198679495" lon="12.789156249222705"><ele>465.0</ele><time>2026-03-22T09:27:05.999Z</time></trkpt><trkpt lat="42.18787553403846" lon="12.789028000654172"><ele>466.5</ele><time>2026-03-22T09:27:06.999Z</time></trkpt><trkpt lat="42.18777041499747" lon="12.788894370285941"><ele>468.0</ele><time>2026-03-22T09:27:07.999Z</time></trkpt><trkpt lat="42.1876689687429" lon="12.788758360668814"><ele>468.0</ele><time>2026-03-22T09:27:08.999Z</time></trkpt><trkpt lat="42.18756695440886" lon="12.788627706079154"><ele>468.0</ele><time>2026-03-22T09:27:09.999Z</time></trkpt><trkpt lat="42.18745756544732" lon="12.788496988898792"><ele>468.0</ele><time>2026-03-22T09:27:10.999Z</time></trkpt><trkpt lat="42.18735650844988" lon="12.78836198484038"><ele>468.0</ele><time>2026-03-22T09:27:11.999Z</time></trkpt><trkpt lat="42.18725783557618" lon="12.788217729691347"><ele>469.59999999999997</ele><time>2026-03-22T09:27:12.999Z</time></trkpt><trkpt lat="42.18716506533356" lon="12.788090268036585"><ele>471.19999999999993</ele><time>2026-03-22T09:27:13.999Z</time></trkpt><trkpt lat="42.18708890428192" lon="12.787988607751716"><ele>472.8</ele><time>2026-03-22T09:27:14.999Z</time></trkpt><trkpt lat="42.187026776336985" lon="12.787911884730905"><ele>474.4</ele><time>2026-03-22T09:27:15.999Z</time></trkpt><trkpt lat="42.18696233828185" lon="12.787871501453582"><ele>476.0</ele><time>2026-03-22T09:27:16.999Z</time></trkpt><trkpt lat="42.18688071313628" lon="12.787814242830356"><ele>476.0</ele><time>2026-03-22T09:27:17.999Z</time></trkpt><trkpt lat="42.186701140601095" lon="12.787852701456282"><ele>476.0</ele><time>2026-03-22T09:27:18.999Z</time></trkpt><trkpt lat="42.18659346637707" lon="12.78773243182199"><ele>476.0</ele><time>2026-03-22T09:27:19.999Z</time></trkpt><trkpt lat="42.18650718671354" lon="12.787610158024053"><ele>476.0</ele><time>2026-03-22T09:27:20.999Z</time></trkpt><trkpt lat="42.18642141131037" lon="12.78748333710348"><ele>473.4</ele><time>2026-03-22T09:27:21.999Z</time></trkpt><trkpt lat="42.18633677390658" lon="12.78734621716573"><ele>470.8</ele><time>2026-03-22T09:27:22.999Z</time></trkpt><trkpt lat="42.186272591284464" lon="12.78721347794913"><ele>468.19999999999993</ele><time>2026-03-22T09:27:23.999Z</time></trkpt><trkpt lat="42.18622414695173" lon="12.787108314392572"><ele>465.59999999999997</ele><time>2026-03-22T09:27:24.999Z</time></trkpt><trkpt lat="42.186186582476914" lon="12.78702530068094"><ele>463.0</ele><time>2026-03-22T09:27:25.999Z</time></trkpt><trkpt lat="42.186115419926274" lon="12.786899699376633"><ele>464.79999999999995</ele><time>2026-03-22T09:27:27.999Z</time></trkpt><trkpt lat="42.18604969058752" lon="12.786773852948556"><ele>466.59999999999997</ele><time>2026-03-22T09:27:29.999Z</time></trkpt><trkpt lat="42.18600315501542" lon="12.786658390851084"><ele>468.40000000000003</ele><time>2026-03-22T09:27:31.999Z</time></trkpt><trkpt lat="42.18602994009576" lon="12.786480917995245"><ele>470.20000000000005</ele><time>2026-03-22T09:27:33.999Z</time></trkpt><trkpt lat="42.18596965891904" lon="12.78642130258841"><ele>472.0</ele><time>2026-03-22T09:27:37.999Z</time></trkpt><trkpt lat="42.186096183666265" lon="12.786561868602773"><ele>472.0</ele><time>2026-03-22T09:31:29.999Z</time></trkpt><trkpt lat="42.186138106454095" lon="12.786651597084022"><ele>472.00000000000006</ele><time>2026-03-22T09:31:30.999Z</time></trkpt><trkpt lat="42.186063151347774" lon="12.786877553696547"><ele>472.00000000000006</ele><time>2026-03-22T09:31:31.999Z</time></trkpt><trkpt lat="42.18611024376854" lon="12.786964303356049"><ele>472.0</ele><time>2026-03-22T09:31:32.999Z</time></trkpt><trkpt lat="42.18615360167708" lon="12.78706011932113"><ele>472.0</ele><time>2026-03-22T09:31:33.999Z</time></trkpt><trkpt lat="42.18619289907803" lon="12.787146963140463"><ele>472.8</ele><time>2026-03-22T09:31:34.999Z</time></trkpt><trkpt lat="42.186245064423424" lon="12.787259456592238"><ele>473.6</ele><time>2026-03-22T09:31:35.999Z</time></trkpt><trkpt lat="42.18632140669856" lon="12.787413429774498"><ele>474.40000000000003</ele><time>2026-03-22T09:31:36.999Z</time></trkpt><trkpt lat="42.18638782547968" lon="12.78751670255121"><ele>475.20000000000005</ele><time>2026-03-22T09:31:37.999Z</time></trkpt><trkpt lat="42.18646056311978" lon="12.787624593473332"><ele>476.0</ele><time>2026-03-22T09:31:38.999Z</time></trkpt><trkpt lat="42.18653702948816" lon="12.787734760357273"><ele>476.0</ele><time>2026-03-22T09:31:39.999Z</time></trkpt><trkpt lat="42.186618238265694" lon="12.787831682357668"><ele>476.0</ele><time>2026-03-22T09:31:40.999Z</time></trkpt><trkpt lat="42.1866998303858" lon="12.787897954527608"><ele>476.0</ele><time>2026-03-22T09:31:41.999Z</time></trkpt><trkpt lat="42.18676864190974" lon="12.787935276820253"><ele>476.0</ele><time>2026-03-22T09:31:42.999Z</time></trkpt><trkpt lat="42.18689217754739" lon="12.78794083613268"><ele>476.0</ele><time>2026-03-22T09:31:59.999Z</time></trkpt><trkpt lat="42.18691333817026" lon="12.787774749853854"><ele>477.25</ele><time>2026-03-22T09:32:00.999Z</time></trkpt><trkpt lat="42.18681769824853" lon="12.787566368149308"><ele>478.5</ele><time>2026-03-22T09:34:40.999Z</time></trkpt><trkpt lat="42.18673769879024" lon="12.787482019928246"><ele>479.75</ele><time>2026-03-22T09:34:42Z</time></trkpt><trkpt lat="42.18665189662364" lon="12.787360147634358"><ele>481.0</ele><time>2026-03-22T09:34:43Z</time></trkpt><trkpt lat="42.18656772141829" lon="12.787218553920386"><ele>478.75</ele><time>2026-03-22T09:34:44Z</time></trkpt><trkpt lat="42.18640896918442" lon="12.786997139183466"><ele>476.5</ele><time>2026-03-22T09:34:46Z</time></trkpt><trkpt lat="42.18635291473498" lon="12.786916166381879"><ele>474.25</ele><time>2026-03-22T09:34:46.999Z</time></trkpt><trkpt lat="42.18630038150412" lon="12.78684859597235"><ele>472.0</ele><time>2026-03-22T09:34:48Z</time></trkpt><trkpt lat="42.186240885833065" lon="12.786793959282402"><ele>472.0</ele><time>2026-03-22T09:34:49Z</time></trkpt><trkpt lat="42.18618172036295" lon="12.786735845052425"><ele>472.00000000000006</ele><time>2026-03-22T09:34:49.999Z</time></trkpt><trkpt lat="42.186134763550555" lon="12.786661483098989"><ele>472.00000000000006</ele><time>2026-03-22T09:34:51Z</time></trkpt><trkpt lat="42.18598033141737" lon="12.78661906854611"><ele>472.0</ele><time>2026-03-22T09:34:53Z</time></trkpt><trkpt lat="42.18593899030724" lon="12.786552538473208"><ele>472.0</ele><time>2026-03-22T09:34:55Z</time></trkpt><trkpt lat="42.18600770571965" lon="12.786483945533208"><ele>472.0</ele><time>2026-03-22T09:35:10.999Z</time></trkpt><trkpt lat="42.18598262691836" lon="12.786404551289552"><ele>472.00000000000006</ele><time>2026-03-22T09:35:31.999Z</time></trkpt><trkpt lat="42.18592133736956" lon="12.786322893177472"><ele>472.00000000000006</ele><time>2026-03-22T09:37:48.999Z</time></trkpt><trkpt lat="42.18585705832205" lon="12.786259925092162"><ele>472.0</ele><time>2026-03-22T09:37:51.999Z</time></trkpt><trkpt lat="42.18582228930014" lon="12.786142945686947"><ele>472.0</ele><time>2026-03-22T09:37:54.999Z</time></trkpt><trkpt lat="42.18576380528395" lon="12.785987923532582"><ele>473.6666666666667</ele><time>2026-03-22T09:37:56.999Z</time></trkpt><trkpt lat="42.18575508605533" lon="12.785877454672663"><ele>475.33333333333337</ele><time>2026-03-22T09:37:57.999Z</time></trkpt><trkpt lat="42.185741238051094" lon="12.785784426225975"><ele>477.0</ele><time>2026-03-22T09:37:58.999Z</time></trkpt><trkpt lat="42.185693958696625" lon="12.785695687799324"><ele>478.66666666666663</ele><time>2026-03-22T09:37:59.999Z</time></trkpt><trkpt lat="42.18564577210014" lon="12.785606072695574"><ele>480.3333333333333</ele><time>2026-03-22T09:38:00.999Z</time></trkpt><trkpt lat="42.18562576871861" lon="12.78550342454059"><ele>482.0</ele><time>2026-03-22T09:38:01.999Z</time></trkpt><trkpt lat="42.18563013923655" lon="12.785389838403995"><ele>481.99999999999994</ele><time>2026-03-22T09:38:02.999Z</time></trkpt><trkpt lat="42.185642481360155" lon="12.785266784622353"><ele>482.0</ele><time>2026-03-22T09:38:03.999Z</time></trkpt><trkpt lat="42.185651840547685" lon="12.785145237770722"><ele>482.0</ele><time>2026-03-22T09:38:04.999Z</time></trkpt><trkpt lat="42.185668710811484" lon="12.785003373780688"><ele>482.0</ele><time>2026-03-22T09:38:05.999Z</time></trkpt><trkpt lat="42.18568237228202" lon="12.784903188644666"><ele>481.99999999999994</ele><time>2026-03-22T09:38:06.999Z</time></trkpt><trkpt lat="42.185674580430174" lon="12.784812969664369"><ele>482.0</ele><time>2026-03-22T09:38:07.999Z</time></trkpt><trkpt lat="42.18565008830572" lon="12.78467189530555"><ele>486.6</ele><time>2026-03-22T09:38:10Z</time></trkpt><trkpt lat="42.18556818076328" lon="12.784590776275383"><ele>491.20000000000005</ele><time>2026-03-22T09:38:12Z</time></trkpt><trkpt lat="42.185523562254" lon="12.784490199444424"><ele>495.8</ele><time>2026-03-22T09:38:14Z</time></trkpt><trkpt lat="42.185506059014855" lon="12.784389248872184"><ele>500.4</ele><time>2026-03-22T09:38:16Z</time></trkpt><trkpt lat="42.1854772446323" lon="12.784268398277916"><ele>505.0</ele><time>2026-03-22T09:38:18Z</time></trkpt><trkpt lat="42.18534432874005" lon="12.784222505206326"><ele>507.8</ele><time>2026-03-22T09:45:32Z</time></trkpt><trkpt lat="42.18526889119996" lon="12.784161194498566"><ele>510.6</ele><time>2026-03-22T09:56:28Z</time></trkpt><trkpt lat="42.185204267840795" lon="12.784060679315573"><ele>513.4</ele><time>2026-03-22T09:56:30Z</time></trkpt><trkpt lat="42.185147914977684" lon="12.783956845875688"><ele>516.2</ele><time>2026-03-22T09:56:32Z</time></trkpt><trkpt lat="42.18512395042561" lon="12.783848293943299"><ele>519.0</ele><time>2026-03-22T09:56:34Z</time></trkpt><trkpt lat="42.185137887940655" lon="12.783725610348313"><ele>519.0</ele><time>2026-03-22T09:56:36Z</time></trkpt><trkpt lat="42.1851277271749" lon="12.783583023232058"><ele>519.0</ele><time>2026-03-22T09:56:38Z</time></trkpt><trkpt lat="42.18509900898895" lon="12.7834446545238"><ele>519.0</ele><time>2026-03-22T09:56:40Z</time></trkpt><trkpt lat="42.185102291814175" lon="12.783312406366774"><ele>519.0</ele><time>2026-03-22T09:56:42Z</time></trkpt><trkpt lat="42.18515262004501" lon="12.783201142542488"><ele>519.0</ele><time>2026-03-22T09:56:44Z</time></trkpt><trkpt lat="42.18520905631547" lon="12.783061014160554"><ele>521.5</ele><time>2026-03-22T09:56:46Z</time></trkpt><trkpt lat="42.18524632133361" lon="12.782969343818419"><ele>524.0</ele><time>2026-03-22T09:56:47Z</time></trkpt><trkpt lat="42.18529384034703" lon="12.782871719601916"><ele>526.5</ele><time>2026-03-22T09:56:48Z</time></trkpt><trkpt lat="42.185343641536996" lon="12.782776960432649"><ele>529.0</ele><time>2026-03-22T09:56:49Z</time></trkpt><trkpt lat="42.185379176545005" lon="12.782685851754952"><ele>531.5</ele><time>2026-03-22T09:56:50Z</time></trkpt><trkpt lat="42.18540542092702" lon="12.782599121907243"><ele>534.0</ele><time>2026-03-22T09:56:51Z</time></trkpt><trkpt lat="42.185438186479196" lon="12.782508423774106"><ele>536.0</ele><time>2026-03-22T09:56:52Z</time></trkpt><trkpt lat="42.185460000496874" lon="12.782415035306554"><ele>538.0</ele><time>2026-03-22T09:56:53Z</time></trkpt><trkpt lat="42.185486428237205" lon="12.782337850092572"><ele>540.0</ele><time>2026-03-22T09:56:54Z</time></trkpt><trkpt lat="42.18553760463292" lon="12.78227061526989"><ele>542.0</ele><time>2026-03-22T09:56:55Z</time></trkpt><trkpt lat="42.18559973314951" lon="12.782213136922868"><ele>544.0</ele><time>2026-03-22T09:56:56Z</time></trkpt><trkpt lat="42.18565575531366" lon="12.782157907773314"><ele>546.0</ele><time>2026-03-22T09:56:57Z</time></trkpt><trkpt lat="42.18573926127417" lon="12.782031898937646"><ele>547.2</ele><time>2026-03-22T09:56:59Z</time></trkpt><trkpt lat="42.18578706830967" lon="12.78191312367413"><ele>548.4000000000001</ele><time>2026-03-22T09:57:01Z</time></trkpt><trkpt lat="42.18576758725055" lon="12.781773329842013"><ele>549.6</ele><time>2026-03-22T09:57:03Z</time></trkpt><trkpt lat="42.18577365029809" lon="12.781627657619325"><ele>550.8000000000001</ele><time>2026-03-22T09:57:05Z</time></trkpt><trkpt lat="42.18580732721251" lon="12.781496332255776"><ele>552.0</ele><time>2026-03-22T09:57:07Z</time></trkpt><trkpt lat="42.185854000002294" lon="12.781360995538977"><ele>554.1666666666666</ele><time>2026-03-22T09:57:09Z</time></trkpt><trkpt lat="42.18583684077123" lon="12.781216696568762"><ele>556.3333333333334</ele><time>2026-03-22T09:57:10.999Z</time></trkpt><trkpt lat="42.18582399022599" lon="12.781132095983232"><ele>558.5</ele><time>2026-03-22T09:57:11.999Z</time></trkpt><trkpt lat="42.185815305704544" lon="12.781046877777275"><ele>560.6666666666667</ele><time>2026-03-22T09:57:12.999Z</time></trkpt><trkpt lat="42.18585117104933" lon="12.78087827802731"><ele>562.8333333333334</ele><time>2026-03-22T09:57:14.999Z</time></trkpt><trkpt lat="42.185882610808086" lon="12.780802224670216"><ele>565.0</ele><time>2026-03-22T09:57:15.999Z</time></trkpt><trkpt lat="42.18592523281457" lon="12.780719469741198"><ele>567.3333333333334</ele><time>2026-03-22T09:57:16.999Z</time></trkpt><trkpt lat="42.18597787980342" lon="12.78062977289202"><ele>569.6666666666667</ele><time>2026-03-22T09:57:17.999Z</time></trkpt><trkpt lat="42.18603694529889" lon="12.780529694950012"><ele>572.0</ele><time>2026-03-22T09:57:18.999Z</time></trkpt><trkpt lat="42.186088007151874" lon="12.780430146602406"><ele>574.3333333333334</ele><time>2026-03-22T09:57:19.999Z</time></trkpt><trkpt lat="42.18612802833711" lon="12.780320727590045"><ele>576.6666666666666</ele><time>2026-03-22T09:57:20.999Z</time></trkpt><trkpt lat="42.18615693906274" lon="12.780213256371585"><ele>579.0</ele><time>2026-03-22T09:57:21.999Z</time></trkpt><trkpt lat="42.1861684464983" lon="12.780124153840184"><ele>579.8571428571428</ele><time>2026-03-22T09:57:22.999Z</time></trkpt><trkpt lat="42.186168136588535" lon="12.780034245828661"><ele>580.7142857142857</ele><time>2026-03-22T09:57:23.999Z</time></trkpt><trkpt lat="42.18617874213284" lon="12.779944760526774"><ele>581.5714285714286</ele><time>2026-03-22T09:57:24.999Z</time></trkpt><trkpt lat="42.18620946033731" lon="12.77985212953961"><ele>582.4285714285713</ele><time>2026-03-22T09:57:25.999Z</time></trkpt><trkpt lat="42.186254103879705" lon="12.77977442690098"><ele>583.2857142857142</ele><time>2026-03-22T09:57:26.999Z</time></trkpt><trkpt lat="42.18630268679637" lon="12.77970745014384"><ele>584.1428571428571</ele><time>2026-03-22T09:57:27.999Z</time></trkpt><trkpt lat="42.18634733418889" lon="12.779642514225356"><ele>585.0</ele><time>2026-03-22T09:57:28.999Z</time></trkpt><trkpt lat="42.18638255661515" lon="12.779549233978422"><ele>585.0</ele><time>2026-03-22T09:57:29.999Z</time></trkpt><trkpt lat="42.18642637570067" lon="12.77941013582993"><ele>585.0</ele><time>2026-03-22T09:57:30.999Z</time></trkpt><trkpt lat="42.18646645839837" lon="12.779262894024273"><ele>585.0</ele><time>2026-03-22T09:57:31.999Z</time></trkpt><trkpt lat="42.18649969635994" lon="12.779130421827151"><ele>585.0</ele><time>2026-03-22T09:57:32.999Z</time></trkpt><trkpt lat="42.186525742203884" lon="12.779015508404424"><ele>585.0</ele><time>2026-03-22T09:57:33.999Z</time></trkpt><trkpt lat="42.186553496075895" lon="12.778920923142744"><ele>586.0</ele><time>2026-03-22T09:57:34.999Z</time></trkpt><trkpt lat="42.18658870367096" lon="12.77882595165842"><ele>587.0</ele><time>2026-03-22T09:57:35.999Z</time></trkpt><trkpt lat="42.186633418685" lon="12.778729589895693"><ele>588.0</ele><time>2026-03-22T09:57:36.999Z</time></trkpt><trkpt lat="42.18666980910788" lon="12.778612664986008"><ele>589.0</ele><time>2026-03-22T09:57:37.999Z</time></trkpt><trkpt lat="42.18670251725325" lon="12.77850199204932"><ele>590.0</ele><time>2026-03-22T09:57:38.999Z</time></trkpt><trkpt lat="42.18672365242173" lon="12.778417468122528"><ele>591.0</ele><time>2026-03-22T09:57:39.999Z</time></trkpt><trkpt lat="42.18674336683462" lon="12.778335317716014"><ele>591.2857142857142</ele><time>2026-03-22T09:57:40.999Z</time></trkpt><trkpt lat="42.18676554087818" lon="12.778241719267996"><ele>591.5714285714286</ele><time>2026-03-22T09:57:41.999Z</time></trkpt><trkpt lat="42.18680036976267" lon="12.778138057647242"><ele>591.8571428571429</ele><time>2026-03-22T09:57:42.999Z</time></trkpt><trkpt lat="42.18682557813221" lon="12.778030992587514"><ele>592.1428571428571</ele><time>2026-03-22T09:57:44Z</time></trkpt><trkpt lat="42.186850930911916" lon="12.777941260148848"><ele>592.4285714285714</ele><time>2026-03-22T09:57:45Z</time></trkpt><trkpt lat="42.18687823543379" lon="12.777855990415759"><ele>592.7142857142857</ele><time>2026-03-22T09:57:46Z</time></trkpt><trkpt lat="42.18690338766328" lon="12.777773977778548"><ele>593.0</ele><time>2026-03-22T09:57:47Z</time></trkpt><trkpt lat="42.18693898653241" lon="12.777614562567534"><ele>593.1666666666666</ele><time>2026-03-22T09:57:49Z</time></trkpt><trkpt lat="42.18695685537946" lon="12.777472521027319"><ele>593.3333333333333</ele><time>2026-03-22T09:57:51Z</time></trkpt><trkpt lat="42.18691973478474" lon="12.777341554215901"><ele>593.5</ele><time>2026-03-22T09:57:53Z</time></trkpt><trkpt lat="42.186872336996444" lon="12.777275988260962"><ele>593.6666666666666</ele><time>2026-03-22T09:57:55Z</time></trkpt><trkpt lat="42.18686451726107" lon="12.777184409953357"><ele>593.8333333333334</ele><time>2026-03-22T09:57:57Z</time></trkpt><trkpt lat="42.18682205375932" lon="12.77710250701804"><ele>594.0</ele><time>2026-03-22T09:58:00Z</time></trkpt><trkpt lat="42.186743577732805" lon="12.777007323581726"><ele>594.0</ele><time>2026-03-22T09:58:02Z</time></trkpt><trkpt lat="42.18673849730294" lon="12.776892393137015"><ele>594.0</ele><time>2026-03-22T09:58:04Z</time></trkpt><trkpt lat="42.18678418624776" lon="12.77674916819162"><ele>594.0</ele><time>2026-03-22T09:58:06Z</time></trkpt><trkpt lat="42.18682793083299" lon="12.776673931959701"><ele>594.0</ele><time>2026-03-22T09:58:07Z</time></trkpt><trkpt lat="42.18689580104287" lon="12.776617566185017"><ele>594.0</ele><time>2026-03-22T09:58:08Z</time></trkpt><trkpt lat="42.186973672872284" lon="12.77657998811893"><ele>594.0</ele><time>2026-03-22T09:58:09Z</time></trkpt><trkpt lat="42.187041221174816" lon="12.776523545978863"><ele>594.1666666666666</ele><time>2026-03-22T09:58:10Z</time></trkpt><trkpt lat="42.18709936304356" lon="12.776434648151014"><ele>594.3333333333334</ele><time>2026-03-22T09:58:11Z</time></trkpt><trkpt lat="42.18714899534536" lon="12.776332950175936"><ele>594.5</ele><time>2026-03-22T09:58:12Z</time></trkpt><trkpt lat="42.18719598053224" lon="12.776229551235094"><ele>594.6666666666667</ele><time>2026-03-22T09:58:13Z</time></trkpt><trkpt lat="42.187245531749504" lon="12.776138649352811"><ele>594.8333333333334</ele><time>2026-03-22T09:58:14Z</time></trkpt><trkpt lat="42.18730250885938" lon="12.776039763356762"><ele>595.0</ele><time>2026-03-22T09:58:15Z</time></trkpt><trkpt lat="42.1873498947182" lon="12.775939863822089"><ele>596.8</ele><time>2026-03-22T09:58:16Z</time></trkpt><trkpt lat="42.18740463866325" lon="12.775837424147351"><ele>598.6</ele><time>2026-03-22T09:58:17Z</time></trkpt><trkpt lat="42.1874657779658" lon="12.775739657020008"><ele>600.4</ele><time>2026-03-22T09:58:18Z</time></trkpt><trkpt lat="42.18752868270736" lon="12.775644713778037"><ele>602.2</ele><time>2026-03-22T09:58:19Z</time></trkpt><trkpt lat="42.18758800225151" lon="12.775550330914214"><ele>604.0</ele><time>2026-03-22T09:58:20Z</time></trkpt><trkpt lat="42.18764391284099" lon="12.775462698665958"><ele>604.0</ele><time>2026-03-22T09:58:21Z</time></trkpt><trkpt lat="42.18770310605916" lon="12.775364717677153"><ele>604.0</ele><time>2026-03-22T09:58:22Z</time></trkpt><trkpt lat="42.187766740674824" lon="12.775260888659643"><ele>604.0</ele><time>2026-03-22T09:58:23Z</time></trkpt><trkpt lat="42.18782737920313" lon="12.775142000035036"><ele>604.0</ele><time>2026-03-22T09:58:24Z</time></trkpt><trkpt lat="42.187889181226204" lon="12.775025228975089"><ele>604.0</ele><time>2026-03-22T09:58:25Z</time></trkpt><trkpt lat="42.18793783377728" lon="12.774929586853984"><ele>602.4285714285714</ele><time>2026-03-22T09:58:26Z</time></trkpt><trkpt lat="42.18797791444167" lon="12.774851196413591"><ele>600.8571428571429</ele><time>2026-03-22T09:58:27Z</time></trkpt><trkpt lat="42.18801336295555" lon="12.774777717216281"><ele>599.2857142857142</ele><time>2026-03-22T09:58:28Z</time></trkpt><trkpt lat="42.18805499787253" lon="12.77469540585984"><ele>597.7142857142858</ele><time>2026-03-22T09:58:29Z</time></trkpt><trkpt lat="42.18808462194823" lon="12.77460780601543"><ele>596.1428571428571</ele><time>2026-03-22T09:58:30Z</time></trkpt><trkpt lat="42.18811258794054" lon="12.774515658058354"><ele>594.5714285714286</ele><time>2026-03-22T09:58:31Z</time></trkpt><trkpt lat="42.18813804005225" lon="12.774429706044028"><ele>593.0</ele><time>2026-03-22T09:58:32Z</time></trkpt><trkpt lat="42.188174359787105" lon="12.774346554792265"><ele>594.4</ele><time>2026-03-22T09:58:33Z</time></trkpt><trkpt lat="42.18822415336679" lon="12.774241220217709"><ele>595.8</ele><time>2026-03-22T09:58:34Z</time></trkpt><trkpt lat="42.18829165094067" lon="12.7741260903449"><ele>597.2</ele><time>2026-03-22T09:58:35Z</time></trkpt><trkpt lat="42.1883660086076" lon="12.774013542206536"><ele>598.6</ele><time>2026-03-22T09:58:36Z</time></trkpt><trkpt lat="42.18844264989665" lon="12.773903095995113"><ele>600.0</ele><time>2026-03-22T09:58:37Z</time></trkpt><trkpt lat="42.18851161310409" lon="12.773804403084942"><ele>600.0</ele><time>2026-03-22T09:58:38Z</time></trkpt><trkpt lat="42.18856832756752" lon="12.773716756945976"><ele>600.0</ele><time>2026-03-22T09:58:39Z</time></trkpt><trkpt lat="42.18863233588958" lon="12.773628008917592"><ele>600.0</ele><time>2026-03-22T09:58:40Z</time></trkpt><trkpt lat="42.18869724878437" lon="12.773538067749012"><ele>600.0</ele><time>2026-03-22T09:58:41Z</time></trkpt><trkpt lat="42.18875496746349" lon="12.773447485545587"><ele>600.0</ele><time>2026-03-22T09:58:42Z</time></trkpt><trkpt lat="42.188811945308174" lon="12.773359567485054"><ele>600.0</ele><time>2026-03-22T09:58:43Z</time></trkpt><trkpt lat="42.18887384939207" lon="12.773266345555632"><ele>599.4</ele><time>2026-03-22T09:58:44Z</time></trkpt><trkpt lat="42.18893551155232" lon="12.773150614527463"><ele>598.8</ele><time>2026-03-22T09:58:45Z</time></trkpt><trkpt lat="42.18898790389748" lon="12.773043944097862"><ele>598.2</ele><time>2026-03-22T09:58:46Z</time></trkpt><trkpt lat="42.18903848033032" lon="12.77293966148554"><ele>597.6</ele><time>2026-03-22T09:58:47Z</time></trkpt><trkpt lat="42.18909604575508" lon="12.772812288501063"><ele>597.0</ele><time>2026-03-22T09:58:48Z</time></trkpt><trkpt lat="42.189159741487316" lon="12.772687370586825"><ele>596.2</ele><time>2026-03-22T09:58:49Z</time></trkpt><trkpt lat="42.18922383064539" lon="12.772577773407676"><ele>595.4000000000001</ele><time>2026-03-22T09:58:50Z</time></trkpt><trkpt lat="42.18927737039694" lon="12.772470721166325"><ele>594.5999999999999</ele><time>2026-03-22T09:58:51Z</time></trkpt><trkpt lat="42.18933694867943" lon="12.772356017969154"><ele>593.8</ele><time>2026-03-22T09:58:52Z</time></trkpt><trkpt lat="42.189414490995425" lon="12.772249463038778"><ele>593.0</ele><time>2026-03-22T09:58:53Z</time></trkpt><trkpt lat="42.189500650878884" lon="12.772149847984135"><ele>593.0</ele><time>2026-03-22T09:58:54Z</time></trkpt><trkpt lat="42.189576230123016" lon="12.772056496586014"><ele>593.0</ele><time>2026-03-22T09:58:55Z</time></trkpt><trkpt lat="42.18963525904482" lon="12.771967777052126"><ele>593.0</ele><time>2026-03-22T09:58:56Z</time></trkpt><trkpt lat="42.189680583445664" lon="12.771906227142248"><ele>593.0</ele><time>2026-03-22T09:58:57Z</time></trkpt><trkpt lat="42.18973140849208" lon="12.771851911558242"><ele>593.0</ele><time>2026-03-22T09:58:58Z</time></trkpt><trkpt lat="42.18978288705208" lon="12.771780608302693"><ele>593.0</ele><time>2026-03-22T09:58:59Z</time></trkpt><trkpt lat="42.18983420659916" lon="12.771714389644705"><ele>593.2857142857142</ele><time>2026-03-22T09:59:00Z</time></trkpt><trkpt lat="42.18989051065275" lon="12.7716475441806"><ele>593.5714285714286</ele><time>2026-03-22T09:59:01Z</time></trkpt><trkpt lat="42.18995297838899" lon="12.771545676423042"><ele>593.8571428571429</ele><time>2026-03-22T09:59:03Z</time></trkpt><trkpt lat="42.1900015136645" lon="12.771485046670204"><ele>594.1428571428571</ele><time>2026-03-22T09:59:06Z</time></trkpt><trkpt lat="42.19005386775072" lon="12.771432383099775"><ele>594.4285714285714</ele><time>2026-03-22T09:59:07Z</time></trkpt><trkpt lat="42.190107609924944" lon="12.771371891847215"><ele>594.7142857142857</ele><time>2026-03-22T09:59:09Z</time></trkpt><trkpt lat="42.190160795207746" lon="12.77130232945693"><ele>595.0</ele><time>2026-03-22T09:59:10Z</time></trkpt><trkpt lat="42.19019484318877" lon="12.771190510014694"><ele>595.0</ele><time>2026-03-22T09:59:12Z</time></trkpt><trkpt lat="42.19024087733518" lon="12.771113222848784"><ele>595.0</ele><time>2026-03-22T09:59:13Z</time></trkpt><trkpt lat="42.190300292098165" lon="12.771036534658048"><ele>595.0</ele><time>2026-03-22T09:59:15Z</time></trkpt><trkpt lat="42.19035285720402" lon="12.770975826976045"><ele>595.0</ele><time>2026-03-22T09:59:16.999Z</time></trkpt><trkpt lat="42.19039486067433" lon="12.770875315449617"><ele>595.0</ele><time>2026-03-22T09:59:19.999Z</time></trkpt><trkpt lat="42.1904366221229" lon="12.770769879057974"><ele>595.0</ele><time>2026-03-22T09:59:21.999Z</time></trkpt><trkpt lat="42.190495656125464" lon="12.770657121959525"><ele>594.3333333333334</ele><time>2026-03-22T09:59:23.999Z</time></trkpt><trkpt lat="42.19055485371748" lon="12.770547748704676"><ele>593.6666666666667</ele><time>2026-03-22T09:59:25.999Z</time></trkpt><trkpt lat="42.190601323544435" lon="12.770488566219303"><ele>593.0</ele><time>2026-03-22T09:59:26.999Z</time></trkpt><trkpt lat="42.19064763030643" lon="12.770421598426003"><ele>592.3333333333334</ele><time>2026-03-22T09:59:29.999Z</time></trkpt><trkpt lat="42.19069799316346" lon="12.77034224190687"><ele>591.6666666666666</ele><time>2026-03-22T09:59:31.999Z</time></trkpt><trkpt lat="42.19075551815602" lon="12.77023801814453"><ele>591.0</ele><time>2026-03-22T09:59:32.999Z</time></trkpt><trkpt lat="42.19083661593385" lon="12.7701401140039"><ele>591.0</ele><time>2026-03-22T09:59:33.999Z</time></trkpt><trkpt lat="42.19090597321494" lon="12.770063609705113"><ele>591.0</ele><time>2026-03-22T09:59:34.999Z</time></trkpt><trkpt lat="42.19096417484908" lon="12.770007439834583"><ele>591.0</ele><time>2026-03-22T09:59:35.999Z</time></trkpt><trkpt lat="42.19110187357852" lon="12.769946769173066"><ele>591.0</ele><time>2026-03-22T09:59:37.999Z</time></trkpt><trkpt lat="42.19117985178486" lon="12.769908264376953"><ele>591.0</ele><time>2026-03-22T09:59:38.999Z</time></trkpt><trkpt lat="42.19124118573003" lon="12.769854486613857"><ele>591.0</ele><time>2026-03-22T09:59:39.999Z</time></trkpt><trkpt lat="42.19135236938322" lon="12.769794225657868"><ele>591.0</ele><time>2026-03-22T09:59:41.999Z</time></trkpt><trkpt lat="42.19144985024995" lon="12.769777853334883"><ele>591.0</ele><time>2026-03-22T09:59:42.999Z</time></trkpt><trkpt lat="42.19158894725664" lon="12.769724719298356"><ele>591.0</ele><time>2026-03-22T09:59:43.999Z</time></trkpt><trkpt lat="42.19168857280024" lon="12.769706056538874"><ele>587.4</ele><time>2026-03-22T09:59:44.999Z</time></trkpt><trkpt lat="42.19178936048651" lon="12.769700077510826"><ele>583.8</ele><time>2026-03-22T09:59:45.999Z</time></trkpt><trkpt lat="42.19188206488549" lon="12.76968263251526"><ele>580.1999999999999</ele><time>2026-03-22T09:59:46.999Z</time></trkpt><trkpt lat="42.19195697575719" lon="12.769653563595075"><ele>576.6</ele><time>2026-03-22T09:59:47.999Z</time></trkpt><trkpt lat="42.19204499912641" lon="12.769634021112559"><ele>573.0</ele><time>2026-03-22T09:59:48.999Z</time></trkpt><trkpt lat="42.19214925866822" lon="12.769611165861521"><ele>573.0</ele><time>2026-03-22T09:59:50Z</time></trkpt><trkpt lat="42.19221455523636" lon="12.769577725110413"><ele>573.0</ele><time>2026-03-22T09:59:51Z</time></trkpt><trkpt lat="42.19236314894423" lon="12.769512872288049"><ele>573.0</ele><time>2026-03-22T09:59:53Z</time></trkpt><trkpt lat="42.192458279157556" lon="12.769447202308317"><ele>573.0</ele><time>2026-03-22T09:59:54Z</time></trkpt><trkpt lat="42.19252933769399" lon="12.769365616265857"><ele>573.0</ele><time>2026-03-22T09:59:55Z</time></trkpt><trkpt lat="42.19257461388783" lon="12.76927184617064"><ele>573.8333333333334</ele><time>2026-03-22T09:59:56Z</time></trkpt><trkpt lat="42.192595651106046" lon="12.769174608524763"><ele>574.6666666666666</ele><time>2026-03-22T09:59:57Z</time></trkpt><trkpt lat="42.19262476367648" lon="12.769068752678644"><ele>575.5</ele><time>2026-03-22T09:59:58Z</time></trkpt><trkpt lat="42.19263619760351" lon="12.76896020589483"><ele>576.3333333333333</ele><time>2026-03-22T09:59:59Z</time></trkpt><trkpt lat="42.192629142031215" lon="12.768844838967931"><ele>577.1666666666666</ele><time>2026-03-22T10:00:00Z</time></trkpt><trkpt lat="42.19269903057819" lon="12.768710766219167"><ele>578.0</ele><time>2026-03-22T10:00:02Z</time></trkpt><trkpt lat="42.192751877862854" lon="12.768613790278684"><ele>578.0</ele><time>2026-03-22T10:00:04Z</time></trkpt><trkpt lat="42.192809385841315" lon="12.768548204091417"><ele>578.0</ele><time>2026-03-22T10:00:06Z</time></trkpt><trkpt lat="42.19288129121122" lon="12.76842620392115"><ele>578.0</ele><time>2026-03-22T10:00:08Z</time></trkpt><trkpt lat="42.192935981573655" lon="12.768355596825808"><ele>578.0</ele><time>2026-03-22T10:00:09Z</time></trkpt><trkpt lat="42.19298407774613" lon="12.768298538027569"><ele>578.0</ele><time>2026-03-22T10:00:10Z</time></trkpt><trkpt lat="42.19308389708607" lon="12.768179478709397"><ele>575.5</ele><time>2026-03-22T10:00:12Z</time></trkpt><trkpt lat="42.19315679571657" lon="12.768103646904196"><ele>573.0</ele><time>2026-03-22T10:00:13Z</time></trkpt><trkpt lat="42.19321522057286" lon="12.76803909586636"><ele>570.5</ele><time>2026-03-22T10:00:14Z</time></trkpt><trkpt lat="42.19326057433857" lon="12.767963562235868"><ele>568.0</ele><time>2026-03-22T10:00:15Z</time></trkpt><trkpt lat="42.19330188755793" lon="12.76788499933737"><ele>565.5</ele><time>2026-03-22T10:00:16Z</time></trkpt><trkpt lat="42.19335995218223" lon="12.767808988591861"><ele>563.0</ele><time>2026-03-22T10:00:17Z</time></trkpt><trkpt lat="42.193420607950735" lon="12.76771755538233"><ele>565.4</ele><time>2026-03-22T10:00:18Z</time></trkpt><trkpt lat="42.193487510236544" lon="12.767628497397453"><ele>567.8</ele><time>2026-03-22T10:00:19Z</time></trkpt><trkpt lat="42.193540302087506" lon="12.767551299297489"><ele>570.2</ele><time>2026-03-22T10:00:20Z</time></trkpt><trkpt lat="42.1936043944586" lon="12.767475395736952"><ele>572.6</ele><time>2026-03-22T10:00:21Z</time></trkpt><trkpt lat="42.193650884726026" lon="12.76740681368049"><ele>575.0</ele><time>2026-03-22T10:00:22Z</time></trkpt><trkpt lat="42.193692973847156" lon="12.767234187090894"><ele>575.0</ele><time>2026-03-22T10:00:24Z</time></trkpt><trkpt lat="42.19371727335987" lon="12.767107876962402"><ele>575.0</ele><time>2026-03-22T10:00:25Z</time></trkpt><trkpt lat="42.19375181074635" lon="12.766995779447873"><ele>575.0</ele><time>2026-03-22T10:00:26Z</time></trkpt><trkpt lat="42.19378436779955" lon="12.76687640973032"><ele>575.0</ele><time>2026-03-22T10:00:27Z</time></trkpt><trkpt lat="42.1938074746857" lon="12.766738203179836"><ele>575.0</ele><time>2026-03-22T10:00:28Z</time></trkpt><trkpt lat="42.19383968965613" lon="12.766643393243017"><ele>577.6666666666666</ele><time>2026-03-22T10:00:29Z</time></trkpt><trkpt lat="42.193869561060374" lon="12.766540262776891"><ele>580.3333333333333</ele><time>2026-03-22T10:00:30Z</time></trkpt><trkpt lat="42.193939231679366" lon="12.766449798386272"><ele>583.0</ele><time>2026-03-22T10:00:31Z</time></trkpt><trkpt lat="42.193981674119485" lon="12.766354753317303"><ele>585.6666666666666</ele><time>2026-03-22T10:00:32Z</time></trkpt><trkpt lat="42.194024796795986" lon="12.766249538808234"><ele>588.3333333333334</ele><time>2026-03-22T10:00:33Z</time></trkpt><trkpt lat="42.19407153182027" lon="12.766161062230047"><ele>591.0</ele><time>2026-03-22T10:00:34Z</time></trkpt><trkpt lat="42.194120620247375" lon="12.7660588959982"><ele>586.4</ele><time>2026-03-22T10:00:35Z</time></trkpt><trkpt lat="42.19419886479094" lon="12.765962748946409"><ele>581.8</ele><time>2026-03-22T10:00:36Z</time></trkpt><trkpt lat="42.194279082791965" lon="12.765880819221493"><ele>577.1999999999999</ele><time>2026-03-22T10:00:37Z</time></trkpt><trkpt lat="42.194378128642235" lon="12.765774504598769"><ele>572.6</ele><time>2026-03-22T10:00:38Z</time></trkpt><trkpt lat="42.19445502595344" lon="12.765685449801621"><ele>568.0</ele><time>2026-03-22T10:00:39Z</time></trkpt><trkpt lat="42.19452173207819" lon="12.765615451155574"><ele>568.0</ele><time>2026-03-22T10:00:40Z</time></trkpt><trkpt lat="42.19458046403019" lon="12.765549534554923"><ele>568.0</ele><time>2026-03-22T10:00:41Z</time></trkpt><trkpt lat="42.19464738275005" lon="12.765495627135879"><ele>568.0</ele><time>2026-03-22T10:00:42Z</time></trkpt><trkpt lat="42.19471420778663" lon="12.765441371415337"><ele>568.0</ele><time>2026-03-22T10:00:43Z</time></trkpt><trkpt lat="42.19478853997147" lon="12.765422466791623"><ele>568.0</ele><time>2026-03-22T10:00:44Z</time></trkpt><trkpt lat="42.194871071819676" lon="12.765397731394211"><ele>568.0</ele><time>2026-03-22T10:00:46Z</time></trkpt><trkpt lat="42.19498979697525" lon="12.765406409813929"><ele>563.1666666666667</ele><time>2026-03-22T10:00:48Z</time></trkpt><trkpt lat="42.19505835183785" lon="12.765407581685825"><ele>558.3333333333334</ele><time>2026-03-22T10:00:49Z</time></trkpt><trkpt lat="42.19514403082359" lon="12.76541062529085"><ele>553.5</ele><time>2026-03-22T10:00:50Z</time></trkpt><trkpt lat="42.19522475668575" lon="12.76540867442291"><ele>548.6666666666666</ele><time>2026-03-22T10:00:51Z</time></trkpt><trkpt lat="42.19530640014194" lon="12.765422754783309"><ele>543.8333333333333</ele><time>2026-03-22T10:00:52Z</time></trkpt><trkpt lat="42.19538681681515" lon="12.765397788280971"><ele>539.0</ele><time>2026-03-22T10:00:53Z</time></trkpt><trkpt lat="42.195460480268565" lon="12.765385552679247"><ele>539.0</ele><time>2026-03-22T10:00:54Z</time></trkpt><trkpt lat="42.195550399226356" lon="12.765361301784823"><ele>539.0</ele><time>2026-03-22T10:00:55Z</time></trkpt><trkpt lat="42.19559842272086" lon="12.765292721892623"><ele>539.0</ele><time>2026-03-22T10:00:56Z</time></trkpt><trkpt lat="42.19567425230097" lon="12.765270188742585"><ele>539.0</ele><time>2026-03-22T10:00:57Z</time></trkpt><trkpt lat="42.19575132067707" lon="12.765225479327956"><ele>539.0</ele><time>2026-03-22T10:00:58Z</time></trkpt><trkpt lat="42.195837269293335" lon="12.76517390888777"><ele>539.0</ele><time>2026-03-22T10:00:59Z</time></trkpt><trkpt lat="42.19592151979874" lon="12.765095670400713"><ele>538.1666666666666</ele><time>2026-03-22T10:01:00Z</time></trkpt><trkpt lat="42.195991637962216" lon="12.765030381796244"><ele>537.3333333333333</ele><time>2026-03-22T10:01:01Z</time></trkpt><trkpt lat="42.19607189103784" lon="12.764969417002686"><ele>536.5</ele><time>2026-03-22T10:01:02Z</time></trkpt><trkpt lat="42.196156204412866" lon="12.764933217716964"><ele>535.6666666666666</ele><time>2026-03-22T10:01:03Z</time></trkpt><trkpt lat="42.196214197685215" lon="12.764874019064475"><ele>534.8333333333334</ele><time>2026-03-22T10:01:04Z</time></trkpt><trkpt lat="42.196256104234955" lon="12.764791967045342"><ele>534.0</ele><time>2026-03-22T10:01:05Z</time></trkpt><trkpt lat="42.19630254044985" lon="12.764686614289545"><ele>534.0</ele><time>2026-03-22T10:01:06Z</time></trkpt><trkpt lat="42.19639357850039" lon="12.764547183032676"><ele>534.0</ele><time>2026-03-22T10:01:08Z</time></trkpt><trkpt lat="42.1964759476736" lon="12.764479176647663"><ele>534.0</ele><time>2026-03-22T10:01:09Z</time></trkpt><trkpt lat="42.19656229062769" lon="12.764433016992433"><ele>534.0</ele><time>2026-03-22T10:01:10Z</time></trkpt><trkpt lat="42.196642401531626" lon="12.76439746487475"><ele>534.0</ele><time>2026-03-22T10:01:11Z</time></trkpt><trkpt lat="42.19670737363635" lon="12.76433319796037"><ele>531.4</ele><time>2026-03-22T10:01:12Z</time></trkpt><trkpt lat="42.19681121285413" lon="12.76423456423638"><ele>528.8</ele><time>2026-03-22T10:01:13Z</time></trkpt><trkpt lat="42.19685399585732" lon="12.764151056280905"><ele>526.2</ele><time>2026-03-22T10:01:14Z</time></trkpt><trkpt lat="42.19690626047649" lon="12.764059991868796"><ele>523.6</ele><time>2026-03-22T10:01:15Z</time></trkpt><trkpt lat="42.19696118311524" lon="12.763946329920353"><ele>521.0</ele><time>2026-03-22T10:01:16Z</time></trkpt><trkpt lat="42.19703621928624" lon="12.763832612101567"><ele>521.0</ele><time>2026-03-22T10:01:17Z</time></trkpt><trkpt lat="42.19713116709587" lon="12.763744785705923"><ele>521.0</ele><time>2026-03-22T10:01:18Z</time></trkpt><trkpt lat="42.197212108835025" lon="12.76367016627669"><ele>521.0</ele><time>2026-03-22T10:01:19Z</time></trkpt><trkpt lat="42.19729778383643" lon="12.763611608864199"><ele>521.0</ele><time>2026-03-22T10:01:20Z</time></trkpt><trkpt lat="42.197370758404354" lon="12.763516128520088"><ele>521.0</ele><time>2026-03-22T10:01:20.999Z</time></trkpt><trkpt lat="42.19740534808258" lon="12.763407744241638"><ele>516.6</ele><time>2026-03-22T10:01:21.999Z</time></trkpt><trkpt lat="42.19743610016827" lon="12.7633101873669"><ele>512.2</ele><time>2026-03-22T10:01:22.999Z</time></trkpt><trkpt lat="42.19739912316692" lon="12.76321112665775"><ele>507.79999999999995</ele><time>2026-03-22T10:01:23.999Z</time></trkpt><trkpt lat="42.19734891701438" lon="12.763018836498144"><ele>503.4</ele><time>2026-03-22T10:01:25.999Z</time></trkpt><trkpt lat="42.197344690213896" lon="12.762875979956599"><ele>499.0</ele><time>2026-03-22T10:01:26.999Z</time></trkpt><trkpt lat="42.197358589183594" lon="12.762767979991766"><ele>499.50000000000006</ele><time>2026-03-22T10:01:27.999Z</time></trkpt><trkpt lat="42.19737107961151" lon="12.762663261754623"><ele>500.0</ele><time>2026-03-22T10:01:28.999Z</time></trkpt><trkpt lat="42.19739125100541" lon="12.762569657410967"><ele>500.5</ele><time>2026-03-22T10:01:29.999Z</time></trkpt><trkpt lat="42.19743193513144" lon="12.762431797852107"><ele>501.0</ele><time>2026-03-22T10:01:31.999Z</time></trkpt><trkpt lat="42.19747600724491" lon="12.762340464156553"><ele>501.50000000000006</ele><time>2026-03-22T10:01:38.999Z</time></trkpt><trkpt lat="42.197485054729064" lon="12.762255816226617"><ele>502.0</ele><time>2026-03-22T10:01:39.999Z</time></trkpt><trkpt lat="42.197528105284704" lon="12.76214881633712"><ele>502.00000000000006</ele><time>2026-03-22T10:01:41.999Z</time></trkpt><trkpt lat="42.197602693460055" lon="12.76206093979421"><ele>502.0</ele><time>2026-03-22T10:01:43.999Z</time></trkpt><trkpt lat="42.19768129050029" lon="12.76203456240802"><ele>502.0</ele><time>2026-03-22T10:01:48.999Z</time></trkpt><trkpt lat="42.19774805591328" lon="12.761983628740348"><ele>502.0</ele><time>2026-03-22T10:01:52.999Z</time></trkpt><trkpt lat="42.19782467447875" lon="12.761952140572133"><ele>502.00000000000006</ele><time>2026-03-22T10:01:58Z</time></trkpt><trkpt lat="42.19789869153257" lon="12.76193224185327"><ele>502.0</ele><time>2026-03-22T10:02:00Z</time></trkpt><trkpt lat="42.19797344376389" lon="12.76191793950614"><ele>502.00000000000006</ele><time>2026-03-22T10:02:03Z</time></trkpt><trkpt lat="42.198050068270796" lon="12.76186730194962"><ele>502.0</ele><time>2026-03-22T10:02:09Z</time></trkpt><trkpt lat="42.19811436076978" lon="12.7617925915234"><ele>502.0</ele><time>2026-03-22T10:02:12Z</time></trkpt><trkpt lat="42.19817340829039" lon="12.761715314355865"><ele>502.0</ele><time>2026-03-22T10:02:15Z</time></trkpt><trkpt lat="42.1982312687472" lon="12.761651135042603"><ele>502.00000000000006</ele><time>2026-03-22T10:02:17Z</time></trkpt><trkpt lat="42.198280116464865" lon="12.761554007102673"><ele>502.0</ele><time>2026-03-22T10:02:19Z</time></trkpt><trkpt lat="42.19832791169769" lon="12.761447094849013"><ele>503.00000000000006</ele><time>2026-03-22T10:02:21Z</time></trkpt><trkpt lat="42.19835392434722" lon="12.761315698249076"><ele>504.0</ele><time>2026-03-22T10:02:23Z</time></trkpt><trkpt lat="42.198408073819124" lon="12.761210093692808"><ele>505.0</ele><time>2026-03-22T10:02:25Z</time></trkpt><trkpt lat="42.19843297254384" lon="12.761108493866463"><ele>506.0</ele><time>2026-03-22T10:02:27Z</time></trkpt><trkpt lat="42.198442613431915" lon="12.761005820256267"><ele>507.00000000000006</ele><time>2026-03-22T10:02:29Z</time></trkpt><trkpt lat="42.19847140317339" lon="12.760906983528365"><ele>508.0</ele><time>2026-03-22T10:02:31Z</time></trkpt><trkpt lat="42.19845246702802" lon="12.760814446118909"><ele>513.3333333333334</ele><time>2026-03-22T10:02:33Z</time></trkpt><trkpt lat="42.198474697391916" lon="12.76069269287108"><ele>518.6666666666667</ele><time>2026-03-22T10:02:37Z</time></trkpt><trkpt lat="42.1985183416835" lon="12.760630647589853"><ele>524.0</ele><time>2026-03-22T10:03:30.999Z</time></trkpt><trkpt lat="42.198446147195256" lon="12.760635661120707"><ele>529.3333333333334</ele><time>2026-03-22T10:04:54Z</time></trkpt><trkpt lat="42.19836652462562" lon="12.760692299110913"><ele>534.6666666666666</ele><time>2026-03-22T10:04:56Z</time></trkpt><trkpt lat="42.19829048837842" lon="12.76073659871749"><ele>540.0</ele><time>2026-03-22T10:04:59Z</time></trkpt><trkpt lat="42.19837443154921" lon="12.760646601136445"><ele>540.0</ele><time>2026-03-22T10:08:44Z</time></trkpt><trkpt lat="42.198437794889394" lon="12.76053863163047"><ele>540.0</ele><time>2026-03-22T10:08:56Z</time></trkpt><trkpt lat="42.19846534458403" lon="12.760385448567627"><ele>540.0</ele><time>2026-03-22T10:08:58Z</time></trkpt><trkpt lat="42.1985248473513" lon="12.76025571237314"><ele>540.0</ele><time>2026-03-22T10:09:00Z</time></trkpt><trkpt lat="42.198574205248654" lon="12.760156586896839"><ele>540.0</ele><time>2026-03-22T10:09:02Z</time></trkpt><trkpt lat="42.19863070851699" lon="12.760050708515422"><ele>544.8</ele><time>2026-03-22T10:09:04Z</time></trkpt><trkpt lat="42.19867403126642" lon="12.759911742811681"><ele>549.6</ele><time>2026-03-22T10:09:06Z</time></trkpt><trkpt lat="42.198721871697465" lon="12.75982139348306"><ele>554.4</ele><time>2026-03-22T10:09:07Z</time></trkpt><trkpt lat="42.198765112705466" lon="12.759717829746544"><ele>559.2</ele><time>2026-03-22T10:09:08Z</time></trkpt><trkpt lat="42.19881157410024" lon="12.759573590457354"><ele>564.0</ele><time>2026-03-22T10:09:10Z</time></trkpt><trkpt lat="42.19883923712469" lon="12.75947928669489"><ele>564.0</ele><time>2026-03-22T10:09:11Z</time></trkpt><trkpt lat="42.198876053871565" lon="12.759390857463119"><ele>564.0</ele><time>2026-03-22T10:09:12Z</time></trkpt><trkpt lat="42.1989009075047" lon="12.759240466792432"><ele>564.0</ele><time>2026-03-22T10:09:14Z</time></trkpt><trkpt lat="42.19891414562532" lon="12.75915710309632"><ele>564.0</ele><time>2026-03-22T10:09:15Z</time></trkpt><trkpt lat="42.198936054762854" lon="12.759059089511474"><ele>564.0</ele><time>2026-03-22T10:09:16Z</time></trkpt><trkpt lat="42.19895632539136" lon="12.758970894867513"><ele>564.0</ele><time>2026-03-22T10:09:17Z</time></trkpt><trkpt lat="42.19897886047917" lon="12.758887653001675"><ele>561.3333333333334</ele><time>2026-03-22T10:09:18Z</time></trkpt><trkpt lat="42.19900114074434" lon="12.75879999154652"><ele>558.6666666666666</ele><time>2026-03-22T10:09:19Z</time></trkpt><trkpt lat="42.19902587166501" lon="12.75870471707573"><ele>556.0</ele><time>2026-03-22T10:09:20Z</time></trkpt><trkpt lat="42.199056736650036" lon="12.758616360603082"><ele>553.3333333333333</ele><time>2026-03-22T10:09:21Z</time></trkpt><trkpt lat="42.19908802142002" lon="12.758522757805835"><ele>550.6666666666666</ele><time>2026-03-22T10:09:22Z</time></trkpt><trkpt lat="42.1991303277981" lon="12.758368490147738"><ele>548.0</ele><time>2026-03-22T10:09:24Z</time></trkpt><trkpt lat="42.19915676012148" lon="12.758281446341913"><ele>548.0</ele><time>2026-03-22T10:09:25Z</time></trkpt><trkpt lat="42.19918677771733" lon="12.758166774674581"><ele>548.0</ele><time>2026-03-22T10:09:27Z</time></trkpt><trkpt lat="42.19921761070025" lon="12.758083785930914"><ele>548.0</ele><time>2026-03-22T10:09:29Z</time></trkpt><trkpt lat="42.19923789283649" lon="12.757928625022288"><ele>548.0</ele><time>2026-03-22T10:09:31Z</time></trkpt><trkpt lat="42.199266598738035" lon="12.757838464122681"><ele>548.0</ele><time>2026-03-22T10:09:32Z</time></trkpt><trkpt lat="42.19928640494463" lon="12.757747696676923"><ele>548.0</ele><time>2026-03-22T10:09:33Z</time></trkpt><trkpt lat="42.19933872150728" lon="12.757659819471696"><ele>550.8</ele><time>2026-03-22T10:09:34Z</time></trkpt><trkpt lat="42.19936728336713" lon="12.757523657272515"><ele>553.5999999999999</ele><time>2026-03-22T10:09:36Z</time></trkpt><trkpt lat="42.199424940148354" lon="12.75740294823822"><ele>556.4000000000001</ele><time>2026-03-22T10:09:37.999Z</time></trkpt><trkpt lat="42.19944125874022" lon="12.757282801708222"><ele>559.2</ele><time>2026-03-22T10:09:39.999Z</time></trkpt><trkpt lat="42.199460568141724" lon="12.757130592369094"><ele>562.0</ele><time>2026-03-22T10:09:41.999Z</time></trkpt><trkpt lat="42.199499781370335" lon="12.757055220882929"><ele>562.0</ele><time>2026-03-22T10:09:42.999Z</time></trkpt><trkpt lat="42.19951962494417" lon="12.756929947424085"><ele>562.0</ele><time>2026-03-22T10:09:44.999Z</time></trkpt><trkpt lat="42.19954952751202" lon="12.756851918825465"><ele>562.0</ele><time>2026-03-22T10:09:45.999Z</time></trkpt><trkpt lat="42.19956976260073" lon="12.756770958538539"><ele>562.0</ele><time>2026-03-22T10:09:46.999Z</time></trkpt><trkpt lat="42.19959481630579" lon="12.756632520916096"><ele>562.0</ele><time>2026-03-22T10:09:48.999Z</time></trkpt><trkpt lat="42.199635742352335" lon="12.756506375164035"><ele>562.0</ele><time>2026-03-22T10:09:50.999Z</time></trkpt><trkpt lat="42.19965544217556" lon="12.756416980561253"><ele>565.4</ele><time>2026-03-22T10:09:51.999Z</time></trkpt><trkpt lat="42.19967170948347" lon="12.75631805916808"><ele>568.8000000000001</ele><time>2026-03-22T10:09:52.999Z</time></trkpt><trkpt lat="42.19970118623202" lon="12.75619742093281"><ele>572.2</ele><time>2026-03-22T10:09:53.999Z</time></trkpt><trkpt lat="42.19975435399119" lon="12.756061455421804"><ele>575.6</ele><time>2026-03-22T10:09:54.999Z</time></trkpt><trkpt lat="42.19978935154466" lon="12.755959122196385"><ele>579.0</ele><time>2026-03-22T10:09:55.999Z</time></trkpt><trkpt lat="42.19983838435145" lon="12.755858658926895"><ele>571.5</ele><time>2026-03-22T10:09:56.999Z</time></trkpt><trkpt lat="42.19987256503034" lon="12.755758834436637"><ele>564.0</ele><time>2026-03-22T10:09:57.999Z</time></trkpt><trkpt lat="42.199922260489956" lon="12.755646013787556"><ele>556.5</ele><time>2026-03-22T10:09:58.999Z</time></trkpt><trkpt lat="42.19995842721198" lon="12.755539587514136"><ele>549.0</ele><time>2026-03-22T10:09:59.999Z</time></trkpt><trkpt lat="42.20000281580512" lon="12.755442400980094"><ele>541.5</ele><time>2026-03-22T10:10:00.999Z</time></trkpt><trkpt lat="42.20003306053063" lon="12.755364832925544"><ele>534.0</ele><time>2026-03-22T10:10:01.999Z</time></trkpt><trkpt lat="42.200134314124455" lon="12.755205430122594"><ele>537.5</ele><time>2026-03-22T10:10:03.999Z</time></trkpt><trkpt lat="42.200184610093196" lon="12.75510159081642"><ele>541.0</ele><time>2026-03-22T10:10:04.999Z</time></trkpt><trkpt lat="42.200239673450525" lon="12.754994042554864"><ele>544.5</ele><time>2026-03-22T10:10:05.999Z</time></trkpt><trkpt lat="42.20029423068987" lon="12.75488789439887"><ele>548.0</ele><time>2026-03-22T10:10:06.999Z</time></trkpt><trkpt lat="42.2003504354214" lon="12.75480982515875"><ele>551.5</ele><time>2026-03-22T10:10:07.999Z</time></trkpt><trkpt lat="42.20039534090692" lon="12.7547216224802"><ele>555.0</ele><time>2026-03-22T10:10:08.999Z</time></trkpt><trkpt lat="42.20043609227164" lon="12.754641904999596"><ele>555.0</ele><time>2026-03-22T10:10:09.999Z</time></trkpt><trkpt lat="42.20048313924271" lon="12.754578429522255"><ele>555.0</ele><time>2026-03-22T10:10:10.999Z</time></trkpt><trkpt lat="42.2005302893149" lon="12.754501301115909"><ele>555.0</ele><time>2026-03-22T10:10:11.999Z</time></trkpt><trkpt lat="42.200547982251315" lon="12.754404325693303"><ele>555.0</ele><time>2026-03-22T10:10:12.999Z</time></trkpt><trkpt lat="42.2006267455698" lon="12.754267837769918"><ele>555.0</ele><time>2026-03-22T10:10:14.999Z</time></trkpt><trkpt lat="42.200679504730765" lon="12.754191575616716"><ele>555.0</ele><time>2026-03-22T10:10:15.999Z</time></trkpt><trkpt lat="42.200720811962185" lon="12.754104489583284"><ele>551.1666666666666</ele><time>2026-03-22T10:10:16.999Z</time></trkpt><trkpt lat="42.200765511662105" lon="12.754016689345441"><ele>547.3333333333334</ele><time>2026-03-22T10:10:17.999Z</time></trkpt><trkpt lat="42.200802717299595" lon="12.753928646856114"><ele>543.5</ele><time>2026-03-22T10:10:19Z</time></trkpt><trkpt lat="42.20084121931827" lon="12.753845892958813"><ele>539.6666666666667</ele><time>2026-03-22T10:10:20Z</time></trkpt><trkpt lat="42.200880114604544" lon="12.753763187742623"><ele>535.8333333333334</ele><time>2026-03-22T10:10:21Z</time></trkpt><trkpt lat="42.20092111987172" lon="12.753696196859176"><ele>532.0</ele><time>2026-03-22T10:10:22Z</time></trkpt><trkpt lat="42.200965288612146" lon="12.75357647807585"><ele>536.4</ele><time>2026-03-22T10:10:24Z</time></trkpt><trkpt lat="42.20104413342017" lon="12.753453689130113"><ele>540.8000000000001</ele><time>2026-03-22T10:10:26Z</time></trkpt><trkpt lat="42.201086666753206" lon="12.753376168370474"><ele>545.2</ele><time>2026-03-22T10:10:27Z</time></trkpt><trkpt lat="42.201147448676906" lon="12.753272997601524"><ele>549.6</ele><time>2026-03-22T10:10:28Z</time></trkpt><trkpt lat="42.20118876377467" lon="12.7531713896622"><ele>554.0</ele><time>2026-03-22T10:10:29Z</time></trkpt><trkpt lat="42.20120646777662" lon="12.753061275384887"><ele>554.0</ele><time>2026-03-22T10:10:30Z</time></trkpt><trkpt lat="42.2012538345691" lon="12.752957074659719"><ele>554.0</ele><time>2026-03-22T10:10:31Z</time></trkpt><trkpt lat="42.20130169727108" lon="12.752837362043879"><ele>554.0</ele><time>2026-03-22T10:10:32Z</time></trkpt><trkpt lat="42.2013495729861" lon="12.75274678660237"><ele>554.0</ele><time>2026-03-22T10:10:33Z</time></trkpt><trkpt lat="42.201392101640614" lon="12.752658012473002"><ele>554.0</ele><time>2026-03-22T10:10:34Z</time></trkpt><trkpt lat="42.201418735097754" lon="12.752563353529347"><ele>554.0</ele><time>2026-03-22T10:10:35Z</time></trkpt><trkpt lat="42.2014742379134" lon="12.752462240722567"><ele>553.1666666666666</ele><time>2026-03-22T10:10:36Z</time></trkpt><trkpt lat="42.20153042350464" lon="12.752331079983076"><ele>552.3333333333333</ele><time>2026-03-22T10:10:37Z</time></trkpt><trkpt lat="42.20157534254986" lon="12.75222230665293"><ele>551.5</ele><time>2026-03-22T10:10:38Z</time></trkpt><trkpt lat="42.20162218006309" lon="12.752113588575641"><ele>550.6666666666666</ele><time>2026-03-22T10:10:39Z</time></trkpt><trkpt lat="42.20167029653872" lon="12.752026788623505"><ele>549.8333333333334</ele><time>2026-03-22T10:10:40Z</time></trkpt><trkpt lat="42.20169833262534" lon="12.751944769837248"><ele>549.0</ele><time>2026-03-22T10:10:41Z</time></trkpt><trkpt lat="42.20175439389888" lon="12.751867242889304"><ele>549.0</ele><time>2026-03-22T10:10:42Z</time></trkpt><trkpt lat="42.20179226001766" lon="12.751786558144612"><ele>549.0</ele><time>2026-03-22T10:10:43Z</time></trkpt><trkpt lat="42.20183455764501" lon="12.751699913674798"><ele>549.0</ele><time>2026-03-22T10:10:44Z</time></trkpt><trkpt lat="42.2018699212858" lon="12.751608071339962"><ele>549.0</ele><time>2026-03-22T10:10:45Z</time></trkpt><trkpt lat="42.20191539041774" lon="12.751540781399969"><ele>549.0</ele><time>2026-03-22T10:10:46Z</time></trkpt><trkpt lat="42.201985293418645" lon="12.751401111193868"><ele>549.0</ele><time>2026-03-22T10:10:48Z</time></trkpt><trkpt lat="42.20204241864144" lon="12.751341004094066"><ele>549.0</ele><time>2026-03-22T10:10:49Z</time></trkpt><trkpt lat="42.202105690872465" lon="12.751206359120593"><ele>549.0</ele><time>2026-03-22T10:10:51Z</time></trkpt><trkpt lat="42.202166523222694" lon="12.751145246640048"><ele>549.0</ele><time>2026-03-22T10:10:52Z</time></trkpt><trkpt lat="42.20221493343375" lon="12.751053644437759"><ele>549.0</ele><time>2026-03-22T10:10:53Z</time></trkpt><trkpt lat="42.202258432564314" lon="12.750973762088364"><ele>549.0</ele><time>2026-03-22T10:10:54Z</time></trkpt><trkpt lat="42.202294541111264" lon="12.750903421285111"><ele>549.0</ele><time>2026-03-22T10:10:55Z</time></trkpt><trkpt lat="42.202347759331104" lon="12.750821803655219"><ele>543.2</ele><time>2026-03-22T10:10:56Z</time></trkpt><trkpt lat="42.20239270238732" lon="12.750741331053113"><ele>537.4</ele><time>2026-03-22T10:10:57Z</time></trkpt><trkpt lat="42.20244210888099" lon="12.750653150256769"><ele>531.6</ele><time>2026-03-22T10:10:58Z</time></trkpt><trkpt lat="42.20249971332165" lon="12.750560420274542"><ele>525.8</ele><time>2026-03-22T10:10:59Z</time></trkpt><trkpt lat="42.20254864574954" lon="12.750444967725844"><ele>520.0</ele><time>2026-03-22T10:11:01Z</time></trkpt><trkpt lat="42.20258177270161" lon="12.750292596137456"><ele>524.1666666666667</ele><time>2026-03-22T10:11:03Z</time></trkpt><trkpt lat="42.20262683777749" lon="12.750187057691662"><ele>528.3333333333334</ele><time>2026-03-22T10:11:04Z</time></trkpt><trkpt lat="42.20267634487844" lon="12.750100309091287"><ele>532.5</ele><time>2026-03-22T10:11:05Z</time></trkpt><trkpt lat="42.20274039005607" lon="12.750008708989343"><ele>536.6666666666666</ele><time>2026-03-22T10:11:06Z</time></trkpt><trkpt lat="42.20277845079692" lon="12.749922628731047"><ele>540.8333333333333</ele><time>2026-03-22T10:11:07Z</time></trkpt><trkpt lat="42.20280307175164" lon="12.74981336903488"><ele>545.0</ele><time>2026-03-22T10:11:09Z</time></trkpt><trkpt lat="42.20289024048387" lon="12.74972892870663"><ele>545.0</ele><time>2026-03-22T10:11:11Z</time></trkpt><trkpt lat="42.202968481787046" lon="12.74966791042466"><ele>545.0</ele><time>2026-03-22T10:11:12Z</time></trkpt><trkpt lat="42.20306529375735" lon="12.749565484121886"><ele>545.0</ele><time>2026-03-22T10:11:13Z</time></trkpt><trkpt lat="42.20316107967869" lon="12.749495044166713"><ele>545.0</ele><time>2026-03-22T10:11:14Z</time></trkpt><trkpt lat="42.20324287823293" lon="12.749432280634275"><ele>545.0</ele><time>2026-03-22T10:11:15Z</time></trkpt><trkpt lat="42.20332151039826" lon="12.749346053177781"><ele>542.4</ele><time>2026-03-22T10:11:16Z</time></trkpt><trkpt lat="42.20343806113486" lon="12.749255764263927"><ele>539.8</ele><time>2026-03-22T10:11:17Z</time></trkpt><trkpt lat="42.203533836119725" lon="12.749160862271438"><ele>537.2</ele><time>2026-03-22T10:11:18Z</time></trkpt><trkpt lat="42.20356620840859" lon="12.749087358250994"><ele>534.6</ele><time>2026-03-22T10:11:19Z</time></trkpt><trkpt lat="42.203612656455434" lon="12.748980247812424"><ele>532.0</ele><time>2026-03-22T10:11:21Z</time></trkpt><trkpt lat="42.203670271370086" lon="12.748861802983457"><ele>532.0</ele><time>2026-03-22T10:11:23Z</time></trkpt><trkpt lat="42.2037068828372" lon="12.748772177802929"><ele>532.0</ele><time>2026-03-22T10:11:24Z</time></trkpt><trkpt lat="42.20373057234491" lon="12.748629556807801"><ele>532.0</ele><time>2026-03-22T10:11:26Z</time></trkpt><trkpt lat="42.20378395172912" lon="12.748565135718023"><ele>532.0</ele><time>2026-03-22T10:11:29Z</time></trkpt><trkpt lat="42.20384943861817" lon="12.748500660594438"><ele>532.0</ele><time>2026-03-22T10:11:31Z</time></trkpt><trkpt lat="42.203894616563076" lon="12.748423189079581"><ele>532.0</ele><time>2026-03-22T10:11:34Z</time></trkpt><trkpt lat="42.203999703639745" lon="12.748391166551169"><ele>529.5714285714286</ele><time>2026-03-22T10:11:44Z</time></trkpt><trkpt lat="42.20406281775737" lon="12.748380340985744"><ele>527.1428571428571</ele><time>2026-03-22T10:11:49Z</time></trkpt><trkpt lat="42.204127537522446" lon="12.748370618937027"><ele>524.7142857142858</ele><time>2026-03-22T10:11:55.999Z</time></trkpt><trkpt lat="42.20419413825598" lon="12.74836126151455"><ele>522.2857142857142</ele><time>2026-03-22T10:12:06.999Z</time></trkpt><trkpt lat="42.20425080534588" lon="12.748311205424335"><ele>519.8571428571429</ele><time>2026-03-22T10:12:16.999Z</time></trkpt><trkpt lat="42.20429658782666" lon="12.748241220204493"><ele>517.4285714285714</ele><time>2026-03-22T10:12:18.999Z</time></trkpt><trkpt lat="42.20433162115427" lon="12.748151534719014"><ele>515.0</ele><time>2026-03-22T10:12:19.999Z</time></trkpt><trkpt lat="42.204403332245946" lon="12.748081915310344"><ele>515.0</ele><time>2026-03-22T10:12:20.999Z</time></trkpt><trkpt lat="42.20445710568605" lon="12.74800859756623"><ele>515.0</ele><time>2026-03-22T10:12:21.999Z</time></trkpt><trkpt lat="42.204506373121184" lon="12.747940616136255"><ele>515.0</ele><time>2026-03-22T10:12:22.999Z</time></trkpt><trkpt lat="42.20459500055627" lon="12.747867682071426"><ele>515.0</ele><time>2026-03-22T10:12:25Z</time></trkpt><trkpt lat="42.20468976630803" lon="12.747761678497387"><ele>515.0</ele><time>2026-03-22T10:12:27Z</time></trkpt><trkpt lat="42.20474544996716" lon="12.747696085113512"><ele>515.0</ele><time>2026-03-22T10:12:28Z</time></trkpt><trkpt lat="42.20482249701506" lon="12.747596034083424"><ele>512.6666666666666</ele><time>2026-03-22T10:12:30Z</time></trkpt><trkpt lat="42.20486840843464" lon="12.747534109081013"><ele>510.3333333333333</ele><time>2026-03-22T10:12:31Z</time></trkpt><trkpt lat="42.20491558054303" lon="12.747467572412633"><ele>508.0</ele><time>2026-03-22T10:12:32Z</time></trkpt><trkpt lat="42.204966848471926" lon="12.7473756138468"><ele>505.66666666666663</ele><time>2026-03-22T10:12:33Z</time></trkpt><trkpt lat="42.205016216433606" lon="12.747222690920013"><ele>503.3333333333333</ele><time>2026-03-22T10:12:35Z</time></trkpt><trkpt lat="42.20504482683832" lon="12.747102289424197"><ele>501.0</ele><time>2026-03-22T10:12:37Z</time></trkpt><trkpt lat="42.20509165727489" lon="12.74693282704697"><ele>503.8333333333333</ele><time>2026-03-22T10:12:39Z</time></trkpt><trkpt lat="42.205153035183336" lon="12.746823266992063"><ele>506.66666666666663</ele><time>2026-03-22T10:12:40Z</time></trkpt><trkpt lat="42.20520737922533" lon="12.7467122737844"><ele>509.5</ele><time>2026-03-22T10:12:41Z</time></trkpt><trkpt lat="42.20524484297466" lon="12.746610472520054"><ele>512.3333333333333</ele><time>2026-03-22T10:12:42Z</time></trkpt><trkpt lat="42.20528415121512" lon="12.746507775028634"><ele>515.1666666666666</ele><time>2026-03-22T10:12:43Z</time></trkpt><trkpt lat="42.205315668497136" lon="12.746415859328444"><ele>518.0</ele><time>2026-03-22T10:12:44Z</time></trkpt><trkpt lat="42.20534002920046" lon="12.7462881112436"><ele>518.0</ele><time>2026-03-22T10:12:45Z</time></trkpt><trkpt lat="42.20535738002884" lon="12.746199213320782"><ele>518.0</ele><time>2026-03-22T10:12:46Z</time></trkpt><trkpt lat="42.20539809097275" lon="12.746039401317255"><ele>518.0</ele><time>2026-03-22T10:12:48Z</time></trkpt><trkpt lat="42.205407183610234" lon="12.745949759800295"><ele>518.0</ele><time>2026-03-22T10:12:49Z</time></trkpt><trkpt lat="42.20542854598309" lon="12.745833919269"><ele>518.0</ele><time>2026-03-22T10:12:50Z</time></trkpt><trkpt lat="42.205463073424255" lon="12.745709323241769"><ele>518.0</ele><time>2026-03-22T10:12:51Z</time></trkpt><trkpt lat="42.20548671748704" lon="12.745570097246404"><ele>520.5</ele><time>2026-03-22T10:12:52Z</time></trkpt><trkpt lat="42.205553979618536" lon="12.74539944667218"><ele>523.0</ele><time>2026-03-22T10:12:53Z</time></trkpt><trkpt lat="42.20558541301857" lon="12.745228210151675"><ele>525.5</ele><time>2026-03-22T10:12:54Z</time></trkpt><trkpt lat="42.20560986254183" lon="12.745103561203992"><ele>528.0</ele><time>2026-03-22T10:12:55Z</time></trkpt><trkpt lat="42.205656686495296" lon="12.744926790123635"><ele>524.8</ele><time>2026-03-22T10:12:56Z</time></trkpt><trkpt lat="42.205687146629934" lon="12.744771329515284"><ele>521.5999999999999</ele><time>2026-03-22T10:12:57Z</time></trkpt><trkpt lat="42.205707854505185" lon="12.74463162731245"><ele>518.4000000000001</ele><time>2026-03-22T10:12:58Z</time></trkpt><trkpt lat="42.20570070786354" lon="12.744514001968977"><ele>515.2</ele><time>2026-03-22T10:12:59Z</time></trkpt><trkpt lat="42.20574913080328" lon="12.74435800112197"><ele>512.0</ele><time>2026-03-22T10:13:00Z</time></trkpt><trkpt lat="42.20577599887067" lon="12.744219288892321"><ele>512.0</ele><time>2026-03-22T10:13:01Z</time></trkpt><trkpt lat="42.20579896697404" lon="12.744079879032837"><ele>512.0</ele><time>2026-03-22T10:13:02Z</time></trkpt><trkpt lat="42.2058211733308" lon="12.743949933276214"><ele>512.0</ele><time>2026-03-22T10:13:03Z</time></trkpt><trkpt lat="42.20585890619315" lon="12.743841944412848"><ele>512.0</ele><time>2026-03-22T10:13:04Z</time></trkpt><trkpt lat="42.205917184234885" lon="12.74375693784583"><ele>512.0</ele><time>2026-03-22T10:13:05Z</time></trkpt><trkpt lat="42.205967376173895" lon="12.743665994031156"><ele>512.0</ele><time>2026-03-22T10:13:07Z</time></trkpt><trkpt lat="42.206022130386096" lon="12.74361534729692"><ele>511.99999999999994</ele><time>2026-03-22T10:13:12Z</time></trkpt><trkpt lat="42.20607554675639" lon="12.743555145581297"><ele>512.0</ele><time>2026-03-22T10:13:16Z</time></trkpt><trkpt lat="42.20613108579862" lon="12.743485974587275"><ele>512.0</ele><time>2026-03-22T10:13:28Z</time></trkpt><trkpt lat="42.20618049296941" lon="12.743418053753695"><ele>511.99999999999994</ele><time>2026-03-22T10:13:33Z</time></trkpt><trkpt lat="42.20621578982207" lon="12.743342638026833"><ele>512.0</ele><time>2026-03-22T10:13:36Z</time></trkpt><trkpt lat="42.206254343618845" lon="12.74326950184151"><ele>512.0</ele><time>2026-03-22T10:13:39Z</time></trkpt><trkpt lat="42.20629519158985" lon="12.743192717780284"><ele>512.3333333333333</ele><time>2026-03-22T10:13:43Z</time></trkpt><trkpt lat="42.20630849142308" lon="12.74309397773287"><ele>512.6666666666666</ele><time>2026-03-22T10:13:47Z</time></trkpt><trkpt lat="42.20631108939663" lon="12.742962882383981"><ele>513.0</ele><time>2026-03-22T10:13:49Z</time></trkpt><trkpt lat="42.20630886049899" lon="12.742819256332858"><ele>513.3333333333334</ele><time>2026-03-22T10:13:51Z</time></trkpt><trkpt lat="42.20631135959931" lon="12.742731859076798"><ele>513.6666666666667</ele><time>2026-03-22T10:13:53.999Z</time></trkpt><trkpt lat="42.20632541810519" lon="12.742642623342926"><ele>514.0</ele><time>2026-03-22T10:13:55.999Z</time></trkpt><trkpt lat="42.20633615875972" lon="12.742537033254443"><ele>513.0</ele><time>2026-03-22T10:13:57.999Z</time></trkpt><trkpt lat="42.20633255506901" lon="12.742438686839067"><ele>512.0</ele><time>2026-03-22T10:13:59.999Z</time></trkpt><trkpt lat="42.20631719901648" lon="12.742310731658149"><ele>511.0</ele><time>2026-03-22T10:14:01.999Z</time></trkpt><trkpt lat="42.206330571347266" lon="12.742219574233873"><ele>510.0</ele><time>2026-03-22T10:14:03.999Z</time></trkpt><trkpt lat="42.20631464974928" lon="12.742126952903071"><ele>509.0</ele><time>2026-03-22T10:14:06.999Z</time></trkpt><trkpt lat="42.20631712438201" lon="12.742030299263043"><ele>508.0</ele><time>2026-03-22T10:14:12.999Z</time></trkpt><trkpt lat="42.206307639169474" lon="12.74193781071576"><ele>507.0</ele><time>2026-03-22T10:14:18.999Z</time></trkpt><trkpt lat="42.206314705639855" lon="12.741803251926823"><ele>504.6666666666667</ele><time>2026-03-22T10:14:20.999Z</time></trkpt><trkpt lat="42.206330159931014" lon="12.741698524713994"><ele>502.33333333333337</ele><time>2026-03-22T10:14:21.999Z</time></trkpt><trkpt lat="42.20633706358043" lon="12.741585808417254"><ele>500.0</ele><time>2026-03-22T10:14:22.999Z</time></trkpt><trkpt lat="42.2063362518823" lon="12.741472035461824"><ele>497.6666666666667</ele><time>2026-03-22T10:14:23.999Z</time></trkpt><trkpt lat="42.206336894912205" lon="12.741350556790039"><ele>495.33333333333337</ele><time>2026-03-22T10:14:25.999Z</time></trkpt><trkpt lat="42.20634971574917" lon="12.74126078372901"><ele>493.0</ele><time>2026-03-22T10:14:26.999Z</time></trkpt><trkpt lat="42.206368344098074" lon="12.741171561768489"><ele>491.0</ele><time>2026-03-22T10:14:27.999Z</time></trkpt><trkpt lat="42.20638904022348" lon="12.741031453600577"><ele>488.99999999999994</ele><time>2026-03-22T10:14:29.999Z</time></trkpt><trkpt lat="42.20639429332972" lon="12.74089475518566"><ele>486.99999999999994</ele><time>2026-03-22T10:14:32Z</time></trkpt><trkpt lat="42.206398060305574" lon="12.740760803862088"><ele>485.0</ele><time>2026-03-22T10:14:34Z</time></trkpt><trkpt lat="42.20644873796182" lon="12.740617267416857"><ele>483.0</ele><time>2026-03-22T10:14:36Z</time></trkpt><trkpt lat="42.20648353513742" lon="12.740470523780115"><ele>478.59999999999997</ele><time>2026-03-22T10:14:38Z</time></trkpt><trkpt lat="42.20652803780852" lon="12.740395467771364"><ele>474.19999999999993</ele><time>2026-03-22T10:14:40Z</time></trkpt><trkpt lat="42.206542136871036" lon="12.74030948144508"><ele>469.8</ele><time>2026-03-22T10:14:42Z</time></trkpt><trkpt lat="42.20655253703988" lon="12.740225166319997"><ele>465.4</ele><time>2026-03-22T10:14:44Z</time></trkpt><trkpt lat="42.206548991862086" lon="12.740119389286036"><ele>461.0</ele><time>2026-03-22T10:14:46Z</time></trkpt><trkpt lat="42.20652192146034" lon="12.739836875435156"><ele>460.75</ele><time>2026-03-22T10:14:50Z</time></trkpt><trkpt lat="42.20644679087244" lon="12.73971508206861"><ele>460.5</ele><time>2026-03-22T10:14:51Z</time></trkpt><trkpt lat="42.20639087740538" lon="12.739549741730379"><ele>460.25</ele><time>2026-03-22T10:14:52Z</time></trkpt><trkpt lat="42.20634350617978" lon="12.739387205234788"><ele>460.0</ele><time>2026-03-22T10:14:53Z</time></trkpt><trkpt lat="42.20629396597576" lon="12.739238331189048"><ele>460.0</ele><time>2026-03-22T10:14:54Z</time></trkpt><trkpt lat="42.20626254947916" lon="12.739056728483876"><ele>460.0</ele><time>2026-03-22T10:14:55Z</time></trkpt><trkpt lat="42.20622362354771" lon="12.738885930652364"><ele>460.0</ele><time>2026-03-22T10:14:56Z</time></trkpt><trkpt lat="42.2062025792729" lon="12.738682522800666"><ele>460.0</ele><time>2026-03-22T10:14:57Z</time></trkpt><trkpt lat="42.20616209164268" lon="12.738515351526024"><ele>455.5</ele><time>2026-03-22T10:14:58Z</time></trkpt><trkpt lat="42.20614238118842" lon="12.738379410212243"><ele>451.0</ele><time>2026-03-22T10:14:59Z</time></trkpt><trkpt lat="42.20612263287486" lon="12.738230925349573"><ele>446.5</ele><time>2026-03-22T10:15:00Z</time></trkpt><trkpt lat="42.20611328204487" lon="12.738055732544069"><ele>442.0</ele><time>2026-03-22T10:15:01Z</time></trkpt><trkpt lat="42.20609767580295" lon="12.737895379610164"><ele>442.0</ele><time>2026-03-22T10:15:02Z</time></trkpt><trkpt lat="42.20606355064995" lon="12.737748486649169"><ele>442.00000000000006</ele><time>2026-03-22T10:15:03Z</time></trkpt><trkpt lat="42.20602315494122" lon="12.737636006260788"><ele>442.00000000000006</ele><time>2026-03-22T10:15:04Z</time></trkpt><trkpt lat="42.20598562524508" lon="12.737516417543809"><ele>442.0</ele><time>2026-03-22T10:15:05Z</time></trkpt><trkpt lat="42.20595925250723" lon="12.737380397834075"><ele>442.0</ele><time>2026-03-22T10:15:06Z</time></trkpt><trkpt lat="42.205929765615096" lon="12.737229224580542"><ele>439.40000000000003</ele><time>2026-03-22T10:15:07Z</time></trkpt><trkpt lat="42.205872896770444" lon="12.737118580390527"><ele>436.80000000000007</ele><time>2026-03-22T10:15:08Z</time></trkpt><trkpt lat="42.20581790026657" lon="12.73698844372575"><ele>434.2</ele><time>2026-03-22T10:15:10Z</time></trkpt><trkpt lat="42.2058173110993" lon="12.736845953281184"><ele>431.6</ele><time>2026-03-22T10:15:12Z</time></trkpt><trkpt lat="42.20586229842526" lon="12.73671348042247"><ele>429.0</ele><time>2026-03-22T10:15:14Z</time></trkpt><trkpt lat="42.205922164809934" lon="12.736646056938834"><ele>428.1666666666667</ele><time>2026-03-22T10:15:16Z</time></trkpt><trkpt lat="42.20594299150249" lon="12.736549779198134"><ele>427.33333333333337</ele><time>2026-03-22T10:15:32Z</time></trkpt><trkpt lat="42.20591831529615" lon="12.736455737627264"><ele>426.5</ele><time>2026-03-22T10:15:36Z</time></trkpt><trkpt lat="42.205917763079796" lon="12.736350708761787"><ele>425.6666666666667</ele><time>2026-03-22T10:21:20Z</time></trkpt><trkpt lat="42.205880675856335" lon="12.736201866685485"><ele>424.83333333333337</ele><time>2026-03-22T10:21:22Z</time></trkpt><trkpt lat="42.20583484742459" lon="12.736096964671248"><ele>424.0</ele><time>2026-03-22T10:21:23Z</time></trkpt><trkpt lat="42.205787825661105" lon="12.735979526200806"><ele>423.2</ele><time>2026-03-22T10:21:24Z</time></trkpt><trkpt lat="42.2057628568514" lon="12.735846113082543"><ele>422.4</ele><time>2026-03-22T10:21:25Z</time></trkpt><trkpt lat="42.20573692598732" lon="12.735716970165186"><ele>421.6</ele><time>2026-03-22T10:21:26Z</time></trkpt><trkpt lat="42.20570492576425" lon="12.735577836466742"><ele>420.8</ele><time>2026-03-22T10:21:27Z</time></trkpt><trkpt lat="42.205683755333844" lon="12.735440995549606"><ele>420.0</ele><time>2026-03-22T10:21:28Z</time></trkpt><trkpt lat="42.20568144066802" lon="12.735304761417762"><ele>419.5</ele><time>2026-03-22T10:21:29Z</time></trkpt><trkpt lat="42.20568889988586" lon="12.735143250711431"><ele>419.0</ele><time>2026-03-22T10:21:30Z</time></trkpt><trkpt lat="42.20566746730428" lon="12.735008936217872"><ele>418.5</ele><time>2026-03-22T10:21:31Z</time></trkpt><trkpt lat="42.20566396063493" lon="12.734893095993613"><ele>418.0</ele><time>2026-03-22T10:21:32Z</time></trkpt><trkpt lat="42.20563832340682" lon="12.734809561491842"><ele>417.5</ele><time>2026-03-22T10:21:33Z</time></trkpt><trkpt lat="42.20561959640256" lon="12.734725186383574"><ele>417.0</ele><time>2026-03-22T10:21:34Z</time></trkpt><trkpt lat="42.20560229716578" lon="12.734630995397712"><ele>420.5</ele><time>2026-03-22T10:21:36Z</time></trkpt><trkpt lat="42.20560104225557" lon="12.734514421241293"><ele>424.0</ele><time>2026-03-22T10:21:39Z</time></trkpt><trkpt lat="42.205614400890305" lon="12.734414559711224"><ele>427.5</ele><time>2026-03-22T10:21:40Z</time></trkpt><trkpt lat="42.205619667462926" lon="12.73430888269968"><ele>431.0</ele><time>2026-03-22T10:21:41Z</time></trkpt><trkpt lat="42.205637616205216" lon="12.734182193932856"><ele>434.5</ele><time>2026-03-22T10:21:42Z</time></trkpt><trkpt lat="42.20564804880427" lon="12.734030452274768"><ele>438.0</ele><time>2026-03-22T10:21:43Z</time></trkpt><trkpt lat="42.20564555324223" lon="12.733890239735732"><ele>438.0</ele><time>2026-03-22T10:21:44Z</time></trkpt><trkpt lat="42.20563659829497" lon="12.733758865533076"><ele>437.99999999999994</ele><time>2026-03-22T10:21:45Z</time></trkpt><trkpt lat="42.205642401431525" lon="12.733641552304272"><ele>437.99999999999994</ele><time>2026-03-22T10:21:46Z</time></trkpt><trkpt lat="42.20565671322186" lon="12.733509455328049"><ele>438.0</ele><time>2026-03-22T10:21:47Z</time></trkpt><trkpt lat="42.20567567347876" lon="12.733385904434602"><ele>438.0</ele><time>2026-03-22T10:21:48Z</time></trkpt><trkpt lat="42.205691873195825" lon="12.733279830141097"><ele>433.6666666666667</ele><time>2026-03-22T10:21:49Z</time></trkpt><trkpt lat="42.205718464484114" lon="12.733188773944763"><ele>429.33333333333337</ele><time>2026-03-22T10:21:50Z</time></trkpt><trkpt lat="42.20575367694872" lon="12.733097179299845"><ele>425.0</ele><time>2026-03-22T10:21:51Z</time></trkpt><trkpt lat="42.205797829662146" lon="12.733026253762459"><ele>420.6666666666667</ele><time>2026-03-22T10:21:52Z</time></trkpt><trkpt lat="42.20592106443383" lon="12.73298969038018"><ele>416.33333333333337</ele><time>2026-03-22T10:21:54Z</time></trkpt><trkpt lat="42.206007478367766" lon="12.73293536370481"><ele>412.0</ele><time>2026-03-22T10:21:56Z</time></trkpt><trkpt lat="42.20610192158013" lon="12.732919796311313"><ele>412.00000000000006</ele><time>2026-03-22T10:21:57.999Z</time></trkpt><trkpt lat="42.20617096701786" lon="12.732913119156162"><ele>412.0</ele><time>2026-03-22T10:21:58.999Z</time></trkpt><trkpt lat="42.206243161006434" lon="12.732922215999736"><ele>412.0</ele><time>2026-03-22T10:21:59.999Z</time></trkpt><trkpt lat="42.20632489203584" lon="12.732921651956561"><ele>412.0</ele><time>2026-03-22T10:22:00.999Z</time></trkpt><trkpt lat="42.206410524057915" lon="12.732923255818834"><ele>412.00000000000006</ele><time>2026-03-22T10:22:01.999Z</time></trkpt><trkpt lat="42.206485114041804" lon="12.732933627472548"><ele>412.0</ele><time>2026-03-22T10:22:02.999Z</time></trkpt><trkpt lat="42.20659108262518" lon="12.73294482762951"><ele>412.00000000000006</ele><time>2026-03-22T10:22:04.999Z</time></trkpt><trkpt lat="42.2066709684973" lon="12.732938976439025"><ele>412.0</ele><time>2026-03-22T10:22:07.999Z</time></trkpt><trkpt lat="42.20665453239169" lon="12.733030842547768"><ele>412.0</ele><time>2026-03-22T10:22:57Z</time></trkpt><trkpt lat="42.20658642501479" lon="12.733065519781686"><ele>412.0</ele><time>2026-03-22T10:22:59Z</time></trkpt><trkpt lat="42.206482654265656" lon="12.733108369260083"><ele>412.00000000000006</ele><time>2026-03-22T10:23:01Z</time></trkpt><trkpt lat="42.20640259691089" lon="12.733152817033211"><ele>412.0</ele><time>2026-03-22T10:23:02Z</time></trkpt><trkpt lat="42.20631211210815" lon="12.733167609897238"><ele>412.00000000000006</ele><time>2026-03-22T10:23:03Z</time></trkpt><trkpt lat="42.20624403417401" lon="12.73317434089719"><ele>412.0</ele><time>2026-03-22T10:23:04Z</time></trkpt><trkpt lat="42.20615900778782" lon="12.73322849123372"><ele>412.0</ele><time>2026-03-22T10:23:06Z</time></trkpt><trkpt lat="42.206141800943975" lon="12.733371309178278"><ele>412.0</ele><time>2026-03-22T10:23:08Z</time></trkpt><trkpt lat="42.20615545844341" lon="12.733467683084438"><ele>412.00000000000006</ele><time>2026-03-22T10:23:09Z</time></trkpt><trkpt lat="42.20619684993664" lon="12.733549638193784"><ele>412.0</ele><time>2026-03-22T10:23:10Z</time></trkpt><trkpt lat="42.206236467234504" lon="12.733650308223655"><ele>413.0</ele><time>2026-03-22T10:23:12Z</time></trkpt><trkpt lat="42.20623596875378" lon="12.733812104974973"><ele>414.0</ele><time>2026-03-22T10:23:14Z</time></trkpt><trkpt lat="42.20624101591236" lon="12.733931160217105"><ele>415.0</ele><time>2026-03-22T10:23:15Z</time></trkpt><trkpt lat="42.206236484389834" lon="12.734078410408463"><ele>416.0</ele><time>2026-03-22T10:23:16Z</time></trkpt><trkpt lat="42.20623720166814" lon="12.734178228338136"><ele>417.0</ele><time>2026-03-22T10:23:17Z</time></trkpt><trkpt lat="42.20625108531093" lon="12.734284964828165"><ele>417.0</ele><time>2026-03-22T10:23:18Z</time></trkpt><trkpt lat="42.20625623981523" lon="12.734393757280586"><ele>417.0</ele><time>2026-03-22T10:23:19Z</time></trkpt><trkpt lat="42.20626176517578" lon="12.73450014758596"><ele>417.0</ele><time>2026-03-22T10:23:20Z</time></trkpt><trkpt lat="42.20627541106651" lon="12.734606322862257"><ele>417.0</ele><time>2026-03-22T10:23:21Z</time></trkpt><trkpt lat="42.20629773099721" lon="12.734745053486556"><ele>417.0</ele><time>2026-03-22T10:23:22Z</time></trkpt><trkpt lat="42.20630255206491" lon="12.734877008419492"><ele>417.0</ele><time>2026-03-22T10:23:23Z</time></trkpt><trkpt lat="42.20632201729672" lon="12.734996601639732"><ele>417.0</ele><time>2026-03-22T10:23:25Z</time></trkpt><trkpt lat="42.206342738382446" lon="12.735080986099698"><ele>417.0</ele><time>2026-03-22T10:23:26Z</time></trkpt><trkpt lat="42.20637633800952" lon="12.73518849786656"><ele>417.0</ele><time>2026-03-22T10:23:27Z</time></trkpt><trkpt lat="42.20641698558505" lon="12.735311058615121"><ele>417.0</ele><time>2026-03-22T10:23:28Z</time></trkpt><trkpt lat="42.206460874987684" lon="12.735439059891004"><ele>417.0</ele><time>2026-03-22T10:23:29Z</time></trkpt><trkpt lat="42.206506022113295" lon="12.735580376334346"><ele>413.40000000000003</ele><time>2026-03-22T10:23:30Z</time></trkpt><trkpt lat="42.20654766490349" lon="12.735693116838931"><ele>409.8</ele><time>2026-03-22T10:23:31Z</time></trkpt><trkpt lat="42.20660214063048" lon="12.735810027185764"><ele>406.2</ele><time>2026-03-22T10:23:32Z</time></trkpt><trkpt lat="42.206671747016856" lon="12.735938133638518"><ele>402.6</ele><time>2026-03-22T10:23:33Z</time></trkpt><trkpt lat="42.20671822824301" lon="12.73605115109509"><ele>399.0</ele><time>2026-03-22T10:23:34Z</time></trkpt><trkpt lat="42.20678556182736" lon="12.736159860648423"><ele>399.0</ele><time>2026-03-22T10:23:35Z</time></trkpt><trkpt lat="42.20685431926498" lon="12.73630101595667"><ele>399.0</ele><time>2026-03-22T10:23:36Z</time></trkpt><trkpt lat="42.206913350383594" lon="12.736416861281018"><ele>399.0</ele><time>2026-03-22T10:23:37Z</time></trkpt><trkpt lat="42.206955558342386" lon="12.73653351588622"><ele>399.0</ele><time>2026-03-22T10:23:38Z</time></trkpt><trkpt lat="42.20700502615311" lon="12.736659685114423"><ele>399.0</ele><time>2026-03-22T10:23:39Z</time></trkpt><trkpt lat="42.20705015941209" lon="12.736757355308658"><ele>399.0</ele><time>2026-03-22T10:23:40Z</time></trkpt><trkpt lat="42.207079821948234" lon="12.736852743157241"><ele>399.0</ele><time>2026-03-22T10:23:41Z</time></trkpt><trkpt lat="42.207090673669725" lon="12.736985464820995"><ele>399.0</ele><time>2026-03-22T10:23:42Z</time></trkpt><trkpt lat="42.20713980284717" lon="12.737062054909087"><ele>399.0</ele><time>2026-03-22T10:23:43Z</time></trkpt><trkpt lat="42.207184138430954" lon="12.737164395040928"><ele>399.0</ele><time>2026-03-22T10:23:44Z</time></trkpt><trkpt lat="42.2072066897023" lon="12.737273608964475"><ele>399.0</ele><time>2026-03-22T10:23:45Z</time></trkpt><trkpt lat="42.20722836711758" lon="12.737390004077886"><ele>401.6</ele><time>2026-03-22T10:23:46Z</time></trkpt><trkpt lat="42.2072197082328" lon="12.737530262382817"><ele>404.2</ele><time>2026-03-22T10:23:47Z</time></trkpt><trkpt lat="42.207223741270894" lon="12.737646931037014"><ele>406.8</ele><time>2026-03-22T10:23:48Z</time></trkpt><trkpt lat="42.20724452077866" lon="12.73777510143335"><ele>409.40000000000003</ele><time>2026-03-22T10:23:49Z</time></trkpt><trkpt lat="42.20724372149136" lon="12.737877929452981"><ele>412.0</ele><time>2026-03-22T10:23:50Z</time></trkpt><trkpt lat="42.20728479698579" lon="12.73799081164216"><ele>413.83333333333337</ele><time>2026-03-22T10:23:51Z</time></trkpt><trkpt lat="42.20732293062997" lon="12.73809365591031"><ele>415.6666666666667</ele><time>2026-03-22T10:23:52Z</time></trkpt><trkpt lat="42.2073661282421" lon="12.738171022429462"><ele>417.5</ele><time>2026-03-22T10:23:53Z</time></trkpt><trkpt lat="42.20744100788476" lon="12.738307003821376"><ele>419.33333333333337</ele><time>2026-03-22T10:23:55Z</time></trkpt><trkpt lat="42.20747803649548" lon="12.738388047186438"><ele>421.1666666666667</ele><time>2026-03-22T10:23:56Z</time></trkpt><trkpt lat="42.20750890217967" lon="12.73847407055885"><ele>423.0</ele><time>2026-03-22T10:23:57Z</time></trkpt><trkpt lat="42.207552384641545" lon="12.73856559214831"><ele>417.4</ele><time>2026-03-22T10:23:58Z</time></trkpt><trkpt lat="42.20759140839861" lon="12.738635860365621"><ele>411.79999999999995</ele><time>2026-03-22T10:23:59Z</time></trkpt><trkpt lat="42.20764308477002" lon="12.738697703603275"><ele>406.2</ele><time>2026-03-22T10:24:00Z</time></trkpt><trkpt lat="42.207737801369426" lon="12.738813925022697"><ele>400.6</ele><time>2026-03-22T10:24:02Z</time></trkpt><trkpt lat="42.20780307045292" lon="12.738920114249147"><ele>395.0</ele><time>2026-03-22T10:24:03Z</time></trkpt><trkpt lat="42.20788041097873" lon="12.739012430392194"><ele>394.99999999999994</ele><time>2026-03-22T10:24:04Z</time></trkpt><trkpt lat="42.207964835214" lon="12.739094357097313"><ele>395.0</ele><time>2026-03-22T10:24:05Z</time></trkpt><trkpt lat="42.20804703503398" lon="12.739174015485078"><ele>395.0</ele><time>2026-03-22T10:24:05.999Z</time></trkpt><trkpt lat="42.20810902629049" lon="12.739253308356146"><ele>395.0</ele><time>2026-03-22T10:24:06.999Z</time></trkpt><trkpt lat="42.20815213376539" lon="12.739315839269631"><ele>394.99999999999994</ele><time>2026-03-22T10:24:07.999Z</time></trkpt><trkpt lat="42.208213024536796" lon="12.73937673346018"><ele>395.0</ele><time>2026-03-22T10:24:08.999Z</time></trkpt><trkpt lat="42.208288957643795" lon="12.739437977175747"><ele>390.3333333333333</ele><time>2026-03-22T10:24:09.999Z</time></trkpt><trkpt lat="42.20833464461606" lon="12.739497213567285"><ele>385.66666666666663</ele><time>2026-03-22T10:24:10.999Z</time></trkpt><trkpt lat="42.20840247238673" lon="12.739563953400825"><ele>381.0</ele><time>2026-03-22T10:24:11.999Z</time></trkpt><trkpt lat="42.20846163203851" lon="12.739649723314193"><ele>376.3333333333333</ele><time>2026-03-22T10:24:12.999Z</time></trkpt><trkpt lat="42.20851984858289" lon="12.739718803787843"><ele>371.66666666666663</ele><time>2026-03-22T10:24:13.999Z</time></trkpt><trkpt lat="42.208561314006914" lon="12.739810116877745"><ele>367.0</ele><time>2026-03-22T10:24:14.999Z</time></trkpt><trkpt lat="42.208621032874134" lon="12.73990804320276"><ele>367.0</ele><time>2026-03-22T10:24:15.999Z</time></trkpt><trkpt lat="42.20867741815413" lon="12.739994173469636"><ele>367.0</ele><time>2026-03-22T10:24:16.999Z</time></trkpt><trkpt lat="42.208704780623606" lon="12.74007535392907"><ele>367.0</ele><time>2026-03-22T10:24:17.999Z</time></trkpt><trkpt lat="42.208757767206116" lon="12.740227815040441"><ele>367.0</ele><time>2026-03-22T10:24:19.999Z</time></trkpt><trkpt lat="42.208790013731814" lon="12.74030493991393"><ele>367.0</ele><time>2026-03-22T10:24:20.999Z</time></trkpt><trkpt lat="42.20883204030808" lon="12.740379620440287"><ele>367.0</ele><time>2026-03-22T10:24:21.999Z</time></trkpt><trkpt lat="42.20891595704016" lon="12.740468581011745"><ele>363.40000000000003</ele><time>2026-03-22T10:24:23.999Z</time></trkpt><trkpt lat="42.20899755726864" lon="12.740494349228722"><ele>359.8</ele><time>2026-03-22T10:24:24.999Z</time></trkpt><trkpt lat="42.20907534614263" lon="12.740550061850278"><ele>356.2</ele><time>2026-03-22T10:24:25.999Z</time></trkpt><trkpt lat="42.20916373157414" lon="12.740567277430896"><ele>352.6</ele><time>2026-03-22T10:24:26.999Z</time></trkpt><trkpt lat="42.209259516139745" lon="12.74059952159152"><ele>349.0</ele><time>2026-03-22T10:24:27.999Z</time></trkpt><trkpt lat="42.20937805833818" lon="12.740610545988133"><ele>349.0</ele><time>2026-03-22T10:24:29.999Z</time></trkpt><trkpt lat="42.209465574261706" lon="12.740617998345238"><ele>349.0</ele><time>2026-03-22T10:24:31.999Z</time></trkpt><trkpt lat="42.209572652341194" lon="12.74072577367647"><ele>349.0</ele><time>2026-03-22T10:24:33.999Z</time></trkpt><trkpt lat="42.209612779432554" lon="12.740803365291763"><ele>349.0</ele><time>2026-03-22T10:24:34.999Z</time></trkpt><trkpt lat="42.209661843622136" lon="12.740872737936531"><ele>349.0</ele><time>2026-03-22T10:24:35.999Z</time></trkpt><trkpt lat="42.20971159128294" lon="12.740943286069113"><ele>349.0</ele><time>2026-03-22T10:24:36.999Z</time></trkpt><trkpt lat="42.20977107988085" lon="12.741104822759691"><ele>342.75</ele><time>2026-03-22T10:24:38.999Z</time></trkpt><trkpt lat="42.209873433021926" lon="12.741156717257619"><ele>336.5</ele><time>2026-03-22T10:24:40.999Z</time></trkpt><trkpt lat="42.21001539368467" lon="12.741310431623267"><ele>330.25</ele><time>2026-03-22T10:24:44.999Z</time></trkpt><trkpt lat="42.210039977003014" lon="12.741471551907171"><ele>324.0</ele><time>2026-03-22T10:24:46.999Z</time></trkpt><trkpt lat="42.21007500512362" lon="12.741600937791818"><ele>324.0</ele><time>2026-03-22T10:24:48.999Z</time></trkpt><trkpt lat="42.210087523103546" lon="12.741684715369628"><ele>324.0</ele><time>2026-03-22T10:24:49.999Z</time></trkpt><trkpt lat="42.21016953387832" lon="12.741775212246012"><ele>324.0</ele><time>2026-03-22T10:24:51.999Z</time></trkpt><trkpt lat="42.21025464472625" lon="12.741854792896936"><ele>324.0</ele><time>2026-03-22T10:24:53.999Z</time></trkpt><trkpt lat="42.21038773156353" lon="12.742299314369424"><ele>323.3333333333333</ele><time>2026-03-22T10:24:56.999Z</time></trkpt><trkpt lat="42.210410798289885" lon="12.742384632069397"><ele>322.6666666666667</ele><time>2026-03-22T10:24:57.999Z</time></trkpt><trkpt lat="42.21044210978746" lon="12.742531440007198"><ele>322.0</ele><time>2026-03-22T10:24:59.999Z</time></trkpt><trkpt lat="42.21050593424152" lon="12.742598236120138"><ele>321.33333333333337</ele><time>2026-03-22T10:25:02Z</time></trkpt><trkpt lat="42.210607221623114" lon="12.742655870284198"><ele>320.6666666666667</ele><time>2026-03-22T10:25:04Z</time></trkpt><trkpt lat="42.210650837015805" lon="12.742718676201218"><ele>320.0</ele><time>2026-03-22T10:25:05Z</time></trkpt><trkpt lat="42.21067603087584" lon="12.74280457599512"><ele>317.33333333333337</ele><time>2026-03-22T10:25:07Z</time></trkpt><trkpt lat="42.210617567264464" lon="12.742882415919013"><ele>314.6666666666667</ele><time>2026-03-22T10:25:08Z</time></trkpt><trkpt lat="42.210554089348975" lon="12.742946541547601"><ele>312.0</ele><time>2026-03-22T10:25:09Z</time></trkpt><trkpt lat="42.210468551408056" lon="12.74304560247577"><ele>309.3333333333333</ele><time>2026-03-22T10:25:11Z</time></trkpt><trkpt lat="42.21040866367261" lon="12.74311000512307"><ele>306.66666666666663</ele><time>2026-03-22T10:25:13Z</time></trkpt><trkpt lat="42.2103696064322" lon="12.743179303476689"><ele>304.0</ele><time>2026-03-22T10:25:17Z</time></trkpt><trkpt lat="42.21049008422119" lon="12.74336023480359"><ele>304.0</ele><time>2026-03-22T10:25:21Z</time></trkpt><trkpt lat="42.21054220637643" lon="12.743306352794722"><ele>304.0</ele><time>2026-03-22T10:25:22Z</time></trkpt><trkpt lat="42.21061590515022" lon="12.743253486109975"><ele>304.0</ele><time>2026-03-22T10:25:23Z</time></trkpt><trkpt lat="42.21069767025711" lon="12.743194695078671"><ele>304.0</ele><time>2026-03-22T10:25:24Z</time></trkpt><trkpt lat="42.210791433518" lon="12.743136262393246"><ele>304.0</ele><time>2026-03-22T10:25:25Z</time></trkpt><trkpt lat="42.21088366248283" lon="12.743084317352597"><ele>304.0</ele><time>2026-03-22T10:25:26Z</time></trkpt><trkpt lat="42.210958514275916" lon="12.743020230694198"><ele>301.59999999999997</ele><time>2026-03-22T10:25:27Z</time></trkpt><trkpt lat="42.21108147803743" lon="12.74305092067657"><ele>299.2</ele><time>2026-03-22T10:25:29Z</time></trkpt><trkpt lat="42.21116199211138" lon="12.743157991012922"><ele>296.79999999999995</ele><time>2026-03-22T10:25:30Z</time></trkpt><trkpt lat="42.211241763781274" lon="12.743250007652284"><ele>294.4</ele><time>2026-03-22T10:25:31Z</time></trkpt><trkpt lat="42.21129927206521" lon="12.743321332772334"><ele>292.0</ele><time>2026-03-22T10:25:32Z</time></trkpt><trkpt lat="42.2113630035183" lon="12.743365505087056"><ele>292.0</ele><time>2026-03-22T10:25:33Z</time></trkpt><trkpt lat="42.2114664790975" lon="12.743422344494821"><ele>292.0</ele><time>2026-03-22T10:25:35Z</time></trkpt><trkpt lat="42.21154093217713" lon="12.743488793815123"><ele>292.0</ele><time>2026-03-22T10:25:37Z</time></trkpt><trkpt lat="42.21150711707758" lon="12.74360919324977"><ele>292.0</ele><time>2026-03-22T10:25:39Z</time></trkpt><trkpt lat="42.21145908745955" lon="12.743677081210306"><ele>292.0</ele><time>2026-03-22T10:25:40Z</time></trkpt><trkpt lat="42.21138519396506" lon="12.743802000593465"><ele>289.3333333333333</ele><time>2026-03-22T10:25:42Z</time></trkpt><trkpt lat="42.21134037259886" lon="12.74386424902619"><ele>286.66666666666663</ele><time>2026-03-22T10:25:43Z</time></trkpt><trkpt lat="42.211280450130545" lon="12.74391945013057"><ele>284.0</ele><time>2026-03-22T10:25:44Z</time></trkpt><trkpt lat="42.21122226637688" lon="12.74399886388889"><ele>281.3333333333333</ele><time>2026-03-22T10:25:45Z</time></trkpt><trkpt lat="42.21117380715477" lon="12.744076549094776"><ele>278.6666666666667</ele><time>2026-03-22T10:25:46Z</time></trkpt><trkpt lat="42.2111349451138" lon="12.744151209950688"><ele>276.0</ele><time>2026-03-22T10:25:47Z</time></trkpt><trkpt lat="42.21106768811457" lon="12.744277423496014"><ele>276.0</ele><time>2026-03-22T10:25:49Z</time></trkpt><trkpt lat="42.21100130491523" lon="12.744373065730903"><ele>276.0</ele><time>2026-03-22T10:25:51Z</time></trkpt><trkpt lat="42.210941085998456" lon="12.74440822428622"><ele>276.0</ele><time>2026-03-22T10:25:53Z</time></trkpt><trkpt lat="42.210967813902535" lon="12.744492789023726"><ele>276.0</ele><time>2026-03-22T10:26:21.999Z</time></trkpt><trkpt lat="42.21100227381544" lon="12.74458773168988"><ele>276.0</ele><time>2026-03-22T10:26:29.999Z</time></trkpt><trkpt lat="42.21103548495811" lon="12.744660145382431"><ele>276.0</ele><time>2026-03-22T10:26:34.999Z</time></trkpt><trkpt lat="42.21107563572356" lon="12.744804154126541"><ele>272.3333333333333</ele><time>2026-03-22T10:26:37.999Z</time></trkpt><trkpt lat="42.211086880857486" lon="12.744930042884862"><ele>268.6666666666667</ele><time>2026-03-22T10:26:40.999Z</time></trkpt><trkpt lat="42.2110756375379" lon="12.745034634759284"><ele>265.0</ele><time>2026-03-22T10:26:42.999Z</time></trkpt><trkpt lat="42.21106683584657" lon="12.745165463870979"><ele>261.33333333333337</ele><time>2026-03-22T10:26:44.999Z</time></trkpt><trkpt lat="42.21104749117556" lon="12.745260616151832"><ele>257.6666666666667</ele><time>2026-03-22T10:26:45.999Z</time></trkpt><trkpt lat="42.21102295009679" lon="12.745345852428605"><ele>254.0</ele><time>2026-03-22T10:26:46.999Z</time></trkpt><trkpt lat="42.21099279338757" lon="12.745439302273937"><ele>251.33333333333334</ele><time>2026-03-22T10:26:47.999Z</time></trkpt><trkpt lat="42.21098900510656" lon="12.74557101154618"><ele>248.66666666666669</ele><time>2026-03-22T10:26:50.999Z</time></trkpt><trkpt lat="42.211037535907245" lon="12.745628595106103"><ele>246.0</ele><time>2026-03-22T10:26:52.999Z</time></trkpt><trkpt lat="42.2111178513678" lon="12.745655848536673"><ele>243.33333333333331</ele><time>2026-03-22T10:26:58.999Z</time></trkpt><trkpt lat="42.21118788678563" lon="12.745711884631879"><ele>240.66666666666666</ele><time>2026-03-22T10:27:01.999Z</time></trkpt><trkpt lat="42.2112643113967" lon="12.74571844431395"><ele>238.0</ele><time>2026-03-22T10:27:04.999Z</time></trkpt><trkpt lat="42.21132955006957" lon="12.74567462854139"><ele>238.0</ele><time>2026-03-22T10:27:07Z</time></trkpt><trkpt lat="42.21141825269612" lon="12.745610550370637"><ele>238.0</ele><time>2026-03-22T10:27:10Z</time></trkpt><trkpt lat="42.21150642631935" lon="12.745513443274419"><ele>238.0</ele><time>2026-03-22T10:27:12Z</time></trkpt><trkpt lat="42.21159818423613" lon="12.745501457948484"><ele>238.0</ele><time>2026-03-22T10:27:14Z</time></trkpt><trkpt lat="42.21167939594712" lon="12.745484167629028"><ele>238.0</ele><time>2026-03-22T10:27:17Z</time></trkpt><trkpt lat="42.21173775075783" lon="12.745414230452171"><ele>233.83333333333331</ele><time>2026-03-22T10:27:20Z</time></trkpt><trkpt lat="42.211797686281045" lon="12.74538138357168"><ele>229.66666666666666</ele><time>2026-03-22T10:27:29Z</time></trkpt><trkpt lat="42.21186773056419" lon="12.745371229163949"><ele>225.5</ele><time>2026-03-22T10:27:36Z</time></trkpt><trkpt lat="42.21193328042773" lon="12.745375554966854"><ele>221.33333333333331</ele><time>2026-03-22T10:35:23.999Z</time></trkpt><trkpt lat="42.21190866593122" lon="12.745280823862975"><ele>217.16666666666666</ele><time>2026-03-22T10:40:49.999Z</time></trkpt><trkpt lat="42.211910610438196" lon="12.745406712943604"><ele>213.0</ele><time>2026-03-22T10:44:01Z</time></trkpt><trkpt lat="42.21196743440457" lon="12.745535099676722"><ele>213.0</ele><time>2026-03-22T10:44:03Z</time></trkpt><trkpt lat="42.211987394694944" lon="12.745681709325245"><ele>213.0</ele><time>2026-03-22T10:44:05Z</time></trkpt><trkpt lat="42.211971838916845" lon="12.745764569131735"><ele>213.0</ele><time>2026-03-22T10:44:06Z</time></trkpt><trkpt lat="42.21189307465342" lon="12.745879434827309"><ele>213.0</ele><time>2026-03-22T10:44:07Z</time></trkpt><trkpt lat="42.2118618335095" lon="12.746005428671312"><ele>213.0</ele><time>2026-03-22T10:44:08Z</time></trkpt><trkpt lat="42.21181944954072" lon="12.746131913340697"><ele>212.8</ele><time>2026-03-22T10:44:09Z</time></trkpt><trkpt lat="42.211764626009256" lon="12.746252652134926"><ele>212.60000000000002</ele><time>2026-03-22T10:44:10Z</time></trkpt><trkpt lat="42.211723858729634" lon="12.746374900096447"><ele>212.39999999999998</ele><time>2026-03-22T10:44:11Z</time></trkpt><trkpt lat="42.2117042602531" lon="12.746465612924117"><ele>212.2</ele><time>2026-03-22T10:44:12Z</time></trkpt><trkpt lat="42.21170824243674" lon="12.746575957923815"><ele>212.0</ele><time>2026-03-22T10:44:13Z</time></trkpt><trkpt lat="42.21178968312615" lon="12.74666607495832"><ele>212.00000000000003</ele><time>2026-03-22T10:44:14Z</time></trkpt><trkpt lat="42.211829879351924" lon="12.746741378326028"><ele>212.0</ele><time>2026-03-22T10:44:15Z</time></trkpt><trkpt lat="42.21182731684837" lon="12.746862644925999"><ele>212.0</ele><time>2026-03-22T10:44:17Z</time></trkpt><trkpt lat="42.211766383599524" lon="12.747002842689449"><ele>212.0</ele><time>2026-03-22T10:44:19Z</time></trkpt><trkpt lat="42.2117133677009" lon="12.747092054795031"><ele>212.00000000000003</ele><time>2026-03-22T10:44:20Z</time></trkpt><trkpt lat="42.2116576465555" lon="12.747177889122296"><ele>212.0</ele><time>2026-03-22T10:44:21Z</time></trkpt><trkpt lat="42.21161487694942" lon="12.74724748532792"><ele>213.39999999999998</ele><time>2026-03-22T10:44:22Z</time></trkpt><trkpt lat="42.211578862975" lon="12.747318560951612"><ele>214.79999999999998</ele><time>2026-03-22T10:44:25Z</time></trkpt><trkpt lat="42.2117376229706" lon="12.747443189021352"><ele>216.2</ele><time>2026-03-22T10:44:31.999Z</time></trkpt><trkpt lat="42.211812001081" lon="12.747417105472064"><ele>217.6</ele><time>2026-03-22T10:44:34.999Z</time></trkpt><trkpt lat="42.211883048737235" lon="12.747414771833455"><ele>219.0</ele><time>2026-03-22T10:44:37.999Z</time></trkpt><trkpt lat="42.211947213874254" lon="12.747404829082214"><ele>219.0</ele><time>2026-03-22T10:44:39.999Z</time></trkpt><trkpt lat="42.212053244251074" lon="12.74738553672948"><ele>219.0</ele><time>2026-03-22T10:44:41.999Z</time></trkpt><trkpt lat="42.21212980162588" lon="12.747354162361749"><ele>219.0</ele><time>2026-03-22T10:44:43.999Z</time></trkpt><trkpt lat="42.212197366486386" lon="12.74735628887369"><ele>219.0</ele><time>2026-03-22T10:44:50.999Z</time></trkpt><trkpt lat="42.212281087581076" lon="12.747361117930843"><ele>219.0</ele><time>2026-03-22T10:44:54.999Z</time></trkpt><trkpt lat="42.2123625531224" lon="12.747281234220177"><ele>219.0</ele><time>2026-03-22T10:44:57.999Z</time></trkpt><trkpt lat="42.21246487621549" lon="12.747260058593056"><ele>221.42857142857144</ele><time>2026-03-22T10:44:59.999Z</time></trkpt><trkpt lat="42.212528196969735" lon="12.74722144651366"><ele>223.85714285714283</ele><time>2026-03-22T10:45:01.999Z</time></trkpt><trkpt lat="42.2126003627038" lon="12.747223744015665"><ele>226.28571428571428</ele><time>2026-03-22T10:45:03.999Z</time></trkpt><trkpt lat="42.212631121531096" lon="12.747148647659358"><ele>228.71428571428572</ele><time>2026-03-22T10:45:25.999Z</time></trkpt><trkpt lat="42.21269762335579" lon="12.74709901203287"><ele>231.14285714285717</ele><time>2026-03-22T10:45:44.999Z</time></trkpt><trkpt lat="42.21277344336753" lon="12.747099659659655"><ele>233.57142857142856</ele><time>2026-03-22T10:45:48.999Z</time></trkpt><trkpt lat="42.212797719031364" lon="12.747180570503902"><ele>236.0</ele><time>2026-03-22T10:46:06Z</time></trkpt><trkpt lat="42.21286834217271" lon="12.747152851102234"><ele>236.00000000000003</ele><time>2026-03-22T10:46:15Z</time></trkpt><trkpt lat="42.212909780679226" lon="12.747085456420049"><ele>236.0</ele><time>2026-03-22T10:50:30.999Z</time></trkpt><trkpt lat="42.21296583323634" lon="12.746971212754971"><ele>236.0</ele><time>2026-03-22T10:50:35.999Z</time></trkpt><trkpt lat="42.21298927902218" lon="12.74686773390002"><ele>236.0</ele><time>2026-03-22T10:50:37.999Z</time></trkpt><trkpt lat="42.21303337179313" lon="12.74680572745709"><ele>236.00000000000003</ele><time>2026-03-22T10:50:40.999Z</time></trkpt><trkpt lat="42.213065087459064" lon="12.746713618475512"><ele>236.0</ele><time>2026-03-22T10:50:43.999Z</time></trkpt><trkpt lat="42.21311301949568" lon="12.746639166013052"><ele>233.14285714285714</ele><time>2026-03-22T10:50:49.999Z</time></trkpt><trkpt lat="42.213147169370465" lon="12.74656701327329"><ele>230.2857142857143</ele><time>2026-03-22T10:50:53.999Z</time></trkpt><trkpt lat="42.21319946730944" lon="12.746488417870419"><ele>227.42857142857144</ele><time>2026-03-22T10:51:06.999Z</time></trkpt><trkpt lat="42.21323977257659" lon="12.746412792894814"><ele>224.57142857142856</ele><time>2026-03-22T10:51:12.999Z</time></trkpt><trkpt lat="42.21326683950227" lon="12.746327389027005"><ele>221.71428571428572</ele><time>2026-03-22T10:51:20.999Z</time></trkpt><trkpt lat="42.21330462817286" lon="12.746241559633656"><ele>218.85714285714286</ele><time>2026-03-22T10:51:23.999Z</time></trkpt><trkpt lat="42.21335794375077" lon="12.746165824620855"><ele>216.0</ele><time>2026-03-22T10:51:26.999Z</time></trkpt><trkpt lat="42.213389350549306" lon="12.746065917082468"><ele>213.66666666666666</ele><time>2026-03-22T10:51:29.999Z</time></trkpt><trkpt lat="42.21341686704588" lon="12.74597207173975"><ele>211.33333333333331</ele><time>2026-03-22T10:51:31.999Z</time></trkpt><trkpt lat="42.21345459036567" lon="12.74587993702009"><ele>209.0</ele><time>2026-03-22T10:51:33.999Z</time></trkpt><trkpt lat="42.21348314453297" lon="12.745763597754555"><ele>206.66666666666666</ele><time>2026-03-22T10:51:35.999Z</time></trkpt><trkpt lat="42.21351694750197" lon="12.745631730198687"><ele>204.33333333333331</ele><time>2026-03-22T10:51:37.999Z</time></trkpt><trkpt lat="42.21354318064369" lon="12.745518012241108"><ele>202.0</ele><time>2026-03-22T10:51:39.999Z</time></trkpt><trkpt lat="42.21356782639323" lon="12.745424100860408"><ele>202.0</ele><time>2026-03-22T10:51:41.999Z</time></trkpt><trkpt lat="42.213602739695176" lon="12.745339609798053"><ele>202.0</ele><time>2026-03-22T10:51:44.999Z</time></trkpt><trkpt lat="42.21363912582199" lon="12.745251658108073"><ele>202.0</ele><time>2026-03-22T10:51:47.999Z</time></trkpt><trkpt lat="42.21363050375585" lon="12.74514734833112"><ele>202.0</ele><time>2026-03-22T10:51:52.999Z</time></trkpt><trkpt lat="42.21367801273809" lon="12.745074257787332"><ele>202.0</ele><time>2026-03-22T10:52:00.999Z</time></trkpt><trkpt lat="42.213733065650594" lon="12.745026525731177"><ele>202.0</ele><time>2026-03-22T10:52:12.998Z</time></trkpt><trkpt lat="42.21379049510108" lon="12.744985978621015"><ele>202.0</ele><time>2026-03-22T10:52:18.999Z</time></trkpt><trkpt lat="42.21380211861259" lon="12.745073257667835"><ele>201.99999999999997</ele><time>2026-03-22T10:52:25.999Z</time></trkpt><trkpt lat="42.21382206783463" lon="12.74517812763209"><ele>202.0</ele><time>2026-03-22T10:52:28.999Z</time></trkpt><trkpt lat="42.21383983093269" lon="12.745270401423573"><ele>202.0</ele><time>2026-03-22T10:52:30.999Z</time></trkpt><trkpt lat="42.213849257558834" lon="12.745393258334634"><ele>202.0</ele><time>2026-03-22T10:52:32.999Z</time></trkpt><trkpt lat="42.21388765611887" lon="12.745464577817094"><ele>201.99999999999997</ele><time>2026-03-22T10:52:34.999Z</time></trkpt><trkpt lat="42.21394069627342" lon="12.745524887446983"><ele>202.0</ele><time>2026-03-22T10:52:36.999Z</time></trkpt><trkpt lat="42.21402384122847" lon="12.745562766067973"><ele>197.0</ele><time>2026-03-22T10:52:38.999Z</time></trkpt><trkpt lat="42.21409007143192" lon="12.745595554018355"><ele>192.0</ele><time>2026-03-22T10:52:41.999Z</time></trkpt><trkpt lat="42.214152075429716" lon="12.745618966452982"><ele>187.0</ele><time>2026-03-22T10:53:14.999Z</time></trkpt><trkpt lat="42.214205665867446" lon="12.745544382680047"><ele>182.0</ele><time>2026-03-22T10:55:02Z</time></trkpt><trkpt lat="42.21418871510902" lon="12.745407529250775"><ele>177.0</ele><time>2026-03-22T10:55:05Z</time></trkpt><trkpt lat="42.21416955792766" lon="12.745207495897633"><ele>176.6</ele><time>2026-03-22T10:55:07Z</time></trkpt><trkpt lat="42.2141564932178" lon="12.74508473468164"><ele>176.2</ele><time>2026-03-22T10:55:08Z</time></trkpt><trkpt lat="42.21415350648356" lon="12.744965142699492"><ele>175.8</ele><time>2026-03-22T10:55:09Z</time></trkpt><trkpt lat="42.21411767046347" lon="12.74484856128124"><ele>175.4</ele><time>2026-03-22T10:55:10Z</time></trkpt><trkpt lat="42.21413455971878" lon="12.744721915810159"><ele>175.0</ele><time>2026-03-22T10:55:11Z</time></trkpt><trkpt lat="42.21417120557054" lon="12.744580332480554"><ele>175.0</ele><time>2026-03-22T10:55:12Z</time></trkpt><trkpt lat="42.21425745522779" lon="12.744453353598422"><ele>175.0</ele><time>2026-03-22T10:55:13Z</time></trkpt><trkpt lat="42.21432525214816" lon="12.744324868941934"><ele>175.0</ele><time>2026-03-22T10:55:14Z</time></trkpt><trkpt lat="42.21438873783939" lon="12.74419306389439"><ele>175.0</ele><time>2026-03-22T10:55:15Z</time></trkpt><trkpt lat="42.214440287580274" lon="12.744066252808707"><ele>174.25</ele><time>2026-03-22T10:55:16Z</time></trkpt><trkpt lat="42.21446972296294" lon="12.743921296076747"><ele>173.5</ele><time>2026-03-22T10:55:17Z</time></trkpt><trkpt lat="42.21449074485952" lon="12.74375815525853"><ele>172.75</ele><time>2026-03-22T10:55:18Z</time></trkpt><trkpt lat="42.21452761977845" lon="12.743611590299055"><ele>172.0</ele><time>2026-03-22T10:55:19Z</time></trkpt><trkpt lat="42.214595996710315" lon="12.743484002343553"><ele>171.5</ele><time>2026-03-22T10:55:20Z</time></trkpt><trkpt lat="42.214710888796574" lon="12.743407341180971"><ele>171.0</ele><time>2026-03-22T10:55:21Z</time></trkpt><trkpt lat="42.214806501364" lon="12.743344330695928"><ele>170.5</ele><time>2026-03-22T10:55:22Z</time></trkpt><trkpt lat="42.2149117116867" lon="12.74329072298204"><ele>170.0</ele><time>2026-03-22T10:55:23Z</time></trkpt><trkpt lat="42.21501509613246" lon="12.743199373536973"><ele>172.5</ele><time>2026-03-22T10:55:24Z</time></trkpt><trkpt lat="42.21513186812041" lon="12.743107697313262"><ele>175.0</ele><time>2026-03-22T10:55:25Z</time></trkpt><trkpt lat="42.215257063965616" lon="12.743004179768695"><ele>177.5</ele><time>2026-03-22T10:55:26Z</time></trkpt><trkpt lat="42.21538344063788" lon="12.742891096115148"><ele>180.0</ele><time>2026-03-22T10:55:27Z</time></trkpt><trkpt lat="42.21549599110761" lon="12.742781978991845"><ele>177.0</ele><time>2026-03-22T10:55:28Z</time></trkpt><trkpt lat="42.21555710728251" lon="12.742691026266947"><ele>174.0</ele><time>2026-03-22T10:55:29Z</time></trkpt><trkpt lat="42.215529436770495" lon="12.742586091894685"><ele>171.0</ele><time>2026-03-22T10:55:30Z</time></trkpt><trkpt lat="42.215548273590194" lon="12.742429602429043"><ele>168.0</ele><time>2026-03-22T10:55:31Z</time></trkpt><trkpt lat="42.21557986727323" lon="12.74226609949048"><ele>165.0</ele><time>2026-03-22T10:55:32Z</time></trkpt><trkpt lat="42.21562364470814" lon="12.74209736561955"><ele>169.25</ele><time>2026-03-22T10:55:33Z</time></trkpt><trkpt lat="42.215673292438495" lon="12.74193122549594"><ele>173.5</ele><time>2026-03-22T10:55:34Z</time></trkpt><trkpt lat="42.215732495463904" lon="12.741767729259971"><ele>177.75</ele><time>2026-03-22T10:55:35Z</time></trkpt><trkpt lat="42.21581386717511" lon="12.741618109004557"><ele>182.0</ele><time>2026-03-22T10:55:36Z</time></trkpt><trkpt lat="42.21589209498989" lon="12.741480447898304"><ele>182.0</ele><time>2026-03-22T10:55:37Z</time></trkpt><trkpt lat="42.21596455363159" lon="12.741325838219257"><ele>182.0</ele><time>2026-03-22T10:55:38Z</time></trkpt><trkpt lat="42.216013097895015" lon="12.741146755521903"><ele>182.0</ele><time>2026-03-22T10:55:39Z</time></trkpt><trkpt lat="42.21604950887114" lon="12.740980929181699"><ele>182.0</ele><time>2026-03-22T10:55:40Z</time></trkpt><trkpt lat="42.216079513430834" lon="12.740811172970975"><ele>179.39999999999998</ele><time>2026-03-22T10:55:41Z</time></trkpt><trkpt lat="42.21610534943039" lon="12.740657737093485"><ele>176.79999999999998</ele><time>2026-03-22T10:55:42Z</time></trkpt><trkpt lat="42.21611235256215" lon="12.740526932105656"><ele>174.2</ele><time>2026-03-22T10:55:43Z</time></trkpt><trkpt lat="42.21609425358641" lon="12.74040239505642"><ele>171.6</ele><time>2026-03-22T10:55:44Z</time></trkpt><trkpt lat="42.21605418057746" lon="12.74030556372089"><ele>169.0</ele><time>2026-03-22T10:55:45Z</time></trkpt><trkpt lat="42.21598034775865" lon="12.740217230590394"><ele>168.6</ele><time>2026-03-22T10:55:46Z</time></trkpt><trkpt lat="42.21587608234366" lon="12.740123892229628"><ele>168.2</ele><time>2026-03-22T10:55:47Z</time></trkpt><trkpt lat="42.21577290032792" lon="12.74005790364713"><ele>167.79999999999998</ele><time>2026-03-22T10:55:48Z</time></trkpt><trkpt lat="42.215688403183904" lon="12.740014070979605"><ele>167.39999999999998</ele><time>2026-03-22T10:55:49Z</time></trkpt><trkpt lat="42.21562532820303" lon="12.739951088458374"><ele>167.0</ele><time>2026-03-22T10:55:50Z</time></trkpt><trkpt lat="42.21558448689062" lon="12.73987469949904"><ele>167.0</ele><time>2026-03-22T10:55:51Z</time></trkpt><trkpt lat="42.21550756480125" lon="12.739862199039525"><ele>167.0</ele><time>2026-03-22T10:55:53Z</time></trkpt><trkpt lat="42.21557259598721" lon="12.739888689541019"><ele>167.0</ele><time>2026-03-22T10:55:58Z</time></trkpt><trkpt lat="42.215601292121704" lon="12.739790918147046"><ele>167.0</ele><time>2026-03-22T10:56:00Z</time></trkpt><trkpt lat="42.21565324274764" lon="12.739726584991688"><ele>167.0</ele><time>2026-03-22T10:56:01Z</time></trkpt><trkpt lat="42.21569327049823" lon="12.739644415226484"><ele>167.0</ele><time>2026-03-22T10:56:02Z</time></trkpt><trkpt lat="42.21572371249718" lon="12.73956987298141"><ele>167.0</ele><time>2026-03-22T10:56:03Z</time></trkpt><trkpt lat="42.21575823576164" lon="12.73948170417411"><ele>165.8</ele><time>2026-03-22T10:56:04Z</time></trkpt><trkpt lat="42.21580033957212" lon="12.739385335227144"><ele>164.6</ele><time>2026-03-22T10:56:05Z</time></trkpt><trkpt lat="42.2158590430448" lon="12.73926792479318"><ele>163.4</ele><time>2026-03-22T10:56:06Z</time></trkpt><trkpt lat="42.21593333243846" lon="12.739146090350296"><ele>162.20000000000002</ele><time>2026-03-22T10:56:07Z</time></trkpt><trkpt lat="42.216016428174854" lon="12.739018719405232"><ele>161.0</ele><time>2026-03-22T10:56:08Z</time></trkpt><trkpt lat="42.21610377938437" lon="12.738890322685574"><ele>159.25</ele><time>2026-03-22T10:56:09Z</time></trkpt><trkpt lat="42.21618584337441" lon="12.738774946442664"><ele>157.5</ele><time>2026-03-22T10:56:10Z</time></trkpt><trkpt lat="42.21627265628092" lon="12.738653030802409"><ele>155.75</ele><time>2026-03-22T10:56:11Z</time></trkpt><trkpt lat="42.21635577152103" lon="12.738536372222638"><ele>154.0</ele><time>2026-03-22T10:56:12Z</time></trkpt><trkpt lat="42.21643972379138" lon="12.738421295310284"><ele>154.0</ele><time>2026-03-22T10:56:13Z</time></trkpt><trkpt lat="42.216527366549485" lon="12.738303719414157"><ele>154.0</ele><time>2026-03-22T10:56:14Z</time></trkpt><trkpt lat="42.21660959661906" lon="12.738195732929778"><ele>154.0</ele><time>2026-03-22T10:56:15Z</time></trkpt><trkpt lat="42.21667949134371" lon="12.738103945217098"><ele>154.0</ele><time>2026-03-22T10:56:16Z</time></trkpt><trkpt lat="42.21674948538395" lon="12.738013991865406"><ele>154.0</ele><time>2026-03-22T10:56:17Z</time></trkpt><trkpt lat="42.21681329725276" lon="12.737935733057514"><ele>154.0</ele><time>2026-03-22T10:56:17.999Z</time></trkpt><trkpt lat="42.216875582677275" lon="12.737856421175412"><ele>154.0</ele><time>2026-03-22T10:56:18.999Z</time></trkpt><trkpt lat="42.21693203262601" lon="12.737763099983122"><ele>154.0</ele><time>2026-03-22T10:56:19.999Z</time></trkpt><trkpt lat="42.21698679698045" lon="12.737668349978403"><ele>154.0</ele><time>2026-03-22T10:56:20.999Z</time></trkpt><trkpt lat="42.21705843705113" lon="12.737577993209559"><ele>154.0</ele><time>2026-03-22T10:56:21.999Z</time></trkpt><trkpt lat="42.21711615405465" lon="12.737472227338904"><ele>153.4</ele><time>2026-03-22T10:56:22.999Z</time></trkpt><trkpt lat="42.21716548823053" lon="12.73736183991429"><ele>152.8</ele><time>2026-03-22T10:56:23.999Z</time></trkpt><trkpt lat="42.21721402477256" lon="12.73723891144654"><ele>152.2</ele><time>2026-03-22T10:56:24.999Z</time></trkpt><trkpt lat="42.217245357950894" lon="12.737098727934725"><ele>151.6</ele><time>2026-03-22T10:56:25.999Z</time></trkpt><trkpt lat="42.217257767002245" lon="12.736946481022734"><ele>151.0</ele><time>2026-03-22T10:56:26.999Z</time></trkpt><trkpt lat="42.21725414863864" lon="12.736818518059225"><ele>150.5</ele><time>2026-03-22T10:56:27.999Z</time></trkpt><trkpt lat="42.2172261188317" lon="12.736703425537373"><ele>150.0</ele><time>2026-03-22T10:56:28.999Z</time></trkpt><trkpt lat="42.217199430433766" lon="12.736615374269773"><ele>149.5</ele><time>2026-03-22T10:56:30.001Z</time></trkpt><trkpt lat="42.2171836012729" lon="12.736511321138156"><ele>149.0</ele><time>2026-03-22T10:56:31.001Z</time></trkpt><trkpt lat="42.21750513569638" lon="12.736293514143297"><ele>148.25</ele><time>2026-03-22T10:56:33.001Z</time></trkpt><trkpt lat="42.21758243550159" lon="12.73622143609916"><ele>147.5</ele><time>2026-03-22T10:56:34.001Z</time></trkpt><trkpt lat="42.217659869094966" lon="12.736128031289788"><ele>146.75</ele><time>2026-03-22T10:56:35Z</time></trkpt><trkpt lat="42.21773441253368" lon="12.736007710600111"><ele>146.0</ele><time>2026-03-22T10:56:36Z</time></trkpt><trkpt lat="42.217839149141746" lon="12.735876541020334"><ele>146.0</ele><time>2026-03-22T10:56:37.001Z</time></trkpt><trkpt lat="42.2179346562329" lon="12.735722041971863"><ele>146.0</ele><time>2026-03-22T10:56:38Z</time></trkpt><trkpt lat="42.21804336962664" lon="12.73555489182118"><ele>146.0</ele><time>2026-03-22T10:56:39Z</time></trkpt><trkpt lat="42.218151524655035" lon="12.735395950632633"><ele>147.0</ele><time>2026-03-22T10:56:40Z</time></trkpt><trkpt lat="42.21822833745051" lon="12.735249736802656"><ele>148.0</ele><time>2026-03-22T10:56:41Z</time></trkpt><trkpt lat="42.21831380872918" lon="12.735068139454157"><ele>149.0</ele><time>2026-03-22T10:56:42Z</time></trkpt><trkpt lat="42.21839016751555" lon="12.73488485184078"><ele>150.0</ele><time>2026-03-22T10:56:43Z</time></trkpt><trkpt lat="42.21846577001" lon="12.734728233162421"><ele>150.0</ele><time>2026-03-22T10:56:44Z</time></trkpt><trkpt lat="42.21853108034363" lon="12.734563232798857"><ele>150.0</ele><time>2026-03-22T10:56:45Z</time></trkpt><trkpt lat="42.21858600220518" lon="12.734382449593301"><ele>150.0</ele><time>2026-03-22T10:56:46Z</time></trkpt><trkpt lat="42.218649086090835" lon="12.734177080115298"><ele>150.0</ele><time>2026-03-22T10:56:47Z</time></trkpt><trkpt lat="42.21868523158907" lon="12.734006310068542"><ele>147.66666666666666</ele><time>2026-03-22T10:56:48Z</time></trkpt><trkpt lat="42.218744747607204" lon="12.733810651256277"><ele>145.33333333333331</ele><time>2026-03-22T10:56:49Z</time></trkpt><trkpt lat="42.21879995078049" lon="12.73362704687341"><ele>143.0</ele><time>2026-03-22T10:56:50Z</time></trkpt><trkpt lat="42.21883385038955" lon="12.733428734683441"><ele>141.75</ele><time>2026-03-22T10:56:51Z</time></trkpt><trkpt lat="42.21885302600276" lon="12.733236301428914"><ele>140.5</ele><time>2026-03-22T10:56:52Z</time></trkpt><trkpt lat="42.21886317214608" lon="12.733034799487307"><ele>139.25</ele><time>2026-03-22T10:56:53Z</time></trkpt><trkpt lat="42.218872057292124" lon="12.732909478131264"><ele>138.0</ele><time>2026-03-22T10:56:54Z</time></trkpt><trkpt lat="42.21885586952485" lon="12.732825419598692"><ele>138.8</ele><time>2026-03-22T10:56:55Z</time></trkpt><trkpt lat="42.21887975209469" lon="12.732711364648354"><ele>139.60000000000002</ele><time>2026-03-22T10:56:57Z</time></trkpt><trkpt lat="42.218987755260464" lon="12.732630297997916"><ele>140.39999999999998</ele><time>2026-03-22T10:56:59Z</time></trkpt><trkpt lat="42.21902011220072" lon="12.732452558250902"><ele>141.2</ele><time>2026-03-22T10:57:01Z</time></trkpt><trkpt lat="42.21905311813344" lon="12.732376249862185"><ele>142.0</ele><time>2026-03-22T10:57:02Z</time></trkpt><trkpt lat="42.21904774932788" lon="12.732279841237961"><ele>142.16666666666669</ele><time>2026-03-22T10:57:03Z</time></trkpt><trkpt lat="42.21906084859703" lon="12.732189713254343"><ele>142.33333333333334</ele><time>2026-03-22T10:57:04Z</time></trkpt><trkpt lat="42.21906214114465" lon="12.732067677016515"><ele>142.5</ele><time>2026-03-22T10:57:05Z</time></trkpt><trkpt lat="42.21908873697036" lon="12.731934313002338"><ele>142.66666666666666</ele><time>2026-03-22T10:57:06Z</time></trkpt><trkpt lat="42.21907222194435" lon="12.731782952268386"><ele>142.83333333333331</ele><time>2026-03-22T10:57:07Z</time></trkpt><trkpt lat="42.21909094563764" lon="12.731696587634007"><ele>143.0</ele><time>2026-03-22T10:57:08Z</time></trkpt><trkpt lat="42.219102713262195" lon="12.731609845851603"><ele>143.0</ele><time>2026-03-22T10:57:09Z</time></trkpt><trkpt lat="42.21909435679207" lon="12.731470727036596"><ele>143.0</ele><time>2026-03-22T10:57:11Z</time></trkpt><trkpt lat="42.21908868258976" lon="12.731337535801266"><ele>143.0</ele><time>2026-03-22T10:57:13Z</time></trkpt><trkpt lat="42.219142257177424" lon="12.73124339846406"><ele>143.0</ele><time>2026-03-22T10:57:15Z</time></trkpt><trkpt lat="42.21920228691899" lon="12.731164868721402"><ele>143.0</ele><time>2026-03-22T10:57:17Z</time></trkpt><trkpt lat="42.219268142516206" lon="12.731033738884578"><ele>142.16666666666666</ele><time>2026-03-22T10:57:19Z</time></trkpt><trkpt lat="42.21929579500298" lon="12.730944046678838"><ele>141.33333333333331</ele><time>2026-03-22T10:57:20Z</time></trkpt><trkpt lat="42.21929125584304" lon="12.730834766511842"><ele>140.5</ele><time>2026-03-22T10:57:21Z</time></trkpt><trkpt lat="42.219290333798384" lon="12.730709553268403"><ele>139.66666666666666</ele><time>2026-03-22T10:57:22Z</time></trkpt><trkpt lat="42.21929331749121" lon="12.730610817990842"><ele>138.83333333333334</ele><time>2026-03-22T10:57:23Z</time></trkpt><trkpt lat="42.21929603843367" lon="12.730451758919232"><ele>138.0</ele><time>2026-03-22T10:57:25Z</time></trkpt><trkpt lat="42.219308252161426" lon="12.730339048313366"><ele>138.0</ele><time>2026-03-22T10:57:27Z</time></trkpt><trkpt lat="42.21932461777947" lon="12.730252984302743"><ele>138.0</ele><time>2026-03-22T10:57:28Z</time></trkpt><trkpt lat="42.21936343211269" lon="12.730151966828146"><ele>138.0</ele><time>2026-03-22T10:57:29Z</time></trkpt><trkpt lat="42.21940323594857" lon="12.730075052906608"><ele>138.0</ele><time>2026-03-22T10:57:30Z</time></trkpt><trkpt lat="42.219444074917206" lon="12.729960686517591"><ele>138.0</ele><time>2026-03-22T10:57:31Z</time></trkpt><trkpt lat="42.219498006823116" lon="12.72985768560243"><ele>138.0</ele><time>2026-03-22T10:57:32Z</time></trkpt><trkpt lat="42.219554826332114" lon="12.729747121318262"><ele>138.20000000000002</ele><time>2026-03-22T10:57:33Z</time></trkpt><trkpt lat="42.21961544619442" lon="12.729663292171367"><ele>138.4</ele><time>2026-03-22T10:57:34Z</time></trkpt><trkpt lat="42.21968043214811" lon="12.72958877467761"><ele>138.60000000000002</ele><time>2026-03-22T10:57:35Z</time></trkpt><trkpt lat="42.219759488901495" lon="12.729540060808095"><ele>138.8</ele><time>2026-03-22T10:57:36Z</time></trkpt><trkpt lat="42.21987578287832" lon="12.729512966555651"><ele>139.0</ele><time>2026-03-22T10:57:37Z</time></trkpt><trkpt lat="42.220001989099316" lon="12.729451776182191"><ele>137.75</ele><time>2026-03-22T10:57:38Z</time></trkpt><trkpt lat="42.22013157150676" lon="12.729366265638587"><ele>136.5</ele><time>2026-03-22T10:57:39Z</time></trkpt><trkpt lat="42.220241032161226" lon="12.729245836058388"><ele>135.25</ele><time>2026-03-22T10:57:40Z</time></trkpt><trkpt lat="42.220337079870454" lon="12.729102541522643"><ele>134.0</ele><time>2026-03-22T10:57:41Z</time></trkpt><trkpt lat="42.22041733579561" lon="12.728970519104426"><ele>134.0</ele><time>2026-03-22T10:57:42Z</time></trkpt><trkpt lat="42.22047612418152" lon="12.728850167087584"><ele>134.0</ele><time>2026-03-22T10:57:43Z</time></trkpt><trkpt lat="42.22053096587177" lon="12.72875151039082"><ele>134.0</ele><time>2026-03-22T10:57:44Z</time></trkpt><trkpt lat="42.220589410379695" lon="12.728663265820797"><ele>134.0</ele><time>2026-03-22T10:57:45Z</time></trkpt><trkpt lat="42.22063220613609" lon="12.728571674193118"><ele>134.0</ele><time>2026-03-22T10:57:46Z</time></trkpt><trkpt lat="42.220665685351456" lon="12.728469111284706"><ele>134.0</ele><time>2026-03-22T10:57:47Z</time></trkpt><trkpt lat="42.22068730973195" lon="12.728353107780968"><ele>133.6</ele><time>2026-03-22T10:57:48Z</time></trkpt><trkpt lat="42.220685274928655" lon="12.728214531352956"><ele>133.2</ele><time>2026-03-22T10:57:49Z</time></trkpt><trkpt lat="42.220689905655924" lon="12.728092849060085"><ele>132.79999999999998</ele><time>2026-03-22T10:57:50Z</time></trkpt><trkpt lat="42.220708687439824" lon="12.727982981614407"><ele>132.4</ele><time>2026-03-22T10:57:51Z</time></trkpt><trkpt lat="42.22074937877606" lon="12.727867648848038"><ele>132.0</ele><time>2026-03-22T10:57:52Z</time></trkpt><trkpt lat="42.22080992345924" lon="12.727743178133288"><ele>130.25</ele><time>2026-03-22T10:57:53Z</time></trkpt><trkpt lat="42.22088477560477" lon="12.727604931606379"><ele>128.5</ele><time>2026-03-22T10:57:54Z</time></trkpt><trkpt lat="42.220962276320456" lon="12.727453158860722"><ele>126.75</ele><time>2026-03-22T10:57:55Z</time></trkpt><trkpt lat="42.22104023054246" lon="12.727297872524787"><ele>125.0</ele><time>2026-03-22T10:57:56Z</time></trkpt><trkpt lat="42.22111289590108" lon="12.727160245679523"><ele>125.0</ele><time>2026-03-22T10:57:57Z</time></trkpt><trkpt lat="42.22118128898052" lon="12.727028349417838"><ele>125.0</ele><time>2026-03-22T10:57:58Z</time></trkpt><trkpt lat="42.221250284000924" lon="12.726918085837005"><ele>125.0</ele><time>2026-03-22T10:57:59Z</time></trkpt><trkpt lat="42.22130497398082" lon="12.726848899322059"><ele>125.0</ele><time>2026-03-22T10:58:00Z</time></trkpt><trkpt lat="42.221337163900955" lon="12.726750115375562"><ele>125.0</ele><time>2026-03-22T10:58:02Z</time></trkpt><trkpt lat="42.22132568016691" lon="12.726641289264023"><ele>125.2</ele><time>2026-03-22T10:58:04Z</time></trkpt><trkpt lat="42.22137721151175" lon="12.726568310392453"><ele>125.4</ele><time>2026-03-22T10:58:08Z</time></trkpt><trkpt lat="42.221418170954315" lon="12.726486153860204"><ele>125.6</ele><time>2026-03-22T10:58:10Z</time></trkpt><trkpt lat="42.22139621451406" lon="12.726362112256478"><ele>125.8</ele><time>2026-03-22T10:58:12Z</time></trkpt><trkpt lat="42.221309751603705" lon="12.726271577333433"><ele>126.0</ele><time>2026-03-22T10:58:14Z</time></trkpt><trkpt lat="42.2212865198401" lon="12.72612278533537"><ele>128.6</ele><time>2026-03-22T10:58:16Z</time></trkpt><trkpt lat="42.22129151889687" lon="12.72602007495881"><ele>131.2</ele><time>2026-03-22T10:58:17Z</time></trkpt><trkpt lat="42.22130684471459" lon="12.725915747057972"><ele>133.8</ele><time>2026-03-22T10:58:18Z</time></trkpt><trkpt lat="42.22132103563065" lon="12.725802851363307"><ele>136.4</ele><time>2026-03-22T10:58:19Z</time></trkpt><trkpt lat="42.22135127608826" lon="12.725664774781345"><ele>139.0</ele><time>2026-03-22T10:58:19.999Z</time></trkpt><trkpt lat="42.221358767793056" lon="12.725519274627565"><ele>139.0</ele><time>2026-03-22T10:58:20.999Z</time></trkpt><trkpt lat="42.22136360428837" lon="12.72536985840884"><ele>139.0</ele><time>2026-03-22T10:58:21.999Z</time></trkpt><trkpt lat="42.221399591649565" lon="12.72523313073945"><ele>139.0</ele><time>2026-03-22T10:58:22.999Z</time></trkpt><trkpt lat="42.22146333951725" lon="12.72508369276612"><ele>139.0</ele><time>2026-03-22T10:58:23.999Z</time></trkpt><trkpt lat="42.22153028075377" lon="12.72492018859461"><ele>140.25</ele><time>2026-03-22T10:58:24.999Z</time></trkpt><trkpt lat="42.22159913558774" lon="12.72474228018865"><ele>141.5</ele><time>2026-03-22T10:58:25.999Z</time></trkpt><trkpt lat="42.221664628653144" lon="12.724558468918866"><ele>142.75</ele><time>2026-03-22T10:58:26.999Z</time></trkpt><trkpt lat="42.22170338816157" lon="12.724402357095094"><ele>144.0</ele><time>2026-03-22T10:58:27.999Z</time></trkpt><trkpt lat="42.221725516432436" lon="12.724263649790093"><ele>144.0</ele><time>2026-03-22T10:58:28.999Z</time></trkpt><trkpt lat="42.22171475416325" lon="12.724158657723944"><ele>144.0</ele><time>2026-03-22T10:58:29.999Z</time></trkpt><trkpt lat="42.22169128098245" lon="12.724041894985655"><ele>144.0</ele><time>2026-03-22T10:58:30.999Z</time></trkpt><trkpt lat="42.221662662876845" lon="12.723892004188324"><ele>144.0</ele><time>2026-03-22T10:58:31.999Z</time></trkpt><trkpt lat="42.221634270752546" lon="12.723715927475233"><ele>144.0</ele><time>2026-03-22T10:58:32.999Z</time></trkpt><trkpt lat="42.22161921566412" lon="12.723539783296054"><ele>147.0</ele><time>2026-03-22T10:58:33.999Z</time></trkpt><trkpt lat="42.22164103820748" lon="12.723374502135773"><ele>150.0</ele><time>2026-03-22T10:58:35Z</time></trkpt><trkpt lat="42.22165423177005" lon="12.72321248145159"><ele>153.0</ele><time>2026-03-22T10:58:36Z</time></trkpt><trkpt lat="42.22163987005406" lon="12.723051680136008"><ele>156.0</ele><time>2026-03-22T10:58:37Z</time></trkpt><trkpt lat="42.22161682076424" lon="12.722869954680302"><ele>158.33333333333334</ele><time>2026-03-22T10:58:38Z</time></trkpt><trkpt lat="42.22159368122454" lon="12.722654423373067"><ele>160.66666666666669</ele><time>2026-03-22T10:58:39Z</time></trkpt><trkpt lat="42.22158425909652" lon="12.722445119271168"><ele>163.0</ele><time>2026-03-22T10:58:40Z</time></trkpt><trkpt lat="42.22155492602301" lon="12.722220869162417"><ele>163.0</ele><time>2026-03-22T10:58:41Z</time></trkpt><trkpt lat="42.22148425834858" lon="12.721981168474187"><ele>163.0</ele><time>2026-03-22T10:58:42Z</time></trkpt><trkpt lat="42.22150297190003" lon="12.721742186384398"><ele>163.0</ele><time>2026-03-22T10:58:43Z</time></trkpt><trkpt lat="42.22152352946296" lon="12.721520406423034"><ele>163.8</ele><time>2026-03-22T10:58:44Z</time></trkpt><trkpt lat="42.22153968496363" lon="12.721336042801251"><ele>164.60000000000002</ele><time>2026-03-22T10:58:45Z</time></trkpt><trkpt lat="42.221549879263335" lon="12.72119005924217"><ele>165.39999999999998</ele><time>2026-03-22T10:58:46Z</time></trkpt><trkpt lat="42.22155610811379" lon="12.721065324462497"><ele>166.2</ele><time>2026-03-22T10:58:47Z</time></trkpt><trkpt lat="42.221563740725045" lon="12.720961574119745"><ele>167.0</ele><time>2026-03-22T10:58:48Z</time></trkpt><trkpt lat="42.2215419500149" lon="12.720787239089177"><ele>168.6</ele><time>2026-03-22T10:58:50Z</time></trkpt><trkpt lat="42.22149288419842" lon="12.720688727483287"><ele>170.2</ele><time>2026-03-22T10:58:51Z</time></trkpt><trkpt lat="42.221445760956065" lon="12.720575249090405"><ele>171.8</ele><time>2026-03-22T10:58:52Z</time></trkpt><trkpt lat="42.221405060492216" lon="12.720448550443285"><ele>173.4</ele><time>2026-03-22T10:58:53Z</time></trkpt><trkpt lat="42.22136259213738" lon="12.720309222067952"><ele>175.0</ele><time>2026-03-22T10:58:54Z</time></trkpt><trkpt lat="42.2213309378271" lon="12.720177938960948"><ele>183.0</ele><time>2026-03-22T10:58:55Z</time></trkpt><trkpt lat="42.221292217059585" lon="12.720056623324785"><ele>191.0</ele><time>2026-03-22T10:58:56Z</time></trkpt><trkpt lat="42.22125328397267" lon="12.719957658616341"><ele>199.0</ele><time>2026-03-22T10:58:57Z</time></trkpt><trkpt lat="42.221219449707" lon="12.719861028647166"><ele>207.0</ele><time>2026-03-22T10:58:58Z</time></trkpt><trkpt lat="42.221325873246165" lon="12.719588785723719"><ele>207.0</ele><time>2026-03-22T10:59:04Z</time></trkpt><trkpt lat="42.221400840675535" lon="12.719556811644205"><ele>207.0</ele><time>2026-03-22T10:59:06Z</time></trkpt><trkpt lat="42.22146547487694" lon="12.719537614472927"><ele>207.0</ele><time>2026-03-22T10:59:07Z</time></trkpt><trkpt lat="42.22162282549791" lon="12.719536006553557"><ele>207.0</ele><time>2026-03-22T10:59:09Z</time></trkpt><trkpt lat="42.22192686958937" lon="12.720035043995287"><ele>203.39999999999998</ele><time>2026-03-22T10:59:13Z</time></trkpt><trkpt lat="42.22198708969933" lon="12.720142075884349"><ele>199.79999999999998</ele><time>2026-03-22T10:59:14Z</time></trkpt><trkpt lat="42.222059803624546" lon="12.72022520099902"><ele>196.2</ele><time>2026-03-22T10:59:15Z</time></trkpt><trkpt lat="42.22213544984961" lon="12.720286712284617"><ele>192.6</ele><time>2026-03-22T10:59:16Z</time></trkpt><trkpt lat="42.222223024762336" lon="12.720372732175777"><ele>189.0</ele><time>2026-03-22T10:59:18Z</time></trkpt><trkpt lat="42.22232172339042" lon="12.72037254856657"><ele>185.2</ele><time>2026-03-22T10:59:20Z</time></trkpt><trkpt lat="42.22241744361956" lon="12.720376375408009"><ele>181.39999999999998</ele><time>2026-03-22T10:59:22Z</time></trkpt><trkpt lat="42.22249798177393" lon="12.72033388786332"><ele>177.6</ele><time>2026-03-22T10:59:24Z</time></trkpt><trkpt lat="42.22251190697991" lon="12.720192782568853"><ele>173.8</ele><time>2026-03-22T10:59:27Z</time></trkpt><trkpt lat="42.22254193073208" lon="12.720007480593086"><ele>170.0</ele><time>2026-03-22T10:59:28Z</time></trkpt><trkpt lat="42.222627078894206" lon="12.719862884391892"><ele>170.0</ele><time>2026-03-22T10:59:29Z</time></trkpt><trkpt lat="42.22271727680393" lon="12.71970746927143"><ele>170.0</ele><time>2026-03-22T10:59:30Z</time></trkpt><trkpt lat="42.222820817783344" lon="12.719531949364312"><ele>170.0</ele><time>2026-03-22T10:59:31Z</time></trkpt><trkpt lat="42.22291182084162" lon="12.719373457280708"><ele>172.2</ele><time>2026-03-22T10:59:32Z</time></trkpt><trkpt lat="42.22298794765972" lon="12.719231841136315"><ele>174.4</ele><time>2026-03-22T10:59:33Z</time></trkpt><trkpt lat="42.22306455359844" lon="12.719111897927453"><ele>176.60000000000002</ele><time>2026-03-22T10:59:34Z</time></trkpt><trkpt lat="42.22312350373172" lon="12.719002648166812"><ele>178.8</ele><time>2026-03-22T10:59:35Z</time></trkpt><trkpt lat="42.22318215654006" lon="12.718902158760987"><ele>181.0</ele><time>2026-03-22T10:59:36Z</time></trkpt><trkpt lat="42.22323877933484" lon="12.718793246050375"><ele>177.20000000000002</ele><time>2026-03-22T10:59:37Z</time></trkpt><trkpt lat="42.22331618571106" lon="12.718657143299904"><ele>173.4</ele><time>2026-03-22T10:59:39Z</time></trkpt><trkpt lat="42.2233483884136" lon="12.718567766840849"><ele>169.6</ele><time>2026-03-22T10:59:40Z</time></trkpt><trkpt lat="42.223379835568906" lon="12.71846070210934"><ele>165.8</ele><time>2026-03-22T10:59:41Z</time></trkpt><trkpt lat="42.22341601298658" lon="12.718346143629393"><ele>162.0</ele><time>2026-03-22T10:59:42Z</time></trkpt><trkpt lat="42.22346169159996" lon="12.718245856346273"><ele>162.0</ele><time>2026-03-22T10:59:43Z</time></trkpt><trkpt lat="42.22352234399538" lon="12.718165834147657"><ele>162.0</ele><time>2026-03-22T10:59:44Z</time></trkpt><trkpt lat="42.22358645894454" lon="12.718143395370346"><ele>162.0</ele><time>2026-03-22T10:59:45Z</time></trkpt><trkpt lat="42.223649347965306" lon="12.718116548324192"><ele>162.0</ele><time>2026-03-22T10:59:46Z</time></trkpt><trkpt lat="42.22371177843436" lon="12.718084273449893"><ele>162.0</ele><time>2026-03-22T10:59:47Z</time></trkpt><trkpt lat="42.22372559749545" lon="12.718220917494179"><ele>162.0</ele><time>2026-03-22T11:00:34.999Z</time></trkpt><trkpt lat="42.223801960956386" lon="12.718273788314386"><ele>162.0</ele><time>2026-03-22T11:00:35.999Z</time></trkpt><trkpt lat="42.2238647024944" lon="12.718316493194399"><ele>162.0</ele><time>2026-03-22T11:00:36.999Z</time></trkpt><trkpt lat="42.223917874685306" lon="12.71838306857506"><ele>162.0</ele><time>2026-03-22T11:00:37.999Z</time></trkpt><trkpt lat="42.22396672764621" lon="12.718517792577163"><ele>162.0</ele><time>2026-03-22T11:00:39.999Z</time></trkpt><trkpt lat="42.22399247964933" lon="12.718628475408329"><ele>162.0</ele><time>2026-03-22T11:00:42Z</time></trkpt><trkpt lat="42.22405567799096" lon="12.718723730524465"><ele>162.0</ele><time>2026-03-22T11:00:44Z</time></trkpt><trkpt lat="42.2241217441414" lon="12.71883766804746"><ele>159.57142857142858</ele><time>2026-03-22T11:00:46Z</time></trkpt><trkpt lat="42.224184034777764" lon="12.71890757900109"><ele>157.14285714285714</ele><time>2026-03-22T11:00:48Z</time></trkpt><trkpt lat="42.22421247573312" lon="12.718997892572435"><ele>154.71428571428572</ele><time>2026-03-22T11:00:50Z</time></trkpt><trkpt lat="42.22424365560378" lon="12.71909202386378"><ele>152.28571428571428</ele><time>2026-03-22T11:00:52Z</time></trkpt><trkpt lat="42.22427174629106" lon="12.7191798882742"><ele>149.85714285714286</ele><time>2026-03-22T11:00:56Z</time></trkpt><trkpt lat="42.22427198931632" lon="12.719090376879114"><ele>147.42857142857144</ele><time>2026-03-22T11:01:10Z</time></trkpt><trkpt lat="42.224223353848316" lon="12.719149308361272"><ele>145.0</ele><time>2026-03-22T11:01:19Z</time></trkpt><trkpt lat="42.22432812146048" lon="12.719276921425768"><ele>145.0</ele><time>2026-03-22T11:01:21Z</time></trkpt><trkpt lat="42.224385353324685" lon="12.719369360154142"><ele>145.0</ele><time>2026-03-22T11:01:22Z</time></trkpt><trkpt lat="42.22442370569415" lon="12.719460946330475"><ele>145.0</ele><time>2026-03-22T11:01:23Z</time></trkpt><trkpt lat="42.22444708937172" lon="12.719547101345048"><ele>145.0</ele><time>2026-03-22T11:01:24Z</time></trkpt><trkpt lat="42.22449909318479" lon="12.719683447739515"><ele>145.0</ele><time>2026-03-22T11:01:26Z</time></trkpt><trkpt lat="42.22458552234183" lon="12.71973869825729"><ele>145.0</ele><time>2026-03-22T11:01:28Z</time></trkpt><trkpt lat="42.22462218774808" lon="12.71982288627304"><ele>145.0</ele><time>2026-03-22T11:01:30Z</time></trkpt><trkpt lat="42.224579542302855" lon="12.719913025936995"><ele>145.0</ele><time>2026-03-22T11:01:57Z</time></trkpt><trkpt lat="42.224542249515494" lon="12.719802062228554"><ele>145.0</ele><time>2026-03-22T11:01:59Z</time></trkpt><trkpt lat="42.22450566075729" lon="12.719638191258499"><ele>145.0</ele><time>2026-03-22T11:02:01Z</time></trkpt><trkpt lat="42.224494475520984" lon="12.719547187940393"><ele>145.0</ele><time>2026-03-22T11:02:02Z</time></trkpt><trkpt lat="42.224472659471076" lon="12.719456709786883"><ele>145.0</ele><time>2026-03-22T11:02:03Z</time></trkpt><trkpt lat="42.22439600054693" lon="12.719354437659037"><ele>145.0</ele><time>2026-03-22T11:02:05Z</time></trkpt><trkpt lat="42.22434261530144" lon="12.719301679168526"><ele>145.0</ele><time>2026-03-22T11:02:06Z</time></trkpt><trkpt lat="42.22429695009906" lon="12.71923129961691"><ele>145.0</ele><time>2026-03-22T11:02:08Z</time></trkpt><trkpt lat="42.22424637323773" lon="12.719161865332858"><ele>145.0</ele><time>2026-03-22T11:02:10Z</time></trkpt><trkpt lat="42.224233849966524" lon="12.719056700447732"><ele>145.0</ele><time>2026-03-22T11:02:13Z</time></trkpt><trkpt lat="42.224369232142664" lon="12.71905423051601"><ele>145.0</ele><time>2026-03-22T11:03:07Z</time></trkpt><trkpt lat="42.224337680834765" lon="12.718945602176394"><ele>145.0</ele><time>2026-03-22T11:03:13Z</time></trkpt><trkpt lat="42.224325711900356" lon="12.71883885721856"><ele>145.0</ele><time>2026-03-22T11:03:15Z</time></trkpt><trkpt lat="42.22432282073666" lon="12.718713067939511"><ele>145.0</ele><time>2026-03-22T11:03:17Z</time></trkpt><trkpt lat="42.224340042473884" lon="12.718587946593116"><ele>145.0</ele><time>2026-03-22T11:03:19Z</time></trkpt><trkpt lat="42.224358454505065" lon="12.718466149925725"><ele>145.0</ele><time>2026-03-22T11:03:21Z</time></trkpt><trkpt lat="42.22430893790481" lon="12.718374419525414"><ele>145.0</ele><time>2026-03-22T11:03:23Z</time></trkpt><trkpt lat="42.224222032429424" lon="12.718242091620732"><ele>145.0</ele><time>2026-03-22T11:03:25Z</time></trkpt><trkpt lat="42.22418493837867" lon="12.718172755115562"><ele>145.0</ele><time>2026-03-22T11:03:26Z</time></trkpt><trkpt lat="42.22413348243062" lon="12.718033276822752"><ele>145.0</ele><time>2026-03-22T11:03:28Z</time></trkpt><trkpt lat="42.22408905437543" lon="12.717877504499066"><ele>145.0</ele><time>2026-03-22T11:03:30Z</time></trkpt><trkpt lat="42.224095797451184" lon="12.717777805276034"><ele>145.0</ele><time>2026-03-22T11:03:32Z</time></trkpt><trkpt lat="42.22421831951825" lon="12.717750070188895"><ele>144.4</ele><time>2026-03-22T11:03:35Z</time></trkpt><trkpt lat="42.224295401287606" lon="12.717731818097514"><ele>143.8</ele><time>2026-03-22T11:03:36Z</time></trkpt><trkpt lat="42.22435979018341" lon="12.717694939378188"><ele>143.2</ele><time>2026-03-22T11:03:37Z</time></trkpt><trkpt lat="42.22445909791359" lon="12.717650524004647"><ele>142.6</ele><time>2026-03-22T11:03:39Z</time></trkpt><trkpt lat="42.224510161558825" lon="12.717561713408635"><ele>142.0</ele><time>2026-03-22T11:03:41Z</time></trkpt><trkpt lat="42.22447533738991" lon="12.717414397884461"><ele>142.0</ele><time>2026-03-22T11:03:43Z</time></trkpt><trkpt lat="42.22445700909542" lon="12.71731035721185"><ele>142.0</ele><time>2026-03-22T11:03:44Z</time></trkpt><trkpt lat="42.22447084742436" lon="12.717219773146654"><ele>142.0</ele><time>2026-03-22T11:03:45Z</time></trkpt><trkpt lat="42.224504234700944" lon="12.717125415819854"><ele>142.0</ele><time>2026-03-22T11:03:46Z</time></trkpt><trkpt lat="42.22455918334408" lon="12.717011275616173"><ele>142.0</ele><time>2026-03-22T11:03:47Z</time></trkpt><trkpt lat="42.224596152893746" lon="12.716908249238037"><ele>142.0</ele><time>2026-03-22T11:03:48Z</time></trkpt><trkpt lat="42.22462082088578" lon="12.716801858393277"><ele>143.0</ele><time>2026-03-22T11:03:49Z</time></trkpt><trkpt lat="42.224631170160244" lon="12.71669389484501"><ele>144.0</ele><time>2026-03-22T11:03:50Z</time></trkpt><trkpt lat="42.22461472419539" lon="12.716532345962623"><ele>145.0</ele><time>2026-03-22T11:03:52Z</time></trkpt><trkpt lat="42.224604368218145" lon="12.716421938343487"><ele>146.0</ele><time>2026-03-22T11:03:53Z</time></trkpt><trkpt lat="42.224606668797165" lon="12.716315417612769"><ele>147.0</ele><time>2026-03-22T11:03:54Z</time></trkpt><trkpt lat="42.22461700268986" lon="12.71614373126458"><ele>147.0</ele><time>2026-03-22T11:03:56Z</time></trkpt><trkpt lat="42.22465298066873" lon="12.716012545701567"><ele>147.0</ele><time>2026-03-22T11:03:58Z</time></trkpt><trkpt lat="42.22475081330037" lon="12.716021682178848"><ele>147.0</ele><time>2026-03-22T11:04:00Z</time></trkpt><trkpt lat="42.224792084225726" lon="12.716091168383603"><ele>147.0</ele><time>2026-03-22T11:04:01Z</time></trkpt><trkpt lat="42.224801425079434" lon="12.716259786430257"><ele>147.0</ele><time>2026-03-22T11:04:03Z</time></trkpt><trkpt lat="42.22485978423545" lon="12.716363403664445"><ele>141.4</ele><time>2026-03-22T11:04:05Z</time></trkpt><trkpt lat="42.224947801253876" lon="12.716305888134741"><ele>135.79999999999998</ele><time>2026-03-22T11:04:08Z</time></trkpt><trkpt lat="42.224992008374116" lon="12.716175498517416"><ele>130.2</ele><time>2026-03-22T11:04:10Z</time></trkpt><trkpt lat="42.225011553622025" lon="12.716087919739932"><ele>124.6</ele><time>2026-03-22T11:04:11Z</time></trkpt><trkpt lat="42.225052912394126" lon="12.716023426916081"><ele>119.0</ele><time>2026-03-22T11:04:12Z</time></trkpt><trkpt lat="42.22520105449016" lon="12.716068203754562"><ele>118.66666666666666</ele><time>2026-03-22T11:04:15Z</time></trkpt><trkpt lat="42.225252604723714" lon="12.716142466809503"><ele>118.33333333333333</ele><time>2026-03-22T11:04:16Z</time></trkpt><trkpt lat="42.22530680317342" lon="12.716231737735393"><ele>118.0</ele><time>2026-03-22T11:04:17Z</time></trkpt><trkpt lat="42.225368867359514" lon="12.71631254528426"><ele>117.66666666666666</ele><time>2026-03-22T11:04:18Z</time></trkpt><trkpt lat="42.225422889513396" lon="12.716375120855504"><ele>117.33333333333333</ele><time>2026-03-22T11:04:19Z</time></trkpt><trkpt lat="42.225512530337994" lon="12.716412689423738"><ele>117.0</ele><time>2026-03-22T11:04:21Z</time></trkpt><trkpt lat="42.22557922184271" lon="12.716398319221529"><ele>117.0</ele><time>2026-03-22T11:04:23Z</time></trkpt><trkpt lat="42.22564004616666" lon="12.716357864783603"><ele>117.0</ele><time>2026-03-22T11:04:27Z</time></trkpt><trkpt lat="42.22569479188252" lon="12.716282338860582"><ele>117.0</ele><time>2026-03-22T11:04:28.999Z</time></trkpt><trkpt lat="42.22574735723797" lon="12.716158319233351"><ele>117.0</ele><time>2026-03-22T11:04:30.999Z</time></trkpt><trkpt lat="42.22576039814395" lon="12.716059605918687"><ele>117.0</ele><time>2026-03-22T11:04:31.999Z</time></trkpt><trkpt lat="42.22576285019912" lon="12.715959500735169"><ele>117.0</ele><time>2026-03-22T11:04:32.999Z</time></trkpt><trkpt lat="42.22576003996624" lon="12.715866909709996"><ele>115.33333333333333</ele><time>2026-03-22T11:04:33.999Z</time></trkpt><trkpt lat="42.22576313130144" lon="12.715753840935978"><ele>113.66666666666666</ele><time>2026-03-22T11:04:34.999Z</time></trkpt><trkpt lat="42.22575604412187" lon="12.715631000047226"><ele>112.0</ele><time>2026-03-22T11:04:35.999Z</time></trkpt><trkpt lat="42.22573889033669" lon="12.715517373190654"><ele>110.33333333333333</ele><time>2026-03-22T11:04:36.999Z</time></trkpt><trkpt lat="42.225717445938194" lon="12.715399338251602"><ele>108.66666666666666</ele><time>2026-03-22T11:04:37.999Z</time></trkpt><trkpt lat="42.22569497996027" lon="12.715288920266518"><ele>107.0</ele><time>2026-03-22T11:04:38.999Z</time></trkpt><trkpt lat="42.22564733894134" lon="12.715162984888376"><ele>110.8</ele><time>2026-03-22T11:04:39.999Z</time></trkpt><trkpt lat="42.22559852311039" lon="12.715035813234994"><ele>114.6</ele><time>2026-03-22T11:04:40.999Z</time></trkpt><trkpt lat="42.22557322444671" lon="12.714911656845045"><ele>118.39999999999999</ele><time>2026-03-22T11:04:41.999Z</time></trkpt><trkpt lat="42.225579593095425" lon="12.714809014109639"><ele>122.19999999999999</ele><time>2026-03-22T11:04:42.999Z</time></trkpt><trkpt lat="42.22559037052294" lon="12.714698322033312"><ele>126.0</ele><time>2026-03-22T11:04:43.999Z</time></trkpt><trkpt lat="42.22560872858628" lon="12.714576573756842"><ele>122.19999999999999</ele><time>2026-03-22T11:04:44.999Z</time></trkpt><trkpt lat="42.22566933688013" lon="12.714472786692458"><ele>118.39999999999999</ele><time>2026-03-22T11:04:45.999Z</time></trkpt><trkpt lat="42.225750934567465" lon="12.714388324093337"><ele>114.6</ele><time>2026-03-22T11:04:46.999Z</time></trkpt><trkpt lat="42.22585908805852" lon="12.714321622870605"><ele>110.8</ele><time>2026-03-22T11:04:47.999Z</time></trkpt><trkpt lat="42.225953739100795" lon="12.714208809303313"><ele>107.0</ele><time>2026-03-22T11:04:48.999Z</time></trkpt><trkpt lat="42.226017975442794" lon="12.714079454438036"><ele>107.0</ele><time>2026-03-22T11:04:49.999Z</time></trkpt><trkpt lat="42.22609405827912" lon="12.713966138533737"><ele>107.0</ele><time>2026-03-22T11:04:50.999Z</time></trkpt><trkpt lat="42.226183214746065" lon="12.713868152944583"><ele>107.0</ele><time>2026-03-22T11:04:51.999Z</time></trkpt><trkpt lat="42.22628146390493" lon="12.713765020122052"><ele>107.0</ele><time>2026-03-22T11:04:53Z</time></trkpt><trkpt lat="42.22639502052529" lon="12.713660981123827"><ele>106.75</ele><time>2026-03-22T11:04:54Z</time></trkpt><trkpt lat="42.22650879397952" lon="12.713536922650928"><ele>106.5</ele><time>2026-03-22T11:04:55Z</time></trkpt><trkpt lat="42.22661327172344" lon="12.713438241376535"><ele>106.25</ele><time>2026-03-22T11:04:56Z</time></trkpt><trkpt lat="42.22673225037973" lon="12.71334602142326"><ele>106.0</ele><time>2026-03-22T11:04:57Z</time></trkpt><trkpt lat="42.22684137785921" lon="12.713245177654654"><ele>106.0</ele><time>2026-03-22T11:04:58Z</time></trkpt><trkpt lat="42.22695305042508" lon="12.713140651431187"><ele>106.0</ele><time>2026-03-22T11:04:59Z</time></trkpt><trkpt lat="42.227064430649506" lon="12.713034061657728"><ele>106.0</ele><time>2026-03-22T11:05:00Z</time></trkpt><trkpt lat="42.2271633979289" lon="12.71293575266385"><ele>106.0</ele><time>2026-03-22T11:05:01Z</time></trkpt><trkpt lat="42.22727785663331" lon="12.712834455514889"><ele>107.25</ele><time>2026-03-22T11:05:02Z</time></trkpt><trkpt lat="42.227389837400715" lon="12.71273586370618"><ele>108.5</ele><time>2026-03-22T11:05:03Z</time></trkpt><trkpt lat="42.22750012076189" lon="12.712643060069887"><ele>109.75</ele><time>2026-03-22T11:05:04Z</time></trkpt><trkpt lat="42.227616966328256" lon="12.712563688000962"><ele>111.0</ele><time>2026-03-22T11:05:05Z</time></trkpt><trkpt lat="42.22772942252358" lon="12.7124951248569"><ele>111.0</ele><time>2026-03-22T11:05:06Z</time></trkpt><trkpt lat="42.22783366587479" lon="12.712427560760943"><ele>111.0</ele><time>2026-03-22T11:05:07Z</time></trkpt><trkpt lat="42.22793982754095" lon="12.712348404779025"><ele>111.0</ele><time>2026-03-22T11:05:08Z</time></trkpt><trkpt lat="42.22803575406029" lon="12.712241779192459"><ele>111.0</ele><time>2026-03-22T11:05:09Z</time></trkpt><trkpt lat="42.22812867280336" lon="12.71210913059014"><ele>112.25</ele><time>2026-03-22T11:05:10Z</time></trkpt><trkpt lat="42.22815440977006" lon="12.711902354538537"><ele>113.5</ele><time>2026-03-22T11:05:11Z</time></trkpt><trkpt lat="42.22825049141749" lon="12.711776651296196"><ele>114.75</ele><time>2026-03-22T11:05:12Z</time></trkpt><trkpt lat="42.22833549083659" lon="12.711665446889473"><ele>116.0</ele><time>2026-03-22T11:05:13Z</time></trkpt><trkpt lat="42.22841760584224" lon="12.711558016224048"><ele>116.0</ele><time>2026-03-22T11:05:14Z</time></trkpt><trkpt lat="42.22850046282946" lon="12.711449614742747"><ele>116.0</ele><time>2026-03-22T11:05:15Z</time></trkpt><trkpt lat="42.228569144163686" lon="12.711383458265903"><ele>116.0</ele><time>2026-03-22T11:05:16Z</time></trkpt><trkpt lat="42.22864215939319" lon="12.71127245946486"><ele>116.0</ele><time>2026-03-22T11:05:17Z</time></trkpt><trkpt lat="42.22872169012317" lon="12.711173139816372"><ele>116.0</ele><time>2026-03-22T11:05:18Z</time></trkpt><trkpt lat="42.22880260074399" lon="12.711030515245655"><ele>117.0</ele><time>2026-03-22T11:05:19Z</time></trkpt><trkpt lat="42.22888950540247" lon="12.710894248341255"><ele>118.0</ele><time>2026-03-22T11:05:20Z</time></trkpt><trkpt lat="42.22901088686804" lon="12.710766603556396"><ele>119.0</ele><time>2026-03-22T11:05:21Z</time></trkpt><trkpt lat="42.22914001584897" lon="12.710623238171287"><ele>119.0</ele><time>2026-03-22T11:05:22Z</time></trkpt><trkpt lat="42.229216138127306" lon="12.710540276915408"><ele>119.0</ele><time>2026-03-22T11:05:23Z</time></trkpt><trkpt lat="42.22927371224893" lon="12.710477530233801"><ele>119.0</ele><time>2026-03-22T11:05:24Z</time></trkpt><trkpt lat="42.229355058721914" lon="12.710388875731626"><ele>119.0</ele><time>2026-03-22T11:05:26Z</time></trkpt><trkpt lat="42.229423797183344" lon="12.710222230634646"><ele>119.0</ele><time>2026-03-22T11:05:28Z</time></trkpt><trkpt lat="42.22951145216071" lon="12.710126569111473"><ele>118.25</ele><time>2026-03-22T11:05:29Z</time></trkpt><trkpt lat="42.22961025174502" lon="12.71000834178478"><ele>117.5</ele><time>2026-03-22T11:05:30Z</time></trkpt><trkpt lat="42.22972336380936" lon="12.709877392389126"><ele>116.75</ele><time>2026-03-22T11:05:31Z</time></trkpt><trkpt lat="42.22983387457197" lon="12.709734796829743"><ele>116.0</ele><time>2026-03-22T11:05:32Z</time></trkpt><trkpt lat="42.22994972743377" lon="12.709601116377293"><ele>116.0</ele><time>2026-03-22T11:05:33Z</time></trkpt><trkpt lat="42.23009228706617" lon="12.709483765623208"><ele>116.0</ele><time>2026-03-22T11:05:34Z</time></trkpt><trkpt lat="42.230217344245034" lon="12.70934695949025"><ele>116.0</ele><time>2026-03-22T11:05:35Z</time></trkpt><trkpt lat="42.23033093451882" lon="12.709167012838785"><ele>114.33333333333333</ele><time>2026-03-22T11:05:36Z</time></trkpt><trkpt lat="42.230444566667245" lon="12.708968983585981"><ele>112.66666666666666</ele><time>2026-03-22T11:05:37Z</time></trkpt><trkpt lat="42.23057492032644" lon="12.708776606634057"><ele>111.0</ele><time>2026-03-22T11:05:38Z</time></trkpt><trkpt lat="42.23072213855274" lon="12.708588781362357"><ele>111.33333333333334</ele><time>2026-03-22T11:05:39Z</time></trkpt><trkpt lat="42.23085533597145" lon="12.708412231307538"><ele>111.66666666666667</ele><time>2026-03-22T11:05:40Z</time></trkpt><trkpt lat="42.23099851019148" lon="12.70823811132654"><ele>112.0</ele><time>2026-03-22T11:05:41Z</time></trkpt><trkpt lat="42.23112868548308" lon="12.70808773573769"><ele>112.0</ele><time>2026-03-22T11:05:42Z</time></trkpt><trkpt lat="42.2312369478702" lon="12.707904302046021"><ele>112.0</ele><time>2026-03-22T11:05:43Z</time></trkpt><trkpt lat="42.231359666891805" lon="12.707753115982621"><ele>112.0</ele><time>2026-03-22T11:05:44Z</time></trkpt><trkpt lat="42.23147816738859" lon="12.707607127023227"><ele>111.33333333333334</ele><time>2026-03-22T11:05:45Z</time></trkpt><trkpt lat="42.23160291243246" lon="12.707453194529522"><ele>110.66666666666666</ele><time>2026-03-22T11:05:46Z</time></trkpt><trkpt lat="42.23172288153843" lon="12.707305142380203"><ele>110.0</ele><time>2026-03-22T11:05:47Z</time></trkpt><trkpt lat="42.231855392438426" lon="12.707141612591343"><ele>110.0</ele><time>2026-03-22T11:05:48Z</time></trkpt><trkpt lat="42.23198301971442" lon="12.706984109606415"><ele>110.0</ele><time>2026-03-22T11:05:49Z</time></trkpt><trkpt lat="42.23210477465002" lon="12.706833853591295"><ele>110.0</ele><time>2026-03-22T11:05:50Z</time></trkpt><trkpt lat="42.23223546493124" lon="12.706717394722297"><ele>109.75</ele><time>2026-03-22T11:05:51Z</time></trkpt><trkpt lat="42.23234241545037" lon="12.70658807913599"><ele>109.5</ele><time>2026-03-22T11:05:52Z</time></trkpt><trkpt lat="42.232445021312095" lon="12.706461475140577"><ele>109.25</ele><time>2026-03-22T11:05:53Z</time></trkpt><trkpt lat="42.232538576181355" lon="12.706357138504812"><ele>109.0</ele><time>2026-03-22T11:05:54Z</time></trkpt><trkpt lat="42.23261559006744" lon="12.70624367995004"><ele>109.0</ele><time>2026-03-22T11:05:55Z</time></trkpt><trkpt lat="42.23272093373822" lon="12.706179591401444"><ele>109.0</ele><time>2026-03-22T11:05:56Z</time></trkpt><trkpt lat="42.23282301193303" lon="12.706151727834246"><ele>109.0</ele><time>2026-03-22T11:05:57Z</time></trkpt><trkpt lat="42.2329227368145" lon="12.706128296342312"><ele>109.0</ele><time>2026-03-22T11:05:58Z</time></trkpt><trkpt lat="42.23301499519162" lon="12.706103234319738"><ele>109.0</ele><time>2026-03-22T11:05:59Z</time></trkpt><trkpt lat="42.233095574628436" lon="12.706086631548004"><ele>109.0</ele><time>2026-03-22T11:06:00Z</time></trkpt><trkpt lat="42.23316187405838" lon="12.70608540336386"><ele>109.0</ele><time>2026-03-22T11:06:01Z</time></trkpt><trkpt lat="42.23323478002539" lon="12.706128604675552"><ele>109.0</ele><time>2026-03-22T11:06:03Z</time></trkpt><trkpt lat="42.23331633907004" lon="12.70614053183739"><ele>109.0</ele><time>2026-03-22T11:06:50.999Z</time></trkpt><trkpt lat="42.23337955056101" lon="12.706121655771176"><ele>109.0</ele><time>2026-03-22T11:10:21Z</time></trkpt><trkpt lat="42.233344154980216" lon="12.7060425697721"><ele>109.0</ele><time>2026-03-22T11:12:52.999Z</time></trkpt><trkpt lat="42.233270129445124" lon="12.706084605343761"><ele>109.0</ele><time>2026-03-22T11:12:56.999Z</time></trkpt><trkpt lat="42.23325040217042" lon="12.706183482778117"><ele>109.0</ele><time>2026-03-22T11:12:58.999Z</time></trkpt><trkpt lat="42.2332971735047" lon="12.706280279410066"><ele>109.0</ele><time>2026-03-22T11:13:00.999Z</time></trkpt><trkpt lat="42.23330429596181" lon="12.706188370750514"><ele>109.0</ele><time>2026-03-22T11:13:50Z</time></trkpt><trkpt lat="42.233381534867135" lon="12.706205162454218"><ele>109.0</ele><time>2026-03-22T11:14:19Z</time></trkpt><trkpt lat="42.23344550097163" lon="12.706240546362267"><ele>109.0</ele><time>2026-03-22T11:14:42Z</time></trkpt></trkseg><trkseg><trkpt lat="42.259916941749275" lon="12.723893910209668"><ele>428.00000000000006</ele><time>2026-03-22T12:16:37Z</time></trkpt><trkpt lat="42.25996902280455" lon="12.723826911971063"><ele>428.0</ele><time>2026-03-22T12:16:39Z</time></trkpt><trkpt lat="42.260009228345226" lon="12.723748336785551"><ele>428.0</ele><time>2026-03-22T12:16:40Z</time></trkpt><trkpt lat="42.26005697114414" lon="12.723654898735544"><ele>428.0</ele><time>2026-03-22T12:16:41Z</time></trkpt><trkpt lat="42.260112535838765" lon="12.723577901632693"><ele>428.0</ele><time>2026-03-22T12:16:41.999Z</time></trkpt><trkpt lat="42.26018356888499" lon="12.723546394150494"><ele>428.00000000000006</ele><time>2026-03-22T12:16:42.999Z</time></trkpt><trkpt lat="42.260246976090315" lon="12.723511832947466"><ele>428.0</ele><time>2026-03-22T12:16:43.999Z</time></trkpt><trkpt lat="42.26032230008929" lon="12.723496407247975"><ele>428.0</ele><time>2026-03-22T12:16:44.999Z</time></trkpt><trkpt lat="42.26042651024261" lon="12.723459709246534"><ele>428.0</ele><time>2026-03-22T12:16:45.999Z</time></trkpt><trkpt lat="42.26054347560179" lon="12.723419308547713"><ele>428.0</ele><time>2026-03-22T12:16:46.999Z</time></trkpt><trkpt lat="42.260652361461815" lon="12.72334562300824"><ele>428.0</ele><time>2026-03-22T12:16:47.999Z</time></trkpt><trkpt lat="42.260749242816004" lon="12.723258329500327"><ele>430.4</ele><time>2026-03-22T12:16:48.999Z</time></trkpt><trkpt lat="42.26083733984984" lon="12.723182139232893"><ele>432.79999999999995</ele><time>2026-03-22T12:16:49.999Z</time></trkpt><trkpt lat="42.26091556053898" lon="12.723195618136888"><ele>435.2</ele><time>2026-03-22T12:16:50.999Z</time></trkpt><trkpt lat="42.26099565547443" lon="12.723211972883224"><ele>437.6</ele><time>2026-03-22T12:16:51.999Z</time></trkpt><trkpt lat="42.26108399517236" lon="12.723246142073064"><ele>440.0</ele><time>2026-03-22T12:16:52.999Z</time></trkpt><trkpt lat="42.26118041561294" lon="12.723293563077481"><ele>440.0</ele><time>2026-03-22T12:16:53.999Z</time></trkpt><trkpt lat="42.261280792837596" lon="12.723335686269587"><ele>440.0</ele><time>2026-03-22T12:16:54.999Z</time></trkpt><trkpt lat="42.26138466700161" lon="12.723389751145806"><ele>440.0</ele><time>2026-03-22T12:16:55.999Z</time></trkpt><trkpt lat="42.261505012466145" lon="12.723480096369418"><ele>440.0</ele><time>2026-03-22T12:16:56.999Z</time></trkpt><trkpt lat="42.26163187627675" lon="12.723598216353166"><ele>440.5</ele><time>2026-03-22T12:16:57.999Z</time></trkpt><trkpt lat="42.2617505757102" lon="12.723672603678231"><ele>441.0</ele><time>2026-03-22T12:16:58.999Z</time></trkpt><trkpt lat="42.261880751631935" lon="12.72370121997324"><ele>441.5</ele><time>2026-03-22T12:16:59.999Z</time></trkpt><trkpt lat="42.26201654225471" lon="12.723703881942367"><ele>442.0</ele><time>2026-03-22T12:17:00.999Z</time></trkpt><trkpt lat="42.2621591618976" lon="12.72371503123341"><ele>442.33333333333337</ele><time>2026-03-22T12:17:01.999Z</time></trkpt><trkpt lat="42.26230485411323" lon="12.7237553097631"><ele>442.66666666666663</ele><time>2026-03-22T12:17:02.999Z</time></trkpt><trkpt lat="42.26245926682156" lon="12.723800038739181"><ele>443.0</ele><time>2026-03-22T12:17:03.999Z</time></trkpt><trkpt lat="42.26262083835863" lon="12.723864331423716"><ele>443.0</ele><time>2026-03-22T12:17:04.999Z</time></trkpt><trkpt lat="42.262789979037876" lon="12.723933418064211"><ele>443.0</ele><time>2026-03-22T12:17:05.999Z</time></trkpt><trkpt lat="42.26294771050095" lon="12.724030340172616"><ele>443.0</ele><time>2026-03-22T12:17:06.999Z</time></trkpt><trkpt lat="42.263099930371325" lon="12.724133692054348"><ele>443.25</ele><time>2026-03-22T12:17:07.999Z</time></trkpt><trkpt lat="42.26324745420325" lon="12.72422206842704"><ele>443.5</ele><time>2026-03-22T12:17:08.999Z</time></trkpt><trkpt lat="42.2633701616136" lon="12.724311352295016"><ele>443.75</ele><time>2026-03-22T12:17:09.999Z</time></trkpt><trkpt lat="42.263468287972486" lon="12.724405114989414"><ele>444.0</ele><time>2026-03-22T12:17:10.999Z</time></trkpt><trkpt lat="42.26356202585398" lon="12.72452672887505"><ele>444.0</ele><time>2026-03-22T12:17:11.999Z</time></trkpt><trkpt lat="42.263660085596506" lon="12.724666337996403"><ele>444.0</ele><time>2026-03-22T12:17:12.999Z</time></trkpt><trkpt lat="42.26377438485711" lon="12.724787222591296"><ele>444.0</ele><time>2026-03-22T12:17:13.999Z</time></trkpt><trkpt lat="42.263876828126975" lon="12.724917235267275"><ele>444.0</ele><time>2026-03-22T12:17:14.999Z</time></trkpt><trkpt lat="42.26398786420492" lon="12.725049386447951"><ele>446.33333333333337</ele><time>2026-03-22T12:17:15.999Z</time></trkpt><trkpt lat="42.264103111817754" lon="12.725195773595397"><ele>448.6666666666667</ele><time>2026-03-22T12:17:16.999Z</time></trkpt><trkpt lat="42.26422078125694" lon="12.725344579132157"><ele>451.0</ele><time>2026-03-22T12:17:17.999Z</time></trkpt><trkpt lat="42.26433018179754" lon="12.725484120115688"><ele>451.0</ele><time>2026-03-22T12:17:18.999Z</time></trkpt><trkpt lat="42.26442765542768" lon="12.72559684472333"><ele>451.0</ele><time>2026-03-22T12:17:19.999Z</time></trkpt><trkpt lat="42.26451432003538" lon="12.725703482634907"><ele>451.0</ele><time>2026-03-22T12:17:20.999Z</time></trkpt><trkpt lat="42.26460778058782" lon="12.725814611952682"><ele>451.0</ele><time>2026-03-22T12:17:21.999Z</time></trkpt><trkpt lat="42.26471254795697" lon="12.725928952270062"><ele>453.20000000000005</ele><time>2026-03-22T12:17:22.999Z</time></trkpt><trkpt lat="42.26478934452415" lon="12.726023567457618"><ele>455.40000000000003</ele><time>2026-03-22T12:17:23.999Z</time></trkpt><trkpt lat="42.26485714639596" lon="12.726110161343652"><ele>457.6</ele><time>2026-03-22T12:17:24.999Z</time></trkpt><trkpt lat="42.26493170153705" lon="12.726162742582762"><ele>459.8</ele><time>2026-03-22T12:17:25.999Z</time></trkpt><trkpt lat="42.265025856060426" lon="12.726188513270595"><ele>462.0</ele><time>2026-03-22T12:17:26.999Z</time></trkpt><trkpt lat="42.26510373566244" lon="12.726224185655232"><ele>462.0</ele><time>2026-03-22T12:17:27.999Z</time></trkpt><trkpt lat="42.26518866000377" lon="12.726260222741423"><ele>462.00000000000006</ele><time>2026-03-22T12:17:28.999Z</time></trkpt><trkpt lat="42.2652888972464" lon="12.7263207441652"><ele>462.00000000000006</ele><time>2026-03-22T12:17:29.999Z</time></trkpt><trkpt lat="42.265391614081366" lon="12.726398219400082"><ele>462.0</ele><time>2026-03-22T12:17:30.999Z</time></trkpt><trkpt lat="42.26549134841656" lon="12.726488912022322"><ele>462.0</ele><time>2026-03-22T12:17:31.999Z</time></trkpt><trkpt lat="42.26557871445235" lon="12.726593114420835"><ele>465.20000000000005</ele><time>2026-03-22T12:17:32.999Z</time></trkpt><trkpt lat="42.265659926211626" lon="12.726685894206017"><ele>468.40000000000003</ele><time>2026-03-22T12:17:33.999Z</time></trkpt><trkpt lat="42.265735743754185" lon="12.726741919087672"><ele>471.59999999999997</ele><time>2026-03-22T12:17:34.999Z</time></trkpt><trkpt lat="42.26581706881476" lon="12.726763067413883"><ele>474.79999999999995</ele><time>2026-03-22T12:17:35.999Z</time></trkpt><trkpt lat="42.26591235950844" lon="12.726778807753547"><ele>478.0</ele><time>2026-03-22T12:17:36.999Z</time></trkpt><trkpt lat="42.26602658139189" lon="12.72677062698127"><ele>478.0</ele><time>2026-03-22T12:17:37.999Z</time></trkpt><trkpt lat="42.266141237324476" lon="12.726791250881426"><ele>478.0</ele><time>2026-03-22T12:17:38.999Z</time></trkpt><trkpt lat="42.26626537215064" lon="12.726826972177046"><ele>478.0</ele><time>2026-03-22T12:17:39.999Z</time></trkpt><trkpt lat="42.26639363441244" lon="12.726887349079549"><ele>478.0</ele><time>2026-03-22T12:17:40.999Z</time></trkpt><trkpt lat="42.26651345278386" lon="12.726947400597638"><ele>477.75</ele><time>2026-03-22T12:17:41.999Z</time></trkpt><trkpt lat="42.266631278633916" lon="12.726984546814174"><ele>477.5</ele><time>2026-03-22T12:17:42.999Z</time></trkpt><trkpt lat="42.26675226545727" lon="12.727006328217048"><ele>477.25</ele><time>2026-03-22T12:17:43.999Z</time></trkpt><trkpt lat="42.2668582270748" lon="12.727046188470363"><ele>477.0</ele><time>2026-03-22T12:17:44.999Z</time></trkpt><trkpt lat="42.266962612646616" lon="12.727110968233102"><ele>477.0</ele><time>2026-03-22T12:17:45.999Z</time></trkpt><trkpt lat="42.26706524557234" lon="12.72719202409679"><ele>477.0</ele><time>2026-03-22T12:17:46.999Z</time></trkpt><trkpt lat="42.26716895641904" lon="12.727287666111382"><ele>477.0</ele><time>2026-03-22T12:17:47.999Z</time></trkpt><trkpt lat="42.26727372382396" lon="12.727364130117373"><ele>477.0</ele><time>2026-03-22T12:17:48.999Z</time></trkpt><trkpt lat="42.26739370979487" lon="12.727413289882387"><ele>480.0</ele><time>2026-03-22T12:17:49.999Z</time></trkpt><trkpt lat="42.26752064490619" lon="12.727430863538416"><ele>483.0</ele><time>2026-03-22T12:17:50.999Z</time></trkpt><trkpt lat="42.26765143393432" lon="12.727435480804587"><ele>486.0</ele><time>2026-03-22T12:17:51.999Z</time></trkpt><trkpt lat="42.267776171914434" lon="12.72746579980254"><ele>489.0</ele><time>2026-03-22T12:17:52.999Z</time></trkpt><trkpt lat="42.26789783827386" lon="12.727495704324244"><ele>489.0</ele><time>2026-03-22T12:17:53.999Z</time></trkpt><trkpt lat="42.26802329379491" lon="12.727522474525104"><ele>489.0</ele><time>2026-03-22T12:17:54.999Z</time></trkpt><trkpt lat="42.26814971349237" lon="12.72755492320499"><ele>489.0</ele><time>2026-03-22T12:17:55.999Z</time></trkpt><trkpt lat="42.268276722317786" lon="12.727591235230834"><ele>489.0</ele><time>2026-03-22T12:17:56.999Z</time></trkpt><trkpt lat="42.26840844760526" lon="12.72762930022527"><ele>488.75</ele><time>2026-03-22T12:17:57.999Z</time></trkpt><trkpt lat="42.26854507543599" lon="12.727656078143388"><ele>488.5</ele><time>2026-03-22T12:17:58.999Z</time></trkpt><trkpt lat="42.26868928844084" lon="12.72768730085226"><ele>488.25</ele><time>2026-03-22T12:17:59.999Z</time></trkpt><trkpt lat="42.268813103111846" lon="12.727729669263853"><ele>488.0</ele><time>2026-03-22T12:18:00.999Z</time></trkpt><trkpt lat="42.2689127075974" lon="12.727767830895779"><ele>491.25</ele><time>2026-03-22T12:18:01.999Z</time></trkpt><trkpt lat="42.26903540457953" lon="12.727783225804696"><ele>494.5</ele><time>2026-03-22T12:18:02.999Z</time></trkpt><trkpt lat="42.269164485797404" lon="12.727785175548014"><ele>497.75</ele><time>2026-03-22T12:18:03.999Z</time></trkpt><trkpt lat="42.269299796642116" lon="12.727800448310052"><ele>501.0</ele><time>2026-03-22T12:18:04.999Z</time></trkpt><trkpt lat="42.2694390860497" lon="12.727810695768113"><ele>501.0</ele><time>2026-03-22T12:18:05.999Z</time></trkpt><trkpt lat="42.269581422318524" lon="12.727819064496577"><ele>501.0</ele><time>2026-03-22T12:18:06.999Z</time></trkpt><trkpt lat="42.26972498713399" lon="12.727824457165374"><ele>501.0</ele><time>2026-03-22T12:18:07.999Z</time></trkpt><trkpt lat="42.269878220898185" lon="12.727842635165624"><ele>501.0</ele><time>2026-03-22T12:18:08.999Z</time></trkpt><trkpt lat="42.27002887928908" lon="12.727864856773472"><ele>505.0</ele><time>2026-03-22T12:18:09.999Z</time></trkpt><trkpt lat="42.270176801452145" lon="12.727892794554817"><ele>509.0</ele><time>2026-03-22T12:18:10.999Z</time></trkpt><trkpt lat="42.27030794611359" lon="12.727921066017732"><ele>513.0</ele><time>2026-03-22T12:18:11.999Z</time></trkpt><trkpt lat="42.2704499483395" lon="12.727942268898456"><ele>517.0</ele><time>2026-03-22T12:18:12.999Z</time></trkpt><trkpt lat="42.27056225117215" lon="12.727935198810199"><ele>517.0</ele><time>2026-03-22T12:18:13.999Z</time></trkpt><trkpt lat="42.27065123772762" lon="12.727922175380055"><ele>517.0</ele><time>2026-03-22T12:18:14.999Z</time></trkpt><trkpt lat="42.27072724107182" lon="12.727992845306076"><ele>517.0</ele><time>2026-03-22T12:18:16.999Z</time></trkpt><trkpt lat="42.27067999227314" lon="12.728142764532766"><ele>517.0</ele><time>2026-03-22T12:18:18.999Z</time></trkpt><trkpt lat="42.27062115911471" lon="12.728232371449273"><ele>517.0</ele><time>2026-03-22T12:18:19.999Z</time></trkpt><trkpt lat="42.270555596422525" lon="12.728294896456061"><ele>517.0</ele><time>2026-03-22T12:18:20.999Z</time></trkpt><trkpt lat="42.27048038171633" lon="12.728386945130248"><ele>517.0</ele><time>2026-03-22T12:18:21.999Z</time></trkpt><trkpt lat="42.27049902928522" lon="12.728548798780185"><ele>517.0</ele><time>2026-03-22T12:18:23.999Z</time></trkpt><trkpt lat="42.27063355367474" lon="12.728579893389407"><ele>517.0</ele><time>2026-03-22T12:18:25.999Z</time></trkpt><trkpt lat="42.27070977286401" lon="12.728516977137897"><ele>517.0</ele><time>2026-03-22T12:18:26.999Z</time></trkpt><trkpt lat="42.27078847575587" lon="12.728446031054569"><ele>519.2</ele><time>2026-03-22T12:18:27.999Z</time></trkpt><trkpt lat="42.27087302221963" lon="12.72837659630447"><ele>521.4000000000001</ele><time>2026-03-22T12:18:28.999Z</time></trkpt><trkpt lat="42.27096740796181" lon="12.728322606410362"><ele>523.5999999999999</ele><time>2026-03-22T12:18:30Z</time></trkpt><trkpt lat="42.271070590297704" lon="12.728279101411735"><ele>525.8</ele><time>2026-03-22T12:18:31Z</time></trkpt><trkpt lat="42.27116623942927" lon="12.728239705474756"><ele>528.0</ele><time>2026-03-22T12:18:32Z</time></trkpt><trkpt lat="42.27126086569029" lon="12.728211430986162"><ele>528.0</ele><time>2026-03-22T12:18:33Z</time></trkpt><trkpt lat="42.27135780264561" lon="12.728218509542481"><ele>528.0</ele><time>2026-03-22T12:18:34Z</time></trkpt><trkpt lat="42.27144941407211" lon="12.728242904421082"><ele>528.0</ele><time>2026-03-22T12:18:35Z</time></trkpt><trkpt lat="42.27155057107596" lon="12.728255061881182"><ele>528.0</ele><time>2026-03-22T12:18:36Z</time></trkpt><trkpt lat="42.27165793188248" lon="12.728259690448215"><ele>528.0</ele><time>2026-03-22T12:18:37Z</time></trkpt><trkpt lat="42.27176979008904" lon="12.72825447562027"><ele>530.1999999999999</ele><time>2026-03-22T12:18:38Z</time></trkpt><trkpt lat="42.271867032475534" lon="12.728259992520542"><ele>532.4</ele><time>2026-03-22T12:18:39Z</time></trkpt><trkpt lat="42.27196966597383" lon="12.728302569325752"><ele>534.5999999999999</ele><time>2026-03-22T12:18:40Z</time></trkpt><trkpt lat="42.27206855292899" lon="12.728354342571313"><ele>536.8</ele><time>2026-03-22T12:18:41Z</time></trkpt><trkpt lat="42.27216156974055" lon="12.728370159230955"><ele>539.0</ele><time>2026-03-22T12:18:42Z</time></trkpt><trkpt lat="42.27227151775479" lon="12.728389079558376"><ele>541.6</ele><time>2026-03-22T12:18:43Z</time></trkpt><trkpt lat="42.27236977738744" lon="12.7284342320143"><ele>544.2</ele><time>2026-03-22T12:18:44Z</time></trkpt><trkpt lat="42.27248638675913" lon="12.728458694735366"><ele>546.8000000000001</ele><time>2026-03-22T12:18:45Z</time></trkpt><trkpt lat="42.27259204959432" lon="12.728487958260269"><ele>549.4</ele><time>2026-03-22T12:18:46Z</time></trkpt><trkpt lat="42.27269219112046" lon="12.728511017808438"><ele>552.0</ele><time>2026-03-22T12:18:47Z</time></trkpt><trkpt lat="42.27277274661941" lon="12.728531180211643"><ele>553.2</ele><time>2026-03-22T12:18:48Z</time></trkpt><trkpt lat="42.27288715983424" lon="12.728592234660564"><ele>554.4000000000001</ele><time>2026-03-22T12:18:50Z</time></trkpt><trkpt lat="42.272992754454485" lon="12.72864284754459"><ele>555.5999999999999</ele><time>2026-03-22T12:18:52Z</time></trkpt><trkpt lat="42.27309725885223" lon="12.728719906082409"><ele>556.8</ele><time>2026-03-22T12:18:54Z</time></trkpt><trkpt lat="42.27316623920392" lon="12.728803849763057"><ele>558.0</ele><time>2026-03-22T12:18:56Z</time></trkpt><trkpt lat="42.27316703554394" lon="12.728905318254702"><ele>560.5</ele><time>2026-03-22T12:18:58.999Z</time></trkpt><trkpt lat="42.27315660136524" lon="12.729006696703072"><ele>563.0</ele><time>2026-03-22T12:19:00.999Z</time></trkpt><trkpt lat="42.2731963132607" lon="12.72911034465701"><ele>565.5</ele><time>2026-03-22T12:19:02.999Z</time></trkpt><trkpt lat="42.273209715091646" lon="12.729214061064464"><ele>568.0</ele><time>2026-03-22T12:19:04.999Z</time></trkpt><trkpt lat="42.273258680359525" lon="12.729333898253648"><ele>570.5</ele><time>2026-03-22T12:19:06.999Z</time></trkpt><trkpt lat="42.27331174889935" lon="12.729456524594454"><ele>573.0</ele><time>2026-03-22T12:19:08.999Z</time></trkpt><trkpt lat="42.27336424313181" lon="12.729538986055353"><ele>573.1666666666666</ele><time>2026-03-22T12:19:09.999Z</time></trkpt><trkpt lat="42.273408956902976" lon="12.729603978529585"><ele>573.3333333333334</ele><time>2026-03-22T12:19:10.999Z</time></trkpt><trkpt lat="42.27345631154355" lon="12.7296858740588"><ele>573.5</ele><time>2026-03-22T12:19:11.999Z</time></trkpt><trkpt lat="42.2734938626633" lon="12.729758747408994"><ele>573.6666666666667</ele><time>2026-03-22T12:19:12.999Z</time></trkpt><trkpt lat="42.273596745601154" lon="12.729754102405002"><ele>573.8333333333334</ele><time>2026-03-22T12:19:14.999Z</time></trkpt><trkpt lat="42.273653902367855" lon="12.729693490853737"><ele>574.0</ele><time>2026-03-22T12:19:15.999Z</time></trkpt><trkpt lat="42.27367966318696" lon="12.729594930696228"><ele>574.0</ele><time>2026-03-22T12:19:16.999Z</time></trkpt><trkpt lat="42.273744028027295" lon="12.729533326194808"><ele>574.0</ele><time>2026-03-22T12:19:18.999Z</time></trkpt><trkpt lat="42.27384713543205" lon="12.729558113694521"><ele>574.0</ele><time>2026-03-22T12:19:20.999Z</time></trkpt><trkpt lat="42.27391743153968" lon="12.729577404004516"><ele>574.0</ele><time>2026-03-22T12:19:21.999Z</time></trkpt><trkpt lat="42.27399367712991" lon="12.729576639594676"><ele>574.0</ele><time>2026-03-22T12:19:22.999Z</time></trkpt><trkpt lat="42.2740614188767" lon="12.729614696014446"><ele>574.0</ele><time>2026-03-22T12:19:23.999Z</time></trkpt><trkpt lat="42.27415648326608" lon="12.729641906362161"><ele>576.4</ele><time>2026-03-22T12:19:24.999Z</time></trkpt><trkpt lat="42.27423192479651" lon="12.729684924461903"><ele>578.8</ele><time>2026-03-22T12:19:25.999Z</time></trkpt><trkpt lat="42.2743065590476" lon="12.72973826761615"><ele>581.2</ele><time>2026-03-22T12:19:26.999Z</time></trkpt><trkpt lat="42.2744600614016" lon="12.729783152505188"><ele>583.6</ele><time>2026-03-22T12:19:28.999Z</time></trkpt><trkpt lat="42.274550732044545" lon="12.729797256643149"><ele>586.0</ele><time>2026-03-22T12:19:29.999Z</time></trkpt><trkpt lat="42.27462676956028" lon="12.729820478527268"><ele>585.9999999999999</ele><time>2026-03-22T12:19:30.999Z</time></trkpt><trkpt lat="42.27470157021019" lon="12.729816695188314"><ele>586.0</ele><time>2026-03-22T12:19:31.999Z</time></trkpt><trkpt lat="42.27476935274658" lon="12.729816686775353"><ele>586.0</ele><time>2026-03-22T12:19:32.999Z</time></trkpt><trkpt lat="42.27483279652741" lon="12.729845825314625"><ele>586.0</ele><time>2026-03-22T12:19:33.999Z</time></trkpt><trkpt lat="42.274902736200055" lon="12.72986457170254"><ele>586.0</ele><time>2026-03-22T12:19:34.999Z</time></trkpt><trkpt lat="42.274960337282224" lon="12.729899956523658"><ele>585.9999999999999</ele><time>2026-03-22T12:19:35.999Z</time></trkpt><trkpt lat="42.27502442063248" lon="12.729889495510626"><ele>586.0</ele><time>2026-03-22T12:19:36.999Z</time></trkpt><trkpt lat="42.27509702265885" lon="12.7298557167584"><ele>588.1666666666667</ele><time>2026-03-22T12:19:37.999Z</time></trkpt><trkpt lat="42.27515999714221" lon="12.72983048004183"><ele>590.3333333333334</ele><time>2026-03-22T12:19:38.999Z</time></trkpt><trkpt lat="42.27523362811536" lon="12.729813031134324"><ele>592.5</ele><time>2026-03-22T12:19:39.999Z</time></trkpt><trkpt lat="42.27531450643485" lon="12.729821388072322"><ele>594.6666666666666</ele><time>2026-03-22T12:19:40.999Z</time></trkpt><trkpt lat="42.27538981857268" lon="12.729788858183865"><ele>596.8333333333333</ele><time>2026-03-22T12:19:41.999Z</time></trkpt><trkpt lat="42.275470377458085" lon="12.729740118429968"><ele>599.0</ele><time>2026-03-22T12:19:42.999Z</time></trkpt><trkpt lat="42.275542160237336" lon="12.7296797483417"><ele>601.1666666666666</ele><time>2026-03-22T12:19:43.999Z</time></trkpt><trkpt lat="42.275604182241665" lon="12.729602727161803"><ele>603.3333333333333</ele><time>2026-03-22T12:19:44.999Z</time></trkpt><trkpt lat="42.27567954634799" lon="12.729551854523743"><ele>605.5</ele><time>2026-03-22T12:19:45.999Z</time></trkpt><trkpt lat="42.27575943655179" lon="12.729534500300376"><ele>607.6666666666666</ele><time>2026-03-22T12:19:46.999Z</time></trkpt><trkpt lat="42.275828519922314" lon="12.72954506787988"><ele>609.8333333333334</ele><time>2026-03-22T12:19:47.999Z</time></trkpt><trkpt lat="42.27588801475009" lon="12.729577443316908"><ele>612.0</ele><time>2026-03-22T12:19:48.999Z</time></trkpt><trkpt lat="42.275948004880796" lon="12.729638154522464"><ele>612.0</ele><time>2026-03-22T12:19:49.999Z</time></trkpt><trkpt lat="42.27602697816993" lon="12.729720970609115"><ele>612.0</ele><time>2026-03-22T12:19:50.999Z</time></trkpt><trkpt lat="42.27610932838845" lon="12.729798011283245"><ele>612.0</ele><time>2026-03-22T12:19:51.999Z</time></trkpt><trkpt lat="42.27621255662003" lon="12.729828880570558"><ele>612.0</ele><time>2026-03-22T12:19:52.999Z</time></trkpt><trkpt lat="42.276326736813054" lon="12.729824202799078"><ele>612.0</ele><time>2026-03-22T12:19:53.999Z</time></trkpt><trkpt lat="42.276421458038094" lon="12.729812290073621"><ele>614.8333333333334</ele><time>2026-03-22T12:19:54.999Z</time></trkpt><trkpt lat="42.2765241446278" lon="12.72978734293603"><ele>617.6666666666666</ele><time>2026-03-22T12:19:55.999Z</time></trkpt><trkpt lat="42.27661522086244" lon="12.729755358541846"><ele>620.5</ele><time>2026-03-22T12:19:56.999Z</time></trkpt><trkpt lat="42.2766914744342" lon="12.729741226067128"><ele>623.3333333333333</ele><time>2026-03-22T12:19:57.999Z</time></trkpt><trkpt lat="42.276731189763794" lon="12.729668221419052"><ele>626.1666666666666</ele><time>2026-03-22T12:20:01.999Z</time></trkpt><trkpt lat="42.276795276520424" lon="12.729639601162354"><ele>629.0</ele><time>2026-03-22T12:20:03.999Z</time></trkpt><trkpt lat="42.27689968589403" lon="12.729583306420857"><ele>629.0</ele><time>2026-03-22T12:20:05.999Z</time></trkpt><trkpt lat="42.277006101264504" lon="12.729531817397907"><ele>629.0</ele><time>2026-03-22T12:20:07.999Z</time></trkpt><trkpt lat="42.277065386524036" lon="12.729500543640325"><ele>629.0</ele><time>2026-03-22T12:20:08.999Z</time></trkpt><trkpt lat="42.27712547681254" lon="12.729464433457208"><ele>629.0</ele><time>2026-03-22T12:20:09.999Z</time></trkpt><trkpt lat="42.27718308711663" lon="12.729428393168963"><ele>629.0</ele><time>2026-03-22T12:20:10.999Z</time></trkpt><trkpt lat="42.27729470852385" lon="12.729350052593597"><ele>629.0</ele><time>2026-03-22T12:20:12.999Z</time></trkpt><trkpt lat="42.27739492844515" lon="12.729249323709862"><ele>630.8</ele><time>2026-03-22T12:20:14.999Z</time></trkpt><trkpt lat="42.27744862683293" lon="12.72920243050041"><ele>632.5999999999999</ele><time>2026-03-22T12:20:15.999Z</time></trkpt><trkpt lat="42.27754799243851" lon="12.72912836082274"><ele>634.4</ele><time>2026-03-22T12:20:17.999Z</time></trkpt><trkpt lat="42.27761739883874" lon="12.729010247449736"><ele>636.1999999999999</ele><time>2026-03-22T12:20:19.999Z</time></trkpt><trkpt lat="42.27773773123845" lon="12.728882044747346"><ele>638.0</ele><time>2026-03-22T12:20:21.999Z</time></trkpt><trkpt lat="42.27780817815661" lon="12.728806795475084"><ele>638.0</ele><time>2026-03-22T12:20:22.999Z</time></trkpt><trkpt lat="42.27787402074037" lon="12.72875115171805"><ele>638.0</ele><time>2026-03-22T12:20:23.999Z</time></trkpt><trkpt lat="42.27795075098015" lon="12.728654361409404"><ele>638.0</ele><time>2026-03-22T12:20:25.999Z</time></trkpt><trkpt lat="42.27804984275919" lon="12.728605922990278"><ele>638.0</ele><time>2026-03-22T12:20:26.999Z</time></trkpt><trkpt lat="42.27810965264251" lon="12.72857873609699"><ele>638.0</ele><time>2026-03-22T12:20:27.999Z</time></trkpt><trkpt lat="42.2781680547813" lon="12.728539771353788"><ele>638.0</ele><time>2026-03-22T12:20:28.999Z</time></trkpt><trkpt lat="42.27822899851621" lon="12.728486855171422"><ele>641.0</ele><time>2026-03-22T12:20:29.999Z</time></trkpt><trkpt lat="42.27832737301489" lon="12.728506106724033"><ele>644.0</ele><time>2026-03-22T12:20:31.999Z</time></trkpt><trkpt lat="42.27843041696038" lon="12.72861436573001"><ele>647.0</ele><time>2026-03-22T12:20:33.999Z</time></trkpt><trkpt lat="42.27849336593823" lon="12.728491621552514"><ele>650.0</ele><time>2026-03-22T12:20:36Z</time></trkpt><trkpt lat="42.27861032725921" lon="12.728510460224802"><ele>650.0</ele><time>2026-03-22T12:20:38Z</time></trkpt><trkpt lat="42.27871786305698" lon="12.7284724921507"><ele>650.0</ele><time>2026-03-22T12:20:40Z</time></trkpt><trkpt lat="42.278836104117204" lon="12.728428944456569"><ele>650.0</ele><time>2026-03-22T12:20:42Z</time></trkpt><trkpt lat="42.27890188594894" lon="12.728390795640612"><ele>650.0</ele><time>2026-03-22T12:20:43Z</time></trkpt><trkpt lat="42.27897415630882" lon="12.728360405841867"><ele>650.0</ele><time>2026-03-22T12:20:44Z</time></trkpt><trkpt lat="42.279051316918256" lon="12.72834176105511"><ele>654.6666666666666</ele><time>2026-03-22T12:20:45Z</time></trkpt><trkpt lat="42.279131009451795" lon="12.728302538557774"><ele>659.3333333333333</ele><time>2026-03-22T12:20:46Z</time></trkpt><trkpt lat="42.279196467604976" lon="12.728239152312405"><ele>664.0</ele><time>2026-03-22T12:20:47Z</time></trkpt><trkpt lat="42.2792701049693" lon="12.728184133756733"><ele>668.6666666666666</ele><time>2026-03-22T12:20:48Z</time></trkpt><trkpt lat="42.27932342725711" lon="12.728121596313603"><ele>673.3333333333334</ele><time>2026-03-22T12:20:49Z</time></trkpt><trkpt lat="42.27934982195105" lon="12.728035696222554"><ele>678.0</ele><time>2026-03-22T12:20:51Z</time></trkpt><trkpt lat="42.27941039940282" lon="12.727962606040366"><ele>678.0</ele><time>2026-03-22T12:21:05.999Z</time></trkpt><trkpt lat="42.27948406837865" lon="12.727878572161796"><ele>678.0</ele><time>2026-03-22T12:21:07.999Z</time></trkpt><trkpt lat="42.27953713422748" lon="12.727805164391789"><ele>678.0</ele><time>2026-03-22T12:21:09.999Z</time></trkpt><trkpt lat="42.27960879815753" lon="12.727709508146447"><ele>678.0</ele><time>2026-03-22T12:21:11.999Z</time></trkpt><trkpt lat="42.27972007980845" lon="12.727659668970555"><ele>678.0</ele><time>2026-03-22T12:21:13.999Z</time></trkpt><trkpt lat="42.27982031920196" lon="12.727668263594087"><ele>682.8</ele><time>2026-03-22T12:21:15.999Z</time></trkpt><trkpt lat="42.279899249390795" lon="12.727756785159583"><ele>687.5999999999999</ele><time>2026-03-22T12:21:17.999Z</time></trkpt><trkpt lat="42.27995222946855" lon="12.727809902223758"><ele>692.4000000000001</ele><time>2026-03-22T12:21:19.999Z</time></trkpt><trkpt lat="42.2800491264537" lon="12.727823737603552"><ele>697.2</ele><time>2026-03-22T12:21:22.999Z</time></trkpt><trkpt lat="42.28015130583043" lon="12.727844243548919"><ele>702.0</ele><time>2026-03-22T12:21:24.999Z</time></trkpt><trkpt lat="42.28023855428358" lon="12.72790142914335"><ele>702.0</ele><time>2026-03-22T12:21:26.999Z</time></trkpt><trkpt lat="42.28023981357862" lon="12.727997592983709"><ele>702.0</ele><time>2026-03-22T12:21:28.999Z</time></trkpt><trkpt lat="42.28029256149457" lon="12.72808694461944"><ele>702.0</ele><time>2026-03-22T12:21:31.999Z</time></trkpt><trkpt lat="42.2803611735455" lon="12.72815243498246"><ele>702.0</ele><time>2026-03-22T12:21:34.999Z</time></trkpt><trkpt lat="42.280443961944094" lon="12.72821507018906"><ele>702.0</ele><time>2026-03-22T12:21:36.999Z</time></trkpt><trkpt lat="42.28050020959321" lon="12.728272575796943"><ele>702.0</ele><time>2026-03-22T12:21:38.999Z</time></trkpt><trkpt lat="42.2805579560364" lon="12.728377357018534"><ele>703.1666666666666</ele><time>2026-03-22T12:21:40.999Z</time></trkpt><trkpt lat="42.280647950664616" lon="12.728485895688875"><ele>704.3333333333334</ele><time>2026-03-22T12:21:42.999Z</time></trkpt><trkpt lat="42.280697164636415" lon="12.72854643462067"><ele>705.5</ele><time>2026-03-22T12:21:43.999Z</time></trkpt><trkpt lat="42.280749540344694" lon="12.728603207123772"><ele>706.6666666666667</ele><time>2026-03-22T12:21:44.999Z</time></trkpt><trkpt lat="42.280809215232445" lon="12.72866474703146"><ele>707.8333333333334</ele><time>2026-03-22T12:21:45.999Z</time></trkpt><trkpt lat="42.28086661945087" lon="12.72871244620792"><ele>709.0</ele><time>2026-03-22T12:21:46.999Z</time></trkpt><trkpt lat="42.28092454682573" lon="12.72876378709063"><ele>710.6666666666667</ele><time>2026-03-22T12:21:47.999Z</time></trkpt><trkpt lat="42.2809547368876" lon="12.72884416429141"><ele>712.3333333333334</ele><time>2026-03-22T12:21:48.999Z</time></trkpt><trkpt lat="42.28099766997509" lon="12.728908446708534"><ele>714.0</ele><time>2026-03-22T12:21:49.999Z</time></trkpt><trkpt lat="42.281051678078185" lon="12.728986780520996"><ele>715.6666666666666</ele><time>2026-03-22T12:21:50.999Z</time></trkpt><trkpt lat="42.281097698543654" lon="12.729073602784354"><ele>717.3333333333333</ele><time>2026-03-22T12:21:51.999Z</time></trkpt><trkpt lat="42.281133108613325" lon="12.729220456349237"><ele>719.0</ele><time>2026-03-22T12:21:53.999Z</time></trkpt><trkpt lat="42.2811925192861" lon="12.72932741357314"><ele>720.2</ele><time>2026-03-22T12:21:55.999Z</time></trkpt><trkpt lat="42.281223569052734" lon="12.729437812274321"><ele>721.4000000000001</ele><time>2026-03-22T12:21:57.999Z</time></trkpt><trkpt lat="42.28123518644671" lon="12.729545808602145"><ele>722.6</ele><time>2026-03-22T12:21:59.999Z</time></trkpt><trkpt lat="42.28121646399327" lon="12.729708922877721"><ele>723.8</ele><time>2026-03-22T12:22:01.999Z</time></trkpt><trkpt lat="42.28118080865453" lon="12.729813681252262"><ele>725.0</ele><time>2026-03-22T12:22:02.999Z</time></trkpt><trkpt lat="42.28113258398169" lon="12.729931756654889"><ele>725.0</ele><time>2026-03-22T12:22:03.999Z</time></trkpt><trkpt lat="42.281096901337825" lon="12.73004338859833"><ele>725.0</ele><time>2026-03-22T12:22:04.999Z</time></trkpt><trkpt lat="42.28107425570394" lon="12.730146395419041"><ele>725.0</ele><time>2026-03-22T12:22:05.999Z</time></trkpt><trkpt lat="42.28105406045079" lon="12.730251357235097"><ele>725.0</ele><time>2026-03-22T12:22:06.999Z</time></trkpt><trkpt lat="42.28106083849632" lon="12.730348859165053"><ele>725.0</ele><time>2026-03-22T12:22:07.999Z</time></trkpt><trkpt lat="42.28106628441296" lon="12.730466785750734"><ele>725.0</ele><time>2026-03-22T12:22:08.999Z</time></trkpt><trkpt lat="42.28108391080539" lon="12.730590306171866"><ele>727.2</ele><time>2026-03-22T12:22:09.999Z</time></trkpt><trkpt lat="42.28110174109245" lon="12.730697427393899"><ele>729.4</ele><time>2026-03-22T12:22:10.999Z</time></trkpt><trkpt lat="42.281131430130046" lon="12.730812301629413"><ele>731.5999999999999</ele><time>2026-03-22T12:22:11.999Z</time></trkpt><trkpt lat="42.28116839960775" lon="12.730921720153033"><ele>733.8</ele><time>2026-03-22T12:22:12.999Z</time></trkpt><trkpt lat="42.28122267696877" lon="12.731010465375906"><ele>736.0</ele><time>2026-03-22T12:22:13.999Z</time></trkpt><trkpt lat="42.28127239694896" lon="12.731168946451628"><ele>738.5999999999999</ele><time>2026-03-22T12:22:15.999Z</time></trkpt><trkpt lat="42.28132676699262" lon="12.73126255404709"><ele>741.2</ele><time>2026-03-22T12:22:17.999Z</time></trkpt><trkpt lat="42.281322308492946" lon="12.731415199977395"><ele>743.8</ele><time>2026-03-22T12:22:19.999Z</time></trkpt><trkpt lat="42.28133816464024" lon="12.731503266854384"><ele>746.4000000000001</ele><time>2026-03-22T12:22:20.999Z</time></trkpt><trkpt lat="42.28137589718901" lon="12.731654408119232"><ele>749.0</ele><time>2026-03-22T12:22:22.999Z</time></trkpt><trkpt lat="42.28138860868926" lon="12.731743348180565"><ele>749.0</ele><time>2026-03-22T12:22:23.999Z</time></trkpt><trkpt lat="42.281407419702965" lon="12.731849722796959"><ele>749.0</ele><time>2026-03-22T12:22:24.999Z</time></trkpt><trkpt lat="42.28142607292557" lon="12.731974806081611"><ele>749.0</ele><time>2026-03-22T12:22:25.999Z</time></trkpt><trkpt lat="42.28143539112426" lon="12.732105812250655"><ele>749.0</ele><time>2026-03-22T12:22:26.999Z</time></trkpt><trkpt lat="42.28144966505716" lon="12.732233741773094"><ele>749.0</ele><time>2026-03-22T12:22:27.999Z</time></trkpt><trkpt lat="42.28145933334563" lon="12.732328719809974"><ele>749.0</ele><time>2026-03-22T12:22:28.999Z</time></trkpt><trkpt lat="42.28148159325021" lon="12.732416505282016"><ele>749.8333333333333</ele><time>2026-03-22T12:22:29.999Z</time></trkpt><trkpt lat="42.28150270552636" lon="12.732573360034934"><ele>750.6666666666666</ele><time>2026-03-22T12:22:31.999Z</time></trkpt><trkpt lat="42.2815037494682" lon="12.732680037417639"><ele>751.5</ele><time>2026-03-22T12:22:33.999Z</time></trkpt><trkpt lat="42.28148933306094" lon="12.732812326707204"><ele>752.3333333333334</ele><time>2026-03-22T12:22:35.999Z</time></trkpt><trkpt lat="42.281520520079596" lon="12.73288841128492"><ele>753.1666666666667</ele><time>2026-03-22T12:22:36.999Z</time></trkpt><trkpt lat="42.281591805127476" lon="12.732932537255635"><ele>754.0</ele><time>2026-03-22T12:22:37.999Z</time></trkpt><trkpt lat="42.28168911680666" lon="12.732936425420718"><ele>754.0</ele><time>2026-03-22T12:22:39.998Z</time></trkpt><trkpt lat="42.28178306255453" lon="12.732872217325834"><ele>754.0</ele><time>2026-03-22T12:22:42Z</time></trkpt><trkpt lat="42.28182161222436" lon="12.732792213552258"><ele>754.0</ele><time>2026-03-22T12:22:44Z</time></trkpt><trkpt lat="42.28193020727605" lon="12.73277964661606"><ele>754.0</ele><time>2026-03-22T12:22:46Z</time></trkpt><trkpt lat="42.28200799377211" lon="12.732760025579914"><ele>754.0</ele><time>2026-03-22T12:22:48Z</time></trkpt><trkpt lat="42.282082967780745" lon="12.732753630994205"><ele>754.0</ele><time>2026-03-22T12:22:51Z</time></trkpt><trkpt lat="42.282166119448114" lon="12.732745491073988"><ele>754.0</ele><time>2026-03-22T12:22:55Z</time></trkpt><trkpt lat="42.28226240519699" lon="12.732755621118596"><ele>754.0</ele><time>2026-03-22T12:22:59.999Z</time></trkpt><trkpt lat="42.28235301716658" lon="12.732736496226936"><ele>754.0</ele><time>2026-03-22T12:23:01.999Z</time></trkpt><trkpt lat="42.282420085186324" lon="12.732726199290203"><ele>754.0</ele><time>2026-03-22T12:23:02.999Z</time></trkpt><trkpt lat="42.28249270353409" lon="12.732699074945936"><ele>754.0</ele><time>2026-03-22T12:23:04.999Z</time></trkpt><trkpt lat="42.28256728933085" lon="12.7328043698014"><ele>754.0</ele><time>2026-03-22T12:23:07.999Z</time></trkpt><trkpt lat="42.28260605883415" lon="12.732912033174191"><ele>757.2</ele><time>2026-03-22T12:23:10.999Z</time></trkpt><trkpt lat="42.28270604044378" lon="12.733023394567976"><ele>760.4000000000001</ele><time>2026-03-22T12:23:12.999Z</time></trkpt><trkpt lat="42.282773386319874" lon="12.733109151202653"><ele>763.6</ele><time>2026-03-22T12:23:14.999Z</time></trkpt><trkpt lat="42.28283898212878" lon="12.733165130114735"><ele>766.8</ele><time>2026-03-22T12:23:17.999Z</time></trkpt><trkpt lat="42.282865824826104" lon="12.73325256093287"><ele>770.0</ele><time>2026-03-22T12:29:28Z</time></trkpt><trkpt lat="42.282827439058345" lon="12.733139155963116"><ele>770.0000000000001</ele><time>2026-03-22T12:32:04Z</time></trkpt><trkpt lat="42.28289024964569" lon="12.733187084003058"><ele>770.0</ele><time>2026-03-22T12:38:19Z</time></trkpt><trkpt lat="42.28282892539466" lon="12.733157490102357"><ele>770.0</ele><time>2026-03-22T12:38:27Z</time></trkpt><trkpt lat="42.28277380264821" lon="12.73309871598948"><ele>770.0</ele><time>2026-03-22T12:38:29Z</time></trkpt><trkpt lat="42.28271752851571" lon="12.733057469572215"><ele>770.0000000000001</ele><time>2026-03-22T12:38:31Z</time></trkpt><trkpt lat="42.28266611885729" lon="12.732942659460688"><ele>770.0</ele><time>2026-03-22T12:38:34Z</time></trkpt><trkpt lat="42.28261925355201" lon="12.732840464493394"><ele>770.0</ele><time>2026-03-22T12:38:38Z</time></trkpt><trkpt lat="42.28256498263731" lon="12.732796923045814"><ele>770.0</ele><time>2026-03-22T12:38:41Z</time></trkpt><trkpt lat="42.282490621258766" lon="12.732864978413547"><ele>770.0</ele><time>2026-03-22T12:38:44Z</time></trkpt><trkpt lat="42.282416399346026" lon="12.732859690077426"><ele>770.0</ele><time>2026-03-22T12:38:46Z</time></trkpt><trkpt lat="42.28234748753563" lon="12.732828471716664"><ele>770.0</ele><time>2026-03-22T12:38:48Z</time></trkpt><trkpt lat="42.28226884794722" lon="12.732810742160833"><ele>770.0</ele><time>2026-03-22T12:38:50Z</time></trkpt><trkpt lat="42.282204031586694" lon="12.732804525645196"><ele>770.0</ele><time>2026-03-22T12:38:53Z</time></trkpt><trkpt lat="42.28213986143821" lon="12.73277434820386"><ele>767.3333333333334</ele><time>2026-03-22T12:38:55Z</time></trkpt><trkpt lat="42.28206272566932" lon="12.732755981447117"><ele>764.6666666666667</ele><time>2026-03-22T12:38:57Z</time></trkpt><trkpt lat="42.281993712914186" lon="12.732714273755615"><ele>762.0</ele><time>2026-03-22T12:39:01Z</time></trkpt><trkpt lat="42.2819157081813" lon="12.732690752404533"><ele>759.3333333333334</ele><time>2026-03-22T12:39:05Z</time></trkpt><trkpt lat="42.28186516333424" lon="12.732753853752273"><ele>756.6666666666667</ele><time>2026-03-22T12:39:07Z</time></trkpt><trkpt lat="42.281794695910925" lon="12.732800021870835"><ele>754.0</ele><time>2026-03-22T12:39:08.999Z</time></trkpt><trkpt lat="42.28173992126855" lon="12.732741121605706"><ele>751.8333333333334</ele><time>2026-03-22T12:39:10.999Z</time></trkpt><trkpt lat="42.281692428467466" lon="12.732681183940828"><ele>749.6666666666667</ele><time>2026-03-22T12:39:13.999Z</time></trkpt><trkpt lat="42.28162224174963" lon="12.73260189029489"><ele>747.5</ele><time>2026-03-22T12:39:16.999Z</time></trkpt><trkpt lat="42.281567469925314" lon="12.732530994072782"><ele>745.3333333333334</ele><time>2026-03-22T12:39:18.999Z</time></trkpt><trkpt lat="42.281537885462285" lon="12.732437233402898"><ele>743.1666666666666</ele><time>2026-03-22T12:39:20.999Z</time></trkpt><trkpt lat="42.28149387213189" lon="12.732318500788907"><ele>741.0</ele><time>2026-03-22T12:39:22.999Z</time></trkpt><trkpt lat="42.28148063374861" lon="12.73215896572144"><ele>741.0</ele><time>2026-03-22T12:39:24.999Z</time></trkpt><trkpt lat="42.281467902632905" lon="12.732052475486823"><ele>741.0</ele><time>2026-03-22T12:39:25.999Z</time></trkpt><trkpt lat="42.28145482566444" lon="12.73196207659013"><ele>741.0</ele><time>2026-03-22T12:39:26.999Z</time></trkpt><trkpt lat="42.28144439430504" lon="12.73182777020282"><ele>741.0</ele><time>2026-03-22T12:39:29Z</time></trkpt><trkpt lat="42.28143814817635" lon="12.731736075344125"><ele>741.0</ele><time>2026-03-22T12:39:30Z</time></trkpt><trkpt lat="42.28142427876387" lon="12.731640908422992"><ele>741.0</ele><time>2026-03-22T12:39:31Z</time></trkpt><trkpt lat="42.28140882747441" lon="12.731545661247207"><ele>740.0</ele><time>2026-03-22T12:39:32Z</time></trkpt><trkpt lat="42.2813742288936" lon="12.731374143598481"><ele>739.0</ele><time>2026-03-22T12:39:34Z</time></trkpt><trkpt lat="42.28136608552793" lon="12.731232731433218"><ele>738.0</ele><time>2026-03-22T12:39:36Z</time></trkpt><trkpt lat="42.28132981273911" lon="12.731118933468696"><ele>737.0</ele><time>2026-03-22T12:39:39Z</time></trkpt><trkpt lat="42.281269507719266" lon="12.731038466197214"><ele>736.0</ele><time>2026-03-22T12:39:41Z</time></trkpt><trkpt lat="42.2811991724108" lon="12.730935175406218"><ele>736.0</ele><time>2026-03-22T12:39:44Z</time></trkpt><trkpt lat="42.28115959540757" lon="12.730862340440021"><ele>736.0</ele><time>2026-03-22T12:39:46Z</time></trkpt><trkpt lat="42.281169516008895" lon="12.73074337921583"><ele>736.0</ele><time>2026-03-22T12:39:49Z</time></trkpt><trkpt lat="42.281235205759565" lon="12.73071063940716"><ele>736.0</ele><time>2026-03-22T12:39:51Z</time></trkpt><trkpt lat="42.281069205593006" lon="12.730046612411124"><ele>734.1666666666667</ele><time>2026-03-22T12:39:52Z</time></trkpt><trkpt lat="42.28109207168645" lon="12.729966278889533"><ele>732.3333333333334</ele><time>2026-03-22T12:39:53Z</time></trkpt><trkpt lat="42.281137326709604" lon="12.729791953767611"><ele>730.5</ele><time>2026-03-22T12:39:55Z</time></trkpt><trkpt lat="42.2811566390009" lon="12.7296934842009"><ele>728.6666666666666</ele><time>2026-03-22T12:39:56Z</time></trkpt><trkpt lat="42.281172425513354" lon="12.72960070974204"><ele>726.8333333333333</ele><time>2026-03-22T12:39:57Z</time></trkpt><trkpt lat="42.28117998760159" lon="12.729510155701469"><ele>725.0</ele><time>2026-03-22T12:39:58Z</time></trkpt><trkpt lat="42.28116813111282" lon="12.7293833879638"><ele>724.0</ele><time>2026-03-22T12:40:00Z</time></trkpt><trkpt lat="42.281131581721404" lon="12.729299208537421"><ele>723.0</ele><time>2026-03-22T12:40:02Z</time></trkpt><trkpt lat="42.28109002160781" lon="12.729192123459852"><ele>722.0</ele><time>2026-03-22T12:40:04Z</time></trkpt><trkpt lat="42.281039605068855" lon="12.72907549819323"><ele>721.0</ele><time>2026-03-22T12:40:06Z</time></trkpt><trkpt lat="42.28099162664926" lon="12.728986675893266"><ele>720.0</ele><time>2026-03-22T12:40:07Z</time></trkpt><trkpt lat="42.28093862310458" lon="12.728912982091222"><ele>719.0</ele><time>2026-03-22T12:40:08Z</time></trkpt><trkpt lat="42.28090605723067" lon="12.728792122074461"><ele>719.0</ele><time>2026-03-22T12:40:10Z</time></trkpt><trkpt lat="42.28084288171963" lon="12.728701145778082"><ele>719.0</ele><time>2026-03-22T12:40:12Z</time></trkpt><trkpt lat="42.28077607244977" lon="12.72868894104439"><ele>719.0</ele><time>2026-03-22T12:40:14Z</time></trkpt><trkpt lat="42.28070968859623" lon="12.728622512569475"><ele>719.0</ele><time>2026-03-22T12:40:15Z</time></trkpt><trkpt lat="42.28066022930659" lon="12.728567699467469"><ele>719.0</ele><time>2026-03-22T12:40:16Z</time></trkpt><trkpt lat="42.28062221832873" lon="12.72849721104063"><ele>719.0</ele><time>2026-03-22T12:40:17Z</time></trkpt><trkpt lat="42.280548748066764" lon="12.728388910918142"><ele>716.5714285714286</ele><time>2026-03-22T12:40:19Z</time></trkpt><trkpt lat="42.28050371881557" lon="12.728307515435171"><ele>714.1428571428571</ele><time>2026-03-22T12:40:21Z</time></trkpt><trkpt lat="42.28043040324807" lon="12.728243560280228"><ele>711.7142857142858</ele><time>2026-03-22T12:40:25Z</time></trkpt><trkpt lat="42.280377199068376" lon="12.728190541809004"><ele>709.2857142857142</ele><time>2026-03-22T12:40:28Z</time></trkpt><trkpt lat="42.28033456018924" lon="12.728123631085836"><ele>706.8571428571429</ele><time>2026-03-22T12:45:50Z</time></trkpt><trkpt lat="42.28027516231422" lon="12.728089045459862"><ele>704.4285714285714</ele><time>2026-03-22T12:45:53Z</time></trkpt><trkpt lat="42.28033367236352" lon="12.728127730874158"><ele>702.0</ele><time>2026-03-22T12:46:44Z</time></trkpt><trkpt lat="42.280272902813074" lon="12.728083371696457"><ele>702.0</ele><time>2026-03-22T12:49:53.999Z</time></trkpt><trkpt lat="42.28033439153626" lon="12.728126004989946"><ele>702.0</ele><time>2026-03-22T12:51:02Z</time></trkpt><trkpt lat="42.28040523760549" lon="12.728194651830652"><ele>702.0</ele><time>2026-03-22T12:51:05Z</time></trkpt><trkpt lat="42.28047771986683" lon="12.728233020967245"><ele>702.0</ele><time>2026-03-22T12:51:07Z</time></trkpt><trkpt lat="42.28053226660538" lon="12.728332908297187"><ele>702.0</ele><time>2026-03-22T12:51:10Z</time></trkpt><trkpt lat="42.280584397776565" lon="12.728402990516388"><ele>702.0</ele><time>2026-03-22T12:51:12Z</time></trkpt><trkpt lat="42.28067815416236" lon="12.728527502048058"><ele>705.4000000000001</ele><time>2026-03-22T12:51:14Z</time></trkpt><trkpt lat="42.28074258735311" lon="12.728604665179628"><ele>708.8000000000001</ele><time>2026-03-22T12:51:15Z</time></trkpt><trkpt lat="42.28084568653569" lon="12.728721620697245"><ele>712.2</ele><time>2026-03-22T12:51:17Z</time></trkpt><trkpt lat="42.28089556398453" lon="12.7288091787209"><ele>715.6</ele><time>2026-03-22T12:51:18Z</time></trkpt><trkpt lat="42.28095022049445" lon="12.728903113497609"><ele>719.0</ele><time>2026-03-22T12:51:19Z</time></trkpt><trkpt lat="42.28100634218772" lon="12.728979582840783"><ele>719.0</ele><time>2026-03-22T12:51:20Z</time></trkpt><trkpt lat="42.28106458600302" lon="12.729059723107673"><ele>719.0</ele><time>2026-03-22T12:51:21Z</time></trkpt><trkpt lat="42.28109757409189" lon="12.729139573092956"><ele>719.0</ele><time>2026-03-22T12:51:22Z</time></trkpt><trkpt lat="42.28112190016117" lon="12.729254286742437"><ele>719.0</ele><time>2026-03-22T12:51:24Z</time></trkpt><trkpt lat="42.28119695091372" lon="12.729379538505674"><ele>719.0</ele><time>2026-03-22T12:51:26Z</time></trkpt><trkpt lat="42.281231321616495" lon="12.729501880136276"><ele>720.0</ele><time>2026-03-22T12:51:27.999Z</time></trkpt><trkpt lat="42.28123493847408" lon="12.729621210581822"><ele>721.0</ele><time>2026-03-22T12:51:29.999Z</time></trkpt><trkpt lat="42.281226337140986" lon="12.72979200581271"><ele>722.0</ele><time>2026-03-22T12:51:31.999Z</time></trkpt><trkpt lat="42.281191149696745" lon="12.729878176549995"><ele>723.0</ele><time>2026-03-22T12:51:32.999Z</time></trkpt><trkpt lat="42.2811487939927" lon="12.729964246018998"><ele>724.0</ele><time>2026-03-22T12:51:33.999Z</time></trkpt><trkpt lat="42.28111686052579" lon="12.730048106423222"><ele>725.0</ele><time>2026-03-22T12:51:34.999Z</time></trkpt><trkpt lat="42.281094241134326" lon="12.73013116942883"><ele>726.8333333333333</ele><time>2026-03-22T12:51:35.999Z</time></trkpt><trkpt lat="42.28108330631157" lon="12.730229152834909"><ele>728.6666666666666</ele><time>2026-03-22T12:51:36.999Z</time></trkpt><trkpt lat="42.281070198298124" lon="12.73031852823751"><ele>730.5</ele><time>2026-03-22T12:51:37.999Z</time></trkpt><trkpt lat="42.28106805723204" lon="12.730424282289292"><ele>732.3333333333334</ele><time>2026-03-22T12:51:38.999Z</time></trkpt><trkpt lat="42.28107802627474" lon="12.730545718903919"><ele>734.1666666666667</ele><time>2026-03-22T12:51:39.999Z</time></trkpt><trkpt lat="42.28109652453845" lon="12.730651909409604"><ele>736.0</ele><time>2026-03-22T12:51:40.999Z</time></trkpt><trkpt lat="42.28111026925464" lon="12.730749662543834"><ele>736.0</ele><time>2026-03-22T12:51:41.999Z</time></trkpt><trkpt lat="42.281136711575634" lon="12.7308471794665"><ele>736.0</ele><time>2026-03-22T12:51:42.999Z</time></trkpt><trkpt lat="42.28118495610712" lon="12.730927241030939"><ele>736.0</ele><time>2026-03-22T12:51:43.999Z</time></trkpt><trkpt lat="42.28123470720486" lon="12.731001835075032"><ele>736.0</ele><time>2026-03-22T12:51:44.999Z</time></trkpt><trkpt lat="42.281283119525924" lon="12.731085393961223"><ele>736.0</ele><time>2026-03-22T12:51:45.999Z</time></trkpt><trkpt lat="42.28132023994891" lon="12.731167376719075"><ele>736.0</ele><time>2026-03-22T12:51:46.999Z</time></trkpt><trkpt lat="42.28138313833452" lon="12.731283691247485"><ele>736.8333333333334</ele><time>2026-03-22T12:51:48.999Z</time></trkpt><trkpt lat="42.281376639549045" lon="12.731396824093524"><ele>737.6666666666667</ele><time>2026-03-22T12:51:50.999Z</time></trkpt><trkpt lat="42.281373168305514" lon="12.731492756260689"><ele>738.5</ele><time>2026-03-22T12:51:51.999Z</time></trkpt><trkpt lat="42.28139779403627" lon="12.73159680998008"><ele>739.3333333333334</ele><time>2026-03-22T12:51:52.999Z</time></trkpt><trkpt lat="42.281424896084054" lon="12.731702806380161"><ele>740.1666666666666</ele><time>2026-03-22T12:51:53.999Z</time></trkpt><trkpt lat="42.28144647290421" lon="12.731810067205663"><ele>741.0</ele><time>2026-03-22T12:51:54.999Z</time></trkpt><trkpt lat="42.281452353621205" lon="12.731928555467295"><ele>741.0</ele><time>2026-03-22T12:51:55.999Z</time></trkpt><trkpt lat="42.28146355005562" lon="12.732060303244912"><ele>741.0</ele><time>2026-03-22T12:51:56.999Z</time></trkpt><trkpt lat="42.28147866953485" lon="12.732193265511656"><ele>741.0</ele><time>2026-03-22T12:51:57.999Z</time></trkpt><trkpt lat="42.28149255960377" lon="12.732306940053965"><ele>741.0</ele><time>2026-03-22T12:51:58.999Z</time></trkpt><trkpt lat="42.28149885389781" lon="12.732398759520986"><ele>741.0</ele><time>2026-03-22T12:51:59.999Z</time></trkpt><trkpt lat="42.28151407600843" lon="12.732491099791169"><ele>741.0</ele><time>2026-03-22T12:52:00.999Z</time></trkpt><trkpt lat="42.28153227218506" lon="12.73261967174559"><ele>743.1666666666666</ele><time>2026-03-22T12:52:02.999Z</time></trkpt><trkpt lat="42.281508816930504" lon="12.732723352945902"><ele>745.3333333333334</ele><time>2026-03-22T12:52:05Z</time></trkpt><trkpt lat="42.281517508273666" lon="12.732853053000255"><ele>747.5</ele><time>2026-03-22T12:52:07Z</time></trkpt><trkpt lat="42.28156359691262" lon="12.732913117826117"><ele>749.6666666666667</ele><time>2026-03-22T12:52:08Z</time></trkpt><trkpt lat="42.28162112662974" lon="12.732968340036207"><ele>751.8333333333334</ele><time>2026-03-22T12:52:09Z</time></trkpt><trkpt lat="42.28172502445442" lon="12.732989502757908"><ele>754.0</ele><time>2026-03-22T12:52:11Z</time></trkpt><trkpt lat="42.28178060875516" lon="12.732928683749721"><ele>754.0</ele><time>2026-03-22T12:52:12Z</time></trkpt><trkpt lat="42.2818487592803" lon="12.732861252180438"><ele>754.0</ele><time>2026-03-22T12:52:16Z</time></trkpt><trkpt lat="42.28196152714855" lon="12.73281925780583"><ele>754.0</ele><time>2026-03-22T12:52:18Z</time></trkpt><trkpt lat="42.282034192234796" lon="12.732763570681074"><ele>754.0</ele><time>2026-03-22T12:52:19Z</time></trkpt><trkpt lat="42.28212322215721" lon="12.732757070266057"><ele>754.0</ele><time>2026-03-22T12:52:21Z</time></trkpt><trkpt lat="42.28223509591005" lon="12.732786848818058"><ele>757.2</ele><time>2026-03-22T12:52:23Z</time></trkpt><trkpt lat="42.282353422212445" lon="12.732777639335417"><ele>760.4000000000001</ele><time>2026-03-22T12:52:25Z</time></trkpt><trkpt lat="42.282455491129625" lon="12.732784377266878"><ele>763.6</ele><time>2026-03-22T12:52:27Z</time></trkpt><trkpt lat="42.28253987048548" lon="12.732745370080414"><ele>766.8</ele><time>2026-03-22T12:52:29Z</time></trkpt><trkpt lat="42.28262299178917" lon="12.732794998095626"><ele>770.0</ele><time>2026-03-22T12:52:31Z</time></trkpt><trkpt lat="42.282657747270044" lon="12.732906344608567"><ele>770.0000000000001</ele><time>2026-03-22T12:52:33Z</time></trkpt><trkpt lat="42.28269577927551" lon="12.733010414371579"><ele>770.0</ele><time>2026-03-22T12:52:35Z</time></trkpt><trkpt lat="42.282768363948485" lon="12.733117772979673"><ele>770.0</ele><time>2026-03-22T12:52:37Z</time></trkpt><trkpt lat="42.282825858681264" lon="12.733156581924582"><ele>770.0</ele><time>2026-03-22T12:52:38Z</time></trkpt><trkpt lat="42.2828850654443" lon="12.733217319568165"><ele>770.0000000000001</ele><time>2026-03-22T12:52:40Z</time></trkpt><trkpt lat="42.28296942860769" lon="12.733201207410671"><ele>770.0</ele><time>2026-03-22T12:54:32Z</time></trkpt><trkpt lat="42.28304555964298" lon="12.733125010342029"><ele>772.0</ele><time>2026-03-22T12:54:34Z</time></trkpt><trkpt lat="42.283135661850935" lon="12.733077048989768"><ele>774.0</ele><time>2026-03-22T12:54:36Z</time></trkpt><trkpt lat="42.283261386228595" lon="12.733092793351968"><ele>776.0</ele><time>2026-03-22T12:54:38Z</time></trkpt><trkpt lat="42.283328995970635" lon="12.733100612651874"><ele>778.0</ele><time>2026-03-22T12:54:39Z</time></trkpt><trkpt lat="42.28341804281032" lon="12.733067798590781"><ele>780.0</ele><time>2026-03-22T12:54:41Z</time></trkpt><trkpt lat="42.28354650984309" lon="12.733044171868029"><ele>780.0</ele><time>2026-03-22T12:54:43Z</time></trkpt><trkpt lat="42.28362657734742" lon="12.733012354944133"><ele>780.0</ele><time>2026-03-22T12:54:44Z</time></trkpt><trkpt lat="42.28370970364117" lon="12.733002441329868"><ele>780.0</ele><time>2026-03-22T12:54:45Z</time></trkpt><trkpt lat="42.28377894328508" lon="12.73299579071448"><ele>780.0</ele><time>2026-03-22T12:54:46Z</time></trkpt><trkpt lat="42.28390524036983" lon="12.732898194034298"><ele>780.0</ele><time>2026-03-22T12:54:48Z</time></trkpt><trkpt lat="42.28399283367089" lon="12.732822453274826"><ele>781.0</ele><time>2026-03-22T12:54:49Z</time></trkpt><trkpt lat="42.28407012978297" lon="12.7327822675377"><ele>782.0</ele><time>2026-03-22T12:54:50Z</time></trkpt><trkpt lat="42.28419302643593" lon="12.732765986251412"><ele>783.0</ele><time>2026-03-22T12:54:52Z</time></trkpt><trkpt lat="42.28426650540298" lon="12.732786216074597"><ele>784.0</ele><time>2026-03-22T12:54:53Z</time></trkpt><trkpt lat="42.28433712157124" lon="12.732687504424272"><ele>785.0</ele><time>2026-03-22T12:54:55Z</time></trkpt><trkpt lat="42.28441897844722" lon="12.732563044195269"><ele>785.0000000000001</ele><time>2026-03-22T12:54:57Z</time></trkpt><trkpt lat="42.2844767761907" lon="12.73250995102956"><ele>785.0</ele><time>2026-03-22T12:54:58Z</time></trkpt><trkpt lat="42.28454737123577" lon="12.73245127564172"><ele>785.0</ele><time>2026-03-22T12:54:59Z</time></trkpt><trkpt lat="42.28462225132871" lon="12.732414390453673"><ele>785.0</ele><time>2026-03-22T12:55:00Z</time></trkpt><trkpt lat="42.2846955683204" lon="12.732384768430745"><ele>785.0000000000001</ele><time>2026-03-22T12:55:01Z</time></trkpt><trkpt lat="42.284761339391245" lon="12.73238055731314"><ele>785.0</ele><time>2026-03-22T12:55:02Z</time></trkpt><trkpt lat="42.28486641765663" lon="12.732369097378559"><ele>785.3333333333334</ele><time>2026-03-22T12:55:04Z</time></trkpt><trkpt lat="42.28494790728071" lon="12.732260310267126"><ele>785.6666666666667</ele><time>2026-03-22T12:55:06Z</time></trkpt><trkpt lat="42.28499933151837" lon="12.732192036821308"><ele>786.0</ele><time>2026-03-22T12:55:07Z</time></trkpt><trkpt lat="42.28505550624342" lon="12.732116347261247"><ele>786.3333333333333</ele><time>2026-03-22T12:55:08Z</time></trkpt><trkpt lat="42.28511583283136" lon="12.732030064233491"><ele>786.6666666666666</ele><time>2026-03-22T12:55:09Z</time></trkpt><trkpt lat="42.28516498294922" lon="12.731952604898863"><ele>787.0</ele><time>2026-03-22T12:55:10Z</time></trkpt><trkpt lat="42.28523487195769" lon="12.731889284641854"><ele>785.6</ele><time>2026-03-22T12:55:11Z</time></trkpt><trkpt lat="42.28531818992549" lon="12.7318282330121"><ele>784.2</ele><time>2026-03-22T12:55:12Z</time></trkpt><trkpt lat="42.285407352158735" lon="12.731784458407732"><ele>782.8</ele><time>2026-03-22T12:55:13Z</time></trkpt><trkpt lat="42.28546790000033" lon="12.731728968674966"><ele>781.4</ele><time>2026-03-22T12:55:14Z</time></trkpt><trkpt lat="42.285544413872906" lon="12.731624827209108"><ele>780.0</ele><time>2026-03-22T12:55:16Z</time></trkpt><trkpt lat="42.285522799258665" lon="12.73150704921664"><ele>780.0</ele><time>2026-03-22T12:55:18Z</time></trkpt><trkpt lat="42.28549779123437" lon="12.731418174945185"><ele>780.0</ele><time>2026-03-22T12:55:20Z</time></trkpt><trkpt lat="42.285489740684916" lon="12.731332889670913"><ele>780.0</ele><time>2026-03-22T12:55:24Z</time></trkpt><trkpt lat="42.28549061777726" lon="12.731237591162678"><ele>780.0</ele><time>2026-03-22T12:55:27Z</time></trkpt><trkpt lat="42.2854698037176" lon="12.731065068254981"><ele>780.0</ele><time>2026-03-22T12:55:28.999Z</time></trkpt><trkpt lat="42.28543971557088" lon="12.730932570776085"><ele>780.0</ele><time>2026-03-22T12:55:30.999Z</time></trkpt><trkpt lat="42.28543927003641" lon="12.73084503364124"><ele>778.2</ele><time>2026-03-22T12:55:31.999Z</time></trkpt><trkpt lat="42.28544256687183" lon="12.730748314544554"><ele>776.4</ele><time>2026-03-22T12:55:32.999Z</time></trkpt><trkpt lat="42.285445161245825" lon="12.730591532741052"><ele>774.5999999999999</ele><time>2026-03-22T12:55:34.999Z</time></trkpt><trkpt lat="42.28546608913152" lon="12.73042610213066"><ele>772.8</ele><time>2026-03-22T12:55:36.999Z</time></trkpt><trkpt lat="42.28551211368489" lon="12.730316857841354"><ele>771.0</ele><time>2026-03-22T12:55:37.999Z</time></trkpt><trkpt lat="42.28556377609862" lon="12.730200110814728"><ele>773.0</ele><time>2026-03-22T12:55:38.999Z</time></trkpt><trkpt lat="42.28559993846982" lon="12.730100100397179"><ele>775.0</ele><time>2026-03-22T12:55:39.999Z</time></trkpt><trkpt lat="42.28566624290994" lon="12.729989232754168"><ele>777.0</ele><time>2026-03-22T12:55:40.999Z</time></trkpt><trkpt lat="42.285707449293525" lon="12.729891608501122"><ele>779.0</ele><time>2026-03-22T12:55:41.999Z</time></trkpt><trkpt lat="42.28578370446283" lon="12.729807519849112"><ele>781.0</ele><time>2026-03-22T12:55:42.999Z</time></trkpt><trkpt lat="42.28585627908417" lon="12.7297297984863"><ele>780.9999999999999</ele><time>2026-03-22T12:55:43.999Z</time></trkpt><trkpt lat="42.28592249980139" lon="12.729658171324324"><ele>781.0</ele><time>2026-03-22T12:55:44.999Z</time></trkpt><trkpt lat="42.285982638425764" lon="12.729564719832126"><ele>781.0</ele><time>2026-03-22T12:55:45.999Z</time></trkpt><trkpt lat="42.28604493934728" lon="12.729471734081514"><ele>781.0</ele><time>2026-03-22T12:55:46.999Z</time></trkpt><trkpt lat="42.286106406994456" lon="12.729371931041275"><ele>780.9999999999999</ele><time>2026-03-22T12:55:47.999Z</time></trkpt><trkpt lat="42.28615371211935" lon="12.729286523791274"><ele>781.0</ele><time>2026-03-22T12:55:48.999Z</time></trkpt><trkpt lat="42.28622730135294" lon="12.729171853745383"><ele>779.8333333333333</ele><time>2026-03-22T12:55:49.999Z</time></trkpt><trkpt lat="42.28628613801855" lon="12.729114066524787"><ele>778.6666666666666</ele><time>2026-03-22T12:55:50.999Z</time></trkpt><trkpt lat="42.286340873892804" lon="12.729068076900743"><ele>777.5</ele><time>2026-03-22T12:55:51.999Z</time></trkpt><trkpt lat="42.28641322912558" lon="12.729046413171671"><ele>776.3333333333333</ele><time>2026-03-22T12:55:52.999Z</time></trkpt><trkpt lat="42.28646891240412" lon="12.728993270271914"><ele>775.1666666666666</ele><time>2026-03-22T12:55:53.999Z</time></trkpt><trkpt lat="42.28657286737432" lon="12.728972861708096"><ele>774.0</ele><time>2026-03-22T12:55:54.999Z</time></trkpt><trkpt lat="42.286688130551006" lon="12.728976616082234"><ele>774.0</ele><time>2026-03-22T12:55:55.999Z</time></trkpt><trkpt lat="42.286827554487985" lon="12.728994244260427"><ele>774.0</ele><time>2026-03-22T12:55:56.999Z</time></trkpt><trkpt lat="42.28689752867389" lon="12.72898418224627"><ele>774.0</ele><time>2026-03-22T12:55:57.999Z</time></trkpt><trkpt lat="42.28698619849898" lon="12.729023616028732"><ele>774.0</ele><time>2026-03-22T12:55:58.999Z</time></trkpt><trkpt lat="42.28709843540637" lon="12.729047336019494"><ele>774.0</ele><time>2026-03-22T12:55:59.999Z</time></trkpt><trkpt lat="42.2872050706567" lon="12.729060849077639"><ele>774.5</ele><time>2026-03-22T12:56:00.999Z</time></trkpt><trkpt lat="42.28729813503426" lon="12.729070524721052"><ele>775.0</ele><time>2026-03-22T12:56:01.999Z</time></trkpt><trkpt lat="42.287392999791976" lon="12.729081035283558"><ele>775.5</ele><time>2026-03-22T12:56:02.999Z</time></trkpt><trkpt lat="42.28746771763605" lon="12.729060846381605"><ele>776.0</ele><time>2026-03-22T12:56:03.999Z</time></trkpt><trkpt lat="42.28753927567188" lon="12.729041189034369"><ele>776.5</ele><time>2026-03-22T12:56:04.999Z</time></trkpt><trkpt lat="42.28756755618892" lon="12.728941895133197"><ele>777.0</ele><time>2026-03-22T12:56:05.999Z</time></trkpt><trkpt lat="42.2876186129559" lon="12.728864489903719"><ele>777.0</ele><time>2026-03-22T12:56:06.999Z</time></trkpt><trkpt lat="42.287681241587805" lon="12.728812446886225"><ele>777.0</ele><time>2026-03-22T12:56:07.999Z</time></trkpt><trkpt lat="42.28778172095772" lon="12.728691119235597"><ele>777.0</ele><time>2026-03-22T12:56:08.999Z</time></trkpt><trkpt lat="42.28789141935147" lon="12.72860129191837"><ele>777.0</ele><time>2026-03-22T12:56:09.999Z</time></trkpt><trkpt lat="42.287996921584934" lon="12.72848656260724"><ele>775.8</ele><time>2026-03-22T12:56:10.999Z</time></trkpt><trkpt lat="42.28808062133288" lon="12.72838483575732"><ele>774.6</ele><time>2026-03-22T12:56:11.999Z</time></trkpt><trkpt lat="42.28814273683107" lon="12.728290732932413"><ele>773.4</ele><time>2026-03-22T12:56:12.999Z</time></trkpt><trkpt lat="42.288208400260245" lon="12.728154820728665"><ele>772.1999999999999</ele><time>2026-03-22T12:56:13.999Z</time></trkpt><trkpt lat="42.288280988422436" lon="12.728047197980993"><ele>771.0</ele><time>2026-03-22T12:56:14.999Z</time></trkpt><trkpt lat="42.288344168663905" lon="12.727944872618352"><ele>771.0</ele><time>2026-03-22T12:56:16Z</time></trkpt><trkpt lat="42.28840728388989" lon="12.727839278023731"><ele>771.0</ele><time>2026-03-22T12:56:17Z</time></trkpt><trkpt lat="42.28847680970583" lon="12.727752598824198"><ele>771.0</ele><time>2026-03-22T12:56:18Z</time></trkpt><trkpt lat="42.28858078073632" lon="12.727689058287694"><ele>771.0</ele><time>2026-03-22T12:56:20Z</time></trkpt><trkpt lat="42.28871090993167" lon="12.727582355531913"><ele>769.8333333333334</ele><time>2026-03-22T12:56:22Z</time></trkpt><trkpt lat="42.28879652580151" lon="12.727542451371022"><ele>768.6666666666666</ele><time>2026-03-22T12:56:23Z</time></trkpt><trkpt lat="42.2888793507954" lon="12.727519706713803"><ele>767.5</ele><time>2026-03-22T12:56:24Z</time></trkpt><trkpt lat="42.28896615792382" lon="12.727472349395592"><ele>766.3333333333333</ele><time>2026-03-22T12:56:25Z</time></trkpt><trkpt lat="42.28904388505218" lon="12.727417427105303"><ele>765.1666666666666</ele><time>2026-03-22T12:56:26Z</time></trkpt><trkpt lat="42.28908353476524" lon="12.727334166524"><ele>764.0</ele><time>2026-03-22T12:56:27Z</time></trkpt><trkpt lat="42.28912506437509" lon="12.727193995589774"><ele>764.0</ele><time>2026-03-22T12:56:28Z</time></trkpt><trkpt lat="42.289164527914636" lon="12.727035899949191"><ele>764.0</ele><time>2026-03-22T12:56:29Z</time></trkpt><trkpt lat="42.28919020094753" lon="12.72688100935829"><ele>764.0</ele><time>2026-03-22T12:56:30Z</time></trkpt><trkpt lat="42.28923557438266" lon="12.72671439129677"><ele>764.0</ele><time>2026-03-22T12:56:31Z</time></trkpt><trkpt lat="42.289307632297565" lon="12.726555390905592"><ele>759.0</ele><time>2026-03-22T12:56:32Z</time></trkpt><trkpt lat="42.28935496138986" lon="12.726445968225635"><ele>754.0</ele><time>2026-03-22T12:56:33Z</time></trkpt><trkpt lat="42.289405688626196" lon="12.726356161776087"><ele>749.0</ele><time>2026-03-22T12:56:34Z</time></trkpt><trkpt lat="42.289467332540035" lon="12.726260480722342"><ele>744.0</ele><time>2026-03-22T12:56:35Z</time></trkpt><trkpt lat="42.289532714915254" lon="12.726130506201885"><ele>739.0</ele><time>2026-03-22T12:56:36Z</time></trkpt><trkpt lat="42.28957816456691" lon="12.726037644255545"><ele>735.75</ele><time>2026-03-22T12:56:37Z</time></trkpt><trkpt lat="42.28966548289688" lon="12.725978886390719"><ele>732.5</ele><time>2026-03-22T12:56:39Z</time></trkpt><trkpt lat="42.2898185802972" lon="12.726048970831215"><ele>729.25</ele><time>2026-03-22T12:56:40Z</time></trkpt><trkpt lat="42.28990489206581" lon="12.72610129861408"><ele>726.0</ele><time>2026-03-22T12:56:41Z</time></trkpt><trkpt lat="42.28999861477181" lon="12.726161041639337"><ele>733.0</ele><time>2026-03-22T12:56:42Z</time></trkpt><trkpt lat="42.290127672857075" lon="12.726219880069872"><ele>740.0</ele><time>2026-03-22T12:56:43Z</time></trkpt><trkpt lat="42.29024734423977" lon="12.726266400993829"><ele>747.0</ele><time>2026-03-22T12:56:44Z</time></trkpt><trkpt lat="42.29034979273355" lon="12.726321446215167"><ele>754.0</ele><time>2026-03-22T12:56:45Z</time></trkpt><trkpt lat="42.2904553787599" lon="12.726378083069964"><ele>754.0</ele><time>2026-03-22T12:56:46Z</time></trkpt><trkpt lat="42.29055573965888" lon="12.72647555348508"><ele>754.0</ele><time>2026-03-22T12:56:47Z</time></trkpt><trkpt lat="42.29065496261911" lon="12.726575384040984"><ele>754.0</ele><time>2026-03-22T12:56:48Z</time></trkpt><trkpt lat="42.29077519388189" lon="12.726630525100841"><ele>754.0</ele><time>2026-03-22T12:56:49Z</time></trkpt><trkpt lat="42.29088150927255" lon="12.726668097277937"><ele>751.4000000000001</ele><time>2026-03-22T12:56:50Z</time></trkpt><trkpt lat="42.291030410956274" lon="12.726697799085748"><ele>748.8</ele><time>2026-03-22T12:56:52Z</time></trkpt><trkpt lat="42.29108999051668" lon="12.726651216087824"><ele>746.2</ele><time>2026-03-22T12:56:53Z</time></trkpt><trkpt lat="42.29116195269519" lon="12.726545315915926"><ele>743.5999999999999</ele><time>2026-03-22T12:56:54Z</time></trkpt><trkpt lat="42.291224229133086" lon="12.72645176836011"><ele>741.0</ele><time>2026-03-22T12:56:55Z</time></trkpt><trkpt lat="42.291268472187284" lon="12.726377601508531"><ele>741.0</ele><time>2026-03-22T12:56:56Z</time></trkpt><trkpt lat="42.29136139824176" lon="12.726305367062288"><ele>741.0</ele><time>2026-03-22T12:56:58Z</time></trkpt><trkpt lat="42.29142494489421" lon="12.726254238865012"><ele>741.0</ele><time>2026-03-22T12:56:59Z</time></trkpt><trkpt lat="42.291496896236296" lon="12.726213779135284"><ele>741.0</ele><time>2026-03-22T12:57:00Z</time></trkpt><trkpt lat="42.29158312903753" lon="12.726219071464637"><ele>741.0</ele><time>2026-03-22T12:57:01Z</time></trkpt><trkpt lat="42.29167429303353" lon="12.726154792508883"><ele>741.0</ele><time>2026-03-22T12:57:02Z</time></trkpt><trkpt lat="42.291776280144376" lon="12.72601007295703"><ele>734.75</ele><time>2026-03-22T12:57:04Z</time></trkpt><trkpt lat="42.29178183358628" lon="12.725841172511425"><ele>728.5</ele><time>2026-03-22T12:57:05Z</time></trkpt><trkpt lat="42.29178311209158" lon="12.725666069886953"><ele>722.25</ele><time>2026-03-22T12:57:06Z</time></trkpt><trkpt lat="42.2917714032234" lon="12.725532419364052"><ele>716.0</ele><time>2026-03-22T12:57:07Z</time></trkpt><trkpt lat="42.29184114670721" lon="12.725355525935866"><ele>713.4</ele><time>2026-03-22T12:57:09Z</time></trkpt><trkpt lat="42.291888340843606" lon="12.725192346609852"><ele>710.8</ele><time>2026-03-22T12:57:10Z</time></trkpt><trkpt lat="42.29195054078218" lon="12.725061096322538"><ele>708.1999999999999</ele><time>2026-03-22T12:57:11Z</time></trkpt><trkpt lat="42.29200529471485" lon="12.724977090201918"><ele>705.5999999999999</ele><time>2026-03-22T12:57:12Z</time></trkpt><trkpt lat="42.292044565097044" lon="12.724905392854355"><ele>703.0</ele><time>2026-03-22T12:57:13Z</time></trkpt><trkpt lat="42.29209475611725" lon="12.724849514811249"><ele>703.0</ele><time>2026-03-22T12:57:14Z</time></trkpt><trkpt lat="42.292167514846284" lon="12.724806489289255"><ele>703.0</ele><time>2026-03-22T12:57:15Z</time></trkpt><trkpt lat="42.292244766240024" lon="12.724769202287423"><ele>703.0</ele><time>2026-03-22T12:57:16Z</time></trkpt><trkpt lat="42.292316140040455" lon="12.724755624226042"><ele>703.0</ele><time>2026-03-22T12:57:17Z</time></trkpt><trkpt lat="42.292392899602206" lon="12.724706553954416"><ele>703.0</ele><time>2026-03-22T12:57:18Z</time></trkpt><trkpt lat="42.29248098804041" lon="12.724701924959328"><ele>703.0</ele><time>2026-03-22T12:57:19Z</time></trkpt><trkpt lat="42.292578039154215" lon="12.724721583691403"><ele>704.4</ele><time>2026-03-22T12:57:20Z</time></trkpt><trkpt lat="42.29268018096605" lon="12.724729655928499"><ele>705.8</ele><time>2026-03-22T12:57:21Z</time></trkpt><trkpt lat="42.292767758379796" lon="12.724741242011397"><ele>707.2</ele><time>2026-03-22T12:57:22Z</time></trkpt><trkpt lat="42.29286518392946" lon="12.72471724221522"><ele>708.6</ele><time>2026-03-22T12:57:23Z</time></trkpt><trkpt lat="42.29298419494579" lon="12.724663860827965"><ele>710.0</ele><time>2026-03-22T12:57:24Z</time></trkpt><trkpt lat="42.29308742963182" lon="12.724605130247204"><ele>710.6</ele><time>2026-03-22T12:57:25Z</time></trkpt><trkpt lat="42.293171902597095" lon="12.724543531441238"><ele>711.2</ele><time>2026-03-22T12:57:26Z</time></trkpt><trkpt lat="42.293249747851945" lon="12.724480782523344"><ele>711.8</ele><time>2026-03-22T12:57:27Z</time></trkpt><trkpt lat="42.293300720869" lon="12.724394448779162"><ele>712.4</ele><time>2026-03-22T12:57:28Z</time></trkpt><trkpt lat="42.293353687581735" lon="12.724253200140986"><ele>713.0</ele><time>2026-03-22T12:57:29Z</time></trkpt><trkpt lat="42.29337829404514" lon="12.724097793003454"><ele>710.5</ele><time>2026-03-22T12:57:30Z</time></trkpt><trkpt lat="42.29344630253459" lon="12.72400991635443"><ele>708.0</ele><time>2026-03-22T12:57:31Z</time></trkpt><trkpt lat="42.29351415750869" lon="12.723936328711734"><ele>705.5</ele><time>2026-03-22T12:57:32Z</time></trkpt><trkpt lat="42.29357350787747" lon="12.723865802214846"><ele>703.0</ele><time>2026-03-22T12:57:33Z</time></trkpt><trkpt lat="42.293633061096465" lon="12.723785207727524"><ele>700.5</ele><time>2026-03-22T12:57:34Z</time></trkpt><trkpt lat="42.29370658325974" lon="12.723715955298163"><ele>698.0</ele><time>2026-03-22T12:57:35Z</time></trkpt><trkpt lat="42.29378913821574" lon="12.723636215693611"><ele>696.0</ele><time>2026-03-22T12:57:36Z</time></trkpt><trkpt lat="42.29385573894124" lon="12.723555119325718"><ele>694.0</ele><time>2026-03-22T12:57:36.999Z</time></trkpt><trkpt lat="42.293939212108555" lon="12.723488270387707"><ele>692.0</ele><time>2026-03-22T12:57:37.999Z</time></trkpt><trkpt lat="42.29403057824357" lon="12.723450055635322"><ele>690.0</ele><time>2026-03-22T12:57:38.999Z</time></trkpt><trkpt lat="42.294116003088426" lon="12.72342915453673"><ele>688.0</ele><time>2026-03-22T12:57:39.999Z</time></trkpt><trkpt lat="42.294196077771275" lon="12.723438490264064"><ele>686.0</ele><time>2026-03-22T12:57:40.999Z</time></trkpt><trkpt lat="42.29427690819797" lon="12.723412948118545"><ele>686.0</ele><time>2026-03-22T12:57:41.999Z</time></trkpt><trkpt lat="42.2943526626884" lon="12.723375804402405"><ele>686.0</ele><time>2026-03-22T12:57:42.999Z</time></trkpt><trkpt lat="42.2944600312531" lon="12.723313518641248"><ele>686.0</ele><time>2026-03-22T12:57:44.999Z</time></trkpt><trkpt lat="42.29453304438137" lon="12.723256868333447"><ele>686.0</ele><time>2026-03-22T12:57:46.999Z</time></trkpt><trkpt lat="42.29460820787863" lon="12.723201420473567"><ele>686.0</ele><time>2026-03-22T12:57:48.999Z</time></trkpt><trkpt lat="42.294632071345674" lon="12.723120656758669"><ele>686.0</ele><time>2026-03-22T12:57:50.999Z</time></trkpt><trkpt lat="42.29464955371958" lon="12.723033236616025"><ele>686.0</ele><time>2026-03-22T12:57:52.999Z</time></trkpt><trkpt lat="42.2946861536307" lon="12.722961211030382"><ele>686.0</ele><time>2026-03-22T12:57:56.999Z</time></trkpt><trkpt lat="42.294749091243794" lon="12.722966047101144"><ele>686.0</ele><time>2026-03-22T12:58:07.999Z</time></trkpt><trkpt lat="42.29481666908053" lon="12.723000969376777"><ele>686.0</ele><time>2026-03-22T12:58:08.999Z</time></trkpt><trkpt lat="42.294904071374674" lon="12.723044019677067"><ele>686.0</ele><time>2026-03-22T12:58:09.999Z</time></trkpt><trkpt lat="42.29498858591744" lon="12.723103046667822"><ele>686.0</ele><time>2026-03-22T12:58:10.999Z</time></trkpt><trkpt lat="42.295084107397976" lon="12.723156569286928"><ele>686.0</ele><time>2026-03-22T12:58:11.999Z</time></trkpt><trkpt lat="42.29519207052306" lon="12.723212575485295"><ele>686.0</ele><time>2026-03-22T12:58:12.999Z</time></trkpt><trkpt lat="42.29528600964908" lon="12.723238777039194"><ele>686.0</ele><time>2026-03-22T12:58:13.999Z</time></trkpt><trkpt lat="42.29539769849778" lon="12.723222921122096"><ele>686.0</ele><time>2026-03-22T12:58:14.999Z</time></trkpt><trkpt lat="42.29549710289294" lon="12.723191207237102"><ele>686.0</ele><time>2026-03-22T12:58:15.999Z</time></trkpt><trkpt lat="42.29560111624607" lon="12.72316652408125"><ele>686.75</ele><time>2026-03-22T12:58:16.999Z</time></trkpt><trkpt lat="42.29571170155393" lon="12.723155530904211"><ele>687.5</ele><time>2026-03-22T12:58:17.999Z</time></trkpt><trkpt lat="42.29583941144127" lon="12.723143893431276"><ele>688.25</ele><time>2026-03-22T12:58:18.999Z</time></trkpt><trkpt lat="42.295969676584946" lon="12.723155120765112"><ele>689.0</ele><time>2026-03-22T12:58:19.999Z</time></trkpt><trkpt lat="42.296066952532385" lon="12.723178148516142"><ele>689.0</ele><time>2026-03-22T12:58:20.999Z</time></trkpt><trkpt lat="42.2961578558108" lon="12.723203827736949"><ele>689.0</ele><time>2026-03-22T12:58:22Z</time></trkpt><trkpt lat="42.296269208495836" lon="12.723242927093438"><ele>689.0</ele><time>2026-03-22T12:58:23Z</time></trkpt><trkpt lat="42.296368516928894" lon="12.723294641282868"><ele>689.0</ele><time>2026-03-22T12:58:24Z</time></trkpt><trkpt lat="42.29644562594716" lon="12.723379597961927"><ele>689.0</ele><time>2026-03-22T12:58:25Z</time></trkpt><trkpt lat="42.29653261053218" lon="12.72345453188815"><ele>690.4000000000001</ele><time>2026-03-22T12:58:26Z</time></trkpt><trkpt lat="42.29660897163269" lon="12.723492040653884"><ele>691.8</ele><time>2026-03-22T12:58:27Z</time></trkpt><trkpt lat="42.296738465591815" lon="12.723485506273958"><ele>693.2</ele><time>2026-03-22T12:58:29Z</time></trkpt><trkpt lat="42.296835966965034" lon="12.723447774856833"><ele>694.5999999999999</ele><time>2026-03-22T12:58:30Z</time></trkpt><trkpt lat="42.29693279802803" lon="12.723446399086566"><ele>696.0</ele><time>2026-03-22T12:58:31Z</time></trkpt><trkpt lat="42.297020012047774" lon="12.72340220673407"><ele>696.0</ele><time>2026-03-22T12:58:32Z</time></trkpt><trkpt lat="42.29708126522301" lon="12.723341480408141"><ele>696.0</ele><time>2026-03-22T12:58:33Z</time></trkpt><trkpt lat="42.29717107287789" lon="12.723331453055081"><ele>696.0</ele><time>2026-03-22T12:58:34Z</time></trkpt><trkpt lat="42.29724485244793" lon="12.723369950426537"><ele>696.0</ele><time>2026-03-22T12:58:35Z</time></trkpt><trkpt lat="42.29731746322023" lon="12.723390498752316"><ele>696.0</ele><time>2026-03-22T12:58:36Z</time></trkpt><trkpt lat="42.29742269476427" lon="12.72340864386959"><ele>696.0</ele><time>2026-03-22T12:58:37Z</time></trkpt><trkpt lat="42.29752316133276" lon="12.723410936341187"><ele>697.75</ele><time>2026-03-22T12:58:38Z</time></trkpt><trkpt lat="42.297652952015994" lon="12.723390185785801"><ele>699.5</ele><time>2026-03-22T12:58:39Z</time></trkpt><trkpt lat="42.29779000809638" lon="12.723386572739518"><ele>701.25</ele><time>2026-03-22T12:58:40Z</time></trkpt><trkpt lat="42.29792991361738" lon="12.723355364351493"><ele>703.0</ele><time>2026-03-22T12:58:41Z</time></trkpt><trkpt lat="42.298043030217855" lon="12.723307398231508"><ele>704.0</ele><time>2026-03-22T12:58:42Z</time></trkpt><trkpt lat="42.29815462883422" lon="12.723247719232146"><ele>705.0</ele><time>2026-03-22T12:58:43Z</time></trkpt><trkpt lat="42.29824808111994" lon="12.723164962364903"><ele>706.0</ele><time>2026-03-22T12:58:44Z</time></trkpt><trkpt lat="42.29834695711716" lon="12.723075995393115"><ele>707.0</ele><time>2026-03-22T12:58:45Z</time></trkpt><trkpt lat="42.298435996391525" lon="12.723023890179352"><ele>708.0</ele><time>2026-03-22T12:58:46Z</time></trkpt><trkpt lat="42.298509441290015" lon="12.722986834811245"><ele>708.0</ele><time>2026-03-22T12:58:47Z</time></trkpt><trkpt lat="42.29856979533315" lon="12.722959081935091"><ele>708.0</ele><time>2026-03-22T12:58:48Z</time></trkpt><trkpt lat="42.29864647304121" lon="12.722927445301373"><ele>708.0</ele><time>2026-03-22T12:58:50Z</time></trkpt><trkpt lat="42.298705667312106" lon="12.722958336441852"><ele>708.0</ele><time>2026-03-22T12:58:54Z</time></trkpt><trkpt lat="42.298785789525446" lon="12.722958159301816"><ele>708.0</ele><time>2026-03-22T12:58:57Z</time></trkpt><trkpt lat="42.298880181154956" lon="12.723000461734063"><ele>708.0</ele><time>2026-03-22T12:58:59Z</time></trkpt><trkpt lat="42.29893472706595" lon="12.723045190931837"><ele>709.6666666666666</ele><time>2026-03-22T12:59:00Z</time></trkpt><trkpt lat="42.298993641650654" lon="12.723115895754416"><ele>711.3333333333334</ele><time>2026-03-22T12:59:01Z</time></trkpt><trkpt lat="42.29905297629853" lon="12.723207191893575"><ele>713.0</ele><time>2026-03-22T12:59:02Z</time></trkpt><trkpt lat="42.29910224901192" lon="12.723290678691372"><ele>714.6666666666667</ele><time>2026-03-22T12:59:03Z</time></trkpt><trkpt lat="42.2991761626363" lon="12.723372149756761"><ele>716.3333333333334</ele><time>2026-03-22T12:59:04Z</time></trkpt><trkpt lat="42.29924638617678" lon="12.723475668982424"><ele>718.0</ele><time>2026-03-22T12:59:05Z</time></trkpt><trkpt lat="42.299311817055646" lon="12.723575507140893"><ele>718.0</ele><time>2026-03-22T12:59:06Z</time></trkpt><trkpt lat="42.29936225962005" lon="12.723670116247511"><ele>718.0</ele><time>2026-03-22T12:59:07Z</time></trkpt><trkpt lat="42.29942810659648" lon="12.723762448557338"><ele>718.0</ele><time>2026-03-22T12:59:08Z</time></trkpt><trkpt lat="42.299498019095836" lon="12.723817991933387"><ele>718.0</ele><time>2026-03-22T12:59:09Z</time></trkpt><trkpt lat="42.29959979221115" lon="12.723782913460216"><ele>718.0</ele><time>2026-03-22T12:59:11Z</time></trkpt><trkpt lat="42.29965502970485" lon="12.723723034778258"><ele>718.0</ele><time>2026-03-22T12:59:12Z</time></trkpt><trkpt lat="42.299700095856444" lon="12.723659314698196"><ele>717.1666666666667</ele><time>2026-03-22T12:59:13Z</time></trkpt><trkpt lat="42.29975471356082" lon="12.723575532269333"><ele>716.3333333333334</ele><time>2026-03-22T12:59:15Z</time></trkpt><trkpt lat="42.299815405826195" lon="12.723491104390835"><ele>715.5</ele><time>2026-03-22T12:59:17Z</time></trkpt><trkpt lat="42.29989962672108" lon="12.723486901459014"><ele>714.6666666666666</ele><time>2026-03-22T12:59:20Z</time></trkpt><trkpt lat="42.29996912638188" lon="12.72348319555137"><ele>713.8333333333333</ele><time>2026-03-22T12:59:25Z</time></trkpt><trkpt lat="42.30005016418709" lon="12.72346897281295"><ele>713.0</ele><time>2026-03-22T12:59:33.999Z</time></trkpt><trkpt lat="42.300109809882514" lon="12.723534214671618"><ele>713.0</ele><time>2026-03-22T12:59:38.999Z</time></trkpt><trkpt lat="42.30015089611581" lon="12.723642275202227"><ele>713.0</ele><time>2026-03-22T12:59:40.999Z</time></trkpt><trkpt lat="42.30017793004781" lon="12.723727016181497"><ele>713.0</ele><time>2026-03-22T12:59:41.999Z</time></trkpt><trkpt lat="42.300245264179395" lon="12.723790822730145"><ele>713.0</ele><time>2026-03-22T12:59:43.999Z</time></trkpt><trkpt lat="42.30032043053747" lon="12.7239036957692"><ele>713.0</ele><time>2026-03-22T13:00:06.999Z</time></trkpt><trkpt lat="42.3004085948956" lon="12.7239737429159"><ele>713.0</ele><time>2026-03-22T13:00:41Z</time></trkpt><trkpt lat="42.300471273493805" lon="12.723947828726653"><ele>713.0</ele><time>2026-03-22T13:01:39.999Z</time></trkpt><trkpt lat="42.30054281295383" lon="12.72397133075623"><ele>713.0</ele><time>2026-03-22T13:01:44.999Z</time></trkpt><trkpt lat="42.300641732871476" lon="12.724002682618794"><ele>713.0</ele><time>2026-03-22T13:01:45.999Z</time></trkpt><trkpt lat="42.30070903171022" lon="12.724025437393687"><ele>713.0</ele><time>2026-03-22T13:01:46.999Z</time></trkpt><trkpt lat="42.30077430002046" lon="12.72405236634557"><ele>713.0</ele><time>2026-03-22T13:01:47.999Z</time></trkpt><trkpt lat="42.30088996155452" lon="12.724060083062396"><ele>713.5999999999999</ele><time>2026-03-22T13:01:49.999Z</time></trkpt><trkpt lat="42.30098459403102" lon="12.724053443660464"><ele>714.1999999999999</ele><time>2026-03-22T13:01:50.999Z</time></trkpt><trkpt lat="42.30110023605722" lon="12.724037364179493"><ele>714.8</ele><time>2026-03-22T13:01:51.999Z</time></trkpt><trkpt lat="42.301221410790035" lon="12.724021264120568"><ele>715.4</ele><time>2026-03-22T13:01:52.999Z</time></trkpt><trkpt lat="42.3013035021996" lon="12.72401096064962"><ele>716.0</ele><time>2026-03-22T13:01:53.999Z</time></trkpt><trkpt lat="42.30137367038087" lon="12.72402149591056"><ele>716.3333333333333</ele><time>2026-03-22T13:01:54.999Z</time></trkpt><trkpt lat="42.301465991213924" lon="12.724013201983576"><ele>716.6666666666666</ele><time>2026-03-22T13:01:56.999Z</time></trkpt><trkpt lat="42.3015658595395" lon="12.72401222626847"><ele>717.0</ele><time>2026-03-22T13:01:58.999Z</time></trkpt><trkpt lat="42.30162747240598" lon="12.724030699048637"><ele>717.3333333333334</ele><time>2026-03-22T13:01:59.999Z</time></trkpt><trkpt lat="42.30172706398397" lon="12.724110082598493"><ele>717.6666666666667</ele><time>2026-03-22T13:02:01.999Z</time></trkpt><trkpt lat="42.30177049989803" lon="12.724177239123861"><ele>718.0</ele><time>2026-03-22T13:02:02.999Z</time></trkpt><trkpt lat="42.301816816121935" lon="12.724244804222735"><ele>718.0</ele><time>2026-03-22T13:02:03.999Z</time></trkpt><trkpt lat="42.30189155834008" lon="12.724290097082783"><ele>718.0</ele><time>2026-03-22T13:02:04.999Z</time></trkpt><trkpt lat="42.301974085608336" lon="12.724299139442515"><ele>718.0</ele><time>2026-03-22T13:02:05.999Z</time></trkpt><trkpt lat="42.30206351039995" lon="12.72427569036394"><ele>718.0</ele><time>2026-03-22T13:02:06.999Z</time></trkpt><trkpt lat="42.30213478621674" lon="12.724238463450817"><ele>718.0</ele><time>2026-03-22T13:02:07.999Z</time></trkpt><trkpt lat="42.30221564874183" lon="12.724193043711653"><ele>718.0</ele><time>2026-03-22T13:02:09.999Z</time></trkpt><trkpt lat="42.30232562118283" lon="12.724179491504525"><ele>716.5999999999999</ele><time>2026-03-22T13:02:11.999Z</time></trkpt><trkpt lat="42.302390763491765" lon="12.724192405097654"><ele>715.1999999999999</ele><time>2026-03-22T13:02:12.999Z</time></trkpt><trkpt lat="42.30246592693125" lon="12.724277087969964"><ele>713.8</ele><time>2026-03-22T13:02:15.999Z</time></trkpt><trkpt lat="42.30254109132549" lon="12.724348884329824"><ele>712.4</ele><time>2026-03-22T13:02:17.999Z</time></trkpt><trkpt lat="42.30260653206029" lon="12.724496728805107"><ele>711.0</ele><time>2026-03-22T13:02:18.999Z</time></trkpt><trkpt lat="42.3026823145932" lon="12.724550806919241"><ele>711.1666666666666</ele><time>2026-03-22T13:02:19.999Z</time></trkpt><trkpt lat="42.30278530829701" lon="12.724585946453082"><ele>711.3333333333334</ele><time>2026-03-22T13:02:21.999Z</time></trkpt><trkpt lat="42.30284918497583" lon="12.724621891364057"><ele>711.5</ele><time>2026-03-22T13:02:24.999Z</time></trkpt><trkpt lat="42.302929680157476" lon="12.724679879329136"><ele>711.6666666666667</ele><time>2026-03-22T13:02:26.999Z</time></trkpt><trkpt lat="42.30299828150286" lon="12.724647881559303"><ele>711.8333333333334</ele><time>2026-03-22T13:02:27.999Z</time></trkpt><trkpt lat="42.30306389299108" lon="12.72462722931439"><ele>712.0</ele><time>2026-03-22T13:02:28.999Z</time></trkpt><trkpt lat="42.303126638217705" lon="12.724573559174564"><ele>712.0</ele><time>2026-03-22T13:02:30.999Z</time></trkpt><trkpt lat="42.3032179803015" lon="12.72459967206294"><ele>712.0</ele><time>2026-03-22T13:02:34Z</time></trkpt><trkpt lat="42.30331808123608" lon="12.724616101389485"><ele>712.0</ele><time>2026-03-22T13:02:38Z</time></trkpt><trkpt lat="42.30334503911127" lon="12.724710751231793"><ele>712.0</ele><time>2026-03-22T13:02:48Z</time></trkpt><trkpt lat="42.30336938610828" lon="12.724814504966913"><ele>712.0</ele><time>2026-03-22T13:02:52Z</time></trkpt><trkpt lat="42.303390310113194" lon="12.724923899887646"><ele>712.0</ele><time>2026-03-22T13:02:55Z</time></trkpt><trkpt lat="42.30342714452799" lon="12.725031475997774"><ele>712.0</ele><time>2026-03-22T13:02:58Z</time></trkpt><trkpt lat="42.30339934988308" lon="12.7251173463466"><ele>712.0</ele><time>2026-03-22T13:03:01Z</time></trkpt><trkpt lat="42.30343799736303" lon="12.725197055828513"><ele>712.0</ele><time>2026-03-22T13:03:02Z</time></trkpt><trkpt lat="42.3034597919913" lon="12.72532918341956"><ele>712.0</ele><time>2026-03-22T13:03:05Z</time></trkpt><trkpt lat="42.303527088033036" lon="12.725484571309332"><ele>712.0</ele><time>2026-03-22T13:03:07Z</time></trkpt><trkpt lat="42.303575693263404" lon="12.725574533392383"><ele>713.1428571428571</ele><time>2026-03-22T13:03:09Z</time></trkpt><trkpt lat="42.30361209267421" lon="12.725699947574153"><ele>714.2857142857142</ele><time>2026-03-22T13:03:11Z</time></trkpt><trkpt lat="42.30363705870786" lon="12.725805896614244"><ele>715.4285714285713</ele><time>2026-03-22T13:03:13Z</time></trkpt><trkpt lat="42.3036890024242" lon="12.725863031694368"><ele>716.5714285714286</ele><time>2026-03-22T13:03:17Z</time></trkpt><trkpt lat="42.303744474024576" lon="12.725904194651097"><ele>717.7142857142858</ele><time>2026-03-22T13:03:21Z</time></trkpt><trkpt lat="42.3037936340735" lon="12.725963139775391"><ele>718.8571428571428</ele><time>2026-03-22T13:03:24Z</time></trkpt><trkpt lat="42.303814738116316" lon="12.726044967394799"><ele>720.0</ele><time>2026-03-22T13:03:38.999Z</time></trkpt><trkpt lat="42.30380306490392" lon="12.726142405285987"><ele>720.0</ele><time>2026-03-22T13:03:54.999Z</time></trkpt><trkpt lat="42.30381631873732" lon="12.726251011693792"><ele>720.0</ele><time>2026-03-22T13:03:56.999Z</time></trkpt><trkpt lat="42.303820674791304" lon="12.72639501182273"><ele>720.0</ele><time>2026-03-22T13:03:58.999Z</time></trkpt><trkpt lat="42.30377441414938" lon="12.726551991108089"><ele>720.0</ele><time>2026-03-22T13:04:00.999Z</time></trkpt><trkpt lat="42.30367767348834" lon="12.726600778285327"><ele>720.0</ele><time>2026-03-22T13:04:01.999Z</time></trkpt><trkpt lat="42.303633600279525" lon="12.726706307636851"><ele>720.0</ele><time>2026-03-22T13:04:02.999Z</time></trkpt><trkpt lat="42.30359660805556" lon="12.726841720006941"><ele>720.0</ele><time>2026-03-22T13:04:03.999Z</time></trkpt><trkpt lat="42.30359514700951" lon="12.727026170503002"><ele>720.0</ele><time>2026-03-22T13:04:04.999Z</time></trkpt><trkpt lat="42.303613780812" lon="12.727175326954304"><ele>720.0</ele><time>2026-03-22T13:04:05.999Z</time></trkpt><trkpt lat="42.30364317481738" lon="12.727383888702546"><ele>717.5</ele><time>2026-03-22T13:04:06.999Z</time></trkpt><trkpt lat="42.303661327796036" lon="12.727554969778723"><ele>715.0</ele><time>2026-03-22T13:04:07.999Z</time></trkpt><trkpt lat="42.3036615363316" lon="12.727731805762755"><ele>712.5</ele><time>2026-03-22T13:04:08.999Z</time></trkpt><trkpt lat="42.3036538844277" lon="12.727912310553247"><ele>710.0</ele><time>2026-03-22T13:04:09.999Z</time></trkpt><trkpt lat="42.303640566226264" lon="12.72809886068762"><ele>706.3333333333333</ele><time>2026-03-22T13:04:10.999Z</time></trkpt><trkpt lat="42.30361037411685" lon="12.728293005078472"><ele>702.6666666666666</ele><time>2026-03-22T13:04:11.999Z</time></trkpt><trkpt lat="42.303561436224335" lon="12.728485979213017"><ele>699.0</ele><time>2026-03-22T13:04:12.999Z</time></trkpt><trkpt lat="42.3035028601715" lon="12.728707569772403"><ele>695.75</ele><time>2026-03-22T13:04:13.999Z</time></trkpt><trkpt lat="42.30345574416428" lon="12.728867055601377"><ele>692.5</ele><time>2026-03-22T13:04:14.999Z</time></trkpt><trkpt lat="42.30340048842159" lon="12.72900867327423"><ele>689.25</ele><time>2026-03-22T13:04:15.999Z</time></trkpt><trkpt lat="42.303342563310494" lon="12.729150619771367"><ele>686.0</ele><time>2026-03-22T13:04:16.999Z</time></trkpt><trkpt lat="42.30328985448102" lon="12.729277652228193"><ele>683.25</ele><time>2026-03-22T13:04:17.999Z</time></trkpt><trkpt lat="42.303240621906085" lon="12.729412682490347"><ele>680.5</ele><time>2026-03-22T13:04:18.999Z</time></trkpt><trkpt lat="42.30321474493222" lon="12.729595309559594"><ele>677.75</ele><time>2026-03-22T13:04:19.999Z</time></trkpt><trkpt lat="42.30323851680883" lon="12.729792629982029"><ele>675.0</ele><time>2026-03-22T13:04:20.999Z</time></trkpt><trkpt lat="42.30323479869192" lon="12.729962076076747"><ele>675.0</ele><time>2026-03-22T13:04:21.999Z</time></trkpt><trkpt lat="42.30322627362689" lon="12.730147960580119"><ele>675.0</ele><time>2026-03-22T13:04:22.999Z</time></trkpt><trkpt lat="42.30321456378236" lon="12.730323218172897"><ele>675.0</ele><time>2026-03-22T13:04:23.999Z</time></trkpt><trkpt lat="42.30319068282914" lon="12.730504628257522"><ele>675.0</ele><time>2026-03-22T13:04:24.999Z</time></trkpt><trkpt lat="42.30316569410345" lon="12.730680045387462"><ele>673.5</ele><time>2026-03-22T13:04:25.999Z</time></trkpt><trkpt lat="42.303147915819714" lon="12.730836114421807"><ele>672.0</ele><time>2026-03-22T13:04:26.999Z</time></trkpt><trkpt lat="42.303117805445545" lon="12.73099214743184"><ele>670.5</ele><time>2026-03-22T13:04:27.999Z</time></trkpt><trkpt lat="42.30307737010188" lon="12.731127485959652"><ele>669.0</ele><time>2026-03-22T13:04:28.999Z</time></trkpt><trkpt lat="42.30301965769178" lon="12.731275803015011"><ele>674.75</ele><time>2026-03-22T13:04:29.999Z</time></trkpt><trkpt lat="42.30296281751195" lon="12.731429433114284"><ele>680.5</ele><time>2026-03-22T13:04:30.999Z</time></trkpt><trkpt lat="42.30291520595761" lon="12.73158267206713"><ele>686.25</ele><time>2026-03-22T13:04:31.999Z</time></trkpt><trkpt lat="42.302873244705616" lon="12.731747134869652"><ele>692.0</ele><time>2026-03-22T13:04:32.999Z</time></trkpt><trkpt lat="42.302852401999466" lon="12.731959087168732"><ele>692.0</ele><time>2026-03-22T13:04:33.999Z</time></trkpt><trkpt lat="42.30286025809775" lon="12.732166642717305"><ele>692.0</ele><time>2026-03-22T13:04:34.999Z</time></trkpt><trkpt lat="42.30285202943149" lon="12.732303145464256"><ele>692.0</ele><time>2026-03-22T13:04:35.999Z</time></trkpt><trkpt lat="42.30284770752826" lon="12.732477951954994"><ele>692.0</ele><time>2026-03-22T13:04:36.999Z</time></trkpt><trkpt lat="42.30289010217499" lon="12.732661284893696"><ele>696.3333333333333</ele><time>2026-03-22T13:04:37.999Z</time></trkpt><trkpt lat="42.30294182624499" lon="12.732821396586566"><ele>700.6666666666666</ele><time>2026-03-22T13:04:39Z</time></trkpt><trkpt lat="42.303055381724846" lon="12.733003811940405"><ele>705.0</ele><time>2026-03-22T13:04:40Z</time></trkpt><trkpt lat="42.30318664850369" lon="12.733136830942884"><ele>696.5</ele><time>2026-03-22T13:04:41Z</time></trkpt><trkpt lat="42.30331407432601" lon="12.733272556063667"><ele>688.0</ele><time>2026-03-22T13:04:42Z</time></trkpt><trkpt lat="42.30343037502208" lon="12.733396431946247"><ele>679.5</ele><time>2026-03-22T13:04:43Z</time></trkpt><trkpt lat="42.303511644908106" lon="12.733482995312785"><ele>671.0</ele><time>2026-03-22T13:04:44Z</time></trkpt><trkpt lat="42.30359827155712" lon="12.733569027218543"><ele>671.0</ele><time>2026-03-22T13:04:45Z</time></trkpt><trkpt lat="42.30363811340385" lon="12.733736485915001"><ele>671.0</ele><time>2026-03-22T13:04:46Z</time></trkpt><trkpt lat="42.30366025525431" lon="12.733895601084972"><ele>671.0</ele><time>2026-03-22T13:04:47Z</time></trkpt><trkpt lat="42.30369369504443" lon="12.73404308424185"><ele>671.0</ele><time>2026-03-22T13:04:48Z</time></trkpt><trkpt lat="42.30368720111569" lon="12.734150536498332"><ele>671.0</ele><time>2026-03-22T13:04:49Z</time></trkpt><trkpt lat="42.30367554138491" lon="12.734242597457763"><ele>671.0</ele><time>2026-03-22T13:04:50Z</time></trkpt><trkpt lat="42.3036456066052" lon="12.734326738529612"><ele>671.0</ele><time>2026-03-22T13:04:51Z</time></trkpt><trkpt lat="42.3036020371122" lon="12.734411198455826"><ele>671.0</ele><time>2026-03-22T13:04:52Z</time></trkpt><trkpt lat="42.303607309057746" lon="12.734542380714478"><ele>671.0</ele><time>2026-03-22T13:04:54Z</time></trkpt><trkpt lat="42.30358131726464" lon="12.734681368641196"><ele>671.0</ele><time>2026-03-22T13:04:56Z</time></trkpt><trkpt lat="42.30350132956911" lon="12.734802842272433"><ele>671.0</ele><time>2026-03-22T13:04:58Z</time></trkpt><trkpt lat="42.303460475586036" lon="12.734879519261167"><ele>671.0</ele><time>2026-03-22T13:05:00Z</time></trkpt><trkpt lat="42.30342120622544" lon="12.734981948018417"><ele>671.0</ele><time>2026-03-22T13:05:02Z</time></trkpt><trkpt lat="42.303343100735916" lon="12.735134463971852"><ele>671.0</ele><time>2026-03-22T13:05:04Z</time></trkpt><trkpt lat="42.3033105129063" lon="12.735215883559968"><ele>671.0</ele><time>2026-03-22T13:05:05Z</time></trkpt><trkpt lat="42.3032837045992" lon="12.735336249299845"><ele>671.0</ele><time>2026-03-22T13:05:06Z</time></trkpt><trkpt lat="42.30325877891432" lon="12.735478412292181"><ele>671.0</ele><time>2026-03-22T13:05:07Z</time></trkpt><trkpt lat="42.303258149339364" lon="12.735603637267907"><ele>671.0</ele><time>2026-03-22T13:05:08Z</time></trkpt><trkpt lat="42.30327285809825" lon="12.735708033038353"><ele>671.0</ele><time>2026-03-22T13:05:09Z</time></trkpt><trkpt lat="42.30330972710959" lon="12.735803034692207"><ele>671.0</ele><time>2026-03-22T13:05:10Z</time></trkpt><trkpt lat="42.303355734989445" lon="12.735882061897264"><ele>671.0</ele><time>2026-03-22T13:05:11Z</time></trkpt><trkpt lat="42.30344720184282" lon="12.735905897084828"><ele>671.0</ele><time>2026-03-22T13:05:13Z</time></trkpt><trkpt lat="42.30349375231098" lon="12.735842702066641"><ele>671.0</ele><time>2026-03-22T13:05:15Z</time></trkpt><trkpt lat="42.30351292732217" lon="12.735746554674572"><ele>671.0</ele><time>2026-03-22T13:05:16Z</time></trkpt><trkpt lat="42.30350827209068" lon="12.735625527865603"><ele>671.0</ele><time>2026-03-22T13:05:17Z</time></trkpt><trkpt lat="42.3035210154577" lon="12.7355040384993"><ele>671.0</ele><time>2026-03-22T13:05:18Z</time></trkpt><trkpt lat="42.30357499962629" lon="12.735417170717431"><ele>671.0</ele><time>2026-03-22T13:05:20Z</time></trkpt><trkpt lat="42.30365626253814" lon="12.735488231757245"><ele>671.0</ele><time>2026-03-22T13:05:22Z</time></trkpt><trkpt lat="42.303669512591554" lon="12.735651368664696"><ele>671.0</ele><time>2026-03-22T13:05:24Z</time></trkpt><trkpt lat="42.30368018067024" lon="12.735776790087373"><ele>671.0</ele><time>2026-03-22T13:05:25Z</time></trkpt><trkpt lat="42.303709542122036" lon="12.73590907469343"><ele>671.0</ele><time>2026-03-22T13:05:26Z</time></trkpt><trkpt lat="42.303762268328406" lon="12.736011175796213"><ele>671.0</ele><time>2026-03-22T13:05:27Z</time></trkpt><trkpt lat="42.3037352535955" lon="12.736100300023894"><ele>672.1999999999999</ele><time>2026-03-22T13:05:28Z</time></trkpt><trkpt lat="42.30360676439456" lon="12.736212986900542"><ele>673.4</ele><time>2026-03-22T13:05:30Z</time></trkpt><trkpt lat="42.303537328711634" lon="12.736290150306807"><ele>674.6</ele><time>2026-03-22T13:05:31Z</time></trkpt><trkpt lat="42.303491243154056" lon="12.736398217478309"><ele>675.8</ele><time>2026-03-22T13:05:32Z</time></trkpt><trkpt lat="42.30347335649005" lon="12.736533721806426"><ele>677.0</ele><time>2026-03-22T13:05:33Z</time></trkpt><trkpt lat="42.30345528923547" lon="12.736681331084165"><ele>677.0</ele><time>2026-03-22T13:05:34Z</time></trkpt><trkpt lat="42.303416430343226" lon="12.736850728121134"><ele>677.0</ele><time>2026-03-22T13:05:35Z</time></trkpt><trkpt lat="42.303366615334475" lon="12.737037168716357"><ele>677.0</ele><time>2026-03-22T13:05:36Z</time></trkpt><trkpt lat="42.303312229036784" lon="12.737245905260316"><ele>677.0</ele><time>2026-03-22T13:05:37Z</time></trkpt><trkpt lat="42.303263391681725" lon="12.737465298993072"><ele>684.3333333333333</ele><time>2026-03-22T13:05:38Z</time></trkpt><trkpt lat="42.30321596228074" lon="12.737694881833278"><ele>691.6666666666666</ele><time>2026-03-22T13:05:38.999Z</time></trkpt><trkpt lat="42.303175091484334" lon="12.737919558231404"><ele>699.0</ele><time>2026-03-22T13:05:39.999Z</time></trkpt><trkpt lat="42.303133115466196" lon="12.738123943591168"><ele>696.6666666666666</ele><time>2026-03-22T13:05:40.999Z</time></trkpt><trkpt lat="42.30309426747632" lon="12.73834205507279"><ele>694.3333333333333</ele><time>2026-03-22T13:05:41.999Z</time></trkpt><trkpt lat="42.30306436822886" lon="12.738559836881043"><ele>692.0</ele><time>2026-03-22T13:05:42.999Z</time></trkpt><trkpt lat="42.303037804895425" lon="12.738772063126428"><ele>692.0</ele><time>2026-03-22T13:05:43.999Z</time></trkpt><trkpt lat="42.303010024182576" lon="12.738979512178837"><ele>692.0</ele><time>2026-03-22T13:05:44.999Z</time></trkpt><trkpt lat="42.30298631401601" lon="12.739164966405482"><ele>692.0</ele><time>2026-03-22T13:05:45.999Z</time></trkpt><trkpt lat="42.302985336176185" lon="12.739321708509104"><ele>692.0</ele><time>2026-03-22T13:05:46.999Z</time></trkpt><trkpt lat="42.3030126616873" lon="12.739463588473269"><ele>692.75</ele><time>2026-03-22T13:05:47.999Z</time></trkpt><trkpt lat="42.30305472306745" lon="12.739615479594937"><ele>693.5</ele><time>2026-03-22T13:05:48.999Z</time></trkpt><trkpt lat="42.303110338838984" lon="12.739767644281185"><ele>694.25</ele><time>2026-03-22T13:05:49.999Z</time></trkpt><trkpt lat="42.303182110366826" lon="12.739908407006508"><ele>695.0</ele><time>2026-03-22T13:05:50.999Z</time></trkpt><trkpt lat="42.30325799678715" lon="12.740055391180345"><ele>701.0</ele><time>2026-03-22T13:05:51.999Z</time></trkpt><trkpt lat="42.303312170285125" lon="12.74021047746671"><ele>707.0</ele><time>2026-03-22T13:05:52.999Z</time></trkpt><trkpt lat="42.30335469636527" lon="12.740368876471269"><ele>713.0</ele><time>2026-03-22T13:05:53.999Z</time></trkpt><trkpt lat="42.30340386263425" lon="12.74052412625663"><ele>719.0</ele><time>2026-03-22T13:05:54.999Z</time></trkpt><trkpt lat="42.30345935830886" lon="12.740688891876372"><ele>719.8000000000001</ele><time>2026-03-22T13:05:55.999Z</time></trkpt><trkpt lat="42.30351105621245" lon="12.74084723973112"><ele>720.6</ele><time>2026-03-22T13:05:56.999Z</time></trkpt><trkpt lat="42.3035678486671" lon="12.741000126230572"><ele>721.4</ele><time>2026-03-22T13:05:57.999Z</time></trkpt><trkpt lat="42.30360056874009" lon="12.74113100707705"><ele>722.2</ele><time>2026-03-22T13:05:58.999Z</time></trkpt><trkpt lat="42.30361125478404" lon="12.741249262081796"><ele>723.0</ele><time>2026-03-22T13:05:59.999Z</time></trkpt><trkpt lat="42.303604034906584" lon="12.741373168749506"><ele>723.0</ele><time>2026-03-22T13:06:00.999Z</time></trkpt><trkpt lat="42.30359070440008" lon="12.741500717534306"><ele>723.0</ele><time>2026-03-22T13:06:01.999Z</time></trkpt><trkpt lat="42.303602882894076" lon="12.74166586671903"><ele>723.0</ele><time>2026-03-22T13:06:02.999Z</time></trkpt><trkpt lat="42.30364500734616" lon="12.74183871185533"><ele>723.0</ele><time>2026-03-22T13:06:03.999Z</time></trkpt><trkpt lat="42.30370210007786" lon="12.742014463702816"><ele>723.0</ele><time>2026-03-22T13:06:04.999Z</time></trkpt><trkpt lat="42.30377069049426" lon="12.742175570649739"><ele>723.0</ele><time>2026-03-22T13:06:05.999Z</time></trkpt><trkpt lat="42.30386352167492" lon="12.742327953512826"><ele>723.0</ele><time>2026-03-22T13:06:06.999Z</time></trkpt><trkpt lat="42.30397396956147" lon="12.742475575927175"><ele>723.0</ele><time>2026-03-22T13:06:07.999Z</time></trkpt><trkpt lat="42.30409047125587" lon="12.742612834066083"><ele>728.0</ele><time>2026-03-22T13:06:08.999Z</time></trkpt><trkpt lat="42.304204023726385" lon="12.742745482260043"><ele>733.0</ele><time>2026-03-22T13:06:09.999Z</time></trkpt><trkpt lat="42.30429336319758" lon="12.742876067674581"><ele>738.0</ele><time>2026-03-22T13:06:10.999Z</time></trkpt><trkpt lat="42.3043550291309" lon="12.743031595950432"><ele>743.0</ele><time>2026-03-22T13:06:11.999Z</time></trkpt><trkpt lat="42.304387098108315" lon="12.74320609228636"><ele>743.0</ele><time>2026-03-22T13:06:12.999Z</time></trkpt><trkpt lat="42.30440793247751" lon="12.743393685751705"><ele>743.0</ele><time>2026-03-22T13:06:13.999Z</time></trkpt><trkpt lat="42.30445353704863" lon="12.743570655546483"><ele>743.0</ele><time>2026-03-22T13:06:14.999Z</time></trkpt><trkpt lat="42.30452841241995" lon="12.743736976816807"><ele>743.0</ele><time>2026-03-22T13:06:15.999Z</time></trkpt><trkpt lat="42.3046017057797" lon="12.743901463650893"><ele>745.0</ele><time>2026-03-22T13:06:16.999Z</time></trkpt><trkpt lat="42.30465329196957" lon="12.744063652568661"><ele>747.0</ele><time>2026-03-22T13:06:17.999Z</time></trkpt><trkpt lat="42.304673093516705" lon="12.744196034923782"><ele>749.0</ele><time>2026-03-22T13:06:18.999Z</time></trkpt><trkpt lat="42.3046574796896" lon="12.744303896267189"><ele>751.0</ele><time>2026-03-22T13:06:19.999Z</time></trkpt><trkpt lat="42.3046135392614" lon="12.744381403283548"><ele>753.0</ele><time>2026-03-22T13:06:20.999Z</time></trkpt><trkpt lat="42.30454467177465" lon="12.744449384895905"><ele>755.0</ele><time>2026-03-22T13:06:21.999Z</time></trkpt><trkpt lat="42.30445822670475" lon="12.744523805449042"><ele>757.0</ele><time>2026-03-22T13:06:22.999Z</time></trkpt><trkpt lat="42.30437270058403" lon="12.744619253637206"><ele>759.0</ele><time>2026-03-22T13:06:23.999Z</time></trkpt><trkpt lat="42.30430110387771" lon="12.744736131603299"><ele>761.0</ele><time>2026-03-22T13:06:24.999Z</time></trkpt><trkpt lat="42.30423894291658" lon="12.744861864073057"><ele>763.0</ele><time>2026-03-22T13:06:25.999Z</time></trkpt><trkpt lat="42.30419014124404" lon="12.74498916760766"><ele>763.0</ele><time>2026-03-22T13:06:26.999Z</time></trkpt><trkpt lat="42.30416394115091" lon="12.745120764309608"><ele>763.0</ele><time>2026-03-22T13:06:27.999Z</time></trkpt><trkpt lat="42.30416078649119" lon="12.745249232720736"><ele>763.0</ele><time>2026-03-22T13:06:28.999Z</time></trkpt><trkpt lat="42.30418421822823" lon="12.745389677357267"><ele>763.0</ele><time>2026-03-22T13:06:29.999Z</time></trkpt><trkpt lat="42.30423094848597" lon="12.745541758143462"><ele>763.0</ele><time>2026-03-22T13:06:30.999Z</time></trkpt><trkpt lat="42.30429721345184" lon="12.745696354550361"><ele>763.0</ele><time>2026-03-22T13:06:31.999Z</time></trkpt><trkpt lat="42.304378112454415" lon="12.745846959127956"><ele>763.0</ele><time>2026-03-22T13:06:32.999Z</time></trkpt><trkpt lat="42.304473789496264" lon="12.745992175440028"><ele>763.0</ele><time>2026-03-22T13:06:33.999Z</time></trkpt><trkpt lat="42.304577451943906" lon="12.746143312128297"><ele>763.0</ele><time>2026-03-22T13:06:34.999Z</time></trkpt><trkpt lat="42.304676826387336" lon="12.746317753411109"><ele>766.25</ele><time>2026-03-22T13:06:35.999Z</time></trkpt><trkpt lat="42.304774703514006" lon="12.746496130501027"><ele>769.5</ele><time>2026-03-22T13:06:36.999Z</time></trkpt><trkpt lat="42.304868064465914" lon="12.746658310249343"><ele>772.75</ele><time>2026-03-22T13:06:37.999Z</time></trkpt><trkpt lat="42.30493983197644" lon="12.746802181373276"><ele>776.0</ele><time>2026-03-22T13:06:38.999Z</time></trkpt><trkpt lat="42.304978513266605" lon="12.746940726080565"><ele>777.0</ele><time>2026-03-22T13:06:39.999Z</time></trkpt><trkpt lat="42.30498617781167" lon="12.747074841696987"><ele>778.0</ele><time>2026-03-22T13:06:40.999Z</time></trkpt><trkpt lat="42.304972324998154" lon="12.74721735906942"><ele>779.0</ele><time>2026-03-22T13:06:41.999Z</time></trkpt><trkpt lat="42.304932233706324" lon="12.747356650227509"><ele>780.0</ele><time>2026-03-22T13:06:42.999Z</time></trkpt><trkpt lat="42.304881461169984" lon="12.7474989314266"><ele>781.0</ele><time>2026-03-22T13:06:43.999Z</time></trkpt><trkpt lat="42.30482138208269" lon="12.747617430616629"><ele>781.1999999999999</ele><time>2026-03-22T13:06:45Z</time></trkpt><trkpt lat="42.30475564582152" lon="12.747715813908112"><ele>781.4</ele><time>2026-03-22T13:06:46Z</time></trkpt><trkpt lat="42.304709475265156" lon="12.747832573937568"><ele>781.6</ele><time>2026-03-22T13:06:47Z</time></trkpt><trkpt lat="42.30468154635374" lon="12.747951171107442"><ele>781.8</ele><time>2026-03-22T13:06:48Z</time></trkpt><trkpt lat="42.30467262132999" lon="12.748072835895684"><ele>782.0</ele><time>2026-03-22T13:06:49Z</time></trkpt><trkpt lat="42.30467534050473" lon="12.748196674807158"><ele>782.0</ele><time>2026-03-22T13:06:50Z</time></trkpt><trkpt lat="42.304690791274304" lon="12.748321565925037"><ele>782.0</ele><time>2026-03-22T13:06:51Z</time></trkpt><trkpt lat="42.30471101453194" lon="12.74844720826582"><ele>782.0</ele><time>2026-03-22T13:06:52Z</time></trkpt><trkpt lat="42.30473747472995" lon="12.748576942745899"><ele>782.0</ele><time>2026-03-22T13:06:53Z</time></trkpt><trkpt lat="42.30475732969982" lon="12.74870401712516"><ele>782.0</ele><time>2026-03-22T13:06:54Z</time></trkpt><trkpt lat="42.30477932697533" lon="12.748837406645622"><ele>784.6</ele><time>2026-03-22T13:06:55Z</time></trkpt><trkpt lat="42.30479674748884" lon="12.748972435544234"><ele>787.2</ele><time>2026-03-22T13:06:56Z</time></trkpt><trkpt lat="42.3048210780102" lon="12.74911894195363"><ele>789.8</ele><time>2026-03-22T13:06:57Z</time></trkpt><trkpt lat="42.304852768779625" lon="12.74926935190301"><ele>792.4</ele><time>2026-03-22T13:06:58Z</time></trkpt><trkpt lat="42.30489437906656" lon="12.749412226629667"><ele>795.0</ele><time>2026-03-22T13:06:59Z</time></trkpt><trkpt lat="42.30495538292123" lon="12.749539372345803"><ele>795.0</ele><time>2026-03-22T13:07:00Z</time></trkpt><trkpt lat="42.305031087830315" lon="12.74963966531572"><ele>795.0</ele><time>2026-03-22T13:07:01Z</time></trkpt><trkpt lat="42.3051172474884" lon="12.749696212344688"><ele>795.0</ele><time>2026-03-22T13:07:02Z</time></trkpt><trkpt lat="42.30520992471515" lon="12.749737266457654"><ele>795.0</ele><time>2026-03-22T13:07:03Z</time></trkpt><trkpt lat="42.3053003800109" lon="12.749767433106287"><ele>795.0</ele><time>2026-03-22T13:07:04Z</time></trkpt><trkpt lat="42.30539421856022" lon="12.74981656474103"><ele>795.0</ele><time>2026-03-22T13:07:05Z</time></trkpt><trkpt lat="42.30549112466239" lon="12.749868206089518"><ele>795.0</ele><time>2026-03-22T13:07:06Z</time></trkpt><trkpt lat="42.30558844360494" lon="12.749920733573859"><ele>795.0</ele><time>2026-03-22T13:07:07Z</time></trkpt><trkpt lat="42.30569572322919" lon="12.749969990698443"><ele>795.0</ele><time>2026-03-22T13:07:08Z</time></trkpt><trkpt lat="42.30580256436902" lon="12.750031507663314"><ele>795.0</ele><time>2026-03-22T13:07:09Z</time></trkpt><trkpt lat="42.305895850956745" lon="12.750107376828609"><ele>796.0</ele><time>2026-03-22T13:07:10Z</time></trkpt><trkpt lat="42.30598489925105" lon="12.750188374918089"><ele>797.0</ele><time>2026-03-22T13:07:11Z</time></trkpt><trkpt lat="42.30606735668347" lon="12.750283514505291"><ele>798.0</ele><time>2026-03-22T13:07:12Z</time></trkpt><trkpt lat="42.3061338704921" lon="12.750375609875496"><ele>799.0</ele><time>2026-03-22T13:07:13Z</time></trkpt><trkpt lat="42.30615931930507" lon="12.75046803279209"><ele>800.0</ele><time>2026-03-22T13:07:14Z</time></trkpt><trkpt lat="42.30621642250957" lon="12.75057631872949"><ele>800.0</ele><time>2026-03-22T13:07:16Z</time></trkpt><trkpt lat="42.30624019520377" lon="12.750467737633736"><ele>800.0</ele><time>2026-03-22T13:07:19Z</time></trkpt><trkpt lat="42.306204882571755" lon="12.750333024052523"><ele>800.0</ele><time>2026-03-22T13:07:21Z</time></trkpt><trkpt lat="42.3061792720851" lon="12.750247547111575"><ele>800.0</ele><time>2026-03-22T13:07:22Z</time></trkpt><trkpt lat="42.30615073020056" lon="12.750075265389706"><ele>800.0</ele><time>2026-03-22T13:07:24Z</time></trkpt><trkpt lat="42.30610808535556" lon="12.749925345848162"><ele>800.0000000000001</ele><time>2026-03-22T13:07:26Z</time></trkpt><trkpt lat="42.30612262538151" lon="12.749819588520845"><ele>800.0</ele><time>2026-03-22T13:07:51.999Z</time></trkpt><trkpt lat="42.30621830135739" lon="12.749797918653735"><ele>800.0</ele><time>2026-03-22T13:07:53.999Z</time></trkpt><trkpt lat="42.30628674980557" lon="12.749746539368942"><ele>800.0</ele><time>2026-03-22T13:07:55.999Z</time></trkpt><trkpt lat="42.30632390731666" lon="12.749602136530013"><ele>800.0000000000001</ele><time>2026-03-22T13:07:57.999Z</time></trkpt><trkpt lat="42.30635770595684" lon="12.74952536348268"><ele>800.0</ele><time>2026-03-22T13:07:58.999Z</time></trkpt><trkpt lat="42.30636225300721" lon="12.749389216233654"><ele>801.8</ele><time>2026-03-22T13:08:00.999Z</time></trkpt><trkpt lat="42.3063183070167" lon="12.74925308659874"><ele>803.6</ele><time>2026-03-22T13:08:02.999Z</time></trkpt><trkpt lat="42.3063563577925" lon="12.749152419620424"><ele>805.4000000000001</ele><time>2026-03-22T13:08:06.999Z</time></trkpt><trkpt lat="42.30639427384998" lon="12.74906800761904"><ele>807.2</ele><time>2026-03-22T13:08:11.999Z</time></trkpt><trkpt lat="42.306403755946285" lon="12.748948325727007"><ele>809.0</ele><time>2026-03-22T13:08:14.999Z</time></trkpt><trkpt lat="42.30644706059091" lon="12.74882653993375"><ele>810.5000000000001</ele><time>2026-03-22T13:08:19.999Z</time></trkpt><trkpt lat="42.30649099154006" lon="12.748743489729288"><ele>812.0</ele><time>2026-03-22T13:08:21.999Z</time></trkpt><trkpt lat="42.30657931179601" lon="12.748746543115343"><ele>813.5</ele><time>2026-03-22T13:08:23.999Z</time></trkpt><trkpt lat="42.30666409581019" lon="12.748738986898534"><ele>815.0</ele><time>2026-03-22T13:08:25.999Z</time></trkpt><trkpt lat="42.30673362793542" lon="12.748753164222972"><ele>816.5000000000001</ele><time>2026-03-22T13:08:27.999Z</time></trkpt><trkpt lat="42.3068191614909" lon="12.748764161511666"><ele>818.0</ele><time>2026-03-22T13:08:30.999Z</time></trkpt><trkpt lat="42.306887953600324" lon="12.748783562977371"><ele>818.0000000000001</ele><time>2026-03-22T13:08:32.999Z</time></trkpt><trkpt lat="42.30696921391151" lon="12.74878505635923"><ele>818.0</ele><time>2026-03-22T13:08:34.999Z</time></trkpt><trkpt lat="42.30705424283491" lon="12.748792907695798"><ele>818.0</ele><time>2026-03-22T13:08:36.999Z</time></trkpt><trkpt lat="42.307147717190055" lon="12.748838174792642"><ele>818.0</ele><time>2026-03-22T13:08:38.999Z</time></trkpt><trkpt lat="42.30722462248513" lon="12.748865022802288"><ele>818.0000000000001</ele><time>2026-03-22T13:08:40.999Z</time></trkpt><trkpt lat="42.307287907252814" lon="12.74887279457485"><ele>818.0</ele><time>2026-03-22T13:08:41.999Z</time></trkpt><trkpt lat="42.307365023666975" lon="12.748888970468805"><ele>821.6666666666667</ele><time>2026-03-22T13:08:42.999Z</time></trkpt><trkpt lat="42.30744817165793" lon="12.748917847495358"><ele>825.3333333333334</ele><time>2026-03-22T13:08:43.999Z</time></trkpt><trkpt lat="42.30751660679025" lon="12.748939153935817"><ele>829.0</ele><time>2026-03-22T13:08:44.999Z</time></trkpt><trkpt lat="42.30762297932068" lon="12.748973001894695"><ele>832.6666666666667</ele><time>2026-03-22T13:08:46.999Z</time></trkpt><trkpt lat="42.30771197292835" lon="12.749015299550138"><ele>836.3333333333334</ele><time>2026-03-22T13:08:48.999Z</time></trkpt><trkpt lat="42.30779762286353" lon="12.748988365722155"><ele>840.0</ele><time>2026-03-22T13:08:52Z</time></trkpt><trkpt lat="42.30787378370637" lon="12.748957054734362"><ele>840.0</ele><time>2026-03-22T13:08:56Z</time></trkpt><trkpt lat="42.30794130353261" lon="12.748965185231514"><ele>840.0</ele><time>2026-03-22T13:08:59Z</time></trkpt><trkpt lat="42.30801007996921" lon="12.748955792128175"><ele>840.0</ele><time>2026-03-22T13:09:07Z</time></trkpt><trkpt lat="42.30807711963911" lon="12.748901328585825"><ele>840.0</ele><time>2026-03-22T13:09:10Z</time></trkpt><trkpt lat="42.308143868024274" lon="12.748920077830036"><ele>840.0</ele><time>2026-03-22T13:09:12Z</time></trkpt><trkpt lat="42.30823353909976" lon="12.748920587813016"><ele>840.0</ele><time>2026-03-22T13:09:14Z</time></trkpt><trkpt lat="42.308322168529784" lon="12.74893621006551"><ele>864.0</ele><time>2026-03-22T13:09:16Z</time></trkpt><trkpt lat="42.308374592937" lon="12.748993514850708"><ele>864.0</ele><time>2026-03-22T13:09:18Z</time></trkpt></trkseg><trkseg><trkpt lat="42.3104584139634" lon="12.750331655905665"><ele>899.0000000000001</ele><time>2026-03-22T13:15:46Z</time></trkpt><trkpt lat="42.31051442801356" lon="12.750430738206969"><ele>899.0</ele><time>2026-03-22T13:19:42Z</time></trkpt><trkpt lat="42.31054109148693" lon="12.750521770029371"><ele>899.0</ele><time>2026-03-22T13:19:44Z</time></trkpt><trkpt lat="42.31057025527972" lon="12.75061087211815"><ele>899.0</ele><time>2026-03-22T13:19:47Z</time></trkpt><trkpt lat="42.31065451748665" lon="12.750563002890848"><ele>899.0000000000001</ele><time>2026-03-22T13:19:54Z</time></trkpt><trkpt lat="42.31074275602459" lon="12.750516872738444"><ele>899.0</ele><time>2026-03-22T13:19:57Z</time></trkpt><trkpt lat="42.31081791417494" lon="12.750464211898343"><ele>901.3333333333334</ele><time>2026-03-22T13:20:00Z</time></trkpt><trkpt lat="42.310888738254754" lon="12.750476525838524"><ele>903.6666666666667</ele><time>2026-03-22T13:20:02Z</time></trkpt><trkpt lat="42.31097089802827" lon="12.750524631423925"><ele>906.0</ele><time>2026-03-22T13:20:04Z</time></trkpt><trkpt lat="42.31105662609184" lon="12.750580720417645"><ele>908.3333333333333</ele><time>2026-03-22T13:20:06Z</time></trkpt><trkpt lat="42.3111394744993" lon="12.750598698405454"><ele>910.6666666666666</ele><time>2026-03-22T13:20:08Z</time></trkpt><trkpt lat="42.311204380312255" lon="12.750578194840651"><ele>913.0</ele><time>2026-03-22T13:20:37.999Z</time></trkpt><trkpt lat="42.311306966742436" lon="12.750517530612209"><ele>913.0</ele><time>2026-03-22T13:20:39.999Z</time></trkpt><trkpt lat="42.311369133621994" lon="12.75046408845193"><ele>913.0</ele><time>2026-03-22T13:20:40.999Z</time></trkpt><trkpt lat="42.31143452708884" lon="12.75038482203954"><ele>913.0</ele><time>2026-03-22T13:20:41.999Z</time></trkpt><trkpt lat="42.311514976572695" lon="12.750281716718982"><ele>913.0</ele><time>2026-03-22T13:20:42.999Z</time></trkpt><trkpt lat="42.31158769891023" lon="12.750169017315415"><ele>913.0</ele><time>2026-03-22T13:20:43.999Z</time></trkpt><trkpt lat="42.31164905536553" lon="12.750038531941291"><ele>916.0</ele><time>2026-03-22T13:20:44.999Z</time></trkpt><trkpt lat="42.31168814006104" lon="12.74988570247897"><ele>919.0</ele><time>2026-03-22T13:20:45.999Z</time></trkpt><trkpt lat="42.311722403780536" lon="12.749715410603107"><ele>922.0</ele><time>2026-03-22T13:20:46.999Z</time></trkpt><trkpt lat="42.31178126994466" lon="12.749568259710388"><ele>925.0</ele><time>2026-03-22T13:20:47.999Z</time></trkpt><trkpt lat="42.311850023200584" lon="12.749483527760596"><ele>924.9999999999999</ele><time>2026-03-22T13:20:48.999Z</time></trkpt><trkpt lat="42.31192583312114" lon="12.749437427382887"><ele>925.0</ele><time>2026-03-22T13:20:49.999Z</time></trkpt><trkpt lat="42.31199445150046" lon="12.749433760967074"><ele>925.0</ele><time>2026-03-22T13:20:50.999Z</time></trkpt><trkpt lat="42.31207032696441" lon="12.74945636357409"><ele>925.0</ele><time>2026-03-22T13:20:51.999Z</time></trkpt><trkpt lat="42.31215779991925" lon="12.749514748039083"><ele>924.9999999999999</ele><time>2026-03-22T13:20:52.999Z</time></trkpt><trkpt lat="42.31225529731862" lon="12.749581457336284"><ele>925.0</ele><time>2026-03-22T13:20:53.999Z</time></trkpt><trkpt lat="42.312368182923294" lon="12.749655475170718"><ele>926.5</ele><time>2026-03-22T13:20:54.999Z</time></trkpt><trkpt lat="42.31248483822801" lon="12.749746178773558"><ele>928.0</ele><time>2026-03-22T13:20:55.999Z</time></trkpt><trkpt lat="42.31259258149914" lon="12.74984067131227"><ele>929.5</ele><time>2026-03-22T13:20:56.999Z</time></trkpt><trkpt lat="42.31272016919418" lon="12.749852965814421"><ele>931.0</ele><time>2026-03-22T13:20:57.999Z</time></trkpt><trkpt lat="42.31286320401692" lon="12.74987111686012"><ele>931.0</ele><time>2026-03-22T13:20:58.999Z</time></trkpt><trkpt lat="42.312953506884426" lon="12.749890369734914"><ele>931.0</ele><time>2026-03-22T13:20:59.999Z</time></trkpt><trkpt lat="42.31305037274999" lon="12.749884543514332"><ele>931.0</ele><time>2026-03-22T13:21:00.999Z</time></trkpt><trkpt lat="42.31314344537164" lon="12.749787819270088"><ele>931.0</ele><time>2026-03-22T13:21:01.999Z</time></trkpt><trkpt lat="42.313260118958304" lon="12.749664538339028"><ele>931.25</ele><time>2026-03-22T13:21:02.999Z</time></trkpt><trkpt lat="42.31337022459696" lon="12.749577552844018"><ele>931.5</ele><time>2026-03-22T13:21:03.999Z</time></trkpt><trkpt lat="42.3134774485314" lon="12.749565474813025"><ele>931.75</ele><time>2026-03-22T13:21:04.999Z</time></trkpt><trkpt lat="42.31360415520383" lon="12.749580836521314"><ele>932.0</ele><time>2026-03-22T13:21:05.999Z</time></trkpt><trkpt lat="42.313748641104" lon="12.74958237893755"><ele>932.0</ele><time>2026-03-22T13:21:06.999Z</time></trkpt><trkpt lat="42.313892975730596" lon="12.749573638948338"><ele>932.0</ele><time>2026-03-22T13:21:07.999Z</time></trkpt><trkpt lat="42.314035236982875" lon="12.749597599033327"><ele>932.0</ele><time>2026-03-22T13:21:08.999Z</time></trkpt><trkpt lat="42.314168607334715" lon="12.74965676476888"><ele>932.0</ele><time>2026-03-22T13:21:09.999Z</time></trkpt><trkpt lat="42.31430791943494" lon="12.749716043161259"><ele>934.0</ele><time>2026-03-22T13:21:10.999Z</time></trkpt><trkpt lat="42.31445780452973" lon="12.749726705632114"><ele>936.0</ele><time>2026-03-22T13:21:11.999Z</time></trkpt><trkpt lat="42.314625154205146" lon="12.749708123718351"><ele>938.0</ele><time>2026-03-22T13:21:12.999Z</time></trkpt><trkpt lat="42.31478356902075" lon="12.749676585111677"><ele>939.75</ele><time>2026-03-22T13:21:13.999Z</time></trkpt><trkpt lat="42.31491762959631" lon="12.74967195443608"><ele>941.5</ele><time>2026-03-22T13:21:14.999Z</time></trkpt><trkpt lat="42.31503142608094" lon="12.749645546325935"><ele>943.25</ele><time>2026-03-22T13:21:15.999Z</time></trkpt><trkpt lat="42.31514240168246" lon="12.749587631733126"><ele>945.0</ele><time>2026-03-22T13:21:16.999Z</time></trkpt><trkpt lat="42.31522778703468" lon="12.749498950718534"><ele>945.0</ele><time>2026-03-22T13:21:17.999Z</time></trkpt><trkpt lat="42.31532494379578" lon="12.749403178713019"><ele>945.0</ele><time>2026-03-22T13:21:18.999Z</time></trkpt><trkpt lat="42.315428846909235" lon="12.749356473622381"><ele>945.0</ele><time>2026-03-22T13:21:19.999Z</time></trkpt><trkpt lat="42.31551764094562" lon="12.74935790214991"><ele>945.0</ele><time>2026-03-22T13:21:20.999Z</time></trkpt><trkpt lat="42.31560352070653" lon="12.749385511485814"><ele>945.0</ele><time>2026-03-22T13:21:21.999Z</time></trkpt><trkpt lat="42.315681460056865" lon="12.749468327640225"><ele>946.8</ele><time>2026-03-22T13:21:22.999Z</time></trkpt><trkpt lat="42.31576828170168" lon="12.749579057649408"><ele>948.6</ele><time>2026-03-22T13:21:24Z</time></trkpt><trkpt lat="42.31586752790452" lon="12.749681934321673"><ele>950.4000000000001</ele><time>2026-03-22T13:21:25Z</time></trkpt><trkpt lat="42.31595309223631" lon="12.749716914541963"><ele>952.2</ele><time>2026-03-22T13:21:26Z</time></trkpt><trkpt lat="42.316022810185586" lon="12.749693473658155"><ele>954.0</ele><time>2026-03-22T13:21:27Z</time></trkpt><trkpt lat="42.316082412087496" lon="12.74962728321712"><ele>954.0</ele><time>2026-03-22T13:21:28Z</time></trkpt><trkpt lat="42.31612500600484" lon="12.749532109268904"><ele>954.0000000000001</ele><time>2026-03-22T13:21:29Z</time></trkpt><trkpt lat="42.3161631427217" lon="12.749407391969894"><ele>954.0000000000001</ele><time>2026-03-22T13:21:30Z</time></trkpt><trkpt lat="42.31619420736663" lon="12.749253202362778"><ele>954.0</ele><time>2026-03-22T13:21:31Z</time></trkpt><trkpt lat="42.316245549296596" lon="12.749087724044077"><ele>954.0</ele><time>2026-03-22T13:21:32Z</time></trkpt><trkpt lat="42.31632212943305" lon="12.748914962967541"><ele>958.0</ele><time>2026-03-22T13:21:33Z</time></trkpt><trkpt lat="42.31640679204308" lon="12.748747474099119"><ele>962.0</ele><time>2026-03-22T13:21:34Z</time></trkpt><trkpt lat="42.31649553765787" lon="12.748590078766986"><ele>966.0</ele><time>2026-03-22T13:21:35Z</time></trkpt><trkpt lat="42.316594990897514" lon="12.748443495469786"><ele>970.0</ele><time>2026-03-22T13:21:36Z</time></trkpt><trkpt lat="42.31669413164527" lon="12.748339501277604"><ele>973.0</ele><time>2026-03-22T13:21:37Z</time></trkpt><trkpt lat="42.31680410291528" lon="12.748264741220506"><ele>976.0</ele><time>2026-03-22T13:21:38Z</time></trkpt><trkpt lat="42.31693012805691" lon="12.748203763130276"><ele>979.0</ele><time>2026-03-22T13:21:39Z</time></trkpt><trkpt lat="42.31706167974037" lon="12.748156512071871"><ele>982.0</ele><time>2026-03-22T13:21:40Z</time></trkpt><trkpt lat="42.3171991564509" lon="12.748109246672978"><ele>982.6666666666666</ele><time>2026-03-22T13:21:41Z</time></trkpt><trkpt lat="42.31734316785196" lon="12.748069573327504"><ele>983.3333333333333</ele><time>2026-03-22T13:21:42Z</time></trkpt><trkpt lat="42.31749598896648" lon="12.74806430530284"><ele>984.0</ele><time>2026-03-22T13:21:43Z</time></trkpt><trkpt lat="42.31765228719956" lon="12.748079519931682"><ele>984.0</ele><time>2026-03-22T13:21:44Z</time></trkpt><trkpt lat="42.31781918687649" lon="12.74810621256973"><ele>984.0</ele><time>2026-03-22T13:21:45Z</time></trkpt><trkpt lat="42.317998078879256" lon="12.748121147266202"><ele>984.0</ele><time>2026-03-22T13:21:46Z</time></trkpt><trkpt lat="42.31819039032451" lon="12.748138233383365"><ele>988.3333333333333</ele><time>2026-03-22T13:21:47Z</time></trkpt><trkpt lat="42.31838000465869" lon="12.74817727560691"><ele>992.6666666666666</ele><time>2026-03-22T13:21:48Z</time></trkpt><trkpt lat="42.31854510921391" lon="12.748228715942572"><ele>997.0</ele><time>2026-03-22T13:21:49Z</time></trkpt><trkpt lat="42.318661080941894" lon="12.748294977649305"><ele>997.0</ele><time>2026-03-22T13:21:50Z</time></trkpt><trkpt lat="42.318762122465785" lon="12.748382159841166"><ele>997.0</ele><time>2026-03-22T13:21:51Z</time></trkpt><trkpt lat="42.31886750051169" lon="12.748497660954218"><ele>997.0</ele><time>2026-03-22T13:21:52Z</time></trkpt><trkpt lat="42.31896834341126" lon="12.748641221258172"><ele>997.0</ele><time>2026-03-22T13:21:53Z</time></trkpt><trkpt lat="42.319079393595295" lon="12.748785816709685"><ele>997.0</ele><time>2026-03-22T13:21:54Z</time></trkpt><trkpt lat="42.319194663364634" lon="12.748903271240433"><ele>997.0</ele><time>2026-03-22T13:21:55Z</time></trkpt><trkpt lat="42.31930470405624" lon="12.74898437628231"><ele>997.0</ele><time>2026-03-22T13:21:56Z</time></trkpt><trkpt lat="42.319403690451296" lon="12.74904524822676"><ele>997.0</ele><time>2026-03-22T13:21:57Z</time></trkpt><trkpt lat="42.31948906829826" lon="12.749066415487302"><ele>997.0</ele><time>2026-03-22T13:21:58Z</time></trkpt><trkpt lat="42.31958123791881" lon="12.74905430611471"><ele>997.0</ele><time>2026-03-22T13:21:59Z</time></trkpt><trkpt lat="42.31970610697321" lon="12.749023626294207"><ele>997.0</ele><time>2026-03-22T13:22:00Z</time></trkpt><trkpt lat="42.31985366460431" lon="12.748993673352759"><ele>997.0</ele><time>2026-03-22T13:22:01Z</time></trkpt><trkpt lat="42.320010127468926" lon="12.748987340781987"><ele>998.6666666666666</ele><time>2026-03-22T13:22:02Z</time></trkpt><trkpt lat="42.320178436550755" lon="12.749021805373816"><ele>1000.3333333333333</ele><time>2026-03-22T13:22:03Z</time></trkpt><trkpt lat="42.32037279091107" lon="12.749074380568391"><ele>1002.0</ele><time>2026-03-22T13:22:04Z</time></trkpt><trkpt lat="42.320537259330905" lon="12.749104305051228"><ele>1005.0</ele><time>2026-03-22T13:22:05Z</time></trkpt><trkpt lat="42.32069708670942" lon="12.749127515984702"><ele>1008.0</ele><time>2026-03-22T13:22:06Z</time></trkpt><trkpt lat="42.32084766920571" lon="12.749181302496636"><ele>1011.0</ele><time>2026-03-22T13:22:07Z</time></trkpt><trkpt lat="42.3209929584627" lon="12.749283785152485"><ele>1005.3333333333333</ele><time>2026-03-22T13:22:08Z</time></trkpt><trkpt lat="42.32114988451917" lon="12.749414617163376"><ele>999.6666666666666</ele><time>2026-03-22T13:22:09Z</time></trkpt><trkpt lat="42.32128581827451" lon="12.749523172845523"><ele>994.0</ele><time>2026-03-22T13:22:10Z</time></trkpt><trkpt lat="42.32139891365844" lon="12.749599701559692"><ele>994.0</ele><time>2026-03-22T13:22:11Z</time></trkpt><trkpt lat="42.321498584112106" lon="12.749631643347241"><ele>994.0</ele><time>2026-03-22T13:22:12Z</time></trkpt><trkpt lat="42.32161015904282" lon="12.74963986682992"><ele>994.0</ele><time>2026-03-22T13:22:13Z</time></trkpt><trkpt lat="42.321727588605384" lon="12.749621911386269"><ele>994.0</ele><time>2026-03-22T13:22:14Z</time></trkpt><trkpt lat="42.32184124384983" lon="12.749575119955404"><ele>994.0</ele><time>2026-03-22T13:22:15Z</time></trkpt><trkpt lat="42.32196009085748" lon="12.749494034143376"><ele>994.0</ele><time>2026-03-22T13:22:16Z</time></trkpt><trkpt lat="42.32209876361857" lon="12.749419956752307"><ele>994.0</ele><time>2026-03-22T13:22:17Z</time></trkpt><trkpt lat="42.32225853390242" lon="12.749409991841512"><ele>994.0</ele><time>2026-03-22T13:22:18Z</time></trkpt><trkpt lat="42.322432956753104" lon="12.749422695270301"><ele>993.6666666666666</ele><time>2026-03-22T13:22:19Z</time></trkpt><trkpt lat="42.32262250466012" lon="12.74944370042487"><ele>993.3333333333333</ele><time>2026-03-22T13:22:20Z</time></trkpt><trkpt lat="42.32277760860556" lon="12.749473445761682"><ele>993.0</ele><time>2026-03-22T13:22:21Z</time></trkpt><trkpt lat="42.32291207124116" lon="12.749482361471273"><ele>993.0</ele><time>2026-03-22T13:22:22Z</time></trkpt><trkpt lat="42.323058754548015" lon="12.749455588168289"><ele>993.0</ele><time>2026-03-22T13:22:23Z</time></trkpt><trkpt lat="42.32324596281615" lon="12.749403908939966"><ele>993.0</ele><time>2026-03-22T13:22:24Z</time></trkpt><trkpt lat="42.3234418181222" lon="12.749356833773865"><ele>995.8</ele><time>2026-03-22T13:22:24.999Z</time></trkpt><trkpt lat="42.323581225193934" lon="12.74931723847511"><ele>998.5999999999999</ele><time>2026-03-22T13:22:25.999Z</time></trkpt><trkpt lat="42.32369058796496" lon="12.749303364030416"><ele>1001.4000000000001</ele><time>2026-03-22T13:22:26.999Z</time></trkpt><trkpt lat="42.3237733166539" lon="12.749307716224113"><ele>1004.2</ele><time>2026-03-22T13:22:27.999Z</time></trkpt><trkpt lat="42.323864836868076" lon="12.749356298113737"><ele>1007.0</ele><time>2026-03-22T13:22:28.999Z</time></trkpt><trkpt lat="42.32395168470389" lon="12.749441044279784"><ele>1007.0</ele><time>2026-03-22T13:22:29.999Z</time></trkpt><trkpt lat="42.32403340057513" lon="12.749569554299205"><ele>1007.0</ele><time>2026-03-22T13:22:30.999Z</time></trkpt><trkpt lat="42.324120883487716" lon="12.749696399271862"><ele>1007.0</ele><time>2026-03-22T13:22:31.999Z</time></trkpt><trkpt lat="42.324217202825174" lon="12.749750662292948"><ele>1007.0</ele><time>2026-03-22T13:22:32.999Z</time></trkpt><trkpt lat="42.32430091730194" lon="12.749767115074143"><ele>1007.0</ele><time>2026-03-22T13:22:33.999Z</time></trkpt><trkpt lat="42.32436764880023" lon="12.749729044628324"><ele>1007.0000000000001</ele><time>2026-03-22T13:22:34.999Z</time></trkpt><trkpt lat="42.32443661736186" lon="12.749666619051965"><ele>1007.0</ele><time>2026-03-22T13:22:35.999Z</time></trkpt><trkpt lat="42.324518806832124" lon="12.74961504973792"><ele>1007.0</ele><time>2026-03-22T13:22:36.999Z</time></trkpt><trkpt lat="42.32457034817005" lon="12.749559140796086"><ele>1007.0</ele><time>2026-03-22T13:22:37.999Z</time></trkpt><trkpt lat="42.324607863653" lon="12.749465749253293"><ele>1007.0000000000001</ele><time>2026-03-22T13:22:39.999Z</time></trkpt><trkpt lat="42.3245734823701" lon="12.749539029843435"><ele>1007.0</ele><time>2026-03-22T13:25:13.999Z</time></trkpt><trkpt lat="42.32465945323949" lon="12.749489479931931"><ele>1006.8</ele><time>2026-03-22T13:25:24.999Z</time></trkpt><trkpt lat="42.32476914340528" lon="12.749529758822183"><ele>1006.6</ele><time>2026-03-22T13:25:26.999Z</time></trkpt><trkpt lat="42.32483774156558" lon="12.749467380644235"><ele>1006.3999999999999</ele><time>2026-03-22T13:25:28.999Z</time></trkpt><trkpt lat="42.32495412115759" lon="12.749412183458794"><ele>1006.1999999999999</ele><time>2026-03-22T13:25:30.999Z</time></trkpt><trkpt lat="42.32501897354947" lon="12.749369077463552"><ele>1006.0</ele><time>2026-03-22T13:25:31.999Z</time></trkpt><trkpt lat="42.32508141701851" lon="12.749313138627686"><ele>1008.3333333333333</ele><time>2026-03-22T13:25:32.999Z</time></trkpt><trkpt lat="42.32512727578601" lon="12.749235678512825"><ele>1010.6666666666666</ele><time>2026-03-22T13:25:33.999Z</time></trkpt><trkpt lat="42.325163044561734" lon="12.74916405524837"><ele>1013.0</ele><time>2026-03-22T13:25:35Z</time></trkpt><trkpt lat="42.325236989339054" lon="12.749075162597086"><ele>1015.3333333333333</ele><time>2026-03-22T13:25:37Z</time></trkpt><trkpt lat="42.325331103189804" lon="12.74912180016765"><ele>1017.6666666666666</ele><time>2026-03-22T13:25:39Z</time></trkpt><trkpt lat="42.3254161167645" lon="12.749060777432502"><ele>1020.0</ele><time>2026-03-22T13:25:41Z</time></trkpt><trkpt lat="42.325500637972716" lon="12.748955875056296"><ele>1020.0</ele><time>2026-03-22T13:25:43Z</time></trkpt><trkpt lat="42.32554533387016" lon="12.748841558118448"><ele>1020.0</ele><time>2026-03-22T13:25:45Z</time></trkpt><trkpt lat="42.325629845093545" lon="12.74871481912233"><ele>1020.0</ele><time>2026-03-22T13:25:47Z</time></trkpt><trkpt lat="42.32568039462973" lon="12.74864855588096"><ele>1020.0</ele><time>2026-03-22T13:25:48Z</time></trkpt><trkpt lat="42.325783397877586" lon="12.748594685687108"><ele>1020.0</ele><time>2026-03-22T13:25:50Z</time></trkpt><trkpt lat="42.32586773086288" lon="12.748592094977086"><ele>1022.0</ele><time>2026-03-22T13:25:51Z</time></trkpt><trkpt lat="42.32596646443667" lon="12.74859472575883"><ele>1024.0</ele><time>2026-03-22T13:25:52Z</time></trkpt><trkpt lat="42.326068757600915" lon="12.748590676977443"><ele>1026.0</ele><time>2026-03-22T13:25:53Z</time></trkpt><trkpt lat="42.32616201229905" lon="12.74858390284397"><ele>1028.0</ele><time>2026-03-22T13:25:54Z</time></trkpt><trkpt lat="42.3262421600547" lon="12.748571900319352"><ele>1030.0</ele><time>2026-03-22T13:25:55Z</time></trkpt><trkpt lat="42.32630809994098" lon="12.74854594772031"><ele>1032.0</ele><time>2026-03-22T13:25:56Z</time></trkpt><trkpt lat="42.32639545786235" lon="12.748557134192573"><ele>1033.0</ele><time>2026-03-22T13:25:57Z</time></trkpt><trkpt lat="42.32647500380368" lon="12.748573488217556"><ele>1034.0</ele><time>2026-03-22T13:25:58Z</time></trkpt><trkpt lat="42.3265490919521" lon="12.748614675175222"><ele>1035.0</ele><time>2026-03-22T13:25:59Z</time></trkpt><trkpt lat="42.32661215994003" lon="12.748733523700555"><ele>1036.0</ele><time>2026-03-22T13:26:01Z</time></trkpt><trkpt lat="42.326692776775594" lon="12.748729628089624"><ele>1037.0</ele><time>2026-03-22T13:26:03Z</time></trkpt><trkpt lat="42.3267758820753" lon="12.748699382193186"><ele>1038.0</ele><time>2026-03-22T13:26:05Z</time></trkpt><trkpt lat="42.32683571024425" lon="12.748672256336796"><ele>1038.0</ele><time>2026-03-22T13:26:08Z</time></trkpt><trkpt lat="42.32690237527681" lon="12.748604964499446"><ele>1038.0</ele><time>2026-03-22T13:26:10Z</time></trkpt><trkpt lat="42.32695414167379" lon="12.748523419078957"><ele>1038.0</ele><time>2026-03-22T13:26:11.999Z</time></trkpt><trkpt lat="42.327008975170365" lon="12.748449929622534"><ele>1038.0</ele><time>2026-03-22T13:26:13.999Z</time></trkpt><trkpt lat="42.32707370730372" lon="12.748372186796246"><ele>1038.0</ele><time>2026-03-22T13:26:15.999Z</time></trkpt><trkpt lat="42.32719015979816" lon="12.748261732771136"><ele>1042.4</ele><time>2026-03-22T13:26:17.999Z</time></trkpt><trkpt lat="42.327250032192126" lon="12.748174750587115"><ele>1046.8</ele><time>2026-03-22T13:26:18.999Z</time></trkpt><trkpt lat="42.32727609907017" lon="12.74805455683781"><ele>1051.2</ele><time>2026-03-22T13:26:20.999Z</time></trkpt><trkpt lat="42.327257587902615" lon="12.747903242768327"><ele>1055.6</ele><time>2026-03-22T13:26:22.999Z</time></trkpt><trkpt lat="42.32727980082655" lon="12.747812380983428"><ele>1060.0</ele><time>2026-03-22T13:26:23.999Z</time></trkpt><trkpt lat="42.327271355112" lon="12.747641225405228"><ele>1064.0</ele><time>2026-03-22T13:26:25.999Z</time></trkpt><trkpt lat="42.32727679358034" lon="12.747515470724286"><ele>1068.0</ele><time>2026-03-22T13:26:26.999Z</time></trkpt><trkpt lat="42.327308061194266" lon="12.747384979197154"><ele>1072.0</ele><time>2026-03-22T13:26:27.999Z</time></trkpt><trkpt lat="42.32735066294135" lon="12.747255682915725"><ele>1076.0</ele><time>2026-03-22T13:26:28.999Z</time></trkpt><trkpt lat="42.32738271275892" lon="12.747156538717476"><ele>1080.0</ele><time>2026-03-22T13:26:29.999Z</time></trkpt><trkpt lat="42.327446841391165" lon="12.747075945811517"><ele>1080.0</ele><time>2026-03-22T13:26:30.999Z</time></trkpt><trkpt lat="42.32756002285896" lon="12.74704326909899"><ele>1080.0</ele><time>2026-03-22T13:26:31.999Z</time></trkpt><trkpt lat="42.327669339150496" lon="12.746983736247289"><ele>1080.0</ele><time>2026-03-22T13:26:32.999Z</time></trkpt><trkpt lat="42.32779762656777" lon="12.746897746149813"><ele>1080.0</ele><time>2026-03-22T13:26:33.999Z</time></trkpt><trkpt lat="42.327898986214315" lon="12.746813685690736"><ele>1082.25</ele><time>2026-03-22T13:26:34.999Z</time></trkpt><trkpt lat="42.32798499405854" lon="12.74673992054645"><ele>1084.5</ele><time>2026-03-22T13:26:35.999Z</time></trkpt><trkpt lat="42.328083727031704" lon="12.74664624957266"><ele>1086.75</ele><time>2026-03-22T13:26:36.999Z</time></trkpt><trkpt lat="42.32818929675919" lon="12.746549889275622"><ele>1089.0</ele><time>2026-03-22T13:26:37.999Z</time></trkpt><trkpt lat="42.32827559801863" lon="12.746462073414573"><ele>1089.0</ele><time>2026-03-22T13:26:38.999Z</time></trkpt><trkpt lat="42.32833046905812" lon="12.746401318700066"><ele>1089.0</ele><time>2026-03-22T13:26:39.999Z</time></trkpt><trkpt lat="42.32842179707587" lon="12.746351949171258"><ele>1089.0</ele><time>2026-03-22T13:26:40.999Z</time></trkpt><trkpt lat="42.328515209926394" lon="12.746323677276985"><ele>1089.0</ele><time>2026-03-22T13:26:41.999Z</time></trkpt><trkpt lat="42.32859375778174" lon="12.746314187685227"><ele>1089.0</ele><time>2026-03-22T13:26:42.999Z</time></trkpt><trkpt lat="42.328672812545186" lon="12.746281323857149"><ele>1089.0</ele><time>2026-03-22T13:26:43.999Z</time></trkpt><trkpt lat="42.32881236861075" lon="12.74622927039798"><ele>1090.8333333333333</ele><time>2026-03-22T13:26:45.999Z</time></trkpt><trkpt lat="42.32890920104299" lon="12.746206131629986"><ele>1092.6666666666667</ele><time>2026-03-22T13:26:46.999Z</time></trkpt><trkpt lat="42.32901140767107" lon="12.746139989663043"><ele>1094.5</ele><time>2026-03-22T13:26:47.999Z</time></trkpt><trkpt lat="42.32907511498353" lon="12.746076723203519"><ele>1096.3333333333335</ele><time>2026-03-22T13:26:48.999Z</time></trkpt><trkpt lat="42.32913257833823" lon="12.746004751717415"><ele>1098.1666666666667</ele><time>2026-03-22T13:26:49.999Z</time></trkpt><trkpt lat="42.32920191248368" lon="12.745952025650883"><ele>1100.0</ele><time>2026-03-22T13:26:50.999Z</time></trkpt><trkpt lat="42.329269122259404" lon="12.745910168937463"><ele>1100.0</ele><time>2026-03-22T13:26:51.999Z</time></trkpt><trkpt lat="42.3293396137976" lon="12.745889297426322"><ele>1100.0</ele><time>2026-03-22T13:26:52.999Z</time></trkpt><trkpt lat="42.32941318971766" lon="12.745831639221331"><ele>1100.0</ele><time>2026-03-22T13:26:54.999Z</time></trkpt><trkpt lat="42.329443453692456" lon="12.745748706302756"><ele>1100.0</ele><time>2026-03-22T13:26:56.999Z</time></trkpt><trkpt lat="42.32943631849497" lon="12.745607434619327"><ele>1100.0</ele><time>2026-03-22T13:26:59.999Z</time></trkpt><trkpt lat="42.329443929424485" lon="12.74549105139193"><ele>1100.0</ele><time>2026-03-22T13:27:01.999Z</time></trkpt><trkpt lat="42.32950160466733" lon="12.745393837301899"><ele>1100.0</ele><time>2026-03-22T13:27:04.999Z</time></trkpt><trkpt lat="42.32952603060616" lon="12.745291643802375"><ele>1100.0</ele><time>2026-03-22T13:27:06.999Z</time></trkpt><trkpt lat="42.3295753530779" lon="12.745201120478063"><ele>1100.0</ele><time>2026-03-22T13:27:08.999Z</time></trkpt><trkpt lat="42.32962878917265" lon="12.745068203384331"><ele>1100.0</ele><time>2026-03-22T13:27:10.999Z</time></trkpt><trkpt lat="42.32969245229766" lon="12.744990626525587"><ele>1100.0</ele><time>2026-03-22T13:27:12.999Z</time></trkpt><trkpt lat="42.329770865326736" lon="12.744935037512352"><ele>1100.0</ele><time>2026-03-22T13:27:15.999Z</time></trkpt><trkpt lat="42.32983724387414" lon="12.74496684910927"><ele>1106.3333333333335</ele><time>2026-03-22T13:27:17.999Z</time></trkpt><trkpt lat="42.32989620165385" lon="12.7450055490239"><ele>1112.6666666666667</ele><time>2026-03-22T13:27:20.999Z</time></trkpt><trkpt lat="42.330014151704184" lon="12.745065923476929"><ele>1119.0</ele><time>2026-03-22T13:27:22.999Z</time></trkpt><trkpt lat="42.330083442425526" lon="12.745056709210225"><ele>1125.3333333333333</ele><time>2026-03-22T13:27:23.999Z</time></trkpt><trkpt lat="42.33017715166832" lon="12.745025376241303"><ele>1131.6666666666665</ele><time>2026-03-22T13:27:25.999Z</time></trkpt><trkpt lat="42.33025843167545" lon="12.744981256212466"><ele>1138.0</ele><time>2026-03-22T13:27:27.999Z</time></trkpt><trkpt lat="42.330322728834325" lon="12.744977091852913"><ele>1138.0</ele><time>2026-03-22T13:27:28.999Z</time></trkpt><trkpt lat="42.33039238204908" lon="12.74490730903606"><ele>1138.0</ele><time>2026-03-22T13:27:30.999Z</time></trkpt><trkpt lat="42.330426984802706" lon="12.744821808989924"><ele>1138.0</ele><time>2026-03-22T13:27:32.999Z</time></trkpt><trkpt lat="42.33047203499357" lon="12.744721776372035"><ele>1138.0</ele><time>2026-03-22T13:27:34.999Z</time></trkpt><trkpt lat="42.330508237592284" lon="12.744650680265185"><ele>1138.0</ele><time>2026-03-22T13:27:35.999Z</time></trkpt><trkpt lat="42.33055947796317" lon="12.744563425491537"><ele>1138.0</ele><time>2026-03-22T13:27:36.999Z</time></trkpt><trkpt lat="42.33068401278786" lon="12.744473319591332"><ele>1136.0</ele><time>2026-03-22T13:27:38.999Z</time></trkpt><trkpt lat="42.33075839620124" lon="12.744465333963115"><ele>1134.0</ele><time>2026-03-22T13:27:39.999Z</time></trkpt><trkpt lat="42.33083937836734" lon="12.744482090421902"><ele>1132.0</ele><time>2026-03-22T13:27:40.999Z</time></trkpt><trkpt lat="42.33090467302036" lon="12.744504485573932"><ele>1130.0</ele><time>2026-03-22T13:27:41.999Z</time></trkpt><trkpt lat="42.33099894893424" lon="12.744535926933862"><ele>1128.0</ele><time>2026-03-22T13:27:43.999Z</time></trkpt><trkpt lat="42.33106314888075" lon="12.744568564102043"><ele>1126.0</ele><time>2026-03-22T13:27:44.999Z</time></trkpt><trkpt lat="42.331125482266316" lon="12.744597070894741"><ele>1126.0</ele><time>2026-03-22T13:27:45.999Z</time></trkpt><trkpt lat="42.331196111766964" lon="12.744625885607922"><ele>1126.0</ele><time>2026-03-22T13:27:47.999Z</time></trkpt><trkpt lat="42.33128401958186" lon="12.74456243670077"><ele>1126.0</ele><time>2026-03-22T13:27:49.999Z</time></trkpt><trkpt lat="42.33136334897172" lon="12.744519364244749"><ele>1126.0</ele><time>2026-03-22T13:27:50.999Z</time></trkpt><trkpt lat="42.33144903360949" lon="12.744519683789207"><ele>1126.0</ele><time>2026-03-22T13:27:51.999Z</time></trkpt><trkpt lat="42.33154073184193" lon="12.744539678493162"><ele>1126.0</ele><time>2026-03-22T13:27:52.999Z</time></trkpt><trkpt lat="42.33160336810883" lon="12.744562053462268"><ele>1125.1666666666665</ele><time>2026-03-22T13:27:53.999Z</time></trkpt><trkpt lat="42.33167177867326" lon="12.744563001099968"><ele>1124.3333333333333</ele><time>2026-03-22T13:27:54.999Z</time></trkpt><trkpt lat="42.3317509225266" lon="12.744594882936273"><ele>1123.5</ele><time>2026-03-22T13:27:56.999Z</time></trkpt><trkpt lat="42.33181837375498" lon="12.74457996794797"><ele>1122.6666666666667</ele><time>2026-03-22T13:27:59.999Z</time></trkpt><trkpt lat="42.33191009859884" lon="12.744611350514512"><ele>1121.8333333333335</ele><time>2026-03-22T13:28:01.999Z</time></trkpt><trkpt lat="42.3319799484233" lon="12.744619496697135"><ele>1121.0</ele><time>2026-03-22T13:28:03.999Z</time></trkpt><trkpt lat="42.3320641590332" lon="12.74462441025886"><ele>1121.0</ele><time>2026-03-22T13:28:05.999Z</time></trkpt><trkpt lat="42.33213102998972" lon="12.744619002591637"><ele>1121.0</ele><time>2026-03-22T13:28:06.999Z</time></trkpt><trkpt lat="42.33220173672438" lon="12.744556343382719"><ele>1121.0</ele><time>2026-03-22T13:28:08.999Z</time></trkpt><trkpt lat="42.33229534925562" lon="12.744486213755126"><ele>1121.0</ele><time>2026-03-22T13:28:10.999Z</time></trkpt><trkpt lat="42.33238136020238" lon="12.744404891256924"><ele>1121.0</ele><time>2026-03-22T13:28:12.999Z</time></trkpt><trkpt lat="42.33248561107765" lon="12.744385290237798"><ele>1123.0</ele><time>2026-03-22T13:28:14.999Z</time></trkpt><trkpt lat="42.33261189460456" lon="12.744362839503445"><ele>1125.0</ele><time>2026-03-22T13:28:16.999Z</time></trkpt><trkpt lat="42.33268639762404" lon="12.74437917872596"><ele>1127.0</ele><time>2026-03-22T13:28:18.999Z</time></trkpt><trkpt lat="42.332765607824115" lon="12.744377273887439"><ele>1129.0</ele><time>2026-03-22T13:28:20.999Z</time></trkpt><trkpt lat="42.332888822417246" lon="12.74438727413563"><ele>1131.0</ele><time>2026-03-22T13:28:22.999Z</time></trkpt><trkpt lat="42.33298450967231" lon="12.74443838396657"><ele>1129.6666666666667</ele><time>2026-03-22T13:28:24.999Z</time></trkpt><trkpt lat="42.33306031932862" lon="12.744455877745061"><ele>1128.3333333333333</ele><time>2026-03-22T13:28:27.999Z</time></trkpt><trkpt lat="42.3331651553273" lon="12.744403614803762"><ele>1127.0</ele><time>2026-03-22T13:28:30.999Z</time></trkpt><trkpt lat="42.33321170782339" lon="12.744314611140432"><ele>1125.6666666666665</ele><time>2026-03-22T13:28:32.999Z</time></trkpt><trkpt lat="42.33326067141395" lon="12.744245159651582"><ele>1124.3333333333333</ele><time>2026-03-22T13:28:37.999Z</time></trkpt><trkpt lat="42.33331671854972" lon="12.744192589892913"><ele>1123.0</ele><time>2026-03-22T13:28:45.999Z</time></trkpt><trkpt lat="42.33336272077236" lon="12.744122900045287"><ele>1129.9999999999998</ele><time>2026-03-22T13:28:50.999Z</time></trkpt><trkpt lat="42.33341384763376" lon="12.744053276130119"><ele>1137.0</ele><time>2026-03-22T13:28:54.999Z</time></trkpt><trkpt lat="42.333466547643496" lon="12.743989324101143"><ele>1144.0</ele><time>2026-03-22T13:29:08.999Z</time></trkpt><trkpt lat="42.33348825433791" lon="12.743909149753533"><ele>1151.0</ele><time>2026-03-22T13:29:13.999Z</time></trkpt><trkpt lat="42.3335250625818" lon="12.743831079920144"><ele>1158.0</ele><time>2026-03-22T13:31:03.999Z</time></trkpt><trkpt lat="42.33360902553481" lon="12.743832139279041"><ele>1164.9999999999998</ele><time>2026-03-22T13:31:06.999Z</time></trkpt><trkpt lat="42.33367592816402" lon="12.743783192476386"><ele>1172.0</ele><time>2026-03-22T13:31:10.999Z</time></trkpt><trkpt lat="42.33374041570229" lon="12.743778959456467"><ele>1171.9999999999998</ele><time>2026-03-22T13:31:13.999Z</time></trkpt><trkpt lat="42.33380856149536" lon="12.743767130607253"><ele>1172.0</ele><time>2026-03-22T13:31:36.999Z</time></trkpt><trkpt lat="42.33386082203795" lon="12.743698838756732"><ele>1172.0</ele><time>2026-03-22T13:32:08Z</time></trkpt><trkpt lat="42.33391862426635" lon="12.743659936638963"><ele>1172.0</ele><time>2026-03-22T13:32:11Z</time></trkpt><trkpt lat="42.33398067315858" lon="12.74361402178597"><ele>1172.0</ele><time>2026-03-22T13:32:13Z</time></trkpt><trkpt lat="42.33402084526416" lon="12.743546944060741"><ele>1171.9999999999998</ele><time>2026-03-22T13:32:15Z</time></trkpt><trkpt lat="42.334078961571535" lon="12.743492316206089"><ele>1172.0</ele><time>2026-03-22T13:32:17.999Z</time></trkpt><trkpt lat="42.33412597247372" lon="12.743401896754587"><ele>1172.3333333333335</ele><time>2026-03-22T13:32:20.999Z</time></trkpt><trkpt lat="42.33416497733194" lon="12.743320186298417"><ele>1172.6666666666667</ele><time>2026-03-22T13:32:22.999Z</time></trkpt><trkpt lat="42.334223005496725" lon="12.743239459615918"><ele>1173.0</ele><time>2026-03-22T13:32:24.999Z</time></trkpt><trkpt lat="42.3342555655854" lon="12.743143794448374"><ele>1173.3333333333333</ele><time>2026-03-22T13:32:26.999Z</time></trkpt><trkpt lat="42.334271657001864" lon="12.743035640015552"><ele>1173.6666666666665</ele><time>2026-03-22T13:32:29.999Z</time></trkpt><trkpt lat="42.33433869123895" lon="12.74297129560904"><ele>1174.0</ele><time>2026-03-22T13:32:32.999Z</time></trkpt><trkpt lat="42.3343528133389" lon="12.742864498070638"><ele>1174.0</ele><time>2026-03-22T13:32:35.999Z</time></trkpt><trkpt lat="42.334376925054265" lon="12.742752665023426"><ele>1174.0</ele><time>2026-03-22T13:32:38.999Z</time></trkpt><trkpt lat="42.334386951989416" lon="12.742628293026597"><ele>1174.0</ele><time>2026-03-22T13:32:41.999Z</time></trkpt><trkpt lat="42.33438950475832" lon="12.742481236712903"><ele>1174.0</ele><time>2026-03-22T13:32:44.999Z</time></trkpt><trkpt lat="42.334444175049626" lon="12.74241134941992"><ele>1174.0</ele><time>2026-03-22T13:32:46.999Z</time></trkpt><trkpt lat="42.33447902168763" lon="12.742321589817635"><ele>1174.0</ele><time>2026-03-22T13:32:48.999Z</time></trkpt><trkpt lat="42.33450724177629" lon="12.742219927246813"><ele>1173.8333333333333</ele><time>2026-03-22T13:32:50.999Z</time></trkpt><trkpt lat="42.33449139771898" lon="12.742123455500998"><ele>1173.6666666666665</ele><time>2026-03-22T13:32:52.999Z</time></trkpt><trkpt lat="42.33449716307057" lon="12.742026607961247"><ele>1173.5</ele><time>2026-03-22T13:32:53.999Z</time></trkpt><trkpt lat="42.33452325220485" lon="12.74190578524285"><ele>1173.3333333333333</ele><time>2026-03-22T13:32:54.999Z</time></trkpt><trkpt lat="42.33455887512374" lon="12.741802615107174"><ele>1173.1666666666667</ele><time>2026-03-22T13:32:55.999Z</time></trkpt><trkpt lat="42.33462872806933" lon="12.741675954349327"><ele>1173.0</ele><time>2026-03-22T13:32:56.999Z</time></trkpt><trkpt lat="42.33468037556221" lon="12.741578221618198"><ele>1168.4</ele><time>2026-03-22T13:32:57.999Z</time></trkpt><trkpt lat="42.334729309233786" lon="12.741481473636144"><ele>1163.8</ele><time>2026-03-22T13:32:58.999Z</time></trkpt><trkpt lat="42.33478965836336" lon="12.74132318185848"><ele>1159.2</ele><time>2026-03-22T13:33:00.999Z</time></trkpt><trkpt lat="42.334855907569946" lon="12.741193915900427"><ele>1154.6</ele><time>2026-03-22T13:33:02.999Z</time></trkpt><trkpt lat="42.33487735180913" lon="12.741067420140741"><ele>1150.0</ele><time>2026-03-22T13:33:04.999Z</time></trkpt><trkpt lat="42.33488142540976" lon="12.74094546962341"><ele>1148.8333333333333</ele><time>2026-03-22T13:33:07.999Z</time></trkpt><trkpt lat="42.33490690130468" lon="12.7408285356917"><ele>1147.6666666666665</ele><time>2026-03-22T13:33:09.999Z</time></trkpt><trkpt lat="42.33492402666722" lon="12.740742232514751"><ele>1146.5</ele><time>2026-03-22T13:33:10.999Z</time></trkpt><trkpt lat="42.33493178995496" lon="12.740624161788372"><ele>1145.3333333333333</ele><time>2026-03-22T13:33:12.999Z</time></trkpt><trkpt lat="42.33493333500776" lon="12.740517417774237"><ele>1144.1666666666667</ele><time>2026-03-22T13:33:13.999Z</time></trkpt><trkpt lat="42.334943123075696" lon="12.740411545437354"><ele>1143.0</ele><time>2026-03-22T13:33:14.999Z</time></trkpt><trkpt lat="42.334955706759786" lon="12.740267648074644"><ele>1141.8333333333333</ele><time>2026-03-22T13:33:16.999Z</time></trkpt><trkpt lat="42.33494045827531" lon="12.740166257933671"><ele>1140.6666666666667</ele><time>2026-03-22T13:33:18.999Z</time></trkpt><trkpt lat="42.33491209613294" lon="12.740051456683545"><ele>1139.5</ele><time>2026-03-22T13:33:20.999Z</time></trkpt><trkpt lat="42.334874958545434" lon="12.739957862050657"><ele>1138.3333333333335</ele><time>2026-03-22T13:33:21.999Z</time></trkpt><trkpt lat="42.334858438208656" lon="12.739869541983873"><ele>1137.1666666666667</ele><time>2026-03-22T13:33:22.999Z</time></trkpt><trkpt lat="42.334853681466086" lon="12.739781064402319"><ele>1136.0</ele><time>2026-03-22T13:33:23.999Z</time></trkpt><trkpt lat="42.334849940533566" lon="12.739669136266558"><ele>1136.0</ele><time>2026-03-22T13:33:25.999Z</time></trkpt><trkpt lat="42.33484477396843" lon="12.739559180261253"><ele>1136.0</ele><time>2026-03-22T13:33:27.999Z</time></trkpt><trkpt lat="42.33483672384196" lon="12.739458051538284"><ele>1136.0</ele><time>2026-03-22T13:33:30.999Z</time></trkpt><trkpt lat="42.33483516430399" lon="12.739371417144168"><ele>1136.0</ele><time>2026-03-22T13:33:33.999Z</time></trkpt><trkpt lat="42.33485048288546" lon="12.739263118687377"><ele>1136.0</ele><time>2026-03-22T13:33:59Z</time></trkpt><trkpt lat="42.3348364816885" lon="12.7391372564663"><ele>1136.0</ele><time>2026-03-22T13:34:03Z</time></trkpt><trkpt lat="42.334835626371046" lon="12.739047710607858"><ele>1134.3333333333335</ele><time>2026-03-22T13:34:06Z</time></trkpt><trkpt lat="42.33481643772354" lon="12.73893643415981"><ele>1132.6666666666667</ele><time>2026-03-22T13:34:07.999Z</time></trkpt><trkpt lat="42.33480707025848" lon="12.738832787956348"><ele>1131.0</ele><time>2026-03-22T13:34:10.999Z</time></trkpt><trkpt lat="42.334779985036064" lon="12.73874796040908"><ele>1129.3333333333333</ele><time>2026-03-22T13:34:12.999Z</time></trkpt><trkpt lat="42.33472586593332" lon="12.738624240958671"><ele>1127.6666666666665</ele><time>2026-03-22T13:34:14.999Z</time></trkpt><trkpt lat="42.33469044439997" lon="12.738519812968528"><ele>1126.0</ele><time>2026-03-22T13:34:15.999Z</time></trkpt><trkpt lat="42.33465285196007" lon="12.738436177760642"><ele>1126.0</ele><time>2026-03-22T13:34:16.999Z</time></trkpt><trkpt lat="42.33463485585314" lon="12.738345721477831"><ele>1126.0</ele><time>2026-03-22T13:34:17.999Z</time></trkpt><trkpt lat="42.33462078530227" lon="12.738229675168514"><ele>1126.0</ele><time>2026-03-22T13:34:19.999Z</time></trkpt><trkpt lat="42.33465829647178" lon="12.738108534879231"><ele>1126.0</ele><time>2026-03-22T13:34:21.999Z</time></trkpt><trkpt lat="42.3346423744638" lon="12.737975221645844"><ele>1126.0</ele><time>2026-03-22T13:34:23.999Z</time></trkpt><trkpt lat="42.33462365141488" lon="12.737822365203016"><ele>1125.0</ele><time>2026-03-22T13:34:24.999Z</time></trkpt><trkpt lat="42.334586212184576" lon="12.737627319413432"><ele>1124.0</ele><time>2026-03-22T13:34:25.999Z</time></trkpt><trkpt lat="42.33454859844803" lon="12.737480960616482"><ele>1123.0</ele><time>2026-03-22T13:34:26.999Z</time></trkpt><trkpt lat="42.33453710526759" lon="12.73733859316541"><ele>1122.0</ele><time>2026-03-22T13:34:27.999Z</time></trkpt><trkpt lat="42.334529849560916" lon="12.737246952423801"><ele>1121.0</ele><time>2026-03-22T13:34:28.999Z</time></trkpt><trkpt lat="42.334545786835356" lon="12.737118702385704"><ele>1121.0</ele><time>2026-03-22T13:34:29.999Z</time></trkpt><trkpt lat="42.33454242774477" lon="12.737023155619069"><ele>1121.0</ele><time>2026-03-22T13:34:30.999Z</time></trkpt><trkpt lat="42.33455510407779" lon="12.73690166391217"><ele>1121.0</ele><time>2026-03-22T13:34:31.999Z</time></trkpt><trkpt lat="42.33457866455335" lon="12.73678604204018"><ele>1121.0</ele><time>2026-03-22T13:34:32.999Z</time></trkpt><trkpt lat="42.33459912501639" lon="12.736696344993113"><ele>1121.0</ele><time>2026-03-22T13:34:33.999Z</time></trkpt><trkpt lat="42.33462044672013" lon="12.736614661244039"><ele>1121.0</ele><time>2026-03-22T13:34:34.999Z</time></trkpt><trkpt lat="42.334672013957785" lon="12.736536268299474"><ele>1120.8333333333335</ele><time>2026-03-22T13:34:35.999Z</time></trkpt><trkpt lat="42.33468666727414" lon="12.736427231046873"><ele>1120.6666666666667</ele><time>2026-03-22T13:34:36.999Z</time></trkpt><trkpt lat="42.33470121960623" lon="12.736329927985114"><ele>1120.5</ele><time>2026-03-22T13:34:37.999Z</time></trkpt><trkpt lat="42.33471983383148" lon="12.736245708360517"><ele>1120.3333333333333</ele><time>2026-03-22T13:34:38.999Z</time></trkpt><trkpt lat="42.33475010498076" lon="12.736094315345289"><ele>1120.1666666666665</ele><time>2026-03-22T13:34:40.999Z</time></trkpt><trkpt lat="42.33479081397186" lon="12.735963593653675"><ele>1120.0</ele><time>2026-03-22T13:34:42.999Z</time></trkpt><trkpt lat="42.33481531973088" lon="12.735883386476276"><ele>1115.1666666666665</ele><time>2026-03-22T13:34:43.999Z</time></trkpt><trkpt lat="42.334838798057525" lon="12.735800125626838"><ele>1110.3333333333333</ele><time>2026-03-22T13:34:44.999Z</time></trkpt><trkpt lat="42.33490366283211" lon="12.735702230970176"><ele>1105.5</ele><time>2026-03-22T13:34:46.999Z</time></trkpt><trkpt lat="42.335014276786495" lon="12.735676212050663"><ele>1100.6666666666667</ele><time>2026-03-22T13:34:48.999Z</time></trkpt><trkpt lat="42.33507702828769" lon="12.73569471995985"><ele>1095.8333333333335</ele><time>2026-03-22T13:34:49.999Z</time></trkpt><trkpt lat="42.3351519639035" lon="12.735695300669484"><ele>1091.0</ele><time>2026-03-22T13:34:50.999Z</time></trkpt><trkpt lat="42.33522767824928" lon="12.735708670333858"><ele>1091.0</ele><time>2026-03-22T13:34:51.999Z</time></trkpt><trkpt lat="42.33529987614988" lon="12.735733206733013"><ele>1091.0</ele><time>2026-03-22T13:34:52.999Z</time></trkpt><trkpt lat="42.335362990806786" lon="12.73575460880075"><ele>1091.0</ele><time>2026-03-22T13:34:53.999Z</time></trkpt><trkpt lat="42.335462522350504" lon="12.735744786579186"><ele>1091.0</ele><time>2026-03-22T13:34:55.999Z</time></trkpt><trkpt lat="42.335543530440894" lon="12.735734380556716"><ele>1091.0</ele><time>2026-03-22T13:34:57.999Z</time></trkpt><trkpt lat="42.33560596664314" lon="12.735759846855721"><ele>1091.0</ele><time>2026-03-22T13:35:00.999Z</time></trkpt><trkpt lat="42.335703956706965" lon="12.735811765894962"><ele>1089.0</ele><time>2026-03-22T13:36:25.999Z</time></trkpt><trkpt lat="42.3357878986406" lon="12.735840342420323"><ele>1087.0</ele><time>2026-03-22T13:36:26.999Z</time></trkpt><trkpt lat="42.33589938195702" lon="12.735884938100131"><ele>1085.0</ele><time>2026-03-22T13:36:27.999Z</time></trkpt><trkpt lat="42.33600823948496" lon="12.735925255117442"><ele>1083.0</ele><time>2026-03-22T13:36:28.999Z</time></trkpt><trkpt lat="42.336122744775544" lon="12.735941630671086"><ele>1081.0</ele><time>2026-03-22T13:36:29.999Z</time></trkpt><trkpt lat="42.33623648488977" lon="12.735933326098275"><ele>1081.0</ele><time>2026-03-22T13:36:30.999Z</time></trkpt><trkpt lat="42.3363539822034" lon="12.735922509001332"><ele>1081.0</ele><time>2026-03-22T13:36:31.999Z</time></trkpt><trkpt lat="42.336476479960446" lon="12.735916568593526"><ele>1081.0</ele><time>2026-03-22T13:36:32.999Z</time></trkpt><trkpt lat="42.336599803621915" lon="12.735920388623278"><ele>1081.0</ele><time>2026-03-22T13:36:33.999Z</time></trkpt><trkpt lat="42.33672759832672" lon="12.735940445565223"><ele>1081.75</ele><time>2026-03-22T13:36:34.999Z</time></trkpt><trkpt lat="42.336852523546064" lon="12.735957389456562"><ele>1082.5</ele><time>2026-03-22T13:36:35.999Z</time></trkpt><trkpt lat="42.33696787940683" lon="12.73596358923723"><ele>1083.25</ele><time>2026-03-22T13:36:36.999Z</time></trkpt><trkpt lat="42.337070057274794" lon="12.735968997055314"><ele>1084.0</ele><time>2026-03-22T13:36:37.999Z</time></trkpt><trkpt lat="42.337192941168674" lon="12.735991064506186"><ele>1086.0</ele><time>2026-03-22T13:36:38.999Z</time></trkpt><trkpt lat="42.33734559493344" lon="12.736012290039547"><ele>1088.0</ele><time>2026-03-22T13:36:39.999Z</time></trkpt><trkpt lat="42.33751880083131" lon="12.736044206522996"><ele>1090.0</ele><time>2026-03-22T13:36:40.999Z</time></trkpt><trkpt lat="42.33768247575226" lon="12.736090850160046"><ele>1095.3333333333333</ele><time>2026-03-22T13:36:41.999Z</time></trkpt><trkpt lat="42.33788520238995" lon="12.736124733957482"><ele>1100.6666666666667</ele><time>2026-03-22T13:36:42.999Z</time></trkpt><trkpt lat="42.33805710015" lon="12.736167155753746"><ele>1106.0</ele><time>2026-03-22T13:36:43.999Z</time></trkpt><trkpt lat="42.33819495212131" lon="12.736196852211002"><ele>1107.75</ele><time>2026-03-22T13:36:44.999Z</time></trkpt><trkpt lat="42.33831878599741" lon="12.736236164110428"><ele>1109.5</ele><time>2026-03-22T13:36:45.999Z</time></trkpt><trkpt lat="42.33843657139558" lon="12.736287136704926"><ele>1111.25</ele><time>2026-03-22T13:36:46.999Z</time></trkpt><trkpt lat="42.33857452132316" lon="12.736314167635992"><ele>1113.0</ele><time>2026-03-22T13:36:47.999Z</time></trkpt><trkpt lat="42.33870064331145" lon="12.736331239559929"><ele>1113.0</ele><time>2026-03-22T13:36:48.999Z</time></trkpt><trkpt lat="42.338779633033134" lon="12.736355328958926"><ele>1113.0</ele><time>2026-03-22T13:36:49.999Z</time></trkpt><trkpt lat="42.33885171267127" lon="12.73639134091338"><ele>1113.0</ele><time>2026-03-22T13:36:50.999Z</time></trkpt><trkpt lat="42.33895655605141" lon="12.73643162172837"><ele>1113.0</ele><time>2026-03-22T13:36:52.999Z</time></trkpt><trkpt lat="42.33908311461739" lon="12.736466549026321"><ele>1113.0</ele><time>2026-03-22T13:36:54.999Z</time></trkpt><trkpt lat="42.33916778567001" lon="12.736484418390598"><ele>1113.1666666666667</ele><time>2026-03-22T13:36:55.999Z</time></trkpt><trkpt lat="42.3392549375732" lon="12.736511264987293"><ele>1113.3333333333333</ele><time>2026-03-22T13:36:56.999Z</time></trkpt><trkpt lat="42.33933647535203" lon="12.736540253782504"><ele>1113.5</ele><time>2026-03-22T13:36:57.999Z</time></trkpt><trkpt lat="42.339403670540534" lon="12.736578034414793"><ele>1113.6666666666665</ele><time>2026-03-22T13:36:58.999Z</time></trkpt><trkpt lat="42.3394752571547" lon="12.736614866738527"><ele>1113.8333333333333</ele><time>2026-03-22T13:36:59.999Z</time></trkpt><trkpt lat="42.33954673331956" lon="12.736663260581494"><ele>1114.0</ele><time>2026-03-22T13:37:00.999Z</time></trkpt><trkpt lat="42.33962232953779" lon="12.736717956483185"><ele>1114.0</ele><time>2026-03-22T13:37:01.999Z</time></trkpt><trkpt lat="42.33970111460701" lon="12.736764046834557"><ele>1114.0</ele><time>2026-03-22T13:37:02.999Z</time></trkpt><trkpt lat="42.339783486611935" lon="12.736805025594123"><ele>1114.0</ele><time>2026-03-22T13:37:03.999Z</time></trkpt><trkpt lat="42.33986559360398" lon="12.736838937652404"><ele>1114.0</ele><time>2026-03-22T13:37:04.999Z</time></trkpt><trkpt lat="42.33994318931875" lon="12.73687457937289"><ele>1114.0</ele><time>2026-03-22T13:37:05.999Z</time></trkpt><trkpt lat="42.340027781891415" lon="12.73689761338845"><ele>1114.0</ele><time>2026-03-22T13:37:06.999Z</time></trkpt><trkpt lat="42.34011771802699" lon="12.736922812723202"><ele>1116.3333333333333</ele><time>2026-03-22T13:37:07.999Z</time></trkpt><trkpt lat="42.340215399399916" lon="12.7369436192027"><ele>1118.6666666666665</ele><time>2026-03-22T13:37:08.999Z</time></trkpt><trkpt lat="42.340294085762665" lon="12.73696648485649"><ele>1121.0</ele><time>2026-03-22T13:37:09.999Z</time></trkpt><trkpt lat="42.340367445417414" lon="12.736994796844485"><ele>1123.3333333333333</ele><time>2026-03-22T13:37:10.999Z</time></trkpt><trkpt lat="42.34043216345276" lon="12.73700903590352"><ele>1125.6666666666667</ele><time>2026-03-22T13:37:11.999Z</time></trkpt><trkpt lat="42.34049743417525" lon="12.73699625869643"><ele>1128.0</ele><time>2026-03-22T13:37:12.999Z</time></trkpt><trkpt lat="42.340559128007506" lon="12.736955521735725"><ele>1128.1666666666667</ele><time>2026-03-22T13:37:13.999Z</time></trkpt><trkpt lat="42.34060999451373" lon="12.73687386297518"><ele>1128.3333333333333</ele><time>2026-03-22T13:37:14.999Z</time></trkpt><trkpt lat="42.34065830821535" lon="12.736788942199865"><ele>1128.5</ele><time>2026-03-22T13:37:15.999Z</time></trkpt><trkpt lat="42.34071193213587" lon="12.73667392755388"><ele>1128.6666666666665</ele><time>2026-03-22T13:37:16.999Z</time></trkpt><trkpt lat="42.34075442136563" lon="12.736551371790261"><ele>1128.8333333333333</ele><time>2026-03-22T13:37:17.999Z</time></trkpt><trkpt lat="42.340804948466854" lon="12.736450562621632"><ele>1129.0</ele><time>2026-03-22T13:37:18.999Z</time></trkpt><trkpt lat="42.34084572218733" lon="12.736354521606112"><ele>1129.0</ele><time>2026-03-22T13:37:19.999Z</time></trkpt><trkpt lat="42.340886296023484" lon="12.736256032633749"><ele>1129.0</ele><time>2026-03-22T13:37:20.999Z</time></trkpt><trkpt lat="42.34092369313362" lon="12.736156429011457"><ele>1129.0</ele><time>2026-03-22T13:37:21.999Z</time></trkpt><trkpt lat="42.34095382821147" lon="12.736056949449488"><ele>1129.0</ele><time>2026-03-22T13:37:22.999Z</time></trkpt><trkpt lat="42.34096109545005" lon="12.735959419437886"><ele>1129.0</ele><time>2026-03-22T13:37:23.999Z</time></trkpt><trkpt lat="42.34096499221184" lon="12.735798138673067"><ele>1129.0</ele><time>2026-03-22T13:37:25.999Z</time></trkpt><trkpt lat="42.340976906277625" lon="12.73565377899738"><ele>1131.6666666666665</ele><time>2026-03-22T13:37:27.999Z</time></trkpt><trkpt lat="42.340970340307976" lon="12.735532669120317"><ele>1134.3333333333333</ele><time>2026-03-22T13:37:29.999Z</time></trkpt><trkpt lat="42.340944645724974" lon="12.735445507596882"><ele>1137.0</ele><time>2026-03-22T13:37:31.999Z</time></trkpt><trkpt lat="42.34091384874767" lon="12.735368406562582"><ele>1139.6666666666667</ele><time>2026-03-22T13:37:35.999Z</time></trkpt><trkpt lat="42.340881730704545" lon="12.735268995880737"><ele>1142.3333333333335</ele><time>2026-03-22T13:37:53.999Z</time></trkpt><trkpt lat="42.34080764769955" lon="12.735206797462782"><ele>1145.0</ele><time>2026-03-22T13:37:56.999Z</time></trkpt><trkpt lat="42.340755431417335" lon="12.73514867467396"><ele>1149.0</ele><time>2026-03-22T13:37:58.999Z</time></trkpt><trkpt lat="42.34069613399062" lon="12.73505797931357"><ele>1153.0</ele><time>2026-03-22T13:38:01.999Z</time></trkpt><trkpt lat="42.34065684736314" lon="12.734979641264896"><ele>1157.0</ele><time>2026-03-22T13:38:03.999Z</time></trkpt><trkpt lat="42.34063541789238" lon="12.734879676083898"><ele>1161.0</ele><time>2026-03-22T13:38:06.999Z</time></trkpt><trkpt lat="42.340638887832476" lon="12.734784489329241"><ele>1165.0</ele><time>2026-03-22T13:38:08.999Z</time></trkpt><trkpt lat="42.340643225781406" lon="12.734672855700639"><ele>1169.0</ele><time>2026-03-22T13:38:10.999Z</time></trkpt><trkpt lat="42.34065439939858" lon="12.734576064557878"><ele>1169.0</ele><time>2026-03-22T13:38:13.999Z</time></trkpt><trkpt lat="42.340694564383334" lon="12.734460487449857"><ele>1169.0</ele><time>2026-03-22T13:38:16.999Z</time></trkpt><trkpt lat="42.34071195072714" lon="12.734378609890745"><ele>1169.0</ele><time>2026-03-22T13:38:18.999Z</time></trkpt><trkpt lat="42.34064174458856" lon="12.73431099279544"><ele>1169.0</ele><time>2026-03-22T13:38:21.999Z</time></trkpt><trkpt lat="42.34057411305339" lon="12.734280891826913"><ele>1169.0</ele><time>2026-03-22T13:38:24.999Z</time></trkpt><trkpt lat="42.34050212590792" lon="12.73425421788611"><ele>1169.0</ele><time>2026-03-22T13:38:27.999Z</time></trkpt><trkpt lat="42.34043373707688" lon="12.734200546078508"><ele>1169.0</ele><time>2026-03-22T13:38:44.999Z</time></trkpt><trkpt lat="42.34037967688744" lon="12.734136724680239"><ele>1169.0</ele><time>2026-03-22T13:38:48.999Z</time></trkpt><trkpt lat="42.34041733545108" lon="12.734059540831046"><ele>1169.0</ele><time>2026-03-22T13:38:53.999Z</time></trkpt><trkpt lat="42.34049754817834" lon="12.734034587445802"><ele>1169.0</ele><time>2026-03-22T13:38:56.999Z</time></trkpt><trkpt lat="42.34057221529465" lon="12.733979219469234"><ele>1169.0</ele><time>2026-03-22T13:38:59.999Z</time></trkpt><trkpt lat="42.34063533954335" lon="12.734013396412367"><ele>1169.0</ele><time>2026-03-22T13:39:20.999Z</time></trkpt><trkpt lat="42.34071606032626" lon="12.734029173580165"><ele>1171.142857142857</ele><time>2026-03-22T13:39:23.999Z</time></trkpt><trkpt lat="42.34077775149683" lon="12.734092858905848"><ele>1173.2857142857142</ele><time>2026-03-22T13:39:25.999Z</time></trkpt><trkpt lat="42.3408288461835" lon="12.734147349807383"><ele>1175.4285714285716</ele><time>2026-03-22T13:39:27.999Z</time></trkpt><trkpt lat="42.3408890456108" lon="12.734226011757771"><ele>1177.5714285714284</ele><time>2026-03-22T13:39:31.999Z</time></trkpt><trkpt lat="42.34095769036601" lon="12.734277793738164"><ele>1179.7142857142858</ele><time>2026-03-22T13:39:34.999Z</time></trkpt><trkpt lat="42.340998460489274" lon="12.73420485488332"><ele>1181.857142857143</ele><time>2026-03-22T13:39:38.999Z</time></trkpt><trkpt lat="42.340998137673814" lon="12.734113127501248"><ele>1184.0</ele><time>2026-03-22T13:39:40.999Z</time></trkpt><trkpt lat="42.34100672500398" lon="12.73400971309081"><ele>1184.0</ele><time>2026-03-22T13:39:42.999Z</time></trkpt><trkpt lat="42.34104759114089" lon="12.733903790471917"><ele>1184.0</ele><time>2026-03-22T13:39:45.999Z</time></trkpt><trkpt lat="42.341059776157266" lon="12.733816567918824"><ele>1184.0</ele><time>2026-03-22T13:39:47.999Z</time></trkpt><trkpt lat="42.34105544321117" lon="12.733728353834751"><ele>1184.0</ele><time>2026-03-22T13:39:49.999Z</time></trkpt><trkpt lat="42.341070355329805" lon="12.733599177218899"><ele>1184.0</ele><time>2026-03-22T13:39:51.999Z</time></trkpt><trkpt lat="42.34108070156829" lon="12.733453635574989"><ele>1184.0</ele><time>2026-03-22T13:39:53.999Z</time></trkpt><trkpt lat="42.341083875818796" lon="12.733323373334926"><ele>1186.4285714285716</ele><time>2026-03-22T13:39:55.999Z</time></trkpt><trkpt lat="42.34110185504771" lon="12.733223770709444"><ele>1188.857142857143</ele><time>2026-03-22T13:39:57.999Z</time></trkpt><trkpt lat="42.341140532719336" lon="12.733134402638134"><ele>1191.2857142857142</ele><time>2026-03-22T13:39:59.999Z</time></trkpt><trkpt lat="42.341168393356405" lon="12.733037342723849"><ele>1193.7142857142858</ele><time>2026-03-22T13:40:01.999Z</time></trkpt><trkpt lat="42.34120065555779" lon="12.732943058109711"><ele>1196.142857142857</ele><time>2026-03-22T13:40:03.999Z</time></trkpt><trkpt lat="42.341211829177844" lon="12.732846513573287"><ele>1198.5714285714287</ele><time>2026-03-22T13:40:06.999Z</time></trkpt><trkpt lat="42.34125078242051" lon="12.73277380144621"><ele>1201.0</ele><time>2026-03-22T13:40:08.999Z</time></trkpt><trkpt lat="42.34129016193383" lon="12.732684754276908"><ele>1204.1428571428573</ele><time>2026-03-22T13:40:11.999Z</time></trkpt><trkpt lat="42.34126145286511" lon="12.732579769850917"><ele>1207.2857142857142</ele><time>2026-03-22T13:40:14.999Z</time></trkpt><trkpt lat="42.34121548297335" lon="12.732516429054725"><ele>1210.4285714285716</ele><time>2026-03-22T13:40:44.999Z</time></trkpt><trkpt lat="42.34126257123463" lon="12.73243472488516"><ele>1213.5714285714287</ele><time>2026-03-22T13:40:54.999Z</time></trkpt><trkpt lat="42.34130494693569" lon="12.732366977020629"><ele>1216.7142857142858</ele><time>2026-03-22T13:41:03.999Z</time></trkpt><trkpt lat="42.34137076385765" lon="12.732367077172908"><ele>1219.857142857143</ele><time>2026-03-22T13:43:33.999Z</time></trkpt><trkpt lat="42.341432640930414" lon="12.732387648519412"><ele>1223.0</ele><time>2026-03-22T13:43:57.999Z</time></trkpt><trkpt lat="42.34150186406478" lon="12.732399476415601"><ele>1224.0</ele><time>2026-03-22T13:44:04.999Z</time></trkpt><trkpt lat="42.34156009078679" lon="12.73234882806988"><ele>1225.0</ele><time>2026-03-22T13:44:35.999Z</time></trkpt><trkpt lat="42.3415938644323" lon="12.732274404820247"><ele>1226.0</ele><time>2026-03-22T13:44:39.999Z</time></trkpt><trkpt lat="42.34163339768466" lon="12.732187482276833"><ele>1227.0</ele><time>2026-03-22T13:44:54.999Z</time></trkpt><trkpt lat="42.34161209499683" lon="12.732082727625222"><ele>1228.0</ele><time>2026-03-22T13:44:59.999Z</time></trkpt><trkpt lat="42.34159295320795" lon="12.731968248964137"><ele>1229.0</ele><time>2026-03-22T13:45:02.999Z</time></trkpt><trkpt lat="42.34159745859841" lon="12.731863010417067"><ele>1229.0000000000002</ele><time>2026-03-22T13:45:05.999Z</time></trkpt><trkpt lat="42.34156738305829" lon="12.731779575192567"><ele>1229.0</ele><time>2026-03-22T13:45:07.999Z</time></trkpt><trkpt lat="42.34155586342095" lon="12.731680505153612"><ele>1229.0</ele><time>2026-03-22T13:45:11Z</time></trkpt><trkpt lat="42.34150374098512" lon="12.731619446054511"><ele>1229.0</ele><time>2026-03-22T13:45:15Z</time></trkpt><trkpt lat="42.34157395525735" lon="12.731685838362624"><ele>1229.0</ele><time>2026-03-22T13:46:43Z</time></trkpt><trkpt lat="42.341581896504955" lon="12.73179231135082"><ele>1229.0000000000002</ele><time>2026-03-22T13:46:45Z</time></trkpt><trkpt lat="42.3415933817284" lon="12.731880596792246"><ele>1229.0</ele><time>2026-03-22T13:46:48Z</time></trkpt><trkpt lat="42.34163733484545" lon="12.731999623871857"><ele>1229.0000000000002</ele><time>2026-03-22T13:46:52Z</time></trkpt><trkpt lat="42.341661834376744" lon="12.732083422108577"><ele>1229.0</ele><time>2026-03-22T13:46:54Z</time></trkpt><trkpt lat="42.341641744726715" lon="12.732164820320417"><ele>1229.0</ele><time>2026-03-22T13:47:10Z</time></trkpt><trkpt lat="42.341600384453294" lon="12.73206399515627"><ele>1229.0</ele><time>2026-03-22T13:48:38Z</time></trkpt><trkpt lat="42.341658765694085" lon="12.73211595122554"><ele>1229.0</ele><time>2026-03-22T13:50:48Z</time></trkpt><trkpt lat="42.34163894821593" lon="12.7320245513427"><ele>1229.0000000000002</ele><time>2026-03-22T13:51:29Z</time></trkpt><trkpt lat="42.34163541862936" lon="12.731928140862339"><ele>1229.0</ele><time>2026-03-22T13:51:31Z</time></trkpt><trkpt lat="42.3416112377255" lon="12.731829693605112"><ele>1231.7142857142858</ele><time>2026-03-22T13:51:33Z</time></trkpt><trkpt lat="42.3415930416561" lon="12.731708440091769"><ele>1234.4285714285716</ele><time>2026-03-22T13:51:35Z</time></trkpt><trkpt lat="42.34158070044405" lon="12.731624681635884"><ele>1237.1428571428573</ele><time>2026-03-22T13:51:37Z</time></trkpt><trkpt lat="42.34153157911181" lon="12.731551560063886"><ele>1239.857142857143</ele><time>2026-03-22T13:51:43Z</time></trkpt><trkpt lat="42.34154165247989" lon="12.731466734714632"><ele>1242.5714285714284</ele><time>2026-03-22T13:52:09Z</time></trkpt><trkpt lat="42.341612076959535" lon="12.731428315847692"><ele>1245.2857142857144</ele><time>2026-03-22T13:52:12Z</time></trkpt><trkpt lat="42.341671420541296" lon="12.731384779037421"><ele>1248.0</ele><time>2026-03-22T13:52:15Z</time></trkpt><trkpt lat="42.34172658263532" lon="12.731278513056044"><ele>1248.0</ele><time>2026-03-22T13:52:19Z</time></trkpt><trkpt lat="42.34168153807095" lon="12.73116199191285"><ele>1248.0</ele><time>2026-03-22T13:52:21Z</time></trkpt><trkpt lat="42.34159906786508" lon="12.731089699765104"><ele>1248.0</ele><time>2026-03-22T13:52:23Z</time></trkpt><trkpt lat="42.3415445541067" lon="12.730999887824389"><ele>1248.0</ele><time>2026-03-22T13:52:25Z</time></trkpt><trkpt lat="42.34150870994442" lon="12.730906898620646"><ele>1248.0</ele><time>2026-03-22T13:52:27Z</time></trkpt><trkpt lat="42.34156963414155" lon="12.730963568877065"><ele>1248.0</ele><time>2026-03-22T13:53:19Z</time></trkpt><trkpt lat="42.34151714975602" lon="12.730898517655765"><ele>1248.0</ele><time>2026-03-22T13:56:04Z</time></trkpt><trkpt lat="42.34155074602575" lon="12.730975065232474"><ele>1248.0</ele><time>2026-03-22T14:01:17.001Z</time></trkpt><trkpt lat="42.341510686010395" lon="12.730908235015693"><ele>1248.0</ele><time>2026-03-22T14:01:26.001Z</time></trkpt><trkpt lat="42.34158348715458" lon="12.730861353751733"><ele>1248.0</ele><time>2026-03-22T14:03:30.001Z</time></trkpt><trkpt lat="42.34162409487554" lon="12.730939458824748"><ele>1248.0</ele><time>2026-03-22T14:03:31.001Z</time></trkpt><trkpt lat="42.341672752230004" lon="12.731002483176843"><ele>1248.0</ele><time>2026-03-22T14:03:32.001Z</time></trkpt><trkpt lat="42.34175324002746" lon="12.731065755939182"><ele>1248.0</ele><time>2026-03-22T14:03:34.001Z</time></trkpt><trkpt lat="42.3418287741239" lon="12.73112115582501"><ele>1248.0</ele><time>2026-03-22T14:03:37.001Z</time></trkpt><trkpt lat="42.34189502953778" lon="12.73115657639844"><ele>1248.0</ele><time>2026-03-22T14:03:39.001Z</time></trkpt><trkpt lat="42.341980063661666" lon="12.731207192713171"><ele>1248.0</ele><time>2026-03-22T14:03:43.001Z</time></trkpt><trkpt lat="42.342063959141" lon="12.731242311917711"><ele>1248.0</ele><time>2026-03-22T14:03:45.001Z</time></trkpt><trkpt lat="42.342147736579086" lon="12.731249630421878"><ele>1248.0</ele><time>2026-03-22T14:03:47.001Z</time></trkpt><trkpt lat="42.342242531544926" lon="12.731218465217578"><ele>1248.0</ele><time>2026-03-22T14:03:50.001Z</time></trkpt><trkpt lat="42.34230816795626" lon="12.731200260099124"><ele>1247.3333333333333</ele><time>2026-03-22T14:03:53.001Z</time></trkpt><trkpt lat="42.34237359520872" lon="12.731186282128458"><ele>1246.6666666666667</ele><time>2026-03-22T14:03:55.001Z</time></trkpt><trkpt lat="42.342458325664786" lon="12.731162171017923"><ele>1246.0</ele><time>2026-03-22T14:03:58.001Z</time></trkpt><trkpt lat="42.34253472129706" lon="12.731153059757377"><ele>1245.3333333333335</ele><time>2026-03-22T14:04:01.001Z</time></trkpt><trkpt lat="42.34262185829031" lon="12.731126696532433"><ele>1244.6666666666667</ele><time>2026-03-22T14:04:04.001Z</time></trkpt><trkpt lat="42.34268889183202" lon="12.731152175876609"><ele>1244.0</ele><time>2026-03-22T14:04:07.001Z</time></trkpt><trkpt lat="42.34278053751798" lon="12.73112569192268"><ele>1244.0</ele><time>2026-03-22T14:04:08.001Z</time></trkpt><trkpt lat="42.34287507664742" lon="12.731187897933312"><ele>1244.0</ele><time>2026-03-22T14:04:10.001Z</time></trkpt><trkpt lat="42.34296919613299" lon="12.731245219301904"><ele>1244.0</ele><time>2026-03-22T14:04:12.001Z</time></trkpt><trkpt lat="42.343058130629565" lon="12.731237726683483"><ele>1244.0</ele><time>2026-03-22T14:04:14.001Z</time></trkpt><trkpt lat="42.34311345965491" lon="12.73117978761419"><ele>1244.0</ele><time>2026-03-22T14:04:16.001Z</time></trkpt><trkpt lat="42.343181761507246" lon="12.731141643948002"><ele>1244.0</ele><time>2026-03-22T14:04:19Z</time></trkpt><trkpt lat="42.34325241824763" lon="12.73117573119534"><ele>1241.0</ele><time>2026-03-22T14:04:27Z</time></trkpt><trkpt lat="42.3433001689735" lon="12.731112090521275"><ele>1238.0</ele><time>2026-03-22T14:04:30Z</time></trkpt><trkpt lat="42.343385696325754" lon="12.731092640745848"><ele>1235.0</ele><time>2026-03-22T14:04:33Z</time></trkpt><trkpt lat="42.34345035392673" lon="12.731068170219121"><ele>1232.0</ele><time>2026-03-22T14:04:36Z</time></trkpt><trkpt lat="42.343523027603574" lon="12.731048023244082"><ele>1229.0</ele><time>2026-03-22T14:04:38Z</time></trkpt><trkpt lat="42.34358028270257" lon="12.730992614722728"><ele>1226.0</ele><time>2026-03-22T14:04:41Z</time></trkpt><trkpt lat="42.34365745222447" lon="12.730941459970254"><ele>1226.0</ele><time>2026-03-22T14:04:43Z</time></trkpt><trkpt lat="42.34376486099633" lon="12.730926942515984"><ele>1226.0</ele><time>2026-03-22T14:05:10Z</time></trkpt><trkpt lat="42.34371207137045" lon="12.73097422285927"><ele>1226.0</ele><time>2026-03-22T14:05:15Z</time></trkpt><trkpt lat="42.34364548831118" lon="12.73095721519407"><ele>1226.0</ele><time>2026-03-22T14:05:17Z</time></trkpt><trkpt lat="42.34357592284754" lon="12.731001778172576"><ele>1226.0</ele><time>2026-03-22T14:05:20Z</time></trkpt><trkpt lat="42.343552092721886" lon="12.731113421595051"><ele>1226.0</ele><time>2026-03-22T14:05:23Z</time></trkpt><trkpt lat="42.34360545007259" lon="12.73116108324156"><ele>1226.0</ele><time>2026-03-22T14:05:26Z</time></trkpt><trkpt lat="42.34366487784079" lon="12.731192044492191"><ele>1226.0</ele><time>2026-03-22T14:06:48Z</time></trkpt><trkpt lat="42.34368518386036" lon="12.731105640678201"><ele>1226.0</ele><time>2026-03-22T14:07:04Z</time></trkpt><trkpt lat="42.34365734797385" lon="12.731021345492124"><ele>1226.0</ele><time>2026-03-22T14:07:06Z</time></trkpt><trkpt lat="42.34358899405408" lon="12.730969797620718"><ele>1226.0</ele><time>2026-03-22T14:07:08Z</time></trkpt><trkpt lat="42.34349899870301" lon="12.731036027479451"><ele>1226.0</ele><time>2026-03-22T14:07:10Z</time></trkpt><trkpt lat="42.34340271036586" lon="12.731088856272331"><ele>1226.0</ele><time>2026-03-22T14:07:12Z</time></trkpt><trkpt lat="42.34329393447472" lon="12.73112286995541"><ele>1226.0</ele><time>2026-03-22T14:07:14Z</time></trkpt><trkpt lat="42.34320789146125" lon="12.731154061507443"><ele>1226.0</ele><time>2026-03-22T14:07:16Z</time></trkpt><trkpt lat="42.34310753390416" lon="12.731189402230783"><ele>1226.0</ele><time>2026-03-22T14:07:18Z</time></trkpt><trkpt lat="42.34300223533325" lon="12.731233081046947"><ele>1226.0</ele><time>2026-03-22T14:07:20Z</time></trkpt><trkpt lat="42.34289431747484" lon="12.731303789980421"><ele>1229.0</ele><time>2026-03-22T14:07:22Z</time></trkpt><trkpt lat="42.34283279740733" lon="12.731329972532771"><ele>1232.0</ele><time>2026-03-22T14:07:23Z</time></trkpt><trkpt lat="42.34272827349486" lon="12.73134212514879"><ele>1235.0</ele><time>2026-03-22T14:07:25Z</time></trkpt><trkpt lat="42.34264475353637" lon="12.731320618943496"><ele>1238.0</ele><time>2026-03-22T14:07:27Z</time></trkpt><trkpt lat="42.34255045592092" lon="12.731325348112549"><ele>1241.0</ele><time>2026-03-22T14:07:29Z</time></trkpt><trkpt lat="42.342457820625896" lon="12.731348368296088"><ele>1244.0</ele><time>2026-03-22T14:07:31Z</time></trkpt><trkpt lat="42.34237171951281" lon="12.731342174072095"><ele>1244.0</ele><time>2026-03-22T14:07:33Z</time></trkpt><trkpt lat="42.34225310406067" lon="12.73133230091429"><ele>1244.0</ele><time>2026-03-22T14:07:35Z</time></trkpt><trkpt lat="42.34213558299549" lon="12.7312844219516"><ele>1244.0</ele><time>2026-03-22T14:07:37Z</time></trkpt><trkpt lat="42.34206247092628" lon="12.731223818829678"><ele>1244.0</ele><time>2026-03-22T14:07:39Z</time></trkpt><trkpt lat="42.3419870208678" lon="12.731210386910604"><ele>1244.0</ele><time>2026-03-22T14:07:41Z</time></trkpt><trkpt lat="42.3419259698663" lon="12.731167821848928"><ele>1244.8</ele><time>2026-03-22T14:07:43Z</time></trkpt><trkpt lat="42.3418545919116" lon="12.73111643577189"><ele>1245.6000000000001</ele><time>2026-03-22T14:07:46Z</time></trkpt><trkpt lat="42.34169274561399" lon="12.730999218884904"><ele>1246.4</ele><time>2026-03-22T14:07:48Z</time></trkpt><trkpt lat="42.34163540875778" lon="12.730933736790575"><ele>1247.2</ele><time>2026-03-22T14:07:50Z</time></trkpt><trkpt lat="42.341541603484686" lon="12.730899606135072"><ele>1248.0</ele><time>2026-03-22T14:07:53Z</time></trkpt><trkpt lat="42.34145415447377" lon="12.730873794366076"><ele>1248.4</ele><time>2026-03-22T14:07:55Z</time></trkpt><trkpt lat="42.341338747356865" lon="12.730910211592382"><ele>1248.8</ele><time>2026-03-22T14:07:57Z</time></trkpt><trkpt lat="42.34120574451604" lon="12.730942710612242"><ele>1249.2</ele><time>2026-03-22T14:07:59Z</time></trkpt><trkpt lat="42.341131626379806" lon="12.730945971150174"><ele>1249.6</ele><time>2026-03-22T14:08:00Z</time></trkpt><trkpt lat="42.34105491124808" lon="12.730937964229945"><ele>1250.0</ele><time>2026-03-22T14:08:01Z</time></trkpt><trkpt lat="42.34098830982233" lon="12.730923473324157"><ele>1250.0</ele><time>2026-03-22T14:08:02Z</time></trkpt><trkpt lat="42.34092254454864" lon="12.730882304752"><ele>1250.0</ele><time>2026-03-22T14:08:03Z</time></trkpt><trkpt lat="42.34086452648424" lon="12.730845124494651"><ele>1250.0</ele><time>2026-03-22T14:08:04Z</time></trkpt><trkpt lat="42.34076636116129" lon="12.73078375874572"><ele>1250.0</ele><time>2026-03-22T14:08:06Z</time></trkpt><trkpt lat="42.34065389750668" lon="12.730708392037823"><ele>1250.0</ele><time>2026-03-22T14:08:09Z</time></trkpt><trkpt lat="42.3405887370205" lon="12.73068033632978"><ele>1250.0</ele><time>2026-03-22T14:08:10Z</time></trkpt><trkpt lat="42.340526600765486" lon="12.730659438747239"><ele>1251.0</ele><time>2026-03-22T14:08:11Z</time></trkpt><trkpt lat="42.34042271250212" lon="12.730604898905167"><ele>1252.0</ele><time>2026-03-22T14:08:13Z</time></trkpt><trkpt lat="42.34031376510346" lon="12.730579797105458"><ele>1253.0</ele><time>2026-03-22T14:08:15Z</time></trkpt><trkpt lat="42.340190224785786" lon="12.730566791535496"><ele>1254.0</ele><time>2026-03-22T14:08:17Z</time></trkpt><trkpt lat="42.34008549150663" lon="12.730543207108536"><ele>1254.0</ele><time>2026-03-22T14:08:19Z</time></trkpt><trkpt lat="42.339977915009705" lon="12.730566522873376"><ele>1254.0</ele><time>2026-03-22T14:08:21Z</time></trkpt><trkpt lat="42.339900501523545" lon="12.730614189694608"><ele>1254.0</ele><time>2026-03-22T14:08:24Z</time></trkpt><trkpt lat="42.339820631803185" lon="12.730615533666507"><ele>1254.0</ele><time>2026-03-22T14:08:27Z</time></trkpt><trkpt lat="42.33974763887218" lon="12.730646015861623"><ele>1254.0</ele><time>2026-03-22T14:08:29Z</time></trkpt><trkpt lat="42.33967766423703" lon="12.730685649274509"><ele>1254.0</ele><time>2026-03-22T14:08:31Z</time></trkpt><trkpt lat="42.33959962941976" lon="12.730677980794557"><ele>1252.8333333333333</ele><time>2026-03-22T14:08:33Z</time></trkpt><trkpt lat="42.33952597473797" lon="12.730666209840807"><ele>1251.6666666666667</ele><time>2026-03-22T14:08:35Z</time></trkpt><trkpt lat="42.339449081439234" lon="12.730643193133119"><ele>1250.5</ele><time>2026-03-22T14:08:38Z</time></trkpt><trkpt lat="42.33938915753585" lon="12.730590131220763"><ele>1249.3333333333335</ele><time>2026-03-22T14:09:16Z</time></trkpt><trkpt lat="42.33933054893768" lon="12.730485845864724"><ele>1248.1666666666667</ele><time>2026-03-22T14:09:18Z</time></trkpt><trkpt lat="42.33927786661294" lon="12.73040463379944"><ele>1247.0</ele><time>2026-03-22T14:09:20Z</time></trkpt><trkpt lat="42.33921069706929" lon="12.730306488576492"><ele>1247.0</ele><time>2026-03-22T14:09:22.999Z</time></trkpt><trkpt lat="42.339167959994626" lon="12.730230922204093"><ele>1247.0</ele><time>2026-03-22T14:09:24.999Z</time></trkpt><trkpt lat="42.33914642339957" lon="12.730139369634886"><ele>1247.0</ele><time>2026-03-22T14:09:26.999Z</time></trkpt><trkpt lat="42.33908004693964" lon="12.730058572384301"><ele>1247.0</ele><time>2026-03-22T14:09:28.999Z</time></trkpt><trkpt lat="42.339014139176435" lon="12.72997283586075"><ele>1247.0</ele><time>2026-03-22T14:09:30.999Z</time></trkpt><trkpt lat="42.33895401506347" lon="12.72986224022385"><ele>1247.0</ele><time>2026-03-22T14:09:33.999Z</time></trkpt><trkpt lat="42.338926759554624" lon="12.729768055781994"><ele>1248.5</ele><time>2026-03-22T14:09:36.999Z</time></trkpt><trkpt lat="42.33887543780788" lon="12.729678652737357"><ele>1250.0</ele><time>2026-03-22T14:09:40Z</time></trkpt><trkpt lat="42.33878654993002" lon="12.729600801865514"><ele>1251.5</ele><time>2026-03-22T14:09:42Z</time></trkpt><trkpt lat="42.33869345975668" lon="12.729578143630988"><ele>1253.0</ele><time>2026-03-22T14:09:44Z</time></trkpt><trkpt lat="42.33861280395813" lon="12.729523915029253"><ele>1254.5</ele><time>2026-03-22T14:09:46Z</time></trkpt><trkpt lat="42.33855723839689" lon="12.729467540020014"><ele>1256.0</ele><time>2026-03-22T14:09:48Z</time></trkpt><trkpt lat="42.338482535825115" lon="12.7294190959726"><ele>1258.0</ele><time>2026-03-22T14:09:51Z</time></trkpt><trkpt lat="42.33842746268845" lon="12.729334446878628"><ele>1260.0</ele><time>2026-03-22T14:09:54Z</time></trkpt><trkpt lat="42.338371742098616" lon="12.729270063487585"><ele>1262.0</ele><time>2026-03-22T14:09:55Z</time></trkpt><trkpt lat="42.33825579529555" lon="12.72917011123889"><ele>1264.0</ele><time>2026-03-22T14:09:56Z</time></trkpt><trkpt lat="42.338209901508634" lon="12.72907532881315"><ele>1266.0</ele><time>2026-03-22T14:09:58Z</time></trkpt><trkpt lat="42.33813351196903" lon="12.729003257045363"><ele>1264.5</ele><time>2026-03-22T14:10:00Z</time></trkpt><trkpt lat="42.33803877956203" lon="12.728900805563372"><ele>1263.0</ele><time>2026-03-22T14:10:02Z</time></trkpt><trkpt lat="42.337988637962255" lon="12.728843961758729"><ele>1261.5</ele><time>2026-03-22T14:10:03Z</time></trkpt><trkpt lat="42.33794001619157" lon="12.728783198317789"><ele>1260.0</ele><time>2026-03-22T14:10:04Z</time></trkpt><trkpt lat="42.337891317110625" lon="12.728722675052126"><ele>1258.5</ele><time>2026-03-22T14:10:05Z</time></trkpt><trkpt lat="42.33784275237128" lon="12.728661356293456"><ele>1257.0</ele><time>2026-03-22T14:10:06Z</time></trkpt><trkpt lat="42.33776922830928" lon="12.72856024963082"><ele>1258.6</ele><time>2026-03-22T14:10:08Z</time></trkpt><trkpt lat="42.337713057633835" lon="12.728466723611415"><ele>1260.2</ele><time>2026-03-22T14:10:10Z</time></trkpt><trkpt lat="42.337656157175324" lon="12.728366676853545"><ele>1261.8</ele><time>2026-03-22T14:10:12Z</time></trkpt><trkpt lat="42.33758363200388" lon="12.728255934060865"><ele>1263.4</ele><time>2026-03-22T14:10:14Z</time></trkpt><trkpt lat="42.337548084103496" lon="12.728128145212587"><ele>1265.0</ele><time>2026-03-22T14:10:16Z</time></trkpt><trkpt lat="42.33752496603339" lon="12.728025045351622"><ele>1265.0</ele><time>2026-03-22T14:10:19Z</time></trkpt><trkpt lat="42.337563435857454" lon="12.727930430311195"><ele>1265.0</ele><time>2026-03-22T14:10:21Z</time></trkpt><trkpt lat="42.33756612110044" lon="12.727794070802538"><ele>1265.0</ele><time>2026-03-22T14:10:23Z</time></trkpt><trkpt lat="42.33758185515587" lon="12.727683894521212"><ele>1265.0</ele><time>2026-03-22T14:10:25Z</time></trkpt><trkpt lat="42.33758047100968" lon="12.72757480340271"><ele>1265.0</ele><time>2026-03-22T14:10:28Z</time></trkpt><trkpt lat="42.33752325415902" lon="12.727499732510969"><ele>1265.0</ele><time>2026-03-22T14:10:31Z</time></trkpt><trkpt lat="42.33745409756717" lon="12.727438426468082"><ele>1265.4285714285713</ele><time>2026-03-22T14:10:35Z</time></trkpt><trkpt lat="42.33740284147563" lon="12.727373424607709"><ele>1265.857142857143</ele><time>2026-03-22T14:10:37Z</time></trkpt><trkpt lat="42.33734142472137" lon="12.72728932726347"><ele>1266.2857142857142</ele><time>2026-03-22T14:10:39Z</time></trkpt><trkpt lat="42.33728731556025" lon="12.727242999690285"><ele>1266.7142857142858</ele><time>2026-03-22T14:10:41Z</time></trkpt><trkpt lat="42.33721970983575" lon="12.727181535539764"><ele>1267.142857142857</ele><time>2026-03-22T14:10:44Z</time></trkpt><trkpt lat="42.337168252089384" lon="12.727124301234072"><ele>1267.5714285714287</ele><time>2026-03-22T14:10:46Z</time></trkpt><trkpt lat="42.337120875747146" lon="12.727059836022915"><ele>1268.0</ele><time>2026-03-22T14:10:49Z</time></trkpt><trkpt lat="42.33707560713291" lon="12.726987871886463"><ele>1268.5</ele><time>2026-03-22T14:10:52Z</time></trkpt><trkpt lat="42.33702348084669" lon="12.72692564457329"><ele>1269.0</ele><time>2026-03-22T14:11:06Z</time></trkpt><trkpt lat="42.33697658602887" lon="12.726845003707853"><ele>1269.5</ele><time>2026-03-22T14:11:08Z</time></trkpt><trkpt lat="42.33691816997565" lon="12.726746448508719"><ele>1270.0</ele><time>2026-03-22T14:11:10Z</time></trkpt><trkpt lat="42.33687092317842" lon="12.726669043833423"><ele>1270.5</ele><time>2026-03-22T14:11:12Z</time></trkpt><trkpt lat="42.3368403138685" lon="12.726589016834884"><ele>1271.0</ele><time>2026-03-22T14:11:14Z</time></trkpt><trkpt lat="42.33680663645734" lon="12.726501764600714"><ele>1271.0</ele><time>2026-03-22T14:11:16Z</time></trkpt><trkpt lat="42.33673403992897" lon="12.726436480167598"><ele>1271.0</ele><time>2026-03-22T14:11:19Z</time></trkpt><trkpt lat="42.33666486613369" lon="12.726431571230462"><ele>1271.0</ele><time>2026-03-22T14:11:23Z</time></trkpt><trkpt lat="42.336599668360876" lon="12.726401468834133"><ele>1271.0</ele><time>2026-03-22T14:11:24.999Z</time></trkpt><trkpt lat="42.33652652294151" lon="12.726383092557967"><ele>1271.0</ele><time>2026-03-22T14:11:27.999Z</time></trkpt><trkpt lat="42.33646371894817" lon="12.726373209170319"><ele>1271.0</ele><time>2026-03-22T14:11:30.999Z</time></trkpt><trkpt lat="42.33636196251995" lon="12.726333586149055"><ele>1270.6</ele><time>2026-03-22T14:11:34.999Z</time></trkpt><trkpt lat="42.3362624919438" lon="12.726333928057615"><ele>1270.1999999999998</ele><time>2026-03-22T14:11:36.999Z</time></trkpt><trkpt lat="42.33616659114092" lon="12.726332483984905"><ele>1269.8000000000002</ele><time>2026-03-22T14:11:40.999Z</time></trkpt><trkpt lat="42.336013704144904" lon="12.726303455228882"><ele>1269.4</ele><time>2026-03-22T14:11:42.999Z</time></trkpt><trkpt lat="42.33591411441606" lon="12.72630497095018"><ele>1269.0</ele><time>2026-03-22T14:11:45Z</time></trkpt><trkpt lat="42.33582437418999" lon="12.726301018915269"><ele>1269.0</ele><time>2026-03-22T14:11:48Z</time></trkpt><trkpt lat="42.33576078433317" lon="12.726275260272732"><ele>1269.0</ele><time>2026-03-22T14:11:51Z</time></trkpt><trkpt lat="42.33570923176105" lon="12.726222379952405"><ele>1269.0</ele><time>2026-03-22T14:12:04Z</time></trkpt><trkpt lat="42.3356430006846" lon="12.726173453130237"><ele>1269.0</ele><time>2026-03-22T14:12:10Z</time></trkpt><trkpt lat="42.33555857106822" lon="12.72618816594714"><ele>1269.0</ele><time>2026-03-22T14:12:17Z</time></trkpt><trkpt lat="42.335497318999536" lon="12.726068903388876"><ele>1269.0</ele><time>2026-03-22T14:12:20Z</time></trkpt><trkpt lat="42.33543315332613" lon="12.726014442190817"><ele>1269.6666666666667</ele><time>2026-03-22T14:12:22Z</time></trkpt><trkpt lat="42.33539688428719" lon="12.72593752155722"><ele>1270.3333333333333</ele><time>2026-03-22T14:12:31Z</time></trkpt><trkpt lat="42.33529463605623" lon="12.725854748336879"><ele>1271.0</ele><time>2026-03-22T14:12:34Z</time></trkpt><trkpt lat="42.33522821521939" lon="12.725838250283973"><ele>1271.6666666666665</ele><time>2026-03-22T14:14:57Z</time></trkpt><trkpt lat="42.335151272772876" lon="12.72581570315778"><ele>1272.3333333333333</ele><time>2026-03-22T14:14:59Z</time></trkpt><trkpt lat="42.335088258852075" lon="12.725823247955782"><ele>1273.0</ele><time>2026-03-22T14:15:02Z</time></trkpt><trkpt lat="42.335030265311154" lon="12.725892909094766"><ele>1273.0</ele><time>2026-03-22T14:15:05Z</time></trkpt><trkpt lat="42.33500736728969" lon="12.725978983891359"><ele>1273.0</ele><time>2026-03-22T14:15:07Z</time></trkpt><trkpt lat="42.33496574073525" lon="12.726070528079116"><ele>1273.0</ele><time>2026-03-22T14:15:09Z</time></trkpt><trkpt lat="42.334913022496266" lon="12.726152600712911"><ele>1273.0</ele><time>2026-03-22T14:15:11Z</time></trkpt><trkpt lat="42.33486188330366" lon="12.726235714417736"><ele>1273.0</ele><time>2026-03-22T14:15:13Z</time></trkpt><trkpt lat="42.33481778295367" lon="12.726334463148767"><ele>1273.0</ele><time>2026-03-22T14:15:15Z</time></trkpt><trkpt lat="42.33478535786106" lon="12.726424874000532"><ele>1270.5</ele><time>2026-03-22T14:15:17Z</time></trkpt><trkpt lat="42.334740356621026" lon="12.726506090820418"><ele>1268.0</ele><time>2026-03-22T14:15:19Z</time></trkpt><trkpt lat="42.3346908536634" lon="12.726570411826783"><ele>1265.5</ele><time>2026-03-22T14:15:20.999Z</time></trkpt><trkpt lat="42.334659492247646" lon="12.72670904450712"><ele>1263.0</ele><time>2026-03-22T14:15:23.999Z</time></trkpt><trkpt lat="42.334620530594776" lon="12.726817767605082"><ele>1260.5</ele><time>2026-03-22T14:15:25.999Z</time></trkpt><trkpt lat="42.33458351856736" lon="12.726899743865753"><ele>1258.0</ele><time>2026-03-22T14:15:27.999Z</time></trkpt><trkpt lat="42.334537326385316" lon="12.72699418555902"><ele>1255.7142857142856</ele><time>2026-03-22T14:15:30.999Z</time></trkpt><trkpt lat="42.33449242123155" lon="12.727070741651419"><ele>1253.4285714285716</ele><time>2026-03-22T14:15:33.999Z</time></trkpt><trkpt lat="42.33444949765968" lon="12.727140085893314"><ele>1251.142857142857</ele><time>2026-03-22T14:15:36.999Z</time></trkpt><trkpt lat="42.334407634088066" lon="12.727205012502044"><ele>1248.8571428571427</ele><time>2026-03-22T14:15:39.999Z</time></trkpt><trkpt lat="42.33434163210599" lon="12.727224226997274"><ele>1246.5714285714284</ele><time>2026-03-22T14:15:43.999Z</time></trkpt><trkpt lat="42.33426162197846" lon="12.727252287134247"><ele>1244.2857142857142</ele><time>2026-03-22T14:17:06Z</time></trkpt><trkpt lat="42.33417429286548" lon="12.72728023042961"><ele>1242.0</ele><time>2026-03-22T14:17:09Z</time></trkpt><trkpt lat="42.33410544507415" lon="12.727315006754933"><ele>1241.9999999999998</ele><time>2026-03-22T14:17:12Z</time></trkpt><trkpt lat="42.33403050227013" lon="12.727338897266357"><ele>1242.0</ele><time>2026-03-22T14:17:15Z</time></trkpt><trkpt lat="42.334036247283834" lon="12.727426199548285"><ele>1242.0</ele><time>2026-03-22T14:18:20Z</time></trkpt><trkpt lat="42.33405586869275" lon="12.727527222066444"><ele>1242.0</ele><time>2026-03-22T14:18:23Z</time></trkpt><trkpt lat="42.334110305832546" lon="12.727610169923048"><ele>1242.0</ele><time>2026-03-22T14:18:28Z</time></trkpt><trkpt lat="42.33413149991632" lon="12.727695673505789"><ele>1241.9999999999998</ele><time>2026-03-22T14:18:30Z</time></trkpt><trkpt lat="42.33409930251326" lon="12.727772876253171"><ele>1242.0</ele><time>2026-03-22T14:18:36Z</time></trkpt><trkpt lat="42.33405259101438" lon="12.727712181762053"><ele>1239.2857142857142</ele><time>2026-03-22T14:19:35Z</time></trkpt><trkpt lat="42.333986703116366" lon="12.727730099658146"><ele>1236.5714285714284</ele><time>2026-03-22T14:19:38Z</time></trkpt><trkpt lat="42.33399026118688" lon="12.727827261736108"><ele>1233.8571428571427</ele><time>2026-03-22T14:19:46Z</time></trkpt><trkpt lat="42.33402467918484" lon="12.727920545199545"><ele>1231.142857142857</ele><time>2026-03-22T14:19:51Z</time></trkpt><trkpt lat="42.33404120018139" lon="12.728007926101224"><ele>1228.4285714285716</ele><time>2026-03-22T14:20:00Z</time></trkpt><trkpt lat="42.33400036541076" lon="12.728083838445897"><ele>1225.7142857142856</ele><time>2026-03-22T14:20:07Z</time></trkpt><trkpt lat="42.33400340543154" lon="12.72817596367496"><ele>1223.0</ele><time>2026-03-22T14:20:11Z</time></trkpt><trkpt lat="42.33400370322437" lon="12.728266910877503"><ele>1223.0</ele><time>2026-03-22T14:20:15Z</time></trkpt><trkpt lat="42.33400204138187" lon="12.7283642443106"><ele>1223.0</ele><time>2026-03-22T14:20:20Z</time></trkpt><trkpt lat="42.334023363637606" lon="12.728451570828383"><ele>1223.0</ele><time>2026-03-22T14:20:24Z</time></trkpt><trkpt lat="42.33403676975588" lon="12.728552963291317"><ele>1223.0</ele><time>2026-03-22T14:20:27Z</time></trkpt><trkpt lat="42.3340456906267" lon="12.728661782445542"><ele>1223.0</ele><time>2026-03-22T14:20:30Z</time></trkpt><trkpt lat="42.33404876694688" lon="12.728759474794106"><ele>1223.0</ele><time>2026-03-22T14:20:33Z</time></trkpt><trkpt lat="42.334061133672066" lon="12.72888738119233"><ele>1219.3333333333335</ele><time>2026-03-22T14:20:36Z</time></trkpt><trkpt lat="42.33407494489919" lon="12.728992738715426"><ele>1215.6666666666667</ele><time>2026-03-22T14:20:39Z</time></trkpt><trkpt lat="42.33408009379038" lon="12.729112550615017"><ele>1212.0</ele><time>2026-03-22T14:20:42Z</time></trkpt><trkpt lat="42.33406781429467" lon="12.729254025553065"><ele>1208.3333333333333</ele><time>2026-03-22T14:20:45Z</time></trkpt><trkpt lat="42.33405709347955" lon="12.72934020422598"><ele>1204.6666666666665</ele><time>2026-03-22T14:20:47Z</time></trkpt><trkpt lat="42.33406652184173" lon="12.729456061782859"><ele>1201.0</ele><time>2026-03-22T14:20:50Z</time></trkpt><trkpt lat="42.33408293564634" lon="12.729558687511535"><ele>1198.5714285714287</ele><time>2026-03-22T14:20:53Z</time></trkpt><trkpt lat="42.3340745896757" lon="12.729647442051201"><ele>1196.142857142857</ele><time>2026-03-22T14:20:56Z</time></trkpt><trkpt lat="42.33406348914084" lon="12.729772225148139"><ele>1193.7142857142858</ele><time>2026-03-22T14:20:59Z</time></trkpt><trkpt lat="42.334079424252565" lon="12.729871638476723"><ele>1191.2857142857142</ele><time>2026-03-22T14:21:03Z</time></trkpt><trkpt lat="42.334105864074395" lon="12.72996252375219"><ele>1188.857142857143</ele><time>2026-03-22T14:21:05Z</time></trkpt><trkpt lat="42.33410793104554" lon="12.7300530780758"><ele>1186.4285714285716</ele><time>2026-03-22T14:21:14Z</time></trkpt><trkpt lat="42.3341102909001" lon="12.730142682277217"><ele>1184.0</ele><time>2026-03-22T14:21:21Z</time></trkpt><trkpt lat="42.33415406583315" lon="12.730240914741835"><ele>1180.7142857142858</ele><time>2026-03-22T14:21:26Z</time></trkpt><trkpt lat="42.334167213874" lon="12.730356832021474"><ele>1177.4285714285713</ele><time>2026-03-22T14:21:30Z</time></trkpt><trkpt lat="42.33419680558318" lon="12.730436169798148"><ele>1174.142857142857</ele><time>2026-03-22T14:21:33Z</time></trkpt><trkpt lat="42.33417489757237" lon="12.730528269467841"><ele>1170.857142857143</ele><time>2026-03-22T14:21:36Z</time></trkpt><trkpt lat="42.334203897644336" lon="12.730622840614208"><ele>1167.5714285714287</ele><time>2026-03-22T14:21:39Z</time></trkpt><trkpt lat="42.334229480164296" lon="12.730704349123965"><ele>1164.2857142857142</ele><time>2026-03-22T14:21:43Z</time></trkpt><trkpt lat="42.33427161690999" lon="12.730779669458878"><ele>1161.0</ele><time>2026-03-22T14:21:53Z</time></trkpt><trkpt lat="42.33430561001499" lon="12.730889034087912"><ele>1161.0</ele><time>2026-03-22T14:22:01Z</time></trkpt><trkpt lat="42.33437093833784" lon="12.730958236526275"><ele>1161.0</ele><time>2026-03-22T14:22:45Z</time></trkpt><trkpt lat="42.33443229504116" lon="12.731024150605972"><ele>1161.0</ele><time>2026-03-22T14:23:13Z</time></trkpt><trkpt lat="42.33443275810897" lon="12.731111937426281"><ele>1161.0</ele><time>2026-03-22T14:23:31Z</time></trkpt><trkpt lat="42.334413431426256" lon="12.73120180002035"><ele>1161.0</ele><time>2026-03-22T14:23:46Z</time></trkpt><trkpt lat="42.33442295116665" lon="12.731286831532199"><ele>1161.0</ele><time>2026-03-22T14:23:55Z</time></trkpt><trkpt lat="42.33438714876887" lon="12.731359623378324"><ele>1161.0</ele><time>2026-03-22T14:24:10Z</time></trkpt><trkpt lat="42.33432852228185" lon="12.731408996007236"><ele>1157.0</ele><time>2026-03-22T14:24:30Z</time></trkpt><trkpt lat="42.3343070570118" lon="12.731516804916396"><ele>1153.0</ele><time>2026-03-22T14:24:58Z</time></trkpt><trkpt lat="42.33427859027283" lon="12.73159737785476"><ele>1149.0</ele><time>2026-03-22T14:26:39Z</time></trkpt><trkpt lat="42.33428225035625" lon="12.731690763414937"><ele>1145.0</ele><time>2026-03-22T14:26:44Z</time></trkpt><trkpt lat="42.33425761937573" lon="12.731786773283027"><ele>1141.0</ele><time>2026-03-22T14:26:50Z</time></trkpt><trkpt lat="42.33421635200816" lon="12.73185829388163"><ele>1137.0</ele><time>2026-03-22T14:26:55Z</time></trkpt><trkpt lat="42.33415820742004" lon="12.731926904299762"><ele>1133.0</ele><time>2026-03-22T14:27:04Z</time></trkpt><trkpt lat="42.33411588896673" lon="12.731992201328955"><ele>1128.7142857142858</ele><time>2026-03-22T14:27:07Z</time></trkpt><trkpt lat="42.33414837703773" lon="12.732087864072202"><ele>1124.4285714285716</ele><time>2026-03-22T14:27:13Z</time></trkpt><trkpt lat="42.33413982060274" lon="12.73217281065449"><ele>1120.1428571428573</ele><time>2026-03-22T14:27:16Z</time></trkpt><trkpt lat="42.334150585949914" lon="12.732281565550544"><ele>1115.857142857143</ele><time>2026-03-22T14:27:20Z</time></trkpt><trkpt lat="42.33413591139754" lon="12.7323704573954"><ele>1111.5714285714287</ele><time>2026-03-22T14:27:23Z</time></trkpt><trkpt lat="42.33409974194871" lon="12.732457707683155"><ele>1107.2857142857144</ele><time>2026-03-22T14:27:28Z</time></trkpt><trkpt lat="42.33406304312646" lon="12.73253333400064"><ele>1103.0</ele><time>2026-03-22T14:27:36Z</time></trkpt><trkpt lat="42.334005273189646" lon="12.732581632648346"><ele>1103.0000000000002</ele><time>2026-03-22T14:29:27Z</time></trkpt><trkpt lat="42.333949707173716" lon="12.73264084327583"><ele>1103.0</ele><time>2026-03-22T14:29:31Z</time></trkpt><trkpt lat="42.33389694743663" lon="12.732704115023964"><ele>1103.0</ele><time>2026-03-22T14:29:35Z</time></trkpt><trkpt lat="42.33388865674003" lon="12.732802010474348"><ele>1103.0</ele><time>2026-03-22T14:29:46Z</time></trkpt><trkpt lat="42.33386051939698" lon="12.732882736045237"><ele>1103.0</ele><time>2026-03-22T14:31:02Z</time></trkpt><trkpt lat="42.33379869025081" lon="12.73293232116816"><ele>1103.0000000000002</ele><time>2026-03-22T14:31:24Z</time></trkpt><trkpt lat="42.33374518583509" lon="12.73298586628419"><ele>1103.0</ele><time>2026-03-22T14:31:30Z</time></trkpt><trkpt lat="42.33371165313525" lon="12.733070552559184"><ele>1097.5</ele><time>2026-03-22T14:31:34Z</time></trkpt><trkpt lat="42.33365682429837" lon="12.73316871328281"><ele>1092.0</ele><time>2026-03-22T14:31:39Z</time></trkpt><trkpt lat="42.333617141001454" lon="12.733241845047932"><ele>1086.5</ele><time>2026-03-22T14:31:43Z</time></trkpt><trkpt lat="42.333570781209325" lon="12.733302980692029"><ele>1081.0</ele><time>2026-03-22T14:31:47Z</time></trkpt><trkpt lat="42.333546866667824" lon="12.733403010316845"><ele>1075.5</ele><time>2026-03-22T14:31:50Z</time></trkpt><trkpt lat="42.333517177164865" lon="12.733487630362625"><ele>1070.0</ele><time>2026-03-22T14:31:54Z</time></trkpt><trkpt lat="42.33344469477143" lon="12.733546601805871"><ele>1070.0</ele><time>2026-03-22T14:31:58Z</time></trkpt><trkpt lat="42.33337933549457" lon="12.733570822176235"><ele>1070.0</ele><time>2026-03-22T14:32:02Z</time></trkpt><trkpt lat="42.333306909116345" lon="12.733583957123967"><ele>1070.0</ele><time>2026-03-22T14:32:05Z</time></trkpt><trkpt lat="42.33322060964287" lon="12.73354940980497"><ele>1070.0</ele><time>2026-03-22T14:32:08Z</time></trkpt><trkpt lat="42.33315627236312" lon="12.733519561827222"><ele>1070.0</ele><time>2026-03-22T14:32:10Z</time></trkpt><trkpt lat="42.3330931346078" lon="12.733469341542568"><ele>1070.0</ele><time>2026-03-22T14:32:12Z</time></trkpt><trkpt lat="42.33301242052439" lon="12.733455529759215"><ele>1068.1666666666667</ele><time>2026-03-22T14:32:15Z</time></trkpt><trkpt lat="42.33294107946034" lon="12.733422901395395"><ele>1066.3333333333335</ele><time>2026-03-22T14:32:17Z</time></trkpt><trkpt lat="42.33287272085844" lon="12.733408211627653"><ele>1064.5</ele><time>2026-03-22T14:32:19Z</time></trkpt><trkpt lat="42.332810607954144" lon="12.733388333859018"><ele>1062.6666666666667</ele><time>2026-03-22T14:32:21Z</time></trkpt><trkpt lat="42.33272273269292" lon="12.73339052733844"><ele>1060.8333333333333</ele><time>2026-03-22T14:32:24Z</time></trkpt><trkpt lat="42.3326531998586" lon="12.733401755958559"><ele>1059.0</ele><time>2026-03-22T14:32:29Z</time></trkpt><trkpt lat="42.33257237253627" lon="12.73345545374511"><ele>1059.0</ele><time>2026-03-22T14:32:39Z</time></trkpt><trkpt lat="42.33249967567726" lon="12.73342407038043"><ele>1059.0</ele><time>2026-03-22T14:32:43Z</time></trkpt><trkpt lat="42.33255185666153" lon="12.733476009160732"><ele>1059.0</ele><time>2026-03-22T14:33:22Z</time></trkpt><trkpt lat="42.332597107438666" lon="12.733550376196158"><ele>1059.0</ele><time>2026-03-22T14:33:41Z</time></trkpt><trkpt lat="42.33253596217423" lon="12.733586026679763"><ele>1059.0</ele><time>2026-03-22T14:33:45Z</time></trkpt><trkpt lat="42.33246834569382" lon="12.733563467062021"><ele>1059.0</ele><time>2026-03-22T14:35:29Z</time></trkpt><trkpt lat="42.332388402244085" lon="12.73360905129287"><ele>1059.0</ele><time>2026-03-22T14:35:34Z</time></trkpt><trkpt lat="42.33229391223147" lon="12.733641844972283"><ele>1059.6000000000001</ele><time>2026-03-22T14:35:36Z</time></trkpt><trkpt lat="42.33218735897085" lon="12.73366251489053"><ele>1060.2</ele><time>2026-03-22T14:35:38Z</time></trkpt><trkpt lat="42.33212252802436" lon="12.733700176913162"><ele>1060.8000000000002</ele><time>2026-03-22T14:35:40Z</time></trkpt><trkpt lat="42.33203053358458" lon="12.733736182449432"><ele>1061.4</ele><time>2026-03-22T14:35:43Z</time></trkpt><trkpt lat="42.331958461381944" lon="12.73367111821188"><ele>1062.0</ele><time>2026-03-22T14:35:45Z</time></trkpt><trkpt lat="42.331875966837394" lon="12.733593323303294"><ele>1059.3333333333333</ele><time>2026-03-22T14:35:47Z</time></trkpt><trkpt lat="42.331815158503" lon="12.733551428335355"><ele>1056.6666666666667</ele><time>2026-03-22T14:35:48Z</time></trkpt><trkpt lat="42.33173672137359" lon="12.73347672729118"><ele>1054.0</ele><time>2026-03-22T14:35:50Z</time></trkpt><trkpt lat="42.33165582744457" lon="12.733432903254355"><ele>1051.3333333333335</ele><time>2026-03-22T14:35:52Z</time></trkpt><trkpt lat="42.3315911880221" lon="12.733371479126772"><ele>1048.6666666666667</ele><time>2026-03-22T14:35:54Z</time></trkpt><trkpt lat="42.331507599557135" lon="12.733401903590874"><ele>1046.0</ele><time>2026-03-22T14:35:56Z</time></trkpt><trkpt lat="42.33139178875007" lon="12.733351591837812"><ele>1043.6666666666667</ele><time>2026-03-22T14:35:58Z</time></trkpt><trkpt lat="42.331281655251914" lon="12.733333423054113"><ele>1041.3333333333335</ele><time>2026-03-22T14:36:00Z</time></trkpt><trkpt lat="42.331225083526675" lon="12.733389370954745"><ele>1039.0</ele><time>2026-03-22T14:36:01Z</time></trkpt><trkpt lat="42.33111547249436" lon="12.733445278715141"><ele>1036.6666666666667</ele><time>2026-03-22T14:36:03Z</time></trkpt><trkpt lat="42.33104527177689" lon="12.733445857604671"><ele>1034.3333333333333</ele><time>2026-03-22T14:36:04Z</time></trkpt><trkpt lat="42.3309816035307" lon="12.733464092741725"><ele>1032.0</ele><time>2026-03-22T14:36:05Z</time></trkpt><trkpt lat="42.330907250054175" lon="12.733479032518801"><ele>1032.0</ele><time>2026-03-22T14:36:06Z</time></trkpt><trkpt lat="42.33084221326452" lon="12.73349826373922"><ele>1032.0</ele><time>2026-03-22T14:36:07Z</time></trkpt><trkpt lat="42.33073959913749" lon="12.73349912051662"><ele>1032.0</ele><time>2026-03-22T14:36:09Z</time></trkpt><trkpt lat="42.3306527580796" lon="12.733545887935609"><ele>1032.0</ele><time>2026-03-22T14:36:11Z</time></trkpt><trkpt lat="42.33053532074206" lon="12.73356266853713"><ele>1032.0</ele><time>2026-03-22T14:36:13Z</time></trkpt><trkpt lat="42.330466535132615" lon="12.733534000167378"><ele>1030.0</ele><time>2026-03-22T14:36:14Z</time></trkpt><trkpt lat="42.33037794815165" lon="12.733524380247324"><ele>1028.0</ele><time>2026-03-22T14:36:16Z</time></trkpt><trkpt lat="42.330310756862865" lon="12.733542134704267"><ele>1026.0</ele><time>2026-03-22T14:36:17Z</time></trkpt><trkpt lat="42.33022898405261" lon="12.733524146214345"><ele>1024.0</ele><time>2026-03-22T14:36:18Z</time></trkpt><trkpt lat="42.33010328483549" lon="12.733534867913177"><ele>1022.0</ele><time>2026-03-22T14:36:20Z</time></trkpt><trkpt lat="42.33000056375572" lon="12.733530192896096"><ele>1022.0</ele><time>2026-03-22T14:36:22Z</time></trkpt><trkpt lat="42.32993013712778" lon="12.733565758336377"><ele>1022.0</ele><time>2026-03-22T14:36:24Z</time></trkpt><trkpt lat="42.32982610073116" lon="12.733584308800019"><ele>1022.0</ele><time>2026-03-22T14:36:26Z</time></trkpt><trkpt lat="42.32972200275095" lon="12.733608205060477"><ele>1022.0</ele><time>2026-03-22T14:36:28Z</time></trkpt><trkpt lat="42.329646453276226" lon="12.733616410704938"><ele>1022.0</ele><time>2026-03-22T14:36:30Z</time></trkpt><trkpt lat="42.32951884683055" lon="12.73361530457572"><ele>1022.0</ele><time>2026-03-22T14:36:32Z</time></trkpt><trkpt lat="42.329460352233525" lon="12.733674983906525"><ele>1022.0</ele><time>2026-03-22T14:36:33Z</time></trkpt><trkpt lat="42.329391433279596" lon="12.73367451713945"><ele>1022.0</ele><time>2026-03-22T14:36:34Z</time></trkpt><trkpt lat="42.32930961040633" lon="12.733725172450205"><ele>1022.0</ele><time>2026-03-22T14:36:35Z</time></trkpt><trkpt lat="42.32922890087856" lon="12.733760719794923"><ele>1022.0</ele><time>2026-03-22T14:36:36Z</time></trkpt><trkpt lat="42.329166457617305" lon="12.733786057459792"><ele>1022.0</ele><time>2026-03-22T14:36:37Z</time></trkpt><trkpt lat="42.329103145103694" lon="12.73379798133599"><ele>1022.0</ele><time>2026-03-22T14:36:38Z</time></trkpt><trkpt lat="42.32902041544294" lon="12.733819049542754"><ele>1022.0</ele><time>2026-03-22T14:36:39Z</time></trkpt><trkpt lat="42.32891966130558" lon="12.73382476156909"><ele>1022.0</ele><time>2026-03-22T14:36:40Z</time></trkpt><trkpt lat="42.328791163380366" lon="12.733794865414493"><ele>1022.0</ele><time>2026-03-22T14:36:41Z</time></trkpt><trkpt lat="42.32865884448907" lon="12.73385586516143"><ele>1022.0</ele><time>2026-03-22T14:36:43Z</time></trkpt><trkpt lat="42.328577762883825" lon="12.733876788211354"><ele>1019.5000000000001</ele><time>2026-03-22T14:36:44Z</time></trkpt><trkpt lat="42.32849636138472" lon="12.733876716756235"><ele>1017.0</ele><time>2026-03-22T14:36:45Z</time></trkpt><trkpt lat="42.32842967706979" lon="12.73387534753751"><ele>1014.5</ele><time>2026-03-22T14:36:46Z</time></trkpt><trkpt lat="42.32833833564343" lon="12.73381992969921"><ele>1012.0</ele><time>2026-03-22T14:36:48Z</time></trkpt><trkpt lat="42.32827836709542" lon="12.733757845405952"><ele>1009.5000000000001</ele><time>2026-03-22T14:36:49Z</time></trkpt><trkpt lat="42.32821478606923" lon="12.733701291496217"><ele>1007.0</ele><time>2026-03-22T14:36:50Z</time></trkpt><trkpt lat="42.3281433357454" lon="12.73364031365479"><ele>1007.0</ele><time>2026-03-22T14:36:51Z</time></trkpt><trkpt lat="42.32806477271431" lon="12.733571156310283"><ele>1007.0</ele><time>2026-03-22T14:36:52Z</time></trkpt><trkpt lat="42.32798024194265" lon="12.733539983066759"><ele>1007.0</ele><time>2026-03-22T14:36:54Z</time></trkpt><trkpt lat="42.32786266177009" lon="12.733459533428658"><ele>1007.0</ele><time>2026-03-22T14:36:56Z</time></trkpt><trkpt lat="42.32775130793107" lon="12.733425030258413"><ele>1007.0</ele><time>2026-03-22T14:36:58Z</time></trkpt><trkpt lat="42.3276661170647" lon="12.733471234174171"><ele>1004.8</ele><time>2026-03-22T14:37:01Z</time></trkpt><trkpt lat="42.327577341653644" lon="12.733507000394365"><ele>1002.6</ele><time>2026-03-22T14:37:03Z</time></trkpt><trkpt lat="42.32745817153895" lon="12.733556586224097"><ele>1000.3999999999999</ele><time>2026-03-22T14:37:05Z</time></trkpt><trkpt lat="42.327367222200216" lon="12.73361595783995"><ele>998.1999999999999</ele><time>2026-03-22T14:37:06Z</time></trkpt><trkpt lat="42.32726511929756" lon="12.73370286070179"><ele>996.0</ele><time>2026-03-22T14:37:07Z</time></trkpt><trkpt lat="42.32718496035627" lon="12.733744205298933"><ele>993.5</ele><time>2026-03-22T14:37:08Z</time></trkpt><trkpt lat="42.32714242619067" lon="12.733809411718124"><ele>991.0</ele><time>2026-03-22T14:37:09Z</time></trkpt><trkpt lat="42.32709091209054" lon="12.733867987086173"><ele>988.5</ele><time>2026-03-22T14:37:10Z</time></trkpt><trkpt lat="42.32699916858719" lon="12.733835497865929"><ele>986.0</ele><time>2026-03-22T14:37:12Z</time></trkpt><trkpt lat="42.326905880209736" lon="12.733842968151045"><ele>983.5</ele><time>2026-03-22T14:37:14Z</time></trkpt><trkpt lat="42.32683808799394" lon="12.733892586391056"><ele>981.0</ele><time>2026-03-22T14:37:16Z</time></trkpt><trkpt lat="42.3267518656491" lon="12.733893162069258"><ele>981.0</ele><time>2026-03-22T14:37:18Z</time></trkpt><trkpt lat="42.32668096773466" lon="12.733916453905474"><ele>981.0</ele><time>2026-03-22T14:37:19Z</time></trkpt><trkpt lat="42.32661533042816" lon="12.733960557380552"><ele>981.0</ele><time>2026-03-22T14:37:20Z</time></trkpt><trkpt lat="42.326522475681024" lon="12.734005350945113"><ele>981.0</ele><time>2026-03-22T14:37:21Z</time></trkpt><trkpt lat="42.326432301870426" lon="12.734025174740331"><ele>981.0</ele><time>2026-03-22T14:37:22Z</time></trkpt><trkpt lat="42.32636218481096" lon="12.734014646808847"><ele>981.0</ele><time>2026-03-22T14:37:23Z</time></trkpt><trkpt lat="42.32623225666119" lon="12.73404420311429"><ele>979.3333333333334</ele><time>2026-03-22T14:37:25Z</time></trkpt><trkpt lat="42.32616021742065" lon="12.734068323090963"><ele>977.6666666666667</ele><time>2026-03-22T14:37:26Z</time></trkpt><trkpt lat="42.326079456100686" lon="12.734101409126344"><ele>976.0</ele><time>2026-03-22T14:37:27Z</time></trkpt><trkpt lat="42.32601314070046" lon="12.734137676288938"><ele>974.3333333333334</ele><time>2026-03-22T14:37:28Z</time></trkpt><trkpt lat="42.32593490552583" lon="12.73415709986091"><ele>972.6666666666667</ele><time>2026-03-22T14:37:29Z</time></trkpt><trkpt lat="42.325867009126185" lon="12.734264054462969"><ele>971.0</ele><time>2026-03-22T14:37:31Z</time></trkpt><trkpt lat="42.32574314153761" lon="12.734229830197656"><ele>971.0000000000001</ele><time>2026-03-22T14:37:33Z</time></trkpt><trkpt lat="42.32566478651519" lon="12.73429212374182"><ele>971.0</ele><time>2026-03-22T14:37:36Z</time></trkpt><trkpt lat="42.325565281282856" lon="12.734312016178992"><ele>971.0</ele><time>2026-03-22T14:37:39Z</time></trkpt><trkpt lat="42.32549905783602" lon="12.73431983031832"><ele>971.0</ele><time>2026-03-22T14:37:40Z</time></trkpt><trkpt lat="42.325415302686345" lon="12.734310172475846"><ele>971.0000000000001</ele><time>2026-03-22T14:37:41Z</time></trkpt><trkpt lat="42.325327213241586" lon="12.734303436171135"><ele>971.0</ele><time>2026-03-22T14:37:42Z</time></trkpt><trkpt lat="42.3252494642849" lon="12.734308567929348"><ele>969.0</ele><time>2026-03-22T14:37:43Z</time></trkpt><trkpt lat="42.32516472353621" lon="12.734357657391032"><ele>966.9999999999999</ele><time>2026-03-22T14:37:44Z</time></trkpt><trkpt lat="42.32508438763876" lon="12.73438080417392"><ele>964.9999999999999</ele><time>2026-03-22T14:37:45Z</time></trkpt><trkpt lat="42.32496014838473" lon="12.734383120067324"><ele>963.0</ele><time>2026-03-22T14:37:47Z</time></trkpt><trkpt lat="42.324822263627524" lon="12.734376524914868"><ele>961.0</ele><time>2026-03-22T14:37:49Z</time></trkpt><trkpt lat="42.32474163464712" lon="12.734356169408711"><ele>959.1666666666666</ele><time>2026-03-22T14:37:50Z</time></trkpt><trkpt lat="42.32465888067729" lon="12.734330452259123"><ele>957.3333333333333</ele><time>2026-03-22T14:37:51Z</time></trkpt><trkpt lat="42.32458388373755" lon="12.734316785245136"><ele>955.5</ele><time>2026-03-22T14:37:52Z</time></trkpt><trkpt lat="42.324489208153956" lon="12.734307526572607"><ele>953.6666666666667</ele><time>2026-03-22T14:37:53Z</time></trkpt><trkpt lat="42.324413406303314" lon="12.734298137984759"><ele>951.8333333333334</ele><time>2026-03-22T14:37:54Z</time></trkpt><trkpt lat="42.32433372791755" lon="12.73428993571667"><ele>950.0</ele><time>2026-03-22T14:37:55Z</time></trkpt><trkpt lat="42.32423547598879" lon="12.7342870655127"><ele>950.0</ele><time>2026-03-22T14:37:56Z</time></trkpt><trkpt lat="42.32414925117438" lon="12.734322217853302"><ele>950.0</ele><time>2026-03-22T14:37:57Z</time></trkpt><trkpt lat="42.324042577148944" lon="12.734331662721056"><ele>950.0</ele><time>2026-03-22T14:37:59Z</time></trkpt><trkpt lat="42.323950365164166" lon="12.734339375346167"><ele>950.0</ele><time>2026-03-22T14:38:00Z</time></trkpt><trkpt lat="42.32388334166234" lon="12.734352128238559"><ele>950.0</ele><time>2026-03-22T14:38:01Z</time></trkpt><trkpt lat="42.32376681648498" lon="12.734393732186652"><ele>950.5000000000001</ele><time>2026-03-22T14:38:03Z</time></trkpt><trkpt lat="42.32371091008538" lon="12.734439175849772"><ele>951.0</ele><time>2026-03-22T14:38:04Z</time></trkpt><trkpt lat="42.3236306896492" lon="12.7344287341547"><ele>951.5</ele><time>2026-03-22T14:38:06Z</time></trkpt><trkpt lat="42.32354926403782" lon="12.734401302049836"><ele>952.0</ele><time>2026-03-22T14:38:08Z</time></trkpt><trkpt lat="42.32348287773365" lon="12.734342503310998"><ele>952.5000000000001</ele><time>2026-03-22T14:38:10Z</time></trkpt><trkpt lat="42.32340786542823" lon="12.73434715193705"><ele>953.0</ele><time>2026-03-22T14:38:11Z</time></trkpt><trkpt lat="42.323284672071765" lon="12.734366196683547"><ele>952.0</ele><time>2026-03-22T14:38:17Z</time></trkpt><trkpt lat="42.32320114017972" lon="12.734341042044562"><ele>951.0</ele><time>2026-03-22T14:38:20Z</time></trkpt><trkpt lat="42.3228624495282" lon="12.734393331132825"><ele>950.0</ele><time>2026-03-22T14:38:23Z</time></trkpt><trkpt lat="42.322766050475025" lon="12.734360616983462"><ele>950.0000000000001</ele><time>2026-03-22T14:38:25Z</time></trkpt><trkpt lat="42.322702051600004" lon="12.734336596275524"><ele>950.0</ele><time>2026-03-22T14:38:27Z</time></trkpt><trkpt lat="42.32262569442845" lon="12.73430775887575"><ele>950.0</ele><time>2026-03-22T14:38:29Z</time></trkpt><trkpt lat="42.32258185723426" lon="12.73437276516101"><ele>950.0</ele><time>2026-03-22T14:38:32Z</time></trkpt><trkpt lat="42.32244991769713" lon="12.734385233731597"><ele>950.0000000000001</ele><time>2026-03-22T14:38:34Z</time></trkpt><trkpt lat="42.322352881291074" lon="12.734382113698015"><ele>950.0</ele><time>2026-03-22T14:38:35Z</time></trkpt><trkpt lat="42.32224784321245" lon="12.734392711508356"><ele>947.2</ele><time>2026-03-22T14:38:36Z</time></trkpt><trkpt lat="42.32215876082935" lon="12.734393088629423"><ele>944.4</ele><time>2026-03-22T14:38:38Z</time></trkpt><trkpt lat="42.32201465226968" lon="12.734331699919586"><ele>941.5999999999999</ele><time>2026-03-22T14:38:40Z</time></trkpt><trkpt lat="42.321924541272175" lon="12.734338494391453"><ele>938.8</ele><time>2026-03-22T14:38:41Z</time></trkpt><trkpt lat="42.3218483265966" lon="12.734333053159915"><ele>936.0</ele><time>2026-03-22T14:38:42Z</time></trkpt><trkpt lat="42.321756737317045" lon="12.734318746483426"><ele>933.8333333333334</ele><time>2026-03-22T14:38:43Z</time></trkpt><trkpt lat="42.321681198603564" lon="12.734333452822185"><ele>931.6666666666667</ele><time>2026-03-22T14:38:44Z</time></trkpt><trkpt lat="42.321591702156816" lon="12.734335938216885"><ele>929.5</ele><time>2026-03-22T14:38:45Z</time></trkpt><trkpt lat="42.3215045426827" lon="12.734335897924883"><ele>927.3333333333334</ele><time>2026-03-22T14:38:46Z</time></trkpt><trkpt lat="42.32143609484436" lon="12.734327144984348"><ele>925.1666666666667</ele><time>2026-03-22T14:38:47Z</time></trkpt><trkpt lat="42.321348053471404" lon="12.73435174582321"><ele>923.0</ele><time>2026-03-22T14:38:48Z</time></trkpt><trkpt lat="42.32126512682917" lon="12.734363158199317"><ele>922.8</ele><time>2026-03-22T14:38:49Z</time></trkpt><trkpt lat="42.32118612603697" lon="12.734334401281581"><ele>922.5999999999999</ele><time>2026-03-22T14:38:51Z</time></trkpt><trkpt lat="42.321108855263795" lon="12.7343100487144"><ele>922.4000000000001</ele><time>2026-03-22T14:38:53Z</time></trkpt><trkpt lat="42.32104059584803" lon="12.734302103883193"><ele>922.2</ele><time>2026-03-22T14:38:56Z</time></trkpt><trkpt lat="42.3211791083586" lon="12.734435230017391"><ele>922.0</ele><time>2026-03-22T14:38:57Z</time></trkpt><trkpt lat="42.321048200295316" lon="12.734436605907428"><ele>922.3333333333333</ele><time>2026-03-22T14:39:00Z</time></trkpt><trkpt lat="42.320980953394425" lon="12.734455015335897"><ele>922.6666666666666</ele><time>2026-03-22T14:39:01Z</time></trkpt><trkpt lat="42.320889107398564" lon="12.73446136689049"><ele>923.0</ele><time>2026-03-22T14:39:02Z</time></trkpt><trkpt lat="42.32081396577471" lon="12.734500568174184"><ele>923.3333333333333</ele><time>2026-03-22T14:39:03Z</time></trkpt><trkpt lat="42.32072069305115" lon="12.734549794493486"><ele>923.6666666666666</ele><time>2026-03-22T14:39:04Z</time></trkpt><trkpt lat="42.320614582712466" lon="12.734556274335231"><ele>924.0</ele><time>2026-03-22T14:39:06Z</time></trkpt><trkpt lat="42.320525226611835" lon="12.734549445429094"><ele>921.6666666666666</ele><time>2026-03-22T14:39:08Z</time></trkpt><trkpt lat="42.3203945332716" lon="12.734597929008192"><ele>919.3333333333333</ele><time>2026-03-22T14:39:10Z</time></trkpt><trkpt lat="42.32031944005681" lon="12.734638447880906"><ele>917.0</ele><time>2026-03-22T14:39:11Z</time></trkpt><trkpt lat="42.320253468879635" lon="12.734655607822722"><ele>914.6666666666666</ele><time>2026-03-22T14:39:12Z</time></trkpt><trkpt lat="42.3201756157451" lon="12.734663745258462"><ele>912.3333333333333</ele><time>2026-03-22T14:39:13Z</time></trkpt><trkpt lat="42.32010109259766" lon="12.734672676875052"><ele>910.0</ele><time>2026-03-22T14:39:14Z</time></trkpt><trkpt lat="42.320005579683844" lon="12.734700276385894"><ele>909.9999999999999</ele><time>2026-03-22T14:39:15Z</time></trkpt><trkpt lat="42.31991629592087" lon="12.734683985201212"><ele>910.0</ele><time>2026-03-22T14:39:16Z</time></trkpt><trkpt lat="42.319805911932974" lon="12.734663304613559"><ele>910.0</ele><time>2026-03-22T14:39:18Z</time></trkpt><trkpt lat="42.3197194041488" lon="12.734676585994302"><ele>910.0</ele><time>2026-03-22T14:39:25Z</time></trkpt><trkpt lat="42.31965168386411" lon="12.734700399696672"><ele>909.9999999999999</ele><time>2026-03-22T14:39:27Z</time></trkpt><trkpt lat="42.31957743326386" lon="12.734725471201653"><ele>910.0</ele><time>2026-03-22T14:39:30Z</time></trkpt><trkpt lat="42.31951527990169" lon="12.73474020057697"><ele>907.8</ele><time>2026-03-22T14:39:33Z</time></trkpt><trkpt lat="42.319453079438404" lon="12.734687453212763"><ele>905.6</ele><time>2026-03-22T14:39:34Z</time></trkpt><trkpt lat="42.319387579576755" lon="12.734623445586728"><ele>903.4000000000001</ele><time>2026-03-22T14:39:41Z</time></trkpt><trkpt lat="42.319266441577355" lon="12.73462282964359"><ele>901.2</ele><time>2026-03-22T14:39:44Z</time></trkpt><trkpt lat="42.31925686101461" lon="12.734716295223608"><ele>899.0</ele><time>2026-03-22T14:39:47Z</time></trkpt><trkpt lat="42.31915989350107" lon="12.734787429460464"><ele>899.0000000000001</ele><time>2026-03-22T14:39:50Z</time></trkpt><trkpt lat="42.31906448063691" lon="12.734772034785436"><ele>899.0</ele><time>2026-03-22T14:39:51Z</time></trkpt><trkpt lat="42.31898707213382" lon="12.734702897067567"><ele>899.0</ele><time>2026-03-22T14:39:53Z</time></trkpt><trkpt lat="42.318932925919434" lon="12.73462043778055"><ele>899.0</ele><time>2026-03-22T14:39:54Z</time></trkpt><trkpt lat="42.31885841171035" lon="12.734576497265431"><ele>899.0000000000001</ele><time>2026-03-22T14:39:56Z</time></trkpt><trkpt lat="42.318784797240305" lon="12.734524975633683"><ele>899.0</ele><time>2026-03-22T14:39:58Z</time></trkpt><trkpt lat="42.3186849535377" lon="12.734523252305872"><ele>897.8000000000001</ele><time>2026-03-22T14:40:00Z</time></trkpt><trkpt lat="42.31860400074502" lon="12.734541468887958"><ele>896.6000000000001</ele><time>2026-03-22T14:40:01Z</time></trkpt><trkpt lat="42.318532397716424" lon="12.734551902385345"><ele>895.4</ele><time>2026-03-22T14:40:04Z</time></trkpt><trkpt lat="42.31848589045853" lon="12.734632743667342"><ele>894.2</ele><time>2026-03-22T14:40:06Z</time></trkpt><trkpt lat="42.318380443113604" lon="12.73464240483852"><ele>893.0</ele><time>2026-03-22T14:40:08Z</time></trkpt><trkpt lat="42.31826602978078" lon="12.734599816643609"><ele>893.0000000000001</ele><time>2026-03-22T14:40:10Z</time></trkpt><trkpt lat="42.31820478178974" lon="12.734572908291554"><ele>893.0</ele><time>2026-03-22T14:40:12Z</time></trkpt><trkpt lat="42.31811681620942" lon="12.734556283834756"><ele>893.0</ele><time>2026-03-22T14:40:14Z</time></trkpt><trkpt lat="42.31805005868877" lon="12.734555740236985"><ele>893.0</ele><time>2026-03-22T14:40:16Z</time></trkpt><trkpt lat="42.317995645775774" lon="12.734661694362734"><ele>893.0000000000001</ele><time>2026-03-22T14:40:18Z</time></trkpt><trkpt lat="42.31793433388481" lon="12.734766910846052"><ele>893.0</ele><time>2026-03-22T14:40:20Z</time></trkpt><trkpt lat="42.31781701647385" lon="12.73479377884499"><ele>890.4</ele><time>2026-03-22T14:40:23Z</time></trkpt><trkpt lat="42.317729604308646" lon="12.734832532110252"><ele>887.8</ele><time>2026-03-22T14:40:24Z</time></trkpt><trkpt lat="42.317661319720315" lon="12.734866837339005"><ele>885.2</ele><time>2026-03-22T14:40:25Z</time></trkpt><trkpt lat="42.317593673461275" lon="12.734881237867612"><ele>882.6</ele><time>2026-03-22T14:40:26Z</time></trkpt><trkpt lat="42.317528063057274" lon="12.734891892845637"><ele>880.0</ele><time>2026-03-22T14:40:27Z</time></trkpt><trkpt lat="42.31684368521407" lon="12.734661533223997"><ele>879.9999999999999</ele><time>2026-03-22T14:40:37Z</time></trkpt><trkpt lat="42.316756877425675" lon="12.734659345911751"><ele>880.0</ele><time>2026-03-22T14:40:40Z</time></trkpt><trkpt lat="42.31668048978134" lon="12.734712634082827"><ele>880.0</ele><time>2026-03-22T14:40:42Z</time></trkpt><trkpt lat="42.316603182423805" lon="12.734748298674457"><ele>880.0</ele><time>2026-03-22T14:40:44Z</time></trkpt><trkpt lat="42.3165325031014" lon="12.7348293482596"><ele>879.9999999999999</ele><time>2026-03-22T14:40:47Z</time></trkpt><trkpt lat="42.31643691701232" lon="12.734873989202878"><ele>880.0</ele><time>2026-03-22T14:40:49Z</time></trkpt><trkpt lat="42.31633026284055" lon="12.734886543261013"><ele>878.75</ele><time>2026-03-22T14:40:51Z</time></trkpt><trkpt lat="42.316250286883985" lon="12.734902421306966"><ele>877.5</ele><time>2026-03-22T14:40:53Z</time></trkpt><trkpt lat="42.316039156626246" lon="12.73490076718403"><ele>876.25</ele><time>2026-03-22T14:40:54Z</time></trkpt><trkpt lat="42.3159497723258" lon="12.734943880501751"><ele>875.0</ele><time>2026-03-22T14:40:56Z</time></trkpt><trkpt lat="42.31590243403307" lon="12.735022326401"><ele>875.0</ele><time>2026-03-22T14:40:57.999Z</time></trkpt><trkpt lat="42.31583031111564" lon="12.735088458311473"><ele>875.0</ele><time>2026-03-22T14:40:59.999Z</time></trkpt><trkpt lat="42.31572908480101" lon="12.735132878304762"><ele>875.0</ele><time>2026-03-22T14:41:01.999Z</time></trkpt><trkpt lat="42.31565236497904" lon="12.735157589733276"><ele>875.0</ele><time>2026-03-22T14:41:03.999Z</time></trkpt><trkpt lat="42.31557906778491" lon="12.735226465222604"><ele>875.0</ele><time>2026-03-22T14:41:06Z</time></trkpt><trkpt lat="42.31283544602373" lon="12.735096372160811"><ele>898.0</ele><time>2026-03-22T14:41:08Z</time></trkpt><trkpt lat="42.31537637638157" lon="12.735394744367298"><ele>849.0</ele><time>2026-03-22T14:41:11Z</time></trkpt><trkpt lat="42.312634297539404" lon="12.735260512171045"><ele>849.0</ele><time>2026-03-22T14:41:12Z</time></trkpt><trkpt lat="42.31254399857393" lon="12.735341118589753"><ele>849.0</ele><time>2026-03-22T14:41:14Z</time></trkpt><trkpt lat="42.31248975125418" lon="12.735400966929081"><ele>849.0</ele><time>2026-03-22T14:41:15Z</time></trkpt><trkpt lat="42.31238791708552" lon="12.735476921570484"><ele>849.0</ele><time>2026-03-22T14:41:17Z</time></trkpt><trkpt lat="42.31229124777741" lon="12.735528356229818"><ele>849.0</ele><time>2026-03-22T14:41:19Z</time></trkpt><trkpt lat="42.31221863019213" lon="12.735550367854188"><ele>852.25</ele><time>2026-03-22T14:41:22Z</time></trkpt><trkpt lat="42.31214462912721" lon="12.735549874024663"><ele>855.5</ele><time>2026-03-22T14:41:24Z</time></trkpt><trkpt lat="42.312056783895535" lon="12.735547085789976"><ele>858.75</ele><time>2026-03-22T14:41:27Z</time></trkpt><trkpt lat="42.31198494281254" lon="12.735514758631982"><ele>862.0</ele><time>2026-03-22T14:41:29Z</time></trkpt><trkpt lat="42.31165139682661" lon="12.73474937039519"><ele>850.4000000000001</ele><time>2026-03-22T14:41:32Z</time></trkpt><trkpt lat="42.31155984086245" lon="12.734659550614262"><ele>838.8000000000001</ele><time>2026-03-22T14:41:34Z</time></trkpt><trkpt lat="42.31151005176497" lon="12.73456831644397"><ele>827.2</ele><time>2026-03-22T14:41:36Z</time></trkpt><trkpt lat="42.31143384167944" lon="12.734505638184462"><ele>815.6</ele><time>2026-03-22T14:41:38Z</time></trkpt><trkpt lat="42.31132424003617" lon="12.734557417640724"><ele>804.0</ele><time>2026-03-22T14:41:40Z</time></trkpt><trkpt lat="42.311240862645704" lon="12.734548658014496"><ele>803.0</ele><time>2026-03-22T14:41:42Z</time></trkpt><trkpt lat="42.311151977948256" lon="12.734463532029656"><ele>802.0</ele><time>2026-03-22T14:41:44Z</time></trkpt><trkpt lat="42.31106876736034" lon="12.734441197705843"><ele>801.0</ele><time>2026-03-22T14:41:46Z</time></trkpt><trkpt lat="42.310988290144344" lon="12.734452596170078"><ele>800.0</ele><time>2026-03-22T14:41:49Z</time></trkpt><trkpt lat="42.310904679724494" lon="12.734399075330334"><ele>799.0</ele><time>2026-03-22T14:41:52Z</time></trkpt><trkpt lat="42.31081663581516" lon="12.734359319328602"><ele>794.6666666666666</ele><time>2026-03-22T14:41:54Z</time></trkpt><trkpt lat="42.310746901431806" lon="12.734314728289126"><ele>790.3333333333333</ele><time>2026-03-22T14:41:56Z</time></trkpt><trkpt lat="42.310665732479585" lon="12.734289418160897"><ele>786.0</ele><time>2026-03-22T14:41:58Z</time></trkpt><trkpt lat="42.310597282262194" lon="12.734272128964763"><ele>781.6666666666667</ele><time>2026-03-22T14:42:02Z</time></trkpt><trkpt lat="42.31053200579397" lon="12.734338963105898"><ele>777.3333333333334</ele><time>2026-03-22T14:42:06Z</time></trkpt><trkpt lat="42.31064598299416" lon="12.734245526968746"><ele>773.0</ele><time>2026-03-22T14:42:26Z</time></trkpt><trkpt lat="42.310567141974765" lon="12.734251409589138"><ele>771.5999999999999</ele><time>2026-03-22T14:43:28Z</time></trkpt><trkpt lat="42.310485618510874" lon="12.734214139760386"><ele>770.1999999999999</ele><time>2026-03-22T14:43:31Z</time></trkpt><trkpt lat="42.31046001626443" lon="12.734116838713941"><ele>768.8</ele><time>2026-03-22T14:43:33Z</time></trkpt><trkpt lat="42.310381845187536" lon="12.73399575299567"><ele>767.4</ele><time>2026-03-22T14:43:34Z</time></trkpt><trkpt lat="42.31030194977938" lon="12.733885206597238"><ele>766.0</ele><time>2026-03-22T14:43:35Z</time></trkpt><trkpt lat="42.31023721173816" lon="12.733762735947906"><ele>766.0</ele><time>2026-03-22T14:43:36Z</time></trkpt><trkpt lat="42.31019247688613" lon="12.733670671988312"><ele>766.0</ele><time>2026-03-22T14:43:37Z</time></trkpt><trkpt lat="42.310147754381376" lon="12.733600583969034"><ele>766.0</ele><time>2026-03-22T14:43:38Z</time></trkpt><trkpt lat="42.31008220150485" lon="12.733534520762051"><ele>766.0</ele><time>2026-03-22T14:43:39Z</time></trkpt><trkpt lat="42.30999305546907" lon="12.733480428649628"><ele>766.0</ele><time>2026-03-22T14:43:40Z</time></trkpt><trkpt lat="42.30989975308463" lon="12.733428095022417"><ele>766.0</ele><time>2026-03-22T14:43:42Z</time></trkpt><trkpt lat="42.30980483872394" lon="12.733415842570095"><ele>767.5</ele><time>2026-03-22T14:43:44Z</time></trkpt><trkpt lat="42.30974244864117" lon="12.73339599139518"><ele>769.0</ele><time>2026-03-22T14:43:46Z</time></trkpt><trkpt lat="42.309610844405896" lon="12.733476749781568"><ele>770.5</ele><time>2026-03-22T14:43:48Z</time></trkpt><trkpt lat="42.309533472676215" lon="12.733513781589082"><ele>772.0</ele><time>2026-03-22T14:43:49Z</time></trkpt><trkpt lat="42.30945582900183" lon="12.733550806471214"><ele>773.4999999999999</ele><time>2026-03-22T14:43:50Z</time></trkpt><trkpt lat="42.309386377397985" lon="12.733583862496749"><ele>775.0</ele><time>2026-03-22T14:43:51Z</time></trkpt><trkpt lat="42.3093144088182" lon="12.73360837419548"><ele>771.8333333333333</ele><time>2026-03-22T14:43:52Z</time></trkpt><trkpt lat="42.30923945105013" lon="12.733607270475275"><ele>768.6666666666666</ele><time>2026-03-22T14:43:53Z</time></trkpt><trkpt lat="42.3091601604045" lon="12.733600890209747"><ele>765.5</ele><time>2026-03-22T14:43:54Z</time></trkpt><trkpt lat="42.309091785316426" lon="12.733596182564442"><ele>762.3333333333333</ele><time>2026-03-22T14:43:55Z</time></trkpt><trkpt lat="42.30900545289391" lon="12.73359216618048"><ele>759.1666666666666</ele><time>2026-03-22T14:43:57Z</time></trkpt><trkpt lat="42.30891123207415" lon="12.733526574639862"><ele>756.0</ele><time>2026-03-22T14:43:59Z</time></trkpt><trkpt lat="42.308789303632814" lon="12.733533584538092"><ele>751.1999999999999</ele><time>2026-03-22T14:44:01Z</time></trkpt><trkpt lat="42.308687625927554" lon="12.733471832012983"><ele>746.4</ele><time>2026-03-22T14:44:03Z</time></trkpt><trkpt lat="42.308612181069" lon="12.733447665547226"><ele>741.6</ele><time>2026-03-22T14:44:04Z</time></trkpt><trkpt lat="42.308525955414346" lon="12.73343982637408"><ele>736.8</ele><time>2026-03-22T14:44:05Z</time></trkpt><trkpt lat="42.308434715249504" lon="12.733396384125683"><ele>732.0</ele><time>2026-03-22T14:44:06Z</time></trkpt><trkpt lat="42.30835684861546" lon="12.733331149580435"><ele>732.0</ele><time>2026-03-22T14:44:07Z</time></trkpt><trkpt lat="42.30829604407884" lon="12.733293769417436"><ele>732.0</ele><time>2026-03-22T14:44:08Z</time></trkpt><trkpt lat="42.308234042653346" lon="12.73327320690734"><ele>732.0</ele><time>2026-03-22T14:44:09Z</time></trkpt><trkpt lat="42.308142161121864" lon="12.73326542555463"><ele>732.0</ele><time>2026-03-22T14:44:10Z</time></trkpt><trkpt lat="42.30805573047816" lon="12.733229553689434"><ele>732.0</ele><time>2026-03-22T14:44:11Z</time></trkpt><trkpt lat="42.30797954390676" lon="12.733192398275378"><ele>732.0</ele><time>2026-03-22T14:44:12Z</time></trkpt><trkpt lat="42.30789612265025" lon="12.733165610068138"><ele>728.2</ele><time>2026-03-22T14:44:13Z</time></trkpt><trkpt lat="42.3078235319622" lon="12.733144129699642"><ele>724.4000000000001</ele><time>2026-03-22T14:44:14Z</time></trkpt><trkpt lat="42.307702254362894" lon="12.733130633699018"><ele>720.5999999999999</ele><time>2026-03-22T14:44:16Z</time></trkpt><trkpt lat="42.30760714058953" lon="12.733083221842342"><ele>716.8</ele><time>2026-03-22T14:44:18Z</time></trkpt><trkpt lat="42.30749884821199" lon="12.733063683834292"><ele>713.0</ele><time>2026-03-22T14:44:20Z</time></trkpt><trkpt lat="42.30738998672882" lon="12.733015810870207"><ele>713.0</ele><time>2026-03-22T14:44:22Z</time></trkpt><trkpt lat="42.30732246187448" lon="12.733015804798638"><ele>713.0</ele><time>2026-03-22T14:44:23Z</time></trkpt><trkpt lat="42.30725891798463" lon="12.733012997258445"><ele>713.0</ele><time>2026-03-22T14:44:24Z</time></trkpt><trkpt lat="42.30716512627011" lon="12.73300745069361"><ele>713.0</ele><time>2026-03-22T14:44:26Z</time></trkpt><trkpt lat="42.307101956674614" lon="12.732992786136373"><ele>713.0</ele><time>2026-03-22T14:44:30Z</time></trkpt><trkpt lat="42.30704111127821" lon="12.732951165358498"><ele>713.0</ele><time>2026-03-22T14:44:32Z</time></trkpt><trkpt lat="42.306940125122054" lon="12.732944641808215"><ele>709.75</ele><time>2026-03-22T14:44:34Z</time></trkpt><trkpt lat="42.306790045940495" lon="12.73288971425907"><ele>706.5</ele><time>2026-03-22T14:44:35Z</time></trkpt><trkpt lat="42.30667074739653" lon="12.732883029535326"><ele>703.25</ele><time>2026-03-22T14:44:36Z</time></trkpt><trkpt lat="42.30656354779148" lon="12.73287623595135"><ele>700.0</ele><time>2026-03-22T14:44:37Z</time></trkpt><trkpt lat="42.30644641995499" lon="12.732869131194198"><ele>697.2</ele><time>2026-03-22T14:44:38Z</time></trkpt><trkpt lat="42.30633613183124" lon="12.732868015677623"><ele>694.4</ele><time>2026-03-22T14:44:39Z</time></trkpt><trkpt lat="42.30624332243475" lon="12.732854254092425"><ele>691.5999999999999</ele><time>2026-03-22T14:44:40Z</time></trkpt><trkpt lat="42.30616419310547" lon="12.73286480326692"><ele>688.8</ele><time>2026-03-22T14:44:41Z</time></trkpt><trkpt lat="42.30609674729554" lon="12.732874411652192"><ele>686.0</ele><time>2026-03-22T14:44:42Z</time></trkpt><trkpt lat="42.3059780793418" lon="12.732941718009545"><ele>686.0</ele><time>2026-03-22T14:44:43Z</time></trkpt><trkpt lat="42.30586015992569" lon="12.7329995770251"><ele>686.0</ele><time>2026-03-22T14:44:44Z</time></trkpt><trkpt lat="42.30577374475172" lon="12.73302682605121"><ele>686.0</ele><time>2026-03-22T14:44:45Z</time></trkpt><trkpt lat="42.30565768012622" lon="12.733046799163139"><ele>686.0</ele><time>2026-03-22T14:44:47Z</time></trkpt><trkpt lat="42.30557760856037" lon="12.733066070784602"><ele>686.0</ele><time>2026-03-22T14:44:48Z</time></trkpt><trkpt lat="42.305506785712986" lon="12.73305502063158"><ele>684.1666666666666</ele><time>2026-03-22T14:44:49Z</time></trkpt><trkpt lat="42.30542206512797" lon="12.73305153239788"><ele>682.3333333333333</ele><time>2026-03-22T14:44:50Z</time></trkpt><trkpt lat="42.30535289484128" lon="12.733042858850203"><ele>680.5</ele><time>2026-03-22T14:44:51Z</time></trkpt><trkpt lat="42.3052825637294" lon="12.733048976378926"><ele>678.6666666666666</ele><time>2026-03-22T14:44:52Z</time></trkpt><trkpt lat="42.30518710595022" lon="12.733047853058423"><ele>676.8333333333334</ele><time>2026-03-22T14:44:54Z</time></trkpt><trkpt lat="42.30510619394992" lon="12.733092174161998"><ele>675.0</ele><time>2026-03-22T14:44:56Z</time></trkpt><trkpt lat="42.30503338405013" lon="12.733103261415378"><ele>675.0</ele><time>2026-03-22T14:44:58Z</time></trkpt><trkpt lat="42.304970418315285" lon="12.733115008861544"><ele>675.0</ele><time>2026-03-22T14:44:59Z</time></trkpt><trkpt lat="42.30487830135301" lon="12.733107561239981"><ele>675.0</ele><time>2026-03-22T14:45:01Z</time></trkpt><trkpt lat="42.30463466075258" lon="12.733033341125116"><ele>675.0</ele><time>2026-03-22T14:45:03Z</time></trkpt><trkpt lat="42.304506343749296" lon="12.733009287928308"><ele>672.0</ele><time>2026-03-22T14:45:05Z</time></trkpt><trkpt lat="42.30442081633806" lon="12.733009793170217"><ele>669.0</ele><time>2026-03-22T14:45:06Z</time></trkpt><trkpt lat="42.30433684538918" lon="12.733047860545286"><ele>666.0</ele><time>2026-03-22T14:45:07Z</time></trkpt><trkpt lat="42.304259241281166" lon="12.733061506219919"><ele>663.0</ele><time>2026-03-22T14:45:08Z</time></trkpt><trkpt lat="42.30418816504691" lon="12.733064990614574"><ele>660.0</ele><time>2026-03-22T14:45:08.999Z</time></trkpt><trkpt lat="42.30411568307212" lon="12.733054150308265"><ele>657.0</ele><time>2026-03-22T14:45:09.999Z</time></trkpt><trkpt lat="42.304035256674425" lon="12.733033362243148"><ele>657.0</ele><time>2026-03-22T14:45:10.999Z</time></trkpt><trkpt lat="42.30396424820289" lon="12.733003958638298"><ele>657.0</ele><time>2026-03-22T14:45:11.999Z</time></trkpt><trkpt lat="42.303895127967245" lon="12.732967219759573"><ele>657.0</ele><time>2026-03-22T14:45:12.999Z</time></trkpt><trkpt lat="42.303845372285565" lon="12.732913726343362"><ele>657.0</ele><time>2026-03-22T14:45:13.999Z</time></trkpt><trkpt lat="42.30379494613743" lon="12.732852927370375"><ele>657.0</ele><time>2026-03-22T14:45:14.999Z</time></trkpt><trkpt lat="42.303716845481524" lon="12.732754124467641"><ele>657.0</ele><time>2026-03-22T14:45:17Z</time></trkpt><trkpt lat="42.303615904382085" lon="12.732723609709298"><ele>659.2</ele><time>2026-03-22T14:45:19Z</time></trkpt><trkpt lat="42.303633312218516" lon="12.732835018776584"><ele>661.4000000000001</ele><time>2026-03-22T14:45:21Z</time></trkpt><trkpt lat="42.30364943419356" lon="12.732995479438825"><ele>663.5999999999999</ele><time>2026-03-22T14:45:23Z</time></trkpt><trkpt lat="42.303661727248716" lon="12.73315852374669"><ele>665.8</ele><time>2026-03-22T14:45:25Z</time></trkpt><trkpt lat="42.303719453181664" lon="12.733242323129097"><ele>668.0</ele><time>2026-03-22T14:45:26Z</time></trkpt><trkpt lat="42.30374116542836" lon="12.733348719175247"><ele>668.0</ele><time>2026-03-22T14:45:28Z</time></trkpt><trkpt lat="42.30376833373155" lon="12.733475473228106"><ele>668.0</ele><time>2026-03-22T14:45:31Z</time></trkpt><trkpt lat="42.303807272579185" lon="12.733550395523544"><ele>668.0</ele><time>2026-03-22T14:45:33Z</time></trkpt><trkpt lat="42.30383743645053" lon="12.733641565154214"><ele>668.0</ele><time>2026-03-22T14:45:35Z</time></trkpt><trkpt lat="42.303825435137114" lon="12.733738476653897"><ele>668.0</ele><time>2026-03-22T14:45:38Z</time></trkpt><trkpt lat="42.30380478916828" lon="12.73385945924383"><ele>668.0</ele><time>2026-03-22T14:45:43Z</time></trkpt><trkpt lat="42.303826774631595" lon="12.734015345118527"><ele>668.0</ele><time>2026-03-22T14:45:45Z</time></trkpt><trkpt lat="42.3038421600797" lon="12.734157467683229"><ele>668.0</ele><time>2026-03-22T14:45:47Z</time></trkpt><trkpt lat="42.30381172433773" lon="12.734320576019044"><ele>668.0</ele><time>2026-03-22T14:45:49Z</time></trkpt><trkpt lat="42.30378609775028" lon="12.734404650759705"><ele>668.0</ele><time>2026-03-22T14:45:50Z</time></trkpt><trkpt lat="42.30375445530811" lon="12.734481342607546"><ele>668.0</ele><time>2026-03-22T14:45:51Z</time></trkpt><trkpt lat="42.30371040927154" lon="12.734596040388945"><ele>668.0</ele><time>2026-03-22T14:45:53Z</time></trkpt><trkpt lat="42.30366003775562" lon="12.734647261232853"><ele>668.0</ele><time>2026-03-22T14:45:56Z</time></trkpt><trkpt lat="42.303554617945885" lon="12.73470282684357"><ele>668.0</ele><time>2026-03-22T14:48:08Z</time></trkpt><trkpt lat="42.30348772248434" lon="12.73477541286523"><ele>668.0</ele><time>2026-03-22T14:48:10Z</time></trkpt><trkpt lat="42.30342832338392" lon="12.734875531517666"><ele>668.0</ele><time>2026-03-22T14:48:12Z</time></trkpt><trkpt lat="42.30337365266412" lon="12.73500981453809"><ele>668.0</ele><time>2026-03-22T14:48:14Z</time></trkpt><trkpt lat="42.30332288400502" lon="12.735137915253196"><ele>668.0</ele><time>2026-03-22T14:48:16Z</time></trkpt><trkpt lat="42.30327541821361" lon="12.735275601313518"><ele>668.0</ele><time>2026-03-22T14:48:18Z</time></trkpt><trkpt lat="42.30324553126817" lon="12.735385581114382"><ele>668.0</ele><time>2026-03-22T14:48:21Z</time></trkpt><trkpt lat="42.30315202692321" lon="12.735430201117694"><ele>668.0</ele><time>2026-03-22T14:48:24Z</time></trkpt><trkpt lat="42.30307621892956" lon="12.735438015877628"><ele>668.5</ele><time>2026-03-22T14:48:27Z</time></trkpt><trkpt lat="42.30301957140846" lon="12.73550666818332"><ele>669.0</ele><time>2026-03-22T14:48:37Z</time></trkpt><trkpt lat="42.30303728393442" lon="12.735620466069138"><ele>669.5</ele><time>2026-03-22T14:48:41Z</time></trkpt><trkpt lat="42.30306434581044" lon="12.7357224110816"><ele>670.0</ele><time>2026-03-22T14:48:44Z</time></trkpt><trkpt lat="42.303047835366165" lon="12.735810157239943"><ele>670.5</ele><time>2026-03-22T14:48:47Z</time></trkpt><trkpt lat="42.30308279287257" lon="12.735923785960358"><ele>671.0</ele><time>2026-03-22T14:48:50Z</time></trkpt><trkpt lat="42.303070405849695" lon="12.736027855020552"><ele>673.1666666666666</ele><time>2026-03-22T14:48:52Z</time></trkpt><trkpt lat="42.303052843367134" lon="12.736127961384978"><ele>675.3333333333333</ele><time>2026-03-22T14:48:54Z</time></trkpt><trkpt lat="42.30298288692566" lon="12.73619991542505"><ele>677.5</ele><time>2026-03-22T14:48:57Z</time></trkpt><trkpt lat="42.302936578923884" lon="12.736269701040674"><ele>679.6666666666666</ele><time>2026-03-22T14:48:59Z</time></trkpt><trkpt lat="42.30285291349864" lon="12.736401887221033"><ele>681.8333333333334</ele><time>2026-03-22T14:49:01Z</time></trkpt><trkpt lat="42.30280575280105" lon="12.736481091531488"><ele>684.0</ele><time>2026-03-22T14:49:02Z</time></trkpt><trkpt lat="42.30276647442092" lon="12.736547697642187"><ele>684.0</ele><time>2026-03-22T14:49:03Z</time></trkpt><trkpt lat="42.30272798307719" lon="12.736620617151491"><ele>684.0</ele><time>2026-03-22T14:49:04Z</time></trkpt><trkpt lat="42.30269758656274" lon="12.7367087316894"><ele>684.0</ele><time>2026-03-22T14:49:05Z</time></trkpt><trkpt lat="42.30266453287969" lon="12.7368336332452"><ele>684.0</ele><time>2026-03-22T14:49:07Z</time></trkpt><trkpt lat="42.302607784251244" lon="12.736893620404826"><ele>684.0</ele><time>2026-03-22T14:49:08Z</time></trkpt><trkpt lat="42.30254832956101" lon="12.7369446923525"><ele>684.0</ele><time>2026-03-22T14:49:09Z</time></trkpt><trkpt lat="42.30249171072564" lon="12.737041705511452"><ele>684.6666666666666</ele><time>2026-03-22T14:49:11Z</time></trkpt><trkpt lat="42.30244212460542" lon="12.737162264698204"><ele>685.3333333333334</ele><time>2026-03-22T14:49:13Z</time></trkpt><trkpt lat="42.302431924438416" lon="12.73724758256924"><ele>686.0</ele><time>2026-03-22T14:49:14Z</time></trkpt><trkpt lat="42.302415261835364" lon="12.73733629925129"><ele>686.6666666666667</ele><time>2026-03-22T14:49:15Z</time></trkpt><trkpt lat="42.30235445723307" lon="12.737419344595063"><ele>687.3333333333334</ele><time>2026-03-22T14:49:17Z</time></trkpt><trkpt lat="42.302248616380616" lon="12.737470967736911"><ele>688.0</ele><time>2026-03-22T14:49:19Z</time></trkpt><trkpt lat="42.302149131794636" lon="12.73753477984861"><ele>688.0</ele><time>2026-03-22T14:49:21Z</time></trkpt><trkpt lat="42.302060596035396" lon="12.737573173862959"><ele>688.0</ele><time>2026-03-22T14:49:23Z</time></trkpt><trkpt lat="42.301996671423424" lon="12.73756989508586"><ele>688.0</ele><time>2026-03-22T14:49:24Z</time></trkpt><trkpt lat="42.30189743852336" lon="12.737587596114954"><ele>688.0</ele><time>2026-03-22T14:49:26Z</time></trkpt><trkpt lat="42.30177164800099" lon="12.737631127943969"><ele>688.0</ele><time>2026-03-22T14:49:28Z</time></trkpt><trkpt lat="42.30169582332041" lon="12.73769822554857"><ele>689.3333333333334</ele><time>2026-03-22T14:49:30Z</time></trkpt><trkpt lat="42.30165321952211" lon="12.737785576994728"><ele>690.6666666666667</ele><time>2026-03-22T14:49:32Z</time></trkpt><trkpt lat="42.30159156403976" lon="12.737866641465864"><ele>692.0</ele><time>2026-03-22T14:49:34Z</time></trkpt><trkpt lat="42.301494341122456" lon="12.737924272475029"><ele>693.3333333333334</ele><time>2026-03-22T14:49:36Z</time></trkpt><trkpt lat="42.30140135524086" lon="12.737981566486294"><ele>694.6666666666666</ele><time>2026-03-22T14:49:38Z</time></trkpt><trkpt lat="42.30133883180536" lon="12.738000947727036"><ele>696.0</ele><time>2026-03-22T14:49:40Z</time></trkpt><trkpt lat="42.301239534924285" lon="12.737995362467684"><ele>696.0</ele><time>2026-03-22T14:49:42Z</time></trkpt><trkpt lat="42.30114374370467" lon="12.737991396262117"><ele>696.0</ele><time>2026-03-22T14:49:44Z</time></trkpt><trkpt lat="42.3010586459452" lon="12.738009291705254"><ele>696.0</ele><time>2026-03-22T14:49:47Z</time></trkpt><trkpt lat="42.30099185120024" lon="12.738008907248743"><ele>696.0</ele><time>2026-03-22T14:49:50Z</time></trkpt><trkpt lat="42.30092657208898" lon="12.737990956649364"><ele>696.0</ele><time>2026-03-22T14:49:53Z</time></trkpt><trkpt lat="42.30086395654295" lon="12.737953991719188"><ele>696.0</ele><time>2026-03-22T14:49:56Z</time></trkpt><trkpt lat="42.300776243502526" lon="12.7379362238244"><ele>696.0</ele><time>2026-03-22T14:49:59Z</time></trkpt><trkpt lat="42.30071993933683" lon="12.737893112475358"><ele>696.0</ele><time>2026-03-22T14:50:01Z</time></trkpt><trkpt lat="42.30067997223009" lon="12.73781735995549"><ele>696.0</ele><time>2026-03-22T14:50:03Z</time></trkpt><trkpt lat="42.30060080296076" lon="12.737709817283491"><ele>696.0</ele><time>2026-03-22T14:50:05Z</time></trkpt><trkpt lat="42.30051185036393" lon="12.737666998462831"><ele>696.0</ele><time>2026-03-22T14:50:07Z</time></trkpt><trkpt lat="42.30044546293097" lon="12.737638703813909"><ele>696.0</ele><time>2026-03-22T14:50:08Z</time></trkpt><trkpt lat="42.30036768266921" lon="12.737636479832643"><ele>697.2857142857142</ele><time>2026-03-22T14:50:09Z</time></trkpt><trkpt lat="42.30028773510347" lon="12.737637959915478"><ele>698.5714285714286</ele><time>2026-03-22T14:50:10Z</time></trkpt><trkpt lat="42.30021593016686" lon="12.737665343683434"><ele>699.8571428571429</ele><time>2026-03-22T14:50:11Z</time></trkpt><trkpt lat="42.30014746367703" lon="12.73767341163388"><ele>701.1428571428571</ele><time>2026-03-22T14:50:12Z</time></trkpt><trkpt lat="42.30008229618122" lon="12.737665542346525"><ele>702.4285714285714</ele><time>2026-03-22T14:50:13Z</time></trkpt><trkpt lat="42.30000078666599" lon="12.73766032536439"><ele>703.7142857142857</ele><time>2026-03-22T14:50:15Z</time></trkpt><trkpt lat="42.299942852643674" lon="12.737621170918628"><ele>705.0</ele><time>2026-03-22T14:50:19Z</time></trkpt><trkpt lat="42.299882547882895" lon="12.73759573462476"><ele>704.9999999999999</ele><time>2026-03-22T14:50:24Z</time></trkpt><trkpt lat="42.29982226044655" lon="12.737564701613325"><ele>705.0</ele><time>2026-03-22T14:50:33Z</time></trkpt><trkpt lat="42.29976191028094" lon="12.737592254849382"><ele>705.0</ele><time>2026-03-22T14:50:39Z</time></trkpt><trkpt lat="42.299680698996106" lon="12.737608045560059"><ele>705.0</ele><time>2026-03-22T14:50:41Z</time></trkpt><trkpt lat="42.29961841329018" lon="12.737575119579786"><ele>705.0</ele><time>2026-03-22T14:50:43Z</time></trkpt><trkpt lat="42.29969128131027" lon="12.73758679369805"><ele>704.9999999999999</ele><time>2026-03-22T14:53:18Z</time></trkpt><trkpt lat="42.299758069366625" lon="12.737572467459158"><ele>705.0</ele><time>2026-03-22T14:53:26Z</time></trkpt><trkpt lat="42.29969383114495" lon="12.737594345206713"><ele>705.6</ele><time>2026-03-22T14:54:09Z</time></trkpt><trkpt lat="42.29963067237655" lon="12.737545655764697"><ele>706.2</ele><time>2026-03-22T14:54:23Z</time></trkpt><trkpt lat="42.299547348201365" lon="12.737495885514436"><ele>706.8</ele><time>2026-03-22T14:54:48Z</time></trkpt><trkpt lat="42.29947253230082" lon="12.73742883334265"><ele>707.4</ele><time>2026-03-22T14:54:50Z</time></trkpt><trkpt lat="42.29935169988188" lon="12.737473629832172"><ele>708.0</ele><time>2026-03-22T14:54:54Z</time></trkpt><trkpt lat="42.2992703574145" lon="12.737491586759715"><ele>708.0</ele><time>2026-03-22T14:54:55Z</time></trkpt><trkpt lat="42.29919594998213" lon="12.737500465493177"><ele>708.0</ele><time>2026-03-22T14:54:56Z</time></trkpt><trkpt lat="42.299106187855536" lon="12.73741645321796"><ele>708.0</ele><time>2026-03-22T14:54:58Z</time></trkpt><trkpt lat="42.299017137223764" lon="12.737371368782595"><ele>708.0</ele><time>2026-03-22T14:55:00Z</time></trkpt><trkpt lat="42.29894684896797" lon="12.737396138201081"><ele>708.0</ele><time>2026-03-22T14:55:01Z</time></trkpt><trkpt lat="42.29885542733586" lon="12.737468515311644"><ele>708.5999999999999</ele><time>2026-03-22T14:55:02Z</time></trkpt><trkpt lat="42.29878788794771" lon="12.737555479182944"><ele>709.1999999999999</ele><time>2026-03-22T14:55:03Z</time></trkpt><trkpt lat="42.298729938102966" lon="12.737606973520556"><ele>709.8</ele><time>2026-03-22T14:55:04Z</time></trkpt><trkpt lat="42.298647685572526" lon="12.737595034109676"><ele>710.4</ele><time>2026-03-22T14:55:06Z</time></trkpt><trkpt lat="42.29854744989265" lon="12.737593541839141"><ele>711.0</ele><time>2026-03-22T14:55:08Z</time></trkpt><trkpt lat="42.29840952791061" lon="12.737606071043892"><ele>711.0</ele><time>2026-03-22T14:55:10Z</time></trkpt><trkpt lat="42.29832966681327" lon="12.737572528221248"><ele>711.0</ele><time>2026-03-22T14:55:11Z</time></trkpt><trkpt lat="42.298253155835916" lon="12.737589006050513"><ele>711.0</ele><time>2026-03-22T14:55:12Z</time></trkpt><trkpt lat="42.29814964375218" lon="12.737689580357992"><ele>711.0</ele><time>2026-03-22T14:55:14Z</time></trkpt><trkpt lat="42.29806410388176" lon="12.737693349109943"><ele>711.0</ele><time>2026-03-22T14:55:15Z</time></trkpt><trkpt lat="42.297993391963075" lon="12.737712084488386"><ele>711.0</ele><time>2026-03-22T14:55:16Z</time></trkpt><trkpt lat="42.29792241454212" lon="12.737722158822523"><ele>712.0</ele><time>2026-03-22T14:55:18Z</time></trkpt><trkpt lat="42.29782262910387" lon="12.737705034301404"><ele>713.0</ele><time>2026-03-22T14:55:21Z</time></trkpt><trkpt lat="42.29774780546186" lon="12.737705645014183"><ele>714.0</ele><time>2026-03-22T14:55:22Z</time></trkpt><trkpt lat="42.29767140363827" lon="12.737701481149013"><ele>715.0</ele><time>2026-03-22T14:55:23Z</time></trkpt><trkpt lat="42.29757934668631" lon="12.737693184200632"><ele>716.0</ele><time>2026-03-22T14:55:24Z</time></trkpt><trkpt lat="42.2974971659413" lon="12.737694476378879"><ele>717.0</ele><time>2026-03-22T14:55:25Z</time></trkpt><trkpt lat="42.29741695870131" lon="12.737664986141954"><ele>717.0</ele><time>2026-03-22T14:55:26Z</time></trkpt><trkpt lat="42.29733114446409" lon="12.737620440975668"><ele>717.0</ele><time>2026-03-22T14:55:27Z</time></trkpt><trkpt lat="42.297238107949646" lon="12.737585712766101"><ele>717.0</ele><time>2026-03-22T14:55:28Z</time></trkpt><trkpt lat="42.29715224739003" lon="12.737569279541077"><ele>717.0</ele><time>2026-03-22T14:55:29Z</time></trkpt><trkpt lat="42.29708316197591" lon="12.737549727483808"><ele>717.0</ele><time>2026-03-22T14:55:30Z</time></trkpt><trkpt lat="42.29695058213068" lon="12.737563150803181"><ele>717.8333333333334</ele><time>2026-03-22T14:55:32Z</time></trkpt><trkpt lat="42.29685774108279" lon="12.737548303045548"><ele>718.6666666666666</ele><time>2026-03-22T14:55:33Z</time></trkpt><trkpt lat="42.29677309931781" lon="12.737530425517654"><ele>719.5</ele><time>2026-03-22T14:55:34Z</time></trkpt><trkpt lat="42.296701665798935" lon="12.73750670048225"><ele>720.3333333333333</ele><time>2026-03-22T14:55:35Z</time></trkpt><trkpt lat="42.296639137722366" lon="12.737451643416472"><ele>721.1666666666666</ele><time>2026-03-22T14:55:36Z</time></trkpt><trkpt lat="42.29655723177893" lon="12.73741327127641"><ele>722.0</ele><time>2026-03-22T14:55:37Z</time></trkpt><trkpt lat="42.2964731542334" lon="12.737370191753003"><ele>721.8333333333333</ele><time>2026-03-22T14:55:38Z</time></trkpt><trkpt lat="42.29639400801081" lon="12.737324184212513"><ele>721.6666666666666</ele><time>2026-03-22T14:55:39Z</time></trkpt><trkpt lat="42.29631277491017" lon="12.73730992105448"><ele>721.5</ele><time>2026-03-22T14:55:42Z</time></trkpt><trkpt lat="42.29623782072515" lon="12.737354435383832"><ele>721.3333333333334</ele><time>2026-03-22T14:55:44Z</time></trkpt><trkpt lat="42.29612566523892" lon="12.73736225673548"><ele>721.1666666666667</ele><time>2026-03-22T14:55:46.001Z</time></trkpt><trkpt lat="42.296052047364256" lon="12.737359817104656"><ele>721.0</ele><time>2026-03-22T14:55:47.001Z</time></trkpt><trkpt lat="42.29597198594728" lon="12.737345752689714"><ele>721.0</ele><time>2026-03-22T14:55:48.001Z</time></trkpt><trkpt lat="42.295906943862995" lon="12.737349121889679"><ele>721.0</ele><time>2026-03-22T14:55:49.001Z</time></trkpt><trkpt lat="42.29583620405502" lon="12.737336954469058"><ele>721.0</ele><time>2026-03-22T14:55:54.001Z</time></trkpt><trkpt lat="42.295808199659454" lon="12.737437344148665"><ele>721.0</ele><time>2026-03-22T14:55:57.001Z</time></trkpt><trkpt lat="42.29571448317467" lon="12.737492004088248"><ele>721.0</ele><time>2026-03-22T14:56:00.001Z</time></trkpt><trkpt lat="42.29562286765767" lon="12.737508498743637"><ele>721.0</ele><time>2026-03-22T14:56:02Z</time></trkpt><trkpt lat="42.295549837379326" lon="12.737515254342995"><ele>720.8333333333334</ele><time>2026-03-22T14:56:03Z</time></trkpt><trkpt lat="42.295479074988" lon="12.737525402892507"><ele>720.6666666666667</ele><time>2026-03-22T14:56:04Z</time></trkpt><trkpt lat="42.295397727894866" lon="12.73752145078002"><ele>720.5</ele><time>2026-03-22T14:56:06Z</time></trkpt><trkpt lat="42.2953363551241" lon="12.737497102232457"><ele>720.3333333333334</ele><time>2026-03-22T14:56:08Z</time></trkpt><trkpt lat="42.295253254991835" lon="12.737472671511771"><ele>720.1666666666666</ele><time>2026-03-22T14:56:11Z</time></trkpt><trkpt lat="42.295147162825714" lon="12.737535269431458"><ele>720.0</ele><time>2026-03-22T14:56:13Z</time></trkpt><trkpt lat="42.2951289554629" lon="12.737625650838254"><ele>720.0</ele><time>2026-03-22T14:56:15Z</time></trkpt><trkpt lat="42.295068795222306" lon="12.737693095895713"><ele>720.0</ele><time>2026-03-22T14:56:19Z</time></trkpt><trkpt lat="42.29500050516846" lon="12.737682497804169"><ele>720.0</ele><time>2026-03-22T14:56:20Z</time></trkpt><trkpt lat="42.294930611856465" lon="12.737682803162064"><ele>720.0</ele><time>2026-03-22T14:56:21Z</time></trkpt><trkpt lat="42.2948369254154" lon="12.737694955287537"><ele>720.0</ele><time>2026-03-22T14:56:22Z</time></trkpt><trkpt lat="42.29475253779582" lon="12.737713056458794"><ele>720.0</ele><time>2026-03-22T14:56:23Z</time></trkpt><trkpt lat="42.294666684270496" lon="12.737740667965566"><ele>723.1666666666666</ele><time>2026-03-22T14:56:24Z</time></trkpt><trkpt lat="42.29460046186828" lon="12.737798694837124"><ele>726.3333333333334</ele><time>2026-03-22T14:56:25Z</time></trkpt><trkpt lat="42.294526787892146" lon="12.73781888973873"><ele>729.5</ele><time>2026-03-22T14:56:26Z</time></trkpt><trkpt lat="42.29444988574055" lon="12.737828947852648"><ele>732.6666666666667</ele><time>2026-03-22T14:56:27Z</time></trkpt><trkpt lat="42.29436883502862" lon="12.737843774860174"><ele>735.8333333333334</ele><time>2026-03-22T14:56:28Z</time></trkpt><trkpt lat="42.294292814097886" lon="12.73784765860325"><ele>739.0</ele><time>2026-03-22T14:56:29Z</time></trkpt><trkpt lat="42.29418207707027" lon="12.7378951952738"><ele>739.0</ele><time>2026-03-22T14:56:31Z</time></trkpt><trkpt lat="42.29409072316116" lon="12.73799473541009"><ele>739.0</ele><time>2026-03-22T14:56:33Z</time></trkpt><trkpt lat="42.29403761393583" lon="12.738062393149816"><ele>739.0</ele><time>2026-03-22T14:56:34Z</time></trkpt><trkpt lat="42.293971301146385" lon="12.7381354424312"><ele>739.0</ele><time>2026-03-22T14:56:35Z</time></trkpt><trkpt lat="42.293908968966" lon="12.738195359571513"><ele>739.0</ele><time>2026-03-22T14:56:36Z</time></trkpt><trkpt lat="42.29383220788633" lon="12.738255907918223"><ele>739.0</ele><time>2026-03-22T14:56:38Z</time></trkpt><trkpt lat="42.2937584310456" lon="12.738339288177485"><ele>739.6</ele><time>2026-03-22T14:56:40Z</time></trkpt><trkpt lat="42.29368712450413" lon="12.738423370722854"><ele>740.2</ele><time>2026-03-22T14:56:42Z</time></trkpt><trkpt lat="42.29361709044079" lon="12.73850740648719"><ele>740.8000000000001</ele><time>2026-03-22T14:56:46Z</time></trkpt><trkpt lat="42.29354965565737" lon="12.738574692451623"><ele>741.4000000000001</ele><time>2026-03-22T14:56:48Z</time></trkpt><trkpt lat="42.293493531739145" lon="12.738622479674605"><ele>742.0</ele><time>2026-03-22T14:56:50Z</time></trkpt><trkpt lat="42.293347009609676" lon="12.738810506651362"><ele>743.4000000000001</ele><time>2026-03-22T14:56:52Z</time></trkpt><trkpt lat="42.293320101543266" lon="12.738989427212923"><ele>744.8000000000001</ele><time>2026-03-22T14:56:54Z</time></trkpt><trkpt lat="42.29327136366994" lon="12.739075520602793"><ele>746.2</ele><time>2026-03-22T14:56:55Z</time></trkpt><trkpt lat="42.29324237197092" lon="12.739161945537118"><ele>747.6</ele><time>2026-03-22T14:56:56Z</time></trkpt><trkpt lat="42.293210425016525" lon="12.73924169294832"><ele>749.0</ele><time>2026-03-22T14:56:57Z</time></trkpt><trkpt lat="42.293133697206976" lon="12.739375012211795"><ele>750.1666666666666</ele><time>2026-03-22T14:56:59Z</time></trkpt><trkpt lat="42.293087142773736" lon="12.739464551667322"><ele>751.3333333333333</ele><time>2026-03-22T14:57:01Z</time></trkpt><trkpt lat="42.293038619761795" lon="12.739532069011469"><ele>752.5</ele><time>2026-03-22T14:57:04Z</time></trkpt><trkpt lat="42.2930893729513" lon="12.739608042976482"><ele>753.6666666666666</ele><time>2026-03-22T14:57:11Z</time></trkpt><trkpt lat="42.29313955958531" lon="12.739676165728056"><ele>754.8333333333334</ele><time>2026-03-22T14:57:16Z</time></trkpt><trkpt lat="42.29316885112091" lon="12.739762610766965"><ele>756.0</ele><time>2026-03-22T14:58:07Z</time></trkpt><trkpt lat="42.293087371624786" lon="12.739736273771582"><ele>758.3333333333334</ele><time>2026-03-22T14:58:21Z</time></trkpt><trkpt lat="42.292995211234526" lon="12.739692337747563"><ele>760.6666666666667</ele><time>2026-03-22T14:58:23Z</time></trkpt><trkpt lat="42.2929288448433" lon="12.739674418337081"><ele>763.0</ele><time>2026-03-22T14:58:24Z</time></trkpt><trkpt lat="42.29285134709746" lon="12.739629966816766"><ele>765.3333333333334</ele><time>2026-03-22T14:58:25Z</time></trkpt><trkpt lat="42.29280903605786" lon="12.7395397729622"><ele>767.6666666666667</ele><time>2026-03-22T14:58:26Z</time></trkpt><trkpt lat="42.29271875898478" lon="12.739491459283188"><ele>770.0</ele><time>2026-03-22T14:58:27Z</time></trkpt><trkpt lat="42.292626404219824" lon="12.739442980713873"><ele>770.0</ele><time>2026-03-22T14:58:28Z</time></trkpt><trkpt lat="42.292550638811655" lon="12.739392589821241"><ele>770.0</ele><time>2026-03-22T14:58:29Z</time></trkpt><trkpt lat="42.29246919184349" lon="12.739316868430478"><ele>770.0</ele><time>2026-03-22T14:58:30Z</time></trkpt><trkpt lat="42.29238098467126" lon="12.73916868386923"><ele>770.0</ele><time>2026-03-22T14:58:31Z</time></trkpt><trkpt lat="42.29229206153726" lon="12.739081615431573"><ele>770.0</ele><time>2026-03-22T14:58:32Z</time></trkpt><trkpt lat="42.292215948794194" lon="12.738980426862254"><ele>768.2</ele><time>2026-03-22T14:58:33Z</time></trkpt><trkpt lat="42.29214749328668" lon="12.738899938133478"><ele>766.4</ele><time>2026-03-22T14:58:34Z</time></trkpt><trkpt lat="42.29208037080543" lon="12.738844058755458"><ele>764.5999999999999</ele><time>2026-03-22T14:58:35Z</time></trkpt><trkpt lat="42.29197791279826" lon="12.738756539778253"><ele>762.8</ele><time>2026-03-22T14:58:36Z</time></trkpt><trkpt lat="42.291842033400016" lon="12.73871326289103"><ele>761.0</ele><time>2026-03-22T14:58:37Z</time></trkpt><trkpt lat="42.29171318432186" lon="12.738666602749896"><ele>761.0</ele><time>2026-03-22T14:58:38Z</time></trkpt><trkpt lat="42.29161388437673" lon="12.738584153344462"><ele>761.0</ele><time>2026-03-22T14:58:39Z</time></trkpt><trkpt lat="42.29152664492434" lon="12.738471997662716"><ele>761.0</ele><time>2026-03-22T14:58:40Z</time></trkpt><trkpt lat="42.29142384789093" lon="12.738408071345773"><ele>761.0</ele><time>2026-03-22T14:58:41Z</time></trkpt><trkpt lat="42.29134996554251" lon="12.738325084268784"><ele>761.0</ele><time>2026-03-22T14:58:42Z</time></trkpt><trkpt lat="42.29129769550729" lon="12.73822846447487"><ele>758.5</ele><time>2026-03-22T14:58:43Z</time></trkpt><trkpt lat="42.29125405998272" lon="12.738159997789381"><ele>756.0</ele><time>2026-03-22T14:58:44Z</time></trkpt><trkpt lat="42.29123845754094" lon="12.738069711884709"><ele>753.5</ele><time>2026-03-22T14:58:45Z</time></trkpt><trkpt lat="42.291191198243254" lon="12.737962188028511"><ele>751.0</ele><time>2026-03-22T14:58:46Z</time></trkpt><trkpt lat="42.29114872972339" lon="12.737845713835057"><ele>748.5</ele><time>2026-03-22T14:58:47Z</time></trkpt><trkpt lat="42.29109594962328" lon="12.737720537558877"><ele>746.0</ele><time>2026-03-22T14:58:48Z</time></trkpt><trkpt lat="42.29103519487053" lon="12.737577667266883"><ele>744.4</ele><time>2026-03-22T14:58:49Z</time></trkpt><trkpt lat="42.290984392169236" lon="12.73745384897393"><ele>742.8</ele><time>2026-03-22T14:58:50Z</time></trkpt><trkpt lat="42.29092760269805" lon="12.73738357763876"><ele>741.1999999999999</ele><time>2026-03-22T14:58:51Z</time></trkpt><trkpt lat="42.290826725799704" lon="12.737301405280272"><ele>739.5999999999999</ele><time>2026-03-22T14:58:53Z</time></trkpt><trkpt lat="42.29074582416178" lon="12.737274272505703"><ele>738.0</ele><time>2026-03-22T14:58:54Z</time></trkpt><trkpt lat="42.290634377782396" lon="12.737256977930778"><ele>736.8</ele><time>2026-03-22T14:58:55Z</time></trkpt><trkpt lat="42.29051642889994" lon="12.737257910480643"><ele>735.5999999999999</ele><time>2026-03-22T14:58:56Z</time></trkpt><trkpt lat="42.290408442944845" lon="12.73726588459232"><ele>734.4000000000001</ele><time>2026-03-22T14:58:57Z</time></trkpt><trkpt lat="42.29030265726497" lon="12.737271444997063"><ele>733.2</ele><time>2026-03-22T14:58:58Z</time></trkpt><trkpt lat="42.29021208118006" lon="12.737277302409042"><ele>732.0</ele><time>2026-03-22T14:58:59Z</time></trkpt><trkpt lat="42.29012727767577" lon="12.737283144908188"><ele>732.0</ele><time>2026-03-22T14:59:00Z</time></trkpt><trkpt lat="42.29004415026973" lon="12.737288225781615"><ele>732.0</ele><time>2026-03-22T14:59:01Z</time></trkpt><trkpt lat="42.289966772224616" lon="12.737290814074388"><ele>732.0</ele><time>2026-03-22T14:59:02Z</time></trkpt><trkpt lat="42.28989260986061" lon="12.737289288288009"><ele>732.0</ele><time>2026-03-22T14:59:03Z</time></trkpt><trkpt lat="42.28981290248169" lon="12.737281603211057"><ele>732.0</ele><time>2026-03-22T14:59:04Z</time></trkpt><trkpt lat="42.28973796452233" lon="12.737268630675121"><ele>732.0</ele><time>2026-03-22T14:59:05Z</time></trkpt><trkpt lat="42.28965249573975" lon="12.737246566451335"><ele>732.0</ele><time>2026-03-22T14:59:06Z</time></trkpt><trkpt lat="42.2895684272694" lon="12.737239851909461"><ele>732.0</ele><time>2026-03-22T14:59:07Z</time></trkpt><trkpt lat="42.28947753568552" lon="12.737200535400149"><ele>732.0</ele><time>2026-03-22T14:59:08Z</time></trkpt><trkpt lat="42.2893753017186" lon="12.73716830182684"><ele>732.0</ele><time>2026-03-22T14:59:09Z</time></trkpt><trkpt lat="42.28928954630247" lon="12.737110137211857"><ele>732.0</ele><time>2026-03-22T14:59:10Z</time></trkpt><trkpt lat="42.28920722047333" lon="12.737080771874913"><ele>732.0</ele><time>2026-03-22T14:59:11Z</time></trkpt><trkpt lat="42.28911132923975" lon="12.737090679906578"><ele>732.0</ele><time>2026-03-22T14:59:12Z</time></trkpt><trkpt lat="42.28901462668454" lon="12.737095444379761"><ele>732.0</ele><time>2026-03-22T14:59:13Z</time></trkpt><trkpt lat="42.28890816702438" lon="12.737125857644703"><ele>732.0</ele><time>2026-03-22T14:59:14Z</time></trkpt><trkpt lat="42.2887991942573" lon="12.737110430414404"><ele>732.0</ele><time>2026-03-22T14:59:15Z</time></trkpt><trkpt lat="42.2886888617603" lon="12.737100788172052"><ele>733.75</ele><time>2026-03-22T14:59:16Z</time></trkpt><trkpt lat="42.2885759571114" lon="12.737074244221876"><ele>735.5</ele><time>2026-03-22T14:59:17Z</time></trkpt><trkpt lat="42.288458096976996" lon="12.737041061766552"><ele>737.25</ele><time>2026-03-22T14:59:18Z</time></trkpt><trkpt lat="42.288338073731694" lon="12.737001717327585"><ele>739.0</ele><time>2026-03-22T14:59:19Z</time></trkpt><trkpt lat="42.288231127130516" lon="12.736943350144395"><ele>736.4000000000001</ele><time>2026-03-22T14:59:20Z</time></trkpt><trkpt lat="42.288121247732285" lon="12.73687587799211"><ele>733.8</ele><time>2026-03-22T14:59:21Z</time></trkpt><trkpt lat="42.28802062447531" lon="12.736831486825704"><ele>731.2</ele><time>2026-03-22T14:59:22Z</time></trkpt><trkpt lat="42.28791988591094" lon="12.736793842815088"><ele>728.5999999999999</ele><time>2026-03-22T14:59:23Z</time></trkpt><trkpt lat="42.28781536698337" lon="12.736775210108393"><ele>726.0</ele><time>2026-03-22T14:59:24Z</time></trkpt><trkpt lat="42.287693062238496" lon="12.736763280157163"><ele>725.5</ele><time>2026-03-22T14:59:25Z</time></trkpt><trkpt lat="42.28755133865708" lon="12.736754196033814"><ele>725.0</ele><time>2026-03-22T14:59:26Z</time></trkpt><trkpt lat="42.28740525654085" lon="12.736746605087465"><ele>724.5</ele><time>2026-03-22T14:59:27Z</time></trkpt><trkpt lat="42.28725583708569" lon="12.736721394676396"><ele>724.0</ele><time>2026-03-22T14:59:28Z</time></trkpt><trkpt lat="42.28711753931474" lon="12.736713157173735"><ele>721.8000000000001</ele><time>2026-03-22T14:59:29Z</time></trkpt><trkpt lat="42.28700612548505" lon="12.73670955023816"><ele>719.6</ele><time>2026-03-22T14:59:30Z</time></trkpt><trkpt lat="42.286917197785876" lon="12.73672029794784"><ele>717.4</ele><time>2026-03-22T14:59:31Z</time></trkpt><trkpt lat="42.28682315841668" lon="12.736705139232162"><ele>715.2</ele><time>2026-03-22T14:59:32Z</time></trkpt><trkpt lat="42.28672201725354" lon="12.736724534835439"><ele>713.0</ele><time>2026-03-22T14:59:33Z</time></trkpt><trkpt lat="42.286634876007824" lon="12.736758507802806"><ele>713.0</ele><time>2026-03-22T14:59:34Z</time></trkpt><trkpt lat="42.286551086587544" lon="12.736827726424918"><ele>713.0</ele><time>2026-03-22T14:59:35Z</time></trkpt><trkpt lat="42.28647636537608" lon="12.736936023803938"><ele>713.0</ele><time>2026-03-22T14:59:36Z</time></trkpt><trkpt lat="42.286414963987376" lon="12.737069455484795"><ele>713.0</ele><time>2026-03-22T14:59:37Z</time></trkpt><trkpt lat="42.28636818263649" lon="12.73719109369067"><ele>713.0</ele><time>2026-03-22T14:59:38Z</time></trkpt><trkpt lat="42.286343528737234" lon="12.737340427395761"><ele>712.0</ele><time>2026-03-22T14:59:39Z</time></trkpt><trkpt lat="42.28632367159459" lon="12.737440921720964"><ele>711.0</ele><time>2026-03-22T14:59:40Z</time></trkpt><trkpt lat="42.286299711357714" lon="12.737531854295442"><ele>710.0</ele><time>2026-03-22T14:59:41Z</time></trkpt><trkpt lat="42.286220538290216" lon="12.737604126082324"><ele>709.0</ele><time>2026-03-22T14:59:43Z</time></trkpt><trkpt lat="42.286082951502756" lon="12.737583258464014"><ele>708.0</ele><time>2026-03-22T14:59:45Z</time></trkpt><trkpt lat="42.28596446290978" lon="12.737578045850752"><ele>708.0</ele><time>2026-03-22T14:59:46Z</time></trkpt><trkpt lat="42.28586299816953" lon="12.737561314772167"><ele>708.0</ele><time>2026-03-22T14:59:47Z</time></trkpt><trkpt lat="42.28577751056946" lon="12.737531936106308"><ele>708.0</ele><time>2026-03-22T14:59:48Z</time></trkpt><trkpt lat="42.28568152592735" lon="12.737486245292834"><ele>708.0</ele><time>2026-03-22T14:59:49Z</time></trkpt><trkpt lat="42.285595021246664" lon="12.73744839786604"><ele>708.0</ele><time>2026-03-22T14:59:50Z</time></trkpt><trkpt lat="42.28551333266435" lon="12.737411790703772"><ele>705.0</ele><time>2026-03-22T14:59:51Z</time></trkpt><trkpt lat="42.28541467264103" lon="12.737376521305782"><ele>702.0</ele><time>2026-03-22T14:59:52Z</time></trkpt><trkpt lat="42.285321487282076" lon="12.73738170788535"><ele>699.0</ele><time>2026-03-22T14:59:53Z</time></trkpt><trkpt lat="42.28521371944701" lon="12.737483346897479"><ele>696.0</ele><time>2026-03-22T14:59:53.999Z</time></trkpt><trkpt lat="42.28514124893157" lon="12.73759190028081"><ele>693.0</ele><time>2026-03-22T14:59:54.999Z</time></trkpt><trkpt lat="42.28507215038622" lon="12.73770944814782"><ele>692.6666666666666</ele><time>2026-03-22T14:59:55.999Z</time></trkpt><trkpt lat="42.28501328935185" lon="12.737817269900193"><ele>692.3333333333334</ele><time>2026-03-22T14:59:56.999Z</time></trkpt><trkpt lat="42.28495963565886" lon="12.737917279956921"><ele>692.0</ele><time>2026-03-22T14:59:58Z</time></trkpt><trkpt lat="42.284911022212555" lon="12.738005329807246"><ele>691.6666666666667</ele><time>2026-03-22T14:59:59Z</time></trkpt><trkpt lat="42.28485861427605" lon="12.738093150053558"><ele>691.3333333333334</ele><time>2026-03-22T15:00:00Z</time></trkpt><trkpt lat="42.2848018213312" lon="12.738179174867913"><ele>691.0</ele><time>2026-03-22T15:00:01Z</time></trkpt><trkpt lat="42.28472919072844" lon="12.738256832036924"><ele>691.0</ele><time>2026-03-22T15:00:02Z</time></trkpt><trkpt lat="42.28464265832235" lon="12.738321766398029"><ele>691.0</ele><time>2026-03-22T15:00:03Z</time></trkpt><trkpt lat="42.284544103958154" lon="12.738367597074177"><ele>691.0</ele><time>2026-03-22T15:00:04Z</time></trkpt><trkpt lat="42.28444320418438" lon="12.738387823682565"><ele>691.0</ele><time>2026-03-22T15:00:05Z</time></trkpt><trkpt lat="42.2843335605533" lon="12.738408506315656"><ele>691.0</ele><time>2026-03-22T15:00:06Z</time></trkpt><trkpt lat="42.28423331686153" lon="12.738429471689878"><ele>691.0</ele><time>2026-03-22T15:00:07Z</time></trkpt><trkpt lat="42.284160883872914" lon="12.738446029368045"><ele>691.0</ele><time>2026-03-22T15:00:08Z</time></trkpt><trkpt lat="42.284064551790884" lon="12.738538908042148"><ele>691.0</ele><time>2026-03-22T15:00:09Z</time></trkpt><trkpt lat="42.28398745572943" lon="12.73863901160232"><ele>691.0</ele><time>2026-03-22T15:00:10Z</time></trkpt><trkpt lat="42.28389060546568" lon="12.738729718291594"><ele>691.0</ele><time>2026-03-22T15:00:11Z</time></trkpt><trkpt lat="42.28378452255997" lon="12.738804793559316"><ele>689.5999999999999</ele><time>2026-03-22T15:00:12Z</time></trkpt><trkpt lat="42.28368445584928" lon="12.738883701711533"><ele>688.2</ele><time>2026-03-22T15:00:13Z</time></trkpt><trkpt lat="42.28360589039685" lon="12.738955721368608"><ele>686.8</ele><time>2026-03-22T15:00:14Z</time></trkpt><trkpt lat="42.28352610694759" lon="12.739043973481904"><ele>685.4000000000001</ele><time>2026-03-22T15:00:15Z</time></trkpt><trkpt lat="42.28344304843162" lon="12.73916358947514"><ele>684.0</ele><time>2026-03-22T15:00:16Z</time></trkpt><trkpt lat="42.28337923973352" lon="12.739280232008023"><ele>684.0</ele><time>2026-03-22T15:00:17Z</time></trkpt><trkpt lat="42.28332745257299" lon="12.739360330155195"><ele>684.0</ele><time>2026-03-22T15:00:18Z</time></trkpt><trkpt lat="42.283270084086055" lon="12.739429708425236"><ele>684.0</ele><time>2026-03-22T15:00:19Z</time></trkpt><trkpt lat="42.28321316065873" lon="12.739481656775302"><ele>684.0</ele><time>2026-03-22T15:00:20Z</time></trkpt><trkpt lat="42.283144016904856" lon="12.739522291783242"><ele>684.0</ele><time>2026-03-22T15:00:21Z</time></trkpt><trkpt lat="42.28305448028018" lon="12.739537223572608"><ele>684.0</ele><time>2026-03-22T15:00:22Z</time></trkpt><trkpt lat="42.28293348797872" lon="12.739535156619462"><ele>685.8000000000001</ele><time>2026-03-22T15:00:23Z</time></trkpt><trkpt lat="42.282831260646226" lon="12.739514243432515"><ele>687.6</ele><time>2026-03-22T15:00:24Z</time></trkpt><trkpt lat="42.282735930885885" lon="12.739495732764954"><ele>689.4</ele><time>2026-03-22T15:00:25Z</time></trkpt><trkpt lat="42.282635291528834" lon="12.739508111289053"><ele>691.2</ele><time>2026-03-22T15:00:26Z</time></trkpt><trkpt lat="42.282517863102754" lon="12.739561713902116"><ele>693.0</ele><time>2026-03-22T15:00:27Z</time></trkpt><trkpt lat="42.28239699749419" lon="12.739627060524404"><ele>693.0</ele><time>2026-03-22T15:00:28Z</time></trkpt><trkpt lat="42.282269034588175" lon="12.739699225915231"><ele>693.0</ele><time>2026-03-22T15:00:29Z</time></trkpt><trkpt lat="42.28215134376484" lon="12.739767684467948"><ele>693.0</ele><time>2026-03-22T15:00:30Z</time></trkpt><trkpt lat="42.282048000402284" lon="12.739827429844764"><ele>693.0</ele><time>2026-03-22T15:00:31Z</time></trkpt><trkpt lat="42.28194556272644" lon="12.739882754107006"><ele>687.5</ele><time>2026-03-22T15:00:32Z</time></trkpt><trkpt lat="42.28184548052976" lon="12.739935168688941"><ele>682.0</ele><time>2026-03-22T15:00:33Z</time></trkpt><trkpt lat="42.281743588027595" lon="12.739988775485845"><ele>676.5</ele><time>2026-03-22T15:00:34Z</time></trkpt><trkpt lat="42.28162309238191" lon="12.740052951215121"><ele>671.0</ele><time>2026-03-22T15:00:35Z</time></trkpt><trkpt lat="42.281518165985865" lon="12.740114518701263"><ele>670.8</ele><time>2026-03-22T15:00:36Z</time></trkpt><trkpt lat="42.28141422113026" lon="12.74017293402938"><ele>670.5999999999999</ele><time>2026-03-22T15:00:37Z</time></trkpt><trkpt lat="42.28131327895373" lon="12.74021365571019"><ele>670.4</ele><time>2026-03-22T15:00:38Z</time></trkpt><trkpt lat="42.281205712809594" lon="12.74025026663001"><ele>670.2</ele><time>2026-03-22T15:00:39Z</time></trkpt><trkpt lat="42.28110397840816" lon="12.740304307478011"><ele>670.0</ele><time>2026-03-22T15:00:40Z</time></trkpt><trkpt lat="42.2810160511022" lon="12.740361326423116"><ele>670.0</ele><time>2026-03-22T15:00:41Z</time></trkpt><trkpt lat="42.28092236175879" lon="12.740424267499321"><ele>670.0</ele><time>2026-03-22T15:00:42Z</time></trkpt><trkpt lat="42.28081783154715" lon="12.74049072003729"><ele>670.0</ele><time>2026-03-22T15:00:43Z</time></trkpt><trkpt lat="42.28069840503523" lon="12.740564096043352"><ele>670.0</ele><time>2026-03-22T15:00:44Z</time></trkpt><trkpt lat="42.280586079670414" lon="12.74064955223297"><ele>667.5</ele><time>2026-03-22T15:00:45Z</time></trkpt><trkpt lat="42.280484331509136" lon="12.740738969368907"><ele>665.0</ele><time>2026-03-22T15:00:46Z</time></trkpt><trkpt lat="42.2803806480138" lon="12.740837453355173"><ele>662.5</ele><time>2026-03-22T15:00:47Z</time></trkpt><trkpt lat="42.28029480179629" lon="12.740923966847648"><ele>660.0</ele><time>2026-03-22T15:00:48Z</time></trkpt><trkpt lat="42.2802163526152" lon="12.741015730419853"><ele>660.75</ele><time>2026-03-22T15:00:49Z</time></trkpt><trkpt lat="42.28014786995791" lon="12.74115114605675"><ele>661.5</ele><time>2026-03-22T15:00:50Z</time></trkpt><trkpt lat="42.28010913813911" lon="12.74128879830573"><ele>662.25</ele><time>2026-03-22T15:00:51Z</time></trkpt><trkpt lat="42.28004993427097" lon="12.741433696213766"><ele>663.0</ele><time>2026-03-22T15:00:52Z</time></trkpt><trkpt lat="42.2799444303855" lon="12.741559472991877"><ele>663.0</ele><time>2026-03-22T15:00:53Z</time></trkpt><trkpt lat="42.279827819621374" lon="12.741643593153347"><ele>663.0</ele><time>2026-03-22T15:00:54Z</time></trkpt><trkpt lat="42.27973357723144" lon="12.741751231982052"><ele>663.0</ele><time>2026-03-22T15:00:55Z</time></trkpt><trkpt lat="42.27963809003468" lon="12.741867646953427"><ele>663.0</ele><time>2026-03-22T15:00:56Z</time></trkpt><trkpt lat="42.279543647579615" lon="12.741975197048545"><ele>661.0</ele><time>2026-03-22T15:00:57Z</time></trkpt><trkpt lat="42.27945109368471" lon="12.742051806566808"><ele>659.0</ele><time>2026-03-22T15:00:58Z</time></trkpt><trkpt lat="42.27936306183391" lon="12.742126029502744"><ele>657.0</ele><time>2026-03-22T15:00:59Z</time></trkpt><trkpt lat="42.279270585663845" lon="12.742205914439309"><ele>655.0</ele><time>2026-03-22T15:01:00Z</time></trkpt><trkpt lat="42.27916458181541" lon="12.742319321059556"><ele>655.0</ele><time>2026-03-22T15:01:01Z</time></trkpt><trkpt lat="42.2790745067823" lon="12.742451961770392"><ele>655.0</ele><time>2026-03-22T15:01:02Z</time></trkpt><trkpt lat="42.278976246062925" lon="12.742565490550728"><ele>655.0</ele><time>2026-03-22T15:01:03Z</time></trkpt><trkpt lat="42.2788690967552" lon="12.742650284450715"><ele>655.0</ele><time>2026-03-22T15:01:04Z</time></trkpt><trkpt lat="42.278765388337305" lon="12.742718613562538"><ele>651.5</ele><time>2026-03-22T15:01:05Z</time></trkpt><trkpt lat="42.27867837766435" lon="12.742815830093697"><ele>648.0</ele><time>2026-03-22T15:01:06Z</time></trkpt><trkpt lat="42.27859696787674" lon="12.74293111125115"><ele>644.5</ele><time>2026-03-22T15:01:07Z</time></trkpt><trkpt lat="42.27850952122192" lon="12.743061388429298"><ele>641.0</ele><time>2026-03-22T15:01:08Z</time></trkpt><trkpt lat="42.27842856728232" lon="12.743180326772402"><ele>641.0</ele><time>2026-03-22T15:01:09Z</time></trkpt><trkpt lat="42.2783533810639" lon="12.743289901396"><ele>641.0</ele><time>2026-03-22T15:01:10Z</time></trkpt><trkpt lat="42.27829348259097" lon="12.743382714373459"><ele>641.0</ele><time>2026-03-22T15:01:11Z</time></trkpt><trkpt lat="42.278234937684005" lon="12.743486837748282"><ele>641.0</ele><time>2026-03-22T15:01:12Z</time></trkpt><trkpt lat="42.278188056570094" lon="12.743587542515908"><ele>641.0</ele><time>2026-03-22T15:01:13Z</time></trkpt><trkpt lat="42.278179500076035" lon="12.743714248732076"><ele>640.0</ele><time>2026-03-22T15:01:14Z</time></trkpt><trkpt lat="42.27820002834478" lon="12.743823610448226"><ele>639.0</ele><time>2026-03-22T15:01:15Z</time></trkpt><trkpt lat="42.27822442192519" lon="12.743903013250193"><ele>638.0</ele><time>2026-03-22T15:01:16Z</time></trkpt><trkpt lat="42.278294530858375" lon="12.744016755759727"><ele>637.0</ele><time>2026-03-22T15:01:18Z</time></trkpt><trkpt lat="42.27833895167177" lon="12.744094170158164"><ele>636.0</ele><time>2026-03-22T15:01:18.999Z</time></trkpt><trkpt lat="42.27838515406192" lon="12.744181617463706"><ele>635.0</ele><time>2026-03-22T15:01:19.999Z</time></trkpt><trkpt lat="42.27842539178439" lon="12.744271369726398"><ele>633.0</ele><time>2026-03-22T15:01:20.999Z</time></trkpt><trkpt lat="42.27843944070332" lon="12.744407164686464"><ele>631.0</ele><time>2026-03-22T15:01:22.999Z</time></trkpt><trkpt lat="42.27841343805077" lon="12.744537024369833"><ele>629.0</ele><time>2026-03-22T15:01:24.999Z</time></trkpt><trkpt lat="42.278362705375415" lon="12.744640896953351"><ele>627.0</ele><time>2026-03-22T15:01:26.999Z</time></trkpt><trkpt lat="42.27828626145237" lon="12.744777889588102"><ele>625.0</ele><time>2026-03-22T15:01:28.999Z</time></trkpt><trkpt lat="42.27821096801784" lon="12.744908135175423"><ele>625.0</ele><time>2026-03-22T15:01:30.999Z</time></trkpt><trkpt lat="42.27817695579024" lon="12.744998260057502"><ele>625.0</ele><time>2026-03-22T15:01:31.999Z</time></trkpt><trkpt lat="42.278165623721975" lon="12.745135447228263"><ele>625.0</ele><time>2026-03-22T15:01:32.999Z</time></trkpt><trkpt lat="42.278168232501095" lon="12.745293192224024"><ele>625.0</ele><time>2026-03-22T15:01:33.999Z</time></trkpt><trkpt lat="42.27820435461271" lon="12.745499316589692"><ele>625.6</ele><time>2026-03-22T15:01:34.999Z</time></trkpt><trkpt lat="42.27823706658489" lon="12.74565513464611"><ele>626.2</ele><time>2026-03-22T15:01:35.999Z</time></trkpt><trkpt lat="42.27826553041572" lon="12.745776123463532"><ele>626.8</ele><time>2026-03-22T15:01:36.999Z</time></trkpt><trkpt lat="42.27828032213196" lon="12.745864860755194"><ele>627.4</ele><time>2026-03-22T15:01:37.999Z</time></trkpt><trkpt lat="42.27828154672189" lon="12.74599978501696"><ele>628.0</ele><time>2026-03-22T15:01:39.999Z</time></trkpt><trkpt lat="42.278205399735555" lon="12.746090396812"><ele>628.0</ele><time>2026-03-22T15:01:41.999Z</time></trkpt><trkpt lat="42.278134381790935" lon="12.746156358953924"><ele>628.0</ele><time>2026-03-22T15:01:42.999Z</time></trkpt><trkpt lat="42.27801440305792" lon="12.746292232306155"><ele>628.0</ele><time>2026-03-22T15:01:43.999Z</time></trkpt><trkpt lat="42.27791793817852" lon="12.746416289377535"><ele>628.0</ele><time>2026-03-22T15:01:44.999Z</time></trkpt><trkpt lat="42.2778476539792" lon="12.746505381026012"><ele>622.25</ele><time>2026-03-22T15:01:45.999Z</time></trkpt><trkpt lat="42.277771392089214" lon="12.746594559471111"><ele>616.5</ele><time>2026-03-22T15:01:46.999Z</time></trkpt><trkpt lat="42.277650115761254" lon="12.74671310964618"><ele>610.75</ele><time>2026-03-22T15:01:47.999Z</time></trkpt><trkpt lat="42.27753804413648" lon="12.746836055892935"><ele>605.0</ele><time>2026-03-22T15:01:48.999Z</time></trkpt><trkpt lat="42.27743729862898" lon="12.746959159618907"><ele>605.0</ele><time>2026-03-22T15:01:49.999Z</time></trkpt><trkpt lat="42.27730126438075" lon="12.747131853517741"><ele>605.0</ele><time>2026-03-22T15:01:50.999Z</time></trkpt><trkpt lat="42.27719122513899" lon="12.747286990768796"><ele>605.0</ele><time>2026-03-22T15:01:51.999Z</time></trkpt><trkpt lat="42.27710328830716" lon="12.747435082006684"><ele>599.25</ele><time>2026-03-22T15:01:52.999Z</time></trkpt><trkpt lat="42.276983778753575" lon="12.747541526146119"><ele>593.5</ele><time>2026-03-22T15:01:53.999Z</time></trkpt><trkpt lat="42.27687151638955" lon="12.747607269470084"><ele>587.75</ele><time>2026-03-22T15:01:54.999Z</time></trkpt><trkpt lat="42.27678133136977" lon="12.74764368404343"><ele>582.0</ele><time>2026-03-22T15:01:55.999Z</time></trkpt><trkpt lat="42.27670180752997" lon="12.747700465952295"><ele>585.0</ele><time>2026-03-22T15:01:56.999Z</time></trkpt><trkpt lat="42.27659138108639" lon="12.747780483434854"><ele>588.0</ele><time>2026-03-22T15:01:57.999Z</time></trkpt><trkpt lat="42.276504028258266" lon="12.747873374425767"><ele>591.0</ele><time>2026-03-22T15:01:58.999Z</time></trkpt><trkpt lat="42.276417798334066" lon="12.747988036999661"><ele>594.0</ele><time>2026-03-22T15:01:59.999Z</time></trkpt><trkpt lat="42.27634251761356" lon="12.7480981074547"><ele>588.8</ele><time>2026-03-22T15:02:00.999Z</time></trkpt><trkpt lat="42.27627615454428" lon="12.748205334703497"><ele>583.5999999999999</ele><time>2026-03-22T15:02:01.999Z</time></trkpt><trkpt lat="42.27621930231258" lon="12.748277707048953"><ele>578.4</ele><time>2026-03-22T15:02:02.999Z</time></trkpt><trkpt lat="42.276145547866776" lon="12.748351060099926"><ele>573.1999999999999</ele><time>2026-03-22T15:02:04Z</time></trkpt><trkpt lat="42.27606698987659" lon="12.748406460057119"><ele>568.0</ele><time>2026-03-22T15:02:05Z</time></trkpt><trkpt lat="42.2759754650081" lon="12.74846035454088"><ele>568.0</ele><time>2026-03-22T15:02:06Z</time></trkpt><trkpt lat="42.275888303677974" lon="12.748517586965015"><ele>568.0</ele><time>2026-03-22T15:02:07Z</time></trkpt><trkpt lat="42.27580870446214" lon="12.748572324871642"><ele>568.0</ele><time>2026-03-22T15:02:08Z</time></trkpt><trkpt lat="42.275720930715316" lon="12.748637816073547"><ele>568.0</ele><time>2026-03-22T15:02:09Z</time></trkpt><trkpt lat="42.275632875842305" lon="12.748711396894562"><ele>568.0</ele><time>2026-03-22T15:02:10Z</time></trkpt><trkpt lat="42.27556000178892" lon="12.748779399697534"><ele>564.6666666666667</ele><time>2026-03-22T15:02:11Z</time></trkpt><trkpt lat="42.27549071183364" lon="12.748854219174344"><ele>561.3333333333334</ele><time>2026-03-22T15:02:12Z</time></trkpt><trkpt lat="42.27542969862382" lon="12.748931257314787"><ele>558.0</ele><time>2026-03-22T15:02:13Z</time></trkpt><trkpt lat="42.27537200880996" lon="12.749022478997688"><ele>554.6666666666666</ele><time>2026-03-22T15:02:14Z</time></trkpt><trkpt lat="42.275330452695414" lon="12.749132948717577"><ele>551.3333333333333</ele><time>2026-03-22T15:02:15Z</time></trkpt><trkpt lat="42.275313572804365" lon="12.749229742348696"><ele>548.0</ele><time>2026-03-22T15:02:16Z</time></trkpt><trkpt lat="42.27532088346206" lon="12.749341696852841"><ele>547.75</ele><time>2026-03-22T15:02:17Z</time></trkpt><trkpt lat="42.27537282678522" lon="12.749482322755428"><ele>547.5</ele><time>2026-03-22T15:02:19Z</time></trkpt><trkpt lat="42.27544832603155" lon="12.749619576966072"><ele>547.25</ele><time>2026-03-22T15:02:21Z</time></trkpt><trkpt lat="42.275503450192375" lon="12.749719104319771"><ele>547.0</ele><time>2026-03-22T15:02:22Z</time></trkpt><trkpt lat="42.275575993515304" lon="12.7498407758365"><ele>549.4</ele><time>2026-03-22T15:02:23Z</time></trkpt><trkpt lat="42.27564705668186" lon="12.749967343798836"><ele>551.8000000000001</ele><time>2026-03-22T15:02:24Z</time></trkpt><trkpt lat="42.27568933478315" lon="12.750080027093569"><ele>554.2</ele><time>2026-03-22T15:02:25Z</time></trkpt><trkpt lat="42.27570658709557" lon="12.75017024489187"><ele>556.6</ele><time>2026-03-22T15:02:26Z</time></trkpt><trkpt lat="42.27568449839524" lon="12.750292578745967"><ele>559.0</ele><time>2026-03-22T15:02:28Z</time></trkpt><trkpt lat="42.275626708780024" lon="12.750366898684232"><ele>559.6</ele><time>2026-03-22T15:02:30Z</time></trkpt><trkpt lat="42.27551516671887" lon="12.750416547466667"><ele>560.2</ele><time>2026-03-22T15:02:32Z</time></trkpt><trkpt lat="42.27542683774796" lon="12.750416294902001"><ele>560.8000000000001</ele><time>2026-03-22T15:02:33Z</time></trkpt><trkpt lat="42.27532874719341" lon="12.750405534927623"><ele>561.4</ele><time>2026-03-22T15:02:34Z</time></trkpt><trkpt lat="42.27522178812457" lon="12.750395436447992"><ele>562.0</ele><time>2026-03-22T15:02:35Z</time></trkpt><trkpt lat="42.27511114675151" lon="12.750392674603221"><ele>562.0</ele><time>2026-03-22T15:02:36Z</time></trkpt><trkpt lat="42.274996777111895" lon="12.750397903590708"><ele>562.0</ele><time>2026-03-22T15:02:37Z</time></trkpt><trkpt lat="42.27488032143247" lon="12.750401457316272"><ele>562.0</ele><time>2026-03-22T15:02:38Z</time></trkpt><trkpt lat="42.2747576963564" lon="12.750396480291851"><ele>562.0</ele><time>2026-03-22T15:02:39Z</time></trkpt><trkpt lat="42.274639008023705" lon="12.750383742537"><ele>561.0</ele><time>2026-03-22T15:02:40Z</time></trkpt><trkpt lat="42.27452538280619" lon="12.75036571635223"><ele>560.0</ele><time>2026-03-22T15:02:41Z</time></trkpt><trkpt lat="42.27440771936151" lon="12.750347101487328"><ele>559.0</ele><time>2026-03-22T15:02:42Z</time></trkpt><trkpt lat="42.27428294010886" lon="12.75034167462308"><ele>558.0</ele><time>2026-03-22T15:02:43Z</time></trkpt><trkpt lat="42.274151654610655" lon="12.750359756182684"><ele>558.0</ele><time>2026-03-22T15:02:44Z</time></trkpt><trkpt lat="42.27402954930083" lon="12.750378541625201"><ele>558.0</ele><time>2026-03-22T15:02:45Z</time></trkpt><trkpt lat="42.273904400928814" lon="12.750385823607923"><ele>558.0</ele><time>2026-03-22T15:02:46Z</time></trkpt><trkpt lat="42.27378140758799" lon="12.750351456564989"><ele>558.0</ele><time>2026-03-22T15:02:46.999Z</time></trkpt><trkpt lat="42.273666642894234" lon="12.750309579622519"><ele>557.1999999999999</ele><time>2026-03-22T15:02:47.999Z</time></trkpt><trkpt lat="42.27357338967346" lon="12.750262238752082"><ele>556.4</ele><time>2026-03-22T15:02:48.999Z</time></trkpt><trkpt lat="42.27348626310908" lon="12.750215242649242"><ele>555.5999999999999</ele><time>2026-03-22T15:02:49.999Z</time></trkpt><trkpt lat="42.27340458105303" lon="12.750164869128493"><ele>554.8</ele><time>2026-03-22T15:02:50.999Z</time></trkpt><trkpt lat="42.27331081757825" lon="12.750140394440178"><ele>554.0</ele><time>2026-03-22T15:02:51.999Z</time></trkpt><trkpt lat="42.27321112472858" lon="12.750136269122912"><ele>552.1666666666666</ele><time>2026-03-22T15:02:52.999Z</time></trkpt><trkpt lat="42.27311655164817" lon="12.750134427381845"><ele>550.3333333333333</ele><time>2026-03-22T15:02:53.999Z</time></trkpt><trkpt lat="42.273031332190385" lon="12.750137849369507"><ele>548.5</ele><time>2026-03-22T15:02:54.999Z</time></trkpt><trkpt lat="42.27295224977206" lon="12.750104243522618"><ele>546.6666666666666</ele><time>2026-03-22T15:02:55.999Z</time></trkpt><trkpt lat="42.27287844857627" lon="12.750051431687014"><ele>544.8333333333334</ele><time>2026-03-22T15:02:56.999Z</time></trkpt><trkpt lat="42.27281305206299" lon="12.74998537794629"><ele>543.0</ele><time>2026-03-22T15:02:57.999Z</time></trkpt><trkpt lat="42.27276072697863" lon="12.749920073549315"><ele>541.8</ele><time>2026-03-22T15:02:58.999Z</time></trkpt><trkpt lat="42.27265795607666" lon="12.749855379832235"><ele>540.5999999999999</ele><time>2026-03-22T15:03:00.999Z</time></trkpt><trkpt lat="42.272532710631225" lon="12.749818651161188"><ele>539.4000000000001</ele><time>2026-03-22T15:03:02.999Z</time></trkpt><trkpt lat="42.27246738652596" lon="12.74982646702551"><ele>538.2</ele><time>2026-03-22T15:03:03.999Z</time></trkpt><trkpt lat="42.272400533654185" lon="12.749838919526782"><ele>537.0</ele><time>2026-03-22T15:03:04.999Z</time></trkpt><trkpt lat="42.27231885232499" lon="12.749851175603316"><ele>535.6666666666666</ele><time>2026-03-22T15:03:05.999Z</time></trkpt><trkpt lat="42.27222963520532" lon="12.749859220242113"><ele>534.3333333333334</ele><time>2026-03-22T15:03:06.999Z</time></trkpt><trkpt lat="42.27214930652292" lon="12.749864772677007"><ele>533.0</ele><time>2026-03-22T15:03:07.999Z</time></trkpt><trkpt lat="42.272080922447344" lon="12.749867664659709"><ele>531.6666666666667</ele><time>2026-03-22T15:03:08.999Z</time></trkpt><trkpt lat="42.271972431724315" lon="12.749868805262464"><ele>530.3333333333334</ele><time>2026-03-22T15:03:10.999Z</time></trkpt><trkpt lat="42.271906401329765" lon="12.749865057540314"><ele>529.0</ele><time>2026-03-22T15:03:11.999Z</time></trkpt><trkpt lat="42.271824885374116" lon="12.749878753888957"><ele>529.0</ele><time>2026-03-22T15:03:12.999Z</time></trkpt><trkpt lat="42.2717310178544" lon="12.749860396893727"><ele>529.0</ele><time>2026-03-22T15:03:13.999Z</time></trkpt><trkpt lat="42.27162587908401" lon="12.74984948072881"><ele>529.0</ele><time>2026-03-22T15:03:14.999Z</time></trkpt><trkpt lat="42.27151303934001" lon="12.749818067639517"><ele>529.0</ele><time>2026-03-22T15:03:15.999Z</time></trkpt><trkpt lat="42.271392224665234" lon="12.749806606580512"><ele>529.0</ele><time>2026-03-22T15:03:16.999Z</time></trkpt><trkpt lat="42.27126306635076" lon="12.749794972129237"><ele>529.0</ele><time>2026-03-22T15:03:17.999Z</time></trkpt><trkpt lat="42.27113620807506" lon="12.74978384784879"><ele>529.0</ele><time>2026-03-22T15:03:18.999Z</time></trkpt><trkpt lat="42.2710124382238" lon="12.749772994391979"><ele>529.0</ele><time>2026-03-22T15:03:19.999Z</time></trkpt><trkpt lat="42.27088870010054" lon="12.749763090737286"><ele>529.0</ele><time>2026-03-22T15:03:20.999Z</time></trkpt><trkpt lat="42.27076547389433" lon="12.74975418062042"><ele>529.0</ele><time>2026-03-22T15:03:21.999Z</time></trkpt><trkpt lat="42.27064426119108" lon="12.749748372737844"><ele>529.0</ele><time>2026-03-22T15:03:22.999Z</time></trkpt><trkpt lat="42.27051673399376" lon="12.74974685598314"><ele>529.0</ele><time>2026-03-22T15:03:23.999Z</time></trkpt><trkpt lat="42.270387627692635" lon="12.749751818858027"><ele>529.0</ele><time>2026-03-22T15:03:24.999Z</time></trkpt><trkpt lat="42.27026308104585" lon="12.74975895063351"><ele>528.0</ele><time>2026-03-22T15:03:25.999Z</time></trkpt><trkpt lat="42.27015755115835" lon="12.749754996709505"><ele>527.0</ele><time>2026-03-22T15:03:26.999Z</time></trkpt><trkpt lat="42.27007469372303" lon="12.749733244572491"><ele>526.0</ele><time>2026-03-22T15:03:27.999Z</time></trkpt><trkpt lat="42.27000128255421" lon="12.749644066355081"><ele>525.0</ele><time>2026-03-22T15:03:28.999Z</time></trkpt><trkpt lat="42.269931720592886" lon="12.749541767440826"><ele>524.0</ele><time>2026-03-22T15:03:29.999Z</time></trkpt><trkpt lat="42.26984012739856" lon="12.749469939543586"><ele>523.75</ele><time>2026-03-22T15:03:30.999Z</time></trkpt><trkpt lat="42.26973819712125" lon="12.74939799979638"><ele>523.5</ele><time>2026-03-22T15:03:31.999Z</time></trkpt><trkpt lat="42.26962466597528" lon="12.749367676747564"><ele>523.25</ele><time>2026-03-22T15:03:32.999Z</time></trkpt><trkpt lat="42.2695033940686" lon="12.749353395822276"><ele>523.0</ele><time>2026-03-22T15:03:33.999Z</time></trkpt><trkpt lat="42.26938639879153" lon="12.749349257364553"><ele>521.0</ele><time>2026-03-22T15:03:34.999Z</time></trkpt><trkpt lat="42.2692660634171" lon="12.749304560882612"><ele>519.0</ele><time>2026-03-22T15:03:35.999Z</time></trkpt><trkpt lat="42.26915710733514" lon="12.749254269385998"><ele>517.0</ele><time>2026-03-22T15:03:36.999Z</time></trkpt><trkpt lat="42.26906121644952" lon="12.749207616441078"><ele>515.0</ele><time>2026-03-22T15:03:37.999Z</time></trkpt><trkpt lat="42.268978096972894" lon="12.74918374015768"><ele>513.0</ele><time>2026-03-22T15:03:38.999Z</time></trkpt><trkpt lat="42.26889365437876" lon="12.749149432519221"><ele>512.1999999999999</ele><time>2026-03-22T15:03:39.999Z</time></trkpt><trkpt lat="42.26879189386888" lon="12.749145567241364"><ele>511.4</ele><time>2026-03-22T15:03:40.999Z</time></trkpt><trkpt lat="42.26867961359758" lon="12.749152907091622"><ele>510.59999999999997</ele><time>2026-03-22T15:03:41.999Z</time></trkpt><trkpt lat="42.26857053201929" lon="12.749164583276894"><ele>509.79999999999995</ele><time>2026-03-22T15:03:42.999Z</time></trkpt><trkpt lat="42.268462822785054" lon="12.749181961665435"><ele>509.0</ele><time>2026-03-22T15:03:43.999Z</time></trkpt><trkpt lat="42.2683735706011" lon="12.749203733758899"><ele>508.99999999999994</ele><time>2026-03-22T15:03:44.999Z</time></trkpt><trkpt lat="42.26829612171817" lon="12.749216633404492"><ele>509.0</ele><time>2026-03-22T15:03:45.999Z</time></trkpt><trkpt lat="42.2682126575982" lon="12.749214155352972"><ele>509.0</ele><time>2026-03-22T15:03:46.999Z</time></trkpt><trkpt lat="42.26812515557313" lon="12.749197055449857"><ele>509.0</ele><time>2026-03-22T15:03:47.999Z</time></trkpt><trkpt lat="42.268044259599954" lon="12.749182506103875"><ele>508.99999999999994</ele><time>2026-03-22T15:03:48.999Z</time></trkpt><trkpt lat="42.26794315883636" lon="12.749205257487029"><ele>509.0</ele><time>2026-03-22T15:03:49.999Z</time></trkpt><trkpt lat="42.26783527891149" lon="12.749261542385575"><ele>506.75</ele><time>2026-03-22T15:03:50.999Z</time></trkpt><trkpt lat="42.26772396283216" lon="12.749267430580439"><ele>504.5</ele><time>2026-03-22T15:03:51.999Z</time></trkpt><trkpt lat="42.2676077219499" lon="12.749297327969813"><ele>502.25</ele><time>2026-03-22T15:03:52.999Z</time></trkpt><trkpt lat="42.267479162572265" lon="12.7493303353643"><ele>500.0</ele><time>2026-03-22T15:03:53.999Z</time></trkpt><trkpt lat="42.267325946773774" lon="12.749371309192759"><ele>501.0</ele><time>2026-03-22T15:03:54.999Z</time></trkpt><trkpt lat="42.26718425821911" lon="12.749410459505807"><ele>502.0</ele><time>2026-03-22T15:03:55.999Z</time></trkpt><trkpt lat="42.267049578687555" lon="12.749447673131655"><ele>503.0</ele><time>2026-03-22T15:03:56.999Z</time></trkpt><trkpt lat="42.26692148974896" lon="12.749478922451253"><ele>504.0</ele><time>2026-03-22T15:03:57.999Z</time></trkpt><trkpt lat="42.266793186988835" lon="12.74950807050992"><ele>504.0</ele><time>2026-03-22T15:03:58.999Z</time></trkpt><trkpt lat="42.26664937782582" lon="12.749539667722562"><ele>504.0</ele><time>2026-03-22T15:03:59.999Z</time></trkpt><trkpt lat="42.2665032464756" lon="12.749570625694233"><ele>504.0</ele><time>2026-03-22T15:04:00.999Z</time></trkpt><trkpt lat="42.26636357172586" lon="12.749598307939785"><ele>504.0</ele><time>2026-03-22T15:04:01.999Z</time></trkpt><trkpt lat="42.266234615837284" lon="12.749622497208497"><ele>502.25</ele><time>2026-03-22T15:04:02.999Z</time></trkpt><trkpt lat="42.266098461168525" lon="12.749647124953547"><ele>500.5</ele><time>2026-03-22T15:04:03.999Z</time></trkpt><trkpt lat="42.26595780460378" lon="12.749671530180448"><ele>498.75</ele><time>2026-03-22T15:04:04.999Z</time></trkpt><trkpt lat="42.26582763509314" lon="12.749693068189229"><ele>497.0</ele><time>2026-03-22T15:04:05.999Z</time></trkpt><trkpt lat="42.265717984805406" lon="12.749709745863063"><ele>496.99999999999994</ele><time>2026-03-22T15:04:06.999Z</time></trkpt><trkpt lat="42.26562982596873" lon="12.749721866007802"><ele>497.0</ele><time>2026-03-22T15:04:07.999Z</time></trkpt><trkpt lat="42.26556176133693" lon="12.749747918789293"><ele>497.0</ele><time>2026-03-22T15:04:08.999Z</time></trkpt><trkpt lat="42.26549188308868" lon="12.749676294746592"><ele>497.0</ele><time>2026-03-22T15:04:10.999Z</time></trkpt><trkpt lat="42.26548180723201" lon="12.749590748361262"><ele>496.99999999999994</ele><time>2026-03-22T15:04:11.999Z</time></trkpt><trkpt lat="42.265553548634415" lon="12.749516199688047"><ele>497.0</ele><time>2026-03-22T15:04:12.999Z</time></trkpt><trkpt lat="42.265648741509786" lon="12.749527471827067"><ele>496.99999999999994</ele><time>2026-03-22T15:04:13.999Z</time></trkpt><trkpt lat="42.265737938329075" lon="12.749515564836981"><ele>497.0</ele><time>2026-03-22T15:04:14.999Z</time></trkpt><trkpt lat="42.26583013250749" lon="12.749485307931955"><ele>497.0</ele><time>2026-03-22T15:04:15.999Z</time></trkpt><trkpt lat="42.265923101243374" lon="12.749443230543731"><ele>497.0</ele><time>2026-03-22T15:04:16.999Z</time></trkpt><trkpt lat="42.26598331477179" lon="12.74938422647231"><ele>496.99999999999994</ele><time>2026-03-22T15:04:17.999Z</time></trkpt><trkpt lat="42.26599398553367" lon="12.749294443889816"><ele>497.0</ele><time>2026-03-22T15:04:19.999Z</time></trkpt><trkpt lat="42.265949515655294" lon="12.749221961672577"><ele>494.2857142857143</ele><time>2026-03-22T15:04:21.999Z</time></trkpt><trkpt lat="42.26586953686089" lon="12.749207822568893"><ele>491.57142857142856</ele><time>2026-03-22T15:04:22.999Z</time></trkpt><trkpt lat="42.265787889416146" lon="12.749194698839784"><ele>488.8571428571429</ele><time>2026-03-22T15:04:23.999Z</time></trkpt><trkpt lat="42.26571617008862" lon="12.74916412780662"><ele>486.14285714285717</ele><time>2026-03-22T15:04:24.999Z</time></trkpt><trkpt lat="42.265652327363384" lon="12.749124519187788"><ele>483.42857142857144</ele><time>2026-03-22T15:04:25.999Z</time></trkpt><trkpt lat="42.265594195777346" lon="12.749082316844857"><ele>480.7142857142858</ele><time>2026-03-22T15:04:26.999Z</time></trkpt><trkpt lat="42.265525787904885" lon="12.74906820196948"><ele>478.00000000000006</ele><time>2026-03-22T15:04:27.999Z</time></trkpt><trkpt lat="42.2654605187286" lon="12.74906953634823"><ele>476.83333333333337</ele><time>2026-03-22T15:04:28.999Z</time></trkpt><trkpt lat="42.265394782216745" lon="12.749071985589833"><ele>475.6666666666667</ele><time>2026-03-22T15:04:29.999Z</time></trkpt><trkpt lat="42.26531907905135" lon="12.749074806174473"><ele>474.5</ele><time>2026-03-22T15:04:30.999Z</time></trkpt><trkpt lat="42.265234756953156" lon="12.749070488458605"><ele>473.33333333333337</ele><time>2026-03-22T15:04:31.999Z</time></trkpt><trkpt lat="42.265140852612134" lon="12.749043553779227"><ele>472.1666666666667</ele><time>2026-03-22T15:04:32.999Z</time></trkpt><trkpt lat="42.26503017563679" lon="12.749021617355535"><ele>471.0</ele><time>2026-03-22T15:04:33.999Z</time></trkpt><trkpt lat="42.26492438630148" lon="12.748962172702573"><ele>471.0</ele><time>2026-03-22T15:04:34.999Z</time></trkpt><trkpt lat="42.26481021587116" lon="12.748940825284588"><ele>471.0</ele><time>2026-03-22T15:04:35.999Z</time></trkpt><trkpt lat="42.26470262437486" lon="12.74893614601579"><ele>471.0</ele><time>2026-03-22T15:04:36.999Z</time></trkpt><trkpt lat="42.26460077836299" lon="12.74894030737848"><ele>471.0</ele><time>2026-03-22T15:04:37.999Z</time></trkpt><trkpt lat="42.26450208261112" lon="12.748947306844814"><ele>471.0</ele><time>2026-03-22T15:04:38.999Z</time></trkpt><trkpt lat="42.26440746885177" lon="12.748956099567968"><ele>469.6666666666667</ele><time>2026-03-22T15:04:39.999Z</time></trkpt><trkpt lat="42.26432156493619" lon="12.748964511089845"><ele>468.33333333333337</ele><time>2026-03-22T15:04:40.999Z</time></trkpt><trkpt lat="42.264240763298304" lon="12.748973039064612"><ele>467.0</ele><time>2026-03-22T15:04:41.999Z</time></trkpt><trkpt lat="42.26416012842423" lon="12.748981819893208"><ele>465.6666666666667</ele><time>2026-03-22T15:04:42.999Z</time></trkpt><trkpt lat="42.26407973076807" lon="12.748990574884688"><ele>464.33333333333337</ele><time>2026-03-22T15:04:43.999Z</time></trkpt><trkpt lat="42.264005032393214" lon="12.748998973105602"><ele>463.0</ele><time>2026-03-22T15:04:44.999Z</time></trkpt><trkpt lat="42.26393848612114" lon="12.749007070127574"><ele>461.00000000000006</ele><time>2026-03-22T15:04:45.999Z</time></trkpt><trkpt lat="42.26387364139285" lon="12.749014960121627"><ele>459.0</ele><time>2026-03-22T15:04:46.999Z</time></trkpt><trkpt lat="42.26375225716559" lon="12.74903215080579"><ele>457.0</ele><time>2026-03-22T15:04:48.999Z</time></trkpt><trkpt lat="42.263688963341295" lon="12.749046402024998"><ele>455.0</ele><time>2026-03-22T15:04:49.999Z</time></trkpt><trkpt lat="42.26362534171271" lon="12.74906038926841"><ele>453.00000000000006</ele><time>2026-03-22T15:04:50.999Z</time></trkpt><trkpt lat="42.2635018060161" lon="12.749084179716387"><ele>451.0</ele><time>2026-03-22T15:04:52.999Z</time></trkpt><trkpt lat="42.26339061030848" lon="12.74908776182772"><ele>451.0</ele><time>2026-03-22T15:04:54.999Z</time></trkpt><trkpt lat="42.26328042640558" lon="12.749071238243724"><ele>451.0</ele><time>2026-03-22T15:04:56.999Z</time></trkpt><trkpt lat="42.26317230761285" lon="12.749057580112193"><ele>451.0</ele><time>2026-03-22T15:04:58.999Z</time></trkpt><trkpt lat="42.263074171639836" lon="12.749045888346059"><ele>451.0</ele><time>2026-03-22T15:05:00.999Z</time></trkpt><trkpt lat="42.26301024101843" lon="12.749039352886442"><ele>451.0</ele><time>2026-03-22T15:05:02.999Z</time></trkpt><trkpt lat="42.26292647352792" lon="12.74906417060028"><ele>448.33333333333337</ele><time>2026-03-22T15:05:28.999Z</time></trkpt><trkpt lat="42.26285608310331" lon="12.749067963351266"><ele>445.6666666666667</ele><time>2026-03-22T15:05:30.999Z</time></trkpt><trkpt lat="42.262794907585636" lon="12.749091980169874"><ele>443.0</ele><time>2026-03-22T15:05:31.999Z</time></trkpt><trkpt lat="42.26270200167599" lon="12.749173289654443"><ele>440.33333333333337</ele><time>2026-03-22T15:05:33.999Z</time></trkpt><trkpt lat="42.2626131250079" lon="12.749138322045964"><ele>437.6666666666667</ele><time>2026-03-22T15:05:35.999Z</time></trkpt><trkpt lat="42.26253441557772" lon="12.749042093272369"><ele>435.0</ele><time>2026-03-22T15:05:37.999Z</time></trkpt><trkpt lat="42.26243108808466" lon="12.749027439401504"><ele>435.0</ele><time>2026-03-22T15:05:39.999Z</time></trkpt><trkpt lat="42.262322089461925" lon="12.749083702174396"><ele>435.0</ele><time>2026-03-22T15:05:41.999Z</time></trkpt><trkpt lat="42.262260974869456" lon="12.74912652638693"><ele>435.0</ele><time>2026-03-22T15:05:42.999Z</time></trkpt><trkpt lat="42.26216625800608" lon="12.749180162946125"><ele>435.0</ele><time>2026-03-22T15:05:44.999Z</time></trkpt><trkpt lat="42.262095930285334" lon="12.749109806389221"><ele>435.0</ele><time>2026-03-22T15:05:47.999Z</time></trkpt><trkpt lat="42.262051418344846" lon="12.74903586375563"><ele>435.0</ele><time>2026-03-22T15:05:48.999Z</time></trkpt><trkpt lat="42.262002333076985" lon="12.748947963799196"><ele>432.6666666666667</ele><time>2026-03-22T15:05:49.999Z</time></trkpt><trkpt lat="42.26194499015776" lon="12.748856205206883"><ele>430.33333333333337</ele><time>2026-03-22T15:05:50.999Z</time></trkpt><trkpt lat="42.26188304219147" lon="12.748779115507558"><ele>428.0</ele><time>2026-03-22T15:05:51.999Z</time></trkpt><trkpt lat="42.2618294151072" lon="12.748713065007909"><ele>425.6666666666667</ele><time>2026-03-22T15:05:52.999Z</time></trkpt><trkpt lat="42.26175097208484" lon="12.748622635098847"><ele>423.33333333333337</ele><time>2026-03-22T15:05:54.999Z</time></trkpt><trkpt lat="42.26169551563817" lon="12.748578616226391"><ele>421.0</ele><time>2026-03-22T15:06:12.999Z</time></trkpt><trkpt lat="42.26162639681084" lon="12.748565233103713"><ele>421.00000000000006</ele><time>2026-03-22T15:06:16.999Z</time></trkpt><trkpt lat="42.26157189290947" lon="12.748510299356303"><ele>421.0</ele><time>2026-03-22T15:06:22.999Z</time></trkpt><trkpt lat="42.261612368702444" lon="12.748588014407478"><ele>421.0</ele><time>2026-03-22T15:06:27.999Z</time></trkpt><trkpt lat="42.26169274034059" lon="12.748594831497222"><ele>421.0</ele><time>2026-03-22T15:06:43.999Z</time></trkpt><trkpt lat="42.26177820658088" lon="12.748614705069633"><ele>421.00000000000006</ele><time>2026-03-22T15:06:54.999Z</time></trkpt><trkpt lat="42.26182765324413" lon="12.748561811346992"><ele>421.0</ele><time>2026-03-22T15:06:57.999Z</time></trkpt><trkpt lat="42.26192080036027" lon="12.748444568410974"><ele>421.50000000000006</ele><time>2026-03-22T15:06:59.999Z</time></trkpt><trkpt lat="42.261983088769405" lon="12.748388347342456"><ele>422.0</ele><time>2026-03-22T15:07:00.999Z</time></trkpt><trkpt lat="42.26204440604666" lon="12.748331675046188"><ele>422.5</ele><time>2026-03-22T15:07:01.999Z</time></trkpt><trkpt lat="42.26205812494599" lon="12.748229764217848"><ele>423.0</ele><time>2026-03-22T15:07:04.999Z</time></trkpt><trkpt lat="42.262032883756156" lon="12.748147720715506"><ele>423.50000000000006</ele><time>2026-03-22T15:07:05.999Z</time></trkpt><trkpt lat="42.2620107244347" lon="12.748015464833179"><ele>424.0</ele><time>2026-03-22T15:07:06.999Z</time></trkpt><trkpt lat="42.26198980916009" lon="12.747889565225053"><ele>424.0</ele><time>2026-03-22T15:07:07.999Z</time></trkpt><trkpt lat="42.261957790653675" lon="12.747783201647401"><ele>424.0</ele><time>2026-03-22T15:07:08.999Z</time></trkpt><trkpt lat="42.26193394691122" lon="12.747630668737516"><ele>424.0</ele><time>2026-03-22T15:07:09.999Z</time></trkpt><trkpt lat="42.26190902366847" lon="12.74746623149427"><ele>424.0</ele><time>2026-03-22T15:07:10.999Z</time></trkpt><trkpt lat="42.26188359616997" lon="12.747332349828541"><ele>424.0</ele><time>2026-03-22T15:07:11.999Z</time></trkpt><trkpt lat="42.26188279313509" lon="12.747221848482422"><ele>422.6</ele><time>2026-03-22T15:07:12.999Z</time></trkpt><trkpt lat="42.26185247028709" lon="12.747127683877887"><ele>421.2</ele><time>2026-03-22T15:07:13.999Z</time></trkpt><trkpt lat="42.26181211312357" lon="12.747001790668458"><ele>419.8</ele><time>2026-03-22T15:07:15.999Z</time></trkpt><trkpt lat="42.2618319052559" lon="12.746837320883163"><ele>418.40000000000003</ele><time>2026-03-22T15:07:17.999Z</time></trkpt><trkpt lat="42.261886227563416" lon="12.746718358588614"><ele>417.0</ele><time>2026-03-22T15:07:19.999Z</time></trkpt><trkpt lat="42.261928099852724" lon="12.746643679551097"><ele>415.42857142857144</ele><time>2026-03-22T15:07:21.999Z</time></trkpt><trkpt lat="42.26194639057293" lon="12.746552176935351"><ele>413.85714285714283</ele><time>2026-03-22T15:07:24.999Z</time></trkpt><trkpt lat="42.26192042870703" lon="12.746445674019574"><ele>412.2857142857143</ele><time>2026-03-22T15:07:27.999Z</time></trkpt><trkpt lat="42.26190302987656" lon="12.746348197674463"><ele>410.7142857142857</ele><time>2026-03-22T15:07:30.999Z</time></trkpt><trkpt lat="42.26184814285886" lon="12.746281698650936"><ele>409.1428571428571</ele><time>2026-03-22T15:07:33.999Z</time></trkpt><trkpt lat="42.26177786145259" lon="12.746286853212736"><ele>407.57142857142856</ele><time>2026-03-22T15:07:34.999Z</time></trkpt><trkpt lat="42.261713634112894" lon="12.746301096074676"><ele>406.0</ele><time>2026-03-22T15:07:35.999Z</time></trkpt><trkpt lat="42.261643509885765" lon="12.74633544951879"><ele>406.0</ele><time>2026-03-22T15:07:37.999Z</time></trkpt><trkpt lat="42.26162088318972" lon="12.746225382134677"><ele>406.0</ele><time>2026-03-22T15:07:40.999Z</time></trkpt><trkpt lat="42.261513991984216" lon="12.746041293805545"><ele>406.0</ele><time>2026-03-22T15:07:43.999Z</time></trkpt><trkpt lat="42.261463017184724" lon="12.745923460178997"><ele>406.0</ele><time>2026-03-22T15:07:45.999Z</time></trkpt><trkpt lat="42.2614086261197" lon="12.74584881269427"><ele>406.0</ele><time>2026-03-22T15:07:46.999Z</time></trkpt><trkpt lat="42.26134304471942" lon="12.74580009004672"><ele>405.6666666666667</ele><time>2026-03-22T15:07:47.999Z</time></trkpt><trkpt lat="42.26124882415829" lon="12.745733051767806"><ele>405.33333333333337</ele><time>2026-03-22T15:07:49.999Z</time></trkpt><trkpt lat="42.26119211099549" lon="12.7456919565407"><ele>405.0</ele><time>2026-03-22T15:07:50.999Z</time></trkpt><trkpt lat="42.26111824161071" lon="12.745645618726469"><ele>404.66666666666663</ele><time>2026-03-22T15:07:51.999Z</time></trkpt><trkpt lat="42.2610304852242" lon="12.745564113245472"><ele>404.3333333333333</ele><time>2026-03-22T15:07:53.999Z</time></trkpt><trkpt lat="42.26094933805566" lon="12.745512455822913"><ele>404.0</ele><time>2026-03-22T15:07:54.999Z</time></trkpt><trkpt lat="42.26088284998275" lon="12.74547127107879"><ele>403.99999999999994</ele><time>2026-03-22T15:07:55.999Z</time></trkpt><trkpt lat="42.260825284962955" lon="12.745436530366801"><ele>404.0</ele><time>2026-03-22T15:07:56.999Z</time></trkpt><trkpt lat="42.260767831714844" lon="12.74538546787531"><ele>404.0</ele><time>2026-03-22T15:07:57.999Z</time></trkpt><trkpt lat="42.26070254755568" lon="12.745307560845545"><ele>404.0</ele><time>2026-03-22T15:07:58.999Z</time></trkpt><trkpt lat="42.26066398171706" lon="12.745220174599037"><ele>403.99999999999994</ele><time>2026-03-22T15:07:59.999Z</time></trkpt><trkpt lat="42.260606371311255" lon="12.745133503408091"><ele>404.0</ele><time>2026-03-22T15:08:01.999Z</time></trkpt><trkpt lat="42.26056464389043" lon="12.745019846626615"><ele>407.0</ele><time>2026-03-22T15:08:03.999Z</time></trkpt><trkpt lat="42.26055180565282" lon="12.744854701318976"><ele>410.0</ele><time>2026-03-22T15:08:05.999Z</time></trkpt><trkpt lat="42.26054635365158" lon="12.74471049655677"><ele>413.0</ele><time>2026-03-22T15:08:06.999Z</time></trkpt><trkpt lat="42.260579270385016" lon="12.744606118549479"><ele>416.0</ele><time>2026-03-22T15:08:07.999Z</time></trkpt><trkpt lat="42.26058539305846" lon="12.74449986180835"><ele>419.0</ele><time>2026-03-22T15:08:09.999Z</time></trkpt><trkpt lat="42.26053399918152" lon="12.74441640947804"><ele>414.66666666666663</ele><time>2026-03-22T15:08:11.999Z</time></trkpt><trkpt lat="42.260563694525345" lon="12.744333232045376"><ele>410.3333333333333</ele><time>2026-03-22T15:08:13.999Z</time></trkpt><trkpt lat="42.2605974081346" lon="12.744224696908041"><ele>406.0</ele><time>2026-03-22T15:08:15.999Z</time></trkpt><trkpt lat="42.26055389939631" lon="12.744137787354932"><ele>401.66666666666663</ele><time>2026-03-22T15:08:17.999Z</time></trkpt><trkpt lat="42.26046242197204" lon="12.74408550920791"><ele>397.3333333333333</ele><time>2026-03-22T15:08:19.999Z</time></trkpt><trkpt lat="42.26039511243494" lon="12.744023550975664"><ele>393.0</ele><time>2026-03-22T15:08:21.999Z</time></trkpt><trkpt lat="42.26034224286528" lon="12.743960755844412"><ele>393.00000000000006</ele><time>2026-03-22T15:08:24.999Z</time></trkpt><trkpt lat="42.260291829776016" lon="12.743894003998223"><ele>393.0</ele><time>2026-03-22T15:08:26.999Z</time></trkpt><trkpt lat="42.260229622504" lon="12.74384073069342"><ele>393.0</ele><time>2026-03-22T15:08:30.999Z</time></trkpt><trkpt lat="42.26029552323742" lon="12.7438733913703"><ele>393.0</ele><time>2026-03-22T15:08:36.999Z</time></trkpt><trkpt lat="42.26035345580849" lon="12.7439154915542"><ele>393.0</ele><time>2026-03-22T15:08:39.999Z</time></trkpt><trkpt lat="42.26044043115967" lon="12.74390572857944"><ele>393.00000000000006</ele><time>2026-03-22T15:08:42.999Z</time></trkpt><trkpt lat="42.260508136678716" lon="12.743899546285993"><ele>393.0</ele><time>2026-03-22T15:08:43.999Z</time></trkpt><trkpt lat="42.260611104062" lon="12.743895021664047"><ele>393.0</ele><time>2026-03-22T15:08:45.999Z</time></trkpt><trkpt lat="42.2606837032835" lon="12.743887683225866"><ele>393.0</ele><time>2026-03-22T15:08:47.999Z</time></trkpt><trkpt lat="42.260710707345424" lon="12.743810252699863"><ele>393.0</ele><time>2026-03-22T15:08:49.999Z</time></trkpt><trkpt lat="42.2606601189354" lon="12.74371318627372"><ele>393.0</ele><time>2026-03-22T15:08:53.999Z</time></trkpt><trkpt lat="42.260592584732834" lon="12.743641049825094"><ele>393.0</ele><time>2026-03-22T15:08:57.999Z</time></trkpt><trkpt lat="42.26056018788952" lon="12.743566645238404"><ele>393.0</ele><time>2026-03-22T15:08:59.999Z</time></trkpt><trkpt lat="42.26050647479727" lon="12.743491930326925"><ele>387.2</ele><time>2026-03-22T15:09:02.999Z</time></trkpt><trkpt lat="42.260445333958415" lon="12.743386132710034"><ele>381.4</ele><time>2026-03-22T15:09:04.999Z</time></trkpt><trkpt lat="42.26038215107355" lon="12.743253368394873"><ele>375.59999999999997</ele><time>2026-03-22T15:09:06.999Z</time></trkpt><trkpt lat="42.26036571400529" lon="12.743133447461604"><ele>369.79999999999995</ele><time>2026-03-22T15:09:08.999Z</time></trkpt><trkpt lat="42.26034360743025" lon="12.7429985408663"><ele>364.0</ele><time>2026-03-22T15:09:10.999Z</time></trkpt><trkpt lat="42.260350898976" lon="12.742903731007868"><ele>364.0</ele><time>2026-03-22T15:09:12.999Z</time></trkpt><trkpt lat="42.26035415283915" lon="12.742801263313098"><ele>364.0</ele><time>2026-03-22T15:09:14.999Z</time></trkpt><trkpt lat="42.260371634698" lon="12.742699225542003"><ele>364.0</ele><time>2026-03-22T15:09:16.999Z</time></trkpt><trkpt lat="42.26039097462011" lon="12.742601705013266"><ele>364.0</ele><time>2026-03-22T15:09:18.999Z</time></trkpt><trkpt lat="42.26040454366581" lon="12.742479892797679"><ele>364.0</ele><time>2026-03-22T15:09:20.999Z</time></trkpt><trkpt lat="42.26042517531981" lon="12.742334914959557"><ele>364.0</ele><time>2026-03-22T15:09:22.999Z</time></trkpt><trkpt lat="42.26044557187959" lon="12.742224881619084"><ele>362.3333333333333</ele><time>2026-03-22T15:09:24.999Z</time></trkpt><trkpt lat="42.26042543067047" lon="12.742129676292286"><ele>360.66666666666663</ele><time>2026-03-22T15:09:26.999Z</time></trkpt><trkpt lat="42.26038889467283" lon="12.742047924729464"><ele>359.0</ele><time>2026-03-22T15:09:28.999Z</time></trkpt><trkpt lat="42.26033902837113" lon="12.741935102342651"><ele>357.3333333333333</ele><time>2026-03-22T15:09:30.999Z</time></trkpt><trkpt lat="42.260301961397516" lon="12.74186608209209"><ele>355.6666666666667</ele><time>2026-03-22T15:09:32.999Z</time></trkpt><trkpt lat="42.260279522221246" lon="12.741774141608055"><ele>354.0</ele><time>2026-03-22T15:09:34.999Z</time></trkpt><trkpt lat="42.26026236932756" lon="12.741654749113671"><ele>352.5</ele><time>2026-03-22T15:09:37.999Z</time></trkpt><trkpt lat="42.26024548703747" lon="12.741539726237683"><ele>351.0</ele><time>2026-03-22T15:09:39.999Z</time></trkpt><trkpt lat="42.26019224562112" lon="12.741450085457878"><ele>349.5</ele><time>2026-03-22T15:09:42.999Z</time></trkpt><trkpt lat="42.260143634952904" lon="12.741369114346528"><ele>348.0</ele><time>2026-03-22T15:09:44.999Z</time></trkpt><trkpt lat="42.260082497448664" lon="12.74130827312558"><ele>346.5</ele><time>2026-03-22T15:09:46.999Z</time></trkpt><trkpt lat="42.26002110827419" lon="12.7412234867022"><ele>345.0</ele><time>2026-03-22T15:09:48.999Z</time></trkpt><trkpt lat="42.25994414043025" lon="12.74113180139461"><ele>345.0</ele><time>2026-03-22T15:09:50.999Z</time></trkpt><trkpt lat="42.25987711296204" lon="12.741050576960259"><ele>345.0</ele><time>2026-03-22T15:09:52.999Z</time></trkpt><trkpt lat="42.259823689848794" lon="12.740995627960535"><ele>345.0</ele><time>2026-03-22T15:09:54.999Z</time></trkpt><trkpt lat="42.25974505977972" lon="12.740924337841735"><ele>345.0</ele><time>2026-03-22T15:09:56.999Z</time></trkpt><trkpt lat="42.25963945095518" lon="12.74085176165091"><ele>345.0</ele><time>2026-03-22T15:09:58.999Z</time></trkpt><trkpt lat="42.259532161545" lon="12.740813823468278"><ele>342.7142857142857</ele><time>2026-03-22T15:10:00.999Z</time></trkpt><trkpt lat="42.25946339974709" lon="12.740801801103656"><ele>340.42857142857144</ele><time>2026-03-22T15:10:02.999Z</time></trkpt><trkpt lat="42.259440014859344" lon="12.74068491970511"><ele>338.1428571428571</ele><time>2026-03-22T15:10:05.999Z</time></trkpt><trkpt lat="42.25937394633096" lon="12.740639205467332"><ele>335.8571428571429</ele><time>2026-03-22T15:10:07.999Z</time></trkpt><trkpt lat="42.25930682963611" lon="12.740637762926482"><ele>333.57142857142856</ele><time>2026-03-22T15:10:09.999Z</time></trkpt><trkpt lat="42.259330766631294" lon="12.7405481364813"><ele>331.2857142857143</ele><time>2026-03-22T15:10:13.999Z</time></trkpt><trkpt lat="42.25938303946811" lon="12.740471526526958"><ele>329.0</ele><time>2026-03-22T15:10:15.999Z</time></trkpt><trkpt lat="42.25944530869763" lon="12.740397408561291"><ele>329.0</ele><time>2026-03-22T15:10:17.999Z</time></trkpt><trkpt lat="42.25951875636232" lon="12.74031527482275"><ele>329.0</ele><time>2026-03-22T15:10:19.999Z</time></trkpt><trkpt lat="42.259558590071364" lon="12.740220847347839"><ele>329.0</ele><time>2026-03-22T15:10:21.999Z</time></trkpt><trkpt lat="42.259605250829495" lon="12.74011625694652"><ele>329.0</ele><time>2026-03-22T15:10:23.999Z</time></trkpt><trkpt lat="42.25967646785819" lon="12.740060041257983"><ele>329.0</ele><time>2026-03-22T15:10:26.999Z</time></trkpt><trkpt lat="42.25976471593083" lon="12.73999213094852"><ele>328.6666666666667</ele><time>2026-03-22T15:10:29.999Z</time></trkpt><trkpt lat="42.2598101996975" lon="12.739907060044771"><ele>328.33333333333337</ele><time>2026-03-22T15:10:31.999Z</time></trkpt><trkpt lat="42.25984695481474" lon="12.739800995998127"><ele>328.0</ele><time>2026-03-22T15:10:33.999Z</time></trkpt><trkpt lat="42.25989672040083" lon="12.739717954920367"><ele>327.6666666666667</ele><time>2026-03-22T15:10:35.999Z</time></trkpt><trkpt lat="42.25992965925557" lon="12.739620305583989"><ele>327.3333333333333</ele><time>2026-03-22T15:10:37.999Z</time></trkpt><trkpt lat="42.25996259847105" lon="12.739544281033512"><ele>327.0</ele><time>2026-03-22T15:10:39.999Z</time></trkpt><trkpt lat="42.259997022302535" lon="12.7394638935724"><ele>324.3333333333333</ele><time>2026-03-22T15:10:41.999Z</time></trkpt><trkpt lat="42.260023638337834" lon="12.73935839179542"><ele>321.6666666666667</ele><time>2026-03-22T15:10:43.999Z</time></trkpt><trkpt lat="42.26007590094661" lon="12.739273863807394"><ele>319.0</ele><time>2026-03-22T15:10:45.999Z</time></trkpt><trkpt lat="42.26008997433301" lon="12.739148732328939"><ele>316.33333333333337</ele><time>2026-03-22T15:10:48.999Z</time></trkpt><trkpt lat="42.260089351754466" lon="12.739055155766748"><ele>313.6666666666667</ele><time>2026-03-22T15:10:51.999Z</time></trkpt><trkpt lat="42.260039199276385" lon="12.738974171406106"><ele>311.0</ele><time>2026-03-22T15:10:53.999Z</time></trkpt><trkpt lat="42.26005073869147" lon="12.73888240701608"><ele>311.0</ele><time>2026-03-22T15:10:55.999Z</time></trkpt><trkpt lat="42.260073887115574" lon="12.738773875031157"><ele>311.0</ele><time>2026-03-22T15:10:57.999Z</time></trkpt><trkpt lat="42.260074122481576" lon="12.73867400083349"><ele>311.0</ele><time>2026-03-22T15:10:59.999Z</time></trkpt><trkpt lat="42.26007957500438" lon="12.738574818834529"><ele>311.0</ele><time>2026-03-22T15:11:01.999Z</time></trkpt><trkpt lat="42.26006000400687" lon="12.738425767785174"><ele>311.0</ele><time>2026-03-22T15:11:04.999Z</time></trkpt><trkpt lat="42.260070069674704" lon="12.738328095693413"><ele>311.0</ele><time>2026-03-22T15:11:06.999Z</time></trkpt><trkpt lat="42.26006006972919" lon="12.738205671958665"><ele>310.2</ele><time>2026-03-22T15:11:09.999Z</time></trkpt><trkpt lat="42.260029204025436" lon="12.73812893884477"><ele>309.40000000000003</ele><time>2026-03-22T15:11:11.999Z</time></trkpt><trkpt lat="42.259945502971156" lon="12.738145924980635"><ele>308.6</ele><time>2026-03-22T15:11:13.999Z</time></trkpt><trkpt lat="42.259866295548285" lon="12.738289983542963"><ele>307.8</ele><time>2026-03-22T15:11:15.999Z</time></trkpt><trkpt lat="42.259812457860356" lon="12.738390554386536"><ele>307.0</ele><time>2026-03-22T15:11:16.999Z</time></trkpt><trkpt lat="42.25971093033662" lon="12.738473946483508"><ele>303.5</ele><time>2026-03-22T15:11:17.999Z</time></trkpt><trkpt lat="42.25964327222104" lon="12.73860720518507"><ele>300.0</ele><time>2026-03-22T15:11:18.999Z</time></trkpt><trkpt lat="42.25957621734534" lon="12.738734311106493"><ele>296.5</ele><time>2026-03-22T15:11:19.999Z</time></trkpt><trkpt lat="42.259499972017984" lon="12.738870189096398"><ele>293.0</ele><time>2026-03-22T15:11:20.999Z</time></trkpt><trkpt lat="42.259420380663784" lon="12.738979855529232"><ele>293.0</ele><time>2026-03-22T15:11:21.999Z</time></trkpt><trkpt lat="42.25933636273358" lon="12.739050802469833"><ele>293.0</ele><time>2026-03-22T15:11:22.999Z</time></trkpt><trkpt lat="42.259267771862135" lon="12.739095190795846"><ele>293.0</ele><time>2026-03-22T15:11:23.999Z</time></trkpt><trkpt lat="42.25920247077969" lon="12.739129279517218"><ele>293.0</ele><time>2026-03-22T15:11:24.999Z</time></trkpt><trkpt lat="42.25911542245489" lon="12.739176308413967"><ele>293.0</ele><time>2026-03-22T15:11:25.999Z</time></trkpt><trkpt lat="42.25899861357346" lon="12.739232810347893"><ele>292.5</ele><time>2026-03-22T15:11:26.999Z</time></trkpt><trkpt lat="42.25887193232446" lon="12.739304168056803"><ele>292.0</ele><time>2026-03-22T15:11:27.999Z</time></trkpt><trkpt lat="42.25874100651342" lon="12.739369707633298"><ele>291.5</ele><time>2026-03-22T15:11:28.999Z</time></trkpt><trkpt lat="42.258616733168644" lon="12.739419271766437"><ele>291.0</ele><time>2026-03-22T15:11:29.999Z</time></trkpt><trkpt lat="42.25850526117319" lon="12.739445234432315"><ele>291.0</ele><time>2026-03-22T15:11:30.999Z</time></trkpt><trkpt lat="42.258394684092885" lon="12.739462545871959"><ele>291.0</ele><time>2026-03-22T15:11:31.999Z</time></trkpt><trkpt lat="42.25829294128619" lon="12.739474172206377"><ele>291.0</ele><time>2026-03-22T15:11:32.999Z</time></trkpt><trkpt lat="42.258191511128935" lon="12.73948570642146"><ele>291.0</ele><time>2026-03-22T15:11:33.999Z</time></trkpt><trkpt lat="42.2580931806278" lon="12.739496888124672"><ele>291.0</ele><time>2026-03-22T15:11:34.999Z</time></trkpt><trkpt lat="42.257987749443274" lon="12.739508800132887"><ele>289.0</ele><time>2026-03-22T15:11:35.999Z</time></trkpt><trkpt lat="42.2579014890541" lon="12.73951368047062"><ele>287.0</ele><time>2026-03-22T15:11:36.999Z</time></trkpt><trkpt lat="42.25782915939504" lon="12.739512170136878"><ele>285.0</ele><time>2026-03-22T15:11:37.999Z</time></trkpt><trkpt lat="42.25770965076979" lon="12.739476696515517"><ele>283.0</ele><time>2026-03-22T15:11:39.999Z</time></trkpt><trkpt lat="42.25767702784044" lon="12.739392367221269"><ele>281.0</ele><time>2026-03-22T15:11:40.999Z</time></trkpt><trkpt lat="42.257664861301066" lon="12.73929933515815"><ele>279.0</ele><time>2026-03-22T15:11:41.999Z</time></trkpt><trkpt lat="42.25769141100922" lon="12.73918998266196"><ele>278.2</ele><time>2026-03-22T15:11:42.999Z</time></trkpt><trkpt lat="42.257740039922965" lon="12.73908068276246"><ele>277.4</ele><time>2026-03-22T15:11:43.999Z</time></trkpt><trkpt lat="42.257800430134" lon="12.738963753692609"><ele>276.6</ele><time>2026-03-22T15:11:44.999Z</time></trkpt><trkpt lat="42.25786287582633" lon="12.73882038569824"><ele>275.8</ele><time>2026-03-22T15:11:45.999Z</time></trkpt><trkpt lat="42.25792268852612" lon="12.738688481454755"><ele>275.0</ele><time>2026-03-22T15:11:46.999Z</time></trkpt><trkpt lat="42.25797599342095" lon="12.738556728945987"><ele>274.33333333333337</ele><time>2026-03-22T15:11:47.999Z</time></trkpt><trkpt lat="42.25801843124086" lon="12.73844000632243"><ele>273.6666666666667</ele><time>2026-03-22T15:11:48.999Z</time></trkpt><trkpt lat="42.25802810207699" lon="12.738333325178452"><ele>273.0</ele><time>2026-03-22T15:11:49.999Z</time></trkpt><trkpt lat="42.258003702527816" lon="12.738238087104037"><ele>272.3333333333333</ele><time>2026-03-22T15:11:50.999Z</time></trkpt><trkpt lat="42.2579506561085" lon="12.73815765673458"><ele>271.66666666666663</ele><time>2026-03-22T15:11:51.999Z</time></trkpt><trkpt lat="42.257878653571176" lon="12.738083925425995"><ele>271.0</ele><time>2026-03-22T15:11:52.999Z</time></trkpt><trkpt lat="42.25779931043136" lon="12.738033295105794"><ele>271.0</ele><time>2026-03-22T15:11:53.999Z</time></trkpt><trkpt lat="42.257723090718606" lon="12.737994719533425"><ele>271.0</ele><time>2026-03-22T15:11:54.999Z</time></trkpt><trkpt lat="42.257633914207254" lon="12.738031054816636"><ele>271.0</ele><time>2026-03-22T15:11:55.999Z</time></trkpt><trkpt lat="42.257550885525774" lon="12.738137504405707"><ele>271.0</ele><time>2026-03-22T15:11:56.999Z</time></trkpt><trkpt lat="42.25746847432247" lon="12.738250697072385"><ele>271.0</ele><time>2026-03-22T15:11:57.999Z</time></trkpt><trkpt lat="42.25737437203788" lon="12.738376793973124"><ele>270.5</ele><time>2026-03-22T15:11:58.999Z</time></trkpt><trkpt lat="42.2572557574634" lon="12.738500005910796"><ele>270.0</ele><time>2026-03-22T15:11:59.999Z</time></trkpt><trkpt lat="42.2571417476617" lon="12.738596659067158"><ele>269.5</ele><time>2026-03-22T15:12:00.999Z</time></trkpt><trkpt lat="42.257037293320664" lon="12.738663213013897"><ele>269.0</ele><time>2026-03-22T15:12:01.999Z</time></trkpt><trkpt lat="42.25696002517842" lon="12.738690024248168"><ele>269.0</ele><time>2026-03-22T15:12:02.999Z</time></trkpt><trkpt lat="42.256893784130256" lon="12.738669659307655"><ele>269.0</ele><time>2026-03-22T15:12:03.999Z</time></trkpt><trkpt lat="42.25681795297514" lon="12.73859752596454"><ele>269.0</ele><time>2026-03-22T15:12:05Z</time></trkpt><trkpt lat="42.25671962135721" lon="12.738501445881896"><ele>269.0</ele><time>2026-03-22T15:12:06Z</time></trkpt><trkpt lat="42.256609534250245" lon="12.738407599273128"><ele>269.0</ele><time>2026-03-22T15:12:07Z</time></trkpt><trkpt lat="42.25651051435129" lon="12.738302942279262"><ele>265.59999999999997</ele><time>2026-03-22T15:12:08Z</time></trkpt><trkpt lat="42.256419590384" lon="12.738224908989075"><ele>262.2</ele><time>2026-03-22T15:12:09Z</time></trkpt><trkpt lat="42.25634011093185" lon="12.738154362666235"><ele>258.79999999999995</ele><time>2026-03-22T15:12:10Z</time></trkpt><trkpt lat="42.25625031860597" lon="12.738142342687183"><ele>255.39999999999998</ele><time>2026-03-22T15:12:11Z</time></trkpt><trkpt lat="42.256146776951276" lon="12.738190708102115"><ele>252.0</ele><time>2026-03-22T15:12:12Z</time></trkpt><trkpt lat="42.2560550306143" lon="12.73829885738244"><ele>252.0</ele><time>2026-03-22T15:12:13Z</time></trkpt><trkpt lat="42.25596216338368" lon="12.738406448306359"><ele>252.0</ele><time>2026-03-22T15:12:14Z</time></trkpt><trkpt lat="42.25586564030525" lon="12.738522698760008"><ele>252.0</ele><time>2026-03-22T15:12:15Z</time></trkpt><trkpt lat="42.25576660813885" lon="12.738636412422863"><ele>252.0</ele><time>2026-03-22T15:12:16Z</time></trkpt><trkpt lat="42.25566200953648" lon="12.738756488681204"><ele>252.39999999999998</ele><time>2026-03-22T15:12:17Z</time></trkpt><trkpt lat="42.25556915201857" lon="12.738858761467393"><ele>252.79999999999998</ele><time>2026-03-22T15:12:18Z</time></trkpt><trkpt lat="42.25547445539836" lon="12.738916717158187"><ele>253.2</ele><time>2026-03-22T15:12:19Z</time></trkpt><trkpt lat="42.25537844651678" lon="12.738934996369334"><ele>253.6</ele><time>2026-03-22T15:12:20Z</time></trkpt><trkpt lat="42.255285465188194" lon="12.738917308914795"><ele>254.0</ele><time>2026-03-22T15:12:21Z</time></trkpt><trkpt lat="42.25517511692411" lon="12.738890641750338"><ele>254.0</ele><time>2026-03-22T15:12:22Z</time></trkpt><trkpt lat="42.255074095309176" lon="12.738803431891434"><ele>254.0</ele><time>2026-03-22T15:12:23Z</time></trkpt><trkpt lat="42.25496024053155" lon="12.738714435672042"><ele>254.0</ele><time>2026-03-22T15:12:24Z</time></trkpt><trkpt lat="42.25484649455975" lon="12.7386668739702"><ele>254.0</ele><time>2026-03-22T15:12:25Z</time></trkpt><trkpt lat="42.254744252080094" lon="12.738652822273279"><ele>251.39999999999998</ele><time>2026-03-22T15:12:26Z</time></trkpt><trkpt lat="42.25464023490326" lon="12.738688416934668"><ele>248.79999999999998</ele><time>2026-03-22T15:12:27Z</time></trkpt><trkpt lat="42.25455250483545" lon="12.738746735463137"><ele>246.20000000000002</ele><time>2026-03-22T15:12:28Z</time></trkpt><trkpt lat="42.25447063337098" lon="12.738844777029023"><ele>243.60000000000002</ele><time>2026-03-22T15:12:29Z</time></trkpt><trkpt lat="42.254418698919515" lon="12.738988866833358"><ele>241.0</ele><time>2026-03-22T15:12:30Z</time></trkpt><trkpt lat="42.2544067745364" lon="12.739149172756514"><ele>241.0</ele><time>2026-03-22T15:12:31Z</time></trkpt><trkpt lat="42.25437198245318" lon="12.739304248518584"><ele>241.0</ele><time>2026-03-22T15:12:32Z</time></trkpt><trkpt lat="42.254346972198356" lon="12.739479544845652"><ele>241.0</ele><time>2026-03-22T15:12:33Z</time></trkpt><trkpt lat="42.25432150456116" lon="12.73966740398272"><ele>241.0</ele><time>2026-03-22T15:12:34Z</time></trkpt><trkpt lat="42.254298405361645" lon="12.739836816763527"><ele>240.83333333333331</ele><time>2026-03-22T15:12:35Z</time></trkpt><trkpt lat="42.25426690665515" lon="12.739965610099864"><ele>240.66666666666666</ele><time>2026-03-22T15:12:36Z</time></trkpt><trkpt lat="42.254225183923005" lon="12.740047997972692"><ele>240.5</ele><time>2026-03-22T15:12:37Z</time></trkpt><trkpt lat="42.25417854114487" lon="12.740112521230234"><ele>240.33333333333331</ele><time>2026-03-22T15:12:38Z</time></trkpt><trkpt lat="42.254061761912475" lon="12.740167203336416"><ele>240.16666666666666</ele><time>2026-03-22T15:12:40Z</time></trkpt><trkpt lat="42.25399166200081" lon="12.740149726730825"><ele>240.0</ele><time>2026-03-22T15:12:41Z</time></trkpt><trkpt lat="42.25392848661225" lon="12.740115241570631"><ele>237.83333333333334</ele><time>2026-03-22T15:12:42Z</time></trkpt><trkpt lat="42.253866227550866" lon="12.740067000255404"><ele>235.66666666666669</ele><time>2026-03-22T15:12:43Z</time></trkpt><trkpt lat="42.25382699666708" lon="12.73997834452863"><ele>233.5</ele><time>2026-03-22T15:12:44Z</time></trkpt><trkpt lat="42.253795952840626" lon="12.739877293207565"><ele>231.33333333333334</ele><time>2026-03-22T15:12:45Z</time></trkpt><trkpt lat="42.25376815935827" lon="12.739761980343328"><ele>229.16666666666669</ele><time>2026-03-22T15:12:46Z</time></trkpt><trkpt lat="42.25376694924982" lon="12.739617251467573"><ele>227.0</ele><time>2026-03-22T15:12:47Z</time></trkpt><trkpt lat="42.253758911806024" lon="12.73945617491037"><ele>227.5</ele><time>2026-03-22T15:12:48Z</time></trkpt><trkpt lat="42.2537422745358" lon="12.739288045818368"><ele>228.0</ele><time>2026-03-22T15:12:49Z</time></trkpt><trkpt lat="42.25372700035651" lon="12.739119841735366"><ele>228.5</ele><time>2026-03-22T15:12:50Z</time></trkpt><trkpt lat="42.25371342309705" lon="12.738940351104777"><ele>229.0</ele><time>2026-03-22T15:12:51Z</time></trkpt><trkpt lat="42.253704680058235" lon="12.738754485021737"><ele>229.0</ele><time>2026-03-22T15:12:52Z</time></trkpt><trkpt lat="42.253692156249656" lon="12.738560197933626"><ele>229.0</ele><time>2026-03-22T15:12:53Z</time></trkpt><trkpt lat="42.25367951391112" lon="12.738371032680764"><ele>229.0</ele><time>2026-03-22T15:12:54Z</time></trkpt><trkpt lat="42.253666146963376" lon="12.738195857703998"><ele>229.0</ele><time>2026-03-22T15:12:55Z</time></trkpt><trkpt lat="42.253653543759185" lon="12.73803580298016"><ele>228.6</ele><time>2026-03-22T15:12:56Z</time></trkpt><trkpt lat="42.25361590505137" lon="12.737891610047031"><ele>228.2</ele><time>2026-03-22T15:12:57Z</time></trkpt><trkpt lat="42.253558426633376" lon="12.737775555596183"><ele>227.79999999999998</ele><time>2026-03-22T15:12:58Z</time></trkpt><trkpt lat="42.253492880866716" lon="12.737665568811552"><ele>227.39999999999998</ele><time>2026-03-22T15:12:59Z</time></trkpt><trkpt lat="42.25339564667574" lon="12.737586182692173"><ele>227.0</ele><time>2026-03-22T15:13:00Z</time></trkpt><trkpt lat="42.253279025761906" lon="12.737541343120943"><ele>226.2</ele><time>2026-03-22T15:13:01Z</time></trkpt><trkpt lat="42.2531752286649" lon="12.737544395175433"><ele>225.39999999999998</ele><time>2026-03-22T15:13:02Z</time></trkpt><trkpt lat="42.253079977996116" lon="12.737581111550007"><ele>224.60000000000002</ele><time>2026-03-22T15:13:03Z</time></trkpt><trkpt lat="42.252990391290034" lon="12.73765313203545"><ele>223.8</ele><time>2026-03-22T15:13:04Z</time></trkpt><trkpt lat="42.252906581064785" lon="12.737757315863293"><ele>223.0</ele><time>2026-03-22T15:13:05Z</time></trkpt><trkpt lat="42.25284139342894" lon="12.73790696786673"><ele>221.0</ele><time>2026-03-22T15:13:06Z</time></trkpt><trkpt lat="42.25282123877008" lon="12.738080367450754"><ele>219.0</ele><time>2026-03-22T15:13:07Z</time></trkpt><trkpt lat="42.25277886726784" lon="12.73824006162028"><ele>217.0</ele><time>2026-03-22T15:13:08Z</time></trkpt><trkpt lat="42.25275341492053" lon="12.73837114659194"><ele>215.0</ele><time>2026-03-22T15:13:09Z</time></trkpt><trkpt lat="42.252731784854575" lon="12.738497579440324"><ele>215.50000000000003</ele><time>2026-03-22T15:13:10Z</time></trkpt><trkpt lat="42.252698650368735" lon="12.738592696393367"><ele>216.0</ele><time>2026-03-22T15:13:11Z</time></trkpt><trkpt lat="42.2526795578583" lon="12.738690465580893"><ele>216.5</ele><time>2026-03-22T15:13:12Z</time></trkpt><trkpt lat="42.25257902920908" lon="12.738722515278123"><ele>217.0</ele><time>2026-03-22T15:13:13Z</time></trkpt><trkpt lat="42.252510842547" lon="12.738779453227558"><ele>217.50000000000003</ele><time>2026-03-22T15:13:14Z</time></trkpt><trkpt lat="42.25241506198502" lon="12.738835280031823"><ele>218.0</ele><time>2026-03-22T15:13:15Z</time></trkpt><trkpt lat="42.25229756039165" lon="12.738877769014568"><ele>214.75</ele><time>2026-03-22T15:13:16Z</time></trkpt><trkpt lat="42.252151691734426" lon="12.738866648217234"><ele>211.5</ele><time>2026-03-22T15:13:17Z</time></trkpt><trkpt lat="42.25202208745344" lon="12.738921661005477"><ele>208.25</ele><time>2026-03-22T15:13:18Z</time></trkpt><trkpt lat="42.25189527187729" lon="12.738967671010078"><ele>205.0</ele><time>2026-03-22T15:13:19Z</time></trkpt><trkpt lat="42.25177007136555" lon="12.73900411239478"><ele>205.0</ele><time>2026-03-22T15:13:20Z</time></trkpt><trkpt lat="42.25164443778852" lon="12.73903419092101"><ele>205.0</ele><time>2026-03-22T15:13:21Z</time></trkpt><trkpt lat="42.25152068731716" lon="12.739062686927312"><ele>205.0</ele><time>2026-03-22T15:13:22Z</time></trkpt><trkpt lat="42.2514142092041" lon="12.739085705256805"><ele>205.0</ele><time>2026-03-22T15:13:23Z</time></trkpt><trkpt lat="42.251314100099115" lon="12.739107391495661"><ele>202.49999999999997</ele><time>2026-03-22T15:13:24Z</time></trkpt><trkpt lat="42.25122523261835" lon="12.73913561414709"><ele>200.0</ele><time>2026-03-22T15:13:25Z</time></trkpt><trkpt lat="42.251161206931535" lon="12.739158711143439"><ele>197.5</ele><time>2026-03-22T15:13:26Z</time></trkpt><trkpt lat="42.25107065267795" lon="12.739248345086494"><ele>195.0</ele><time>2026-03-22T15:13:28Z</time></trkpt><trkpt lat="42.25106506769595" lon="12.739364191797765"><ele>192.5</ele><time>2026-03-22T15:13:29Z</time></trkpt><trkpt lat="42.25110695152515" lon="12.739476217003586"><ele>190.0</ele><time>2026-03-22T15:13:30Z</time></trkpt><trkpt lat="42.25113117949102" lon="12.739606651996905"><ele>189.8</ele><time>2026-03-22T15:13:31Z</time></trkpt><trkpt lat="42.25116825578908" lon="12.739740516866265"><ele>189.6</ele><time>2026-03-22T15:13:32Z</time></trkpt><trkpt lat="42.25120997876982" lon="12.739833364443824"><ele>189.39999999999998</ele><time>2026-03-22T15:13:33Z</time></trkpt><trkpt lat="42.25120064348641" lon="12.739955241578684"><ele>189.2</ele><time>2026-03-22T15:13:35Z</time></trkpt><trkpt lat="42.251102851946364" lon="12.73992408188938"><ele>189.0</ele><time>2026-03-22T15:13:37Z</time></trkpt><trkpt lat="42.250999663351784" lon="12.73976819952769"><ele>189.0</ele><time>2026-03-22T15:13:39Z</time></trkpt><trkpt lat="42.25093591092236" lon="12.739648661674433"><ele>189.0</ele><time>2026-03-22T15:13:40Z</time></trkpt><trkpt lat="42.25086444480882" lon="12.739519584985299"><ele>189.0</ele><time>2026-03-22T15:13:41Z</time></trkpt><trkpt lat="42.250813197888974" lon="12.739365507048932"><ele>189.0</ele><time>2026-03-22T15:13:42Z</time></trkpt><trkpt lat="42.25076264602472" lon="12.739197844522211"><ele>189.33333333333334</ele><time>2026-03-22T15:13:43Z</time></trkpt><trkpt lat="42.250698011203696" lon="12.739024146555492"><ele>189.66666666666669</ele><time>2026-03-22T15:13:44Z</time></trkpt><trkpt lat="42.250639190392825" lon="12.73883873630324"><ele>190.0</ele><time>2026-03-22T15:13:45Z</time></trkpt><trkpt lat="42.25057355498028" lon="12.738620953893246"><ele>185.66666666666669</ele><time>2026-03-22T15:13:46Z</time></trkpt><trkpt lat="42.250486686778146" lon="12.738393473416622"><ele>181.33333333333334</ele><time>2026-03-22T15:13:47Z</time></trkpt><trkpt lat="42.250395549547626" lon="12.73819791384834"><ele>177.0</ele><time>2026-03-22T15:13:48Z</time></trkpt><trkpt lat="42.25034516094227" lon="12.73801458911716"><ele>177.0</ele><time>2026-03-22T15:13:49Z</time></trkpt><trkpt lat="42.25029489321385" lon="12.737870956963176"><ele>177.0</ele><time>2026-03-22T15:13:50Z</time></trkpt><trkpt lat="42.2502199779671" lon="12.737763714139048"><ele>177.0</ele><time>2026-03-22T15:13:51Z</time></trkpt><trkpt lat="42.250143232834525" lon="12.737641780072682"><ele>177.0</ele><time>2026-03-22T15:13:52Z</time></trkpt><trkpt lat="42.25009426177267" lon="12.737530791324073"><ele>177.0</ele><time>2026-03-22T15:13:53Z</time></trkpt><trkpt lat="42.250077982777476" lon="12.737424530000032"><ele>175.75</ele><time>2026-03-22T15:13:54Z</time></trkpt><trkpt lat="42.25006652141237" lon="12.737292495175057"><ele>174.5</ele><time>2026-03-22T15:13:55Z</time></trkpt><trkpt lat="42.2500520083583" lon="12.737132514088891"><ele>173.25</ele><time>2026-03-22T15:13:56Z</time></trkpt><trkpt lat="42.25002809390003" lon="12.7369622803916"><ele>172.0</ele><time>2026-03-22T15:13:57Z</time></trkpt><trkpt lat="42.25001510555743" lon="12.736787185357834"><ele>172.0</ele><time>2026-03-22T15:13:58Z</time></trkpt><trkpt lat="42.250003795083465" lon="12.736627568079603"><ele>172.0</ele><time>2026-03-22T15:13:59Z</time></trkpt><trkpt lat="42.24994061665801" lon="12.736470398544185"><ele>172.0</ele><time>2026-03-22T15:14:00Z</time></trkpt><trkpt lat="42.249882018067765" lon="12.736300587484703"><ele>172.0</ele><time>2026-03-22T15:14:01Z</time></trkpt><trkpt lat="42.24982108390639" lon="12.73613109744624"><ele>168.75</ele><time>2026-03-22T15:14:02Z</time></trkpt><trkpt lat="42.249758213053596" lon="12.735956954004962"><ele>165.5</ele><time>2026-03-22T15:14:03Z</time></trkpt><trkpt lat="42.2496946815172" lon="12.735794016217248"><ele>162.25</ele><time>2026-03-22T15:14:04Z</time></trkpt><trkpt lat="42.24963842888215" lon="12.735625731449495"><ele>159.0</ele><time>2026-03-22T15:14:05Z</time></trkpt><trkpt lat="42.2495907653486" lon="12.735457812761737"><ele>159.0</ele><time>2026-03-22T15:14:06Z</time></trkpt><trkpt lat="42.249554530171096" lon="12.735313567164336"><ele>159.0</ele><time>2026-03-22T15:14:07Z</time></trkpt><trkpt lat="42.24951968082894" lon="12.735182463137159"><ele>159.0</ele><time>2026-03-22T15:14:08Z</time></trkpt><trkpt lat="42.24948050404811" lon="12.735057297497594"><ele>159.0</ele><time>2026-03-22T15:14:09Z</time></trkpt><trkpt lat="42.249436565121215" lon="12.734938364385485"><ele>159.0</ele><time>2026-03-22T15:14:10Z</time></trkpt><trkpt lat="42.2493891843439" lon="12.734835953803547"><ele>158.66666666666666</ele><time>2026-03-22T15:14:11Z</time></trkpt><trkpt lat="42.24933119455947" lon="12.734766892986023"><ele>158.33333333333334</ele><time>2026-03-22T15:14:12Z</time></trkpt><trkpt lat="42.249269503142" lon="12.734710382020994"><ele>158.0</ele><time>2026-03-22T15:14:13Z</time></trkpt><trkpt lat="42.24921714990861" lon="12.734660346152"><ele>157.66666666666669</ele><time>2026-03-22T15:14:14Z</time></trkpt><trkpt lat="42.24912428371946" lon="12.734607191666187"><ele>157.33333333333334</ele><time>2026-03-22T15:14:16Z</time></trkpt><trkpt lat="42.249057144553106" lon="12.734564213994808"><ele>157.0</ele><time>2026-03-22T15:14:17Z</time></trkpt><trkpt lat="42.24898005314752" lon="12.73448917011429"><ele>155.2</ele><time>2026-03-22T15:14:18Z</time></trkpt><trkpt lat="42.24890728264615" lon="12.734380083106556"><ele>153.39999999999998</ele><time>2026-03-22T15:14:19Z</time></trkpt><trkpt lat="42.248828919686595" lon="12.734260143783716"><ele>151.60000000000002</ele><time>2026-03-22T15:14:20Z</time></trkpt><trkpt lat="42.24874629046522" lon="12.734146862902078"><ele>149.8</ele><time>2026-03-22T15:14:21Z</time></trkpt><trkpt lat="42.248667480717856" lon="12.734057138731522"><ele>148.0</ele><time>2026-03-22T15:14:22Z</time></trkpt><trkpt lat="42.24859957670662" lon="12.733974180900276"><ele>148.0</ele><time>2026-03-22T15:14:23Z</time></trkpt><trkpt lat="42.24853817610974" lon="12.733885032600138"><ele>148.0</ele><time>2026-03-22T15:14:24Z</time></trkpt><trkpt lat="42.24846833750841" lon="12.733802596286894"><ele>148.0</ele><time>2026-03-22T15:14:25Z</time></trkpt><trkpt lat="42.248365889275334" lon="12.733737311640308"><ele>148.0</ele><time>2026-03-22T15:14:26Z</time></trkpt><trkpt lat="42.24825012204802" lon="12.733675221697396"><ele>148.0</ele><time>2026-03-22T15:14:27Z</time></trkpt><trkpt lat="42.24814578506958" lon="12.733626149757425"><ele>147.6</ele><time>2026-03-22T15:14:28Z</time></trkpt><trkpt lat="42.248070584224486" lon="12.733564206293021"><ele>147.20000000000002</ele><time>2026-03-22T15:14:29Z</time></trkpt><trkpt lat="42.24800187495983" lon="12.733478640023117"><ele>146.8</ele><time>2026-03-22T15:14:30Z</time></trkpt><trkpt lat="42.24794121186113" lon="12.733372370981922"><ele>146.4</ele><time>2026-03-22T15:14:31Z</time></trkpt><trkpt lat="42.24790344180072" lon="12.733243313098066"><ele>146.0</ele><time>2026-03-22T15:14:32Z</time></trkpt><trkpt lat="42.24787364286376" lon="12.733092279872265"><ele>146.0</ele><time>2026-03-22T15:14:33Z</time></trkpt><trkpt lat="42.24784882691388" lon="12.732915219345323"><ele>146.0</ele><time>2026-03-22T15:14:34Z</time></trkpt><trkpt lat="42.24783012497553" lon="12.732735558115069"><ele>146.0</ele><time>2026-03-22T15:14:35Z</time></trkpt><trkpt lat="42.24781597809759" lon="12.732586146764644"><ele>146.0</ele><time>2026-03-22T15:14:36Z</time></trkpt><trkpt lat="42.24779205387176" lon="12.732458113556751"><ele>144.6</ele><time>2026-03-22T15:14:37Z</time></trkpt><trkpt lat="42.24775859636016" lon="12.732362770315735"><ele>143.2</ele><time>2026-03-22T15:14:38Z</time></trkpt><trkpt lat="42.24770901310269" lon="12.732291489206247"><ele>141.8</ele><time>2026-03-22T15:14:39Z</time></trkpt><trkpt lat="42.247635217790894" lon="12.732216635319059"><ele>140.4</ele><time>2026-03-22T15:14:40Z</time></trkpt><trkpt lat="42.247551927936" lon="12.732147590490815"><ele>139.0</ele><time>2026-03-22T15:14:41Z</time></trkpt><trkpt lat="42.24745865617431" lon="12.73205907916488"><ele>139.0</ele><time>2026-03-22T15:14:42Z</time></trkpt><trkpt lat="42.24736870561291" lon="12.731976177586372"><ele>139.0</ele><time>2026-03-22T15:14:43Z</time></trkpt><trkpt lat="42.24729840613005" lon="12.731933206567525"><ele>139.0</ele><time>2026-03-22T15:14:44Z</time></trkpt><trkpt lat="42.24719382161962" lon="12.731979222285862"><ele>139.0</ele><time>2026-03-22T15:14:46Z</time></trkpt><trkpt lat="42.24713473479997" lon="12.732103629347401"><ele>139.0</ele><time>2026-03-22T15:14:48Z</time></trkpt><trkpt lat="42.24707846008162" lon="12.732001253167102"><ele>139.0</ele><time>2026-03-22T15:14:51Z</time></trkpt><trkpt lat="42.24714918765036" lon="12.731883649973202"><ele>139.0</ele><time>2026-03-22T15:14:53Z</time></trkpt><trkpt lat="42.24722902618221" lon="12.731827005361133"><ele>139.0</ele><time>2026-03-22T15:14:54Z</time></trkpt><trkpt lat="42.24730560488327" lon="12.731767003796808"><ele>139.0</ele><time>2026-03-22T15:14:55Z</time></trkpt><trkpt lat="42.2473342043368" lon="12.731659303284305"><ele>139.0</ele><time>2026-03-22T15:14:57Z</time></trkpt><trkpt lat="42.2472518260467" lon="12.731611567917897"><ele>139.0</ele><time>2026-03-22T15:28:29Z</time></trkpt><trkpt lat="42.24717626034424" lon="12.7315881565303"><ele>139.0</ele><time>2026-03-22T15:28:30Z</time></trkpt><trkpt lat="42.247075884391805" lon="12.731574502265921"><ele>139.0</ele><time>2026-03-22T15:28:31Z</time></trkpt><trkpt lat="42.246983651442065" lon="12.731531823725032"><ele>139.0</ele><time>2026-03-22T15:28:32Z</time></trkpt><trkpt lat="42.24691337626796" lon="12.731511631487972"><ele>139.0</ele><time>2026-03-22T15:28:33Z</time></trkpt><trkpt lat="42.246841583400084" lon="12.731465247491908"><ele>139.0</ele><time>2026-03-22T15:28:34Z</time></trkpt><trkpt lat="42.24674159051896" lon="12.731400853365624"><ele>139.0</ele><time>2026-03-22T15:28:36Z</time></trkpt><trkpt lat="42.24667926582108" lon="12.731294804867366"><ele>139.0</ele><time>2026-03-22T15:28:38Z</time></trkpt><trkpt lat="42.246649115595304" lon="12.73121858031466"><ele>139.0</ele><time>2026-03-22T15:28:40Z</time></trkpt><trkpt lat="42.246623119125864" lon="12.731124492405828"><ele>139.0</ele><time>2026-03-22T15:28:50Z</time></trkpt><trkpt lat="42.24654718311633" lon="12.7310951449483"><ele>139.0</ele><time>2026-03-22T15:28:54Z</time></trkpt><trkpt lat="42.246490859279284" lon="12.731156699939328"><ele>139.0</ele><time>2026-03-22T15:28:59Z</time></trkpt><trkpt lat="42.24642818005941" lon="12.731204636027144"><ele>139.83333333333334</ele><time>2026-03-22T15:29:01Z</time></trkpt><trkpt lat="42.24635386981564" lon="12.731227586294397"><ele>140.66666666666669</ele><time>2026-03-22T15:29:04Z</time></trkpt><trkpt lat="42.246291072439696" lon="12.731279389984"><ele>141.5</ele><time>2026-03-22T15:29:06Z</time></trkpt><trkpt lat="42.246244351649175" lon="12.731354054570527"><ele>142.33333333333334</ele><time>2026-03-22T15:29:08Z</time></trkpt><trkpt lat="42.246193737450135" lon="12.731428306675184"><ele>143.16666666666666</ele><time>2026-03-22T15:29:10Z</time></trkpt><trkpt lat="42.24613909138453" lon="12.73152248026512"><ele>144.0</ele><time>2026-03-22T15:29:12Z</time></trkpt><trkpt lat="42.24606098661922" lon="12.731588662388521"><ele>144.0</ele><time>2026-03-22T15:29:14Z</time></trkpt><trkpt lat="42.24604764538383" lon="12.731674745454333"><ele>144.0</ele><time>2026-03-22T15:29:16Z</time></trkpt><trkpt lat="42.24602454970109" lon="12.731756237493968"><ele>144.0</ele><time>2026-03-22T15:29:17Z</time></trkpt><trkpt lat="42.24597751053823" lon="12.731896316365459"><ele>144.0</ele><time>2026-03-22T15:29:19Z</time></trkpt><trkpt lat="42.24590571840247" lon="12.732014055676707"><ele>144.0</ele><time>2026-03-22T15:29:21Z</time></trkpt><trkpt lat="42.24584421754874" lon="12.732098195965108"><ele>144.0</ele><time>2026-03-22T15:29:22Z</time></trkpt><trkpt lat="42.24577883707451" lon="12.732163734205198"><ele>145.0</ele><time>2026-03-22T15:29:23Z</time></trkpt><trkpt lat="42.245691673417994" lon="12.732222578014422"><ele>146.0</ele><time>2026-03-22T15:29:25Z</time></trkpt><trkpt lat="42.245618959289686" lon="12.732186364697181"><ele>147.0</ele><time>2026-03-22T15:29:26Z</time></trkpt><trkpt lat="42.24556313675837" lon="12.732142062696484"><ele>148.0</ele><time>2026-03-22T15:29:27Z</time></trkpt><trkpt lat="42.24544669266559" lon="12.732128005473756"><ele>149.0</ele><time>2026-03-22T15:29:29Z</time></trkpt><trkpt lat="42.24537962586635" lon="12.732219392634653"><ele>149.0</ele><time>2026-03-22T15:29:31Z</time></trkpt><trkpt lat="42.24533898085659" lon="12.73235683264509"><ele>149.0</ele><time>2026-03-22T15:29:33Z</time></trkpt><trkpt lat="42.2452927707789" lon="12.732476123224634"><ele>149.0</ele><time>2026-03-22T15:29:35Z</time></trkpt><trkpt lat="42.24519717221994" lon="12.732554517083146"><ele>149.0</ele><time>2026-03-22T15:29:37Z</time></trkpt><trkpt lat="42.24510496970602" lon="12.732615075221213"><ele>149.0</ele><time>2026-03-22T15:29:39Z</time></trkpt><trkpt lat="42.24503365628128" lon="12.732573766307667"><ele>149.0</ele><time>2026-03-22T15:29:41Z</time></trkpt><trkpt lat="42.24508035548009" lon="12.732509443656708"><ele>149.0</ele><time>2026-03-22T15:29:44Z</time></trkpt><trkpt lat="42.24512648521303" lon="12.732409861126774"><ele>149.0</ele><time>2026-03-22T15:29:46Z</time></trkpt><trkpt lat="42.24512984492404" lon="12.732270359049773"><ele>149.0</ele><time>2026-03-22T15:29:48Z</time></trkpt><trkpt lat="42.24510065315725" lon="12.732144284833103"><ele>149.0</ele><time>2026-03-22T15:29:50Z</time></trkpt><trkpt lat="42.24499581314521" lon="12.732083586579776"><ele>149.0</ele><time>2026-03-22T15:29:53Z</time></trkpt><trkpt lat="42.24490110732949" lon="12.732038661266326"><ele>149.0</ele><time>2026-03-22T15:29:55Z</time></trkpt><trkpt lat="42.24477973558416" lon="12.73206246948593"><ele>149.0</ele><time>2026-03-22T15:29:58Z</time></trkpt><trkpt lat="42.244721490484835" lon="12.732135409022131"><ele>149.0</ele><time>2026-03-22T15:30:01Z</time></trkpt><trkpt lat="42.244600637665854" lon="12.732251220332957"><ele>152.0</ele><time>2026-03-22T15:30:02Z</time></trkpt><trkpt lat="42.24455894500378" lon="12.7323351136693"><ele>155.0</ele><time>2026-03-22T15:30:03Z</time></trkpt><trkpt lat="42.244492927225714" lon="12.732450025883471"><ele>158.0</ele><time>2026-03-22T15:30:05Z</time></trkpt><trkpt lat="42.24442575565514" lon="12.732499034536959"><ele>161.0</ele><time>2026-03-22T15:30:06Z</time></trkpt><trkpt lat="42.24436595554146" lon="12.732547248597086"><ele>164.0</ele><time>2026-03-22T15:30:07Z</time></trkpt><trkpt lat="42.2442712671568" lon="12.73261741444741"><ele>167.0</ele><time>2026-03-22T15:30:08Z</time></trkpt><trkpt lat="42.244170850893106" lon="12.732692178475316"><ele>165.66666666666666</ele><time>2026-03-22T15:30:09Z</time></trkpt><trkpt lat="42.244093130574306" lon="12.73275457466883"><ele>164.33333333333331</ele><time>2026-03-22T15:30:10Z</time></trkpt><trkpt lat="42.24401907737972" lon="12.732824576042663"><ele>163.0</ele><time>2026-03-22T15:30:11Z</time></trkpt><trkpt lat="42.24395967106855" lon="12.732898159897518"><ele>161.66666666666666</ele><time>2026-03-22T15:30:12Z</time></trkpt><trkpt lat="42.24389467324273" lon="12.732970249372228"><ele>160.33333333333334</ele><time>2026-03-22T15:30:13Z</time></trkpt><trkpt lat="42.24384455916621" lon="12.733055881464374"><ele>159.0</ele><time>2026-03-22T15:30:14Z</time></trkpt><trkpt lat="42.24380851821743" lon="12.733126699705737"><ele>165.0</ele><time>2026-03-22T15:30:15Z</time></trkpt><trkpt lat="42.24377881308856" lon="12.733203835325435"><ele>171.0</ele><time>2026-03-22T15:30:16Z</time></trkpt><trkpt lat="42.24372470722907" lon="12.733277507615073"><ele>177.0</ele><time>2026-03-22T15:30:18Z</time></trkpt><trkpt lat="42.24363823486803" lon="12.733307117399216"><ele>183.0</ele><time>2026-03-22T15:30:20Z</time></trkpt><trkpt lat="42.24351108908829" lon="12.73320697514563"><ele>189.0</ele><time>2026-03-22T15:30:22Z</time></trkpt><trkpt lat="42.24337565210895" lon="12.733180176177544"><ele>189.0</ele><time>2026-03-22T15:30:24Z</time></trkpt><trkpt lat="42.24326210693311" lon="12.733220751238859"><ele>189.0</ele><time>2026-03-22T15:30:26Z</time></trkpt><trkpt lat="42.24318495999729" lon="12.733214703400607"><ele>189.0</ele><time>2026-03-22T15:30:27Z</time></trkpt><trkpt lat="42.24311098682658" lon="12.733213174398037"><ele>189.0</ele><time>2026-03-22T15:30:28Z</time></trkpt><trkpt lat="42.24303596728789" lon="12.733233797116561"><ele>189.0</ele><time>2026-03-22T15:30:29Z</time></trkpt><trkpt lat="42.24295035875886" lon="12.733249874504788"><ele>189.0</ele><time>2026-03-22T15:30:30Z</time></trkpt><trkpt lat="42.242847954402365" lon="12.733273548281712"><ele>191.2</ele><time>2026-03-22T15:30:31Z</time></trkpt><trkpt lat="42.24275481923116" lon="12.733285747724164"><ele>193.39999999999998</ele><time>2026-03-22T15:30:32Z</time></trkpt><trkpt lat="42.242662587704864" lon="12.733308853725124"><ele>195.6</ele><time>2026-03-22T15:30:33Z</time></trkpt><trkpt lat="42.24257763570926" lon="12.733323554363091"><ele>197.8</ele><time>2026-03-22T15:30:34Z</time></trkpt><trkpt lat="42.24247329989086" lon="12.733358190439263"><ele>200.0</ele><time>2026-03-22T15:30:36Z</time></trkpt><trkpt lat="42.2424229641373" lon="12.733512376160549"><ele>200.6</ele><time>2026-03-22T15:30:38Z</time></trkpt><trkpt lat="42.24240989175986" lon="12.733617869237737"><ele>201.2</ele><time>2026-03-22T15:30:39Z</time></trkpt><trkpt lat="42.24238921758232" lon="12.733746710468"><ele>201.8</ele><time>2026-03-22T15:30:40Z</time></trkpt><trkpt lat="42.242351669078566" lon="12.733880072768738"><ele>202.4</ele><time>2026-03-22T15:30:41Z</time></trkpt><trkpt lat="42.24230570117147" lon="12.733997663500267"><ele>203.0</ele><time>2026-03-22T15:30:42Z</time></trkpt><trkpt lat="42.24224270788413" lon="12.734095869673588"><ele>203.4</ele><time>2026-03-22T15:30:43Z</time></trkpt><trkpt lat="42.242166905570194" lon="12.734215448895704"><ele>203.8</ele><time>2026-03-22T15:30:44Z</time></trkpt><trkpt lat="42.242094057667984" lon="12.734334676470745"><ele>204.2</ele><time>2026-03-22T15:30:45Z</time></trkpt><trkpt lat="42.24203323875013" lon="12.734426681448545"><ele>204.6</ele><time>2026-03-22T15:30:46Z</time></trkpt><trkpt lat="42.241942518273696" lon="12.734506925420776"><ele>205.0</ele><time>2026-03-22T15:30:47Z</time></trkpt><trkpt lat="42.241848205827786" lon="12.734580079644932"><ele>205.16666666666666</ele><time>2026-03-22T15:30:48Z</time></trkpt><trkpt lat="42.24177112577244" lon="12.73466464190701"><ele>205.33333333333331</ele><time>2026-03-22T15:30:49Z</time></trkpt><trkpt lat="42.24172104230119" lon="12.734758107630492"><ele>205.5</ele><time>2026-03-22T15:30:50Z</time></trkpt><trkpt lat="42.2417078444345" lon="12.734876625973545"><ele>205.66666666666669</ele><time>2026-03-22T15:30:51Z</time></trkpt><trkpt lat="42.241721375457004" lon="12.734995044289171"><ele>205.83333333333334</ele><time>2026-03-22T15:30:52Z</time></trkpt><trkpt lat="42.241708048707686" lon="12.735099837258499"><ele>206.0</ele><time>2026-03-22T15:30:53Z</time></trkpt><trkpt lat="42.24166200274273" lon="12.73518229805475"><ele>207.20000000000002</ele><time>2026-03-22T15:30:54Z</time></trkpt><trkpt lat="42.241586053695" lon="12.73524330832169"><ele>208.4</ele><time>2026-03-22T15:30:55Z</time></trkpt><trkpt lat="42.24149166143987" lon="12.73528989679431"><ele>209.6</ele><time>2026-03-22T15:30:56Z</time></trkpt><trkpt lat="42.24138015174656" lon="12.735320724145891"><ele>210.8</ele><time>2026-03-22T15:30:57Z</time></trkpt><trkpt lat="42.241271926229665" lon="12.735351238323059"><ele>212.0</ele><time>2026-03-22T15:30:58Z</time></trkpt><trkpt lat="42.241188584704766" lon="12.73541211388793"><ele>212.0</ele><time>2026-03-22T15:30:59Z</time></trkpt><trkpt lat="42.241131596055865" lon="12.73550009833245"><ele>212.0</ele><time>2026-03-22T15:31:00Z</time></trkpt><trkpt lat="42.2410817682181" lon="12.735615421306095"><ele>212.0</ele><time>2026-03-22T15:31:01Z</time></trkpt><trkpt lat="42.24103820197892" lon="12.735766217962196"><ele>212.0</ele><time>2026-03-22T15:31:02Z</time></trkpt><trkpt lat="42.240996936400144" lon="12.735939156033997"><ele>212.0</ele><time>2026-03-22T15:31:03Z</time></trkpt><trkpt lat="42.24094155643779" lon="12.736131136563106"><ele>213.0</ele><time>2026-03-22T15:31:04Z</time></trkpt><trkpt lat="42.240826994749675" lon="12.736269626610204"><ele>214.0</ele><time>2026-03-22T15:31:05Z</time></trkpt><trkpt lat="42.24075803154182" lon="12.73645799241623"><ele>215.0</ele><time>2026-03-22T15:31:06Z</time></trkpt><trkpt lat="42.24072187131599" lon="12.7366568584356"><ele>215.0</ele><time>2026-03-22T15:31:07Z</time></trkpt><trkpt lat="42.24069178046319" lon="12.736852155439955"><ele>215.0</ele><time>2026-03-22T15:31:08Z</time></trkpt><trkpt lat="42.24063525570731" lon="12.737035590234914"><ele>215.0</ele><time>2026-03-22T15:31:09Z</time></trkpt><trkpt lat="42.240571797984124" lon="12.737231854389453"><ele>218.75</ele><time>2026-03-22T15:31:10Z</time></trkpt><trkpt lat="42.2405086403209" lon="12.737414463493739"><ele>222.5</ele><time>2026-03-22T15:31:11Z</time></trkpt><trkpt lat="42.24044499843387" lon="12.737576995104279"><ele>226.25</ele><time>2026-03-22T15:31:12Z</time></trkpt><trkpt lat="42.24037922834555" lon="12.737688908009382"><ele>230.0</ele><time>2026-03-22T15:31:13Z</time></trkpt><trkpt lat="42.24032028613021" lon="12.73772109886423"><ele>230.00000000000003</ele><time>2026-03-22T15:31:15Z</time></trkpt><trkpt lat="42.24027310040783" lon="12.737640194401859"><ele>230.0</ele><time>2026-03-22T15:31:18Z</time></trkpt><trkpt lat="42.24019612438276" lon="12.737601257232292"><ele>230.0</ele><time>2026-03-22T15:31:21Z</time></trkpt><trkpt lat="42.24012863319691" lon="12.73758270055769"><ele>230.0</ele><time>2026-03-22T15:31:22Z</time></trkpt><trkpt lat="42.240060792677944" lon="12.737569102225612"><ele>230.00000000000003</ele><time>2026-03-22T15:31:23Z</time></trkpt><trkpt lat="42.239981260153755" lon="12.737557468150085"><ele>230.0</ele><time>2026-03-22T15:31:24Z</time></trkpt><trkpt lat="42.239885013015474" lon="12.737548698089148"><ele>230.0</ele><time>2026-03-22T15:31:25Z</time></trkpt><trkpt lat="42.23981433648207" lon="12.737556287525155"><ele>230.0</ele><time>2026-03-22T15:31:26Z</time></trkpt><trkpt lat="42.23970192789188" lon="12.737568475791482"><ele>230.0</ele><time>2026-03-22T15:31:28Z</time></trkpt><trkpt lat="42.23962551947538" lon="12.73753386729724"><ele>230.0</ele><time>2026-03-22T15:31:29Z</time></trkpt><trkpt lat="42.23953390483164" lon="12.737433934824972"><ele>230.0</ele><time>2026-03-22T15:31:30Z</time></trkpt><trkpt lat="42.23947127871752" lon="12.737304974081917"><ele>230.0</ele><time>2026-03-22T15:31:31Z</time></trkpt><trkpt lat="42.23942043141294" lon="12.737197180273832"><ele>230.0</ele><time>2026-03-22T15:31:32Z</time></trkpt><trkpt lat="42.239380282380885" lon="12.737098175341194"><ele>230.0</ele><time>2026-03-22T15:31:33Z</time></trkpt><trkpt lat="42.23933997403221" lon="12.736943726464407"><ele>230.0</ele><time>2026-03-22T15:31:34Z</time></trkpt><trkpt lat="42.23932055968504" lon="12.736830278838"><ele>230.0</ele><time>2026-03-22T15:31:35Z</time></trkpt><trkpt lat="42.239326854388736" lon="12.736704925455665"><ele>229.8</ele><time>2026-03-22T15:31:36Z</time></trkpt><trkpt lat="42.2393334441499" lon="12.736608175333906"><ele>229.6</ele><time>2026-03-22T15:31:37Z</time></trkpt><trkpt lat="42.23935634384467" lon="12.736463599730008"><ele>229.39999999999998</ele><time>2026-03-22T15:31:38Z</time></trkpt><trkpt lat="42.239380344118366" lon="12.736326793019789"><ele>229.2</ele><time>2026-03-22T15:31:39Z</time></trkpt><trkpt lat="42.23942554550555" lon="12.736170406666963"><ele>229.0</ele><time>2026-03-22T15:31:40Z</time></trkpt><trkpt lat="42.23946957671348" lon="12.73604668501142"><ele>230.6</ele><time>2026-03-22T15:31:41Z</time></trkpt><trkpt lat="42.239516242885855" lon="12.735930657765278"><ele>232.2</ele><time>2026-03-22T15:31:42Z</time></trkpt><trkpt lat="42.239550639468725" lon="12.735833084054937"><ele>233.79999999999998</ele><time>2026-03-22T15:31:43Z</time></trkpt><trkpt lat="42.23962163663005" lon="12.735730909000072"><ele>235.39999999999998</ele><time>2026-03-22T15:31:44Z</time></trkpt><trkpt lat="42.239664612353764" lon="12.735572287770195"><ele>237.0</ele><time>2026-03-22T15:31:45Z</time></trkpt><trkpt lat="42.23967708230446" lon="12.735382918793526"><ele>237.0</ele><time>2026-03-22T15:31:46Z</time></trkpt><trkpt lat="42.23967462101389" lon="12.735223018846268"><ele>237.0</ele><time>2026-03-22T15:31:47Z</time></trkpt><trkpt lat="42.23965974441358" lon="12.734996568195463"><ele>237.0</ele><time>2026-03-22T15:31:48Z</time></trkpt><trkpt lat="42.239642971755785" lon="12.7347886024063"><ele>237.0</ele><time>2026-03-22T15:31:49Z</time></trkpt><trkpt lat="42.23962699303019" lon="12.734610088271166"><ele>240.25</ele><time>2026-03-22T15:31:50Z</time></trkpt><trkpt lat="42.23960317435433" lon="12.73444118490301"><ele>243.5</ele><time>2026-03-22T15:31:51Z</time></trkpt><trkpt lat="42.239582458480825" lon="12.734273443835267"><ele>246.75</ele><time>2026-03-22T15:31:52Z</time></trkpt><trkpt lat="42.23956785526685" lon="12.734109759341457"><ele>250.0</ele><time>2026-03-22T15:31:53Z</time></trkpt><trkpt lat="42.239520574878355" lon="12.733958739535037"><ele>252.0</ele><time>2026-03-22T15:31:54Z</time></trkpt><trkpt lat="42.23947097065436" lon="12.73380327181076"><ele>254.0</ele><time>2026-03-22T15:31:55Z</time></trkpt><trkpt lat="42.23944818698635" lon="12.733648394499841"><ele>256.0</ele><time>2026-03-22T15:31:56Z</time></trkpt><trkpt lat="42.23942851218014" lon="12.73348821258942"><ele>258.0</ele><time>2026-03-22T15:31:57Z</time></trkpt><trkpt lat="42.2393858628243" lon="12.733318990370682"><ele>258.0</ele><time>2026-03-22T15:31:58Z</time></trkpt><trkpt lat="42.23933215437081" lon="12.733159289116347"><ele>258.0</ele><time>2026-03-22T15:31:59Z</time></trkpt><trkpt lat="42.23925716600597" lon="12.732972418539404"><ele>258.0</ele><time>2026-03-22T15:32:00Z</time></trkpt><trkpt lat="42.239161130968874" lon="12.732795595081113"><ele>256.75</ele><time>2026-03-22T15:32:01Z</time></trkpt><trkpt lat="42.23909434292278" lon="12.732613917034202"><ele>255.5</ele><time>2026-03-22T15:32:02Z</time></trkpt><trkpt lat="42.239058673821056" lon="12.732422199226308"><ele>254.25</ele><time>2026-03-22T15:32:03Z</time></trkpt><trkpt lat="42.239013508166025" lon="12.732245889888304"><ele>253.0</ele><time>2026-03-22T15:32:04Z</time></trkpt><trkpt lat="42.238970620567315" lon="12.732064093346507"><ele>257.75</ele><time>2026-03-22T15:32:05Z</time></trkpt><trkpt lat="42.23893682785299" lon="12.7318906984017"><ele>262.5</ele><time>2026-03-22T15:32:06Z</time></trkpt><trkpt lat="42.23891688640281" lon="12.731707513697616"><ele>267.25</ele><time>2026-03-22T15:32:07Z</time></trkpt><trkpt lat="42.23891393912874" lon="12.731534976215041"><ele>272.0</ele><time>2026-03-22T15:32:08Z</time></trkpt><trkpt lat="42.23890758266596" lon="12.731382428904057"><ele>272.0</ele><time>2026-03-22T15:32:09Z</time></trkpt><trkpt lat="42.2389202122767" lon="12.731277626726955"><ele>272.0</ele><time>2026-03-22T15:32:10Z</time></trkpt><trkpt lat="42.23891804152455" lon="12.731174526146452"><ele>272.0</ele><time>2026-03-22T15:32:11Z</time></trkpt><trkpt lat="42.23891876444149" lon="12.73105497032874"><ele>272.0</ele><time>2026-03-22T15:32:13Z</time></trkpt><trkpt lat="42.23874022700754" lon="12.730987486440021"><ele>272.0</ele><time>2026-03-22T15:32:16Z</time></trkpt><trkpt lat="42.238675820373004" lon="12.730971895397042"><ele>271.2</ele><time>2026-03-22T15:32:17Z</time></trkpt><trkpt lat="42.238602574263815" lon="12.730988035518497"><ele>270.4</ele><time>2026-03-22T15:32:18Z</time></trkpt><trkpt lat="42.23850855949121" lon="12.731009108203544"><ele>269.6</ele><time>2026-03-22T15:32:20Z</time></trkpt><trkpt lat="42.23839778809662" lon="12.730939308942569"><ele>268.8</ele><time>2026-03-22T15:32:22Z</time></trkpt><trkpt lat="42.2383117074658" lon="12.73092823081148"><ele>268.0</ele><time>2026-03-22T15:32:23Z</time></trkpt><trkpt lat="42.238208158644404" lon="12.730901959416295"><ele>266.25</ele><time>2026-03-22T15:32:24Z</time></trkpt><trkpt lat="42.23809275623885" lon="12.730850371581568"><ele>264.5</ele><time>2026-03-22T15:32:25Z</time></trkpt><trkpt lat="42.2379712693864" lon="12.73081431452169"><ele>262.75</ele><time>2026-03-22T15:32:26Z</time></trkpt><trkpt lat="42.23784488355525" lon="12.730768660462866"><ele>261.0</ele><time>2026-03-22T15:32:27Z</time></trkpt><trkpt lat="42.23770699080357" lon="12.730711666357022"><ele>261.0</ele><time>2026-03-22T15:32:28Z</time></trkpt><trkpt lat="42.2375811169982" lon="12.730654971205887"><ele>261.0</ele><time>2026-03-22T15:32:29Z</time></trkpt><trkpt lat="42.237475909633005" lon="12.730605743520222"><ele>261.0</ele><time>2026-03-22T15:32:30Z</time></trkpt><trkpt lat="42.23736960533958" lon="12.73055260048566"><ele>261.0</ele><time>2026-03-22T15:32:31Z</time></trkpt><trkpt lat="42.23727771604871" lon="12.730495920442323"><ele>258.40000000000003</ele><time>2026-03-22T15:32:32Z</time></trkpt><trkpt lat="42.23721339749893" lon="12.730452675306164"><ele>255.8</ele><time>2026-03-22T15:32:33Z</time></trkpt><trkpt lat="42.23708582734138" lon="12.73040610209283"><ele>253.20000000000002</ele><time>2026-03-22T15:32:35Z</time></trkpt><trkpt lat="42.23701133107826" lon="12.730430708301453"><ele>250.60000000000002</ele><time>2026-03-22T15:32:36Z</time></trkpt><trkpt lat="42.23695126659993" lon="12.730520078224224"><ele>248.0</ele><time>2026-03-22T15:32:37Z</time></trkpt><trkpt lat="42.23689208034811" lon="12.7306093521497"><ele>248.0</ele><time>2026-03-22T15:32:38Z</time></trkpt><trkpt lat="42.23680837312254" lon="12.730751212956122"><ele>248.0</ele><time>2026-03-22T15:32:39Z</time></trkpt><trkpt lat="42.236730905527864" lon="12.73082718964001"><ele>248.0</ele><time>2026-03-22T15:32:40Z</time></trkpt><trkpt lat="42.23665117301059" lon="12.73087162171977"><ele>248.0</ele><time>2026-03-22T15:32:41Z</time></trkpt><trkpt lat="42.23654946838501" lon="12.730919545754109"><ele>248.0</ele><time>2026-03-22T15:32:42Z</time></trkpt><trkpt lat="42.2364390550735" lon="12.730954270820835"><ele>247.8</ele><time>2026-03-22T15:32:43Z</time></trkpt><trkpt lat="42.23632593315135" lon="12.730991079858464"><ele>247.60000000000002</ele><time>2026-03-22T15:32:44Z</time></trkpt><trkpt lat="42.23620649588582" lon="12.731029944433361"><ele>247.39999999999998</ele><time>2026-03-22T15:32:45Z</time></trkpt><trkpt lat="42.23611237515952" lon="12.73104701243229"><ele>247.2</ele><time>2026-03-22T15:32:46Z</time></trkpt><trkpt lat="42.23600708931415" lon="12.731065892045013"><ele>247.0</ele><time>2026-03-22T15:32:47Z</time></trkpt><trkpt lat="42.23592212297409" lon="12.73107565888217"><ele>247.0</ele><time>2026-03-22T15:32:48Z</time></trkpt><trkpt lat="42.235842186714095" lon="12.73108418657146"><ele>247.0</ele><time>2026-03-22T15:32:49Z</time></trkpt><trkpt lat="42.23574180288461" lon="12.731080160622186"><ele>247.0</ele><time>2026-03-22T15:32:50Z</time></trkpt><trkpt lat="42.235646223285876" lon="12.731065019736393"><ele>247.0</ele><time>2026-03-22T15:32:51Z</time></trkpt><trkpt lat="42.23554637195103" lon="12.731040287698113"><ele>247.0</ele><time>2026-03-22T15:32:52Z</time></trkpt><trkpt lat="42.23545340889302" lon="12.731014962315038"><ele>243.39999999999998</ele><time>2026-03-22T15:32:53Z</time></trkpt><trkpt lat="42.23536168609921" lon="12.730986858716424"><ele>239.79999999999998</ele><time>2026-03-22T15:32:54Z</time></trkpt><trkpt lat="42.23526741291702" lon="12.730955535146999"><ele>236.2</ele><time>2026-03-22T15:32:55Z</time></trkpt><trkpt lat="42.23516194575466" lon="12.730935247438946"><ele>232.6</ele><time>2026-03-22T15:32:56Z</time></trkpt><trkpt lat="42.2350583305532" lon="12.730875164761809"><ele>229.0</ele><time>2026-03-22T15:32:57Z</time></trkpt><trkpt lat="42.23496660550953" lon="12.730836034596983"><ele>229.0</ele><time>2026-03-22T15:32:58Z</time></trkpt><trkpt lat="42.23488972870284" lon="12.730799145502905"><ele>228.99999999999997</ele><time>2026-03-22T15:32:59Z</time></trkpt><trkpt lat="42.23482013230513" lon="12.73075082461222"><ele>228.99999999999997</ele><time>2026-03-22T15:33:00Z</time></trkpt><trkpt lat="42.234749343095466" lon="12.730675303387958"><ele>229.0</ele><time>2026-03-22T15:33:01Z</time></trkpt><trkpt lat="42.23468680761692" lon="12.730571017307362"><ele>229.0</ele><time>2026-03-22T15:33:02Z</time></trkpt><trkpt lat="42.234650258996865" lon="12.73044439763342"><ele>230.75</ele><time>2026-03-22T15:33:03Z</time></trkpt><trkpt lat="42.23459375393863" lon="12.730293032451105"><ele>232.5</ele><time>2026-03-22T15:33:04Z</time></trkpt><trkpt lat="42.234526217277015" lon="12.730149555148696"><ele>234.25</ele><time>2026-03-22T15:33:05Z</time></trkpt><trkpt lat="42.23446045376198" lon="12.73000676837981"><ele>236.0</ele><time>2026-03-22T15:33:06Z</time></trkpt><trkpt lat="42.23443082037107" lon="12.729861562513928"><ele>232.0</ele><time>2026-03-22T15:33:07Z</time></trkpt><trkpt lat="42.2343749428534" lon="12.729710564018475"><ele>228.0</ele><time>2026-03-22T15:33:08Z</time></trkpt><trkpt lat="42.23430596319104" lon="12.729593634654014"><ele>224.0</ele><time>2026-03-22T15:33:09Z</time></trkpt><trkpt lat="42.234231096030776" lon="12.729466554370978"><ele>220.0</ele><time>2026-03-22T15:33:10Z</time></trkpt><trkpt lat="42.23415687187363" lon="12.729386447331557"><ele>216.5</ele><time>2026-03-22T15:33:11Z</time></trkpt><trkpt lat="42.234060793308295" lon="12.729329982352855"><ele>213.0</ele><time>2026-03-22T15:33:12Z</time></trkpt><trkpt lat="42.23394552282412" lon="12.729282511945275"><ele>209.5</ele><time>2026-03-22T15:33:13Z</time></trkpt><trkpt lat="42.23384693019558" lon="12.729219392346367"><ele>206.0</ele><time>2026-03-22T15:33:14Z</time></trkpt><trkpt lat="42.23372828020918" lon="12.729154731290285"><ele>206.0</ele><time>2026-03-22T15:33:15Z</time></trkpt><trkpt lat="42.233660428416094" lon="12.729038494424822"><ele>206.0</ele><time>2026-03-22T15:33:16Z</time></trkpt><trkpt lat="42.233594891199495" lon="12.728932248514614"><ele>206.0</ele><time>2026-03-22T15:33:17Z</time></trkpt><trkpt lat="42.23353868591162" lon="12.728781503828849"><ele>206.0</ele><time>2026-03-22T15:33:18Z</time></trkpt><trkpt lat="42.23347786125298" lon="12.728669181036114"><ele>206.0</ele><time>2026-03-22T15:33:19Z</time></trkpt><trkpt lat="42.23343729872994" lon="12.728590760686478"><ele>201.5</ele><time>2026-03-22T15:33:20Z</time></trkpt><trkpt lat="42.23333052104357" lon="12.728435051293182"><ele>197.0</ele><time>2026-03-22T15:33:21Z</time></trkpt><trkpt lat="42.23321915274886" lon="12.728340155237994"><ele>192.5</ele><time>2026-03-22T15:33:22Z</time></trkpt><trkpt lat="42.23311507483366" lon="12.728277987710761"><ele>188.0</ele><time>2026-03-22T15:33:23Z</time></trkpt><trkpt lat="42.2330097417928" lon="12.72821584232694"><ele>186.75</ele><time>2026-03-22T15:33:24Z</time></trkpt><trkpt lat="42.23290501623854" lon="12.728142930094348"><ele>185.5</ele><time>2026-03-22T15:33:25Z</time></trkpt><trkpt lat="42.23279860064331" lon="12.728039070310151"><ele>184.25</ele><time>2026-03-22T15:33:26Z</time></trkpt><trkpt lat="42.23267265554885" lon="12.7279635850523"><ele>183.0</ele><time>2026-03-22T15:33:27Z</time></trkpt><trkpt lat="42.23254804017108" lon="12.727905007766317"><ele>183.0</ele><time>2026-03-22T15:33:28Z</time></trkpt><trkpt lat="42.232422146852585" lon="12.727846497817547"><ele>183.0</ele><time>2026-03-22T15:33:29Z</time></trkpt><trkpt lat="42.23228378750174" lon="12.727784594824625"><ele>183.0</ele><time>2026-03-22T15:33:30Z</time></trkpt><trkpt lat="42.23217380849975" lon="12.727766605643993"><ele>183.0</ele><time>2026-03-22T15:33:30.999Z</time></trkpt><trkpt lat="42.23203524321578" lon="12.727712660603842"><ele>179.60000000000002</ele><time>2026-03-22T15:33:32Z</time></trkpt><trkpt lat="42.23190798832809" lon="12.7276573405039"><ele>176.20000000000002</ele><time>2026-03-22T15:33:33Z</time></trkpt><trkpt lat="42.231795508188625" lon="12.72762212430741"><ele>172.8</ele><time>2026-03-22T15:33:34Z</time></trkpt><trkpt lat="42.23170829270365" lon="12.727623366916886"><ele>169.4</ele><time>2026-03-22T15:33:35Z</time></trkpt><trkpt lat="42.2316431606207" lon="12.727620775546317"><ele>166.0</ele><time>2026-03-22T15:33:36Z</time></trkpt><trkpt lat="42.23154913464647" lon="12.727576564763082"><ele>164.4</ele><time>2026-03-22T15:33:38Z</time></trkpt><trkpt lat="42.23145599105349" lon="12.727699238295811"><ele>162.8</ele><time>2026-03-22T15:33:39Z</time></trkpt><trkpt lat="42.23137852123844" lon="12.727777440867266"><ele>161.20000000000002</ele><time>2026-03-22T15:33:40Z</time></trkpt><trkpt lat="42.23128689192473" lon="12.727798332875329"><ele>159.60000000000002</ele><time>2026-03-22T15:33:41Z</time></trkpt><trkpt lat="42.23119411298561" lon="12.727814246998445"><ele>158.0</ele><time>2026-03-22T15:33:42Z</time></trkpt><trkpt lat="42.23109341457613" lon="12.727813925116813"><ele>157.6</ele><time>2026-03-22T15:33:43Z</time></trkpt><trkpt lat="42.230985495994474" lon="12.72782723079521"><ele>157.20000000000002</ele><time>2026-03-22T15:33:44Z</time></trkpt><trkpt lat="42.230888686079396" lon="12.727871284280896"><ele>156.8</ele><time>2026-03-22T15:33:45Z</time></trkpt><trkpt lat="42.23082029024012" lon="12.727906393069336"><ele>156.4</ele><time>2026-03-22T15:33:46Z</time></trkpt><trkpt lat="42.23069346468428" lon="12.727879809988956"><ele>156.0</ele><time>2026-03-22T15:33:48Z</time></trkpt><trkpt lat="42.230617843174564" lon="12.727804461185046"><ele>153.25</ele><time>2026-03-22T15:33:49Z</time></trkpt><trkpt lat="42.23051276060974" lon="12.72770125931682"><ele>150.5</ele><time>2026-03-22T15:33:50Z</time></trkpt><trkpt lat="42.23040401418111" lon="12.727611743370504"><ele>147.75</ele><time>2026-03-22T15:33:51Z</time></trkpt><trkpt lat="42.2302838576373" lon="12.727493257596747"><ele>145.0</ele><time>2026-03-22T15:33:52Z</time></trkpt><trkpt lat="42.23015928343395" lon="12.727372044423143"><ele>145.0</ele><time>2026-03-22T15:33:53Z</time></trkpt><trkpt lat="42.23005526896385" lon="12.727239624195716"><ele>145.0</ele><time>2026-03-22T15:33:54Z</time></trkpt><trkpt lat="42.229930004358025" lon="12.727111195306016"><ele>145.0</ele><time>2026-03-22T15:33:55Z</time></trkpt><trkpt lat="42.22979732803941" lon="12.726974437595542"><ele>143.0</ele><time>2026-03-22T15:33:56Z</time></trkpt><trkpt lat="42.22967003442937" lon="12.726842499406018"><ele>141.0</ele><time>2026-03-22T15:33:57Z</time></trkpt><trkpt lat="42.22953340872086" lon="12.72670088832847"><ele>139.0</ele><time>2026-03-22T15:33:58Z</time></trkpt><trkpt lat="42.22939987208964" lon="12.726562479369274"><ele>139.0</ele><time>2026-03-22T15:33:59Z</time></trkpt><trkpt lat="42.2292524532096" lon="12.726411629527991"><ele>139.0</ele><time>2026-03-22T15:34:00Z</time></trkpt><trkpt lat="42.22910855131324" lon="12.72626535646091"><ele>139.0</ele><time>2026-03-22T15:34:01Z</time></trkpt><trkpt lat="42.22894602686066" lon="12.726126248720922"><ele>136.66666666666669</ele><time>2026-03-22T15:34:02Z</time></trkpt><trkpt lat="42.228793747319614" lon="12.725973405567132"><ele>134.33333333333334</ele><time>2026-03-22T15:34:03Z</time></trkpt><trkpt lat="42.22864694900478" lon="12.725834138209592"><ele>132.0</ele><time>2026-03-22T15:34:04Z</time></trkpt><trkpt lat="42.22850627922116" lon="12.725717334255974"><ele>132.0</ele><time>2026-03-22T15:34:05Z</time></trkpt><trkpt lat="42.22835504999293" lon="12.725601503764782"><ele>132.0</ele><time>2026-03-22T15:34:06Z</time></trkpt><trkpt lat="42.22818808129865" lon="12.725478772169927"><ele>132.0</ele><time>2026-03-22T15:34:07Z</time></trkpt><trkpt lat="42.22801189484568" lon="12.72535750381759"><ele>130.0</ele><time>2026-03-22T15:34:08Z</time></trkpt><trkpt lat="42.22784669379925" lon="12.725245937178023"><ele>128.0</ele><time>2026-03-22T15:34:09Z</time></trkpt><trkpt lat="42.22769153032057" lon="12.72514065260094"><ele>126.0</ele><time>2026-03-22T15:34:10Z</time></trkpt><trkpt lat="42.227546208665025" lon="12.725044724678089"><ele>125.75</ele><time>2026-03-22T15:34:11Z</time></trkpt><trkpt lat="42.22741590585689" lon="12.724934670815298"><ele>125.5</ele><time>2026-03-22T15:34:12Z</time></trkpt><trkpt lat="42.22727558789809" lon="12.724856460740565"><ele>125.25</ele><time>2026-03-22T15:34:13Z</time></trkpt><trkpt lat="42.22716003210579" lon="12.72476867650316"><ele>125.0</ele><time>2026-03-22T15:34:14Z</time></trkpt><trkpt lat="42.227045225881014" lon="12.724681575473326"><ele>124.4</ele><time>2026-03-22T15:34:15Z</time></trkpt><trkpt lat="42.22694489699165" lon="12.724595833981624"><ele>123.8</ele><time>2026-03-22T15:34:16Z</time></trkpt><trkpt lat="42.22685669940015" lon="12.724514875744507"><ele>123.19999999999999</ele><time>2026-03-22T15:34:17Z</time></trkpt><trkpt lat="42.22677485212924" lon="12.724440498068565"><ele>122.6</ele><time>2026-03-22T15:34:18Z</time></trkpt><trkpt lat="42.22670246163924" lon="12.724380678472382"><ele>122.0</ele><time>2026-03-22T15:34:19Z</time></trkpt><trkpt lat="42.22661908142201" lon="12.724407903548435"><ele>121.8</ele><time>2026-03-22T15:34:20Z</time></trkpt><trkpt lat="42.226550292052785" lon="12.724454817629551"><ele>121.6</ele><time>2026-03-22T15:34:21Z</time></trkpt><trkpt lat="42.22645975030203" lon="12.724517263819173"><ele>121.39999999999999</ele><time>2026-03-22T15:34:22Z</time></trkpt><trkpt lat="42.22638416918859" lon="12.724620991500158"><ele>121.19999999999999</ele><time>2026-03-22T15:34:23Z</time></trkpt><trkpt lat="42.22629320084604" lon="12.724726368252101"><ele>121.0</ele><time>2026-03-22T15:34:24Z</time></trkpt><trkpt lat="42.22620133815074" lon="12.724843096500404"><ele>123.25</ele><time>2026-03-22T15:34:25Z</time></trkpt><trkpt lat="42.226152068108924" lon="12.725015270037943"><ele>125.5</ele><time>2026-03-22T15:34:26Z</time></trkpt><trkpt lat="42.22610631253699" lon="12.725195248317535"><ele>127.75</ele><time>2026-03-22T15:34:27Z</time></trkpt><trkpt lat="42.22605052363897" lon="12.725376609854269"><ele>130.0</ele><time>2026-03-22T15:34:28Z</time></trkpt><trkpt lat="42.226006215959394" lon="12.725556224766724"><ele>130.0</ele><time>2026-03-22T15:34:29Z</time></trkpt><trkpt lat="42.22596176646187" lon="12.725724549046255"><ele>130.0</ele><time>2026-03-22T15:34:30Z</time></trkpt><trkpt lat="42.22589242226707" lon="12.72585644026422"><ele>130.0</ele><time>2026-03-22T15:34:31Z</time></trkpt><trkpt lat="42.22581008986436" lon="12.725966380321276"><ele>130.0</ele><time>2026-03-22T15:34:32Z</time></trkpt><trkpt lat="42.225729183170785" lon="12.7260274856092"><ele>132.6</ele><time>2026-03-22T15:34:33Z</time></trkpt><trkpt lat="42.22563932531884" lon="12.726036105586504"><ele>135.2</ele><time>2026-03-22T15:34:34Z</time></trkpt><trkpt lat="42.2255349183868" lon="12.726055256966792"><ele>137.8</ele><time>2026-03-22T15:34:35Z</time></trkpt><trkpt lat="42.22542146908475" lon="12.726075041042076"><ele>140.4</ele><time>2026-03-22T15:34:36Z</time></trkpt><trkpt lat="42.22529623072263" lon="12.726097318753938"><ele>143.0</ele><time>2026-03-22T15:34:37Z</time></trkpt><trkpt lat="42.225168984849105" lon="12.726136556303818"><ele>143.0</ele><time>2026-03-22T15:34:38Z</time></trkpt><trkpt lat="42.22503434747361" lon="12.726196764959658"><ele>143.0</ele><time>2026-03-22T15:34:39Z</time></trkpt><trkpt lat="42.22491399713049" lon="12.72625450060492"><ele>143.0</ele><time>2026-03-22T15:34:40Z</time></trkpt><trkpt lat="42.22479674594257" lon="12.726310052317155"><ele>143.0</ele><time>2026-03-22T15:34:41Z</time></trkpt><trkpt lat="42.22467384755796" lon="12.726370081003239"><ele>143.25</ele><time>2026-03-22T15:34:42Z</time></trkpt><trkpt lat="42.224549147489626" lon="12.72644225966923"><ele>143.5</ele><time>2026-03-22T15:34:43Z</time></trkpt><trkpt lat="42.22444051434136" lon="12.72652451255446"><ele>143.75</ele><time>2026-03-22T15:34:44Z</time></trkpt><trkpt lat="42.224361800213345" lon="12.72666956469285"><ele>144.0</ele><time>2026-03-22T15:34:45Z</time></trkpt><trkpt lat="42.22430388210888" lon="12.72681434849077"><ele>146.0</ele><time>2026-03-22T15:34:46Z</time></trkpt><trkpt lat="42.2242613667109" lon="12.726971569037847"><ele>148.0</ele><time>2026-03-22T15:34:47Z</time></trkpt><trkpt lat="42.22420872184656" lon="12.727139855334059"><ele>150.0</ele><time>2026-03-22T15:34:48Z</time></trkpt><trkpt lat="42.22415624421162" lon="12.727312044769137"><ele>152.0</ele><time>2026-03-22T15:34:49Z</time></trkpt><trkpt lat="42.22409969498984" lon="12.727488217679891"><ele>152.0</ele><time>2026-03-22T15:34:50Z</time></trkpt><trkpt lat="42.22404610458023" lon="12.727631075805597"><ele>152.0</ele><time>2026-03-22T15:34:51Z</time></trkpt><trkpt lat="42.223996024654866" lon="12.72773326601045"><ele>152.0</ele><time>2026-03-22T15:34:52Z</time></trkpt><trkpt lat="42.223908240191285" lon="12.727798614824284"><ele>152.0</ele><time>2026-03-22T15:34:54Z</time></trkpt><trkpt lat="42.22385444477089" lon="12.727719044650575"><ele>152.0</ele><time>2026-03-22T15:34:55Z</time></trkpt><trkpt lat="42.223782928798336" lon="12.72768487855862"><ele>151.0</ele><time>2026-03-22T15:34:56Z</time></trkpt><trkpt lat="42.223716790097" lon="12.72767357169185"><ele>150.0</ele><time>2026-03-22T15:34:57Z</time></trkpt><trkpt lat="42.223619817389135" lon="12.727591923994659"><ele>149.0</ele><time>2026-03-22T15:34:59Z</time></trkpt><trkpt lat="42.22351723531906" lon="12.727562811074538"><ele>148.0</ele><time>2026-03-22T15:35:01Z</time></trkpt><trkpt lat="42.223450635744655" lon="12.72759019155683"><ele>147.0</ele><time>2026-03-22T15:35:02Z</time></trkpt><trkpt lat="42.2233880931356" lon="12.727634058224377"><ele>146.0</ele><time>2026-03-22T15:35:03Z</time></trkpt><trkpt lat="42.22327401618715" lon="12.72771979264998"><ele>146.0</ele><time>2026-03-22T15:35:05Z</time></trkpt><trkpt lat="42.223216802597506" lon="12.72776844686742"><ele>146.0</ele><time>2026-03-22T15:35:06Z</time></trkpt><trkpt lat="42.223142917467555" lon="12.727841174314936"><ele>146.0</ele><time>2026-03-22T15:35:08Z</time></trkpt><trkpt lat="42.22306173321266" lon="12.727811754752674"><ele>146.0</ele><time>2026-03-22T15:35:10Z</time></trkpt><trkpt lat="42.22316742152371" lon="12.72752887885514"><ele>146.0</ele><time>2026-03-22T15:35:13Z</time></trkpt><trkpt lat="42.22317405901484" lon="12.727397437723974"><ele>146.0</ele><time>2026-03-22T15:35:15Z</time></trkpt><trkpt lat="42.223102933484064" lon="12.727306640176167"><ele>146.0</ele><time>2026-03-22T15:35:17Z</time></trkpt><trkpt lat="42.22298952711688" lon="12.727298339308362"><ele>146.0</ele><time>2026-03-22T15:35:18Z</time></trkpt><trkpt lat="42.2228708581686" lon="12.727267042745547"><ele>146.0</ele><time>2026-03-22T15:35:19Z</time></trkpt><trkpt lat="42.222746399110235" lon="12.727232575656974"><ele>143.25</ele><time>2026-03-22T15:35:20Z</time></trkpt><trkpt lat="42.22260873027565" lon="12.727183921999996"><ele>140.5</ele><time>2026-03-22T15:35:21Z</time></trkpt><trkpt lat="42.22247437010101" lon="12.727145809335216"><ele>137.75</ele><time>2026-03-22T15:35:22Z</time></trkpt><trkpt lat="42.22234279861225" lon="12.727089866633367"><ele>135.0</ele><time>2026-03-22T15:35:23Z</time></trkpt><trkpt lat="42.22222526764939" lon="12.727037208585703"><ele>133.8</ele><time>2026-03-22T15:35:24Z</time></trkpt><trkpt lat="42.222111905612586" lon="12.726989358631966"><ele>132.6</ele><time>2026-03-22T15:35:25Z</time></trkpt><trkpt lat="42.222001826826215" lon="12.72694540285524"><ele>131.4</ele><time>2026-03-22T15:35:25.999Z</time></trkpt><trkpt lat="42.22189914296181" lon="12.726893192958215"><ele>130.2</ele><time>2026-03-22T15:35:26.999Z</time></trkpt><trkpt lat="42.22180516595627" lon="12.726839692477151"><ele>129.0</ele><time>2026-03-22T15:35:27.999Z</time></trkpt><trkpt lat="42.22171933362335" lon="12.726790900157267"><ele>128.5</ele><time>2026-03-22T15:35:28.999Z</time></trkpt><trkpt lat="42.221623595605685" lon="12.726759038841243"><ele>128.0</ele><time>2026-03-22T15:35:29.999Z</time></trkpt><trkpt lat="42.221537969482846" lon="12.726754065302613"><ele>127.5</ele><time>2026-03-22T15:35:30.999Z</time></trkpt><trkpt lat="42.221458787281314" lon="12.726768259115603"><ele>127.0</ele><time>2026-03-22T15:35:31.999Z</time></trkpt><trkpt lat="42.221391177637244" lon="12.726781596810184"><ele>126.5</ele><time>2026-03-22T15:35:32.999Z</time></trkpt><trkpt lat="42.221328597470844" lon="12.72679286297217"><ele>126.0</ele><time>2026-03-22T15:35:33.999Z</time></trkpt><trkpt lat="42.221230322100965" lon="12.72684126563198"><ele>125.8</ele><time>2026-03-22T15:35:35.999Z</time></trkpt><trkpt lat="42.2211819341759" lon="12.726897861689048"><ele>125.6</ele><time>2026-03-22T15:35:37Z</time></trkpt><trkpt lat="42.22112174777971" lon="12.726986277554335"><ele>125.4</ele><time>2026-03-22T15:35:38Z</time></trkpt><trkpt lat="42.22105671460101" lon="12.727096107682879"><ele>125.2</ele><time>2026-03-22T15:35:39Z</time></trkpt><trkpt lat="42.220984114118714" lon="12.727243678992394"><ele>125.0</ele><time>2026-03-22T15:35:40Z</time></trkpt><trkpt lat="42.2209094024306" lon="12.727400251925857"><ele>125.0</ele><time>2026-03-22T15:35:41Z</time></trkpt><trkpt lat="42.22083096527877" lon="12.727556128577005"><ele>125.0</ele><time>2026-03-22T15:35:42Z</time></trkpt><trkpt lat="42.2207537203244" lon="12.72771753112166"><ele>125.0</ele><time>2026-03-22T15:35:43Z</time></trkpt><trkpt lat="42.22068983304772" lon="12.72786231511001"><ele>125.0</ele><time>2026-03-22T15:35:44Z</time></trkpt><trkpt lat="42.22065220211209" lon="12.727982578969886"><ele>125.6</ele><time>2026-03-22T15:35:45Z</time></trkpt><trkpt lat="42.22063956099832" lon="12.728101534173241"><ele>126.2</ele><time>2026-03-22T15:35:46Z</time></trkpt><trkpt lat="42.22064406358669" lon="12.728243818243829"><ele>126.80000000000001</ele><time>2026-03-22T15:35:47Z</time></trkpt><trkpt lat="42.2206384230066" lon="12.72841132871394"><ele>127.4</ele><time>2026-03-22T15:35:48Z</time></trkpt><trkpt lat="42.22060424896332" lon="12.728546187985406"><ele>128.0</ele><time>2026-03-22T15:35:49Z</time></trkpt><trkpt lat="42.22053487639742" lon="12.72869389431526"><ele>130.0</ele><time>2026-03-22T15:35:50Z</time></trkpt><trkpt lat="42.22044306620473" lon="12.72885606183771"><ele>132.0</ele><time>2026-03-22T15:35:51Z</time></trkpt><trkpt lat="42.22034363792547" lon="12.729016653847573"><ele>134.0</ele><time>2026-03-22T15:35:52Z</time></trkpt><trkpt lat="42.220229816001485" lon="12.729159805688163"><ele>134.0</ele><time>2026-03-22T15:35:53Z</time></trkpt><trkpt lat="42.220122237817876" lon="12.729313108469885"><ele>134.0</ele><time>2026-03-22T15:35:54Z</time></trkpt><trkpt lat="42.22000904803732" lon="12.729424593669325"><ele>134.0</ele><time>2026-03-22T15:35:55Z</time></trkpt><trkpt lat="42.21986932946991" lon="12.729512144981138"><ele>135.0</ele><time>2026-03-22T15:35:56Z</time></trkpt><trkpt lat="42.219726468603085" lon="12.729592238468735"><ele>136.0</ele><time>2026-03-22T15:35:57Z</time></trkpt><trkpt lat="42.21961695190158" lon="12.7296637586665"><ele>137.0</ele><time>2026-03-22T15:35:58Z</time></trkpt><trkpt lat="42.21953695562951" lon="12.72971262032145"><ele>138.0</ele><time>2026-03-22T15:35:59Z</time></trkpt><trkpt lat="42.21947096156616" lon="12.729779302846655"><ele>139.0</ele><time>2026-03-22T15:36:00Z</time></trkpt><trkpt lat="42.21942230384915" lon="12.729879809933067"><ele>139.0</ele><time>2026-03-22T15:36:01Z</time></trkpt><trkpt lat="42.219356498645624" lon="12.730020598904547"><ele>139.0</ele><time>2026-03-22T15:36:02Z</time></trkpt><trkpt lat="42.21929684043216" lon="12.730137149516562"><ele>139.0</ele><time>2026-03-22T15:36:03Z</time></trkpt><trkpt lat="42.2192505037342" lon="12.730257950544518"><ele>139.0</ele><time>2026-03-22T15:36:04Z</time></trkpt><trkpt lat="42.21921380089235" lon="12.730347669222533"><ele>139.0</ele><time>2026-03-22T15:36:05Z</time></trkpt><trkpt lat="42.219210868296905" lon="12.730450558104721"><ele>138.8</ele><time>2026-03-22T15:36:06Z</time></trkpt><trkpt lat="42.2192215822041" lon="12.730566157748388"><ele>138.60000000000002</ele><time>2026-03-22T15:36:07Z</time></trkpt><trkpt lat="42.21923919301334" lon="12.73069475903258"><ele>138.4</ele><time>2026-03-22T15:36:08Z</time></trkpt><trkpt lat="42.21924662829988" lon="12.730823581068355"><ele>138.20000000000002</ele><time>2026-03-22T15:36:09Z</time></trkpt><trkpt lat="42.21923914288248" lon="12.730949796403252"><ele>138.0</ele><time>2026-03-22T15:36:10Z</time></trkpt><trkpt lat="42.21921089128711" lon="12.731064473126992"><ele>138.83333333333334</ele><time>2026-03-22T15:36:11Z</time></trkpt><trkpt lat="42.21917804487507" lon="12.731162775635818"><ele>139.66666666666666</ele><time>2026-03-22T15:36:12Z</time></trkpt><trkpt lat="42.21913346675366" lon="12.731247423254239"><ele>140.5</ele><time>2026-03-22T15:36:13Z</time></trkpt><trkpt lat="42.21907502451859" lon="12.731349227027309"><ele>141.33333333333331</ele><time>2026-03-22T15:36:15Z</time></trkpt><trkpt lat="42.21904051342819" lon="12.731456944024853"><ele>142.16666666666666</ele><time>2026-03-22T15:36:19Z</time></trkpt><trkpt lat="42.21907062405393" lon="12.73159835231801"><ele>143.0</ele><time>2026-03-22T15:36:23Z</time></trkpt><trkpt lat="42.21906601955102" lon="12.731742397270331"><ele>143.0</ele><time>2026-03-22T15:36:25Z</time></trkpt><trkpt lat="42.21905002522665" lon="12.731882429079997"><ele>143.0</ele><time>2026-03-22T15:36:28Z</time></trkpt><trkpt lat="42.21907207635332" lon="12.731986209629577"><ele>143.0</ele><time>2026-03-22T15:36:30Z</time></trkpt><trkpt lat="42.21907622595694" lon="12.732111713491651"><ele>143.0</ele><time>2026-03-22T15:36:32Z</time></trkpt><trkpt lat="42.219107809825694" lon="12.732301798211845"><ele>143.0</ele><time>2026-03-22T15:36:34Z</time></trkpt><trkpt lat="42.21912141556896" lon="12.732401083752572"><ele>143.16666666666666</ele><time>2026-03-22T15:36:35Z</time></trkpt><trkpt lat="42.219124822640374" lon="12.732491197196975"><ele>143.33333333333331</ele><time>2026-03-22T15:36:36Z</time></trkpt><trkpt lat="42.219066074845685" lon="12.732588400050453"><ele>143.5</ele><time>2026-03-22T15:36:38Z</time></trkpt><trkpt lat="42.219013674540186" lon="12.732650607235135"><ele>143.66666666666666</ele><time>2026-03-22T15:36:40Z</time></trkpt><trkpt lat="42.218923773528935" lon="12.732749790464736"><ele>143.83333333333334</ele><time>2026-03-22T15:36:42Z</time></trkpt><trkpt lat="42.218850408195145" lon="12.732831431320225"><ele>144.0</ele><time>2026-03-22T15:36:44Z</time></trkpt><trkpt lat="42.21880986340444" lon="12.732966821413392"><ele>143.83333333333334</ele><time>2026-03-22T15:36:46Z</time></trkpt><trkpt lat="42.21880864042836" lon="12.733053546814967"><ele>143.66666666666666</ele><time>2026-03-22T15:36:47Z</time></trkpt><trkpt lat="42.218813201023345" lon="12.733164907419335"><ele>143.5</ele><time>2026-03-22T15:36:48Z</time></trkpt><trkpt lat="42.218813375564196" lon="12.73327998513893"><ele>143.33333333333331</ele><time>2026-03-22T15:36:49Z</time></trkpt><trkpt lat="42.21880993783529" lon="12.733392819659066"><ele>143.16666666666666</ele><time>2026-03-22T15:36:50Z</time></trkpt><trkpt lat="42.21880582365167" lon="12.733494713796565"><ele>143.0</ele><time>2026-03-22T15:36:51Z</time></trkpt><trkpt lat="42.218780949979916" lon="12.733609379894292"><ele>143.0</ele><time>2026-03-22T15:36:52Z</time></trkpt><trkpt lat="42.21874403336177" lon="12.73374119317405"><ele>143.0</ele><time>2026-03-22T15:36:53Z</time></trkpt><trkpt lat="42.21870991822094" lon="12.73386168906059"><ele>143.0</ele><time>2026-03-22T15:36:54Z</time></trkpt><trkpt lat="42.21866419078631" lon="12.733985071440578"><ele>143.0</ele><time>2026-03-22T15:36:55Z</time></trkpt><trkpt lat="42.21862783681043" lon="12.734130592391734"><ele>143.0</ele><time>2026-03-22T15:36:56Z</time></trkpt><trkpt lat="42.21858605577486" lon="12.734283212324884"><ele>144.75</ele><time>2026-03-22T15:36:57Z</time></trkpt><trkpt lat="42.218548418871784" lon="12.734451108106924"><ele>146.5</ele><time>2026-03-22T15:36:58Z</time></trkpt><trkpt lat="42.21849133967947" lon="12.734616842949173"><ele>148.25</ele><time>2026-03-22T15:36:59Z</time></trkpt><trkpt lat="42.218430997894956" lon="12.734776345947031"><ele>150.0</ele><time>2026-03-22T15:37:00Z</time></trkpt><trkpt lat="42.21836289009927" lon="12.734923364892863"><ele>150.0</ele><time>2026-03-22T15:37:01Z</time></trkpt><trkpt lat="42.218289053417365" lon="12.735065580517967"><ele>150.0</ele><time>2026-03-22T15:37:02Z</time></trkpt><trkpt lat="42.21820067410381" lon="12.735220858825436"><ele>150.0</ele><time>2026-03-22T15:37:03Z</time></trkpt><trkpt lat="42.21809936662666" lon="12.735383614186238"><ele>150.0</ele><time>2026-03-22T15:37:04Z</time></trkpt><trkpt lat="42.21800747316633" lon="12.735575076891982"><ele>148.66666666666666</ele><time>2026-03-22T15:37:05Z</time></trkpt><trkpt lat="42.217913625573786" lon="12.735775965403814"><ele>147.33333333333331</ele><time>2026-03-22T15:37:06Z</time></trkpt><trkpt lat="42.2178277257252" lon="12.73594638242794"><ele>146.0</ele><time>2026-03-22T15:37:07Z</time></trkpt><trkpt lat="42.21772997879962" lon="12.73609840452941"><ele>148.25</ele><time>2026-03-22T15:37:08Z</time></trkpt><trkpt lat="42.21761594169957" lon="12.736256231982454"><ele>150.5</ele><time>2026-03-22T15:37:09Z</time></trkpt><trkpt lat="42.217523116224804" lon="12.736368293090875"><ele>152.75</ele><time>2026-03-22T15:37:10Z</time></trkpt><trkpt lat="42.21744147783293" lon="12.736461614334322"><ele>155.0</ele><time>2026-03-22T15:37:11Z</time></trkpt><trkpt lat="42.217367356215576" lon="12.736550654463297"><ele>154.2</ele><time>2026-03-22T15:37:12Z</time></trkpt><trkpt lat="42.2173093147674" lon="12.736661851737326"><ele>153.4</ele><time>2026-03-22T15:37:13Z</time></trkpt><trkpt lat="42.21726138804326" lon="12.736792905462744"><ele>152.6</ele><time>2026-03-22T15:37:14Z</time></trkpt><trkpt lat="42.21723345109868" lon="12.736947360902626"><ele>151.8</ele><time>2026-03-22T15:37:15Z</time></trkpt><trkpt lat="42.21721587118766" lon="12.737104324166992"><ele>151.0</ele><time>2026-03-22T15:37:16Z</time></trkpt><trkpt lat="42.217173395720486" lon="12.737217086022314"><ele>151.0</ele><time>2026-03-22T15:37:17Z</time></trkpt><trkpt lat="42.21712835144784" lon="12.737339739046604"><ele>151.0</ele><time>2026-03-22T15:37:18Z</time></trkpt><trkpt lat="42.217061186309834" lon="12.737464780341963"><ele>151.0</ele><time>2026-03-22T15:37:19Z</time></trkpt><trkpt lat="42.21698120770551" lon="12.73760156046062"><ele>151.0</ele><time>2026-03-22T15:37:20Z</time></trkpt><trkpt lat="42.21690502182448" lon="12.737725952506867"><ele>152.0</ele><time>2026-03-22T15:37:21Z</time></trkpt><trkpt lat="42.21680533541848" lon="12.737879821335243"><ele>153.0</ele><time>2026-03-22T15:37:21.999Z</time></trkpt><trkpt lat="42.216688174964254" lon="12.738030423240293"><ele>154.0</ele><time>2026-03-22T15:37:22.999Z</time></trkpt><trkpt lat="42.21656884035197" lon="12.738186634367576"><ele>154.0</ele><time>2026-03-22T15:37:23.999Z</time></trkpt><trkpt lat="42.21644944260375" lon="12.738343999658243"><ele>154.0</ele><time>2026-03-22T15:37:24.999Z</time></trkpt><trkpt lat="42.21633619760412" lon="12.73849922952307"><ele>154.0</ele><time>2026-03-22T15:37:25.999Z</time></trkpt><trkpt lat="42.21623503283021" lon="12.738641090051464"><ele>154.0</ele><time>2026-03-22T15:37:26.999Z</time></trkpt><trkpt lat="42.216140884090954" lon="12.738773307776428"><ele>154.0</ele><time>2026-03-22T15:37:27.999Z</time></trkpt><trkpt lat="42.21605962414106" lon="12.738888855113743"><ele>154.0</ele><time>2026-03-22T15:37:28.999Z</time></trkpt><trkpt lat="42.215983485551426" lon="12.73900077062243"><ele>154.0</ele><time>2026-03-22T15:37:29.999Z</time></trkpt><trkpt lat="42.215902746164296" lon="12.7391250987257"><ele>154.0</ele><time>2026-03-22T15:37:30.999Z</time></trkpt><trkpt lat="42.21582316447777" lon="12.739256094321819"><ele>154.0</ele><time>2026-03-22T15:37:31.999Z</time></trkpt><trkpt lat="42.215758184783375" lon="12.739393387781158"><ele>154.0</ele><time>2026-03-22T15:37:32.999Z</time></trkpt><trkpt lat="42.21570384909841" lon="12.739524469471135"><ele>154.0</ele><time>2026-03-22T15:37:33.999Z</time></trkpt><trkpt lat="42.21565427900798" lon="12.739645135399567"><ele>155.16666666666669</ele><time>2026-03-22T15:37:34.999Z</time></trkpt><trkpt lat="42.21560874106545" lon="12.739733752339246"><ele>156.33333333333334</ele><time>2026-03-22T15:37:35.999Z</time></trkpt><trkpt lat="42.21555661090468" lon="12.739783992430738"><ele>157.5</ele><time>2026-03-22T15:37:36.999Z</time></trkpt><trkpt lat="42.215526664155284" lon="12.73987098710498"><ele>158.66666666666666</ele><time>2026-03-22T15:37:37.999Z</time></trkpt><trkpt lat="42.21557840775307" lon="12.739979722817598"><ele>159.83333333333331</ele><time>2026-03-22T15:37:39.999Z</time></trkpt><trkpt lat="42.21567595860783" lon="12.740045865696011"><ele>161.0</ele><time>2026-03-22T15:37:41.999Z</time></trkpt><trkpt lat="42.2157443957586" lon="12.740097805751356"><ele>161.0</ele><time>2026-03-22T15:37:43Z</time></trkpt><trkpt lat="42.215827531376824" lon="12.740161827943393"><ele>161.0</ele><time>2026-03-22T15:37:44Z</time></trkpt><trkpt lat="42.21591778382989" lon="12.740215800778335"><ele>161.0</ele><time>2026-03-22T15:37:45Z</time></trkpt><trkpt lat="42.21600686118" lon="12.740310074345565"><ele>161.0</ele><time>2026-03-22T15:37:46Z</time></trkpt><trkpt lat="42.21606431877792" lon="12.740421019178825"><ele>161.0</ele><time>2026-03-22T15:37:47Z</time></trkpt><trkpt lat="42.216096806446785" lon="12.740526007993294"><ele>162.33333333333331</ele><time>2026-03-22T15:37:48Z</time></trkpt><trkpt lat="42.216086374168505" lon="12.740630881935537"><ele>163.66666666666666</ele><time>2026-03-22T15:37:49Z</time></trkpt><trkpt lat="42.21605756014633" lon="12.740745248789068"><ele>165.0</ele><time>2026-03-22T15:37:50Z</time></trkpt><trkpt lat="42.216035878296026" lon="12.74086141788069"><ele>166.33333333333334</ele><time>2026-03-22T15:37:51Z</time></trkpt><trkpt lat="42.216012858047634" lon="12.740985690931144"><ele>167.66666666666669</ele><time>2026-03-22T15:37:52Z</time></trkpt><trkpt lat="42.21598639355317" lon="12.741110799785655"><ele>169.0</ele><time>2026-03-22T15:37:53Z</time></trkpt><trkpt lat="42.21595443879255" lon="12.741236442406198"><ele>171.16666666666669</ele><time>2026-03-22T15:37:54Z</time></trkpt><trkpt lat="42.215915633931" lon="12.74135300005392"><ele>173.33333333333334</ele><time>2026-03-22T15:37:55Z</time></trkpt><trkpt lat="42.215869994747635" lon="12.741444811790174"><ele>175.5</ele><time>2026-03-22T15:37:56Z</time></trkpt><trkpt lat="42.21583065403723" lon="12.741515618731503"><ele>177.66666666666666</ele><time>2026-03-22T15:37:57Z</time></trkpt><trkpt lat="42.21579055999037" lon="12.741585402190216"><ele>179.83333333333331</ele><time>2026-03-22T15:37:58Z</time></trkpt><trkpt lat="42.21574456577994" lon="12.74166766340232"><ele>182.0</ele><time>2026-03-22T15:37:59Z</time></trkpt><trkpt lat="42.21569790138225" lon="12.741762914636059"><ele>182.0</ele><time>2026-03-22T15:38:00Z</time></trkpt><trkpt lat="42.21566017783785" lon="12.741860688280061"><ele>182.0</ele><time>2026-03-22T15:38:01Z</time></trkpt><trkpt lat="42.21563065613237" lon="12.741950103335029"><ele>182.0</ele><time>2026-03-22T15:38:02Z</time></trkpt><trkpt lat="42.21558236941173" lon="12.742118329549738"><ele>182.0</ele><time>2026-03-22T15:38:04Z</time></trkpt><trkpt lat="42.215556052884885" lon="12.742219845677726"><ele>182.0</ele><time>2026-03-22T15:38:05Z</time></trkpt><trkpt lat="42.21553440741099" lon="12.742316134740264"><ele>182.0</ele><time>2026-03-22T15:38:06Z</time></trkpt><trkpt lat="42.215508107859044" lon="12.74246341316173"><ele>181.5</ele><time>2026-03-22T15:38:08Z</time></trkpt><trkpt lat="42.21549287469141" lon="12.742601998835116"><ele>181.0</ele><time>2026-03-22T15:38:10Z</time></trkpt><trkpt lat="42.21545485643749" lon="12.74276873193064"><ele>180.5</ele><time>2026-03-22T15:38:12Z</time></trkpt><trkpt lat="42.21537540577615" lon="12.742846071969732"><ele>180.0</ele><time>2026-03-22T15:38:14Z</time></trkpt><trkpt lat="42.21526247150586" lon="12.742939271976269"><ele>180.0</ele><time>2026-03-22T15:38:16Z</time></trkpt><trkpt lat="42.21520504714653" lon="12.742980717455822"><ele>180.0</ele><time>2026-03-22T15:38:17Z</time></trkpt><trkpt lat="42.21514414737064" lon="12.743025087705579"><ele>180.0</ele><time>2026-03-22T15:38:18Z</time></trkpt><trkpt lat="42.21508290618909" lon="12.743071849375402"><ele>180.0</ele><time>2026-03-22T15:38:19Z</time></trkpt><trkpt lat="42.21502537432386" lon="12.7431203820054"><ele>180.0</ele><time>2026-03-22T15:38:20Z</time></trkpt><trkpt lat="42.21496331081388" lon="12.743171670586817"><ele>180.0</ele><time>2026-03-22T15:38:21Z</time></trkpt><trkpt lat="42.2149046233503" lon="12.743219968348965"><ele>180.0</ele><time>2026-03-22T15:38:22Z</time></trkpt><trkpt lat="42.214843260869344" lon="12.743268987281516"><ele>178.66666666666666</ele><time>2026-03-22T15:38:23Z</time></trkpt><trkpt lat="42.214773407863476" lon="12.743316675385007"><ele>177.33333333333334</ele><time>2026-03-22T15:38:24Z</time></trkpt><trkpt lat="42.21469776704052" lon="12.743368314760168"><ele>176.0</ele><time>2026-03-22T15:38:25Z</time></trkpt><trkpt lat="42.21462681798765" lon="12.743420214985267"><ele>174.66666666666669</ele><time>2026-03-22T15:38:26Z</time></trkpt><trkpt lat="42.21456974319421" lon="12.743473360825407"><ele>173.33333333333334</ele><time>2026-03-22T15:38:27Z</time></trkpt><trkpt lat="42.21451902376206" lon="12.743537571833826"><ele>172.0</ele><time>2026-03-22T15:38:28Z</time></trkpt><trkpt lat="42.214482087504614" lon="12.743619277594275"><ele>172.0</ele><time>2026-03-22T15:38:29Z</time></trkpt><trkpt lat="42.21446150057472" lon="12.743718645168121"><ele>172.0</ele><time>2026-03-22T15:38:30Z</time></trkpt><trkpt lat="42.214448348723664" lon="12.743812435654494"><ele>172.0</ele><time>2026-03-22T15:38:31Z</time></trkpt><trkpt lat="42.21442735920903" lon="12.743963023356917"><ele>172.0</ele><time>2026-03-22T15:38:33Z</time></trkpt><trkpt lat="42.2143928549215" lon="12.744101821482385"><ele>172.0</ele><time>2026-03-22T15:38:35Z</time></trkpt><trkpt lat="42.214360561196955" lon="12.744175869883978"><ele>172.0</ele><time>2026-03-22T15:38:36Z</time></trkpt><trkpt lat="42.214319644218534" lon="12.744255628582687"><ele>172.0</ele><time>2026-03-22T15:38:37Z</time></trkpt><trkpt lat="42.214278514437446" lon="12.744338206593708"><ele>172.0</ele><time>2026-03-22T15:38:38Z</time></trkpt><trkpt lat="42.214205421928725" lon="12.74446733036718"><ele>172.0</ele><time>2026-03-22T15:38:40Z</time></trkpt><trkpt lat="42.214135457931945" lon="12.744593860214824"><ele>172.0</ele><time>2026-03-22T15:38:42Z</time></trkpt><trkpt lat="42.214106374409596" lon="12.744670034298338"><ele>172.0</ele><time>2026-03-22T15:38:43Z</time></trkpt><trkpt lat="42.214106914085086" lon="12.744779575439448"><ele>172.6</ele><time>2026-03-22T15:38:44Z</time></trkpt><trkpt lat="42.21409556463314" lon="12.744883415055462"><ele>173.2</ele><time>2026-03-22T15:38:45Z</time></trkpt><trkpt lat="42.214090213256625" lon="12.744975909171094"><ele>173.8</ele><time>2026-03-22T15:38:46Z</time></trkpt><trkpt lat="42.21409439532701" lon="12.745160161004524"><ele>174.4</ele><time>2026-03-22T15:38:48Z</time></trkpt><trkpt lat="42.21410516940142" lon="12.745250399810347"><ele>175.0</ele><time>2026-03-22T15:38:49Z</time></trkpt><trkpt lat="42.21412489653568" lon="12.745396865034913"><ele>175.33333333333334</ele><time>2026-03-22T15:38:51Z</time></trkpt><trkpt lat="42.214150101422696" lon="12.745499066925765"><ele>175.66666666666669</ele><time>2026-03-22T15:38:53Z</time></trkpt><trkpt lat="42.214076601526834" lon="12.745530219535793"><ele>176.0</ele><time>2026-03-22T15:38:55Z</time></trkpt><trkpt lat="42.2140055799495" lon="12.745509094833247"><ele>176.33333333333334</ele><time>2026-03-22T15:38:58Z</time></trkpt><trkpt lat="42.21392485603229" lon="12.74548548024454"><ele>176.66666666666666</ele><time>2026-03-22T15:39:02Z</time></trkpt><trkpt lat="42.21385656885222" lon="12.745330070528318"><ele>177.0</ele><time>2026-03-22T15:39:05Z</time></trkpt><trkpt lat="42.21381700390994" lon="12.745222936994196"><ele>178.33333333333334</ele><time>2026-03-22T15:39:08Z</time></trkpt><trkpt lat="42.2137698606244" lon="12.745138725179492"><ele>179.66666666666666</ele><time>2026-03-22T15:39:10Z</time></trkpt><trkpt lat="42.21376622682339" lon="12.745034584870762"><ele>181.0</ele><time>2026-03-22T15:39:12Z</time></trkpt><trkpt lat="42.213767768623654" lon="12.744937368429982"><ele>182.33333333333331</ele><time>2026-03-22T15:39:15Z</time></trkpt><trkpt lat="42.213797740843816" lon="12.744826383039806"><ele>183.66666666666666</ele><time>2026-03-22T15:39:18Z</time></trkpt><trkpt lat="42.21372872754156" lon="12.744840193452111"><ele>185.0</ele><time>2026-03-22T15:39:31.999Z</time></trkpt><trkpt lat="42.21367598453545" lon="12.744936346665181"><ele>185.0</ele><time>2026-03-22T15:39:43.999Z</time></trkpt><trkpt lat="42.21360984489301" lon="12.745006743217946"><ele>185.0</ele><time>2026-03-22T15:39:46.999Z</time></trkpt><trkpt lat="42.21362124181144" lon="12.745091033478353"><ele>185.0</ele><time>2026-03-22T15:39:54Z</time></trkpt><trkpt lat="42.213602461229094" lon="12.745178976656415"><ele>185.0</ele><time>2026-03-22T15:40:01Z</time></trkpt><trkpt lat="42.213592234209955" lon="12.745281703805809"><ele>185.0</ele><time>2026-03-22T15:40:05Z</time></trkpt><trkpt lat="42.21355871891212" lon="12.745360643622229"><ele>185.0</ele><time>2026-03-22T15:40:07Z</time></trkpt><trkpt lat="42.21352498972828" lon="12.745477475802245"><ele>187.83333333333331</ele><time>2026-03-22T15:40:09Z</time></trkpt><trkpt lat="42.21351270397324" lon="12.74559013742982"><ele>190.66666666666666</ele><time>2026-03-22T15:40:11Z</time></trkpt><trkpt lat="42.21347860245693" lon="12.745717093784418"><ele>193.5</ele><time>2026-03-22T15:40:13Z</time></trkpt><trkpt lat="42.21346256909476" lon="12.745838182343565"><ele>196.33333333333331</ele><time>2026-03-22T15:40:15Z</time></trkpt><trkpt lat="42.21340727887935" lon="12.74591099307306"><ele>199.16666666666666</ele><time>2026-03-22T15:40:17Z</time></trkpt><trkpt lat="42.21336246641569" lon="12.74599262066697"><ele>202.0</ele><time>2026-03-22T15:40:19Z</time></trkpt><trkpt lat="42.21331953871195" lon="12.746067472149516"><ele>203.0</ele><time>2026-03-22T15:40:21Z</time></trkpt><trkpt lat="42.213285969555244" lon="12.746142302985666"><ele>204.0</ele><time>2026-03-22T15:40:26Z</time></trkpt><trkpt lat="42.213240559749536" lon="12.746215070178623"><ele>205.0</ele><time>2026-03-22T15:40:37Z</time></trkpt><trkpt lat="42.21321608772969" lon="12.746293535177518"><ele>206.0</ele><time>2026-03-22T15:40:41Z</time></trkpt><trkpt lat="42.21317797224428" lon="12.746384087087979"><ele>207.0</ele><time>2026-03-22T15:40:44Z</time></trkpt><trkpt lat="42.213131992305776" lon="12.746470031902827"><ele>208.0</ele><time>2026-03-22T15:40:54Z</time></trkpt><trkpt lat="42.21309219395414" lon="12.746572478865541"><ele>209.0</ele><time>2026-03-22T15:40:59Z</time></trkpt><trkpt lat="42.21306993019574" lon="12.746659404749337"><ele>210.39999999999998</ele><time>2026-03-22T15:41:01Z</time></trkpt><trkpt lat="42.21302167596157" lon="12.746752132792722"><ele>211.8</ele><time>2026-03-22T15:41:03Z</time></trkpt><trkpt lat="42.21296265079431" lon="12.746817860039869"><ele>213.20000000000002</ele><time>2026-03-22T15:41:05Z</time></trkpt><trkpt lat="42.212913597166576" lon="12.74691767196947"><ele>214.60000000000002</ele><time>2026-03-22T15:41:07Z</time></trkpt><trkpt lat="42.212842065969426" lon="12.747054655788673"><ele>216.0</ele><time>2026-03-22T15:41:09Z</time></trkpt><trkpt lat="42.21281179432442" lon="12.747155696154152"><ele>218.85714285714286</ele><time>2026-03-22T15:41:37.999Z</time></trkpt><trkpt lat="42.212743243200904" lon="12.74717562051462"><ele>221.71428571428572</ele><time>2026-03-22T15:44:28Z</time></trkpt><trkpt lat="42.212703838878916" lon="12.747097102070938"><ele>224.57142857142856</ele><time>2026-03-22T15:44:50Z</time></trkpt><trkpt lat="42.2126389490706" lon="12.747114558776364"><ele>227.42857142857144</ele><time>2026-03-22T15:44:54Z</time></trkpt><trkpt lat="42.2125993683506" lon="12.747181464796302"><ele>230.2857142857143</ele><time>2026-03-22T15:45:06Z</time></trkpt><trkpt lat="42.21252862086313" lon="12.747201691178109"><ele>233.14285714285714</ele><time>2026-03-22T15:45:12Z</time></trkpt><trkpt lat="42.21244442417872" lon="12.747225359385292"><ele>236.0</ele><time>2026-03-22T15:45:14Z</time></trkpt><trkpt lat="42.21238593809677" lon="12.747300120422596"><ele>236.0</ele><time>2026-03-22T15:45:16Z</time></trkpt><trkpt lat="42.21233291273849" lon="12.74737425855367"><ele>236.0</ele><time>2026-03-22T15:45:18Z</time></trkpt><trkpt lat="42.21226215573687" lon="12.747430604212024"><ele>236.0</ele><time>2026-03-22T15:45:22Z</time></trkpt><trkpt lat="42.21219723299425" lon="12.747459521340193"><ele>236.0</ele><time>2026-03-22T15:45:28Z</time></trkpt><trkpt lat="42.21212817443857" lon="12.747488261867446"><ele>236.0</ele><time>2026-03-22T15:45:31Z</time></trkpt><trkpt lat="42.212065122277934" lon="12.74749260688862"><ele>236.0</ele><time>2026-03-22T15:45:34Z</time></trkpt><trkpt lat="42.21200242224836" lon="12.747523977844432"><ele>236.0</ele><time>2026-03-22T15:45:37Z</time></trkpt><trkpt lat="42.21191482445472" lon="12.747571598804155"><ele>233.16666666666669</ele><time>2026-03-22T15:45:40Z</time></trkpt><trkpt lat="42.21180557431083" lon="12.747514400612795"><ele>230.33333333333334</ele><time>2026-03-22T15:45:43Z</time></trkpt><trkpt lat="42.21174253387408" lon="12.74745975346657"><ele>227.5</ele><time>2026-03-22T15:45:44Z</time></trkpt><trkpt lat="42.21170660694873" lon="12.74738727553673"><ele>224.66666666666669</ele><time>2026-03-22T15:45:46Z</time></trkpt><trkpt lat="42.211690349393706" lon="12.747296259836434"><ele>221.83333333333334</ele><time>2026-03-22T15:45:48Z</time></trkpt><trkpt lat="42.2116799338457" lon="12.747199716940925"><ele>219.0</ele><time>2026-03-22T15:46:41Z</time></trkpt><trkpt lat="42.21174265317575" lon="12.747111839764104"><ele>219.0</ele><time>2026-03-22T15:46:44Z</time></trkpt><trkpt lat="42.21183588878305" lon="12.746984889291108"><ele>218.99999999999997</ele><time>2026-03-22T15:46:46Z</time></trkpt><trkpt lat="42.21187094093541" lon="12.746906267621961"><ele>218.99999999999997</ele><time>2026-03-22T15:46:47Z</time></trkpt><trkpt lat="42.211875859809965" lon="12.746758940294546"><ele>219.0</ele><time>2026-03-22T15:46:49Z</time></trkpt><trkpt lat="42.21183063267616" lon="12.746647798676603"><ele>219.0</ele><time>2026-03-22T15:46:51Z</time></trkpt><trkpt lat="42.21174380548535" lon="12.746543862660914"><ele>217.79999999999998</ele><time>2026-03-22T15:46:53Z</time></trkpt><trkpt lat="42.21174289149839" lon="12.74638525017928"><ele>216.59999999999997</ele><time>2026-03-22T15:46:55Z</time></trkpt><trkpt lat="42.21181293046928" lon="12.746251296445134"><ele>215.4</ele><time>2026-03-22T15:46:57Z</time></trkpt><trkpt lat="42.21183953424032" lon="12.746166957040055"><ele>214.2</ele><time>2026-03-22T15:46:58Z</time></trkpt><trkpt lat="42.21187742787782" lon="12.746073528976057"><ele>213.0</ele><time>2026-03-22T15:46:59Z</time></trkpt><trkpt lat="42.211907073765786" lon="12.74598441590749"><ele>213.0</ele><time>2026-03-22T15:47:00Z</time></trkpt><trkpt lat="42.211936514928425" lon="12.745845246142528"><ele>213.0</ele><time>2026-03-22T15:47:01Z</time></trkpt><trkpt lat="42.21196803204571" lon="12.745693383589643"><ele>213.0</ele><time>2026-03-22T15:47:02Z</time></trkpt><trkpt lat="42.21198228863229" lon="12.745552823074368"><ele>213.0</ele><time>2026-03-22T15:47:03Z</time></trkpt><trkpt lat="42.21196471121988" lon="12.745461456500436"><ele>213.0</ele><time>2026-03-22T15:47:04Z</time></trkpt><trkpt lat="42.21190252737716" lon="12.745367346471328"><ele>213.0</ele><time>2026-03-22T15:47:06Z</time></trkpt><trkpt lat="42.21176799336279" lon="12.74546148894834"><ele>213.0</ele><time>2026-03-22T15:47:14Z</time></trkpt><trkpt lat="42.21169272572183" lon="12.745467446310261"><ele>213.0</ele><time>2026-03-22T15:47:16Z</time></trkpt><trkpt lat="42.21162252122975" lon="12.745539968562843"><ele>213.0</ele><time>2026-03-22T15:47:18Z</time></trkpt><trkpt lat="42.211550935094046" lon="12.745620760141398"><ele>213.0</ele><time>2026-03-22T15:47:20Z</time></trkpt><trkpt lat="42.211454426785394" lon="12.745642926052874"><ele>217.16666666666666</ele><time>2026-03-22T15:47:22Z</time></trkpt><trkpt lat="42.211384994251624" lon="12.745740683580534"><ele>221.33333333333331</ele><time>2026-03-22T15:47:25Z</time></trkpt><trkpt lat="42.21131408997321" lon="12.74579958053975"><ele>225.5</ele><time>2026-03-22T15:47:27Z</time></trkpt><trkpt lat="42.21122852311516" lon="12.745850229334337"><ele>229.66666666666666</ele><time>2026-03-22T15:47:30Z</time></trkpt><trkpt lat="42.211158907140536" lon="12.745847244432754"><ele>233.83333333333331</ele><time>2026-03-22T15:47:32Z</time></trkpt><trkpt lat="42.21109462182702" lon="12.745870047707488"><ele>238.0</ele><time>2026-03-22T15:47:34Z</time></trkpt><trkpt lat="42.211012818877954" lon="12.74590685330265"><ele>237.99999999999997</ele><time>2026-03-22T15:47:36Z</time></trkpt><trkpt lat="42.21097622924032" lon="12.745834366673902"><ele>238.0</ele><time>2026-03-22T15:47:40Z</time></trkpt><trkpt lat="42.21096754568044" lon="12.745745944033008"><ele>238.0</ele><time>2026-03-22T15:47:42Z</time></trkpt><trkpt lat="42.21095574165557" lon="12.74562486919434"><ele>238.0</ele><time>2026-03-22T15:47:45Z</time></trkpt><trkpt lat="42.21097969763904" lon="12.745542775943175"><ele>237.99999999999997</ele><time>2026-03-22T15:47:47Z</time></trkpt><trkpt lat="42.21102534709665" lon="12.745420461682917"><ele>238.0</ele><time>2026-03-22T15:47:49Z</time></trkpt><trkpt lat="42.2110243592399" lon="12.745311336718894"><ele>240.66666666666666</ele><time>2026-03-22T15:47:51Z</time></trkpt><trkpt lat="42.21102564898036" lon="12.745186508405261"><ele>243.33333333333331</ele><time>2026-03-22T15:47:54Z</time></trkpt><trkpt lat="42.211024347053936" lon="12.745074074245235"><ele>246.0</ele><time>2026-03-22T15:47:57Z</time></trkpt><trkpt lat="42.211013538977106" lon="12.74495614414183"><ele>248.66666666666669</ele><time>2026-03-22T15:48:00Z</time></trkpt><trkpt lat="42.211043481998935" lon="12.74483938474351"><ele>251.33333333333334</ele><time>2026-03-22T15:48:03Z</time></trkpt><trkpt lat="42.211060657039845" lon="12.744714847075532"><ele>254.0</ele><time>2026-03-22T15:48:06Z</time></trkpt><trkpt lat="42.211024079449835" lon="12.744628846867437"><ele>254.00000000000003</ele><time>2026-03-22T15:48:10Z</time></trkpt><trkpt lat="42.21093618329716" lon="12.744589836100777"><ele>254.0</ele><time>2026-03-22T15:48:13Z</time></trkpt><trkpt lat="42.210903779245015" lon="12.74450164355993"><ele>254.0</ele><time>2026-03-22T15:48:17Z</time></trkpt><trkpt lat="42.210952361456755" lon="12.744441262787763"><ele>254.0</ele><time>2026-03-22T15:48:40Z</time></trkpt><trkpt lat="42.211021766279444" lon="12.744366470694178"><ele>254.00000000000003</ele><time>2026-03-22T15:48:43Z</time></trkpt><trkpt lat="42.21107638782832" lon="12.744260981738442"><ele>254.0</ele><time>2026-03-22T15:48:45Z</time></trkpt><trkpt lat="42.211115924043725" lon="12.744180653942552"><ele>258.4</ele><time>2026-03-22T15:48:46Z</time></trkpt><trkpt lat="42.211183813873824" lon="12.74409791618459"><ele>262.79999999999995</ele><time>2026-03-22T15:48:47Z</time></trkpt><trkpt lat="42.21124552457598" lon="12.743997487900591"><ele>267.20000000000005</ele><time>2026-03-22T15:48:48Z</time></trkpt><trkpt lat="42.21130513622022" lon="12.74390625088617"><ele>271.6</ele><time>2026-03-22T15:48:49Z</time></trkpt><trkpt lat="42.21137118253063" lon="12.743816741787127"><ele>276.0</ele><time>2026-03-22T15:48:50Z</time></trkpt><trkpt lat="42.211432734088774" lon="12.743711519023151"><ele>276.0</ele><time>2026-03-22T15:48:51Z</time></trkpt><trkpt lat="42.21146439139625" lon="12.743618775952712"><ele>276.0</ele><time>2026-03-22T15:48:52Z</time></trkpt><trkpt lat="42.21149498128712" lon="12.743539055200705"><ele>276.0</ele><time>2026-03-22T15:48:53Z</time></trkpt><trkpt lat="42.21146588246707" lon="12.743456762661497"><ele>276.0</ele><time>2026-03-22T15:48:55Z</time></trkpt><trkpt lat="42.211364260147775" lon="12.743404309484085"><ele>276.0</ele><time>2026-03-22T15:48:57Z</time></trkpt><trkpt lat="42.21129464493365" lon="12.743362066498799"><ele>276.0</ele><time>2026-03-22T15:48:58Z</time></trkpt><trkpt lat="42.21122985761538" lon="12.743312167933462"><ele>279.2</ele><time>2026-03-22T15:48:59Z</time></trkpt><trkpt lat="42.21116124743956" lon="12.743262484173524"><ele>282.40000000000003</ele><time>2026-03-22T15:49:00Z</time></trkpt><trkpt lat="42.21108294487861" lon="12.743191445377416"><ele>285.6</ele><time>2026-03-22T15:49:01Z</time></trkpt><trkpt lat="42.21101550866902" lon="12.743126473409975"><ele>288.8</ele><time>2026-03-22T15:49:02Z</time></trkpt><trkpt lat="42.21093282067873" lon="12.74307228980031"><ele>292.0</ele><time>2026-03-22T15:49:04Z</time></trkpt><trkpt lat="42.21080332559261" lon="12.743121358327537"><ele>292.0</ele><time>2026-03-22T15:49:06Z</time></trkpt><trkpt lat="42.21072521475933" lon="12.743181827986605"><ele>292.0</ele><time>2026-03-22T15:49:07Z</time></trkpt><trkpt lat="42.210645184055245" lon="12.74322790194914"><ele>292.0</ele><time>2026-03-22T15:49:08Z</time></trkpt><trkpt lat="42.21056547918341" lon="12.74327771636831"><ele>292.0</ele><time>2026-03-22T15:49:09Z</time></trkpt><trkpt lat="42.21049202518169" lon="12.743325867993894"><ele>292.0</ele><time>2026-03-22T15:49:10Z</time></trkpt><trkpt lat="42.21032114219745" lon="12.743228035769448"><ele>294.0</ele><time>2026-03-22T15:49:12Z</time></trkpt><trkpt lat="42.21036518525109" lon="12.743126787081158"><ele>296.0</ele><time>2026-03-22T15:49:20Z</time></trkpt><trkpt lat="42.21044516293003" lon="12.743007416011055"><ele>298.0</ele><time>2026-03-22T15:49:23Z</time></trkpt><trkpt lat="42.210501190190676" lon="12.742918398419208"><ele>300.0</ele><time>2026-03-22T15:49:24Z</time></trkpt><trkpt lat="42.210540557956605" lon="12.74282609776138"><ele>302.0</ele><time>2026-03-22T15:49:25Z</time></trkpt><trkpt lat="42.21057330709141" lon="12.742737981450505"><ele>304.0</ele><time>2026-03-22T15:49:26Z</time></trkpt><trkpt lat="42.210562487285806" lon="12.742615837206223"><ele>306.2857142857143</ele><time>2026-03-22T15:49:28Z</time></trkpt><trkpt lat="42.21049449255533" lon="12.742588643857781"><ele>308.5714285714286</ele><time>2026-03-22T15:49:29Z</time></trkpt><trkpt lat="42.21041869357398" lon="12.742587900448008"><ele>310.8571428571429</ele><time>2026-03-22T15:49:30Z</time></trkpt><trkpt lat="42.21035543442498" lon="12.74259213444146"><ele>313.1428571428571</ele><time>2026-03-22T15:49:31Z</time></trkpt><trkpt lat="42.21030185131861" lon="12.742523465059731"><ele>315.42857142857144</ele><time>2026-03-22T15:49:33Z</time></trkpt><trkpt lat="42.21029030739897" lon="12.742439881818132"><ele>317.7142857142857</ele><time>2026-03-22T15:49:34Z</time></trkpt><trkpt lat="42.210284844747044" lon="12.742352660574278"><ele>320.0</ele><time>2026-03-22T15:49:35Z</time></trkpt><trkpt lat="42.21026193325536" lon="12.742267529322573"><ele>320.0</ele><time>2026-03-22T15:49:36Z</time></trkpt><trkpt lat="42.21023009425843" lon="12.742194039030661"><ele>320.0</ele><time>2026-03-22T15:49:37Z</time></trkpt><trkpt lat="42.2102139702634" lon="12.742107742090225"><ele>320.0</ele><time>2026-03-22T15:49:38Z</time></trkpt><trkpt lat="42.210206243081736" lon="12.742002896897743"><ele>320.0</ele><time>2026-03-22T15:49:39Z</time></trkpt><trkpt lat="42.21018663342752" lon="12.741882894474852"><ele>320.0</ele><time>2026-03-22T15:49:40Z</time></trkpt><trkpt lat="42.2101645227273" lon="12.741757155317641"><ele>320.0</ele><time>2026-03-22T15:49:41Z</time></trkpt><trkpt lat="42.210154962354835" lon="12.741638772439904"><ele>320.6666666666667</ele><time>2026-03-22T15:49:42Z</time></trkpt><trkpt lat="42.210138295478735" lon="12.741539750638609"><ele>321.33333333333337</ele><time>2026-03-22T15:49:43Z</time></trkpt><trkpt lat="42.210107302419225" lon="12.74142252250065"><ele>322.0</ele><time>2026-03-22T15:49:44Z</time></trkpt><trkpt lat="42.21007245383035" lon="12.74132818944325"><ele>322.6666666666667</ele><time>2026-03-22T15:49:45Z</time></trkpt><trkpt lat="42.21005095651498" lon="12.741236860433085"><ele>323.3333333333333</ele><time>2026-03-22T15:49:46Z</time></trkpt><trkpt lat="42.21001208916956" lon="12.741164409124039"><ele>324.0</ele><time>2026-03-22T15:49:47Z</time></trkpt><trkpt lat="42.2099157383955" lon="12.741082262371137"><ele>324.0</ele><time>2026-03-22T15:49:49Z</time></trkpt><trkpt lat="42.20983552750302" lon="12.741088475111194"><ele>324.0</ele><time>2026-03-22T15:49:50Z</time></trkpt><trkpt lat="42.209762357861436" lon="12.741066308260763"><ele>324.0</ele><time>2026-03-22T15:49:51Z</time></trkpt><trkpt lat="42.20969614868215" lon="12.74099694994496"><ele>324.0</ele><time>2026-03-22T15:49:52Z</time></trkpt><trkpt lat="42.20963404515071" lon="12.740889700974673"><ele>324.0</ele><time>2026-03-22T15:49:53Z</time></trkpt><trkpt lat="42.209562948386406" lon="12.740787739538304"><ele>324.0</ele><time>2026-03-22T15:49:54Z</time></trkpt><trkpt lat="42.209511614901686" lon="12.740678668026328"><ele>328.1666666666667</ele><time>2026-03-22T15:49:55Z</time></trkpt><trkpt lat="42.20946660878868" lon="12.740587663741984"><ele>332.3333333333333</ele><time>2026-03-22T15:49:56Z</time></trkpt><trkpt lat="42.20943171584559" lon="12.740511340792535"><ele>336.5</ele><time>2026-03-22T15:49:57Z</time></trkpt><trkpt lat="42.20937289539458" lon="12.740472665107752"><ele>340.66666666666663</ele><time>2026-03-22T15:49:58Z</time></trkpt><trkpt lat="42.209303079714154" lon="12.740448632988338"><ele>344.8333333333333</ele><time>2026-03-22T15:49:59Z</time></trkpt><trkpt lat="42.20920866738308" lon="12.740375358680007"><ele>349.0</ele><time>2026-03-22T15:50:00Z</time></trkpt><trkpt lat="42.20911115387484" lon="12.74035404626536"><ele>349.0</ele><time>2026-03-22T15:50:01Z</time></trkpt><trkpt lat="42.209011346779185" lon="12.740349135063743"><ele>349.0</ele><time>2026-03-22T15:50:02Z</time></trkpt><trkpt lat="42.20891980964679" lon="12.740333352006141"><ele>349.0</ele><time>2026-03-22T15:50:03Z</time></trkpt><trkpt lat="42.20882660114798" lon="12.740313912571402"><ele>349.0</ele><time>2026-03-22T15:50:04Z</time></trkpt><trkpt lat="42.20877490048749" lon="12.740245824537904"><ele>349.0</ele><time>2026-03-22T15:50:05Z</time></trkpt><trkpt lat="42.20873279242554" lon="12.74017158317609"><ele>349.0</ele><time>2026-03-22T15:50:06Z</time></trkpt><trkpt lat="42.20868893168658" lon="12.740082373416762"><ele>352.6</ele><time>2026-03-22T15:50:07Z</time></trkpt><trkpt lat="42.208671332082176" lon="12.739969198140587"><ele>356.2</ele><time>2026-03-22T15:50:08Z</time></trkpt><trkpt lat="42.208655995369426" lon="12.73984884550503"><ele>359.8</ele><time>2026-03-22T15:50:09Z</time></trkpt><trkpt lat="42.208630978960144" lon="12.73976986291251"><ele>363.40000000000003</ele><time>2026-03-22T15:50:10Z</time></trkpt><trkpt lat="42.20857320184321" lon="12.73968504001142"><ele>367.0</ele><time>2026-03-22T15:50:11Z</time></trkpt><trkpt lat="42.20847844746097" lon="12.739574008640004"><ele>367.0</ele><time>2026-03-22T15:50:12Z</time></trkpt><trkpt lat="42.20840031699247" lon="12.739468405932977"><ele>367.0</ele><time>2026-03-22T15:50:13Z</time></trkpt><trkpt lat="42.20831108927672" lon="12.73939811671945"><ele>367.0</ele><time>2026-03-22T15:50:14Z</time></trkpt><trkpt lat="42.20821339128487" lon="12.739323311969827"><ele>367.0</ele><time>2026-03-22T15:50:15Z</time></trkpt><trkpt lat="42.208121228280135" lon="12.7392509415449"><ele>367.0</ele><time>2026-03-22T15:50:16Z</time></trkpt><trkpt lat="42.20805435691767" lon="12.739183192266093"><ele>372.6</ele><time>2026-03-22T15:50:17Z</time></trkpt><trkpt lat="42.207984168646234" lon="12.739121076037494"><ele>378.20000000000005</ele><time>2026-03-22T15:50:18Z</time></trkpt><trkpt lat="42.207905200136814" lon="12.739062779625742"><ele>383.8</ele><time>2026-03-22T15:50:19Z</time></trkpt><trkpt lat="42.207808438520786" lon="12.738989161187817"><ele>389.4</ele><time>2026-03-22T15:50:20Z</time></trkpt><trkpt lat="42.20773480208348" lon="12.738895331130102"><ele>395.0</ele><time>2026-03-22T15:50:21Z</time></trkpt><trkpt lat="42.20765767512308" lon="12.738802872694873"><ele>395.0</ele><time>2026-03-22T15:50:22Z</time></trkpt><trkpt lat="42.20759647459272" lon="12.73870015403738"><ele>395.0</ele><time>2026-03-22T15:50:23Z</time></trkpt><trkpt lat="42.20752030497154" lon="12.738606100609479"><ele>395.0</ele><time>2026-03-22T15:50:24Z</time></trkpt><trkpt lat="42.20745779631261" lon="12.738484960522811"><ele>395.0</ele><time>2026-03-22T15:50:25Z</time></trkpt><trkpt lat="42.20739348621099" lon="12.738327484010513"><ele>395.0</ele><time>2026-03-22T15:50:26Z</time></trkpt><trkpt lat="42.20735230865144" lon="12.738211808389526"><ele>397.8333333333333</ele><time>2026-03-22T15:50:27Z</time></trkpt><trkpt lat="42.207309798487515" lon="12.738116795300792"><ele>400.66666666666663</ele><time>2026-03-22T15:50:28Z</time></trkpt><trkpt lat="42.20725461617428" lon="12.73805614180793"><ele>403.5</ele><time>2026-03-22T15:50:29Z</time></trkpt><trkpt lat="42.20721203739374" lon="12.737962735562414"><ele>406.33333333333337</ele><time>2026-03-22T15:50:30Z</time></trkpt><trkpt lat="42.20719913242005" lon="12.737839434381895"><ele>409.1666666666667</ele><time>2026-03-22T15:50:31Z</time></trkpt><trkpt lat="42.20717057202524" lon="12.737686257929033"><ele>412.0</ele><time>2026-03-22T15:50:32Z</time></trkpt><trkpt lat="42.20716622482702" lon="12.737525059737933"><ele>412.0</ele><time>2026-03-22T15:50:33Z</time></trkpt><trkpt lat="42.20714095572168" lon="12.73734116265326"><ele>412.0</ele><time>2026-03-22T15:50:34Z</time></trkpt><trkpt lat="42.20709957350307" lon="12.737205749126254"><ele>412.0</ele><time>2026-03-22T15:50:35Z</time></trkpt><trkpt lat="42.20706241776175" lon="12.73703692585554"><ele>412.0</ele><time>2026-03-22T15:50:36Z</time></trkpt><trkpt lat="42.207015795175856" lon="12.736896767453798"><ele>408.75</ele><time>2026-03-22T15:50:37Z</time></trkpt><trkpt lat="42.206979125104446" lon="12.736796978179266"><ele>405.5</ele><time>2026-03-22T15:50:38Z</time></trkpt><trkpt lat="42.206917931238124" lon="12.736600560763028"><ele>402.25</ele><time>2026-03-22T15:50:40Z</time></trkpt><trkpt lat="42.206872696503495" lon="12.736450675669028"><ele>399.0</ele><time>2026-03-22T15:50:41Z</time></trkpt><trkpt lat="42.20678144810549" lon="12.736299817521134"><ele>399.0</ele><time>2026-03-22T15:50:42Z</time></trkpt><trkpt lat="42.20669566740732" lon="12.7361740743838"><ele>399.0</ele><time>2026-03-22T15:50:43Z</time></trkpt><trkpt lat="42.206630808826844" lon="12.73606621738556"><ele>399.0</ele><time>2026-03-22T15:50:44Z</time></trkpt><trkpt lat="42.206565934124455" lon="12.735948324603752"><ele>399.0</ele><time>2026-03-22T15:50:45Z</time></trkpt><trkpt lat="42.20650557146136" lon="12.735795234464607"><ele>404.25</ele><time>2026-03-22T15:50:46Z</time></trkpt><trkpt lat="42.20643522892942" lon="12.735678599049741"><ele>409.5</ele><time>2026-03-22T15:50:47Z</time></trkpt><trkpt lat="42.2063616786102" lon="12.735541928078534"><ele>414.75</ele><time>2026-03-22T15:50:48Z</time></trkpt><trkpt lat="42.20631287630766" lon="12.735386690451097"><ele>420.0</ele><time>2026-03-22T15:50:49Z</time></trkpt><trkpt lat="42.20626306187212" lon="12.735240105879651"><ele>419.4</ele><time>2026-03-22T15:50:50Z</time></trkpt><trkpt lat="42.206225829605344" lon="12.735122423797655"><ele>418.8</ele><time>2026-03-22T15:50:51Z</time></trkpt><trkpt lat="42.20621349548097" lon="12.735037580231642"><ele>418.20000000000005</ele><time>2026-03-22T15:50:52Z</time></trkpt><trkpt lat="42.20620991846084" lon="12.734914143235134"><ele>417.6</ele><time>2026-03-22T15:50:53Z</time></trkpt><trkpt lat="42.206176635653186" lon="12.734758617862514"><ele>417.0</ele><time>2026-03-22T15:50:54Z</time></trkpt><trkpt lat="42.20614140648152" lon="12.734584084342815"><ele>417.0</ele><time>2026-03-22T15:50:55Z</time></trkpt><trkpt lat="42.206122584311004" lon="12.734436453762664"><ele>417.0</ele><time>2026-03-22T15:50:56Z</time></trkpt><trkpt lat="42.206124311477275" lon="12.734274272915188"><ele>417.0</ele><time>2026-03-22T15:50:57Z</time></trkpt><trkpt lat="42.20612941158069" lon="12.734107984471814"><ele>417.0</ele><time>2026-03-22T15:50:58Z</time></trkpt><trkpt lat="42.20613810939749" lon="12.733971218774204"><ele>417.0</ele><time>2026-03-22T15:50:59Z</time></trkpt><trkpt lat="42.206147694598066" lon="12.733857070997075"><ele>417.0</ele><time>2026-03-22T15:51:00Z</time></trkpt><trkpt lat="42.20613963121204" lon="12.733734541927577"><ele>417.0</ele><time>2026-03-22T15:51:01Z</time></trkpt><trkpt lat="42.206128257180445" lon="12.733625773973236"><ele>417.0</ele><time>2026-03-22T15:51:02Z</time></trkpt><trkpt lat="42.206111237413204" lon="12.733529536387303"><ele>417.0</ele><time>2026-03-22T15:51:03Z</time></trkpt><trkpt lat="42.20608598056749" lon="12.733424587345318"><ele>417.0</ele><time>2026-03-22T15:51:04Z</time></trkpt><trkpt lat="42.20603943548557" lon="12.733307487619756"><ele>415.75</ele><time>2026-03-22T15:51:05Z</time></trkpt><trkpt lat="42.206049779376784" lon="12.733161686180063"><ele>414.5</ele><time>2026-03-22T15:51:07Z</time></trkpt><trkpt lat="42.20611877381939" lon="12.733039090775538"><ele>413.25</ele><time>2026-03-22T15:51:09Z</time></trkpt><trkpt lat="42.20622118782131" lon="12.733010441864227"><ele>412.0</ele><time>2026-03-22T15:51:10Z</time></trkpt><trkpt lat="42.20634842156946" lon="12.73297338170009"><ele>412.0</ele><time>2026-03-22T15:51:11Z</time></trkpt><trkpt lat="42.20646905120322" lon="12.732972060287453"><ele>412.0</ele><time>2026-03-22T15:51:12Z</time></trkpt><trkpt lat="42.206567221403404" lon="12.732986341509376"><ele>412.0</ele><time>2026-03-22T15:51:13Z</time></trkpt><trkpt lat="42.20662234745364" lon="12.732922505992192"><ele>412.0</ele><time>2026-03-22T15:51:15Z</time></trkpt><trkpt lat="42.20640442702236" lon="12.732898677871903"><ele>412.00000000000006</ele><time>2026-03-22T15:51:22Z</time></trkpt><trkpt lat="42.206337504189776" lon="12.732883524861204"><ele>412.0</ele><time>2026-03-22T15:51:23Z</time></trkpt><trkpt lat="42.206362779765904" lon="12.732796177482816"><ele>412.0</ele><time>2026-03-22T15:51:26Z</time></trkpt><trkpt lat="42.20630785519822" lon="12.732742614035999"><ele>412.0</ele><time>2026-03-22T15:51:30Z</time></trkpt><trkpt lat="42.20627786059794" lon="12.732842193597488"><ele>412.00000000000006</ele><time>2026-03-22T15:51:43Z</time></trkpt><trkpt lat="42.206181672375756" lon="12.732877483627282"><ele>412.0</ele><time>2026-03-22T15:51:45Z</time></trkpt><trkpt lat="42.20607987912948" lon="12.732868983142332"><ele>411.99999999999994</ele><time>2026-03-22T15:51:47Z</time></trkpt><trkpt lat="42.205994791006454" lon="12.732849617759479"><ele>412.0</ele><time>2026-03-22T15:51:53Z</time></trkpt><trkpt lat="42.20597312177609" lon="12.732756398400307"><ele>412.0</ele><time>2026-03-22T15:51:55Z</time></trkpt><trkpt lat="42.20599480043665" lon="12.732672985419068"><ele>412.0</ele><time>2026-03-22T15:51:58Z</time></trkpt><trkpt lat="42.206063189298966" lon="12.732655374105825"><ele>412.0</ele><time>2026-03-22T15:52:00Z</time></trkpt><trkpt lat="42.206104893356624" lon="12.732562400029789"><ele>411.99999999999994</ele><time>2026-03-22T15:52:02Z</time></trkpt><trkpt lat="42.20611856436759" lon="12.732467845371128"><ele>412.0</ele><time>2026-03-22T15:52:04Z</time></trkpt><trkpt lat="42.20607439822698" lon="12.73239843273567"><ele>413.6666666666667</ele><time>2026-03-22T15:52:06Z</time></trkpt><trkpt lat="42.206064977257384" lon="12.732305749723361"><ele>415.33333333333337</ele><time>2026-03-22T15:52:26Z</time></trkpt><trkpt lat="42.20607368447836" lon="12.732211444094204"><ele>417.0</ele><time>2026-03-22T15:52:29Z</time></trkpt><trkpt lat="42.206103798873485" lon="12.732092628318046"><ele>418.66666666666663</ele><time>2026-03-22T15:52:32Z</time></trkpt><trkpt lat="42.206132313618426" lon="12.732005559695395"><ele>420.3333333333333</ele><time>2026-03-22T15:52:35Z</time></trkpt><trkpt lat="42.20623140591623" lon="12.731957634732224"><ele>422.0</ele><time>2026-03-22T15:52:38Z</time></trkpt><trkpt lat="42.20627319842706" lon="12.73181630130624"><ele>422.8</ele><time>2026-03-22T15:52:40Z</time></trkpt><trkpt lat="42.206256549013055" lon="12.731726047443464"><ele>423.6</ele><time>2026-03-22T15:52:41Z</time></trkpt><trkpt lat="42.20629590192807" lon="12.731601775522877"><ele>424.40000000000003</ele><time>2026-03-22T15:52:43Z</time></trkpt><trkpt lat="42.206361059108175" lon="12.731527606510575"><ele>425.20000000000005</ele><time>2026-03-22T15:52:47Z</time></trkpt><trkpt lat="42.20637651334196" lon="12.731390058013572"><ele>426.0</ele><time>2026-03-22T15:52:49Z</time></trkpt><trkpt lat="42.20638853533949" lon="12.731228745446808"><ele>426.0</ele><time>2026-03-22T15:52:51Z</time></trkpt><trkpt lat="42.20638693838823" lon="12.731073328801013"><ele>426.0</ele><time>2026-03-22T15:52:53Z</time></trkpt><trkpt lat="42.20639201711601" lon="12.730978521895"><ele>426.0</ele><time>2026-03-22T15:52:54Z</time></trkpt><trkpt lat="42.20641883381933" lon="12.730833344145665"><ele>426.0</ele><time>2026-03-22T15:52:56Z</time></trkpt><trkpt lat="42.20648109386364" lon="12.73051758005642"><ele>427.25</ele><time>2026-03-22T15:52:58Z</time></trkpt><trkpt lat="42.2065847803345" lon="12.730326285853833"><ele>428.5</ele><time>2026-03-22T15:52:59Z</time></trkpt><trkpt lat="42.20668484915256" lon="12.730187165378695"><ele>429.75</ele><time>2026-03-22T15:53:00Z</time></trkpt><trkpt lat="42.20676733629989" lon="12.730088208543334"><ele>431.0</ele><time>2026-03-22T15:53:01Z</time></trkpt><trkpt lat="42.20684283791761" lon="12.73000099842448"><ele>431.0</ele><time>2026-03-22T15:53:02Z</time></trkpt><trkpt lat="42.20693909042755" lon="12.72990247028997"><ele>431.0</ele><time>2026-03-22T15:53:03Z</time></trkpt><trkpt lat="42.206993979627434" lon="12.729851318008278"><ele>431.0</ele><time>2026-03-22T15:53:04Z</time></trkpt><trkpt lat="42.20705579814298" lon="12.729772742305329"><ele>431.0</ele><time>2026-03-22T15:53:05Z</time></trkpt><trkpt lat="42.20711406379299" lon="12.729682596973001"><ele>431.0</ele><time>2026-03-22T15:53:06Z</time></trkpt><trkpt lat="42.207173258091444" lon="12.729577521205082"><ele>431.0</ele><time>2026-03-22T15:53:07Z</time></trkpt><trkpt lat="42.20722499931249" lon="12.729455828757262"><ele>431.0</ele><time>2026-03-22T15:53:08Z</time></trkpt><trkpt lat="42.207274835535216" lon="12.729326887012538"><ele>431.0</ele><time>2026-03-22T15:53:09Z</time></trkpt><trkpt lat="42.20737175849663" lon="12.729100983822494"><ele>431.0</ele><time>2026-03-22T15:53:10Z</time></trkpt><trkpt lat="42.207629030725826" lon="12.728827819045119"><ele>435.5</ele><time>2026-03-22T15:53:11Z</time></trkpt><trkpt lat="42.207712910237774" lon="12.72875567514299"><ele>440.0</ele><time>2026-03-22T15:53:12Z</time></trkpt><trkpt lat="42.20813288589002" lon="12.729291561449669"><ele>445.0</ele><time>2026-03-22T15:53:13Z</time></trkpt><trkpt lat="42.20824233915881" lon="12.729211309974191"><ele>450.0</ele><time>2026-03-22T15:53:14Z</time></trkpt><trkpt lat="42.208341216704014" lon="12.729105441038719"><ele>455.0</ele><time>2026-03-22T15:53:15Z</time></trkpt><trkpt lat="42.208431836594066" lon="12.728977956289707"><ele>460.0</ele><time>2026-03-22T15:53:16Z</time></trkpt><trkpt lat="42.20852180813374" lon="12.728826167347643"><ele>460.0</ele><time>2026-03-22T15:53:17Z</time></trkpt><trkpt lat="42.20860861083201" lon="12.728671735412865"><ele>460.0</ele><time>2026-03-22T15:53:18Z</time></trkpt><trkpt lat="42.208688508847715" lon="12.728518524231829"><ele>460.0</ele><time>2026-03-22T15:53:19Z</time></trkpt><trkpt lat="42.208756062048764" lon="12.72838835834359"><ele>460.0</ele><time>2026-03-22T15:53:20Z</time></trkpt><trkpt lat="42.20881866683853" lon="12.728277992391453"><ele>462.8</ele><time>2026-03-22T15:53:21Z</time></trkpt><trkpt lat="42.20888113114464" lon="12.728171379069998"><ele>465.6</ele><time>2026-03-22T15:53:22Z</time></trkpt><trkpt lat="42.208941786000445" lon="12.728063632815447"><ele>468.4</ele><time>2026-03-22T15:53:23Z</time></trkpt><trkpt lat="42.20900600789766" lon="12.727953469788941"><ele>471.2</ele><time>2026-03-22T15:53:24Z</time></trkpt><trkpt lat="42.20906295428983" lon="12.727852213345665"><ele>474.0</ele><time>2026-03-22T15:53:25Z</time></trkpt><trkpt lat="42.20911431497816" lon="12.727762162325439"><ele>470.6</ele><time>2026-03-22T15:53:26Z</time></trkpt><trkpt lat="42.20918353718385" lon="12.727645843274063"><ele>467.2</ele><time>2026-03-22T15:53:28Z</time></trkpt><trkpt lat="42.209218181568815" lon="12.72755540145622"><ele>463.80000000000007</ele><time>2026-03-22T15:53:30Z</time></trkpt><trkpt lat="42.20926551301459" lon="12.727483619144445"><ele>460.40000000000003</ele><time>2026-03-22T15:53:35Z</time></trkpt><trkpt lat="42.20928150930984" lon="12.727399176315044"><ele>457.0</ele><time>2026-03-22T15:53:37Z</time></trkpt><trkpt lat="42.20936086770371" lon="12.727563085504997"><ele>457.00000000000006</ele><time>2026-03-22T15:53:44Z</time></trkpt><trkpt lat="42.20940320475755" lon="12.72749682479127"><ele>457.0</ele><time>2026-03-22T15:54:57Z</time></trkpt><trkpt lat="42.20937066511829" lon="12.727405302413072"><ele>457.0</ele><time>2026-03-22T15:55:10Z</time></trkpt><trkpt lat="42.209439108873184" lon="12.727403250024132"><ele>457.0</ele><time>2026-03-22T15:55:29Z</time></trkpt><trkpt lat="42.209399793523374" lon="12.727334561429558"><ele>457.00000000000006</ele><time>2026-03-22T15:56:34.999Z</time></trkpt><trkpt lat="42.20940840781988" lon="12.727442304921244"><ele>457.0</ele><time>2026-03-22T15:56:53.031Z</time></trkpt><trkpt lat="42.209265189796305" lon="12.727446904433648"><ele>457.0</ele><time>2026-03-22T15:56:57.029Z</time></trkpt><trkpt lat="42.209430581181984" lon="12.727360354303086"><ele>457.00000000000006</ele><time>2026-03-22T15:57:02.031Z</time></trkpt><trkpt lat="42.209402371095464" lon="12.727446301715949"><ele>457.00000000000006</ele><time>2026-03-22T15:57:19.028Z</time></trkpt><trkpt lat="42.209456761107084" lon="12.727361770771747"><ele>457.0</ele><time>2026-03-22T15:58:02Z</time></trkpt><trkpt lat="42.20936751252852" lon="12.727369881360861"><ele>457.0</ele><time>2026-03-22T16:00:20Z</time></trkpt><trkpt lat="42.20931703233799" lon="12.727426083637969"><ele>457.00000000000006</ele><time>2026-03-22T16:00:27.999Z</time></trkpt><trkpt lat="42.20933321805516" lon="12.727341553095142"><ele>457.0</ele><time>2026-03-22T16:00:58Z</time></trkpt><trkpt lat="42.20933205044128" lon="12.727430286626872"><ele>457.0</ele><time>2026-03-22T16:05:29Z</time></trkpt><trkpt lat="42.209346850400834" lon="12.72751693689709"><ele>457.0</ele><time>2026-03-22T16:05:36Z</time></trkpt><trkpt lat="42.209280875321355" lon="12.727473682901364"><ele>457.00000000000006</ele><time>2026-03-22T16:15:31Z</time></trkpt><trkpt lat="42.20917931557246" lon="12.727595631877497"><ele>457.0</ele><time>2026-03-22T16:15:33Z</time></trkpt><trkpt lat="42.209122687627755" lon="12.727729969080325"><ele>454.0</ele><time>2026-03-22T16:15:34Z</time></trkpt><trkpt lat="42.209056992741026" lon="12.727846878272135"><ele>451.0</ele><time>2026-03-22T16:15:35Z</time></trkpt><trkpt lat="42.20894603085741" lon="12.72791933122923"><ele>448.0</ele><time>2026-03-22T16:15:36Z</time></trkpt><trkpt lat="42.2088785985276" lon="12.72804146122733"><ele>445.0</ele><time>2026-03-22T16:15:37Z</time></trkpt><trkpt lat="42.20880944745637" lon="12.72816670392253"><ele>445.0</ele><time>2026-03-22T16:15:38Z</time></trkpt><trkpt lat="42.20874310032273" lon="12.728286868415807"><ele>445.0</ele><time>2026-03-22T16:15:39Z</time></trkpt><trkpt lat="42.208682662944206" lon="12.72839632971916"><ele>445.0</ele><time>2026-03-22T16:15:40Z</time></trkpt><trkpt lat="42.208629549684865" lon="12.728492525533683"><ele>445.0</ele><time>2026-03-22T16:15:41Z</time></trkpt><trkpt lat="42.20857178597421" lon="12.728597144243398"><ele>445.0</ele><time>2026-03-22T16:15:42Z</time></trkpt><trkpt lat="42.208494282174364" lon="12.728735341207823"><ele>448.75</ele><time>2026-03-22T16:15:43Z</time></trkpt><trkpt lat="42.20841914765468" lon="12.728866177991826"><ele>452.5</ele><time>2026-03-22T16:15:44Z</time></trkpt><trkpt lat="42.20834172072761" lon="12.72898845910062"><ele>456.25</ele><time>2026-03-22T16:15:45Z</time></trkpt><trkpt lat="42.20825436021585" lon="12.729108932053776"><ele>460.0</ele><time>2026-03-22T16:15:46Z</time></trkpt><trkpt lat="42.20816457956417" lon="12.729209427405284"><ele>458.0</ele><time>2026-03-22T16:15:47Z</time></trkpt><trkpt lat="42.20805536756148" lon="12.729287814153373"><ele>456.0</ele><time>2026-03-22T16:15:48Z</time></trkpt><trkpt lat="42.207938165947716" lon="12.729337323182367"><ele>454.0</ele><time>2026-03-22T16:15:49Z</time></trkpt><trkpt lat="42.20782173671782" lon="12.729406326208148"><ele>452.0</ele><time>2026-03-22T16:15:50Z</time></trkpt><trkpt lat="42.207724421438925" lon="12.729497464702987"><ele>452.0</ele><time>2026-03-22T16:15:51Z</time></trkpt><trkpt lat="42.20762662558892" lon="12.729608896215652"><ele>452.0</ele><time>2026-03-22T16:15:52Z</time></trkpt><trkpt lat="42.20751942924896" lon="12.729739785204155"><ele>452.0</ele><time>2026-03-22T16:15:53Z</time></trkpt><trkpt lat="42.20740992761117" lon="12.729881102939741"><ele>452.0</ele><time>2026-03-22T16:15:54Z</time></trkpt><trkpt lat="42.20730220365412" lon="12.73002076689233"><ele>449.25</ele><time>2026-03-22T16:15:55Z</time></trkpt><trkpt lat="42.207212366053135" lon="12.730137179536912"><ele>446.5</ele><time>2026-03-22T16:15:56Z</time></trkpt><trkpt lat="42.20712908509634" lon="12.730244853704816"><ele>443.75</ele><time>2026-03-22T16:15:57Z</time></trkpt><trkpt lat="42.20703984455467" lon="12.730359189025167"><ele>441.0</ele><time>2026-03-22T16:15:58Z</time></trkpt><trkpt lat="42.20695011927312" lon="12.730471434640295"><ele>441.0</ele><time>2026-03-22T16:15:59Z</time></trkpt><trkpt lat="42.20687043739664" lon="12.730572829243913"><ele>441.0</ele><time>2026-03-22T16:16:00Z</time></trkpt><trkpt lat="42.20680318519699" lon="12.730663626840963"><ele>441.0</ele><time>2026-03-22T16:16:00.999Z</time></trkpt><trkpt lat="42.20674407167222" lon="12.730748869400045"><ele>441.0</ele><time>2026-03-22T16:16:01.999Z</time></trkpt><trkpt lat="42.20668465714433" lon="12.73084095677157"><ele>441.0</ele><time>2026-03-22T16:16:02.999Z</time></trkpt><trkpt lat="42.20663527620549" lon="12.730935636188436"><ele>441.0</ele><time>2026-03-22T16:16:03.999Z</time></trkpt><trkpt lat="42.206603454478355" lon="12.73100931620255"><ele>441.0</ele><time>2026-03-22T16:16:04.999Z</time></trkpt><trkpt lat="42.20654695750372" lon="12.731130009240509"><ele>441.0</ele><time>2026-03-22T16:16:06.999Z</time></trkpt><trkpt lat="42.20649779837493" lon="12.731289559304042"><ele>441.0</ele><time>2026-03-22T16:16:08.999Z</time></trkpt><trkpt lat="42.20647249994998" lon="12.731431753042392"><ele>441.0</ele><time>2026-03-22T16:16:10.999Z</time></trkpt><trkpt lat="42.20645648894228" lon="12.731523471013798"><ele>436.0</ele><time>2026-03-22T16:16:12.999Z</time></trkpt><trkpt lat="42.20644884071901" lon="12.731615628575554"><ele>431.0</ele><time>2026-03-22T16:16:14.999Z</time></trkpt><trkpt lat="42.20642109984484" lon="12.731964009526788"><ele>426.0</ele><time>2026-03-22T16:16:16.999Z</time></trkpt><trkpt lat="42.20648360785912" lon="12.731801766231836"><ele>426.0</ele><time>2026-03-22T16:16:18.999Z</time></trkpt><trkpt lat="42.20630785330717" lon="12.732104520783988"><ele>426.0</ele><time>2026-03-22T16:16:20.999Z</time></trkpt><trkpt lat="42.20625275247923" lon="12.732172887741314"><ele>426.0</ele><time>2026-03-22T16:16:22.999Z</time></trkpt><trkpt lat="42.20640240798917" lon="12.731722109133422"><ele>422.0</ele><time>2026-03-22T16:16:23.999Z</time></trkpt><trkpt lat="42.20591010692189" lon="12.731995864146503"><ele>421.99999999999994</ele><time>2026-03-22T16:16:27.999Z</time></trkpt><trkpt lat="42.20589153415245" lon="12.732132930831407"><ele>422.0</ele><time>2026-03-22T16:16:28.999Z</time></trkpt><trkpt lat="42.20587366183199" lon="12.7322712307359"><ele>422.0</ele><time>2026-03-22T16:16:29.999Z</time></trkpt><trkpt lat="42.20585796399588" lon="12.732387929764938"><ele>422.0</ele><time>2026-03-22T16:16:30.999Z</time></trkpt><trkpt lat="42.20584675058935" lon="12.732492697592724"><ele>421.99999999999994</ele><time>2026-03-22T16:16:31.999Z</time></trkpt><trkpt lat="42.20583750211254" lon="12.732578214159698"><ele>422.0</ele><time>2026-03-22T16:16:32.999Z</time></trkpt><trkpt lat="42.20583060605076" lon="12.732710506921563"><ele>420.0</ele><time>2026-03-22T16:16:34.999Z</time></trkpt><trkpt lat="42.205893258128086" lon="12.732789941622622"><ele>418.0</ele><time>2026-03-22T16:16:36.999Z</time></trkpt><trkpt lat="42.205987315007185" lon="12.732824835521765"><ele>416.0</ele><time>2026-03-22T16:16:49.999Z</time></trkpt><trkpt lat="42.20604927562665" lon="12.732860505871448"><ele>414.0</ele><time>2026-03-22T16:16:51.999Z</time></trkpt><trkpt lat="42.205949949416286" lon="12.732885938270197"><ele>412.0</ele><time>2026-03-22T16:16:53.999Z</time></trkpt><trkpt lat="42.205819857127416" lon="12.732863556501638"><ele>412.0</ele><time>2026-03-22T16:16:55.999Z</time></trkpt><trkpt lat="42.20572949142312" lon="12.732860999686414"><ele>412.0</ele><time>2026-03-22T16:16:57.999Z</time></trkpt><trkpt lat="42.205684486274066" lon="12.733368854127436"><ele>412.0</ele><time>2026-03-22T16:16:59.999Z</time></trkpt><trkpt lat="42.205665563890385" lon="12.733485482199391"><ele>412.0</ele><time>2026-03-22T16:17:00.999Z</time></trkpt><trkpt lat="42.205649867056444" lon="12.733618418242076"><ele>412.0</ele><time>2026-03-22T16:17:01.999Z</time></trkpt><trkpt lat="42.20564553012228" lon="12.733757670027053"><ele>412.0</ele><time>2026-03-22T16:17:02.999Z</time></trkpt><trkpt lat="42.205638148423226" lon="12.73389173218391"><ele>412.0</ele><time>2026-03-22T16:17:03.999Z</time></trkpt><trkpt lat="42.20563291411886" lon="12.734025327977461"><ele>417.20000000000005</ele><time>2026-03-22T16:17:04.999Z</time></trkpt><trkpt lat="42.20562307468656" lon="12.734172905187615"><ele>422.4</ele><time>2026-03-22T16:17:05.999Z</time></trkpt><trkpt lat="42.20561917877599" lon="12.734329906360411"><ele>427.59999999999997</ele><time>2026-03-22T16:17:06.999Z</time></trkpt><trkpt lat="42.2056143522147" lon="12.734477602930939"><ele>432.79999999999995</ele><time>2026-03-22T16:17:07.999Z</time></trkpt><trkpt lat="42.20560008911935" lon="12.734622814671802"><ele>438.0</ele><time>2026-03-22T16:17:08.999Z</time></trkpt><trkpt lat="42.20560882919074" lon="12.734776110525472"><ele>440.0</ele><time>2026-03-22T16:17:09.999Z</time></trkpt><trkpt lat="42.205633181154894" lon="12.734947003534954"><ele>442.0</ele><time>2026-03-22T16:17:10.999Z</time></trkpt><trkpt lat="42.20565874743424" lon="12.73511230522054"><ele>444.0</ele><time>2026-03-22T16:17:11.999Z</time></trkpt><trkpt lat="42.205697230075735" lon="12.735277426585162"><ele>446.0</ele><time>2026-03-22T16:17:12.999Z</time></trkpt><trkpt lat="42.2056924182877" lon="12.73556306406156"><ele>441.6</ele><time>2026-03-22T16:17:14.999Z</time></trkpt><trkpt lat="42.20569546620776" lon="12.735669478021464"><ele>437.20000000000005</ele><time>2026-03-22T16:17:15.999Z</time></trkpt><trkpt lat="42.20571160449324" lon="12.73579032130134"><ele>432.79999999999995</ele><time>2026-03-22T16:17:16.999Z</time></trkpt><trkpt lat="42.205750183946286" lon="12.735943320527964"><ele>428.4</ele><time>2026-03-22T16:17:17.999Z</time></trkpt><trkpt lat="42.20576852995565" lon="12.736084826482102"><ele>424.0</ele><time>2026-03-22T16:17:18.999Z</time></trkpt><trkpt lat="42.20579709893443" lon="12.736204136751457"><ele>424.00000000000006</ele><time>2026-03-22T16:17:19.999Z</time></trkpt><trkpt lat="42.20583248993009" lon="12.736301886453859"><ele>424.0</ele><time>2026-03-22T16:17:20.999Z</time></trkpt><trkpt lat="42.20585626228533" lon="12.736439995936438"><ele>424.0</ele><time>2026-03-22T16:17:22.999Z</time></trkpt><trkpt lat="42.20586255268992" lon="12.736545636840722"><ele>424.0</ele><time>2026-03-22T16:17:26.999Z</time></trkpt><trkpt lat="42.20589323783605" lon="12.736634246674592"><ele>424.00000000000006</ele><time>2026-03-22T16:18:33.999Z</time></trkpt><trkpt lat="42.205857339797014" lon="12.7367391499708"><ele>424.0</ele><time>2026-03-22T16:18:35.999Z</time></trkpt><trkpt lat="42.20581437176838" lon="12.736804652588892"><ele>425.0</ele><time>2026-03-22T16:18:36.999Z</time></trkpt><trkpt lat="42.20578725579831" lon="12.73694875080572"><ele>426.0</ele><time>2026-03-22T16:18:38.999Z</time></trkpt><trkpt lat="42.20580553432452" lon="12.737065812180141"><ele>427.0</ele><time>2026-03-22T16:18:39.999Z</time></trkpt><trkpt lat="42.205846684552434" lon="12.737196693052345"><ele>428.0</ele><time>2026-03-22T16:18:40.999Z</time></trkpt><trkpt lat="42.20589843917707" lon="12.73731135230382"><ele>429.0</ele><time>2026-03-22T16:18:41.999Z</time></trkpt><trkpt lat="42.20593679370839" lon="12.737387520869104"><ele>429.0</ele><time>2026-03-22T16:18:42.999Z</time></trkpt><trkpt lat="42.20598001132195" lon="12.737518691042457"><ele>429.0</ele><time>2026-03-22T16:18:44.999Z</time></trkpt><trkpt lat="42.20598941930067" lon="12.73760437610173"><ele>429.0</ele><time>2026-03-22T16:18:45.999Z</time></trkpt><trkpt lat="42.206036382010545" lon="12.7377152184654"><ele>429.0</ele><time>2026-03-22T16:18:47.999Z</time></trkpt><trkpt lat="42.206066026887115" lon="12.73779683781918"><ele>429.0</ele><time>2026-03-22T16:18:48.999Z</time></trkpt><trkpt lat="42.20608922802152" lon="12.737882305789858"><ele>429.0</ele><time>2026-03-22T16:18:49.999Z</time></trkpt><trkpt lat="42.20610106463073" lon="12.738040312385566"><ele>431.6</ele><time>2026-03-22T16:18:51.999Z</time></trkpt><trkpt lat="42.20613728292343" lon="12.73819699617028"><ele>434.2</ele><time>2026-03-22T16:18:53.999Z</time></trkpt><trkpt lat="42.20618627945197" lon="12.7382808810065"><ele>436.80000000000007</ele><time>2026-03-22T16:18:54.999Z</time></trkpt><trkpt lat="42.20622056088587" lon="12.738382305953746"><ele>439.40000000000003</ele><time>2026-03-22T16:18:55.999Z</time></trkpt><trkpt lat="42.206249764128295" lon="12.738482982711702"><ele>442.0</ele><time>2026-03-22T16:18:56.999Z</time></trkpt><trkpt lat="42.20629245813908" lon="12.738612694866971"><ele>445.6</ele><time>2026-03-22T16:18:57.999Z</time></trkpt><trkpt lat="42.2063474240109" lon="12.738755643533365"><ele>449.20000000000005</ele><time>2026-03-22T16:18:58.999Z</time></trkpt><trkpt lat="42.20638264133454" lon="12.738886599007888"><ele>452.8</ele><time>2026-03-22T16:18:59.999Z</time></trkpt><trkpt lat="42.20640655235411" lon="12.73899004429764"><ele>456.4</ele><time>2026-03-22T16:19:00.999Z</time></trkpt><trkpt lat="42.206435339872215" lon="12.739090456533303"><ele>460.0</ele><time>2026-03-22T16:19:01.999Z</time></trkpt><trkpt lat="42.20646469146802" lon="12.739209394118149"><ele>460.0</ele><time>2026-03-22T16:19:02.999Z</time></trkpt><trkpt lat="42.20648696084294" lon="12.739330894268445"><ele>460.0</ele><time>2026-03-22T16:19:03.999Z</time></trkpt><trkpt lat="42.20651772304471" lon="12.739456276501045"><ele>460.0</ele><time>2026-03-22T16:19:04.999Z</time></trkpt><trkpt lat="42.20654963015476" lon="12.739577825877188"><ele>460.0</ele><time>2026-03-22T16:19:05.999Z</time></trkpt><trkpt lat="42.206574237124315" lon="12.739695532400564"><ele>460.0</ele><time>2026-03-22T16:19:06.999Z</time></trkpt><trkpt lat="42.206599199778175" lon="12.739801679600523"><ele>460.1666666666667</ele><time>2026-03-22T16:19:07.999Z</time></trkpt><trkpt lat="42.20661088155962" lon="12.739916919684145"><ele>460.33333333333337</ele><time>2026-03-22T16:19:08.999Z</time></trkpt><trkpt lat="42.2066196469218" lon="12.740046501959172"><ele>460.5</ele><time>2026-03-22T16:19:09.999Z</time></trkpt><trkpt lat="42.206618984688184" lon="12.740147717498184"><ele>460.66666666666663</ele><time>2026-03-22T16:19:10.999Z</time></trkpt><trkpt lat="42.206607244632856" lon="12.74023158363868"><ele>460.8333333333333</ele><time>2026-03-22T16:19:11.999Z</time></trkpt><trkpt lat="42.20656540869492" lon="12.740352477004484"><ele>461.0</ele><time>2026-03-22T16:19:13.999Z</time></trkpt><trkpt lat="42.20653528768903" lon="12.740502111286649"><ele>460.99999999999994</ele><time>2026-03-22T16:19:15.999Z</time></trkpt><trkpt lat="42.20652153000212" lon="12.740587017446702"><ele>461.0</ele><time>2026-03-22T16:19:16.999Z</time></trkpt><trkpt lat="42.206504273789314" lon="12.740674721693367"><ele>461.0</ele><time>2026-03-22T16:19:17.999Z</time></trkpt><trkpt lat="42.2064808588423" lon="12.740775362575567"><ele>461.0</ele><time>2026-03-22T16:19:18.999Z</time></trkpt><trkpt lat="42.20646372607537" lon="12.740866076122908"><ele>460.99999999999994</ele><time>2026-03-22T16:19:19.999Z</time></trkpt><trkpt lat="42.20645974465145" lon="12.740998423383203"><ele>461.0</ele><time>2026-03-22T16:19:21.999Z</time></trkpt><trkpt lat="42.206424730748914" lon="12.741100198566754"><ele>469.0</ele><time>2026-03-22T16:19:23.999Z</time></trkpt><trkpt lat="42.206392702198485" lon="12.741220726365103"><ele>477.0</ele><time>2026-03-22T16:19:25.999Z</time></trkpt><trkpt lat="42.20635648832269" lon="12.741364111814857"><ele>485.0</ele><time>2026-03-22T16:19:27.999Z</time></trkpt><trkpt lat="42.20634323152384" lon="12.741514364351533"><ele>493.0</ele><time>2026-03-22T16:19:30.999Z</time></trkpt><trkpt lat="42.20631724662483" lon="12.741757468674903"><ele>493.00000000000006</ele><time>2026-03-22T16:19:32.999Z</time></trkpt><trkpt lat="42.20631499110188" lon="12.741847010997347"><ele>493.0</ele><time>2026-03-22T16:19:33.999Z</time></trkpt><trkpt lat="42.206312329795" lon="12.742003021777055"><ele>493.0</ele><time>2026-03-22T16:19:35.999Z</time></trkpt><trkpt lat="42.20625395175803" lon="12.741941048240824"><ele>493.0</ele><time>2026-03-22T16:19:39.999Z</time></trkpt><trkpt lat="42.20622445563313" lon="12.741837063556865"><ele>493.00000000000006</ele><time>2026-03-22T16:19:42Z</time></trkpt><trkpt lat="42.20618435908518" lon="12.741740170717778"><ele>493.0</ele><time>2026-03-22T16:19:44Z</time></trkpt><trkpt lat="42.20613608389788" lon="12.74164763316697"><ele>493.00000000000006</ele><time>2026-03-22T16:19:47Z</time></trkpt><trkpt lat="42.20609464997876" lon="12.74156773117103"><ele>493.0</ele><time>2026-03-22T16:19:50Z</time></trkpt><trkpt lat="42.206109548767365" lon="12.74168695410914"><ele>493.0</ele><time>2026-03-22T16:19:52Z</time></trkpt><trkpt lat="42.20610753535226" lon="12.741814783949527"><ele>493.0</ele><time>2026-03-22T16:19:55Z</time></trkpt><trkpt lat="42.206100665018276" lon="12.741904979324891"><ele>493.00000000000006</ele><time>2026-03-22T16:19:56Z</time></trkpt><trkpt lat="42.206090666035195" lon="12.742022923842534"><ele>493.0</ele><time>2026-03-22T16:19:57Z</time></trkpt><trkpt lat="42.20609101717863" lon="12.742136841201722"><ele>495.33333333333337</ele><time>2026-03-22T16:19:58Z</time></trkpt><trkpt lat="42.206101284119704" lon="12.742229024541338"><ele>497.6666666666667</ele><time>2026-03-22T16:19:59Z</time></trkpt><trkpt lat="42.20608846599051" lon="12.742346581222215"><ele>500.0</ele><time>2026-03-22T16:20:00.999Z</time></trkpt><trkpt lat="42.20609382713596" lon="12.742465510967518"><ele>502.33333333333337</ele><time>2026-03-22T16:20:02.999Z</time></trkpt><trkpt lat="42.20608394186474" lon="12.742589310717703"><ele>504.6666666666667</ele><time>2026-03-22T16:20:05.999Z</time></trkpt><trkpt lat="42.206100426415475" lon="12.742726185412987"><ele>507.0</ele><time>2026-03-22T16:20:08.999Z</time></trkpt><trkpt lat="42.206135117788065" lon="12.742852442463219"><ele>508.40000000000003</ele><time>2026-03-22T16:20:10.999Z</time></trkpt><trkpt lat="42.20615820685918" lon="12.74298668091896"><ele>509.80000000000007</ele><time>2026-03-22T16:20:12.999Z</time></trkpt><trkpt lat="42.20618905118796" lon="12.743153322052228"><ele>511.2</ele><time>2026-03-22T16:20:14.999Z</time></trkpt><trkpt lat="42.20620968832142" lon="12.743253458723947"><ele>512.6</ele><time>2026-03-22T16:20:15.999Z</time></trkpt><trkpt lat="42.2062097946466" lon="12.743345921707705"><ele>514.0</ele><time>2026-03-22T16:20:16.999Z</time></trkpt><trkpt lat="42.20619440156168" lon="12.74351134047456"><ele>513.6666666666667</ele><time>2026-03-22T16:20:18.999Z</time></trkpt><trkpt lat="42.2061608799268" lon="12.743653448380163"><ele>513.3333333333334</ele><time>2026-03-22T16:20:20.999Z</time></trkpt><trkpt lat="42.20613881317286" lon="12.743755303137778"><ele>513.0</ele><time>2026-03-22T16:20:21.999Z</time></trkpt><trkpt lat="42.20612618032517" lon="12.743848610046431"><ele>512.6666666666666</ele><time>2026-03-22T16:20:22.999Z</time></trkpt><trkpt lat="42.20609749836128" lon="12.743955125670565"><ele>512.3333333333333</ele><time>2026-03-22T16:20:23.999Z</time></trkpt><trkpt lat="42.20606982208895" lon="12.744050199602759"><ele>512.0</ele><time>2026-03-22T16:20:24.999Z</time></trkpt><trkpt lat="42.206033937869535" lon="12.744165672723804"><ele>512.0</ele><time>2026-03-22T16:20:25.999Z</time></trkpt><trkpt lat="42.20598998765347" lon="12.744314086115356"><ele>512.0</ele><time>2026-03-22T16:20:26.999Z</time></trkpt><trkpt lat="42.20594864662608" lon="12.744450538370883"><ele>512.0</ele><time>2026-03-22T16:20:27.999Z</time></trkpt><trkpt lat="42.205901360975986" lon="12.744595426957762"><ele>512.0</ele><time>2026-03-22T16:20:28.999Z</time></trkpt><trkpt lat="42.20585443489322" lon="12.744746480155442"><ele>510.8</ele><time>2026-03-22T16:20:29.999Z</time></trkpt><trkpt lat="42.20580619200594" lon="12.744890593778338"><ele>509.6</ele><time>2026-03-22T16:20:30.999Z</time></trkpt><trkpt lat="42.20575998385691" lon="12.74502049172172"><ele>508.40000000000003</ele><time>2026-03-22T16:20:31.999Z</time></trkpt><trkpt lat="42.20571453561928" lon="12.745150668341722"><ele>507.20000000000005</ele><time>2026-03-22T16:20:32.999Z</time></trkpt><trkpt lat="42.20566755317159" lon="12.745286019966784"><ele>506.0</ele><time>2026-03-22T16:20:33.999Z</time></trkpt><trkpt lat="42.20562125303607" lon="12.745415643663954"><ele>510.4</ele><time>2026-03-22T16:20:34.999Z</time></trkpt><trkpt lat="42.205580022930945" lon="12.74555440224232"><ele>514.8</ele><time>2026-03-22T16:20:35.999Z</time></trkpt><trkpt lat="42.2055382483866" lon="12.745697740243209"><ele>519.1999999999999</ele><time>2026-03-22T16:20:36.999Z</time></trkpt><trkpt lat="42.2054999462978" lon="12.74580797159845"><ele>523.6</ele><time>2026-03-22T16:20:37.999Z</time></trkpt><trkpt lat="42.20547887035513" lon="12.745923407675317"><ele>528.0</ele><time>2026-03-22T16:20:38.999Z</time></trkpt><trkpt lat="42.20545779455241" lon="12.746006396328463"><ele>526.0</ele><time>2026-03-22T16:20:39.999Z</time></trkpt><trkpt lat="42.205410827737154" lon="12.746086256637945"><ele>524.0</ele><time>2026-03-22T16:20:40.999Z</time></trkpt><trkpt lat="42.20538590585453" lon="12.746223192396988"><ele>522.0</ele><time>2026-03-22T16:20:41.999Z</time></trkpt><trkpt lat="42.20537969170005" lon="12.74633815844831"><ele>520.0</ele><time>2026-03-22T16:20:42.999Z</time></trkpt><trkpt lat="42.20535075859201" lon="12.746477319473435"><ele>518.0</ele><time>2026-03-22T16:20:43.999Z</time></trkpt><trkpt lat="42.20532217804892" lon="12.7466134512944"><ele>518.0</ele><time>2026-03-22T16:20:44.999Z</time></trkpt><trkpt lat="42.205270796331895" lon="12.746751467833343"><ele>518.0</ele><time>2026-03-22T16:20:45.999Z</time></trkpt><trkpt lat="42.205223905642974" lon="12.746874290613343"><ele>518.0</ele><time>2026-03-22T16:20:46.999Z</time></trkpt><trkpt lat="42.2051902908129" lon="12.746950300561085"><ele>518.0</ele><time>2026-03-22T16:20:47.999Z</time></trkpt><trkpt lat="42.205154123981224" lon="12.747101160035351"><ele>518.0</ele><time>2026-03-22T16:20:49.999Z</time></trkpt><trkpt lat="42.20512440564919" lon="12.747176622304188"><ele>515.1666666666666</ele><time>2026-03-22T16:20:50.999Z</time></trkpt><trkpt lat="42.205104738135475" lon="12.747269136391372"><ele>512.3333333333333</ele><time>2026-03-22T16:20:51.999Z</time></trkpt><trkpt lat="42.20507142431066" lon="12.747365825467522"><ele>509.5</ele><time>2026-03-22T16:20:52.999Z</time></trkpt><trkpt lat="42.20502342216245" lon="12.747451070784034"><ele>506.66666666666663</ele><time>2026-03-22T16:20:53.999Z</time></trkpt><trkpt lat="42.20498536975145" lon="12.747528128124543"><ele>503.8333333333333</ele><time>2026-03-22T16:20:54.999Z</time></trkpt><trkpt lat="42.204915483164974" lon="12.747651875862992"><ele>501.0</ele><time>2026-03-22T16:20:56.999Z</time></trkpt><trkpt lat="42.20483319940034" lon="12.747763170875356"><ele>503.3333333333333</ele><time>2026-03-22T16:20:58.999Z</time></trkpt><trkpt lat="42.20475963656231" lon="12.747819199863072"><ele>505.66666666666663</ele><time>2026-03-22T16:20:59.999Z</time></trkpt><trkpt lat="42.20469019799211" lon="12.74787465755051"><ele>508.0</ele><time>2026-03-22T16:21:00.999Z</time></trkpt><trkpt lat="42.204635696766346" lon="12.747924621057567"><ele>510.3333333333333</ele><time>2026-03-22T16:21:01.999Z</time></trkpt><trkpt lat="42.20457402892014" lon="12.747977566433384"><ele>512.6666666666666</ele><time>2026-03-22T16:21:02.999Z</time></trkpt><trkpt lat="42.204508937660435" lon="12.748035301224904"><ele>515.0</ele><time>2026-03-22T16:21:03.999Z</time></trkpt><trkpt lat="42.204447579948834" lon="12.748097476792564"><ele>515.0</ele><time>2026-03-22T16:21:04.999Z</time></trkpt><trkpt lat="42.204391233040724" lon="12.748169881999768"><ele>515.0</ele><time>2026-03-22T16:21:05.999Z</time></trkpt><trkpt lat="42.204333509120296" lon="12.748235258660703"><ele>515.0</ele><time>2026-03-22T16:21:06.999Z</time></trkpt><trkpt lat="42.204264204444925" lon="12.74829513463088"><ele>515.0</ele><time>2026-03-22T16:21:07.999Z</time></trkpt><trkpt lat="42.2041988596861" lon="12.748346479432469"><ele>515.0</ele><time>2026-03-22T16:21:08.999Z</time></trkpt><trkpt lat="42.20413611231413" lon="12.748404160417374"><ele>515.0</ele><time>2026-03-22T16:21:09.999Z</time></trkpt><trkpt lat="42.20405998849049" lon="12.748495701531256"><ele>518.4</ele><time>2026-03-22T16:21:11.999Z</time></trkpt><trkpt lat="42.20398899616429" lon="12.748589883704451"><ele>521.8</ele><time>2026-03-22T16:21:14.999Z</time></trkpt><trkpt lat="42.20386750517269" lon="12.748660742259087"><ele>525.2</ele><time>2026-03-22T16:21:16.999Z</time></trkpt><trkpt lat="42.20378774527163" lon="12.748714868812943"><ele>528.6</ele><time>2026-03-22T16:21:17.999Z</time></trkpt><trkpt lat="42.20370657996539" lon="12.748845357254416"><ele>532.0</ele><time>2026-03-22T16:21:19.999Z</time></trkpt><trkpt lat="42.20367616602093" lon="12.748978058907916"><ele>532.0</ele><time>2026-03-22T16:21:21.999Z</time></trkpt><trkpt lat="42.203611832103576" lon="12.749093957103216"><ele>532.0</ele><time>2026-03-22T16:21:23.999Z</time></trkpt><trkpt lat="42.2035287504983" lon="12.74920085372063"><ele>532.0</ele><time>2026-03-22T16:21:25.999Z</time></trkpt><trkpt lat="42.203428370365806" lon="12.749278797560725"><ele>532.0</ele><time>2026-03-22T16:21:27.999Z</time></trkpt><trkpt lat="42.20337831581886" lon="12.74934034824043"><ele>532.0</ele><time>2026-03-22T16:21:28.999Z</time></trkpt><trkpt lat="42.203319191823184" lon="12.749414794437108"><ele>534.6</ele><time>2026-03-22T16:21:29.999Z</time></trkpt><trkpt lat="42.20327293885945" lon="12.749487236954728"><ele>537.2</ele><time>2026-03-22T16:21:30.999Z</time></trkpt><trkpt lat="42.20315440418789" lon="12.749617546451972"><ele>539.8</ele><time>2026-03-22T16:21:32.999Z</time></trkpt><trkpt lat="42.203083385872176" lon="12.749677425018382"><ele>542.4</ele><time>2026-03-22T16:21:33.999Z</time></trkpt><trkpt lat="42.203015876219794" lon="12.7497963378551"><ele>545.0</ele><time>2026-03-22T16:21:34.999Z</time></trkpt><trkpt lat="42.20289784981706" lon="12.749874912169354"><ele>545.0</ele><time>2026-03-22T16:21:36.999Z</time></trkpt><trkpt lat="42.20283580350111" lon="12.749936360554505"><ele>545.0</ele><time>2026-03-22T16:21:37.999Z</time></trkpt><trkpt lat="42.202769544266495" lon="12.750019957303962"><ele>545.0</ele><time>2026-03-22T16:21:38.999Z</time></trkpt><trkpt lat="42.202718842764114" lon="12.75010274643665"><ele>545.0</ele><time>2026-03-22T16:21:39.999Z</time></trkpt><trkpt lat="42.202657817885665" lon="12.750182648052652"><ele>545.0</ele><time>2026-03-22T16:21:40.999Z</time></trkpt><trkpt lat="42.20262557595677" lon="12.750307363460625"><ele>545.0</ele><time>2026-03-22T16:21:41.999Z</time></trkpt><trkpt lat="42.20260906432402" lon="12.75041310719468"><ele>540.8333333333333</ele><time>2026-03-22T16:21:42.999Z</time></trkpt><trkpt lat="42.20258231933139" lon="12.750502051666015"><ele>536.6666666666666</ele><time>2026-03-22T16:21:43.999Z</time></trkpt><trkpt lat="42.20250178536141" lon="12.750621437487622"><ele>532.5</ele><time>2026-03-22T16:21:45.999Z</time></trkpt><trkpt lat="42.20244349812943" lon="12.750691898091477"><ele>528.3333333333334</ele><time>2026-03-22T16:21:46.999Z</time></trkpt><trkpt lat="42.20238501012504" lon="12.75077442570034"><ele>524.1666666666667</ele><time>2026-03-22T16:21:47.999Z</time></trkpt><trkpt lat="42.20233761390727" lon="12.750846393571003"><ele>520.0</ele><time>2026-03-22T16:21:48.999Z</time></trkpt><trkpt lat="42.202280366734406" lon="12.751017358208538"><ele>524.8333333333334</ele><time>2026-03-22T16:21:50.999Z</time></trkpt><trkpt lat="42.20223870975243" lon="12.751090564863853"><ele>529.6666666666667</ele><time>2026-03-22T16:21:51.999Z</time></trkpt><trkpt lat="42.20219351240987" lon="12.751181382244466"><ele>534.5</ele><time>2026-03-22T16:21:52.999Z</time></trkpt><trkpt lat="42.202135542491746" lon="12.751262569222503"><ele>539.3333333333334</ele><time>2026-03-22T16:21:53.999Z</time></trkpt><trkpt lat="42.202092079969006" lon="12.751348538212861"><ele>544.1666666666666</ele><time>2026-03-22T16:21:54.999Z</time></trkpt><trkpt lat="42.20204744616669" lon="12.75142827617601"><ele>549.0</ele><time>2026-03-22T16:21:55.999Z</time></trkpt><trkpt lat="42.20201007483869" lon="12.751511725283674"><ele>549.0</ele><time>2026-03-22T16:21:56.999Z</time></trkpt><trkpt lat="42.201931122569306" lon="12.75165593411651"><ele>549.0</ele><time>2026-03-22T16:21:58.999Z</time></trkpt><trkpt lat="42.20188765847019" lon="12.751729531976055"><ele>549.0</ele><time>2026-03-22T16:21:59.999Z</time></trkpt><trkpt lat="42.20181237402634" lon="12.75186651735538"><ele>549.0</ele><time>2026-03-22T16:22:01.999Z</time></trkpt><trkpt lat="42.201735642063284" lon="12.751994417467426"><ele>544.6</ele><time>2026-03-22T16:22:03.999Z</time></trkpt><trkpt lat="42.201701392319904" lon="12.752069622249435"><ele>540.2</ele><time>2026-03-22T16:22:04.999Z</time></trkpt><trkpt lat="42.20165769955511" lon="12.752155105982675"><ele>535.8000000000001</ele><time>2026-03-22T16:22:05.999Z</time></trkpt><trkpt lat="42.20157277836293" lon="12.752284167696818"><ele>531.4</ele><time>2026-03-22T16:22:06.999Z</time></trkpt><trkpt lat="42.20151197436755" lon="12.75240211876953"><ele>527.0</ele><time>2026-03-22T16:22:07.999Z</time></trkpt><trkpt lat="42.201468002304715" lon="12.75252978255195"><ele>532.4</ele><time>2026-03-22T16:22:08.999Z</time></trkpt><trkpt lat="42.20142584848097" lon="12.75263283741516"><ele>537.8000000000001</ele><time>2026-03-22T16:22:09.999Z</time></trkpt><trkpt lat="42.20138420107627" lon="12.752734998766586"><ele>543.2</ele><time>2026-03-22T16:22:10.999Z</time></trkpt><trkpt lat="42.20132701981979" lon="12.752885858644024"><ele>548.6</ele><time>2026-03-22T16:22:11.999Z</time></trkpt><trkpt lat="42.20125157735436" lon="12.753030454451084"><ele>554.0</ele><time>2026-03-22T16:22:12.999Z</time></trkpt><trkpt lat="42.20121108662654" lon="12.75314976055577"><ele>554.0</ele><time>2026-03-22T16:22:13.999Z</time></trkpt><trkpt lat="42.20117574071058" lon="12.753278480244829"><ele>554.0</ele><time>2026-03-22T16:22:14.999Z</time></trkpt><trkpt lat="42.2011304669732" lon="12.753394276924901"><ele>554.0</ele><time>2026-03-22T16:22:15.999Z</time></trkpt><trkpt lat="42.2010772559077" lon="12.753495319410051"><ele>554.0</ele><time>2026-03-22T16:22:16.999Z</time></trkpt><trkpt lat="42.201019605928714" lon="12.753642564263654"><ele>554.0</ele><time>2026-03-22T16:22:18.999Z</time></trkpt><trkpt lat="42.200970123244865" lon="12.75372851300429"><ele>550.3333333333333</ele><time>2026-03-22T16:22:20.999Z</time></trkpt><trkpt lat="42.20095204473291" lon="12.753841781374602"><ele>546.6666666666666</ele><time>2026-03-22T16:22:22.999Z</time></trkpt><trkpt lat="42.20090316370164" lon="12.753942545782044"><ele>543.0</ele><time>2026-03-22T16:22:24.999Z</time></trkpt><trkpt lat="42.20087491693804" lon="12.75403060504936"><ele>539.3333333333334</ele><time>2026-03-22T16:22:25.999Z</time></trkpt><trkpt lat="42.20083466199441" lon="12.754110530450877"><ele>535.6666666666667</ele><time>2026-03-22T16:22:26.999Z</time></trkpt><trkpt lat="42.20076863826845" lon="12.754228629191788"><ele>532.0</ele><time>2026-03-22T16:22:28.999Z</time></trkpt><trkpt lat="42.20069143752838" lon="12.754349389837465"><ele>536.6</ele><time>2026-03-22T16:22:30.999Z</time></trkpt><trkpt lat="42.20065738940293" lon="12.754437494353287"><ele>541.2</ele><time>2026-03-22T16:22:31.999Z</time></trkpt><trkpt lat="42.20057954234485" lon="12.754565817043813"><ele>545.8</ele><time>2026-03-22T16:22:33.999Z</time></trkpt><trkpt lat="42.20049219127893" lon="12.754685396197187"><ele>550.4</ele><time>2026-03-22T16:22:35.999Z</time></trkpt><trkpt lat="42.20044602662068" lon="12.754773852429334"><ele>555.0</ele><time>2026-03-22T16:22:36.999Z</time></trkpt><trkpt lat="42.200400380990516" lon="12.754862821431237"><ele>555.0</ele><time>2026-03-22T16:22:37.999Z</time></trkpt><trkpt lat="42.20034625524638" lon="12.754932339042355"><ele>555.0</ele><time>2026-03-22T16:22:38.999Z</time></trkpt><trkpt lat="42.20030100035702" lon="12.755013362453605"><ele>555.0</ele><time>2026-03-22T16:22:39.999Z</time></trkpt><trkpt lat="42.20025381122255" lon="12.75510086879491"><ele>555.0</ele><time>2026-03-22T16:22:40.999Z</time></trkpt><trkpt lat="42.20020294146009" lon="12.755218145456963"><ele>555.0</ele><time>2026-03-22T16:22:41.999Z</time></trkpt><trkpt lat="42.20014831232642" lon="12.75531209392559"><ele>555.0</ele><time>2026-03-22T16:22:42.999Z</time></trkpt><trkpt lat="42.20010712555026" lon="12.755380289919271"><ele>551.5</ele><time>2026-03-22T16:22:43.999Z</time></trkpt><trkpt lat="42.20007172540032" lon="12.755451541456255"><ele>548.0</ele><time>2026-03-22T16:22:44.999Z</time></trkpt><trkpt lat="42.200024535116995" lon="12.755546054148981"><ele>544.5</ele><time>2026-03-22T16:22:45.999Z</time></trkpt><trkpt lat="42.19998737838761" lon="12.75566390674479"><ele>541.0</ele><time>2026-03-22T16:22:46.999Z</time></trkpt><trkpt lat="42.19995514884148" lon="12.755770176806758"><ele>537.5</ele><time>2026-03-22T16:22:47.999Z</time></trkpt><trkpt lat="42.19991558200993" lon="12.75588119069072"><ele>534.0</ele><time>2026-03-22T16:22:48.999Z</time></trkpt><trkpt lat="42.199878592202325" lon="12.755976974065577"><ele>531.6666666666666</ele><time>2026-03-22T16:22:49.999Z</time></trkpt><trkpt lat="42.199847495900336" lon="12.756073997600563"><ele>529.3333333333334</ele><time>2026-03-22T16:22:50.999Z</time></trkpt><trkpt lat="42.199820698493305" lon="12.756154349327526"><ele>527.0</ele><time>2026-03-22T16:22:51.999Z</time></trkpt><trkpt lat="42.199786557062566" lon="12.756228534942686"><ele>524.6666666666667</ele><time>2026-03-22T16:22:52.999Z</time></trkpt><trkpt lat="42.19975682039734" lon="12.756304982714072"><ele>522.3333333333334</ele><time>2026-03-22T16:22:53.999Z</time></trkpt><trkpt lat="42.19970024910572" lon="12.756437696767632"><ele>520.0</ele><time>2026-03-22T16:22:55.999Z</time></trkpt><trkpt lat="42.19966033920888" lon="12.756584170354943"><ele>528.4</ele><time>2026-03-22T16:22:57.999Z</time></trkpt><trkpt lat="42.199615537997246" lon="12.756725632913417"><ele>536.8</ele><time>2026-03-22T16:22:59.999Z</time></trkpt><trkpt lat="42.199570780703205" lon="12.756857955317813"><ele>545.2</ele><time>2026-03-22T16:23:01.999Z</time></trkpt><trkpt lat="42.19954279608282" lon="12.756972639195425"><ele>553.6</ele><time>2026-03-22T16:23:03.999Z</time></trkpt><trkpt lat="42.19948285604697" lon="12.757127890207075"><ele>562.0</ele><time>2026-03-22T16:23:05.999Z</time></trkpt><trkpt lat="42.1994639241231" lon="12.757219238348762"><ele>562.0</ele><time>2026-03-22T16:23:06.999Z</time></trkpt><trkpt lat="42.199460318865206" lon="12.757308536123766"><ele>562.0</ele><time>2026-03-22T16:23:07.999Z</time></trkpt><trkpt lat="42.19942054411341" lon="12.757431122704771"><ele>562.0</ele><time>2026-03-22T16:23:09.999Z</time></trkpt><trkpt lat="42.199391160421165" lon="12.757564696523099"><ele>562.0</ele><time>2026-03-22T16:23:11.999Z</time></trkpt><trkpt lat="42.19936956154962" lon="12.757646868739098"><ele>562.0</ele><time>2026-03-22T16:23:12.999Z</time></trkpt><trkpt lat="42.19930992045422" lon="12.757807225779635"><ele>559.2</ele><time>2026-03-22T16:23:14.999Z</time></trkpt><trkpt lat="42.1992855471784" lon="12.757949028155435"><ele>556.4000000000001</ele><time>2026-03-22T16:23:16.999Z</time></trkpt><trkpt lat="42.199247311385335" lon="12.758098611025439"><ele>553.5999999999999</ele><time>2026-03-22T16:23:18.999Z</time></trkpt><trkpt lat="42.19922240299757" lon="12.758190999716401"><ele>550.8</ele><time>2026-03-22T16:23:20.999Z</time></trkpt><trkpt lat="42.19919171618624" lon="12.758303612055462"><ele>548.0</ele><time>2026-03-22T16:23:22.999Z</time></trkpt><trkpt lat="42.19914916638197" lon="12.758432978587464"><ele>548.0</ele><time>2026-03-22T16:23:24.999Z</time></trkpt><trkpt lat="42.19912338655271" lon="12.758515929163963"><ele>548.0</ele><time>2026-03-22T16:23:25.999Z</time></trkpt><trkpt lat="42.19909904394748" lon="12.758605784221912"><ele>548.0</ele><time>2026-03-22T16:23:26.999Z</time></trkpt><trkpt lat="42.19904947958947" lon="12.758740570176679"><ele>548.0</ele><time>2026-03-22T16:23:28.999Z</time></trkpt><trkpt lat="42.19901972471651" lon="12.758829972386337"><ele>548.0</ele><time>2026-03-22T16:23:29.999Z</time></trkpt><trkpt lat="42.19898613073972" lon="12.758977979008844"><ele>548.0</ele><time>2026-03-22T16:23:31.999Z</time></trkpt><trkpt lat="42.198961730436196" lon="12.759064623146747"><ele>551.1999999999999</ele><time>2026-03-22T16:23:32.999Z</time></trkpt><trkpt lat="42.19893283353532" lon="12.759152350102243"><ele>554.4</ele><time>2026-03-22T16:23:33.999Z</time></trkpt><trkpt lat="42.198893406752646" lon="12.759306121710509"><ele>557.5999999999999</ele><time>2026-03-22T16:23:35.999Z</time></trkpt><trkpt lat="42.19884643975506" lon="12.759457899085971"><ele>560.8</ele><time>2026-03-22T16:23:37.999Z</time></trkpt><trkpt lat="42.19882037781581" lon="12.759538019562012"><ele>564.0</ele><time>2026-03-22T16:23:38.999Z</time></trkpt><trkpt lat="42.198791579202336" lon="12.759626862518479"><ele>564.0</ele><time>2026-03-22T16:23:39.999Z</time></trkpt><trkpt lat="42.198740828152914" lon="12.759750984440563"><ele>564.0</ele><time>2026-03-22T16:23:41.999Z</time></trkpt><trkpt lat="42.19871018331903" lon="12.75983373247783"><ele>564.0</ele><time>2026-03-22T16:23:42.999Z</time></trkpt><trkpt lat="42.19866623529053" lon="12.759926107382501"><ele>564.0</ele><time>2026-03-22T16:23:44.999Z</time></trkpt><trkpt lat="42.19862704453501" lon="12.76005999756862"><ele>564.0</ele><time>2026-03-22T16:23:46.999Z</time></trkpt><trkpt lat="42.198587206749444" lon="12.760135548772706"><ele>564.0</ele><time>2026-03-22T16:23:47.999Z</time></trkpt><trkpt lat="42.19854411197874" lon="12.7602162926714"><ele>560.0</ele><time>2026-03-22T16:23:48.999Z</time></trkpt><trkpt lat="42.19850112775143" lon="12.760294485077125"><ele>556.0</ele><time>2026-03-22T16:23:49.999Z</time></trkpt><trkpt lat="42.198468987021066" lon="12.76037251094312"><ele>552.0</ele><time>2026-03-22T16:23:50.999Z</time></trkpt><trkpt lat="42.1984033617335" lon="12.760516420608447"><ele>548.0</ele><time>2026-03-22T16:23:52.999Z</time></trkpt><trkpt lat="42.198371180667635" lon="12.76059050285568"><ele>544.0</ele><time>2026-03-22T16:23:53.999Z</time></trkpt><trkpt lat="42.198324905287045" lon="12.760656489118766"><ele>540.0</ele><time>2026-03-22T16:23:54.999Z</time></trkpt><trkpt lat="42.19825448174098" lon="12.760780843003344"><ele>540.0</ele><time>2026-03-22T16:23:56.999Z</time></trkpt><trkpt lat="42.1981994625825" lon="12.76085029141601"><ele>540.0</ele><time>2026-03-22T16:23:58.999Z</time></trkpt><trkpt lat="42.19814550653019" lon="12.760900203211952"><ele>540.0</ele><time>2026-03-22T16:24:02.999Z</time></trkpt><trkpt lat="42.19807909702996" lon="12.760938897715159"><ele>540.0</ele><time>2026-03-22T16:24:06.999Z</time></trkpt><trkpt lat="42.197990164385274" lon="12.760982787188933"><ele>540.0</ele><time>2026-03-22T16:24:08.999Z</time></trkpt><trkpt lat="42.19789362461801" lon="12.761023866970692"><ele>540.0</ele><time>2026-03-22T16:24:10.999Z</time></trkpt><trkpt lat="42.19782604489348" lon="12.76104952566505"><ele>537.0</ele><time>2026-03-22T16:24:12.999Z</time></trkpt><trkpt lat="42.19771758310726" lon="12.761070507837264"><ele>534.0</ele><time>2026-03-22T16:24:14.999Z</time></trkpt><trkpt lat="42.19762258373922" lon="12.761084287937772"><ele>531.0</ele><time>2026-03-22T16:24:16.999Z</time></trkpt><trkpt lat="42.197539429610146" lon="12.761111329765745"><ele>528.0</ele><time>2026-03-22T16:24:18.999Z</time></trkpt><trkpt lat="42.1974557252086" lon="12.761135252673887"><ele>525.0</ele><time>2026-03-22T16:24:20.999Z</time></trkpt><trkpt lat="42.19737352409523" lon="12.761192070289521"><ele>531.8333333333334</ele><time>2026-03-22T16:24:22.999Z</time></trkpt><trkpt lat="42.19728388589033" lon="12.761251751188835"><ele>538.6666666666666</ele><time>2026-03-22T16:24:24.999Z</time></trkpt><trkpt lat="42.19720848647137" lon="12.761265368807384"><ele>545.5</ele><time>2026-03-22T16:24:26.999Z</time></trkpt><trkpt lat="42.197116779479096" lon="12.761339448702184"><ele>552.3333333333333</ele><time>2026-03-22T16:24:28.999Z</time></trkpt><trkpt lat="42.19705106708047" lon="12.761381753087104"><ele>559.1666666666666</ele><time>2026-03-22T16:24:30.999Z</time></trkpt><trkpt lat="42.19697120099235" lon="12.761412584162846"><ele>566.0</ele><time>2026-03-22T16:24:32.999Z</time></trkpt><trkpt lat="42.19688607284588" lon="12.761531095956084"><ele>566.0</ele><time>2026-03-22T16:24:34.999Z</time></trkpt><trkpt lat="42.19688795847374" lon="12.761651830386397"><ele>566.0</ele><time>2026-03-22T16:24:35.999Z</time></trkpt><trkpt lat="42.196881455817696" lon="12.761780704999785"><ele>566.0</ele><time>2026-03-22T16:24:36.999Z</time></trkpt><trkpt lat="42.19687554940087" lon="12.761908688884791"><ele>566.0</ele><time>2026-03-22T16:24:37.999Z</time></trkpt><trkpt lat="42.19686642344858" lon="12.762039759912122"><ele>566.0</ele><time>2026-03-22T16:24:38.999Z</time></trkpt><trkpt lat="42.19684153579701" lon="12.76216067919807"><ele>564.3333333333333</ele><time>2026-03-22T16:24:39.999Z</time></trkpt><trkpt lat="42.19682012705049" lon="12.762281759571328"><ele>562.6666666666666</ele><time>2026-03-22T16:24:40.999Z</time></trkpt><trkpt lat="42.196800377685356" lon="12.76240470684794"><ele>561.0</ele><time>2026-03-22T16:24:41.999Z</time></trkpt><trkpt lat="42.19678622673247" lon="12.762535501520055"><ele>559.3333333333334</ele><time>2026-03-22T16:24:42.999Z</time></trkpt><trkpt lat="42.196777687653075" lon="12.76263382172263"><ele>557.6666666666667</ele><time>2026-03-22T16:24:43.999Z</time></trkpt><trkpt lat="42.19676943966361" lon="12.762749807827651"><ele>556.0</ele><time>2026-03-22T16:24:44.999Z</time></trkpt><trkpt lat="42.196760573071614" lon="12.762857303255347"><ele>554.0</ele><time>2026-03-22T16:24:45.999Z</time></trkpt><trkpt lat="42.19674991705211" lon="12.76295372396081"><ele>552.0</ele><time>2026-03-22T16:24:46.999Z</time></trkpt><trkpt lat="42.19674583588932" lon="12.763044380561348"><ele>550.0</ele><time>2026-03-22T16:24:47.999Z</time></trkpt><trkpt lat="42.19673098810212" lon="12.763128939430162"><ele>548.0</ele><time>2026-03-22T16:24:48.999Z</time></trkpt><trkpt lat="42.196700372245104" lon="12.763216454120387"><ele>546.0</ele><time>2026-03-22T16:24:49.999Z</time></trkpt><trkpt lat="42.19663885031609" lon="12.763320565198716"><ele>544.0</ele><time>2026-03-22T16:24:50.999Z</time></trkpt><trkpt lat="42.196572494408954" lon="12.763422171330541"><ele>547.6</ele><time>2026-03-22T16:24:51.999Z</time></trkpt><trkpt lat="42.196509060155776" lon="12.763544988125558"><ele>551.2</ele><time>2026-03-22T16:24:52.999Z</time></trkpt><trkpt lat="42.19644803792846" lon="12.763639653248127"><ele>554.8000000000001</ele><time>2026-03-22T16:24:53.999Z</time></trkpt><trkpt lat="42.19637440100028" lon="12.763737339297553"><ele>558.4</ele><time>2026-03-22T16:24:54.999Z</time></trkpt><trkpt lat="42.19628188715637" lon="12.763841593374332"><ele>562.0</ele><time>2026-03-22T16:24:55.999Z</time></trkpt><trkpt lat="42.19618035659068" lon="12.763925722729835"><ele>562.0</ele><time>2026-03-22T16:24:56.999Z</time></trkpt><trkpt lat="42.19610761943075" lon="12.764005857042545"><ele>562.0</ele><time>2026-03-22T16:24:57.999Z</time></trkpt><trkpt lat="42.19604037387548" lon="12.764107104885406"><ele>562.0</ele><time>2026-03-22T16:24:58.999Z</time></trkpt><trkpt lat="42.19597135785139" lon="12.764226175117093"><ele>562.0</ele><time>2026-03-22T16:24:59.999Z</time></trkpt><trkpt lat="42.19590981132476" lon="12.764322437310987"><ele>562.0</ele><time>2026-03-22T16:25:00.999Z</time></trkpt><trkpt lat="42.19584466738694" lon="12.764407014712377"><ele>562.5</ele><time>2026-03-22T16:25:01.999Z</time></trkpt><trkpt lat="42.19574503051663" lon="12.764507471556035"><ele>563.0</ele><time>2026-03-22T16:25:02.999Z</time></trkpt><trkpt lat="42.19564191907046" lon="12.764628357797024"><ele>563.5</ele><time>2026-03-22T16:25:03.999Z</time></trkpt><trkpt lat="42.19556072346464" lon="12.76475132194486"><ele>564.0</ele><time>2026-03-22T16:25:04.999Z</time></trkpt><trkpt lat="42.19548435025514" lon="12.764871341915812"><ele>564.0</ele><time>2026-03-22T16:25:05.999Z</time></trkpt><trkpt lat="42.195405435599696" lon="12.76495382190371"><ele>564.0</ele><time>2026-03-22T16:25:06.999Z</time></trkpt><trkpt lat="42.19529664462045" lon="12.765039365249203"><ele>564.0</ele><time>2026-03-22T16:25:07.999Z</time></trkpt><trkpt lat="42.195162234280815" lon="12.765128841312274"><ele>564.0</ele><time>2026-03-22T16:25:08.999Z</time></trkpt><trkpt lat="42.195023682465525" lon="12.765221007548071"><ele>564.8</ele><time>2026-03-22T16:25:09.999Z</time></trkpt><trkpt lat="42.19494317170788" lon="12.765274590373977"><ele>565.5999999999999</ele><time>2026-03-22T16:25:10.999Z</time></trkpt><trkpt lat="42.194879992418485" lon="12.765324965878262"><ele>566.4</ele><time>2026-03-22T16:25:11.999Z</time></trkpt><trkpt lat="42.19481201504845" lon="12.765413681009475"><ele>567.1999999999999</ele><time>2026-03-22T16:25:12.999Z</time></trkpt><trkpt lat="42.194724549802984" lon="12.765527922297178"><ele>568.0</ele><time>2026-03-22T16:25:13.999Z</time></trkpt><trkpt lat="42.19463232018621" lon="12.765642073857595"><ele>568.0</ele><time>2026-03-22T16:25:14.999Z</time></trkpt><trkpt lat="42.19453615282826" lon="12.765702457021781"><ele>568.0</ele><time>2026-03-22T16:25:15.999Z</time></trkpt><trkpt lat="42.194435214108864" lon="12.765808239156863"><ele>568.0</ele><time>2026-03-22T16:25:16.999Z</time></trkpt><trkpt lat="42.1943290252943" lon="12.765916933880904"><ele>568.0</ele><time>2026-03-22T16:25:17.999Z</time></trkpt><trkpt lat="42.194200878646754" lon="12.766053002664172"><ele>563.0</ele><time>2026-03-22T16:25:18.999Z</time></trkpt><trkpt lat="42.19406372748785" lon="12.766220912848723"><ele>558.0</ele><time>2026-03-22T16:25:19.999Z</time></trkpt><trkpt lat="42.19394344342942" lon="12.766383805939508"><ele>553.0</ele><time>2026-03-22T16:25:20.999Z</time></trkpt><trkpt lat="42.19384703642109" lon="12.766548734368788"><ele>558.5</ele><time>2026-03-22T16:25:21.999Z</time></trkpt><trkpt lat="42.19376608188941" lon="12.766712022914122"><ele>564.0</ele><time>2026-03-22T16:25:22.999Z</time></trkpt><trkpt lat="42.193707618305424" lon="12.766851036202528"><ele>569.5</ele><time>2026-03-22T16:25:23.999Z</time></trkpt><trkpt lat="42.19365778445225" lon="12.766998133894623"><ele>575.0</ele><time>2026-03-22T16:25:24.999Z</time></trkpt><trkpt lat="42.19363883240302" lon="12.767142256578195"><ele>575.0</ele><time>2026-03-22T16:25:25.999Z</time></trkpt><trkpt lat="42.19362586029678" lon="12.767319076420335"><ele>575.0</ele><time>2026-03-22T16:25:26.999Z</time></trkpt><trkpt lat="42.19359439626288" lon="12.767460884022544"><ele>575.0</ele><time>2026-03-22T16:25:27.999Z</time></trkpt><trkpt lat="42.193538112574046" lon="12.767584492762726"><ele>575.0</ele><time>2026-03-22T16:25:29.999Z</time></trkpt><trkpt lat="42.19347181703279" lon="12.767638353891934"><ele>575.0</ele><time>2026-03-22T16:25:30.999Z</time></trkpt><trkpt lat="42.19341120790206" lon="12.767694962307091"><ele>572.6</ele><time>2026-03-22T16:25:31.999Z</time></trkpt><trkpt lat="42.193345133214734" lon="12.767772093292244"><ele>570.2</ele><time>2026-03-22T16:25:32.999Z</time></trkpt><trkpt lat="42.19329079991397" lon="12.76785483064681"><ele>567.8</ele><time>2026-03-22T16:25:33.999Z</time></trkpt><trkpt lat="42.19322226284236" lon="12.767954053245033"><ele>565.4</ele><time>2026-03-22T16:25:35.999Z</time></trkpt><trkpt lat="42.193165480888155" lon="12.768065611488563"><ele>563.0</ele><time>2026-03-22T16:25:37.999Z</time></trkpt><trkpt lat="42.19310749189334" lon="12.768154661009907"><ele>565.5</ele><time>2026-03-22T16:25:38.999Z</time></trkpt><trkpt lat="42.19303788482458" lon="12.768233321634742"><ele>568.0</ele><time>2026-03-22T16:25:39.999Z</time></trkpt><trkpt lat="42.19297429450185" lon="12.768312147237124"><ele>570.5</ele><time>2026-03-22T16:25:40.999Z</time></trkpt><trkpt lat="42.192909925372916" lon="12.768403059101333"><ele>573.0</ele><time>2026-03-22T16:25:41.999Z</time></trkpt><trkpt lat="42.19285806707718" lon="12.768515403350607"><ele>575.5</ele><time>2026-03-22T16:25:42.999Z</time></trkpt><trkpt lat="42.19281927740246" lon="12.768606044176176"><ele>578.0</ele><time>2026-03-22T16:25:43.999Z</time></trkpt><trkpt lat="42.19276740174935" lon="12.768729302652483"><ele>578.0</ele><time>2026-03-22T16:25:45.999Z</time></trkpt><trkpt lat="42.19267434124485" lon="12.76880432080719"><ele>578.0</ele><time>2026-03-22T16:25:47.999Z</time></trkpt><trkpt lat="42.19259182787454" lon="12.76890326197489"><ele>578.0</ele><time>2026-03-22T16:25:49.999Z</time></trkpt><trkpt lat="42.19251994465394" lon="12.76894394086778"><ele>578.0</ele><time>2026-03-22T16:25:51.999Z</time></trkpt><trkpt lat="42.192463280491516" lon="12.76889562805526"><ele>578.0</ele><time>2026-03-22T16:25:53.999Z</time></trkpt><trkpt lat="42.1923921750369" lon="12.768864581936404"><ele>578.0</ele><time>2026-03-22T16:25:56.999Z</time></trkpt><trkpt lat="42.19233799651698" lon="12.76880840782621"><ele>582.6</ele><time>2026-03-22T16:25:59.999Z</time></trkpt><trkpt lat="42.192283863872824" lon="12.76872872945536"><ele>587.1999999999999</ele><time>2026-03-22T16:26:01.999Z</time></trkpt><trkpt lat="42.19221526223133" lon="12.768656064125517"><ele>591.8</ele><time>2026-03-22T16:26:03.999Z</time></trkpt><trkpt lat="42.192129863161334" lon="12.76856430848423"><ele>596.4</ele><time>2026-03-22T16:26:05.999Z</time></trkpt><trkpt lat="42.19204318997423" lon="12.768600565309288"><ele>601.0</ele><time>2026-03-22T16:26:08.999Z</time></trkpt><trkpt lat="42.19198438552421" lon="12.768713696820043"><ele>601.0</ele><time>2026-03-22T16:26:10.999Z</time></trkpt><trkpt lat="42.19196115056421" lon="12.768800817119779"><ele>601.0</ele><time>2026-03-22T16:26:13.999Z</time></trkpt><trkpt lat="42.191912947285815" lon="12.768860113201539"><ele>601.0</ele><time>2026-03-22T16:26:15.999Z</time></trkpt><trkpt lat="42.19183520376313" lon="12.768922022328573"><ele>601.0</ele><time>2026-03-22T16:26:17.999Z</time></trkpt><trkpt lat="42.19175112410677" lon="12.768870339659758"><ele>601.0</ele><time>2026-03-22T16:26:21.999Z</time></trkpt><trkpt lat="42.19168028212606" lon="12.768851865066335"><ele>601.0</ele><time>2026-03-22T16:26:24.999Z</time></trkpt><trkpt lat="42.1916836038728" lon="12.768765265294647"><ele>601.0</ele><time>2026-03-22T16:26:27.999Z</time></trkpt><trkpt lat="42.19163282956786" lon="12.768686847068304"><ele>601.0</ele><time>2026-03-22T16:26:34.999Z</time></trkpt><trkpt lat="42.191609206530146" lon="12.768578685005908"><ele>601.0</ele><time>2026-03-22T16:26:38.999Z</time></trkpt><trkpt lat="42.1916283722153" lon="12.768491948951324"><ele>601.0</ele><time>2026-03-22T16:26:41.999Z</time></trkpt><trkpt lat="42.19165370468447" lon="12.768411294170372"><ele>601.0</ele><time>2026-03-22T16:26:44.999Z</time></trkpt><trkpt lat="42.191661667341556" lon="12.768322241317748"><ele>601.0</ele><time>2026-03-22T16:26:46.999Z</time></trkpt><trkpt lat="42.19165753588546" lon="12.768219102609567"><ele>601.0</ele><time>2026-03-22T16:26:49.999Z</time></trkpt><trkpt lat="42.19158942163123" lon="12.768215774352178"><ele>605.8333333333334</ele><time>2026-03-22T16:27:06.999Z</time></trkpt><trkpt lat="42.19153285100724" lon="12.768285989308557"><ele>610.6666666666667</ele><time>2026-03-22T16:27:30.999Z</time></trkpt><trkpt lat="42.191468964026754" lon="12.768265293493473"><ele>615.5</ele><time>2026-03-22T16:27:33.999Z</time></trkpt><trkpt lat="42.191376370653174" lon="12.768267466916141"><ele>620.3333333333334</ele><time>2026-03-22T16:27:37.999Z</time></trkpt><trkpt lat="42.1913088418329" lon="12.768254812541922"><ele>625.1666666666666</ele><time>2026-03-22T16:27:39.999Z</time></trkpt><trkpt lat="42.191224161292226" lon="12.768249425321258"><ele>630.0</ele><time>2026-03-22T16:27:41.999Z</time></trkpt><trkpt lat="42.19112487336764" lon="12.768191947741238"><ele>633.1666666666666</ele><time>2026-03-22T16:27:43.999Z</time></trkpt><trkpt lat="42.191026022783404" lon="12.768175283666835"><ele>636.3333333333334</ele><time>2026-03-22T16:27:45.999Z</time></trkpt><trkpt lat="42.19094160033244" lon="12.768144873333888"><ele>639.5</ele><time>2026-03-22T16:27:47.999Z</time></trkpt><trkpt lat="42.190860958792875" lon="12.768120884577804"><ele>642.6666666666667</ele><time>2026-03-22T16:27:49.999Z</time></trkpt><trkpt lat="42.19078685092881" lon="12.768150162076708"><ele>645.8333333333334</ele><time>2026-03-22T16:27:52.999Z</time></trkpt><trkpt lat="42.190723458914675" lon="12.768220482439105"><ele>649.0</ele><time>2026-03-22T16:27:56.999Z</time></trkpt><trkpt lat="42.190650687711894" lon="12.768210681168565"><ele>651.1666666666667</ele><time>2026-03-22T16:28:00.999Z</time></trkpt><trkpt lat="42.19055994519629" lon="12.768209584325598"><ele>653.3333333333334</ele><time>2026-03-22T16:28:03.999Z</time></trkpt><trkpt lat="42.190496397863264" lon="12.768181115338695"><ele>655.5</ele><time>2026-03-22T16:28:05.999Z</time></trkpt><trkpt lat="42.19043188236228" lon="12.768195999138419"><ele>657.6666666666666</ele><time>2026-03-22T16:28:08.999Z</time></trkpt><trkpt lat="42.190354693117015" lon="12.768202727526937"><ele>659.8333333333333</ele><time>2026-03-22T16:28:12.999Z</time></trkpt><trkpt lat="42.1902806467946" lon="12.768196942969794"><ele>662.0</ele><time>2026-03-22T16:28:15.999Z</time></trkpt><trkpt lat="42.19020143872138" lon="12.768154047997047"><ele>662.0</ele><time>2026-03-22T16:28:18.999Z</time></trkpt><trkpt lat="42.190141571751326" lon="12.768121075363236"><ele>662.0</ele><time>2026-03-22T16:28:21.999Z</time></trkpt><trkpt lat="42.19006609205565" lon="12.768133977710077"><ele>662.0</ele><time>2026-03-22T16:28:26.999Z</time></trkpt><trkpt lat="42.18997492616928" lon="12.76816411590169"><ele>662.0</ele><time>2026-03-22T16:28:29.999Z</time></trkpt><trkpt lat="42.189910928235975" lon="12.768200585628053"><ele>662.0</ele><time>2026-03-22T16:28:31.999Z</time></trkpt><trkpt lat="42.18987320558819" lon="12.768270769801454"><ele>662.0</ele><time>2026-03-22T16:28:33.999Z</time></trkpt><trkpt lat="42.189853358081784" lon="12.76837396717481"><ele>662.0</ele><time>2026-03-22T16:28:35.999Z</time></trkpt><trkpt lat="42.189840602430316" lon="12.768462052455458"><ele>661.0</ele><time>2026-03-22T16:28:37.999Z</time></trkpt><trkpt lat="42.18982967369071" lon="12.768564559681826"><ele>660.0</ele><time>2026-03-22T16:28:39.999Z</time></trkpt><trkpt lat="42.189812557060314" lon="12.768697750517562"><ele>659.0</ele><time>2026-03-22T16:28:42.999Z</time></trkpt><trkpt lat="42.189811320954824" lon="12.768805921758114"><ele>658.0</ele><time>2026-03-22T16:28:45.999Z</time></trkpt><trkpt lat="42.18977121825982" lon="12.768919121047277"><ele>657.0</ele><time>2026-03-22T16:28:47.999Z</time></trkpt><trkpt lat="42.18969924573036" lon="12.76895986804068"><ele>656.0</ele><time>2026-03-22T16:28:49.999Z</time></trkpt><trkpt lat="42.18961155587378" lon="12.769085695700335"><ele>656.0</ele><time>2026-03-22T16:28:52.999Z</time></trkpt><trkpt lat="42.189602951995" lon="12.769192871489759"><ele>656.0</ele><time>2026-03-22T16:28:53.999Z</time></trkpt><trkpt lat="42.1895799010075" lon="12.769329325252716"><ele>656.0</ele><time>2026-03-22T16:28:55.999Z</time></trkpt><trkpt lat="42.189527136019095" lon="12.769411307615474"><ele>656.0</ele><time>2026-03-22T16:28:57.999Z</time></trkpt><trkpt lat="42.18952218250478" lon="12.76953108205951"><ele>656.0</ele><time>2026-03-22T16:29:00.999Z</time></trkpt><trkpt lat="42.18950797957501" lon="12.769631991374464"><ele>656.0</ele><time>2026-03-22T16:29:06.999Z</time></trkpt><trkpt lat="42.18953849489434" lon="12.769725106534901"><ele>653.1666666666666</ele><time>2026-03-22T16:29:15.999Z</time></trkpt><trkpt lat="42.18958663387561" lon="12.76980544362707"><ele>650.3333333333333</ele><time>2026-03-22T16:29:20.999Z</time></trkpt><trkpt lat="42.18960190581746" lon="12.769899477339855"><ele>647.5</ele><time>2026-03-22T16:29:23.999Z</time></trkpt><trkpt lat="42.189569518104776" lon="12.770018112703902"><ele>644.6666666666666</ele><time>2026-03-22T16:29:25.999Z</time></trkpt><trkpt lat="42.189523287212495" lon="12.770146307606138"><ele>641.8333333333334</ele><time>2026-03-22T16:29:28Z</time></trkpt><trkpt lat="42.18947035666488" lon="12.770250695463996"><ele>639.0</ele><time>2026-03-22T16:29:30Z</time></trkpt><trkpt lat="42.18940151149319" lon="12.7703722388804"><ele>635.2</ele><time>2026-03-22T16:29:32Z</time></trkpt><trkpt lat="42.1893441468241" lon="12.770505407821677"><ele>631.4</ele><time>2026-03-22T16:29:34Z</time></trkpt><trkpt lat="42.189295849325475" lon="12.770641574341246"><ele>627.6</ele><time>2026-03-22T16:29:36Z</time></trkpt><trkpt lat="42.18923811421056" lon="12.770745446923614"><ele>623.8</ele><time>2026-03-22T16:29:38Z</time></trkpt><trkpt lat="42.18915551412371" lon="12.770792370273014"><ele>620.0</ele><time>2026-03-22T16:29:40Z</time></trkpt><trkpt lat="42.18915308050284" lon="12.770889087676403"><ele>616.6</ele><time>2026-03-22T16:29:42Z</time></trkpt><trkpt lat="42.1891512160037" lon="12.771026782072003"><ele>613.2</ele><time>2026-03-22T16:29:44Z</time></trkpt><trkpt lat="42.189205239865" lon="12.771150107621338"><ele>609.8</ele><time>2026-03-22T16:29:46Z</time></trkpt><trkpt lat="42.18924371000527" lon="12.771266772001555"><ele>606.4</ele><time>2026-03-22T16:29:48Z</time></trkpt><trkpt lat="42.18927745551687" lon="12.771426183988815"><ele>603.0</ele><time>2026-03-22T16:29:50Z</time></trkpt><trkpt lat="42.18927253577666" lon="12.771595489954677"><ele>603.0</ele><time>2026-03-22T16:29:52Z</time></trkpt><trkpt lat="42.18924123254981" lon="12.771678286542283"><ele>603.0</ele><time>2026-03-22T16:29:53Z</time></trkpt><trkpt lat="42.18922782355288" lon="12.771762105699729"><ele>603.0</ele><time>2026-03-22T16:29:54Z</time></trkpt><trkpt lat="42.1891967074017" lon="12.771849592900352"><ele>603.0</ele><time>2026-03-22T16:29:55Z</time></trkpt><trkpt lat="42.18917604820755" lon="12.771947017776911"><ele>603.0</ele><time>2026-03-22T16:29:56Z</time></trkpt><trkpt lat="42.189153443077934" lon="12.772067235209462"><ele>603.0</ele><time>2026-03-22T16:29:57Z</time></trkpt><trkpt lat="42.18911663952622" lon="12.772228890600283"><ele>601.5</ele><time>2026-03-22T16:29:58Z</time></trkpt><trkpt lat="42.18908240365759" lon="12.772407822806246"><ele>600.0</ele><time>2026-03-22T16:29:59Z</time></trkpt><trkpt lat="42.18905520137092" lon="12.772579437427673"><ele>598.5</ele><time>2026-03-22T16:30:00Z</time></trkpt><trkpt lat="42.18904181278557" lon="12.772744620189666"><ele>597.0</ele><time>2026-03-22T16:30:01Z</time></trkpt><trkpt lat="42.18902544332983" lon="12.772905057331075"><ele>597.5</ele><time>2026-03-22T16:30:02Z</time></trkpt><trkpt lat="42.189000507871086" lon="12.77303644516696"><ele>598.0</ele><time>2026-03-22T16:30:03Z</time></trkpt><trkpt lat="42.188967351895236" lon="12.773134833873154"><ele>598.5</ele><time>2026-03-22T16:30:04Z</time></trkpt><trkpt lat="42.18891011488559" lon="12.77322522699638"><ele>599.0</ele><time>2026-03-22T16:30:05Z</time></trkpt><trkpt lat="42.18884448497927" lon="12.773322167432445"><ele>599.5</ele><time>2026-03-22T16:30:06Z</time></trkpt><trkpt lat="42.18879857600926" lon="12.773400059479634"><ele>600.0</ele><time>2026-03-22T16:30:07Z</time></trkpt><trkpt lat="42.188707582201296" lon="12.773537660945737"><ele>600.0</ele><time>2026-03-22T16:30:09Z</time></trkpt><trkpt lat="42.18864533078698" lon="12.773617527649954"><ele>600.0</ele><time>2026-03-22T16:30:10Z</time></trkpt><trkpt lat="42.18858000675131" lon="12.773704415726659"><ele>600.0</ele><time>2026-03-22T16:30:11Z</time></trkpt><trkpt lat="42.188505292862146" lon="12.773805777598097"><ele>600.0</ele><time>2026-03-22T16:30:12Z</time></trkpt><trkpt lat="42.188420868785926" lon="12.773931312235442"><ele>600.0</ele><time>2026-03-22T16:30:13Z</time></trkpt><trkpt lat="42.18833432642878" lon="12.774056873825256"><ele>600.0</ele><time>2026-03-22T16:30:14Z</time></trkpt><trkpt lat="42.18824976796899" lon="12.774191153211174"><ele>600.0</ele><time>2026-03-22T16:30:15Z</time></trkpt><trkpt lat="42.188173650195125" lon="12.774322721998775"><ele>600.0</ele><time>2026-03-22T16:30:16Z</time></trkpt><trkpt lat="42.18811759055943" lon="12.774448418757702"><ele>600.0</ele><time>2026-03-22T16:30:17Z</time></trkpt><trkpt lat="42.188085569553714" lon="12.77455106094925"><ele>600.0</ele><time>2026-03-22T16:30:18Z</time></trkpt><trkpt lat="42.18806326828386" lon="12.774709447952542"><ele>600.8</ele><time>2026-03-22T16:30:20Z</time></trkpt><trkpt lat="42.1880338189233" lon="12.774796277559632"><ele>601.6</ele><time>2026-03-22T16:30:21Z</time></trkpt><trkpt lat="42.187983102366275" lon="12.77489726305786"><ele>602.4</ele><time>2026-03-22T16:30:22Z</time></trkpt><trkpt lat="42.18791921791427" lon="12.775015979351322"><ele>603.2</ele><time>2026-03-22T16:30:23Z</time></trkpt><trkpt lat="42.18784296502993" lon="12.775157577318943"><ele>604.0</ele><time>2026-03-22T16:30:24Z</time></trkpt><trkpt lat="42.18775755920269" lon="12.775309158312378"><ele>604.0</ele><time>2026-03-22T16:30:25Z</time></trkpt><trkpt lat="42.187672552714425" lon="12.775460721854419"><ele>604.0</ele><time>2026-03-22T16:30:26Z</time></trkpt><trkpt lat="42.187579310031374" lon="12.77560036796076"><ele>604.0</ele><time>2026-03-22T16:30:27Z</time></trkpt><trkpt lat="42.187486560995474" lon="12.775728667450693"><ele>604.0</ele><time>2026-03-22T16:30:28Z</time></trkpt><trkpt lat="42.18740676119536" lon="12.775853470364147"><ele>601.75</ele><time>2026-03-22T16:30:29Z</time></trkpt><trkpt lat="42.18733085766144" lon="12.77597668711813"><ele>599.5</ele><time>2026-03-22T16:30:30Z</time></trkpt><trkpt lat="42.187263893769924" lon="12.776109320434774"><ele>597.25</ele><time>2026-03-22T16:30:31Z</time></trkpt><trkpt lat="42.18720301556052" lon="12.776236926531464"><ele>595.0</ele><time>2026-03-22T16:30:32Z</time></trkpt><trkpt lat="42.187135155370356" lon="12.776353382440549"><ele>595.0</ele><time>2026-03-22T16:30:33Z</time></trkpt><trkpt lat="42.18707153557712" lon="12.776454429334931"><ele>595.0</ele><time>2026-03-22T16:30:34Z</time></trkpt><trkpt lat="42.18701550816531" lon="12.776550727553554"><ele>595.0</ele><time>2026-03-22T16:30:35Z</time></trkpt><trkpt lat="42.186952003338675" lon="12.776618451973441"><ele>595.0</ele><time>2026-03-22T16:30:36Z</time></trkpt><trkpt lat="42.18687659629022" lon="12.77667677551019"><ele>595.0</ele><time>2026-03-22T16:30:37Z</time></trkpt><trkpt lat="42.18680119171524" lon="12.776714128422242"><ele>595.0</ele><time>2026-03-22T16:30:38Z</time></trkpt><trkpt lat="42.186740493342526" lon="12.776770131685879"><ele>594.8</ele><time>2026-03-22T16:30:39Z</time></trkpt><trkpt lat="42.18671379584177" lon="12.776924021008977"><ele>594.6</ele><time>2026-03-22T16:30:41Z</time></trkpt><trkpt lat="42.186708956644" lon="12.777018326040915"><ele>594.4</ele><time>2026-03-22T16:30:42Z</time></trkpt><trkpt lat="42.18671900086617" lon="12.777161272223532"><ele>594.2</ele><time>2026-03-22T16:30:44Z</time></trkpt><trkpt lat="42.1867908481217" lon="12.77716375781519"><ele>594.0</ele><time>2026-03-22T16:30:47Z</time></trkpt><trkpt lat="42.18687201328246" lon="12.77721170628764"><ele>594.0</ele><time>2026-03-22T16:30:50Z</time></trkpt><trkpt lat="42.186875307295765" lon="12.77737274839294"><ele>594.0</ele><time>2026-03-22T16:30:52Z</time></trkpt><trkpt lat="42.186925807617094" lon="12.777497248118925"><ele>594.0</ele><time>2026-03-22T16:30:54Z</time></trkpt><trkpt lat="42.18696167985316" lon="12.777580138719369"><ele>594.0</ele><time>2026-03-22T16:30:55Z</time></trkpt><trkpt lat="42.186907453213614" lon="12.777727770552648"><ele>594.0</ele><time>2026-03-22T16:30:57Z</time></trkpt><trkpt lat="42.1868732952936" lon="12.777828376352868"><ele>593.8</ele><time>2026-03-22T16:30:58Z</time></trkpt><trkpt lat="42.18684716514217" lon="12.777952505907054"><ele>593.5999999999999</ele><time>2026-03-22T16:30:59Z</time></trkpt><trkpt lat="42.18681906879322" lon="12.778078342940669"><ele>593.4</ele><time>2026-03-22T16:31:00Z</time></trkpt><trkpt lat="42.18678214864458" lon="12.77821278498892"><ele>593.1999999999999</ele><time>2026-03-22T16:31:01Z</time></trkpt><trkpt lat="42.18674733630674" lon="12.778313274174678"><ele>593.0</ele><time>2026-03-22T16:31:02Z</time></trkpt><trkpt lat="42.18672329825953" lon="12.778421166389926"><ele>592.6666666666666</ele><time>2026-03-22T16:31:03Z</time></trkpt><trkpt lat="42.186697642215215" lon="12.778518536785981"><ele>592.3333333333333</ele><time>2026-03-22T16:31:04Z</time></trkpt><trkpt lat="42.18665899025125" lon="12.778618784911513"><ele>592.0</ele><time>2026-03-22T16:31:05Z</time></trkpt><trkpt lat="42.18663229992521" lon="12.778706268205182"><ele>591.6666666666666</ele><time>2026-03-22T16:31:06Z</time></trkpt><trkpt lat="42.186599258821104" lon="12.778850812391823"><ele>591.3333333333334</ele><time>2026-03-22T16:31:08Z</time></trkpt><trkpt lat="42.18657048485463" lon="12.778932202918083"><ele>591.0</ele><time>2026-03-22T16:31:09Z</time></trkpt><trkpt lat="42.186534652775535" lon="12.779016855189425"><ele>590.0</ele><time>2026-03-22T16:31:10Z</time></trkpt><trkpt lat="42.18650592361247" lon="12.779101426868108"><ele>589.0</ele><time>2026-03-22T16:31:11Z</time></trkpt><trkpt lat="42.18648665119412" lon="12.779204348917782"><ele>588.0</ele><time>2026-03-22T16:31:12Z</time></trkpt><trkpt lat="42.18645683927499" lon="12.779308249782435"><ele>587.0</ele><time>2026-03-22T16:31:13Z</time></trkpt><trkpt lat="42.18642901160394" lon="12.779420016153276"><ele>586.0</ele><time>2026-03-22T16:31:14Z</time></trkpt><trkpt lat="42.18638912490258" lon="12.779541237828575"><ele>585.0</ele><time>2026-03-22T16:31:15Z</time></trkpt><trkpt lat="42.18634731727943" lon="12.779660069573907"><ele>585.0</ele><time>2026-03-22T16:31:16Z</time></trkpt><trkpt lat="42.186300392634585" lon="12.779770982953208"><ele>585.0</ele><time>2026-03-22T16:31:17Z</time></trkpt><trkpt lat="42.186240502474526" lon="12.779869954366239"><ele>585.0</ele><time>2026-03-22T16:31:18Z</time></trkpt><trkpt lat="42.1861737280772" lon="12.779969466765705"><ele>585.0</ele><time>2026-03-22T16:31:19Z</time></trkpt><trkpt lat="42.18613556408782" lon="12.780048957024851"><ele>585.0</ele><time>2026-03-22T16:31:20Z</time></trkpt><trkpt lat="42.18613481151117" lon="12.78021801650322"><ele>584.0</ele><time>2026-03-22T16:31:22Z</time></trkpt><trkpt lat="42.18614060753772" lon="12.780320957280846"><ele>583.0</ele><time>2026-03-22T16:31:23Z</time></trkpt><trkpt lat="42.186114612169504" lon="12.780418971643162"><ele>582.0</ele><time>2026-03-22T16:31:24Z</time></trkpt><trkpt lat="42.18605947582388" lon="12.780522758254275"><ele>581.0</ele><time>2026-03-22T16:31:25Z</time></trkpt><trkpt lat="42.18600362712432" lon="12.780620156494159"><ele>580.0</ele><time>2026-03-22T16:31:26Z</time></trkpt><trkpt lat="42.185945195438165" lon="12.780712809769344"><ele>579.0</ele><time>2026-03-22T16:31:27Z</time></trkpt><trkpt lat="42.18589082640915" lon="12.780805142318393"><ele>579.0</ele><time>2026-03-22T16:31:28Z</time></trkpt><trkpt lat="42.185841675407886" lon="12.780899595577472"><ele>579.0</ele><time>2026-03-22T16:31:29Z</time></trkpt><trkpt lat="42.18580507300158" lon="12.780989905543844"><ele>579.0</ele><time>2026-03-22T16:31:30Z</time></trkpt><trkpt lat="42.18579238984082" lon="12.781097698798362"><ele>579.0</ele><time>2026-03-22T16:31:31Z</time></trkpt><trkpt lat="42.18579689752103" lon="12.781206915085853"><ele>579.0</ele><time>2026-03-22T16:31:32Z</time></trkpt><trkpt lat="42.18581426615605" lon="12.781312194284574"><ele>579.0</ele><time>2026-03-22T16:31:33Z</time></trkpt><trkpt lat="42.185834805231266" lon="12.781397881823974"><ele>576.2</ele><time>2026-03-22T16:31:34Z</time></trkpt><trkpt lat="42.185834404199085" lon="12.781484069302335"><ele>573.4</ele><time>2026-03-22T16:31:35Z</time></trkpt><trkpt lat="42.1857782535584" lon="12.78163200329948"><ele>570.6</ele><time>2026-03-22T16:31:37Z</time></trkpt><trkpt lat="42.18573902797931" lon="12.78176802807482"><ele>567.8</ele><time>2026-03-22T16:31:39Z</time></trkpt><trkpt lat="42.185747868625946" lon="12.78193517681475"><ele>565.0</ele><time>2026-03-22T16:31:41Z</time></trkpt><trkpt lat="42.185727833563845" lon="12.782082785392197"><ele>562.8333333333334</ele><time>2026-03-22T16:31:43Z</time></trkpt><trkpt lat="42.18568355581704" lon="12.782155599508975"><ele>560.6666666666667</ele><time>2026-03-22T16:31:44Z</time></trkpt><trkpt lat="42.185624545227064" lon="12.78222667803162"><ele>558.5</ele><time>2026-03-22T16:31:45Z</time></trkpt><trkpt lat="42.18556266985305" lon="12.782297774611267"><ele>556.3333333333334</ele><time>2026-03-22T16:31:46Z</time></trkpt><trkpt lat="42.18550213168468" lon="12.782363528248904"><ele>554.1666666666666</ele><time>2026-03-22T16:31:47Z</time></trkpt><trkpt lat="42.18545251073056" lon="12.782417744367478"><ele>552.0</ele><time>2026-03-22T16:31:48Z</time></trkpt><trkpt lat="42.18540508938566" lon="12.78258042205995"><ele>551.1428571428571</ele><time>2026-03-22T16:31:50Z</time></trkpt><trkpt lat="42.18538426203548" lon="12.782678536494755"><ele>550.2857142857143</ele><time>2026-03-22T16:31:51Z</time></trkpt><trkpt lat="42.185352374847696" lon="12.782785145988102"><ele>549.4285714285714</ele><time>2026-03-22T16:31:52Z</time></trkpt><trkpt lat="42.18531436106134" lon="12.782878120953205"><ele>548.5714285714286</ele><time>2026-03-22T16:31:53Z</time></trkpt><trkpt lat="42.18527716417823" lon="12.782963578182564"><ele>547.7142857142858</ele><time>2026-03-22T16:31:54Z</time></trkpt><trkpt lat="42.18523905780954" lon="12.783039585313979"><ele>546.8571428571429</ele><time>2026-03-22T16:31:55Z</time></trkpt><trkpt lat="42.185205254012295" lon="12.783119639773906"><ele>546.0</ele><time>2026-03-22T16:31:56Z</time></trkpt><trkpt lat="42.18515692636252" lon="12.783249257422938"><ele>543.6</ele><time>2026-03-22T16:31:58Z</time></trkpt><trkpt lat="42.18510841442015" lon="12.783353781913403"><ele>541.2</ele><time>2026-03-22T16:32:00Z</time></trkpt><trkpt lat="42.18508148196567" lon="12.783481191401298"><ele>538.8</ele><time>2026-03-22T16:32:02Z</time></trkpt><trkpt lat="42.18510257848614" lon="12.78361311191482"><ele>536.4</ele><time>2026-03-22T16:32:04Z</time></trkpt><trkpt lat="42.185139405332485" lon="12.78374104516547"><ele>534.0</ele><time>2026-03-22T16:32:06Z</time></trkpt><trkpt lat="42.185153354130904" lon="12.78387116598527"><ele>531.5</ele><time>2026-03-22T16:32:08Z</time></trkpt><trkpt lat="42.18514566889521" lon="12.783974466928637"><ele>529.0</ele><time>2026-03-22T16:32:10Z</time></trkpt><trkpt lat="42.185190536197915" lon="12.784094375368374"><ele>526.5</ele><time>2026-03-22T16:32:13Z</time></trkpt><trkpt lat="42.185237113135415" lon="12.784152365668783"><ele>524.0</ele><time>2026-03-22T16:32:14Z</time></trkpt><trkpt lat="42.185289848904134" lon="12.784244099730097"><ele>521.5</ele><time>2026-03-22T16:32:16Z</time></trkpt><trkpt lat="42.185358452759324" lon="12.784245672187685"><ele>519.0</ele><time>2026-03-22T16:32:18Z</time></trkpt><trkpt lat="42.18543077370372" lon="12.784286066288807"><ele>517.0</ele><time>2026-03-22T16:32:21Z</time></trkpt><trkpt lat="42.18544394838435" lon="12.784376641880009"><ele>515.0</ele><time>2026-03-22T16:32:23Z</time></trkpt><trkpt lat="42.18547155957686" lon="12.784485592996457"><ele>513.0</ele><time>2026-03-22T16:32:25Z</time></trkpt><trkpt lat="42.18549640088046" lon="12.784580244869364"><ele>511.0</ele><time>2026-03-22T16:32:27Z</time></trkpt><trkpt lat="42.185533792106305" lon="12.78465523775732"><ele>508.99999999999994</ele><time>2026-03-22T16:32:29Z</time></trkpt><trkpt lat="42.18559646292723" lon="12.784711181284916"><ele>507.0</ele><time>2026-03-22T16:32:31Z</time></trkpt><trkpt lat="42.185609575425325" lon="12.78481571262811"><ele>505.0</ele><time>2026-03-22T16:32:33Z</time></trkpt><trkpt lat="42.1856095749138" lon="12.784932872440203"><ele>505.00000000000006</ele><time>2026-03-22T16:32:35Z</time></trkpt><trkpt lat="42.18560836184948" lon="12.785067062174958"><ele>505.0</ele><time>2026-03-22T16:32:37Z</time></trkpt><trkpt lat="42.185584321008236" lon="12.785181965901891"><ele>505.0</ele><time>2026-03-22T16:32:38Z</time></trkpt><trkpt lat="42.18557383365877" lon="12.785303485453195"><ele>505.0</ele><time>2026-03-22T16:32:39Z</time></trkpt><trkpt lat="42.185573366786834" lon="12.785407671173799"><ele>505.00000000000006</ele><time>2026-03-22T16:32:40Z</time></trkpt><trkpt lat="42.1855735869302" lon="12.785508431674815"><ele>505.0</ele><time>2026-03-22T16:32:41Z</time></trkpt><trkpt lat="42.18558296660811" lon="12.785598922327546"><ele>501.33333333333337</ele><time>2026-03-22T16:32:42Z</time></trkpt><trkpt lat="42.18564432322553" lon="12.785736435483319"><ele>497.6666666666667</ele><time>2026-03-22T16:32:44Z</time></trkpt><trkpt lat="42.18568894060755" lon="12.78582149701926"><ele>494.0</ele><time>2026-03-22T16:32:45Z</time></trkpt><trkpt lat="42.18571439961488" lon="12.7859123445161"><ele>490.33333333333337</ele><time>2026-03-22T16:32:46Z</time></trkpt><trkpt lat="42.1857231418477" lon="12.786006049478322"><ele>486.6666666666667</ele><time>2026-03-22T16:32:47Z</time></trkpt><trkpt lat="42.18575572453666" lon="12.786141085048111"><ele>483.0</ele><time>2026-03-22T16:32:49Z</time></trkpt><trkpt lat="42.185813479067896" lon="12.786254168047488"><ele>481.1666666666667</ele><time>2026-03-22T16:32:51Z</time></trkpt><trkpt lat="42.18589117052288" lon="12.786345285441755"><ele>479.33333333333337</ele><time>2026-03-22T16:32:54Z</time></trkpt><trkpt lat="42.18594362010542" lon="12.78640210183562"><ele>477.5</ele><time>2026-03-22T16:32:56Z</time></trkpt><trkpt lat="42.1859968451239" lon="12.78648620548145"><ele>475.6666666666667</ele><time>2026-03-22T16:33:07Z</time></trkpt><trkpt lat="42.18605298619449" lon="12.786553946023064"><ele>473.83333333333337</ele><time>2026-03-22T16:35:22Z</time></trkpt><trkpt lat="42.1861093629542" lon="12.786691440776881"><ele>472.0</ele><time>2026-03-22T16:35:24Z</time></trkpt><trkpt lat="42.186138580402194" lon="12.78679559522818"><ele>470.20000000000005</ele><time>2026-03-22T16:35:25Z</time></trkpt><trkpt lat="42.18610344699688" lon="12.786954983951023"><ele>468.40000000000003</ele><time>2026-03-22T16:35:26Z</time></trkpt><trkpt lat="42.18614519551998" lon="12.787041541614192"><ele>466.59999999999997</ele><time>2026-03-22T16:35:27Z</time></trkpt><trkpt lat="42.1861888973767" lon="12.787138118898778"><ele>464.79999999999995</ele><time>2026-03-22T16:35:28Z</time></trkpt><trkpt lat="42.18623280273452" lon="12.787235145902725"><ele>463.0</ele><time>2026-03-22T16:35:29Z</time></trkpt><trkpt lat="42.18628819858593" lon="12.78734904311008"><ele>463.0</ele><time>2026-03-22T16:35:30Z</time></trkpt><trkpt lat="42.186362547388306" lon="12.787477397447338"><ele>463.0</ele><time>2026-03-22T16:35:31Z</time></trkpt><trkpt lat="42.18645608459736" lon="12.78760233264277"><ele>463.0</ele><time>2026-03-22T16:35:32Z</time></trkpt><trkpt lat="42.1865446418231" lon="12.787741353777221"><ele>463.0</ele><time>2026-03-22T16:35:33Z</time></trkpt><trkpt lat="42.18664271755695" lon="12.787860336715866"><ele>465.59999999999997</ele><time>2026-03-22T16:35:34Z</time></trkpt><trkpt lat="42.18673434154945" lon="12.78794243613788"><ele>468.19999999999993</ele><time>2026-03-22T16:35:35Z</time></trkpt><trkpt lat="42.18682403410425" lon="12.787963204021905"><ele>470.8</ele><time>2026-03-22T16:35:36Z</time></trkpt><trkpt lat="42.18691168721265" lon="12.787956689039715"><ele>473.4</ele><time>2026-03-22T16:35:37Z</time></trkpt><trkpt lat="42.18701516417889" lon="12.787972993157819"><ele>476.0</ele><time>2026-03-22T16:35:38Z</time></trkpt><trkpt lat="42.18711345567712" lon="12.788030042965437"><ele>476.0</ele><time>2026-03-22T16:35:39Z</time></trkpt><trkpt lat="42.187177059327894" lon="12.788158258195915"><ele>476.0</ele><time>2026-03-22T16:35:40Z</time></trkpt><trkpt lat="42.187278107393084" lon="12.78829931535979"><ele>476.0</ele><time>2026-03-22T16:35:41Z</time></trkpt><trkpt lat="42.18738588731185" lon="12.788443033931985"><ele>476.0</ele><time>2026-03-22T16:35:42Z</time></trkpt><trkpt lat="42.187475227193374" lon="12.7885850969422"><ele>474.0</ele><time>2026-03-22T16:35:43Z</time></trkpt><trkpt lat="42.187561412217676" lon="12.788690177523094"><ele>472.0</ele><time>2026-03-22T16:35:44Z</time></trkpt><trkpt lat="42.18765662928298" lon="12.78879019855197"><ele>470.0</ele><time>2026-03-22T16:35:45Z</time></trkpt><trkpt lat="42.18773435143666" lon="12.78888661553813"><ele>468.0</ele><time>2026-03-22T16:35:46Z</time></trkpt><trkpt lat="42.18781834898568" lon="12.788998473007961"><ele>468.0</ele><time>2026-03-22T16:35:47Z</time></trkpt><trkpt lat="42.187932612026195" lon="12.789143887549791"><ele>468.0</ele><time>2026-03-22T16:35:48Z</time></trkpt><trkpt lat="42.18804233726709" lon="12.789295625338848"><ele>468.0</ele><time>2026-03-22T16:35:49Z</time></trkpt><trkpt lat="42.18814427300213" lon="12.789446893870988"><ele>466.5</ele><time>2026-03-22T16:35:50Z</time></trkpt><trkpt lat="42.18824609210133" lon="12.789600311056251"><ele>465.0</ele><time>2026-03-22T16:35:51Z</time></trkpt><trkpt lat="42.188340440036605" lon="12.789741297372014"><ele>463.5</ele><time>2026-03-22T16:35:52Z</time></trkpt><trkpt lat="42.18843989912332" lon="12.789882174956313"><ele>462.0</ele><time>2026-03-22T16:35:53Z</time></trkpt><trkpt lat="42.18853848885609" lon="12.79001294332681"><ele>462.0</ele><time>2026-03-22T16:35:54Z</time></trkpt><trkpt lat="42.1886356189273" lon="12.790134269259696"><ele>462.0</ele><time>2026-03-22T16:35:55Z</time></trkpt><trkpt lat="42.18872464422186" lon="12.790247856906705"><ele>462.0</ele><time>2026-03-22T16:35:56Z</time></trkpt><trkpt lat="42.188818653347525" lon="12.790367709079854"><ele>462.0</ele><time>2026-03-22T16:35:57Z</time></trkpt><trkpt lat="42.18891396534487" lon="12.790496190711744"><ele>457.66666666666663</ele><time>2026-03-22T16:35:58Z</time></trkpt><trkpt lat="42.18902823132122" lon="12.790631799988892"><ele>453.3333333333333</ele><time>2026-03-22T16:35:59Z</time></trkpt><trkpt lat="42.1891428210468" lon="12.79076347537429"><ele>449.0</ele><time>2026-03-22T16:36:00Z</time></trkpt><trkpt lat="42.1892597978848" lon="12.79089832765136"><ele>446.66666666666663</ele><time>2026-03-22T16:36:01Z</time></trkpt><trkpt lat="42.18937759120955" lon="12.791034085922378"><ele>444.33333333333337</ele><time>2026-03-22T16:36:02Z</time></trkpt><trkpt lat="42.18951100527474" lon="12.791180184859384"><ele>442.0</ele><time>2026-03-22T16:36:03Z</time></trkpt><trkpt lat="42.189646599361474" lon="12.791317763073655"><ele>442.0</ele><time>2026-03-22T16:36:04Z</time></trkpt><trkpt lat="42.18977179183851" lon="12.791435806492565"><ele>442.0</ele><time>2026-03-22T16:36:05Z</time></trkpt><trkpt lat="42.18988715247608" lon="12.791554647057216"><ele>442.0</ele><time>2026-03-22T16:36:06Z</time></trkpt><trkpt lat="42.190009357457676" lon="12.791669672706869"><ele>442.0</ele><time>2026-03-22T16:36:07Z</time></trkpt><trkpt lat="42.19012820667238" lon="12.79177708023446"><ele>439.5</ele><time>2026-03-22T16:36:08Z</time></trkpt><trkpt lat="42.190237890485406" lon="12.791889753652052"><ele>437.0</ele><time>2026-03-22T16:36:09Z</time></trkpt><trkpt lat="42.19035273171885" lon="12.792016491422878"><ele>434.5</ele><time>2026-03-22T16:36:10Z</time></trkpt><trkpt lat="42.190469873965554" lon="12.792156697323035"><ele>432.0</ele><time>2026-03-22T16:36:11Z</time></trkpt><trkpt lat="42.19059100143805" lon="12.792287286180251"><ele>432.25</ele><time>2026-03-22T16:36:12Z</time></trkpt><trkpt lat="42.19068978262862" lon="12.792394850868781"><ele>432.5</ele><time>2026-03-22T16:36:13Z</time></trkpt><trkpt lat="42.19077980131567" lon="12.792488626129726"><ele>432.75</ele><time>2026-03-22T16:36:14Z</time></trkpt><trkpt lat="42.19086691106517" lon="12.792557595735847"><ele>433.0</ele><time>2026-03-22T16:36:15Z</time></trkpt><trkpt lat="42.19096715429504" lon="12.792616669660209"><ele>430.25</ele><time>2026-03-22T16:36:16Z</time></trkpt><trkpt lat="42.19109665303277" lon="12.792679823978172"><ele>427.5</ele><time>2026-03-22T16:36:17Z</time></trkpt><trkpt lat="42.19124212940297" lon="12.792737906536093"><ele>424.75</ele><time>2026-03-22T16:36:18Z</time></trkpt><trkpt lat="42.19137543793013" lon="12.792815061702482"><ele>422.0</ele><time>2026-03-22T16:36:19Z</time></trkpt><trkpt lat="42.191497453375945" lon="12.792867967910073"><ele>420.75</ele><time>2026-03-22T16:36:20Z</time></trkpt><trkpt lat="42.19161388262675" lon="12.79291586674479"><ele>419.5</ele><time>2026-03-22T16:36:21Z</time></trkpt><trkpt lat="42.19172871203348" lon="12.79297352107633"><ele>418.25</ele><time>2026-03-22T16:36:22Z</time></trkpt><trkpt lat="42.191855138805316" lon="12.793034003027135"><ele>417.0</ele><time>2026-03-22T16:36:23Z</time></trkpt><trkpt lat="42.191982931122865" lon="12.793094063609585"><ele>417.0</ele><time>2026-03-22T16:36:24Z</time></trkpt><trkpt lat="42.19209488778775" lon="12.793153679357536"><ele>417.0</ele><time>2026-03-22T16:36:25Z</time></trkpt><trkpt lat="42.192204208774406" lon="12.793213264516009"><ele>417.0</ele><time>2026-03-22T16:36:26Z</time></trkpt><trkpt lat="42.19230710040567" lon="12.793266585387299"><ele>417.0</ele><time>2026-03-22T16:36:27Z</time></trkpt><trkpt lat="42.192411113801576" lon="12.793315900571363"><ele>414.6</ele><time>2026-03-22T16:36:28Z</time></trkpt><trkpt lat="42.192504059201006" lon="12.793369414417104"><ele>412.20000000000005</ele><time>2026-03-22T16:36:29Z</time></trkpt><trkpt lat="42.19259503686069" lon="12.793432417867635"><ele>409.8</ele><time>2026-03-22T16:36:30Z</time></trkpt><trkpt lat="42.192684565371216" lon="12.793507657280854"><ele>407.4</ele><time>2026-03-22T16:36:31Z</time></trkpt><trkpt lat="42.19278156524673" lon="12.793610684915713"><ele>405.0</ele><time>2026-03-22T16:36:32Z</time></trkpt><trkpt lat="42.19289134581859" lon="12.793735415807037"><ele>403.75</ele><time>2026-03-22T16:36:33Z</time></trkpt><trkpt lat="42.193007580982176" lon="12.793868431729898"><ele>402.5</ele><time>2026-03-22T16:36:34Z</time></trkpt><trkpt lat="42.19312125917579" lon="12.794009696187311"><ele>401.25</ele><time>2026-03-22T16:36:35Z</time></trkpt><trkpt lat="42.19322160787702" lon="12.79412515586095"><ele>400.0</ele><time>2026-03-22T16:36:36Z</time></trkpt><trkpt lat="42.1933137929395" lon="12.794225767039373"><ele>399.6666666666667</ele><time>2026-03-22T16:36:37Z</time></trkpt><trkpt lat="42.19340555412849" lon="12.794308682515652"><ele>399.33333333333337</ele><time>2026-03-22T16:36:38Z</time></trkpt><trkpt lat="42.193491904405526" lon="12.794369888311005"><ele>399.0</ele><time>2026-03-22T16:36:39Z</time></trkpt><trkpt lat="42.1935744255812" lon="12.79442080237282"><ele>398.66666666666663</ele><time>2026-03-22T16:36:40Z</time></trkpt><trkpt lat="42.19363549535258" lon="12.794477740623586"><ele>398.3333333333333</ele><time>2026-03-22T16:36:41Z</time></trkpt><trkpt lat="42.193686250745394" lon="12.7945357942398"><ele>398.0</ele><time>2026-03-22T16:36:42Z</time></trkpt><trkpt lat="42.193732859848225" lon="12.794664996811449"><ele>398.0</ele><time>2026-03-22T16:36:44Z</time></trkpt><trkpt lat="42.19363675758903" lon="12.794690519636893"><ele>398.0</ele><time>2026-03-22T16:36:46Z</time></trkpt><trkpt lat="42.19357358732467" lon="12.794723325045569"><ele>398.0</ele><time>2026-03-22T16:36:49Z</time></trkpt><trkpt lat="42.193495073310764" lon="12.79461682772844"><ele>398.0</ele><time>2026-03-22T16:36:51Z</time></trkpt><trkpt lat="42.193379232873816" lon="12.794601697641399"><ele>398.0</ele><time>2026-03-22T16:36:53Z</time></trkpt><trkpt lat="42.193272611960744" lon="12.794736498601317"><ele>397.99999999999994</ele><time>2026-03-22T16:36:55Z</time></trkpt><trkpt lat="42.19324608918172" lon="12.794834403374562"><ele>398.0</ele><time>2026-03-22T16:36:56Z</time></trkpt><trkpt lat="42.19320039815363" lon="12.794910097500217"><ele>398.0</ele><time>2026-03-22T16:36:58Z</time></trkpt><trkpt lat="42.19311069811011" lon="12.794899799816049"><ele>398.0</ele><time>2026-03-22T16:37:12Z</time></trkpt><trkpt lat="42.193042163390515" lon="12.79485581804188"><ele>397.99999999999994</ele><time>2026-03-22T16:37:13Z</time></trkpt><trkpt lat="42.192954204103245" lon="12.79480805310108"><ele>398.0</ele><time>2026-03-22T16:37:14Z</time></trkpt><trkpt lat="42.192862014483445" lon="12.794747382105811"><ele>396.25</ele><time>2026-03-22T16:37:15Z</time></trkpt><trkpt lat="42.192768040042424" lon="12.794685956095975"><ele>394.5</ele><time>2026-03-22T16:37:16Z</time></trkpt><trkpt lat="42.19266028791435" lon="12.794641122788573"><ele>392.75</ele><time>2026-03-22T16:37:17Z</time></trkpt><trkpt lat="42.19255058480127" lon="12.794592779789767"><ele>391.0</ele><time>2026-03-22T16:37:18Z</time></trkpt><trkpt lat="42.192440491766426" lon="12.79453346027908"><ele>389.5</ele><time>2026-03-22T16:37:19Z</time></trkpt><trkpt lat="42.192319137480176" lon="12.794472191237078"><ele>388.0</ele><time>2026-03-22T16:37:20Z</time></trkpt><trkpt lat="42.19220004980965" lon="12.794430251198182"><ele>386.5</ele><time>2026-03-22T16:37:21Z</time></trkpt><trkpt lat="42.19206878649881" lon="12.794417474559069"><ele>385.0</ele><time>2026-03-22T16:37:22Z</time></trkpt><trkpt lat="42.19193126655016" lon="12.79442140041705"><ele>385.0</ele><time>2026-03-22T16:37:23Z</time></trkpt><trkpt lat="42.19179315732011" lon="12.794438826361553"><ele>385.0</ele><time>2026-03-22T16:37:24Z</time></trkpt><trkpt lat="42.19164405623411" lon="12.794394373222133"><ele>385.0</ele><time>2026-03-22T16:37:25Z</time></trkpt><trkpt lat="42.191495939489116" lon="12.794410392155674"><ele>385.0</ele><time>2026-03-22T16:37:26Z</time></trkpt><trkpt lat="42.1913494743372" lon="12.794426267791758"><ele>385.25</ele><time>2026-03-22T16:37:27Z</time></trkpt><trkpt lat="42.19123217240417" lon="12.794429008088148"><ele>385.5</ele><time>2026-03-22T16:37:28Z</time></trkpt><trkpt lat="42.191127265397945" lon="12.794412718427186"><ele>385.75</ele><time>2026-03-22T16:37:29Z</time></trkpt><trkpt lat="42.19101505249963" lon="12.79437748624881"><ele>386.0</ele><time>2026-03-22T16:37:30Z</time></trkpt><trkpt lat="42.19091269829172" lon="12.79431660371782"><ele>389.0</ele><time>2026-03-22T16:37:31Z</time></trkpt><trkpt lat="42.19079273251921" lon="12.794252404212022"><ele>392.0</ele><time>2026-03-22T16:37:32Z</time></trkpt><trkpt lat="42.19067108305137" lon="12.79418774158739"><ele>395.0</ele><time>2026-03-22T16:37:33Z</time></trkpt><trkpt lat="42.19054394228856" lon="12.794114347276908"><ele>398.0</ele><time>2026-03-22T16:37:34Z</time></trkpt><trkpt lat="42.190412972242555" lon="12.794033602315368"><ele>398.0</ele><time>2026-03-22T16:37:35Z</time></trkpt><trkpt lat="42.19027627524803" lon="12.79394552439052"><ele>398.0</ele><time>2026-03-22T16:37:36Z</time></trkpt><trkpt lat="42.19013941100879" lon="12.793853507709832"><ele>398.0</ele><time>2026-03-22T16:37:37Z</time></trkpt><trkpt lat="42.19000229504496" lon="12.793762140423484"><ele>398.0</ele><time>2026-03-22T16:37:38Z</time></trkpt><trkpt lat="42.189873214608944" lon="12.793678902246604"><ele>398.0</ele><time>2026-03-22T16:37:39Z</time></trkpt><trkpt lat="42.1897499275254" lon="12.793600803557393"><ele>398.0</ele><time>2026-03-22T16:37:40Z</time></trkpt><trkpt lat="42.189633269406926" lon="12.793532237481939"><ele>398.0</ele><time>2026-03-22T16:37:41Z</time></trkpt><trkpt lat="42.18951527086675" lon="12.793470624486087"><ele>399.25</ele><time>2026-03-22T16:37:42Z</time></trkpt><trkpt lat="42.189392885273584" lon="12.793428353818541"><ele>400.5</ele><time>2026-03-22T16:37:43Z</time></trkpt><trkpt lat="42.18925087666349" lon="12.793407323962887"><ele>401.75</ele><time>2026-03-22T16:37:44Z</time></trkpt><trkpt lat="42.18910780930748" lon="12.793419235413248"><ele>403.0</ele><time>2026-03-22T16:37:45Z</time></trkpt><trkpt lat="42.18899065291285" lon="12.793398107996902"><ele>403.0</ele><time>2026-03-22T16:37:46Z</time></trkpt><trkpt lat="42.188892330328436" lon="12.79332531600454"><ele>403.0</ele><time>2026-03-22T16:37:47Z</time></trkpt><trkpt lat="42.1887828880353" lon="12.793251664644364"><ele>403.0</ele><time>2026-03-22T16:37:48Z</time></trkpt><trkpt lat="42.188657910973234" lon="12.793179977362056"><ele>403.0</ele><time>2026-03-22T16:37:49Z</time></trkpt><trkpt lat="42.188508251373335" lon="12.793129655477696"><ele>403.0</ele><time>2026-03-22T16:37:50Z</time></trkpt><trkpt lat="42.188377893478595" lon="12.79310406692313"><ele>403.0</ele><time>2026-03-22T16:37:51Z</time></trkpt><trkpt lat="42.1882536027214" lon="12.793113853746858"><ele>403.0</ele><time>2026-03-22T16:37:52Z</time></trkpt><trkpt lat="42.1881239248262" lon="12.793143289137326"><ele>403.0</ele><time>2026-03-22T16:37:53Z</time></trkpt><trkpt lat="42.18799607575139" lon="12.793165620724567"><ele>402.5</ele><time>2026-03-22T16:37:54Z</time></trkpt><trkpt lat="42.18786388713775" lon="12.793170320355365"><ele>402.0</ele><time>2026-03-22T16:37:55Z</time></trkpt><trkpt lat="42.18773614723944" lon="12.79317033140393"><ele>401.5</ele><time>2026-03-22T16:37:56Z</time></trkpt><trkpt lat="42.18761049526143" lon="12.793131726684544"><ele>401.0</ele><time>2026-03-22T16:37:57Z</time></trkpt><trkpt lat="42.1874972206223" lon="12.793088942938118"><ele>401.0</ele><time>2026-03-22T16:37:58Z</time></trkpt><trkpt lat="42.18738998092992" lon="12.793031318983772"><ele>401.0</ele><time>2026-03-22T16:37:59Z</time></trkpt><trkpt lat="42.18728856328262" lon="12.792949608616293"><ele>401.0</ele><time>2026-03-22T16:38:00Z</time></trkpt><trkpt lat="42.187199810231505" lon="12.792883537006379"><ele>401.0</ele><time>2026-03-22T16:38:01Z</time></trkpt><trkpt lat="42.187124376260776" lon="12.79278733831229"><ele>401.0</ele><time>2026-03-22T16:38:02Z</time></trkpt><trkpt lat="42.187035985070224" lon="12.792660250943038"><ele>399.25</ele><time>2026-03-22T16:38:03Z</time></trkpt><trkpt lat="42.186957501779204" lon="12.792504892229744"><ele>397.5</ele><time>2026-03-22T16:38:04Z</time></trkpt><trkpt lat="42.18686189508636" lon="12.79234481096493"><ele>395.75</ele><time>2026-03-22T16:38:05Z</time></trkpt><trkpt lat="42.186756261085556" lon="12.792203019765962"><ele>394.0</ele><time>2026-03-22T16:38:06Z</time></trkpt><trkpt lat="42.18662745307652" lon="12.792098571558963"><ele>394.0</ele><time>2026-03-22T16:38:07Z</time></trkpt><trkpt lat="42.186512732335935" lon="12.791999827326629"><ele>394.0</ele><time>2026-03-22T16:38:08Z</time></trkpt><trkpt lat="42.18640674562381" lon="12.791893251812246"><ele>394.0</ele><time>2026-03-22T16:38:09Z</time></trkpt><trkpt lat="42.18627316844894" lon="12.791835290425693"><ele>394.0</ele><time>2026-03-22T16:38:10Z</time></trkpt><trkpt lat="42.18613941125579" lon="12.79174702925488"><ele>394.25</ele><time>2026-03-22T16:38:11Z</time></trkpt><trkpt lat="42.18600742381122" lon="12.79167211361891"><ele>394.5</ele><time>2026-03-22T16:38:12Z</time></trkpt><trkpt lat="42.18588595511499" lon="12.791591335913715"><ele>394.75</ele><time>2026-03-22T16:38:13Z</time></trkpt><trkpt lat="42.18576851731773" lon="12.791534893139026"><ele>395.0</ele><time>2026-03-22T16:38:14Z</time></trkpt><trkpt lat="42.185655464167" lon="12.791459322230693"><ele>392.25</ele><time>2026-03-22T16:38:15Z</time></trkpt><trkpt lat="42.1855183441191" lon="12.791443740718945"><ele>389.5</ele><time>2026-03-22T16:38:16Z</time></trkpt><trkpt lat="42.18539654731744" lon="12.791398252041525"><ele>386.75</ele><time>2026-03-22T16:38:17Z</time></trkpt><trkpt lat="42.18526616930105" lon="12.791340931926825"><ele>384.0</ele><time>2026-03-22T16:38:18Z</time></trkpt><trkpt lat="42.1851461905722" lon="12.791292433999336"><ele>384.0</ele><time>2026-03-22T16:38:19Z</time></trkpt><trkpt lat="42.185027144244756" lon="12.791251048296822"><ele>384.0</ele><time>2026-03-22T16:38:20Z</time></trkpt><trkpt lat="42.184929087143075" lon="12.791210671361398"><ele>384.0</ele><time>2026-03-22T16:38:21Z</time></trkpt><trkpt lat="42.18485063114185" lon="12.791156694996163"><ele>384.0</ele><time>2026-03-22T16:38:22Z</time></trkpt><trkpt lat="42.18476206687249" lon="12.791075787980258"><ele>384.0</ele><time>2026-03-22T16:38:23Z</time></trkpt><trkpt lat="42.18466447680885" lon="12.790959759880105"><ele>384.0</ele><time>2026-03-22T16:38:24Z</time></trkpt><trkpt lat="42.184571581957414" lon="12.790824515136672"><ele>384.0</ele><time>2026-03-22T16:38:25Z</time></trkpt><trkpt lat="42.18448297532928" lon="12.790684620390447"><ele>384.0</ele><time>2026-03-22T16:38:26Z</time></trkpt><trkpt lat="42.18440410225327" lon="12.790562682039"><ele>384.0</ele><time>2026-03-22T16:38:27Z</time></trkpt><trkpt lat="42.184328244875815" lon="12.790453748217987"><ele>384.0</ele><time>2026-03-22T16:38:28Z</time></trkpt><trkpt lat="42.18426053949917" lon="12.790359144288063"><ele>384.0</ele><time>2026-03-22T16:38:29Z</time></trkpt><trkpt lat="42.18419622465315" lon="12.790291411706733"><ele>384.0</ele><time>2026-03-22T16:38:30Z</time></trkpt><trkpt lat="42.18413419087934" lon="12.790197066231569"><ele>384.0</ele><time>2026-03-22T16:38:31Z</time></trkpt><trkpt lat="42.18405230663828" lon="12.790117773742045"><ele>384.0</ele><time>2026-03-22T16:38:32Z</time></trkpt><trkpt lat="42.18396186365652" lon="12.79003853030184"><ele>381.0</ele><time>2026-03-22T16:38:33Z</time></trkpt><trkpt lat="42.18388773101847" lon="12.789941484424284"><ele>378.0</ele><time>2026-03-22T16:38:34Z</time></trkpt><trkpt lat="42.183826325016625" lon="12.789846356229624"><ele>375.0</ele><time>2026-03-22T16:38:35Z</time></trkpt><trkpt lat="42.18377339962272" lon="12.789746561691102"><ele>372.0</ele><time>2026-03-22T16:38:36Z</time></trkpt><trkpt lat="42.18372010521874" lon="12.789643588426811"><ele>369.0</ele><time>2026-03-22T16:38:37Z</time></trkpt><trkpt lat="42.183663390113416" lon="12.789534033970833"><ele>369.0</ele><time>2026-03-22T16:38:38Z</time></trkpt><trkpt lat="42.183617731435966" lon="12.789396433056451"><ele>369.0</ele><time>2026-03-22T16:38:39Z</time></trkpt><trkpt lat="42.18357988853035" lon="12.789251568117088"><ele>369.0</ele><time>2026-03-22T16:38:40Z</time></trkpt><trkpt lat="42.1835288615298" lon="12.78914152840793"><ele>369.0</ele><time>2026-03-22T16:38:41Z</time></trkpt><trkpt lat="42.18348144541439" lon="12.789040587093265"><ele>369.0</ele><time>2026-03-22T16:38:42Z</time></trkpt><trkpt lat="42.183389504002704" lon="12.788961230362265"><ele>370.25</ele><time>2026-03-22T16:38:43Z</time></trkpt><trkpt lat="42.18328361501316" lon="12.788901790479049"><ele>371.5</ele><time>2026-03-22T16:38:44Z</time></trkpt><trkpt lat="42.18317041032482" lon="12.788831947342858"><ele>372.75</ele><time>2026-03-22T16:38:45Z</time></trkpt><trkpt lat="42.18304087878501" lon="12.788760108939544"><ele>374.0</ele><time>2026-03-22T16:38:46Z</time></trkpt><trkpt lat="42.18290304290133" lon="12.788691402472049"><ele>374.25</ele><time>2026-03-22T16:38:47Z</time></trkpt><trkpt lat="42.182768317664234" lon="12.788614361308998"><ele>374.5</ele><time>2026-03-22T16:38:48Z</time></trkpt><trkpt lat="42.18263886269102" lon="12.788531533643681"><ele>374.75</ele><time>2026-03-22T16:38:49Z</time></trkpt><trkpt lat="42.1825115001766" lon="12.788448192412623"><ele>375.0</ele><time>2026-03-22T16:38:50Z</time></trkpt><trkpt lat="42.18237294065115" lon="12.788383691836039"><ele>372.25</ele><time>2026-03-22T16:38:51Z</time></trkpt><trkpt lat="42.18223696871696" lon="12.788313441816719"><ele>369.5</ele><time>2026-03-22T16:38:52Z</time></trkpt><trkpt lat="42.18209431746654" lon="12.788272682435677"><ele>366.75</ele><time>2026-03-22T16:38:53Z</time></trkpt><trkpt lat="42.181945460594804" lon="12.788226937714716"><ele>364.0</ele><time>2026-03-22T16:38:54Z</time></trkpt><trkpt lat="42.18179246903565" lon="12.788176453614406"><ele>364.0</ele><time>2026-03-22T16:38:55Z</time></trkpt><trkpt lat="42.181636345300205" lon="12.788121846179104"><ele>364.0</ele><time>2026-03-22T16:38:56Z</time></trkpt><trkpt lat="42.18146954750621" lon="12.788062831993386"><ele>364.0</ele><time>2026-03-22T16:38:57Z</time></trkpt><trkpt lat="42.18130483650891" lon="12.788004074023954"><ele>361.3333333333333</ele><time>2026-03-22T16:38:58Z</time></trkpt><trkpt lat="42.18115069753129" lon="12.787949097972254"><ele>358.6666666666667</ele><time>2026-03-22T16:38:59Z</time></trkpt><trkpt lat="42.181003633277875" lon="12.7878966469528"><ele>356.0</ele><time>2026-03-22T16:39:00Z</time></trkpt><trkpt lat="42.18086137693586" lon="12.787845909082383"><ele>356.0</ele><time>2026-03-22T16:39:01Z</time></trkpt><trkpt lat="42.18071397947262" lon="12.78779551241555"><ele>356.0</ele><time>2026-03-22T16:39:02Z</time></trkpt><trkpt lat="42.18058242688868" lon="12.787751897943208"><ele>356.0</ele><time>2026-03-22T16:39:03Z</time></trkpt><trkpt lat="42.180454447323726" lon="12.787708231816582"><ele>356.0</ele><time>2026-03-22T16:39:04Z</time></trkpt><trkpt lat="42.18031553108227" lon="12.787620757944833"><ele>355.6666666666667</ele><time>2026-03-22T16:39:05Z</time></trkpt><trkpt lat="42.18016856612805" lon="12.787526349168884"><ele>355.3333333333333</ele><time>2026-03-22T16:39:06Z</time></trkpt><trkpt lat="42.1800261285989" lon="12.787446178982417"><ele>355.0</ele><time>2026-03-22T16:39:07Z</time></trkpt><trkpt lat="42.17989254399667" lon="12.787378230636063"><ele>353.0</ele><time>2026-03-22T16:39:08Z</time></trkpt><trkpt lat="42.17975176243111" lon="12.78731036180339"><ele>351.0</ele><time>2026-03-22T16:39:09Z</time></trkpt><trkpt lat="42.17961680180873" lon="12.78723363021786"><ele>349.0</ele><time>2026-03-22T16:39:10Z</time></trkpt><trkpt lat="42.17949268818563" lon="12.78715099786788"><ele>347.0</ele><time>2026-03-22T16:39:11Z</time></trkpt><trkpt lat="42.179386367858" lon="12.78703743739757"><ele>347.0</ele><time>2026-03-22T16:39:12Z</time></trkpt><trkpt lat="42.17925784102931" lon="12.786934105002334"><ele>347.0</ele><time>2026-03-22T16:39:13Z</time></trkpt><trkpt lat="42.17913494729081" lon="12.786854137959782"><ele>347.0</ele><time>2026-03-22T16:39:14Z</time></trkpt><trkpt lat="42.179020677789346" lon="12.786786327730452"><ele>347.0</ele><time>2026-03-22T16:39:15Z</time></trkpt><trkpt lat="42.178903213147514" lon="12.786721330710764"><ele>345.40000000000003</ele><time>2026-03-22T16:39:16Z</time></trkpt><trkpt lat="42.178787531617104" lon="12.786656601210845"><ele>343.8</ele><time>2026-03-22T16:39:17Z</time></trkpt><trkpt lat="42.17869140282893" lon="12.786586434136245"><ele>342.2</ele><time>2026-03-22T16:39:18Z</time></trkpt><trkpt lat="42.17859880473873" lon="12.786518302259967"><ele>340.6</ele><time>2026-03-22T16:39:19Z</time></trkpt><trkpt lat="42.178494208789076" lon="12.786483016772527"><ele>339.0</ele><time>2026-03-22T16:39:20Z</time></trkpt><trkpt lat="42.17839275814115" lon="12.786425119587667"><ele>339.0</ele><time>2026-03-22T16:39:21Z</time></trkpt><trkpt lat="42.1783047694687" lon="12.78635606981206"><ele>339.0</ele><time>2026-03-22T16:39:22Z</time></trkpt><trkpt lat="42.17823709949149" lon="12.786287297898124"><ele>339.0</ele><time>2026-03-22T16:39:23Z</time></trkpt><trkpt lat="42.17818547776773" lon="12.78622315952027"><ele>339.0</ele><time>2026-03-22T16:39:24Z</time></trkpt><trkpt lat="42.178123206542395" lon="12.786046096387478"><ele>339.0</ele><time>2026-03-22T16:39:26Z</time></trkpt><trkpt lat="42.17810617866082" lon="12.785924854420978"><ele>336.0</ele><time>2026-03-22T16:39:27Z</time></trkpt><trkpt lat="42.17805337302423" lon="12.785765150619305"><ele>333.0</ele><time>2026-03-22T16:39:29Z</time></trkpt><trkpt lat="42.177989782160935" lon="12.785714806122863"><ele>330.0</ele><time>2026-03-22T16:39:30Z</time></trkpt><trkpt lat="42.17790684077639" lon="12.785677365013846"><ele>327.0</ele><time>2026-03-22T16:39:31Z</time></trkpt><trkpt lat="42.177852312368024" lon="12.785627733787429"><ele>324.0</ele><time>2026-03-22T16:39:32Z</time></trkpt><trkpt lat="42.17780341296282" lon="12.785470134799526"><ele>324.0</ele><time>2026-03-22T16:39:34Z</time></trkpt><trkpt lat="42.17779293861092" lon="12.785345866116572"><ele>324.0</ele><time>2026-03-22T16:39:35Z</time></trkpt><trkpt lat="42.17776861596346" lon="12.7852649120285"><ele>324.0</ele><time>2026-03-22T16:39:36Z</time></trkpt><trkpt lat="42.177750618259466" lon="12.785163562532516"><ele>324.0</ele><time>2026-03-22T16:39:37Z</time></trkpt><trkpt lat="42.17767923957741" lon="12.785075006793633"><ele>324.0</ele><time>2026-03-22T16:39:38Z</time></trkpt><trkpt lat="42.17757309506767" lon="12.784997443520803"><ele>322.75</ele><time>2026-03-22T16:39:39Z</time></trkpt><trkpt lat="42.17744756835532" lon="12.784894557439447"><ele>321.5</ele><time>2026-03-22T16:39:40Z</time></trkpt><trkpt lat="42.17733053571618" lon="12.784794849493617"><ele>320.25</ele><time>2026-03-22T16:39:41Z</time></trkpt><trkpt lat="42.17723015000623" lon="12.78470817885532"><ele>319.0</ele><time>2026-03-22T16:39:42Z</time></trkpt><trkpt lat="42.177128038519236" lon="12.784622189846825"><ele>315.25</ele><time>2026-03-22T16:39:43Z</time></trkpt><trkpt lat="42.17701714436266" lon="12.784541166446752"><ele>311.5</ele><time>2026-03-22T16:39:44Z</time></trkpt><trkpt lat="42.17688191044356" lon="12.78447506933832"><ele>307.75</ele><time>2026-03-22T16:39:45Z</time></trkpt><trkpt lat="42.17676532603445" lon="12.78442516590716"><ele>304.0</ele><time>2026-03-22T16:39:46Z</time></trkpt><trkpt lat="42.17666839032671" lon="12.784384952122885"><ele>304.4</ele><time>2026-03-22T16:39:47Z</time></trkpt><trkpt lat="42.17657563470278" lon="12.78433274181453"><ele>304.79999999999995</ele><time>2026-03-22T16:39:48Z</time></trkpt><trkpt lat="42.176494278670575" lon="12.784274372666456"><ele>305.20000000000005</ele><time>2026-03-22T16:39:49Z</time></trkpt><trkpt lat="42.176398011297756" lon="12.784198039447194"><ele>305.6</ele><time>2026-03-22T16:39:50Z</time></trkpt><trkpt lat="42.1762843851974" lon="12.78410455547474"><ele>306.0</ele><time>2026-03-22T16:39:51Z</time></trkpt><trkpt lat="42.17616389186274" lon="12.784029545172945"><ele>303.40000000000003</ele><time>2026-03-22T16:39:52Z</time></trkpt><trkpt lat="42.17607879507003" lon="12.783955125662624"><ele>300.8</ele><time>2026-03-22T16:39:53Z</time></trkpt><trkpt lat="42.176007516650714" lon="12.783885409036325"><ele>298.20000000000005</ele><time>2026-03-22T16:39:54Z</time></trkpt><trkpt lat="42.17594686213224" lon="12.783801360940254"><ele>295.6</ele><time>2026-03-22T16:39:55Z</time></trkpt><trkpt lat="42.175877295009734" lon="12.783663114749341"><ele>293.0</ele><time>2026-03-22T16:39:56Z</time></trkpt><trkpt lat="42.17580046358994" lon="12.783490860325172"><ele>291.33333333333337</ele><time>2026-03-22T16:39:57Z</time></trkpt><trkpt lat="42.17570678823044" lon="12.783333048737298"><ele>289.6666666666667</ele><time>2026-03-22T16:39:58Z</time></trkpt><trkpt lat="42.175608733946525" lon="12.78316277766721"><ele>288.0</ele><time>2026-03-22T16:39:59Z</time></trkpt><trkpt lat="42.175513230911896" lon="12.782997438612975"><ele>286.25</ele><time>2026-03-22T16:40:00Z</time></trkpt><trkpt lat="42.17542624137121" lon="12.78284661709581"><ele>284.5</ele><time>2026-03-22T16:40:01Z</time></trkpt><trkpt lat="42.175339085282396" lon="12.782703322162297"><ele>282.75</ele><time>2026-03-22T16:40:02Z</time></trkpt><trkpt lat="42.17524364191771" lon="12.782543298864393"><ele>281.0</ele><time>2026-03-22T16:40:03Z</time></trkpt><trkpt lat="42.175145704092834" lon="12.782365578423278"><ele>278.6666666666667</ele><time>2026-03-22T16:40:04Z</time></trkpt><trkpt lat="42.17502624906554" lon="12.782173302959666"><ele>276.3333333333333</ele><time>2026-03-22T16:40:05Z</time></trkpt><trkpt lat="42.174912864347625" lon="12.7819893375426"><ele>274.0</ele><time>2026-03-22T16:40:06Z</time></trkpt><trkpt lat="42.17480844924606" lon="12.78179813908754"><ele>273.0</ele><time>2026-03-22T16:40:07Z</time></trkpt><trkpt lat="42.17469600036091" lon="12.781626536706455"><ele>272.0</ele><time>2026-03-22T16:40:08Z</time></trkpt><trkpt lat="42.174594985022665" lon="12.781472382397366"><ele>271.0</ele><time>2026-03-22T16:40:09Z</time></trkpt><trkpt lat="42.174496748118735" lon="12.781322037728307"><ele>271.0</ele><time>2026-03-22T16:40:10Z</time></trkpt><trkpt lat="42.174395982744535" lon="12.781166409548984"><ele>271.0</ele><time>2026-03-22T16:40:11Z</time></trkpt><trkpt lat="42.17427335594939" lon="12.781011873470842"><ele>271.0</ele><time>2026-03-22T16:40:12Z</time></trkpt><trkpt lat="42.17415319089713" lon="12.780837653616853"><ele>268.0</ele><time>2026-03-22T16:40:13Z</time></trkpt><trkpt lat="42.17404823964402" lon="12.780669348079567"><ele>265.0</ele><time>2026-03-22T16:40:14Z</time></trkpt><trkpt lat="42.17395126528307" lon="12.780503609068866"><ele>262.0</ele><time>2026-03-22T16:40:15Z</time></trkpt><trkpt lat="42.17385648271409" lon="12.780350101881544"><ele>261.75</ele><time>2026-03-22T16:40:16Z</time></trkpt><trkpt lat="42.173782977509475" lon="12.780208443095548"><ele>261.5</ele><time>2026-03-22T16:40:17Z</time></trkpt><trkpt lat="42.173668280141825" lon="12.780096508507778"><ele>261.25</ele><time>2026-03-22T16:40:18Z</time></trkpt><trkpt lat="42.17356040970097" lon="12.779954349594997"><ele>261.0</ele><time>2026-03-22T16:40:19Z</time></trkpt><trkpt lat="42.17344803655601" lon="12.779790087376568"><ele>256.3333333333333</ele><time>2026-03-22T16:40:20Z</time></trkpt><trkpt lat="42.173321560791955" lon="12.779625946061985"><ele>251.66666666666666</ele><time>2026-03-22T16:40:21Z</time></trkpt><trkpt lat="42.173209421704385" lon="12.779481496945458"><ele>247.0</ele><time>2026-03-22T16:40:22Z</time></trkpt><trkpt lat="42.17310447005654" lon="12.779335932514376"><ele>243.5</ele><time>2026-03-22T16:40:23Z</time></trkpt><trkpt lat="42.173013433756864" lon="12.779200824428681"><ele>240.0</ele><time>2026-03-22T16:40:24Z</time></trkpt><trkpt lat="42.172935864259436" lon="12.779065693550391"><ele>236.5</ele><time>2026-03-22T16:40:25Z</time></trkpt><trkpt lat="42.172872076071" lon="12.778918011087491"><ele>233.0</ele><time>2026-03-22T16:40:26Z</time></trkpt><trkpt lat="42.172820897204346" lon="12.778750955509594"><ele>233.0</ele><time>2026-03-22T16:40:27Z</time></trkpt><trkpt lat="42.17277852264118" lon="12.778575832616706"><ele>233.0</ele><time>2026-03-22T16:40:28Z</time></trkpt><trkpt lat="42.172732519594376" lon="12.778418218842118"><ele>233.0</ele><time>2026-03-22T16:40:29Z</time></trkpt><trkpt lat="42.172694782653586" lon="12.77828786648523"><ele>233.0</ele><time>2026-03-22T16:40:30Z</time></trkpt><trkpt lat="42.17266741369593" lon="12.778175980575117"><ele>233.2</ele><time>2026-03-22T16:40:31Z</time></trkpt><trkpt lat="42.172656715760404" lon="12.77806463447857"><ele>233.4</ele><time>2026-03-22T16:40:32Z</time></trkpt><trkpt lat="42.17266733639622" lon="12.77795592419897"><ele>233.59999999999997</ele><time>2026-03-22T16:40:33Z</time></trkpt><trkpt lat="42.172682270496956" lon="12.777856317281472"><ele>233.79999999999998</ele><time>2026-03-22T16:40:34Z</time></trkpt><trkpt lat="42.17267671738651" lon="12.777730616077081"><ele>234.0</ele><time>2026-03-22T16:40:36Z</time></trkpt><trkpt lat="42.1725614598338" lon="12.777769241080874"><ele>234.0</ele><time>2026-03-22T16:40:39Z</time></trkpt><trkpt lat="42.17253809470553" lon="12.777893439071416"><ele>233.99999999999997</ele><time>2026-03-22T16:40:40Z</time></trkpt><trkpt lat="42.1725148905847" lon="12.778011176070946"><ele>233.99999999999997</ele><time>2026-03-22T16:40:41Z</time></trkpt><trkpt lat="42.172491322007865" lon="12.778138456657432"><ele>234.0</ele><time>2026-03-22T16:40:42Z</time></trkpt><trkpt lat="42.172456271699374" lon="12.778296451357289"><ele>234.0</ele><time>2026-03-22T16:40:43Z</time></trkpt><trkpt lat="42.17241376839947" lon="12.778457268802045"><ele>233.75</ele><time>2026-03-22T16:40:44Z</time></trkpt><trkpt lat="42.172374158348816" lon="12.7785913385585"><ele>233.5</ele><time>2026-03-22T16:40:45Z</time></trkpt><trkpt lat="42.17231573924983" lon="12.778696162472484"><ele>233.25</ele><time>2026-03-22T16:40:46Z</time></trkpt><trkpt lat="42.172266182319206" lon="12.778872718098217"><ele>233.0</ele><time>2026-03-22T16:40:47Z</time></trkpt><trkpt lat="42.17223065289753" lon="12.779020336241054"><ele>232.5</ele><time>2026-03-22T16:40:48Z</time></trkpt><trkpt lat="42.172193589017" lon="12.779152754559785"><ele>232.0</ele><time>2026-03-22T16:40:49Z</time></trkpt><trkpt lat="42.17214526366552" lon="12.779313372224847"><ele>231.5</ele><time>2026-03-22T16:40:50Z</time></trkpt><trkpt lat="42.17208955566588" lon="12.779493487682016"><ele>231.0</ele><time>2026-03-22T16:40:51Z</time></trkpt><trkpt lat="42.172027865732574" lon="12.77968998152681"><ele>231.0</ele><time>2026-03-22T16:40:52Z</time></trkpt><trkpt lat="42.17196337773057" lon="12.779893976308996"><ele>231.0</ele><time>2026-03-22T16:40:53Z</time></trkpt><trkpt lat="42.17189480551579" lon="12.780106346497865"><ele>231.0</ele><time>2026-03-22T16:40:54Z</time></trkpt><trkpt lat="42.17182397774293" lon="12.780325702201417"><ele>232.0</ele><time>2026-03-22T16:40:55Z</time></trkpt><trkpt lat="42.17175607236162" lon="12.780536007260423"><ele>233.0</ele><time>2026-03-22T16:40:56Z</time></trkpt><trkpt lat="42.1716974538409" lon="12.780719450452365"><ele>234.0</ele><time>2026-03-22T16:40:57Z</time></trkpt><trkpt lat="42.17164449107707" lon="12.780868191363895"><ele>235.0</ele><time>2026-03-22T16:40:58Z</time></trkpt><trkpt lat="42.17158154161915" lon="12.780981306764877"><ele>236.2</ele><time>2026-03-22T16:40:59Z</time></trkpt><trkpt lat="42.171499301372215" lon="12.781065496308862"><ele>237.4</ele><time>2026-03-22T16:41:00Z</time></trkpt><trkpt lat="42.17140609465095" lon="12.781132153842247"><ele>238.60000000000002</ele><time>2026-03-22T16:41:01Z</time></trkpt><trkpt lat="42.17131190775202" lon="12.78114929663751"><ele>239.8</ele><time>2026-03-22T16:41:02Z</time></trkpt><trkpt lat="42.171230624702204" lon="12.781136625907216"><ele>241.0</ele><time>2026-03-22T16:41:03Z</time></trkpt><trkpt lat="42.171129899484875" lon="12.78108874307196"><ele>239.5</ele><time>2026-03-22T16:41:04Z</time></trkpt><trkpt lat="42.17101455460708" lon="12.781013960005925"><ele>238.0</ele><time>2026-03-22T16:41:05Z</time></trkpt><trkpt lat="42.17088412265289" lon="12.780942205059944"><ele>236.5</ele><time>2026-03-22T16:41:06Z</time></trkpt><trkpt lat="42.170756559002875" lon="12.78086342989452"><ele>235.0</ele><time>2026-03-22T16:41:07Z</time></trkpt><trkpt lat="42.170621441154374" lon="12.780770215177403"><ele>235.0</ele><time>2026-03-22T16:41:08Z</time></trkpt><trkpt lat="42.1704987063261" lon="12.78074480549461"><ele>235.0</ele><time>2026-03-22T16:41:09Z</time></trkpt><trkpt lat="42.170373358420406" lon="12.780772434282706"><ele>235.0</ele><time>2026-03-22T16:41:10Z</time></trkpt><trkpt lat="42.17024961565977" lon="12.780836596298705"><ele>235.0</ele><time>2026-03-22T16:41:11Z</time></trkpt><trkpt lat="42.17011929617401" lon="12.78092526158874"><ele>237.33333333333331</ele><time>2026-03-22T16:41:12Z</time></trkpt><trkpt lat="42.169979127253015" lon="12.781033578575538"><ele>239.66666666666669</ele><time>2026-03-22T16:41:13Z</time></trkpt><trkpt lat="42.169827817972674" lon="12.781149153382419"><ele>242.0</ele><time>2026-03-22T16:41:14Z</time></trkpt><trkpt lat="42.169675944544444" lon="12.781260540348743"><ele>242.0</ele><time>2026-03-22T16:41:15Z</time></trkpt><trkpt lat="42.16951255134979" lon="12.78138037576382"><ele>242.0</ele><time>2026-03-22T16:41:16Z</time></trkpt><trkpt lat="42.16934366710755" lon="12.78150904263232"><ele>242.0</ele><time>2026-03-22T16:41:17Z</time></trkpt><trkpt lat="42.16917029680384" lon="12.78164017164335"><ele>243.0</ele><time>2026-03-22T16:41:18Z</time></trkpt><trkpt lat="42.16899958052557" lon="12.781769293285716"><ele>244.0</ele><time>2026-03-22T16:41:19Z</time></trkpt><trkpt lat="42.168829831632074" lon="12.781902879453863"><ele>245.0</ele><time>2026-03-22T16:41:20Z</time></trkpt><trkpt lat="42.16866056474895" lon="12.782031986379337"><ele>245.0</ele><time>2026-03-22T16:41:21Z</time></trkpt><trkpt lat="42.16848854440255" lon="12.782159625805935"><ele>245.0</ele><time>2026-03-22T16:41:22Z</time></trkpt><trkpt lat="42.16832165874206" lon="12.782289825755246"><ele>245.0</ele><time>2026-03-22T16:41:23Z</time></trkpt><trkpt lat="42.168154906846915" lon="12.782419921328835"><ele>244.0</ele><time>2026-03-22T16:41:24Z</time></trkpt><trkpt lat="42.16798939903972" lon="12.782545337745534"><ele>243.0</ele><time>2026-03-22T16:41:25Z</time></trkpt><trkpt lat="42.167830406249585" lon="12.782657986567468"><ele>242.0</ele><time>2026-03-22T16:41:26Z</time></trkpt><trkpt lat="42.1676944690835" lon="12.782773751603726"><ele>245.33333333333334</ele><time>2026-03-22T16:41:27Z</time></trkpt><trkpt lat="42.16757520498461" lon="12.782907324672106"><ele>248.66666666666669</ele><time>2026-03-22T16:41:28Z</time></trkpt><trkpt lat="42.16746868199598" lon="12.78308592998549"><ele>252.0</ele><time>2026-03-22T16:41:29Z</time></trkpt><trkpt lat="42.167373497358426" lon="12.783285999261867"><ele>249.33333333333331</ele><time>2026-03-22T16:41:30Z</time></trkpt><trkpt lat="42.16727790155091" lon="12.783493850799259"><ele>246.66666666666666</ele><time>2026-03-22T16:41:31Z</time></trkpt><trkpt lat="42.16718465999546" lon="12.783689497931336"><ele>244.0</ele><time>2026-03-22T16:41:32Z</time></trkpt><trkpt lat="42.1671043331208" lon="12.783856488580296"><ele>243.99999999999997</ele><time>2026-03-22T16:41:33Z</time></trkpt><trkpt lat="42.167049007093816" lon="12.783975155661164"><ele>244.0</ele><time>2026-03-22T16:41:34Z</time></trkpt><trkpt lat="42.167001918098585" lon="12.784087153419629"><ele>244.0</ele><time>2026-03-22T16:41:35Z</time></trkpt><trkpt lat="42.166966177640624" lon="12.784178989897466"><ele>244.0</ele><time>2026-03-22T16:41:36Z</time></trkpt><trkpt lat="42.16694346699921" lon="12.784261211810284"><ele>243.99999999999997</ele><time>2026-03-22T16:41:37Z</time></trkpt><trkpt lat="42.16694342774634" lon="12.784407213991054"><ele>244.0</ele><time>2026-03-22T16:41:39Z</time></trkpt><trkpt lat="42.166953310465" lon="12.784531246158398"><ele>243.79999999999998</ele><time>2026-03-22T16:41:53Z</time></trkpt><trkpt lat="42.166949295529726" lon="12.784623620887617"><ele>243.59999999999997</ele><time>2026-03-22T16:41:54Z</time></trkpt><trkpt lat="42.16698999524452" lon="12.784727502536011"><ele>243.4</ele><time>2026-03-22T16:41:55Z</time></trkpt><trkpt lat="42.167025471120276" lon="12.78484621757983"><ele>243.2</ele><time>2026-03-22T16:41:56Z</time></trkpt><trkpt lat="42.16707436683781" lon="12.784977876457935"><ele>243.0</ele><time>2026-03-22T16:41:57Z</time></trkpt><trkpt lat="42.16713233038434" lon="12.785112793020287"><ele>243.0</ele><time>2026-03-22T16:41:58Z</time></trkpt><trkpt lat="42.16719536783226" lon="12.785256817142887"><ele>243.0</ele><time>2026-03-22T16:41:59Z</time></trkpt><trkpt lat="42.16725396730707" lon="12.785405529712936"><ele>243.0</ele><time>2026-03-22T16:42:00Z</time></trkpt><trkpt lat="42.16729445968701" lon="12.785549176935795"><ele>243.0</ele><time>2026-03-22T16:42:01Z</time></trkpt><trkpt lat="42.1673119510729" lon="12.785676691286678"><ele>243.0</ele><time>2026-03-22T16:42:02Z</time></trkpt><trkpt lat="42.167303262702816" lon="12.78580748216776"><ele>243.0</ele><time>2026-03-22T16:42:03Z</time></trkpt><trkpt lat="42.16727540673135" lon="12.78594974317563"><ele>243.0</ele><time>2026-03-22T16:42:04Z</time></trkpt><trkpt lat="42.16722244025382" lon="12.786088288173813"><ele>243.0</ele><time>2026-03-22T16:42:05Z</time></trkpt><trkpt lat="42.16716443533961" lon="12.786226949687139"><ele>243.0</ele><time>2026-03-22T16:42:06Z</time></trkpt><trkpt lat="42.16709867955317" lon="12.786387465571659"><ele>245.0</ele><time>2026-03-22T16:42:07Z</time></trkpt><trkpt lat="42.16702729854433" lon="12.786561713193178"><ele>247.0</ele><time>2026-03-22T16:42:08Z</time></trkpt><trkpt lat="42.166950800695744" lon="12.786746516767408"><ele>249.0</ele><time>2026-03-22T16:42:09Z</time></trkpt><trkpt lat="42.16687023927503" lon="12.786939983203638"><ele>254.66666666666669</ele><time>2026-03-22T16:42:10Z</time></trkpt><trkpt lat="42.166788865069364" lon="12.787135401308038"><ele>260.33333333333337</ele><time>2026-03-22T16:42:11Z</time></trkpt><trkpt lat="42.16670523957792" lon="12.787339548884018"><ele>266.0</ele><time>2026-03-22T16:42:12Z</time></trkpt><trkpt lat="42.16661951734517" lon="12.787546916788765"><ele>270.0</ele><time>2026-03-22T16:42:13Z</time></trkpt><trkpt lat="42.166535568024415" lon="12.787748697864117"><ele>274.0</ele><time>2026-03-22T16:42:14Z</time></trkpt><trkpt lat="42.16646153947803" lon="12.787946723129885"><ele>278.0</ele><time>2026-03-22T16:42:15Z</time></trkpt><trkpt lat="42.16640525207452" lon="12.788140698277658"><ele>268.0</ele><time>2026-03-22T16:42:16Z</time></trkpt><trkpt lat="42.16636337373916" lon="12.788341586902593"><ele>258.0</ele><time>2026-03-22T16:42:17Z</time></trkpt><trkpt lat="42.16634805847828" lon="12.788548582806174"><ele>248.0</ele><time>2026-03-22T16:42:18Z</time></trkpt><trkpt lat="42.166363915845096" lon="12.78876229053219"><ele>248.0</ele><time>2026-03-22T16:42:19Z</time></trkpt><trkpt lat="42.166380272445075" lon="12.788980674915285"><ele>248.0</ele><time>2026-03-22T16:42:20Z</time></trkpt><trkpt lat="42.16641410052689" lon="12.78920517061412"><ele>248.0</ele><time>2026-03-22T16:42:21Z</time></trkpt><trkpt lat="42.16647574533684" lon="12.789415336189592"><ele>255.66666666666669</ele><time>2026-03-22T16:42:22Z</time></trkpt><trkpt lat="42.166544576930235" lon="12.789615891237597"><ele>263.3333333333333</ele><time>2026-03-22T16:42:23Z</time></trkpt><trkpt lat="42.166632737999514" lon="12.789806564014066"><ele>271.0</ele><time>2026-03-22T16:42:24Z</time></trkpt><trkpt lat="42.16673933020339" lon="12.789985982061047"><ele>271.0</ele><time>2026-03-22T16:42:25Z</time></trkpt><trkpt lat="42.166854833038016" lon="12.79015104222152"><ele>271.0</ele><time>2026-03-22T16:42:26Z</time></trkpt><trkpt lat="42.166954371460065" lon="12.790303328717789"><ele>271.0</ele><time>2026-03-22T16:42:27Z</time></trkpt><trkpt lat="42.167036129605044" lon="12.790442920781166"><ele>270.5</ele><time>2026-03-22T16:42:28Z</time></trkpt><trkpt lat="42.16709932193589" lon="12.790572429187423"><ele>270.0</ele><time>2026-03-22T16:42:29Z</time></trkpt><trkpt lat="42.16713403388218" lon="12.790697957143466"><ele>269.5</ele><time>2026-03-22T16:42:30Z</time></trkpt><trkpt lat="42.16719388787625" lon="12.790769794638345"><ele>269.0</ele><time>2026-03-22T16:42:31Z</time></trkpt><trkpt lat="42.16710680276086" lon="12.79096826358425"><ele>269.4</ele><time>2026-03-22T16:42:32Z</time></trkpt><trkpt lat="42.16710972257785" lon="12.791122666404133"><ele>269.79999999999995</ele><time>2026-03-22T16:42:33Z</time></trkpt><trkpt lat="42.1671104758261" lon="12.791277450155707"><ele>270.20000000000005</ele><time>2026-03-22T16:42:34Z</time></trkpt><trkpt lat="42.167097724199365" lon="12.791392185408682"><ele>270.6</ele><time>2026-03-22T16:42:35Z</time></trkpt><trkpt lat="42.167064161336626" lon="12.791483541135184"><ele>271.0</ele><time>2026-03-22T16:42:36Z</time></trkpt><trkpt lat="42.16700402133834" lon="12.79157711197184"><ele>271.0</ele><time>2026-03-22T16:42:37Z</time></trkpt><trkpt lat="42.166913577367296" lon="12.7916558851981"><ele>271.0</ele><time>2026-03-22T16:42:38Z</time></trkpt><trkpt lat="42.166797294882784" lon="12.791730246309609"><ele>271.0</ele><time>2026-03-22T16:42:39Z</time></trkpt><trkpt lat="42.166673390747526" lon="12.791804885615095"><ele>271.0</ele><time>2026-03-22T16:42:40Z</time></trkpt><trkpt lat="42.16655251970095" lon="12.791886642701442"><ele>267.5</ele><time>2026-03-22T16:42:41Z</time></trkpt><trkpt lat="42.166449207968924" lon="12.791999347677844"><ele>264.0</ele><time>2026-03-22T16:42:42Z</time></trkpt><trkpt lat="42.16637091215877" lon="12.792145226455148"><ele>260.5</ele><time>2026-03-22T16:42:43Z</time></trkpt><trkpt lat="42.16629634431166" lon="12.792310960025423"><ele>257.0</ele><time>2026-03-22T16:42:44Z</time></trkpt><trkpt lat="42.16622777977011" lon="12.792478274921377"><ele>257.0</ele><time>2026-03-22T16:42:45Z</time></trkpt><trkpt lat="42.166134348504386" lon="12.792625286043693"><ele>257.0</ele><time>2026-03-22T16:42:46Z</time></trkpt><trkpt lat="42.16598989340226" lon="12.792733949172545"><ele>257.0</ele><time>2026-03-22T16:42:47Z</time></trkpt><trkpt lat="42.165845631998415" lon="12.792875202119975"><ele>259.0</ele><time>2026-03-22T16:42:48Z</time></trkpt><trkpt lat="42.165712250215044" lon="12.793022458106035"><ele>261.0</ele><time>2026-03-22T16:42:49Z</time></trkpt><trkpt lat="42.165597715265875" lon="12.793146038819012"><ele>263.0</ele><time>2026-03-22T16:42:50Z</time></trkpt><trkpt lat="42.16547868841143" lon="12.793241912877878"><ele>263.0</ele><time>2026-03-22T16:42:51Z</time></trkpt><trkpt lat="42.16534446960821" lon="12.79331677043362"><ele>263.0</ele><time>2026-03-22T16:42:52Z</time></trkpt><trkpt lat="42.16519845628844" lon="12.793388914911201"><ele>263.0</ele><time>2026-03-22T16:42:53Z</time></trkpt><trkpt lat="42.16506601724278" lon="12.7934421977999"><ele>263.0</ele><time>2026-03-22T16:42:54Z</time></trkpt><trkpt lat="42.164928319511375" lon="12.79345185855261"><ele>260.0</ele><time>2026-03-22T16:42:55Z</time></trkpt><trkpt lat="42.16478247843953" lon="12.793431492246771"><ele>257.0</ele><time>2026-03-22T16:42:56Z</time></trkpt><trkpt lat="42.16463495960628" lon="12.793386612004387"><ele>254.0</ele><time>2026-03-22T16:42:57Z</time></trkpt><trkpt lat="42.16450691082182" lon="12.793363895872368"><ele>251.0</ele><time>2026-03-22T16:42:58Z</time></trkpt><trkpt lat="42.16438596046735" lon="12.793385278598368"><ele>251.0</ele><time>2026-03-22T16:42:59Z</time></trkpt><trkpt lat="42.16427284923795" lon="12.793465474990102"><ele>251.0</ele><time>2026-03-22T16:43:00Z</time></trkpt><trkpt lat="42.164154662717856" lon="12.793555833471652"><ele>251.0</ele><time>2026-03-22T16:43:01Z</time></trkpt><trkpt lat="42.16402941595842" lon="12.793659859961751"><ele>251.0</ele><time>2026-03-22T16:43:02Z</time></trkpt><trkpt lat="42.163912202710804" lon="12.793768597270873"><ele>250.0</ele><time>2026-03-22T16:43:03Z</time></trkpt><trkpt lat="42.16381695217313" lon="12.793893760966599"><ele>249.0</ele><time>2026-03-22T16:43:04Z</time></trkpt><trkpt lat="42.16375256936205" lon="12.794033724014502"><ele>248.0</ele><time>2026-03-22T16:43:05Z</time></trkpt><trkpt lat="42.163711471906126" lon="12.794200737716897"><ele>247.0</ele><time>2026-03-22T16:43:06Z</time></trkpt><trkpt lat="42.1636926820976" lon="12.794370759172551"><ele>246.8</ele><time>2026-03-22T16:43:07Z</time></trkpt><trkpt lat="42.16371899157769" lon="12.794531994384016"><ele>246.6</ele><time>2026-03-22T16:43:08Z</time></trkpt><trkpt lat="42.16378167447155" lon="12.794654017257196"><ele>246.40000000000003</ele><time>2026-03-22T16:43:09Z</time></trkpt><trkpt lat="42.16383197150102" lon="12.794762959756099"><ele>246.20000000000002</ele><time>2026-03-22T16:43:10Z</time></trkpt><trkpt lat="42.163897059888626" lon="12.794863356548303"><ele>246.0</ele><time>2026-03-22T16:43:11Z</time></trkpt><trkpt lat="42.163962263294756" lon="12.794977839807611"><ele>246.0</ele><time>2026-03-22T16:43:12Z</time></trkpt><trkpt lat="42.16402457559302" lon="12.795098511458995"><ele>246.0</ele><time>2026-03-22T16:43:13Z</time></trkpt><trkpt lat="42.16409124592218" lon="12.795235211105231"><ele>246.0</ele><time>2026-03-22T16:43:14Z</time></trkpt><trkpt lat="42.16413326055" lon="12.795411164691648"><ele>246.0</ele><time>2026-03-22T16:43:15Z</time></trkpt><trkpt lat="42.16420471037843" lon="12.795589716881373"><ele>248.0</ele><time>2026-03-22T16:43:16Z</time></trkpt><trkpt lat="42.164269491898125" lon="12.79580741554561"><ele>250.0</ele><time>2026-03-22T16:43:17Z</time></trkpt><trkpt lat="42.164337672452604" lon="12.796028629602139"><ele>252.0</ele><time>2026-03-22T16:43:18Z</time></trkpt><trkpt lat="42.164406963365145" lon="12.796253782078248"><ele>252.0</ele><time>2026-03-22T16:43:19Z</time></trkpt><trkpt lat="42.16448299776335" lon="12.796492873530422"><ele>252.0</ele><time>2026-03-22T16:43:20Z</time></trkpt><trkpt lat="42.16456240368236" lon="12.796750218237792"><ele>252.0</ele><time>2026-03-22T16:43:21Z</time></trkpt><trkpt lat="42.164648327795874" lon="12.79699937827555"><ele>252.0</ele><time>2026-03-22T16:43:22Z</time></trkpt><trkpt lat="42.164734406614194" lon="12.79724245778669"><ele>252.0</ele><time>2026-03-22T16:43:23Z</time></trkpt><trkpt lat="42.164815673318515" lon="12.797488749873187"><ele>252.0</ele><time>2026-03-22T16:43:24Z</time></trkpt><trkpt lat="42.16489351842645" lon="12.797733000686598"><ele>252.66666666666669</ele><time>2026-03-22T16:43:25Z</time></trkpt><trkpt lat="42.1649713701953" lon="12.797973393414427"><ele>253.33333333333334</ele><time>2026-03-22T16:43:26Z</time></trkpt><trkpt lat="42.16505102844406" lon="12.798208920387468"><ele>254.0</ele><time>2026-03-22T16:43:27Z</time></trkpt><trkpt lat="42.165126165303334" lon="12.798433716026834"><ele>253.75</ele><time>2026-03-22T16:43:28Z</time></trkpt><trkpt lat="42.165194033750765" lon="12.798639526164509"><ele>253.5</ele><time>2026-03-22T16:43:29Z</time></trkpt><trkpt lat="42.16525558914536" lon="12.798815414040691"><ele>253.25</ele><time>2026-03-22T16:43:30Z</time></trkpt><trkpt lat="42.16529808244516" lon="12.798956129655922"><ele>253.0</ele><time>2026-03-22T16:43:31Z</time></trkpt><trkpt lat="42.165324674092425" lon="12.799070934428611"><ele>252.99999999999997</ele><time>2026-03-22T16:43:32Z</time></trkpt><trkpt lat="42.16534685529431" lon="12.799156764447693"><ele>253.0</ele><time>2026-03-22T16:43:33Z</time></trkpt><trkpt lat="42.16534177991611" lon="12.7992572273809"><ele>253.0</ele><time>2026-03-22T16:43:35Z</time></trkpt><trkpt lat="42.16522689387715" lon="12.799312515534808"><ele>253.0</ele><time>2026-03-22T16:43:36Z</time></trkpt><trkpt lat="42.16517502708334" lon="12.799400986845324"><ele>252.99999999999997</ele><time>2026-03-22T16:43:38Z</time></trkpt><trkpt lat="42.16511067744707" lon="12.799497307113699"><ele>253.0</ele><time>2026-03-22T16:43:40Z</time></trkpt><trkpt lat="42.16506001658934" lon="12.799607379530865"><ele>252.8</ele><time>2026-03-22T16:43:42Z</time></trkpt><trkpt lat="42.16502737937963" lon="12.7997056041954"><ele>252.60000000000002</ele><time>2026-03-22T16:43:45Z</time></trkpt><trkpt lat="42.16498928906257" lon="12.79980287271576"><ele>252.39999999999998</ele><time>2026-03-22T16:43:50Z</time></trkpt><trkpt lat="42.1649308733441" lon="12.799888561017367"><ele>252.2</ele><time>2026-03-22T16:43:53Z</time></trkpt><trkpt lat="42.16485701570518" lon="12.799971016264767"><ele>252.0</ele><time>2026-03-22T16:43:55Z</time></trkpt><trkpt lat="42.16476332402904" lon="12.80004116629324"><ele>253.2</ele><time>2026-03-22T16:43:57Z</time></trkpt><trkpt lat="42.16467235134206" lon="12.800141025548827"><ele>254.39999999999998</ele><time>2026-03-22T16:43:59Z</time></trkpt><trkpt lat="42.16461191813834" lon="12.80024129705343"><ele>255.60000000000002</ele><time>2026-03-22T16:44:00Z</time></trkpt><trkpt lat="42.16455525056188" lon="12.800293551789787"><ele>256.8</ele><time>2026-03-22T16:44:01Z</time></trkpt><trkpt lat="42.164482147364915" lon="12.80028950998706"><ele>258.0</ele><time>2026-03-22T16:44:02Z</time></trkpt><trkpt lat="42.164376441413175" lon="12.800202901427351"><ele>258.0</ele><time>2026-03-22T16:44:04Z</time></trkpt><trkpt lat="42.16427023719656" lon="12.800125007123794"><ele>258.0</ele><time>2026-03-22T16:44:06Z</time></trkpt><trkpt lat="42.16419984403968" lon="12.8001333072525"><ele>258.0</ele><time>2026-03-22T16:44:07Z</time></trkpt><trkpt lat="42.16412705458755" lon="12.80012034209275"><ele>258.0</ele><time>2026-03-22T16:44:08Z</time></trkpt><trkpt lat="42.164042081748086" lon="12.800121124427053"><ele>258.0</ele><time>2026-03-22T16:44:09Z</time></trkpt><trkpt lat="42.1639721625013" lon="12.800121768156464"><ele>258.0</ele><time>2026-03-22T16:44:10Z</time></trkpt><trkpt lat="42.16384788548714" lon="12.800093818443443"><ele>259.8</ele><time>2026-03-22T16:44:12Z</time></trkpt><trkpt lat="42.163793554991074" lon="12.799942759017005"><ele>261.6</ele><time>2026-03-22T16:44:15Z</time></trkpt><trkpt lat="42.163756556450004" lon="12.799841868466373"><ele>263.4</ele><time>2026-03-22T16:44:16Z</time></trkpt><trkpt lat="42.16370383810304" lon="12.799725356970646"><ele>265.2</ele><time>2026-03-22T16:44:17Z</time></trkpt><trkpt lat="42.163637825581304" lon="12.799618423314648"><ele>267.0</ele><time>2026-03-22T16:44:18Z</time></trkpt><trkpt lat="42.16357040609845" lon="12.799532488544557"><ele>267.0</ele><time>2026-03-22T16:44:19Z</time></trkpt><trkpt lat="42.163483687948705" lon="12.799415041135257"><ele>267.0</ele><time>2026-03-22T16:44:21Z</time></trkpt><trkpt lat="42.163416635320964" lon="12.79926057419049"><ele>267.0</ele><time>2026-03-22T16:44:23Z</time></trkpt><trkpt lat="42.16338068330894" lon="12.799156887200379"><ele>267.0</ele><time>2026-03-22T16:44:24Z</time></trkpt><trkpt lat="42.163336789395274" lon="12.799038200392264"><ele>267.0</ele><time>2026-03-22T16:44:25Z</time></trkpt><trkpt lat="42.163293440787584" lon="12.798906055839533"><ele>266.25</ele><time>2026-03-22T16:44:26Z</time></trkpt><trkpt lat="42.163245295462865" lon="12.798758672424011"><ele>265.5</ele><time>2026-03-22T16:44:27Z</time></trkpt><trkpt lat="42.16318483414859" lon="12.798601319827165"><ele>264.75</ele><time>2026-03-22T16:44:28Z</time></trkpt><trkpt lat="42.163116414788135" lon="12.798435871655396"><ele>264.0</ele><time>2026-03-22T16:44:29Z</time></trkpt><trkpt lat="42.16304862188827" lon="12.798269118555725"><ele>265.5</ele><time>2026-03-22T16:44:30Z</time></trkpt><trkpt lat="42.162982901396795" lon="12.798103156737904"><ele>267.0</ele><time>2026-03-22T16:44:31Z</time></trkpt><trkpt lat="42.16294113764227" lon="12.797944201858023"><ele>268.5</ele><time>2026-03-22T16:44:32Z</time></trkpt><trkpt lat="42.16288256654025" lon="12.7978197065898"><ele>270.0</ele><time>2026-03-22T16:44:33Z</time></trkpt><trkpt lat="42.1628243947482" lon="12.797690583433422"><ele>268.25</ele><time>2026-03-22T16:44:34Z</time></trkpt><trkpt lat="42.16275060671736" lon="12.797553869787295"><ele>266.5</ele><time>2026-03-22T16:44:35Z</time></trkpt><trkpt lat="42.16268862227988" lon="12.797428203501124"><ele>264.75</ele><time>2026-03-22T16:44:36Z</time></trkpt><trkpt lat="42.16263320898669" lon="12.797296815040784"><ele>263.0</ele><time>2026-03-22T16:44:37Z</time></trkpt><trkpt lat="42.16256799649886" lon="12.797170750711418"><ele>263.0</ele><time>2026-03-22T16:44:38Z</time></trkpt><trkpt lat="42.16250230097508" lon="12.79706678951753"><ele>263.0</ele><time>2026-03-22T16:44:39Z</time></trkpt><trkpt lat="42.162446685683484" lon="12.797003441039816"><ele>263.0</ele><time>2026-03-22T16:44:40Z</time></trkpt><trkpt lat="42.162384598009766" lon="12.79697795045532"><ele>263.0</ele><time>2026-03-22T16:44:41Z</time></trkpt><trkpt lat="42.16224904450038" lon="12.79702483345354"><ele>263.0</ele><time>2026-03-22T16:44:43Z</time></trkpt><trkpt lat="42.16216442184814" lon="12.797073193562223"><ele>266.0</ele><time>2026-03-22T16:44:44Z</time></trkpt><trkpt lat="42.16208845785429" lon="12.7971565295591"><ele>269.0</ele><time>2026-03-22T16:44:45Z</time></trkpt><trkpt lat="42.162035323090656" lon="12.797291252944325"><ele>272.0</ele><time>2026-03-22T16:44:46Z</time></trkpt><trkpt lat="42.16197868179314" lon="12.797451350018271"><ele>275.0</ele><time>2026-03-22T16:44:47Z</time></trkpt><trkpt lat="42.16192718561674" lon="12.797605699496883"><ele>275.25</ele><time>2026-03-22T16:44:48Z</time></trkpt><trkpt lat="42.16187602124634" lon="12.797772799666392"><ele>275.5</ele><time>2026-03-22T16:44:49Z</time></trkpt><trkpt lat="42.161795599747705" lon="12.797923273639391"><ele>275.75</ele><time>2026-03-22T16:44:50Z</time></trkpt><trkpt lat="42.16169301667777" lon="12.798052872892766"><ele>276.0</ele><time>2026-03-22T16:44:51Z</time></trkpt><trkpt lat="42.16159908622281" lon="12.79818118692608"><ele>279.25</ele><time>2026-03-22T16:44:52Z</time></trkpt><trkpt lat="42.16152332234701" lon="12.798333828585688"><ele>282.5</ele><time>2026-03-22T16:44:53Z</time></trkpt><trkpt lat="42.16147416106491" lon="12.798506665750867"><ele>285.75</ele><time>2026-03-22T16:44:54Z</time></trkpt><trkpt lat="42.16138921787081" lon="12.798647294291795"><ele>289.0</ele><time>2026-03-22T16:44:55Z</time></trkpt><trkpt lat="42.161308676549375" lon="12.798794624950029"><ele>289.0</ele><time>2026-03-22T16:44:56Z</time></trkpt><trkpt lat="42.161221386770166" lon="12.798927390843707"><ele>289.0</ele><time>2026-03-22T16:44:57Z</time></trkpt><trkpt lat="42.16112187045093" lon="12.799053925477061"><ele>289.0</ele><time>2026-03-22T16:44:58Z</time></trkpt><trkpt lat="42.16101881704645" lon="12.799181723005171"><ele>289.0</ele><time>2026-03-22T16:44:59Z</time></trkpt><trkpt lat="42.16092345761637" lon="12.799314749130426"><ele>288.75</ele><time>2026-03-22T16:45:00Z</time></trkpt><trkpt lat="42.16080352707823" lon="12.79942135003011"><ele>288.5</ele><time>2026-03-22T16:45:01Z</time></trkpt><trkpt lat="42.16068314141166" lon="12.799540154021251"><ele>288.25</ele><time>2026-03-22T16:45:02Z</time></trkpt><trkpt lat="42.16055986348999" lon="12.799648026679584"><ele>288.0</ele><time>2026-03-22T16:45:03Z</time></trkpt><trkpt lat="42.16044383903796" lon="12.799741699379709"><ele>289.4</ele><time>2026-03-22T16:45:04Z</time></trkpt><trkpt lat="42.16036567877524" lon="12.799836227024118"><ele>290.8</ele><time>2026-03-22T16:45:05Z</time></trkpt><trkpt lat="42.16028758834333" lon="12.799912172093991"><ele>292.2</ele><time>2026-03-22T16:45:06Z</time></trkpt><trkpt lat="42.160221300254534" lon="12.800023564173388"><ele>293.6</ele><time>2026-03-22T16:45:07Z</time></trkpt><trkpt lat="42.1601400551915" lon="12.800130587779586"><ele>295.0</ele><time>2026-03-22T16:45:08Z</time></trkpt><trkpt lat="42.1600456995775" lon="12.800229059386105"><ele>295.0</ele><time>2026-03-22T16:45:09Z</time></trkpt><trkpt lat="42.15993185463081" lon="12.800342438765277"><ele>295.0</ele><time>2026-03-22T16:45:10Z</time></trkpt><trkpt lat="42.15982196396811" lon="12.800444020398839"><ele>295.0</ele><time>2026-03-22T16:45:11Z</time></trkpt><trkpt lat="42.15970949463" lon="12.800517193963662"><ele>295.0</ele><time>2026-03-22T16:45:12Z</time></trkpt><trkpt lat="42.15960453863033" lon="12.800573049899342"><ele>295.5</ele><time>2026-03-22T16:45:13Z</time></trkpt><trkpt lat="42.15951612205219" lon="12.800604657875605"><ele>296.0</ele><time>2026-03-22T16:45:14Z</time></trkpt><trkpt lat="42.159440555118046" lon="12.800672798552327"><ele>296.5</ele><time>2026-03-22T16:45:15Z</time></trkpt><trkpt lat="42.159389833744676" lon="12.800775501692083"><ele>297.0</ele><time>2026-03-22T16:45:16Z</time></trkpt><trkpt lat="42.15938625919488" lon="12.800904256733471"><ele>297.5</ele><time>2026-03-22T16:45:17Z</time></trkpt><trkpt lat="42.1593875741952" lon="12.800998612319068"><ele>298.0</ele><time>2026-03-22T16:45:18Z</time></trkpt><trkpt lat="42.15941148183208" lon="12.80108819906171"><ele>298.6</ele><time>2026-03-22T16:45:19Z</time></trkpt><trkpt lat="42.159451174201166" lon="12.801182677504391"><ele>299.20000000000005</ele><time>2026-03-22T16:45:20Z</time></trkpt><trkpt lat="42.15951140670547" lon="12.801300860727586"><ele>299.8</ele><time>2026-03-22T16:45:21Z</time></trkpt><trkpt lat="42.15955069295965" lon="12.801430502331264"><ele>300.40000000000003</ele><time>2026-03-22T16:45:22Z</time></trkpt><trkpt lat="42.159534031626286" lon="12.801576579863"><ele>301.0</ele><time>2026-03-22T16:45:24Z</time></trkpt><trkpt lat="42.15946955034282" lon="12.801654611236614"><ele>301.0</ele><time>2026-03-22T16:45:25Z</time></trkpt><trkpt lat="42.15941131886453" lon="12.801793823655938"><ele>301.0</ele><time>2026-03-22T16:45:26Z</time></trkpt><trkpt lat="42.15934803964139" lon="12.80193942570728"><ele>301.0</ele><time>2026-03-22T16:45:27Z</time></trkpt><trkpt lat="42.15927641765628" lon="12.802075872543233"><ele>301.0</ele><time>2026-03-22T16:45:28Z</time></trkpt><trkpt lat="42.159198655488275" lon="12.802182146522053"><ele>301.25</ele><time>2026-03-22T16:45:29Z</time></trkpt><trkpt lat="42.15911977938675" lon="12.802284059045103"><ele>301.5</ele><time>2026-03-22T16:45:30Z</time></trkpt><trkpt lat="42.15903931202763" lon="12.802398854690583"><ele>301.75</ele><time>2026-03-22T16:45:31Z</time></trkpt><trkpt lat="42.15895853665618" lon="12.80253583579013"><ele>302.0</ele><time>2026-03-22T16:45:32Z</time></trkpt><trkpt lat="42.158908257468326" lon="12.802718130415775"><ele>304.75</ele><time>2026-03-22T16:45:33Z</time></trkpt><trkpt lat="42.15883414862995" lon="12.802879786018073"><ele>307.5</ele><time>2026-03-22T16:45:34Z</time></trkpt><trkpt lat="42.158730953198116" lon="12.803019982668697"><ele>310.25</ele><time>2026-03-22T16:45:35Z</time></trkpt><trkpt lat="42.158653240351384" lon="12.803179443632107"><ele>313.0</ele><time>2026-03-22T16:45:36Z</time></trkpt><trkpt lat="42.15860998669776" lon="12.803322340570425"><ele>313.0</ele><time>2026-03-22T16:45:37Z</time></trkpt><trkpt lat="42.15857665201477" lon="12.803431903583858"><ele>313.0</ele><time>2026-03-22T16:45:38Z</time></trkpt><trkpt lat="42.158529578994546" lon="12.80355646601549"><ele>313.0</ele><time>2026-03-22T16:45:39Z</time></trkpt><trkpt lat="42.15849390667096" lon="12.803696875665318"><ele>313.0</ele><time>2026-03-22T16:45:40Z</time></trkpt><trkpt lat="42.158454092821835" lon="12.803853268807908"><ele>313.0</ele><time>2026-03-22T16:45:41Z</time></trkpt><trkpt lat="42.158411992859754" lon="12.804006343308261"><ele>313.4</ele><time>2026-03-22T16:45:42Z</time></trkpt><trkpt lat="42.158370995401" lon="12.804134777932425"><ele>313.8</ele><time>2026-03-22T16:45:43Z</time></trkpt><trkpt lat="42.1583319226149" lon="12.804226892436088"><ele>314.2</ele><time>2026-03-22T16:45:44Z</time></trkpt><trkpt lat="42.15824054590663" lon="12.804315956177655"><ele>314.6</ele><time>2026-03-22T16:45:46Z</time></trkpt><trkpt lat="42.158176711682465" lon="12.804370961399483"><ele>315.0</ele><time>2026-03-22T16:45:47Z</time></trkpt><trkpt lat="42.15809578709854" lon="12.804439974555285"><ele>318.2</ele><time>2026-03-22T16:45:48Z</time></trkpt><trkpt lat="42.15800000378722" lon="12.804519540015223"><ele>321.4</ele><time>2026-03-22T16:45:49Z</time></trkpt><trkpt lat="42.157905555134214" lon="12.804597996802416"><ele>324.6</ele><time>2026-03-22T16:45:50Z</time></trkpt><trkpt lat="42.157817083223854" lon="12.80467148881264"><ele>327.8</ele><time>2026-03-22T16:45:51Z</time></trkpt><trkpt lat="42.15771714330125" lon="12.80475815943444"><ele>331.0</ele><time>2026-03-22T16:45:52Z</time></trkpt><trkpt lat="42.15763071439636" lon="12.80485190678151"><ele>331.0</ele><time>2026-03-22T16:45:53Z</time></trkpt><trkpt lat="42.157549421943436" lon="12.804964712673065"><ele>331.0</ele><time>2026-03-22T16:45:54Z</time></trkpt><trkpt lat="42.15747204875034" lon="12.80506490592538"><ele>331.0</ele><time>2026-03-22T16:45:55Z</time></trkpt><trkpt lat="42.157386301620235" lon="12.805154258500394"><ele>331.0</ele><time>2026-03-22T16:45:56Z</time></trkpt><trkpt lat="42.15730435217532" lon="12.805239968156913"><ele>331.0</ele><time>2026-03-22T16:45:57Z</time></trkpt><trkpt lat="42.157220832320114" lon="12.805334178709135"><ele>333.20000000000005</ele><time>2026-03-22T16:45:58Z</time></trkpt><trkpt lat="42.157147072165465" lon="12.805421740870301"><ele>335.40000000000003</ele><time>2026-03-22T16:45:59Z</time></trkpt><trkpt lat="42.15708210897677" lon="12.805535145513652"><ele>337.6</ele><time>2026-03-22T16:46:00Z</time></trkpt><trkpt lat="42.157045709193525" lon="12.805650517213941"><ele>339.8</ele><time>2026-03-22T16:46:01Z</time></trkpt><trkpt lat="42.15702300682421" lon="12.805776044538161"><ele>342.0</ele><time>2026-03-22T16:46:02Z</time></trkpt><trkpt lat="42.15699660608964" lon="12.805865167870534"><ele>342.0</ele><time>2026-03-22T16:46:03Z</time></trkpt><trkpt lat="42.15693322938447" lon="12.805949985146706"><ele>342.0</ele><time>2026-03-22T16:46:05Z</time></trkpt><trkpt lat="42.156842023066" lon="12.806009833385383"><ele>342.0</ele><time>2026-03-22T16:46:07Z</time></trkpt><trkpt lat="42.15676027233918" lon="12.806066739005859"><ele>342.0</ele><time>2026-03-22T16:46:08Z</time></trkpt><trkpt lat="42.15668472961755" lon="12.806126145679134"><ele>342.0</ele><time>2026-03-22T16:46:09Z</time></trkpt><trkpt lat="42.15660311640859" lon="12.806210648418011"><ele>342.20000000000005</ele><time>2026-03-22T16:46:11Z</time></trkpt><trkpt lat="42.15666332185379" lon="12.806394737238918"><ele>342.4</ele><time>2026-03-22T16:46:13Z</time></trkpt><trkpt lat="42.15670627107877" lon="12.806492834039112"><ele>342.6</ele><time>2026-03-22T16:46:14Z</time></trkpt><trkpt lat="42.15674133482023" lon="12.806599245345481"><ele>342.79999999999995</ele><time>2026-03-22T16:46:15Z</time></trkpt><trkpt lat="42.1567762130854" lon="12.806722736620989"><ele>343.0</ele><time>2026-03-22T16:46:16Z</time></trkpt><trkpt lat="42.156812878871456" lon="12.806833919918077"><ele>343.79999999999995</ele><time>2026-03-22T16:46:17Z</time></trkpt><trkpt lat="42.15686871881906" lon="12.80696628291472"><ele>344.6</ele><time>2026-03-22T16:46:18Z</time></trkpt><trkpt lat="42.15689416689734" lon="12.807124932613688"><ele>345.4</ele><time>2026-03-22T16:46:19Z</time></trkpt><trkpt lat="42.15692492394656" lon="12.80726816542311"><ele>346.20000000000005</ele><time>2026-03-22T16:46:20Z</time></trkpt><trkpt lat="42.156925423478505" lon="12.807362423956317"><ele>347.0</ele><time>2026-03-22T16:46:21Z</time></trkpt><trkpt lat="42.1568664844978" lon="12.807454058023414"><ele>347.0</ele><time>2026-03-22T16:46:23Z</time></trkpt><trkpt lat="42.1568031389894" lon="12.807454151206723"><ele>347.0</ele><time>2026-03-22T16:46:24Z</time></trkpt><trkpt lat="42.15672041407809" lon="12.807457323586608"><ele>347.0</ele><time>2026-03-22T16:46:25Z</time></trkpt><trkpt lat="42.15664994243321" lon="12.807422740522716"><ele>347.0</ele><time>2026-03-22T16:46:26Z</time></trkpt><trkpt lat="42.15653707994791" lon="12.807406624491147"><ele>347.0</ele><time>2026-03-22T16:46:27Z</time></trkpt><trkpt lat="42.156395022443725" lon="12.807395489942587"><ele>350.6666666666667</ele><time>2026-03-22T16:46:28Z</time></trkpt><trkpt lat="42.156236882177254" lon="12.807449878800677"><ele>354.3333333333333</ele><time>2026-03-22T16:46:29Z</time></trkpt><trkpt lat="42.156079262347404" lon="12.8074365229324"><ele>358.0</ele><time>2026-03-22T16:46:30Z</time></trkpt><trkpt lat="42.15591340480058" lon="12.807422301423204"><ele>358.0</ele><time>2026-03-22T16:46:31Z</time></trkpt><trkpt lat="42.155752582030196" lon="12.807487948234384"><ele>358.0</ele><time>2026-03-22T16:46:32Z</time></trkpt><trkpt lat="42.15561705714258" lon="12.807550741879277"><ele>358.0</ele><time>2026-03-22T16:46:33Z</time></trkpt><trkpt lat="42.15552106875018" lon="12.807622737609394"><ele>358.0</ele><time>2026-03-22T16:46:34Z</time></trkpt><trkpt lat="42.15543720107875" lon="12.807685789023427"><ele>361.5</ele><time>2026-03-22T16:46:35Z</time></trkpt><trkpt lat="42.15535086106667" lon="12.807776703818357"><ele>365.0</ele><time>2026-03-22T16:46:37Z</time></trkpt><trkpt lat="42.154968343379906" lon="12.807338271413297"><ele>365.0</ele><time>2026-03-22T16:46:38Z</time></trkpt><trkpt lat="42.15489962000442" lon="12.807299001009518"><ele>365.0</ele><time>2026-03-22T16:46:39Z</time></trkpt><trkpt lat="42.1548008457535" lon="12.807236413556144"><ele>365.0</ele><time>2026-03-22T16:46:40Z</time></trkpt><trkpt lat="42.15472470900384" lon="12.807205665456834"><ele>365.0</ele><time>2026-03-22T16:46:41Z</time></trkpt><trkpt lat="42.154617385369676" lon="12.80723476027271"><ele>365.0</ele><time>2026-03-22T16:46:43Z</time></trkpt><trkpt lat="42.15456061760379" lon="12.807319419012607"><ele>364.75</ele><time>2026-03-22T16:46:44Z</time></trkpt><trkpt lat="42.154482980382966" lon="12.807441952977179"><ele>364.5</ele><time>2026-03-22T16:46:45Z</time></trkpt><trkpt lat="42.15440811696327" lon="12.807555263553231"><ele>364.25</ele><time>2026-03-22T16:46:46Z</time></trkpt><trkpt lat="42.154319551759116" lon="12.807703318932226"><ele>364.0</ele><time>2026-03-22T16:46:47Z</time></trkpt><trkpt lat="42.154253771899235" lon="12.80782253013241"><ele>364.0</ele><time>2026-03-22T16:46:48Z</time></trkpt><trkpt lat="42.15419326686374" lon="12.807930023134466"><ele>364.0</ele><time>2026-03-22T16:46:49Z</time></trkpt><trkpt lat="42.154123736232016" lon="12.808046337640187"><ele>364.0</ele><time>2026-03-22T16:46:50Z</time></trkpt><trkpt lat="42.154050421903264" lon="12.808169278288279"><ele>364.0</ele><time>2026-03-22T16:46:51Z</time></trkpt><trkpt lat="42.15398660582768" lon="12.808288582720607"><ele>364.0</ele><time>2026-03-22T16:46:52Z</time></trkpt><trkpt lat="42.153907280322926" lon="12.808412846958278"><ele>364.75</ele><time>2026-03-22T16:46:53Z</time></trkpt><trkpt lat="42.15382623201056" lon="12.808551780622222"><ele>365.5</ele><time>2026-03-22T16:46:54Z</time></trkpt><trkpt lat="42.15374502551948" lon="12.808689377183853"><ele>366.25</ele><time>2026-03-22T16:46:55Z</time></trkpt><trkpt lat="42.153668455176984" lon="12.80881225135893"><ele>367.0</ele><time>2026-03-22T16:46:56Z</time></trkpt><trkpt lat="42.15362919223555" lon="12.808916300243334"><ele>367.0</ele><time>2026-03-22T16:46:57Z</time></trkpt><trkpt lat="42.15364817064013" lon="12.809070023779459"><ele>367.0</ele><time>2026-03-22T16:46:59Z</time></trkpt><trkpt lat="42.15369749249643" lon="12.809155501048117"><ele>367.0</ele><time>2026-03-22T16:47:00Z</time></trkpt><trkpt lat="42.15375993061012" lon="12.80923603387315"><ele>367.0</ele><time>2026-03-22T16:47:01Z</time></trkpt><trkpt lat="42.15382680148511" lon="12.809316726368392"><ele>367.0</ele><time>2026-03-22T16:47:02Z</time></trkpt><trkpt lat="42.15390030321263" lon="12.809399996037708"><ele>369.0</ele><time>2026-03-22T16:47:03Z</time></trkpt><trkpt lat="42.153953078164946" lon="12.809488035139276"><ele>371.0</ele><time>2026-03-22T16:47:04Z</time></trkpt><trkpt lat="42.15393180824566" lon="12.809602435323033"><ele>373.0</ele><time>2026-03-22T16:47:06Z</time></trkpt><trkpt lat="42.15387071588993" lon="12.809669479518638"><ele>375.0</ele><time>2026-03-22T16:47:07Z</time></trkpt><trkpt lat="42.15374422635882" lon="12.809671538940822"><ele>377.0</ele><time>2026-03-22T16:47:08Z</time></trkpt><trkpt lat="42.153647158611534" lon="12.80975471004118"><ele>377.0</ele><time>2026-03-22T16:47:09Z</time></trkpt><trkpt lat="42.15353201283419" lon="12.809852721374837"><ele>377.0</ele><time>2026-03-22T16:47:10Z</time></trkpt><trkpt lat="42.15340868968129" lon="12.809955283860361"><ele>377.0</ele><time>2026-03-22T16:47:11Z</time></trkpt><trkpt lat="42.15327817900717" lon="12.81006186751059"><ele>377.0</ele><time>2026-03-22T16:47:12Z</time></trkpt><trkpt lat="42.15314710336528" lon="12.810167563677627"><ele>378.0</ele><time>2026-03-22T16:47:13Z</time></trkpt><trkpt lat="42.153019670928686" lon="12.81026993361193"><ele>379.0</ele><time>2026-03-22T16:47:14Z</time></trkpt><trkpt lat="42.152900668476484" lon="12.810365734249084"><ele>380.0</ele><time>2026-03-22T16:47:15Z</time></trkpt><trkpt lat="42.152775013903906" lon="12.81046730701016"><ele>381.0</ele><time>2026-03-22T16:47:16Z</time></trkpt><trkpt lat="42.15265003699487" lon="12.810571978850765"><ele>381.0</ele><time>2026-03-22T16:47:17Z</time></trkpt><trkpt lat="42.15253208097306" lon="12.810672705398803"><ele>381.0</ele><time>2026-03-22T16:47:18Z</time></trkpt><trkpt lat="42.15243448457592" lon="12.810772481648778"><ele>381.0</ele><time>2026-03-22T16:47:19Z</time></trkpt><trkpt lat="42.15232048626239" lon="12.81092388801392"><ele>381.0</ele><time>2026-03-22T16:47:20Z</time></trkpt><trkpt lat="42.152204751890665" lon="12.811094976500181"><ele>381.0</ele><time>2026-03-22T16:47:21Z</time></trkpt><trkpt lat="42.15209111966872" lon="12.811274296203493"><ele>381.0</ele><time>2026-03-22T16:47:22Z</time></trkpt><trkpt lat="42.15197347108305" lon="12.811468196887713"><ele>381.0</ele><time>2026-03-22T16:47:23Z</time></trkpt><trkpt lat="42.15187206816818" lon="12.811641417606676"><ele>381.0</ele><time>2026-03-22T16:47:24Z</time></trkpt><trkpt lat="42.15178500942885" lon="12.811798682517114"><ele>381.0</ele><time>2026-03-22T16:47:25Z</time></trkpt><trkpt lat="42.15169522043558" lon="12.811969823332424"><ele>381.0</ele><time>2026-03-22T16:47:26Z</time></trkpt><trkpt lat="42.15161561792761" lon="12.812164612946328"><ele>380.75</ele><time>2026-03-22T16:47:27Z</time></trkpt><trkpt lat="42.151541043882204" lon="12.81234960014008"><ele>380.5</ele><time>2026-03-22T16:47:28Z</time></trkpt><trkpt lat="42.15146058260108" lon="12.812489698278632"><ele>380.25</ele><time>2026-03-22T16:47:29Z</time></trkpt><trkpt lat="42.151374489979155" lon="12.81262443244846"><ele>380.0</ele><time>2026-03-22T16:47:30Z</time></trkpt><trkpt lat="42.15127893529941" lon="12.812771681413244"><ele>382.6666666666667</ele><time>2026-03-22T16:47:31Z</time></trkpt><trkpt lat="42.15117634359967" lon="12.812928529624173"><ele>385.33333333333337</ele><time>2026-03-22T16:47:32Z</time></trkpt><trkpt lat="42.15106780604374" lon="12.8130841936591"><ele>388.0</ele><time>2026-03-22T16:47:33Z</time></trkpt><trkpt lat="42.15096975546641" lon="12.813234799017195"><ele>388.0</ele><time>2026-03-22T16:47:34Z</time></trkpt><trkpt lat="42.15088180905441" lon="12.81334257700475"><ele>388.0</ele><time>2026-03-22T16:47:35Z</time></trkpt><trkpt lat="42.15078879474466" lon="12.81340032281351"><ele>388.0</ele><time>2026-03-22T16:47:36Z</time></trkpt><trkpt lat="42.15068676033077" lon="12.813444714235066"><ele>388.0</ele><time>2026-03-22T16:47:37Z</time></trkpt><trkpt lat="42.15055026977593" lon="12.813506035301446"><ele>389.6666666666667</ele><time>2026-03-22T16:47:38Z</time></trkpt><trkpt lat="42.150424062032315" lon="12.813614543786246"><ele>391.33333333333337</ele><time>2026-03-22T16:47:39Z</time></trkpt><trkpt lat="42.150289309798005" lon="12.81369680092813"><ele>393.0</ele><time>2026-03-22T16:47:40Z</time></trkpt><trkpt lat="42.150140811213056" lon="12.813744993339698"><ele>393.0</ele><time>2026-03-22T16:47:41Z</time></trkpt><trkpt lat="42.149986129110566" lon="12.81380707410229"><ele>393.0</ele><time>2026-03-22T16:47:42Z</time></trkpt><trkpt lat="42.14983250884467" lon="12.813878936420148"><ele>393.0</ele><time>2026-03-22T16:47:43Z</time></trkpt><trkpt lat="42.14968265473507" lon="12.813963850358594"><ele>395.75</ele><time>2026-03-22T16:47:44Z</time></trkpt><trkpt lat="42.14955516721597" lon="12.81407441243427"><ele>398.5</ele><time>2026-03-22T16:47:45Z</time></trkpt><trkpt lat="42.149442901252414" lon="12.8141973393051"><ele>401.25</ele><time>2026-03-22T16:47:46Z</time></trkpt><trkpt lat="42.14933027140495" lon="12.81432098352264"><ele>404.0</ele><time>2026-03-22T16:47:47Z</time></trkpt><trkpt lat="42.149214567038825" lon="12.814443013667896"><ele>404.0</ele><time>2026-03-22T16:47:48Z</time></trkpt><trkpt lat="42.14909698778696" lon="12.814549535988759"><ele>404.0</ele><time>2026-03-22T16:47:49Z</time></trkpt><trkpt lat="42.148978453283085" lon="12.814648138682017"><ele>404.0</ele><time>2026-03-22T16:47:50Z</time></trkpt><trkpt lat="42.148850876174436" lon="12.81474637400799"><ele>404.0</ele><time>2026-03-22T16:47:51Z</time></trkpt><trkpt lat="42.148717268091225" lon="12.814844939255899"><ele>407.66666666666663</ele><time>2026-03-22T16:47:52Z</time></trkpt><trkpt lat="42.148577233559585" lon="12.814941873323312"><ele>411.33333333333337</ele><time>2026-03-22T16:47:53Z</time></trkpt><trkpt lat="42.14844291097327" lon="12.815032330354986"><ele>415.0</ele><time>2026-03-22T16:47:54Z</time></trkpt><trkpt lat="42.14831159535053" lon="12.815114578339148"><ele>415.5</ele><time>2026-03-22T16:47:55Z</time></trkpt><trkpt lat="42.148198259019495" lon="12.815180825749877"><ele>416.0</ele><time>2026-03-22T16:47:56Z</time></trkpt><trkpt lat="42.14808513375194" lon="12.815235955110074"><ele>416.5</ele><time>2026-03-22T16:47:57Z</time></trkpt><trkpt lat="42.14794842865618" lon="12.815298465126414"><ele>417.0</ele><time>2026-03-22T16:47:58Z</time></trkpt><trkpt lat="42.147797284831576" lon="12.815360577732907"><ele>417.0</ele><time>2026-03-22T16:47:59Z</time></trkpt><trkpt lat="42.147644495735825" lon="12.815432034489977"><ele>417.0</ele><time>2026-03-22T16:48:00Z</time></trkpt><trkpt lat="42.14752451198442" lon="12.815495781562756"><ele>417.0</ele><time>2026-03-22T16:48:01Z</time></trkpt><trkpt lat="42.14741330818265" lon="12.81557253041913"><ele>417.0</ele><time>2026-03-22T16:48:02Z</time></trkpt><trkpt lat="42.147309657562715" lon="12.815700395701839"><ele>416.0</ele><time>2026-03-22T16:48:03Z</time></trkpt><trkpt lat="42.14719489563706" lon="12.815841076949676"><ele>415.0</ele><time>2026-03-22T16:48:04Z</time></trkpt><trkpt lat="42.14707908702232" lon="12.816005020193844"><ele>414.0</ele><time>2026-03-22T16:48:05Z</time></trkpt><trkpt lat="42.146953093584784" lon="12.81614523960421"><ele>414.0</ele><time>2026-03-22T16:48:06Z</time></trkpt><trkpt lat="42.14685320572236" lon="12.816282072669383"><ele>414.0</ele><time>2026-03-22T16:48:07Z</time></trkpt><trkpt lat="42.14676224177468" lon="12.816384428035565"><ele>414.0</ele><time>2026-03-22T16:48:08Z</time></trkpt><trkpt lat="42.14667070114881" lon="12.81646435977492"><ele>414.0</ele><time>2026-03-22T16:48:09Z</time></trkpt><trkpt lat="42.14658712317021" lon="12.816527938435478"><ele>415.25</ele><time>2026-03-22T16:48:10Z</time></trkpt><trkpt lat="42.14649081153988" lon="12.8165980768336"><ele>416.5</ele><time>2026-03-22T16:48:11Z</time></trkpt><trkpt lat="42.14637775004394" lon="12.816678512056871"><ele>417.75</ele><time>2026-03-22T16:48:12Z</time></trkpt><trkpt lat="42.14624698908263" lon="12.816771359207268"><ele>419.0</ele><time>2026-03-22T16:48:13Z</time></trkpt><trkpt lat="42.146122960527094" lon="12.816854885474891"><ele>419.25</ele><time>2026-03-22T16:48:14Z</time></trkpt><trkpt lat="42.14601546366063" lon="12.816917604873987"><ele>419.5</ele><time>2026-03-22T16:48:15Z</time></trkpt><trkpt lat="42.1459046299218" lon="12.816963221293985"><ele>419.75</ele><time>2026-03-22T16:48:16Z</time></trkpt><trkpt lat="42.1457702374116" lon="12.81700480913137"><ele>420.0</ele><time>2026-03-22T16:48:17Z</time></trkpt><trkpt lat="42.14560509198394" lon="12.817047706844566"><ele>420.0</ele><time>2026-03-22T16:48:18Z</time></trkpt><trkpt lat="42.14542585790121" lon="12.817093218823803"><ele>420.0</ele><time>2026-03-22T16:48:19Z</time></trkpt><trkpt lat="42.14524647241239" lon="12.817134882466291"><ele>420.0</ele><time>2026-03-22T16:48:20Z</time></trkpt><trkpt lat="42.14510906970072" lon="12.817165848521139"><ele>420.0</ele><time>2026-03-22T16:48:21Z</time></trkpt><trkpt lat="42.14498591320222" lon="12.817205895143541"><ele>420.0</ele><time>2026-03-22T16:48:22Z</time></trkpt><trkpt lat="42.14486985099352" lon="12.817280683654104"><ele>420.0</ele><time>2026-03-22T16:48:23Z</time></trkpt><trkpt lat="42.144746336576006" lon="12.817380425686704"><ele>420.0</ele><time>2026-03-22T16:48:24Z</time></trkpt><trkpt lat="42.1446222528876" lon="12.817499279004181"><ele>421.66666666666663</ele><time>2026-03-22T16:48:25Z</time></trkpt><trkpt lat="42.144495365246435" lon="12.817633226082592"><ele>423.3333333333333</ele><time>2026-03-22T16:48:26Z</time></trkpt><trkpt lat="42.144370152981175" lon="12.817776139648467"><ele>425.0</ele><time>2026-03-22T16:48:27Z</time></trkpt><trkpt lat="42.144256399268194" lon="12.817904123341009"><ele>425.0</ele><time>2026-03-22T16:48:28Z</time></trkpt><trkpt lat="42.14414639858298" lon="12.818024524198595"><ele>425.0</ele><time>2026-03-22T16:48:29Z</time></trkpt><trkpt lat="42.144039934333634" lon="12.818135837639876"><ele>425.0</ele><time>2026-03-22T16:48:30Z</time></trkpt><trkpt lat="42.14393248775679" lon="12.818245418510466"><ele>425.0</ele><time>2026-03-22T16:48:31Z</time></trkpt><trkpt lat="42.1438227266615" lon="12.81835735980076"><ele>424.3333333333333</ele><time>2026-03-22T16:48:32Z</time></trkpt><trkpt lat="42.143702023275694" lon="12.818480606136772"><ele>423.66666666666663</ele><time>2026-03-22T16:48:33Z</time></trkpt><trkpt lat="42.143577555326154" lon="12.818608297694729"><ele>423.0</ele><time>2026-03-22T16:48:34Z</time></trkpt><trkpt lat="42.14344925402564" lon="12.818739921837016"><ele>423.0</ele><time>2026-03-22T16:48:35Z</time></trkpt><trkpt lat="42.14332270287915" lon="12.818872664089527"><ele>423.0</ele><time>2026-03-22T16:48:36Z</time></trkpt><trkpt lat="42.14320009087101" lon="12.81900440845435"><ele>423.0</ele><time>2026-03-22T16:48:37Z</time></trkpt><trkpt lat="42.14307973639722" lon="12.819143306844836"><ele>424.5</ele><time>2026-03-22T16:48:38Z</time></trkpt><trkpt lat="42.142964705570684" lon="12.819273800380953"><ele>426.0</ele><time>2026-03-22T16:48:39Z</time></trkpt><trkpt lat="42.14286002402823" lon="12.819380186018922"><ele>427.5</ele><time>2026-03-22T16:48:40Z</time></trkpt><trkpt lat="42.14276422171441" lon="12.819469606353326"><ele>429.0</ele><time>2026-03-22T16:48:41Z</time></trkpt><trkpt lat="42.14265940823387" lon="12.819557411342336"><ele>429.0</ele><time>2026-03-22T16:48:42Z</time></trkpt><trkpt lat="42.14253509653025" lon="12.819632179225241"><ele>429.0</ele><time>2026-03-22T16:48:43Z</time></trkpt><trkpt lat="42.14240658181429" lon="12.819741130982328"><ele>429.0</ele><time>2026-03-22T16:48:44Z</time></trkpt><trkpt lat="42.14230686777523" lon="12.81984593611116"><ele>429.0</ele><time>2026-03-22T16:48:45Z</time></trkpt><trkpt lat="42.142213404698225" lon="12.819934150727581"><ele>429.0</ele><time>2026-03-22T16:48:46Z</time></trkpt><trkpt lat="42.142126260830196" lon="12.820002663840237"><ele>429.0</ele><time>2026-03-22T16:48:47Z</time></trkpt><trkpt lat="42.14204418644721" lon="12.820057094690803"><ele>429.0</ele><time>2026-03-22T16:48:48Z</time></trkpt><trkpt lat="42.14196669069042" lon="12.820096799456438"><ele>429.0</ele><time>2026-03-22T16:48:49Z</time></trkpt><trkpt lat="42.14189300327697" lon="12.820127755733873"><ele>429.0</ele><time>2026-03-22T16:48:50Z</time></trkpt><trkpt lat="42.14183220803953" lon="12.82015025921013"><ele>429.0</ele><time>2026-03-22T16:48:51Z</time></trkpt><trkpt lat="42.14175636762264" lon="12.820168443893618"><ele>429.0</ele><time>2026-03-22T16:48:53Z</time></trkpt><trkpt lat="42.141726946086386" lon="12.820084875245339"><ele>429.0</ele><time>2026-03-22T16:49:20Z</time></trkpt><trkpt lat="42.14167929035196" lon="12.820014088194103"><ele>429.0</ele><time>2026-03-22T16:49:21Z</time></trkpt><trkpt lat="42.141609875441986" lon="12.819928826187054"><ele>429.0</ele><time>2026-03-22T16:49:22Z</time></trkpt><trkpt lat="42.141518961715455" lon="12.819825636192762"><ele>429.0</ele><time>2026-03-22T16:49:23Z</time></trkpt><trkpt lat="42.14143008493227" lon="12.81967189970212"><ele>428.75</ele><time>2026-03-22T16:49:24Z</time></trkpt><trkpt lat="42.14131699530023" lon="12.819535428319869"><ele>428.5</ele><time>2026-03-22T16:49:25Z</time></trkpt><trkpt lat="42.14120513161913" lon="12.819406460062929"><ele>428.25</ele><time>2026-03-22T16:49:26Z</time></trkpt><trkpt lat="42.14110643901243" lon="12.819285278855556"><ele>428.0</ele><time>2026-03-22T16:49:27Z</time></trkpt><trkpt lat="42.141020694468054" lon="12.819165528064602"><ele>428.0</ele><time>2026-03-22T16:49:28Z</time></trkpt><trkpt lat="42.14094181242496" lon="12.819031833795346"><ele>428.0</ele><time>2026-03-22T16:49:29Z</time></trkpt><trkpt lat="42.140873098324505" lon="12.818878418448564"><ele>428.0</ele><time>2026-03-22T16:49:30Z</time></trkpt><trkpt lat="42.14081569149881" lon="12.818706405975195"><ele>428.0</ele><time>2026-03-22T16:49:31Z</time></trkpt><trkpt lat="42.14075423873487" lon="12.818524015955953"><ele>428.0</ele><time>2026-03-22T16:49:32Z</time></trkpt><trkpt lat="42.14072416687606" lon="12.818364921400551"><ele>427.99999999999994</ele><time>2026-03-22T16:49:33Z</time></trkpt><trkpt lat="42.140713257068526" lon="12.818216803557398"><ele>427.99999999999994</ele><time>2026-03-22T16:49:34Z</time></trkpt><trkpt lat="42.140743811220524" lon="12.818081049570397"><ele>428.0</ele><time>2026-03-22T16:49:35Z</time></trkpt><trkpt lat="42.1407997858393" lon="12.817950959756287"><ele>428.0</ele><time>2026-03-22T16:49:36Z</time></trkpt><trkpt lat="42.14088460207209" lon="12.817835245896381"><ele>428.0</ele><time>2026-03-22T16:49:37Z</time></trkpt><trkpt lat="42.14096648958638" lon="12.81771238704629"><ele>428.0</ele><time>2026-03-22T16:49:38Z</time></trkpt><trkpt lat="42.14102296591194" lon="12.817557627863982"><ele>428.0</ele><time>2026-03-22T16:49:39Z</time></trkpt><trkpt lat="42.14105548150993" lon="12.817396727035707"><ele>428.0</ele><time>2026-03-22T16:49:40Z</time></trkpt><trkpt lat="42.14106604081514" lon="12.817241469839155"><ele>429.0</ele><time>2026-03-22T16:49:41Z</time></trkpt><trkpt lat="42.14106993956613" lon="12.81711293889876"><ele>429.99999999999994</ele><time>2026-03-22T16:49:42Z</time></trkpt><trkpt lat="42.141028330244886" lon="12.817001841304837"><ele>430.99999999999994</ele><time>2026-03-22T16:49:43Z</time></trkpt><trkpt lat="42.14092912870199" lon="12.8169348509265"><ele>432.0</ele><time>2026-03-22T16:49:44Z</time></trkpt><trkpt lat="42.14083893525112" lon="12.816885200239863"><ele>433.0</ele><time>2026-03-22T16:49:45Z</time></trkpt><trkpt lat="42.14072901763717" lon="12.816850794915824"><ele>437.33333333333337</ele><time>2026-03-22T16:49:46Z</time></trkpt><trkpt lat="42.14057777838979" lon="12.816855229543084"><ele>441.66666666666663</ele><time>2026-03-22T16:49:47Z</time></trkpt><trkpt lat="42.140416539650985" lon="12.816886366225994"><ele>446.0</ele><time>2026-03-22T16:49:48Z</time></trkpt><trkpt lat="42.14024087606551" lon="12.81692454247334"><ele>446.0</ele><time>2026-03-22T16:49:49Z</time></trkpt><trkpt lat="42.14005430149864" lon="12.816969107995615"><ele>446.0</ele><time>2026-03-22T16:49:50Z</time></trkpt><trkpt lat="42.13986595288756" lon="12.817012720662163"><ele>446.0</ele><time>2026-03-22T16:49:51Z</time></trkpt><trkpt lat="42.13970133833611" lon="12.817047992109067"><ele>447.6</ele><time>2026-03-22T16:49:52Z</time></trkpt><trkpt lat="42.139558640611966" lon="12.817074857691967"><ele>449.20000000000005</ele><time>2026-03-22T16:49:53Z</time></trkpt><trkpt lat="42.1394450067091" lon="12.817089030237264"><ele>450.79999999999995</ele><time>2026-03-22T16:49:54Z</time></trkpt><trkpt lat="42.139364789165654" lon="12.817071230254209"><ele>452.4</ele><time>2026-03-22T16:49:55Z</time></trkpt><trkpt lat="42.13930088386524" lon="12.81702025516989"><ele>454.0</ele><time>2026-03-22T16:49:56Z</time></trkpt><trkpt lat="42.13927058201045" lon="12.816942532140235"><ele>453.4</ele><time>2026-03-22T16:49:57Z</time></trkpt><trkpt lat="42.13924659818494" lon="12.816790350901245"><ele>452.79999999999995</ele><time>2026-03-22T16:49:59Z</time></trkpt><trkpt lat="42.13924653770655" lon="12.816665255746928"><ele>452.20000000000005</ele><time>2026-03-22T16:50:01Z</time></trkpt><trkpt lat="42.139308197221794" lon="12.816517286561963"><ele>451.6</ele><time>2026-03-22T16:50:03Z</time></trkpt><trkpt lat="42.13935114006173" lon="12.816443400385484"><ele>451.0</ele><time>2026-03-22T16:50:04Z</time></trkpt><trkpt lat="42.13940124367123" lon="12.816360006826056"><ele>451.00000000000006</ele><time>2026-03-22T16:50:05Z</time></trkpt><trkpt lat="42.13944371838265" lon="12.816279884971328"><ele>451.0</ele><time>2026-03-22T16:50:06Z</time></trkpt><trkpt lat="42.13948542642301" lon="12.816199783371573"><ele>451.0</ele><time>2026-03-22T16:50:07Z</time></trkpt><trkpt lat="42.139532371934905" lon="12.81611144840111"><ele>451.0</ele><time>2026-03-22T16:50:08Z</time></trkpt><trkpt lat="42.13958990995715" lon="12.815997580725856"><ele>451.00000000000006</ele><time>2026-03-22T16:50:09Z</time></trkpt><trkpt lat="42.139650953177664" lon="12.815865976427267"><ele>451.0</ele><time>2026-03-22T16:50:10Z</time></trkpt><trkpt lat="42.13971365945124" lon="12.815713636427752"><ele>456.5</ele><time>2026-03-22T16:50:11Z</time></trkpt><trkpt lat="42.13977268358658" lon="12.815576294669874"><ele>462.0</ele><time>2026-03-22T16:50:12Z</time></trkpt><trkpt lat="42.13981722915215" lon="12.815441231340229"><ele>467.5</ele><time>2026-03-22T16:50:13Z</time></trkpt><trkpt lat="42.139832987828036" lon="12.815282889016538"><ele>473.0</ele><time>2026-03-22T16:50:14Z</time></trkpt><trkpt lat="42.13984337279061" lon="12.815124185738986"><ele>479.0</ele><time>2026-03-22T16:50:15Z</time></trkpt><trkpt lat="42.13985024031989" lon="12.814965544883133"><ele>485.0</ele><time>2026-03-22T16:50:16Z</time></trkpt><trkpt lat="42.139850348522586" lon="12.814806075387375"><ele>491.0</ele><time>2026-03-22T16:50:17Z</time></trkpt><trkpt lat="42.139856772374834" lon="12.814643274970335"><ele>497.0</ele><time>2026-03-22T16:50:18Z</time></trkpt><trkpt lat="42.13983157273407" lon="12.81449087686123"><ele>497.0</ele><time>2026-03-22T16:50:19Z</time></trkpt><trkpt lat="42.139791559709195" lon="12.814333974730602"><ele>497.0</ele><time>2026-03-22T16:50:20Z</time></trkpt><trkpt lat="42.13973105957803" lon="12.814173344779109"><ele>497.0</ele><time>2026-03-22T16:50:21Z</time></trkpt><trkpt lat="42.13966289533664" lon="12.814016998107538"><ele>497.0</ele><time>2026-03-22T16:50:22Z</time></trkpt><trkpt lat="42.13958458404635" lon="12.81385386797569"><ele>498.25</ele><time>2026-03-22T16:50:23Z</time></trkpt><trkpt lat="42.139503343100245" lon="12.813680736098089"><ele>499.5</ele><time>2026-03-22T16:50:24Z</time></trkpt><trkpt lat="42.13941536928163" lon="12.813527747249658"><ele>500.75</ele><time>2026-03-22T16:50:25Z</time></trkpt><trkpt lat="42.13931100235096" lon="12.813382899831684"><ele>502.0</ele><time>2026-03-22T16:50:26Z</time></trkpt><trkpt lat="42.139190909972235" lon="12.813264009964437"><ele>506.0</ele><time>2026-03-22T16:50:27Z</time></trkpt><trkpt lat="42.139066516409834" lon="12.813165469741739"><ele>510.0</ele><time>2026-03-22T16:50:28Z</time></trkpt><trkpt lat="42.13894488456635" lon="12.813068262690832"><ele>514.0</ele><time>2026-03-22T16:50:29Z</time></trkpt><trkpt lat="42.138823070521156" lon="12.812973527004154"><ele>518.0</ele><time>2026-03-22T16:50:30Z</time></trkpt><trkpt lat="42.13870029951052" lon="12.81289845391392"><ele>518.0</ele><time>2026-03-22T16:50:31Z</time></trkpt><trkpt lat="42.13856343352776" lon="12.812834509816563"><ele>518.0</ele><time>2026-03-22T16:50:32Z</time></trkpt><trkpt lat="42.13841849892192" lon="12.812777662023136"><ele>518.0</ele><time>2026-03-22T16:50:33Z</time></trkpt><trkpt lat="42.13827213938644" lon="12.812722729099548"><ele>518.0</ele><time>2026-03-22T16:50:34Z</time></trkpt><trkpt lat="42.13811763817387" lon="12.812671079635928"><ele>519.0</ele><time>2026-03-22T16:50:35Z</time></trkpt><trkpt lat="42.13796108014838" lon="12.812647243597526"><ele>520.0</ele><time>2026-03-22T16:50:36Z</time></trkpt><trkpt lat="42.13781274767129" lon="12.81262734414551"><ele>521.0</ele><time>2026-03-22T16:50:37Z</time></trkpt><trkpt lat="42.13769124519066" lon="12.81258276637433"><ele>522.0</ele><time>2026-03-22T16:50:38Z</time></trkpt><trkpt lat="42.13759880392314" lon="12.812517130769809"><ele>522.0</ele><time>2026-03-22T16:50:39Z</time></trkpt><trkpt lat="42.13753275308356" lon="12.812419784985519"><ele>522.0</ele><time>2026-03-22T16:50:40Z</time></trkpt><trkpt lat="42.13748079768909" lon="12.81229411447242"><ele>522.0</ele><time>2026-03-22T16:50:41Z</time></trkpt><trkpt lat="42.13743986261873" lon="12.812143767937888"><ele>522.0</ele><time>2026-03-22T16:50:42Z</time></trkpt><trkpt lat="42.13740477294021" lon="12.811990791082"><ele>522.0</ele><time>2026-03-22T16:50:43Z</time></trkpt><trkpt lat="42.13734924411962" lon="12.811837809780435"><ele>527.25</ele><time>2026-03-22T16:50:44Z</time></trkpt><trkpt lat="42.1372809008656" lon="12.811688871691347"><ele>532.5</ele><time>2026-03-22T16:50:45Z</time></trkpt><trkpt lat="42.13720020442778" lon="12.811543896021476"><ele>537.75</ele><time>2026-03-22T16:50:46Z</time></trkpt><trkpt lat="42.137140865800404" lon="12.81139594402005"><ele>543.0</ele><time>2026-03-22T16:50:47Z</time></trkpt><trkpt lat="42.13710741042406" lon="12.81124016973301"><ele>543.0</ele><time>2026-03-22T16:50:48Z</time></trkpt><trkpt lat="42.137097900142265" lon="12.811077280022959"><ele>543.0</ele><time>2026-03-22T16:50:49Z</time></trkpt><trkpt lat="42.137115517296" lon="12.81089998779774"><ele>543.0</ele><time>2026-03-22T16:50:50Z</time></trkpt><trkpt lat="42.137152482577214" lon="12.81072151524739"><ele>543.0</ele><time>2026-03-22T16:50:51Z</time></trkpt><trkpt lat="42.1371999309891" lon="12.81054559787647"><ele>545.25</ele><time>2026-03-22T16:50:52Z</time></trkpt><trkpt lat="42.137236622883314" lon="12.810368937558737"><ele>547.5</ele><time>2026-03-22T16:50:53Z</time></trkpt><trkpt lat="42.13727184630511" lon="12.8101984924269"><ele>549.75</ele><time>2026-03-22T16:50:54Z</time></trkpt><trkpt lat="42.13731956980889" lon="12.810038280851222"><ele>552.0</ele><time>2026-03-22T16:50:55Z</time></trkpt><trkpt lat="42.13736496908892" lon="12.809905902892146"><ele>549.2</ele><time>2026-03-22T16:50:56Z</time></trkpt><trkpt lat="42.137423185689755" lon="12.809829133679735"><ele>546.4000000000001</ele><time>2026-03-22T16:50:57Z</time></trkpt><trkpt lat="42.13752217430622" lon="12.809832105282979"><ele>543.5999999999999</ele><time>2026-03-22T16:50:58Z</time></trkpt><trkpt lat="42.13761666146283" lon="12.809788499043991"><ele>540.8</ele><time>2026-03-22T16:50:59Z</time></trkpt><trkpt lat="42.13770747081166" lon="12.809735477088873"><ele>538.0</ele><time>2026-03-22T16:51:00Z</time></trkpt><trkpt lat="42.137801729546396" lon="12.809689440764673"><ele>538.0</ele><time>2026-03-22T16:51:01Z</time></trkpt><trkpt lat="42.13789250924866" lon="12.809621716503763"><ele>538.0</ele><time>2026-03-22T16:51:02Z</time></trkpt><trkpt lat="42.13797612313461" lon="12.809521805977232"><ele>538.0</ele><time>2026-03-22T16:51:03Z</time></trkpt><trkpt lat="42.138055461941924" lon="12.809409283445522"><ele>538.0</ele><time>2026-03-22T16:51:04Z</time></trkpt><trkpt lat="42.13812803956343" lon="12.809276904005175"><ele>538.8</ele><time>2026-03-22T16:51:05Z</time></trkpt><trkpt lat="42.13820757740331" lon="12.809144977449938"><ele>539.5999999999999</ele><time>2026-03-22T16:51:06Z</time></trkpt><trkpt lat="42.13829915026407" lon="12.809027884388115"><ele>540.4000000000001</ele><time>2026-03-22T16:51:07Z</time></trkpt><trkpt lat="42.138371493029005" lon="12.808924953018739"><ele>541.2</ele><time>2026-03-22T16:51:08Z</time></trkpt><trkpt lat="42.13842515342192" lon="12.80882973858937"><ele>542.0</ele><time>2026-03-22T16:51:09Z</time></trkpt><trkpt lat="42.13842792058654" lon="12.808704642214112"><ele>542.0</ele><time>2026-03-22T16:51:11Z</time></trkpt><trkpt lat="42.13828895860102" lon="12.80876801331761"><ele>542.0</ele><time>2026-03-22T16:51:15Z</time></trkpt><trkpt lat="42.138190030673016" lon="12.808868071818296"><ele>542.0</ele><time>2026-03-22T16:51:17Z</time></trkpt><trkpt lat="42.13813452812402" lon="12.80891972386508"><ele>542.0</ele><time>2026-03-22T16:51:18Z</time></trkpt><trkpt lat="42.138068161777326" lon="12.80896486860642"><ele>542.0</ele><time>2026-03-22T16:51:19Z</time></trkpt><trkpt lat="42.13798992531192" lon="12.809017526818478"><ele>541.2</ele><time>2026-03-22T16:51:20Z</time></trkpt><trkpt lat="42.13790979378574" lon="12.809082247603824"><ele>540.4000000000001</ele><time>2026-03-22T16:51:21Z</time></trkpt><trkpt lat="42.1378194773938" lon="12.809166797709668"><ele>539.5999999999999</ele><time>2026-03-22T16:51:22Z</time></trkpt><trkpt lat="42.13773928677439" lon="12.809253147337214"><ele>538.8</ele><time>2026-03-22T16:51:23Z</time></trkpt><trkpt lat="42.13765728199784" lon="12.809326219118844"><ele>538.0</ele><time>2026-03-22T16:51:24Z</time></trkpt><trkpt lat="42.137534534941864" lon="12.809348760884701"><ele>538.0</ele><time>2026-03-22T16:51:26Z</time></trkpt><trkpt lat="42.13743807829982" lon="12.809337109663854"><ele>538.0</ele><time>2026-03-22T16:51:27Z</time></trkpt><trkpt lat="42.13734674707743" lon="12.809338598861482"><ele>538.0</ele><time>2026-03-22T16:51:28Z</time></trkpt><trkpt lat="42.13723673337832" lon="12.809369134013439"><ele>538.0</ele><time>2026-03-22T16:51:29Z</time></trkpt><trkpt lat="42.1371427129877" lon="12.809393672257194"><ele>538.0</ele><time>2026-03-22T16:51:30Z</time></trkpt><trkpt lat="42.13707240424814" lon="12.809425697172005"><ele>548.5</ele><time>2026-03-22T16:51:31Z</time></trkpt><trkpt lat="42.13712458696327" lon="12.809267755041072"><ele>559.0</ele><time>2026-03-22T16:51:34Z</time></trkpt><trkpt lat="42.13720071276577" lon="12.80921520413176"><ele>569.5</ele><time>2026-03-22T16:51:36Z</time></trkpt><trkpt lat="42.137312459027996" lon="12.809156068076414"><ele>580.0</ele><time>2026-03-22T16:51:37Z</time></trkpt><trkpt lat="42.1373523099256" lon="12.80898740667745"><ele>577.2</ele><time>2026-03-22T16:51:38Z</time></trkpt><trkpt lat="42.13742824677977" lon="12.808919626250175"><ele>574.4</ele><time>2026-03-22T16:51:39Z</time></trkpt><trkpt lat="42.137523442505604" lon="12.808903025866707"><ele>571.6</ele><time>2026-03-22T16:51:40Z</time></trkpt><trkpt lat="42.13762995267066" lon="12.808821178245982"><ele>568.8</ele><time>2026-03-22T16:51:41Z</time></trkpt><trkpt lat="42.1377096411146" lon="12.808723279151657"><ele>566.0</ele><time>2026-03-22T16:51:42Z</time></trkpt><trkpt lat="42.13778371100676" lon="12.808607048184305"><ele>569.5</ele><time>2026-03-22T16:51:43Z</time></trkpt><trkpt lat="42.137849548330394" lon="12.808467664112417"><ele>573.0</ele><time>2026-03-22T16:51:44Z</time></trkpt><trkpt lat="42.137907688224445" lon="12.808319275612247"><ele>576.5</ele><time>2026-03-22T16:51:45Z</time></trkpt><trkpt lat="42.13796500932766" lon="12.808181020493793"><ele>580.0</ele><time>2026-03-22T16:51:46Z</time></trkpt><trkpt lat="42.13805507429373" lon="12.808058667529483"><ele>580.0</ele><time>2026-03-22T16:51:47Z</time></trkpt><trkpt lat="42.138139008733134" lon="12.807944544675792"><ele>580.0</ele><time>2026-03-22T16:51:48Z</time></trkpt><trkpt lat="42.13820497992869" lon="12.807844209244017"><ele>580.0</ele><time>2026-03-22T16:51:49Z</time></trkpt><trkpt lat="42.1382784630753" lon="12.80778150330282"><ele>580.0</ele><time>2026-03-22T16:51:50Z</time></trkpt><trkpt lat="42.13832559600403" lon="12.807724267072349"><ele>580.0</ele><time>2026-03-22T16:51:51Z</time></trkpt><trkpt lat="42.13839284153168" lon="12.8075989326188"><ele>580.0</ele><time>2026-03-22T16:51:53Z</time></trkpt><trkpt lat="42.13837140695972" lon="12.807500689155779"><ele>580.0</ele><time>2026-03-22T16:51:55Z</time></trkpt><trkpt lat="42.138263216784516" lon="12.80750713097545"><ele>580.0</ele><time>2026-03-22T16:51:57Z</time></trkpt><trkpt lat="42.13819493772396" lon="12.807539862932412"><ele>580.0</ele><time>2026-03-22T16:51:58Z</time></trkpt><trkpt lat="42.13812371137713" lon="12.807598684996767"><ele>580.0</ele><time>2026-03-22T16:51:59Z</time></trkpt><trkpt lat="42.13805338048453" lon="12.807668192144058"><ele>580.0</ele><time>2026-03-22T16:52:00Z</time></trkpt><trkpt lat="42.13798049008869" lon="12.807733623716166"><ele>580.0</ele><time>2026-03-22T16:52:02Z</time></trkpt><trkpt lat="42.13791380153145" lon="12.807779975206852"><ele>580.0</ele><time>2026-03-22T16:52:04Z</time></trkpt><trkpt lat="42.13784819785642" lon="12.807798924960455"><ele>580.0</ele><time>2026-03-22T16:52:05Z</time></trkpt><trkpt lat="42.137767783576734" lon="12.807852348528742"><ele>580.0</ele><time>2026-03-22T16:52:06Z</time></trkpt><trkpt lat="42.1376637658011" lon="12.807916987276847"><ele>580.0</ele><time>2026-03-22T16:52:07Z</time></trkpt><trkpt lat="42.137554989063155" lon="12.808007226503562"><ele>580.0</ele><time>2026-03-22T16:52:08Z</time></trkpt><trkpt lat="42.137441412205426" lon="12.808104684163554"><ele>580.0</ele><time>2026-03-22T16:52:09Z</time></trkpt><trkpt lat="42.137321698264564" lon="12.808199920406402"><ele>580.0</ele><time>2026-03-22T16:52:10Z</time></trkpt><trkpt lat="42.13720207774574" lon="12.808281073491713"><ele>580.0</ele><time>2026-03-22T16:52:11Z</time></trkpt><trkpt lat="42.137093865821825" lon="12.808332276049999"><ele>582.75</ele><time>2026-03-22T16:52:12Z</time></trkpt><trkpt lat="42.136946923512404" lon="12.808304960555498"><ele>585.5</ele><time>2026-03-22T16:52:13Z</time></trkpt><trkpt lat="42.136812933389805" lon="12.808306362554333"><ele>588.25</ele><time>2026-03-22T16:52:14Z</time></trkpt><trkpt lat="42.13667325180971" lon="12.808316732076776"><ele>591.0</ele><time>2026-03-22T16:52:15Z</time></trkpt><trkpt lat="42.13654716113337" lon="12.808301884364111"><ele>593.8333333333334</ele><time>2026-03-22T16:52:16Z</time></trkpt><trkpt lat="42.13644847011012" lon="12.808316436716161"><ele>596.6666666666666</ele><time>2026-03-22T16:52:17Z</time></trkpt><trkpt lat="42.13637058562915" lon="12.808326391969317"><ele>599.5</ele><time>2026-03-22T16:52:18Z</time></trkpt><trkpt lat="42.13632202934479" lon="12.808391010820555"><ele>602.3333333333333</ele><time>2026-03-22T16:52:19Z</time></trkpt><trkpt lat="42.13623154705798" lon="12.808392273501866"><ele>605.1666666666666</ele><time>2026-03-22T16:52:21Z</time></trkpt><trkpt lat="42.136194967521114" lon="12.80826778934251"><ele>608.0</ele><time>2026-03-22T16:52:23Z</time></trkpt><trkpt lat="42.136096343687214" lon="12.808160037434051"><ele>608.0</ele><time>2026-03-22T16:52:25Z</time></trkpt><trkpt lat="42.13603076013181" lon="12.808101487118117"><ele>608.0</ele><time>2026-03-22T16:52:26Z</time></trkpt><trkpt lat="42.13594110917217" lon="12.808031471791057"><ele>608.0</ele><time>2026-03-22T16:52:27Z</time></trkpt><trkpt lat="42.1358388011518" lon="12.80797382987892"><ele>608.0</ele><time>2026-03-22T16:52:28Z</time></trkpt><trkpt lat="42.13573759948776" lon="12.807957158503214"><ele>608.0</ele><time>2026-03-22T16:52:29Z</time></trkpt><trkpt lat="42.135634201315284" lon="12.807960297851713"><ele>611.3333333333333</ele><time>2026-03-22T16:52:30Z</time></trkpt><trkpt lat="42.13555190319165" lon="12.807926334231354"><ele>614.6666666666666</ele><time>2026-03-22T16:52:31Z</time></trkpt><trkpt lat="42.13548480670109" lon="12.807896927640869"><ele>618.0</ele><time>2026-03-22T16:52:32Z</time></trkpt><trkpt lat="42.1353880695731" lon="12.807843751902462"><ele>621.3333333333334</ele><time>2026-03-22T16:52:34Z</time></trkpt><trkpt lat="42.135289715534135" lon="12.807768345425826"><ele>624.6666666666667</ele><time>2026-03-22T16:52:36Z</time></trkpt><trkpt lat="42.135230999180095" lon="12.80770707620205"><ele>628.0</ele><time>2026-03-22T16:52:37Z</time></trkpt><trkpt lat="42.13516970973653" lon="12.807637192523192"><ele>628.0</ele><time>2026-03-22T16:52:38Z</time></trkpt><trkpt lat="42.135118332844385" lon="12.80755846210362"><ele>628.0</ele><time>2026-03-22T16:52:39Z</time></trkpt><trkpt lat="42.135066720081085" lon="12.807468467342675"><ele>628.0</ele><time>2026-03-22T16:52:40Z</time></trkpt><trkpt lat="42.1350103071905" lon="12.807382395869004"><ele>628.0</ele><time>2026-03-22T16:52:41Z</time></trkpt><trkpt lat="42.13495881396113" lon="12.807263757375784"><ele>628.0</ele><time>2026-03-22T16:52:42Z</time></trkpt><trkpt lat="42.1349049735821" lon="12.807133722337099"><ele>635.25</ele><time>2026-03-22T16:52:43Z</time></trkpt><trkpt lat="42.13484379820132" lon="12.80698235921844"><ele>642.5</ele><time>2026-03-22T16:52:44Z</time></trkpt><trkpt lat="42.13477893274919" lon="12.806836308395239"><ele>649.75</ele><time>2026-03-22T16:52:45Z</time></trkpt><trkpt lat="42.13471503630615" lon="12.806694421370352"><ele>657.0</ele><time>2026-03-22T16:52:46Z</time></trkpt><trkpt lat="42.13464701041492" lon="12.80654198979896"><ele>657.0</ele><time>2026-03-22T16:52:47Z</time></trkpt><trkpt lat="42.134581359317956" lon="12.806393433532904"><ele>657.0</ele><time>2026-03-22T16:52:48Z</time></trkpt><trkpt lat="42.13451538823903" lon="12.806261992833308"><ele>657.0</ele><time>2026-03-22T16:52:49Z</time></trkpt><trkpt lat="42.13447511738709" lon="12.806159928487453"><ele>657.0</ele><time>2026-03-22T16:52:50Z</time></trkpt><trkpt lat="42.13445301836703" lon="12.806065680018202"><ele>657.0</ele><time>2026-03-22T16:52:51Z</time></trkpt><trkpt lat="42.134442285708815" lon="12.805909841429656"><ele>654.25</ele><time>2026-03-22T16:52:53Z</time></trkpt><trkpt lat="42.13443412462398" lon="12.805793291428682"><ele>651.5</ele><time>2026-03-22T16:52:55Z</time></trkpt><trkpt lat="42.13417977765491" lon="12.805793653819592"><ele>648.75</ele><time>2026-03-22T16:52:57Z</time></trkpt><trkpt lat="42.134109929948664" lon="12.805773897991363"><ele>646.0</ele><time>2026-03-22T16:53:00Z</time></trkpt><trkpt lat="42.133998130131886" lon="12.805819093348404"><ele>647.0</ele><time>2026-03-22T16:53:03Z</time></trkpt><trkpt lat="42.133920543394865" lon="12.805850766463902"><ele>648.0</ele><time>2026-03-22T16:53:04Z</time></trkpt><trkpt lat="42.133836045630005" lon="12.805919936883397"><ele>649.0</ele><time>2026-03-22T16:53:05Z</time></trkpt><trkpt lat="42.13373054437079" lon="12.80597639826144"><ele>650.0</ele><time>2026-03-22T16:53:06Z</time></trkpt><trkpt lat="42.13363928375144" lon="12.806110860286323"><ele>651.0</ele><time>2026-03-22T16:53:07Z</time></trkpt><trkpt lat="42.13354472195739" lon="12.806225888326367"><ele>651.0</ele><time>2026-03-22T16:53:08Z</time></trkpt><trkpt lat="42.133455880852274" lon="12.806316900763637"><ele>651.0</ele><time>2026-03-22T16:53:09Z</time></trkpt><trkpt lat="42.13335932182309" lon="12.806411122079336"><ele>651.0</ele><time>2026-03-22T16:53:10Z</time></trkpt><trkpt lat="42.133243876368915" lon="12.806520845639998"><ele>651.0</ele><time>2026-03-22T16:53:11Z</time></trkpt><trkpt lat="42.13313550240615" lon="12.80662384815505"><ele>647.75</ele><time>2026-03-22T16:53:12Z</time></trkpt><trkpt lat="42.13302789455838" lon="12.806726410197612"><ele>644.5</ele><time>2026-03-22T16:53:13Z</time></trkpt><trkpt lat="42.13293292391368" lon="12.806815389347097"><ele>641.25</ele><time>2026-03-22T16:53:14Z</time></trkpt><trkpt lat="42.13282890473754" lon="12.806900417985512"><ele>638.0</ele><time>2026-03-22T16:53:15Z</time></trkpt><trkpt lat="42.13272899086792" lon="12.80696336859645"><ele>646.0</ele><time>2026-03-22T16:53:16Z</time></trkpt><trkpt lat="42.13262897383743" lon="12.807005527823746"><ele>654.0</ele><time>2026-03-22T16:53:17Z</time></trkpt><trkpt lat="42.13251668333827" lon="12.807032319650547"><ele>662.0</ele><time>2026-03-22T16:53:18Z</time></trkpt><trkpt lat="42.13239011924785" lon="12.807048741818267"><ele>670.0</ele><time>2026-03-22T16:53:19Z</time></trkpt><trkpt lat="42.1322756445502" lon="12.807052386647953"><ele>670.0</ele><time>2026-03-22T16:53:20Z</time></trkpt><trkpt lat="42.13215602725046" lon="12.807051827089134"><ele>670.0</ele><time>2026-03-22T16:53:21Z</time></trkpt><trkpt lat="42.13203083444345" lon="12.807047823132384"><ele>670.0</ele><time>2026-03-22T16:53:22Z</time></trkpt><trkpt lat="42.131908021692745" lon="12.807039672095978"><ele>670.0</ele><time>2026-03-22T16:53:23Z</time></trkpt><trkpt lat="42.131793213575946" lon="12.807020519015717"><ele>670.0</ele><time>2026-03-22T16:53:24Z</time></trkpt><trkpt lat="42.13167483704584" lon="12.806995204783108"><ele>670.0</ele><time>2026-03-22T16:53:25Z</time></trkpt><trkpt lat="42.13156136060133" lon="12.806969931039196"><ele>670.0</ele><time>2026-03-22T16:53:26Z</time></trkpt><trkpt lat="42.13145175796851" lon="12.806952872209436"><ele>670.0</ele><time>2026-03-22T16:53:27Z</time></trkpt><trkpt lat="42.131342738292616" lon="12.806968383292157"><ele>669.0</ele><time>2026-03-22T16:53:28Z</time></trkpt><trkpt lat="42.13124836112642" lon="12.806999080732227"><ele>668.0</ele><time>2026-03-22T16:53:29Z</time></trkpt><trkpt lat="42.13114543419311" lon="12.80703676524647"><ele>667.0</ele><time>2026-03-22T16:53:30Z</time></trkpt><trkpt lat="42.13104230458391" lon="12.80708312175789"><ele>666.0</ele><time>2026-03-22T16:53:31Z</time></trkpt><trkpt lat="42.1309347527955" lon="12.807145216847022"><ele>665.0</ele><time>2026-03-22T16:53:32Z</time></trkpt><trkpt lat="42.13082832254409" lon="12.807213106378297"><ele>665.0</ele><time>2026-03-22T16:53:33Z</time></trkpt><trkpt lat="42.13074713285841" lon="12.807278425301622"><ele>665.0</ele><time>2026-03-22T16:53:34Z</time></trkpt><trkpt lat="42.130666210982156" lon="12.807340318501605"><ele>665.0</ele><time>2026-03-22T16:53:35Z</time></trkpt><trkpt lat="42.130574364608414" lon="12.807396824908245"><ele>665.0</ele><time>2026-03-22T16:53:36Z</time></trkpt><trkpt lat="42.130471448586654" lon="12.807443516996516"><ele>665.0</ele><time>2026-03-22T16:53:37Z</time></trkpt><trkpt lat="42.130383191045304" lon="12.807495845576808"><ele>663.5</ele><time>2026-03-22T16:53:38Z</time></trkpt><trkpt lat="42.13025468014694" lon="12.807515049858806"><ele>662.0</ele><time>2026-03-22T16:53:39Z</time></trkpt><trkpt lat="42.13011532017569" lon="12.807553798698299"><ele>660.5</ele><time>2026-03-22T16:53:40Z</time></trkpt><trkpt lat="42.12996249171668" lon="12.807589012798218"><ele>659.0</ele><time>2026-03-22T16:53:41Z</time></trkpt><trkpt lat="42.12982750629557" lon="12.807613088913888"><ele>655.75</ele><time>2026-03-22T16:53:42Z</time></trkpt><trkpt lat="42.12970062219742" lon="12.807636856981672"><ele>652.5</ele><time>2026-03-22T16:53:43Z</time></trkpt><trkpt lat="42.1295640036319" lon="12.807668117284576"><ele>649.25</ele><time>2026-03-22T16:53:44Z</time></trkpt><trkpt lat="42.12943135577458" lon="12.80772085124076"><ele>646.0</ele><time>2026-03-22T16:53:45Z</time></trkpt><trkpt lat="42.129308820438325" lon="12.80777955815065"><ele>648.0</ele><time>2026-03-22T16:53:46Z</time></trkpt><trkpt lat="42.12916891851955" lon="12.807859364436244"><ele>650.0</ele><time>2026-03-22T16:53:47Z</time></trkpt><trkpt lat="42.12902293478581" lon="12.807955182935354"><ele>652.0</ele><time>2026-03-22T16:53:48Z</time></trkpt><trkpt lat="42.1288842187115" lon="12.808054592463892"><ele>652.0</ele><time>2026-03-22T16:53:49Z</time></trkpt><trkpt lat="42.128765997275224" lon="12.808148444948703"><ele>652.0</ele><time>2026-03-22T16:53:50Z</time></trkpt><trkpt lat="42.128643417575454" lon="12.8082596815528"><ele>652.0</ele><time>2026-03-22T16:53:51Z</time></trkpt><trkpt lat="42.12853006839449" lon="12.80838663468283"><ele>652.0</ele><time>2026-03-22T16:53:52Z</time></trkpt><trkpt lat="42.12844191915755" lon="12.808522612131203"><ele>650.75</ele><time>2026-03-22T16:53:53Z</time></trkpt><trkpt lat="42.12832730145422" lon="12.808657129255364"><ele>649.5</ele><time>2026-03-22T16:53:54Z</time></trkpt><trkpt lat="42.12821728830404" lon="12.808762568934446"><ele>648.25</ele><time>2026-03-22T16:53:55Z</time></trkpt><trkpt lat="42.12810554022446" lon="12.808861002410696"><ele>647.0</ele><time>2026-03-22T16:53:56Z</time></trkpt><trkpt lat="42.12796426854342" lon="12.808965913517182"><ele>647.0</ele><time>2026-03-22T16:53:57Z</time></trkpt><trkpt lat="42.127843406723265" lon="12.809071019011546"><ele>647.0</ele><time>2026-03-22T16:53:58Z</time></trkpt><trkpt lat="42.12773460981092" lon="12.809167283377459"><ele>647.0</ele><time>2026-03-22T16:53:59Z</time></trkpt><trkpt lat="42.12761906507388" lon="12.80924978747867"><ele>647.0</ele><time>2026-03-22T16:54:00Z</time></trkpt><trkpt lat="42.12749434726459" lon="12.809323725013853"><ele>651.0</ele><time>2026-03-22T16:54:01Z</time></trkpt><trkpt lat="42.12736725646408" lon="12.809398779011515"><ele>655.0</ele><time>2026-03-22T16:54:02Z</time></trkpt><trkpt lat="42.127241088089136" lon="12.809473951182003"><ele>659.0</ele><time>2026-03-22T16:54:03Z</time></trkpt><trkpt lat="42.12712899356594" lon="12.809544218309984"><ele>663.0</ele><time>2026-03-22T16:54:04Z</time></trkpt><trkpt lat="42.12702086074036" lon="12.809618896059868"><ele>663.0</ele><time>2026-03-22T16:54:05Z</time></trkpt><trkpt lat="42.126908576425286" lon="12.809713330521237"><ele>663.0</ele><time>2026-03-22T16:54:06Z</time></trkpt><trkpt lat="42.12680125700786" lon="12.809810340978462"><ele>663.0</ele><time>2026-03-22T16:54:07Z</time></trkpt><trkpt lat="42.12672787584277" lon="12.809880128578715"><ele>663.0</ele><time>2026-03-22T16:54:08Z</time></trkpt><trkpt lat="42.12667220400407" lon="12.809927975334862"><ele>663.0</ele><time>2026-03-22T16:54:09Z</time></trkpt><trkpt lat="42.126574575118866" lon="12.809828361079273"><ele>662.5999999999999</ele><time>2026-03-22T16:54:11Z</time></trkpt><trkpt lat="42.12653139105012" lon="12.809737384992594"><ele>662.1999999999999</ele><time>2026-03-22T16:54:12Z</time></trkpt><trkpt lat="42.12648202220984" lon="12.80961160237711"><ele>661.8</ele><time>2026-03-22T16:54:13Z</time></trkpt><trkpt lat="42.1264456785759" lon="12.809450361868036"><ele>661.4</ele><time>2026-03-22T16:54:14Z</time></trkpt><trkpt lat="42.12639762217962" lon="12.809276517349721"><ele>661.0</ele><time>2026-03-22T16:54:15Z</time></trkpt><trkpt lat="42.126375858448164" lon="12.809090282797412"><ele>661.0</ele><time>2026-03-22T16:54:16Z</time></trkpt><trkpt lat="42.126317846406614" lon="12.808931629839917"><ele>661.0</ele><time>2026-03-22T16:54:17Z</time></trkpt><trkpt lat="42.12621799442088" lon="12.808791677256073"><ele>661.0</ele><time>2026-03-22T16:54:18Z</time></trkpt><trkpt lat="42.126136545301236" lon="12.808659355813955"><ele>661.0</ele><time>2026-03-22T16:54:19Z</time></trkpt><trkpt lat="42.126017797458736" lon="12.808534582116996"><ele>657.6666666666667</ele><time>2026-03-22T16:54:20Z</time></trkpt><trkpt lat="42.12588836610266" lon="12.808394757760805"><ele>654.3333333333334</ele><time>2026-03-22T16:54:21Z</time></trkpt><trkpt lat="42.12573515764277" lon="12.808249460677686"><ele>651.0</ele><time>2026-03-22T16:54:22Z</time></trkpt><trkpt lat="42.125596571382815" lon="12.80809068362129"><ele>651.0</ele><time>2026-03-22T16:54:23Z</time></trkpt><trkpt lat="42.12547102706912" lon="12.807960192704424"><ele>651.0</ele><time>2026-03-22T16:54:24Z</time></trkpt><trkpt lat="42.125371359617134" lon="12.807869568185568"><ele>651.0</ele><time>2026-03-22T16:54:25Z</time></trkpt><trkpt lat="42.12528899140442" lon="12.807792194282715"><ele>651.0</ele><time>2026-03-22T16:54:26Z</time></trkpt><trkpt lat="42.12521400615457" lon="12.807729126071361"><ele>651.0</ele><time>2026-03-22T16:54:27Z</time></trkpt><trkpt lat="42.12512264338895" lon="12.807685719806747"><ele>651.0</ele><time>2026-03-22T16:54:28Z</time></trkpt><trkpt lat="42.125037546644144" lon="12.807681938478053"><ele>651.0</ele><time>2026-03-22T16:54:29Z</time></trkpt><trkpt lat="42.12495572156037" lon="12.80768759607422"><ele>651.0</ele><time>2026-03-22T16:54:30Z</time></trkpt><trkpt lat="42.12487208026662" lon="12.807759148339315"><ele>651.0</ele><time>2026-03-22T16:54:31Z</time></trkpt><trkpt lat="42.12481408665276" lon="12.807878758091604"><ele>648.75</ele><time>2026-03-22T16:54:32Z</time></trkpt><trkpt lat="42.12472493251953" lon="12.808025090319411"><ele>646.5</ele><time>2026-03-22T16:54:33Z</time></trkpt><trkpt lat="42.124629885554064" lon="12.808142941771855"><ele>644.25</ele><time>2026-03-22T16:54:34Z</time></trkpt><trkpt lat="42.12455088498172" lon="12.808250897218135"><ele>642.0</ele><time>2026-03-22T16:54:35Z</time></trkpt><trkpt lat="42.124480775938196" lon="12.808330280298883"><ele>642.0</ele><time>2026-03-22T16:54:36Z</time></trkpt><trkpt lat="42.124401957098506" lon="12.808407185664045"><ele>642.0</ele><time>2026-03-22T16:54:37Z</time></trkpt><trkpt lat="42.12432510110377" lon="12.80845313832987"><ele>642.0</ele><time>2026-03-22T16:54:38Z</time></trkpt><trkpt lat="42.124257045901416" lon="12.808462222731412"><ele>642.0</ele><time>2026-03-22T16:54:39Z</time></trkpt><trkpt lat="42.12417209118448" lon="12.808430996749555"><ele>642.0</ele><time>2026-03-22T16:54:40Z</time></trkpt><trkpt lat="42.124080151674626" lon="12.808401066177396"><ele>642.0</ele><time>2026-03-22T16:54:41Z</time></trkpt><trkpt lat="42.123980824279116" lon="12.808343968598695"><ele>642.4000000000001</ele><time>2026-03-22T16:54:42Z</time></trkpt><trkpt lat="42.12390081550562" lon="12.808268058705718"><ele>642.8000000000001</ele><time>2026-03-22T16:54:43Z</time></trkpt><trkpt lat="42.12379584027111" lon="12.80823606012547"><ele>643.2</ele><time>2026-03-22T16:54:45Z</time></trkpt><trkpt lat="42.12370935086176" lon="12.808168944513879"><ele>643.6</ele><time>2026-03-22T16:54:47Z</time></trkpt><trkpt lat="42.12364565338414" lon="12.808123378772448"><ele>644.0</ele><time>2026-03-22T16:54:50Z</time></trkpt><trkpt lat="42.12356904808641" lon="12.808018344776887"><ele>644.0</ele><time>2026-03-22T16:54:52Z</time></trkpt><trkpt lat="42.12350193313273" lon="12.807977542694923"><ele>644.0</ele><time>2026-03-22T16:54:53Z</time></trkpt><trkpt lat="42.12340935352096" lon="12.807942941069555"><ele>644.0</ele><time>2026-03-22T16:54:54Z</time></trkpt><trkpt lat="42.123308159904546" lon="12.807928627837436"><ele>644.0</ele><time>2026-03-22T16:54:55Z</time></trkpt><trkpt lat="42.1231971855604" lon="12.807916576143658"><ele>644.0</ele><time>2026-03-22T16:54:56Z</time></trkpt><trkpt lat="42.12310996986854" lon="12.80791120476106"><ele>640.4000000000001</ele><time>2026-03-22T16:54:57Z</time></trkpt><trkpt lat="42.12302192049441" lon="12.80792253925267"><ele>636.8000000000001</ele><time>2026-03-22T16:54:59Z</time></trkpt><trkpt lat="42.1229363505522" lon="12.807959925330763"><ele>633.2</ele><time>2026-03-22T16:55:01Z</time></trkpt><trkpt lat="42.12281459358898" lon="12.808050988490916"><ele>629.6</ele><time>2026-03-22T16:55:03Z</time></trkpt><trkpt lat="42.12276692603643" lon="12.808110154397879"><ele>626.0</ele><time>2026-03-22T16:55:04Z</time></trkpt><trkpt lat="42.12272104276887" lon="12.808183906355485"><ele>626.0</ele><time>2026-03-22T16:55:05Z</time></trkpt><trkpt lat="42.12263361371567" lon="12.808281482056962"><ele>626.0</ele><time>2026-03-22T16:55:06Z</time></trkpt><trkpt lat="42.12255788050825" lon="12.808375198867099"><ele>626.0</ele><time>2026-03-22T16:55:07Z</time></trkpt><trkpt lat="42.12249821770444" lon="12.8084590485188"><ele>626.0</ele><time>2026-03-22T16:55:08Z</time></trkpt><trkpt lat="42.122457660722255" lon="12.80853344239895"><ele>626.0</ele><time>2026-03-22T16:55:09Z</time></trkpt><trkpt lat="42.12239515094365" lon="12.808602101058092"><ele>618.0</ele><time>2026-03-22T16:55:12Z</time></trkpt><trkpt lat="42.12195025982738" lon="12.808210603638987"><ele>618.0</ele><time>2026-03-22T16:55:14Z</time></trkpt><trkpt lat="42.121861031273255" lon="12.808082393898724"><ele>618.0</ele><time>2026-03-22T16:55:15Z</time></trkpt><trkpt lat="42.121778744814634" lon="12.807953294652137"><ele>618.0</ele><time>2026-03-22T16:55:16Z</time></trkpt><trkpt lat="42.12170639288112" lon="12.807780002592475"><ele>618.0</ele><time>2026-03-22T16:55:17Z</time></trkpt><trkpt lat="42.12165686575928" lon="12.807617982043933"><ele>612.0</ele><time>2026-03-22T16:55:18Z</time></trkpt><trkpt lat="42.12159362195582" lon="12.807477231205455"><ele>606.0</ele><time>2026-03-22T16:55:19Z</time></trkpt><trkpt lat="42.12153706486684" lon="12.807378187346206"><ele>600.0</ele><time>2026-03-22T16:55:20Z</time></trkpt><trkpt lat="42.12147903841147" lon="12.80732240311204"><ele>594.0</ele><time>2026-03-22T16:55:21Z</time></trkpt><trkpt lat="42.12140276406853" lon="12.807244561096082"><ele>588.0</ele><time>2026-03-22T16:55:22Z</time></trkpt><trkpt lat="42.12128249238646" lon="12.807186770767363"><ele>588.0</ele><time>2026-03-22T16:55:23Z</time></trkpt><trkpt lat="42.121175641504365" lon="12.807129767223179"><ele>588.0</ele><time>2026-03-22T16:55:24Z</time></trkpt><trkpt lat="42.12109445858234" lon="12.807093739241258"><ele>588.0</ele><time>2026-03-22T16:55:25Z</time></trkpt><trkpt lat="42.120957542056466" lon="12.806963903522382"><ele>588.0</ele><time>2026-03-22T16:55:27Z</time></trkpt><trkpt lat="42.12092490157679" lon="12.806858562228223"><ele>587.1666666666666</ele><time>2026-03-22T16:55:28Z</time></trkpt><trkpt lat="42.12091874793614" lon="12.806758963672094"><ele>586.3333333333334</ele><time>2026-03-22T16:55:29Z</time></trkpt><trkpt lat="42.120926679468404" lon="12.806642081180945"><ele>585.5</ele><time>2026-03-22T16:55:30Z</time></trkpt><trkpt lat="42.120969983189774" lon="12.806570407578187"><ele>584.6666666666667</ele><time>2026-03-22T16:55:31Z</time></trkpt><trkpt lat="42.12101471352173" lon="12.806501992406595"><ele>583.8333333333334</ele><time>2026-03-22T16:55:32Z</time></trkpt><trkpt lat="42.1210849066942" lon="12.806430457312892"><ele>583.0</ele><time>2026-03-22T16:55:33Z</time></trkpt><trkpt lat="42.121165204334055" lon="12.806288523200635"><ele>583.0</ele><time>2026-03-22T16:55:35Z</time></trkpt><trkpt lat="42.12125200481724" lon="12.806190273687413"><ele>583.0</ele><time>2026-03-22T16:55:36Z</time></trkpt><trkpt lat="42.12132105667129" lon="12.806080460831256"><ele>583.0</ele><time>2026-03-22T16:55:37Z</time></trkpt><trkpt lat="42.12140585803915" lon="12.805955768786603"><ele>583.0</ele><time>2026-03-22T16:55:38Z</time></trkpt><trkpt lat="42.12147591530876" lon="12.805788602505077"><ele>584.75</ele><time>2026-03-22T16:55:39Z</time></trkpt><trkpt lat="42.12155482149085" lon="12.805640085181784"><ele>586.5</ele><time>2026-03-22T16:55:40Z</time></trkpt><trkpt lat="42.12165298149157" lon="12.805480757487652"><ele>588.25</ele><time>2026-03-22T16:55:41Z</time></trkpt><trkpt lat="42.12171648603931" lon="12.805303890060266"><ele>590.0</ele><time>2026-03-22T16:55:42Z</time></trkpt><trkpt lat="42.12178251415763" lon="12.80517946446986"><ele>588.5</ele><time>2026-03-22T16:55:43Z</time></trkpt><trkpt lat="42.1218474583758" lon="12.805060113909638"><ele>587.0</ele><time>2026-03-22T16:55:44Z</time></trkpt><trkpt lat="42.12196252505442" lon="12.80489140520632"><ele>585.5</ele><time>2026-03-22T16:55:45Z</time></trkpt><trkpt lat="42.12206637325758" lon="12.804747111844184"><ele>584.0</ele><time>2026-03-22T16:55:46Z</time></trkpt><trkpt lat="42.12216465991585" lon="12.804656033574513"><ele>584.0</ele><time>2026-03-22T16:55:47Z</time></trkpt><trkpt lat="42.12225022424381" lon="12.804530086501597"><ele>584.0</ele><time>2026-03-22T16:55:48Z</time></trkpt><trkpt lat="42.12233306130133" lon="12.804448779327204"><ele>584.0</ele><time>2026-03-22T16:55:49Z</time></trkpt><trkpt lat="42.122405841618416" lon="12.804404735688154"><ele>584.0</ele><time>2026-03-22T16:55:50Z</time></trkpt><trkpt lat="42.122465183280006" lon="12.804341352907487"><ele>584.0</ele><time>2026-03-22T16:55:51Z</time></trkpt><trkpt lat="42.12253211157321" lon="12.804242727564283"><ele>582.4</ele><time>2026-03-22T16:55:52Z</time></trkpt><trkpt lat="42.122592220548924" lon="12.804175415302879"><ele>580.8</ele><time>2026-03-22T16:55:53Z</time></trkpt><trkpt lat="42.12268464248306" lon="12.804051496786231"><ele>579.2</ele><time>2026-03-22T16:55:54Z</time></trkpt><trkpt lat="42.12277939857613" lon="12.80394510425098"><ele>577.6</ele><time>2026-03-22T16:55:55Z</time></trkpt><trkpt lat="42.122878558571266" lon="12.803863369657028"><ele>576.0</ele><time>2026-03-22T16:55:56Z</time></trkpt><trkpt lat="42.12299213043843" lon="12.803796940736621"><ele>576.0</ele><time>2026-03-22T16:55:57Z</time></trkpt><trkpt lat="42.123099097342084" lon="12.803756605661485"><ele>576.0</ele><time>2026-03-22T16:55:58Z</time></trkpt><trkpt lat="42.12318176387511" lon="12.80372056768655"><ele>576.0</ele><time>2026-03-22T16:55:59Z</time></trkpt><trkpt lat="42.12324719112925" lon="12.803686564010974"><ele>576.0</ele><time>2026-03-22T16:56:00Z</time></trkpt><trkpt lat="42.1232807676297" lon="12.803612136828068"><ele>576.0</ele><time>2026-03-22T16:56:01Z</time></trkpt><trkpt lat="42.123312525091194" lon="12.803485304948516"><ele>576.0</ele><time>2026-03-22T16:56:02Z</time></trkpt><trkpt lat="42.12332774401585" lon="12.803343601113731"><ele>574.0</ele><time>2026-03-22T16:56:03Z</time></trkpt><trkpt lat="42.123344219417106" lon="12.803160170697776"><ele>572.0</ele><time>2026-03-22T16:56:04Z</time></trkpt><trkpt lat="42.123360475697346" lon="12.803032482553663"><ele>570.0</ele><time>2026-03-22T16:56:05Z</time></trkpt><trkpt lat="42.12337497525596" lon="12.802918359068427"><ele>568.0</ele><time>2026-03-22T16:56:06Z</time></trkpt><trkpt lat="42.123371976932034" lon="12.802801662941338"><ele>566.0</ele><time>2026-03-22T16:56:07Z</time></trkpt><trkpt lat="42.12336899047355" lon="12.802657709985281"><ele>564.8</ele><time>2026-03-22T16:56:08Z</time></trkpt><trkpt lat="42.12337621009876" lon="12.802525110447"><ele>563.6</ele><time>2026-03-22T16:56:09Z</time></trkpt><trkpt lat="42.123383037374374" lon="12.802380907156222"><ele>562.4</ele><time>2026-03-22T16:56:10Z</time></trkpt><trkpt lat="42.12339889126302" lon="12.802247361560825"><ele>561.2</ele><time>2026-03-22T16:56:11Z</time></trkpt><trkpt lat="42.123427518788425" lon="12.802123861848804"><ele>560.0</ele><time>2026-03-22T16:56:12Z</time></trkpt><trkpt lat="42.12344987138185" lon="12.802015519013054"><ele>560.0</ele><time>2026-03-22T16:56:13Z</time></trkpt><trkpt lat="42.12346903025193" lon="12.801908755506666"><ele>560.0</ele><time>2026-03-22T16:56:14Z</time></trkpt><trkpt lat="42.123486527614205" lon="12.80177727191602"><ele>560.0</ele><time>2026-03-22T16:56:15Z</time></trkpt><trkpt lat="42.12349836552753" lon="12.801659957629765"><ele>560.0</ele><time>2026-03-22T16:56:16Z</time></trkpt><trkpt lat="42.123500342795545" lon="12.801545640670756"><ele>560.0</ele><time>2026-03-22T16:56:17Z</time></trkpt><trkpt lat="42.123506824080835" lon="12.801428470275825"><ele>560.0</ele><time>2026-03-22T16:56:18Z</time></trkpt><trkpt lat="42.1235004457751" lon="12.801306975303133"><ele>560.0</ele><time>2026-03-22T16:56:19Z</time></trkpt><trkpt lat="42.12348961211094" lon="12.801208927452723"><ele>560.0</ele><time>2026-03-22T16:56:20Z</time></trkpt><trkpt lat="42.123473765177955" lon="12.801125799346346"><ele>560.0</ele><time>2026-03-22T16:56:21Z</time></trkpt><trkpt lat="42.1233945953714" lon="12.8010628441652"><ele>560.0</ele><time>2026-03-22T16:56:23Z</time></trkpt><trkpt lat="42.12331477246568" lon="12.801063975352093"><ele>560.0</ele><time>2026-03-22T16:56:24Z</time></trkpt><trkpt lat="42.12324617018789" lon="12.801060144914567"><ele>560.0</ele><time>2026-03-22T16:56:25Z</time></trkpt><trkpt lat="42.12318306018261" lon="12.801048710647917"><ele>560.0</ele><time>2026-03-22T16:56:26Z</time></trkpt><trkpt lat="42.12310080110946" lon="12.800971892232369"><ele>558.1428571428571</ele><time>2026-03-22T16:56:28Z</time></trkpt><trkpt lat="42.12304938731136" lon="12.800918501408336"><ele>556.2857142857142</ele><time>2026-03-22T16:56:29Z</time></trkpt><trkpt lat="42.123003935056296" lon="12.800859172629261"><ele>554.4285714285714</ele><time>2026-03-22T16:56:30Z</time></trkpt><trkpt lat="42.122946246231876" lon="12.80079004915078"><ele>552.5714285714286</ele><time>2026-03-22T16:56:31Z</time></trkpt><trkpt lat="42.122896434281344" lon="12.800717175024863"><ele>550.7142857142857</ele><time>2026-03-22T16:56:32Z</time></trkpt><trkpt lat="42.12285515521328" lon="12.800635929270806"><ele>548.8571428571429</ele><time>2026-03-22T16:56:33Z</time></trkpt><trkpt lat="42.12281135562239" lon="12.800561931824637"><ele>547.0</ele><time>2026-03-22T16:56:34Z</time></trkpt><trkpt lat="42.12277329713552" lon="12.800492757923893"><ele>547.0</ele><time>2026-03-22T16:56:35Z</time></trkpt><trkpt lat="42.12275163403298" lon="12.800411191617783"><ele>547.0</ele><time>2026-03-22T16:56:36Z</time></trkpt><trkpt lat="42.12275406124661" lon="12.800296460781386"><ele>547.0</ele><time>2026-03-22T16:56:38Z</time></trkpt><trkpt lat="42.122764578883526" lon="12.800205297931509"><ele>547.0</ele><time>2026-03-22T16:57:01Z</time></trkpt><trkpt lat="42.12275554172801" lon="12.800086947734412"><ele>547.0</ele><time>2026-03-22T16:57:03Z</time></trkpt><trkpt lat="42.122745173506885" lon="12.799999975025115"><ele>547.0</ele><time>2026-03-22T16:57:04Z</time></trkpt><trkpt lat="42.12274548485858" lon="12.799908989249207"><ele>547.0</ele><time>2026-03-22T16:57:05Z</time></trkpt><trkpt lat="42.12274593745821" lon="12.799817782145817"><ele>546.5</ele><time>2026-03-22T16:57:06Z</time></trkpt><trkpt lat="42.122742985493986" lon="12.799704319135243"><ele>546.0</ele><time>2026-03-22T16:57:07Z</time></trkpt><trkpt lat="42.12273552663043" lon="12.799599584368663"><ele>545.5</ele><time>2026-03-22T16:57:08Z</time></trkpt><trkpt lat="42.12274158161975" lon="12.799507449644578"><ele>545.0</ele><time>2026-03-22T16:57:09Z</time></trkpt><trkpt lat="42.12272825679378" lon="12.799396559204986"><ele>544.5</ele><time>2026-03-22T16:57:10Z</time></trkpt><trkpt lat="42.122723124270586" lon="12.799291115330117"><ele>544.0</ele><time>2026-03-22T16:57:11Z</time></trkpt><trkpt lat="42.122724302826676" lon="12.799199036097157"><ele>545.4</ele><time>2026-03-22T16:57:12Z</time></trkpt><trkpt lat="42.122713844563286" lon="12.799015918829257"><ele>546.8</ele><time>2026-03-22T16:57:14Z</time></trkpt><trkpt lat="42.12270955075603" lon="12.798900843265935"><ele>548.2</ele><time>2026-03-22T16:57:15Z</time></trkpt><trkpt lat="42.122696619065586" lon="12.798803721238285"><ele>549.6</ele><time>2026-03-22T16:57:16Z</time></trkpt><trkpt lat="42.122686599256646" lon="12.798621581834144"><ele>551.0</ele><time>2026-03-22T16:57:18Z</time></trkpt><trkpt lat="42.12268359738724" lon="12.798526829771498"><ele>549.6666666666666</ele><time>2026-03-22T16:57:19Z</time></trkpt><trkpt lat="42.12268012687887" lon="12.79843315281672"><ele>548.3333333333333</ele><time>2026-03-22T16:57:20Z</time></trkpt><trkpt lat="42.12265477020425" lon="12.798348774107419"><ele>547.0</ele><time>2026-03-22T16:57:22Z</time></trkpt><trkpt lat="42.12263499728227" lon="12.798237635317646"><ele>545.6666666666666</ele><time>2026-03-22T16:57:27Z</time></trkpt><trkpt lat="42.122614000735794" lon="12.798144331752146"><ele>544.3333333333334</ele><time>2026-03-22T16:57:31Z</time></trkpt><trkpt lat="42.122596466547655" lon="12.798058882854573"><ele>543.0</ele><time>2026-03-22T16:57:34Z</time></trkpt><trkpt lat="42.12253494670154" lon="12.797964484220197"><ele>543.0</ele><time>2026-03-22T16:57:38Z</time></trkpt><trkpt lat="42.122479226657425" lon="12.797890168485788"><ele>543.0</ele><time>2026-03-22T16:57:40Z</time></trkpt><trkpt lat="42.12242005901957" lon="12.797817238429037"><ele>543.0</ele><time>2026-03-22T16:57:43Z</time></trkpt><trkpt lat="42.122358659963666" lon="12.797755897609772"><ele>543.0</ele><time>2026-03-22T16:57:46Z</time></trkpt><trkpt lat="42.12231791789121" lon="12.797688887538058"><ele>543.0</ele><time>2026-03-22T16:57:48Z</time></trkpt><trkpt lat="42.122272636048876" lon="12.797617554697629"><ele>543.0</ele><time>2026-03-22T16:57:51Z</time></trkpt><trkpt lat="42.12222387271379" lon="12.797530213353243"><ele>540.8333333333334</ele><time>2026-03-22T16:57:54Z</time></trkpt><trkpt lat="42.12217327163725" lon="12.797465751632977"><ele>538.6666666666666</ele><time>2026-03-22T16:57:56Z</time></trkpt><trkpt lat="42.12212449756866" lon="12.797375017970385"><ele>536.5</ele><time>2026-03-22T16:58:00Z</time></trkpt><trkpt lat="42.122080355474935" lon="12.79728333849511"><ele>534.3333333333333</ele><time>2026-03-22T16:58:03Z</time></trkpt><trkpt lat="42.12214183806219" lon="12.797152219312185"><ele>532.1666666666666</ele><time>2026-03-22T16:58:06Z</time></trkpt><trkpt lat="42.12219076404421" lon="12.797068457884842"><ele>530.0</ele><time>2026-03-22T16:58:07Z</time></trkpt><trkpt lat="42.12228537593579" lon="12.796985079469003"><ele>530.0</ele><time>2026-03-22T16:58:08Z</time></trkpt><trkpt lat="42.122353007336095" lon="12.796882694592346"><ele>530.0</ele><time>2026-03-22T16:58:09Z</time></trkpt><trkpt lat="42.122414877730215" lon="12.79677766307408"><ele>530.0</ele><time>2026-03-22T16:58:10Z</time></trkpt><trkpt lat="42.122463900451585" lon="12.796681445859308"><ele>530.0</ele><time>2026-03-22T16:58:11Z</time></trkpt><trkpt lat="42.12250484561536" lon="12.796592916606269"><ele>530.0</ele><time>2026-03-22T16:58:12Z</time></trkpt><trkpt lat="42.12256079790403" lon="12.79649223078797"><ele>527.1666666666666</ele><time>2026-03-22T16:58:13Z</time></trkpt><trkpt lat="42.12260603465662" lon="12.796384833906677"><ele>524.3333333333333</ele><time>2026-03-22T16:58:14Z</time></trkpt><trkpt lat="42.122659039837366" lon="12.796295170543145"><ele>521.5</ele><time>2026-03-22T16:58:15Z</time></trkpt><trkpt lat="42.12269738963958" lon="12.796212484080938"><ele>518.6666666666666</ele><time>2026-03-22T16:58:16Z</time></trkpt><trkpt lat="42.12273179617227" lon="12.796133517641843"><ele>515.8333333333334</ele><time>2026-03-22T16:58:17Z</time></trkpt><trkpt lat="42.12277576486534" lon="12.79606849944806"><ele>513.0</ele><time>2026-03-22T16:58:18Z</time></trkpt><trkpt lat="42.122824292375704" lon="12.795958413230668"><ele>509.4</ele><time>2026-03-22T16:58:20Z</time></trkpt><trkpt lat="42.1228023049492" lon="12.795866145930713"><ele>505.79999999999995</ele><time>2026-03-22T16:58:22Z</time></trkpt><trkpt lat="42.12268397856997" lon="12.79578596207297"><ele>502.2</ele><time>2026-03-22T16:58:24Z</time></trkpt><trkpt lat="42.122626303368385" lon="12.795749680820558"><ele>498.6</ele><time>2026-03-22T16:58:25Z</time></trkpt><trkpt lat="42.12253057847821" lon="12.795706893925985"><ele>495.0</ele><time>2026-03-22T16:58:27Z</time></trkpt><trkpt lat="42.122438673853864" lon="12.795644876454826"><ele>494.5</ele><time>2026-03-22T16:58:29Z</time></trkpt><trkpt lat="42.12233680071071" lon="12.795590426190788"><ele>494.0</ele><time>2026-03-22T16:58:31Z</time></trkpt><trkpt lat="42.122278430310445" lon="12.795557984063297"><ele>493.5</ele><time>2026-03-22T16:58:32Z</time></trkpt><trkpt lat="42.122203685193824" lon="12.795519763038717"><ele>493.0</ele><time>2026-03-22T16:58:33Z</time></trkpt><trkpt lat="42.12212874368978" lon="12.795475404835573"><ele>492.5</ele><time>2026-03-22T16:58:34Z</time></trkpt><trkpt lat="42.122047105377" lon="12.795435562023131"><ele>492.0</ele><time>2026-03-22T16:58:35Z</time></trkpt><trkpt lat="42.121995249712995" lon="12.795374022293947"><ele>492.0</ele><time>2026-03-22T16:58:36Z</time></trkpt><trkpt lat="42.1220194077316" lon="12.795275078413267"><ele>492.0</ele><time>2026-03-22T16:58:38Z</time></trkpt><trkpt lat="42.1220781612085" lon="12.795225321543843"><ele>492.0</ele><time>2026-03-22T16:58:40Z</time></trkpt><trkpt lat="42.122127566318206" lon="12.795140150882842"><ele>492.0</ele><time>2026-03-22T16:58:43Z</time></trkpt><trkpt lat="42.122165725454344" lon="12.795051522612972"><ele>492.0</ele><time>2026-03-22T16:58:46Z</time></trkpt><trkpt lat="42.12221095767063" lon="12.794975575051508"><ele>492.0</ele><time>2026-03-22T16:58:48Z</time></trkpt><trkpt lat="42.122257162776854" lon="12.79488886427682"><ele>489.0</ele><time>2026-03-22T16:58:49Z</time></trkpt><trkpt lat="42.12231212541578" lon="12.794788703047994"><ele>486.00000000000006</ele><time>2026-03-22T16:58:50Z</time></trkpt><trkpt lat="42.12237411072947" lon="12.794700835321319"><ele>483.00000000000006</ele><time>2026-03-22T16:58:51Z</time></trkpt><trkpt lat="42.122432895120696" lon="12.794598079068532"><ele>480.0</ele><time>2026-03-22T16:58:52Z</time></trkpt><trkpt lat="42.122489895945066" lon="12.794495438469935"><ele>477.0</ele><time>2026-03-22T16:58:53Z</time></trkpt><trkpt lat="42.12254824034799" lon="12.794397153214643"><ele>473.8333333333333</ele><time>2026-03-22T16:58:54Z</time></trkpt><trkpt lat="42.1226068973072" lon="12.794297084369772"><ele>470.66666666666663</ele><time>2026-03-22T16:58:55Z</time></trkpt><trkpt lat="42.12264919559836" lon="12.794218823213873"><ele>467.5</ele><time>2026-03-22T16:58:56Z</time></trkpt><trkpt lat="42.122689295662354" lon="12.794138815038675"><ele>464.3333333333333</ele><time>2026-03-22T16:58:57Z</time></trkpt><trkpt lat="42.12268671235228" lon="12.794049241531685"><ele>461.16666666666663</ele><time>2026-03-22T16:58:58Z</time></trkpt><trkpt lat="42.12266885028774" lon="12.79395319971348"><ele>458.0</ele><time>2026-03-22T16:58:59Z</time></trkpt><trkpt lat="42.12263805067787" lon="12.793853401399888"><ele>457.99999999999994</ele><time>2026-03-22T16:59:00Z</time></trkpt><trkpt lat="42.12261576784044" lon="12.793758325763465"><ele>458.0</ele><time>2026-03-22T16:59:01Z</time></trkpt><trkpt lat="42.12260856492128" lon="12.793661363337671"><ele>458.0</ele><time>2026-03-22T16:59:02Z</time></trkpt><trkpt lat="42.12260400356486" lon="12.793526074665312"><ele>458.0</ele><time>2026-03-22T16:59:03Z</time></trkpt><trkpt lat="42.12259551809168" lon="12.793406521216445"><ele>457.99999999999994</ele><time>2026-03-22T16:59:04Z</time></trkpt><trkpt lat="42.12258850373415" lon="12.793274226130963"><ele>458.0</ele><time>2026-03-22T16:59:05Z</time></trkpt><trkpt lat="42.12257622993467" lon="12.793119496565986"><ele>455.59999999999997</ele><time>2026-03-22T16:59:06Z</time></trkpt><trkpt lat="42.122551408404846" lon="12.792971876530013"><ele>453.19999999999993</ele><time>2026-03-22T16:59:07Z</time></trkpt><trkpt lat="42.1225287789563" lon="12.792851119065178"><ele>450.8</ele><time>2026-03-22T16:59:08Z</time></trkpt><trkpt lat="42.12251789385429" lon="12.792732184210177"><ele>448.4</ele><time>2026-03-22T16:59:09Z</time></trkpt><trkpt lat="42.12250484248484" lon="12.792622325423105"><ele>446.0</ele><time>2026-03-22T16:59:10Z</time></trkpt><trkpt lat="42.12249520291679" lon="12.792514938177678"><ele>443.6</ele><time>2026-03-22T16:59:11Z</time></trkpt><trkpt lat="42.122487822106834" lon="12.792421032062657"><ele>441.20000000000005</ele><time>2026-03-22T16:59:12Z</time></trkpt><trkpt lat="42.1224575896285" lon="12.792260424706733"><ele>438.79999999999995</ele><time>2026-03-22T16:59:14Z</time></trkpt><trkpt lat="42.122385974499764" lon="12.792207419486928"><ele>436.4</ele><time>2026-03-22T16:59:16Z</time></trkpt><trkpt lat="42.12226783212588" lon="12.792243622055542"><ele>434.0</ele><time>2026-03-22T16:59:18Z</time></trkpt><trkpt lat="42.122133790265046" lon="12.792235087683004"><ele>431.25</ele><time>2026-03-22T16:59:19Z</time></trkpt><trkpt lat="42.122014740121436" lon="12.792218222796985"><ele>428.5</ele><time>2026-03-22T16:59:20Z</time></trkpt><trkpt lat="42.12188024141797" lon="12.792222278543226"><ele>425.75</ele><time>2026-03-22T16:59:21Z</time></trkpt><trkpt lat="42.121753897150775" lon="12.79222446869633"><ele>423.0</ele><time>2026-03-22T16:59:22Z</time></trkpt><trkpt lat="42.12161537974139" lon="12.792210321610112"><ele>424.5</ele><time>2026-03-22T16:59:23Z</time></trkpt><trkpt lat="42.12148852805452" lon="12.79221128179824"><ele>426.0</ele><time>2026-03-22T16:59:24Z</time></trkpt><trkpt lat="42.121375477759514" lon="12.792203990894397"><ele>427.5</ele><time>2026-03-22T16:59:25Z</time></trkpt><trkpt lat="42.12126730949528" lon="12.792188720844006"><ele>429.0</ele><time>2026-03-22T16:59:26Z</time></trkpt><trkpt lat="42.12116502021912" lon="12.792165685953144"><ele>429.0</ele><time>2026-03-22T16:59:27Z</time></trkpt><trkpt lat="42.1210785537938" lon="12.792124002403655"><ele>429.0</ele><time>2026-03-22T16:59:28Z</time></trkpt><trkpt lat="42.12103931435783" lon="12.791981455232232"><ele>429.0</ele><time>2026-03-22T16:59:30Z</time></trkpt><trkpt lat="42.12101486456675" lon="12.791863215626943"><ele>429.0</ele><time>2026-03-22T16:59:31Z</time></trkpt><trkpt lat="42.12100324829055" lon="12.791715970043644"><ele>429.0</ele><time>2026-03-22T16:59:32Z</time></trkpt><trkpt lat="42.120992640167216" lon="12.791558173886747"><ele>426.0</ele><time>2026-03-22T16:59:33Z</time></trkpt><trkpt lat="42.12098532012998" lon="12.79142104196261"><ele>423.0</ele><time>2026-03-22T16:59:34Z</time></trkpt><trkpt lat="42.12098374457" lon="12.791288939929208"><ele>420.0</ele><time>2026-03-22T16:59:35Z</time></trkpt><trkpt lat="42.12097186299463" lon="12.791157871506503"><ele>417.0</ele><time>2026-03-22T16:59:36Z</time></trkpt><trkpt lat="42.120963601038895" lon="12.791022576039309"><ele>414.0</ele><time>2026-03-22T16:59:37Z</time></trkpt><trkpt lat="42.1209510354648" lon="12.790898733567818"><ele>411.1666666666667</ele><time>2026-03-22T16:59:38Z</time></trkpt><trkpt lat="42.120937140945436" lon="12.790777090761901"><ele>408.33333333333337</ele><time>2026-03-22T16:59:39Z</time></trkpt><trkpt lat="42.12092585782667" lon="12.790642173619142"><ele>405.5</ele><time>2026-03-22T16:59:40Z</time></trkpt><trkpt lat="42.12090826731413" lon="12.790523520217175"><ele>402.6666666666667</ele><time>2026-03-22T16:59:41Z</time></trkpt><trkpt lat="42.12088647603428" lon="12.79041564762329"><ele>399.83333333333337</ele><time>2026-03-22T16:59:42Z</time></trkpt><trkpt lat="42.12086594550657" lon="12.790308554185005"><ele>397.0</ele><time>2026-03-22T16:59:43Z</time></trkpt><trkpt lat="42.12088329564352" lon="12.790192445470536"><ele>396.0</ele><time>2026-03-22T16:59:44Z</time></trkpt><trkpt lat="42.12086215802275" lon="12.790076519912466"><ele>395.0</ele><time>2026-03-22T16:59:45Z</time></trkpt><trkpt lat="42.12086349609772" lon="12.789957262092445"><ele>394.0</ele><time>2026-03-22T16:59:46Z</time></trkpt><trkpt lat="42.120857656352634" lon="12.789818461478182"><ele>393.0</ele><time>2026-03-22T16:59:47Z</time></trkpt><trkpt lat="42.120836941630905" lon="12.789652857816936"><ele>392.0</ele><time>2026-03-22T16:59:48Z</time></trkpt><trkpt lat="42.120806705509764" lon="12.789497458678772"><ele>392.0</ele><time>2026-03-22T16:59:49Z</time></trkpt><trkpt lat="42.12076674580893" lon="12.78935875958301"><ele>392.0</ele><time>2026-03-22T16:59:50Z</time></trkpt><trkpt lat="42.120725586742346" lon="12.789225577378577"><ele>392.0</ele><time>2026-03-22T16:59:51Z</time></trkpt><trkpt lat="42.1206939597928" lon="12.789116793232745"><ele>392.0</ele><time>2026-03-22T16:59:52Z</time></trkpt><trkpt lat="42.12066606042513" lon="12.789015113436099"><ele>392.0</ele><time>2026-03-22T16:59:53Z</time></trkpt><trkpt lat="42.120646173153055" lon="12.788922167832759"><ele>389.49999999999994</ele><time>2026-03-22T16:59:54Z</time></trkpt><trkpt lat="42.12062693212078" lon="12.788820100918466"><ele>387.0</ele><time>2026-03-22T16:59:55Z</time></trkpt><trkpt lat="42.12060179217471" lon="12.788728794246438"><ele>384.5</ele><time>2026-03-22T16:59:56Z</time></trkpt><trkpt lat="42.12056542943116" lon="12.788567923185246"><ele>382.0</ele><time>2026-03-22T16:59:58Z</time></trkpt><trkpt lat="42.12054414709796" lon="12.788469903124158"><ele>379.5</ele><time>2026-03-22T16:59:59Z</time></trkpt><trkpt lat="42.120517395094424" lon="12.78835133350545"><ele>377.0</ele><time>2026-03-22T17:00:00Z</time></trkpt><trkpt lat="42.12050109617155" lon="12.788222100699242"><ele>376.40000000000003</ele><time>2026-03-22T17:00:01Z</time></trkpt><trkpt lat="42.120480282858956" lon="12.788083053876484"><ele>375.8</ele><time>2026-03-22T17:00:02Z</time></trkpt><trkpt lat="42.12046845672661" lon="12.787946950584619"><ele>375.2</ele><time>2026-03-22T17:00:03Z</time></trkpt><trkpt lat="42.12044926345184" lon="12.787817532235518"><ele>374.6</ele><time>2026-03-22T17:00:04Z</time></trkpt><trkpt lat="42.12043897326872" lon="12.78770514437631"><ele>374.0</ele><time>2026-03-22T17:00:05Z</time></trkpt><trkpt lat="42.12042810604322" lon="12.787586649497877"><ele>373.6</ele><time>2026-03-22T17:00:06Z</time></trkpt><trkpt lat="42.12041289504756" lon="12.787454236758196"><ele>373.2</ele><time>2026-03-22T17:00:07Z</time></trkpt><trkpt lat="42.120394954350466" lon="12.78731626153359"><ele>372.8</ele><time>2026-03-22T17:00:08Z</time></trkpt><trkpt lat="42.12037072948203" lon="12.78717607328119"><ele>372.40000000000003</ele><time>2026-03-22T17:00:09Z</time></trkpt><trkpt lat="42.12033303300237" lon="12.787048281788385"><ele>372.0</ele><time>2026-03-22T17:00:10Z</time></trkpt><trkpt lat="42.120285321734144" lon="12.786931940813934"><ele>371.3333333333333</ele><time>2026-03-22T17:00:11Z</time></trkpt><trkpt lat="42.1202405195748" lon="12.78683503751885"><ele>370.6666666666667</ele><time>2026-03-22T17:00:12Z</time></trkpt><trkpt lat="42.12021037456891" lon="12.786744244576976"><ele>370.0</ele><time>2026-03-22T17:00:13Z</time></trkpt><trkpt lat="42.12018990957233" lon="12.786638789645888"><ele>369.33333333333337</ele><time>2026-03-22T17:00:14Z</time></trkpt><trkpt lat="42.12014055559355" lon="12.786472241106384"><ele>368.6666666666667</ele><time>2026-03-22T17:00:16Z</time></trkpt><trkpt lat="42.120113995641304" lon="12.786379648032211"><ele>368.0</ele><time>2026-03-22T17:00:17Z</time></trkpt><trkpt lat="42.12007889657081" lon="12.78628140524172"><ele>368.0</ele><time>2026-03-22T17:00:18Z</time></trkpt><trkpt lat="42.12004999864014" lon="12.786164936949865"><ele>368.0</ele><time>2026-03-22T17:00:19Z</time></trkpt><trkpt lat="42.12001629710345" lon="12.78604824298711"><ele>368.0</ele><time>2026-03-22T17:00:20Z</time></trkpt><trkpt lat="42.11996737829404" lon="12.785924000823519"><ele>368.0</ele><time>2026-03-22T17:00:21Z</time></trkpt><trkpt lat="42.11991300141298" lon="12.785794927602643"><ele>368.0</ele><time>2026-03-22T17:00:22Z</time></trkpt><trkpt lat="42.119866713092875" lon="12.78568007611624"><ele>364.6666666666667</ele><time>2026-03-22T17:00:23Z</time></trkpt><trkpt lat="42.119824328192706" lon="12.785561554280891"><ele>361.33333333333337</ele><time>2026-03-22T17:00:24Z</time></trkpt><trkpt lat="42.119788812169155" lon="12.785462796990634"><ele>358.0</ele><time>2026-03-22T17:00:25Z</time></trkpt><trkpt lat="42.11975872102845" lon="12.785375810778577"><ele>354.6666666666667</ele><time>2026-03-22T17:00:26Z</time></trkpt><trkpt lat="42.11969958465678" lon="12.785267724469406"><ele>351.3333333333333</ele><time>2026-03-22T17:00:28Z</time></trkpt><trkpt lat="42.11962811590041" lon="12.785317961247847"><ele>348.0</ele><time>2026-03-22T17:00:30Z</time></trkpt><trkpt lat="42.11960306674136" lon="12.7854206951813"><ele>348.0</ele><time>2026-03-22T17:00:31Z</time></trkpt><trkpt lat="42.11957151403152" lon="12.78553052517006"><ele>348.0</ele><time>2026-03-22T17:00:32Z</time></trkpt><trkpt lat="42.11952688403013" lon="12.785652164889804"><ele>348.0</ele><time>2026-03-22T17:00:33Z</time></trkpt><trkpt lat="42.11949921348812" lon="12.785737876401221"><ele>348.0</ele><time>2026-03-22T17:00:34Z</time></trkpt><trkpt lat="42.11944787456805" lon="12.785810031953638"><ele>348.0</ele><time>2026-03-22T17:00:36Z</time></trkpt><trkpt lat="42.119346940107384" lon="12.785801337224084"><ele>348.0</ele><time>2026-03-22T17:00:38Z</time></trkpt><trkpt lat="42.11927929529664" lon="12.78577314798285"><ele>348.0</ele><time>2026-03-22T17:00:39Z</time></trkpt><trkpt lat="42.11921260235287" lon="12.785760019949835"><ele>348.0</ele><time>2026-03-22T17:00:40Z</time></trkpt><trkpt lat="42.119084516022006" lon="12.785795005513771"><ele>348.0</ele><time>2026-03-22T17:00:42Z</time></trkpt><trkpt lat="42.11901947119274" lon="12.785836844044821"><ele>348.0</ele><time>2026-03-22T17:00:43Z</time></trkpt><trkpt lat="42.11896116458437" lon="12.785879640051148"><ele>348.0</ele><time>2026-03-22T17:00:44Z</time></trkpt><trkpt lat="42.11890083070835" lon="12.785919920457314"><ele>348.0</ele><time>2026-03-22T17:00:45Z</time></trkpt><trkpt lat="42.11881185086734" lon="12.785997430517675"><ele>346.0</ele><time>2026-03-22T17:00:47Z</time></trkpt><trkpt lat="42.118751444700585" lon="12.78605126843627"><ele>344.0</ele><time>2026-03-22T17:00:49Z</time></trkpt><trkpt lat="42.11867237599672" lon="12.78602363488294"><ele>342.0</ele><time>2026-03-22T17:00:54Z</time></trkpt><trkpt lat="42.118660643727765" lon="12.785909620272848"><ele>340.0</ele><time>2026-03-22T17:00:56Z</time></trkpt><trkpt lat="42.1186282867154" lon="12.78575683295439"><ele>338.0</ele><time>2026-03-22T17:00:58Z</time></trkpt><trkpt lat="42.1185968766095" lon="12.785603874991144"><ele>336.0</ele><time>2026-03-22T17:00:59Z</time></trkpt><trkpt lat="42.118558304535235" lon="12.78542629507141"><ele>334.0</ele><time>2026-03-22T17:01:00Z</time></trkpt><trkpt lat="42.11852073419202" lon="12.785265923357102"><ele>332.0</ele><time>2026-03-22T17:01:01Z</time></trkpt><trkpt lat="42.11847983431656" lon="12.785101210725632"><ele>330.0</ele><time>2026-03-22T17:01:02Z</time></trkpt><trkpt lat="42.11843444972528" lon="12.784956759093006"><ele>329.6</ele><time>2026-03-22T17:01:03Z</time></trkpt><trkpt lat="42.118390902980295" lon="12.78482119705861"><ele>329.2</ele><time>2026-03-22T17:01:04Z</time></trkpt><trkpt lat="42.11834728758903" lon="12.78469553889152"><ele>328.79999999999995</ele><time>2026-03-22T17:01:05Z</time></trkpt><trkpt lat="42.11830396789227" lon="12.784564905344343"><ele>328.4</ele><time>2026-03-22T17:01:06Z</time></trkpt><trkpt lat="42.11826080359447" lon="12.78444120872434"><ele>328.0</ele><time>2026-03-22T17:01:07Z</time></trkpt><trkpt lat="42.11821985113629" lon="12.784318303675452"><ele>325.66666666666663</ele><time>2026-03-22T17:01:08Z</time></trkpt><trkpt lat="42.11818431886284" lon="12.784204574147829"><ele>323.3333333333333</ele><time>2026-03-22T17:01:09Z</time></trkpt><trkpt lat="42.11815249428362" lon="12.784090867157623"><ele>321.0</ele><time>2026-03-22T17:01:10Z</time></trkpt><trkpt lat="42.118126503109146" lon="12.783979466199758"><ele>318.6666666666667</ele><time>2026-03-22T17:01:11Z</time></trkpt><trkpt lat="42.1180947277546" lon="12.783880733411973"><ele>316.33333333333337</ele><time>2026-03-22T17:01:12Z</time></trkpt><trkpt lat="42.11805453862659" lon="12.78380549524928"><ele>314.0</ele><time>2026-03-22T17:01:13Z</time></trkpt><trkpt lat="42.117952145349776" lon="12.783761345129268"><ele>314.0</ele><time>2026-03-22T17:01:15Z</time></trkpt><trkpt lat="42.11788406015681" lon="12.783794142457426"><ele>314.0</ele><time>2026-03-22T17:01:16Z</time></trkpt><trkpt lat="42.11782416482511" lon="12.783862214042838"><ele>314.0</ele><time>2026-03-22T17:01:17Z</time></trkpt><trkpt lat="42.11779784526405" lon="12.784017677948189"><ele>314.0</ele><time>2026-03-22T17:01:18Z</time></trkpt><trkpt lat="42.1177827055004" lon="12.784145260684769"><ele>314.0</ele><time>2026-03-22T17:01:19Z</time></trkpt><trkpt lat="42.11776721211875" lon="12.784276683886869"><ele>314.59999999999997</ele><time>2026-03-22T17:01:20Z</time></trkpt><trkpt lat="42.117751309967566" lon="12.784411574526644"><ele>315.2</ele><time>2026-03-22T17:01:21Z</time></trkpt><trkpt lat="42.117734174332824" lon="12.784554171506457"><ele>315.79999999999995</ele><time>2026-03-22T17:01:22Z</time></trkpt><trkpt lat="42.117716656093044" lon="12.784692951780238"><ele>316.4</ele><time>2026-03-22T17:01:23Z</time></trkpt><trkpt lat="42.11769875026598" lon="12.784817965504068"><ele>317.0</ele><time>2026-03-22T17:01:24Z</time></trkpt><trkpt lat="42.11767607204915" lon="12.784924707556815"><ele>317.0</ele><time>2026-03-22T17:01:25Z</time></trkpt><trkpt lat="42.11763798607212" lon="12.784994021692368"><ele>317.0</ele><time>2026-03-22T17:01:26Z</time></trkpt><trkpt lat="42.11758171998032" lon="12.785039602780154"><ele>317.0</ele><time>2026-03-22T17:01:27Z</time></trkpt><trkpt lat="42.117515490588055" lon="12.785082847219703"><ele>317.0</ele><time>2026-03-22T17:01:28Z</time></trkpt><trkpt lat="42.11742870174482" lon="12.785056735163712"><ele>317.0</ele><time>2026-03-22T17:01:29Z</time></trkpt><trkpt lat="42.11734018106696" lon="12.78499262825933"><ele>317.0</ele><time>2026-03-22T17:01:30Z</time></trkpt><trkpt lat="42.117249926819014" lon="12.784918172705813"><ele>315.5</ele><time>2026-03-22T17:01:31Z</time></trkpt><trkpt lat="42.11714958632884" lon="12.784872917145226"><ele>314.0</ele><time>2026-03-22T17:01:32Z</time></trkpt><trkpt lat="42.11703022237357" lon="12.784854383498878"><ele>312.5</ele><time>2026-03-22T17:01:33Z</time></trkpt><trkpt lat="42.116898076582956" lon="12.784850069842353"><ele>311.0</ele><time>2026-03-22T17:01:34Z</time></trkpt><trkpt lat="42.1167567725091" lon="12.784855415065413"><ele>311.0</ele><time>2026-03-22T17:01:35Z</time></trkpt><trkpt lat="42.116596618152535" lon="12.784866360117737"><ele>311.0</ele><time>2026-03-22T17:01:36Z</time></trkpt><trkpt lat="42.116429103419904" lon="12.784871094276452"><ele>311.0</ele><time>2026-03-22T17:01:37Z</time></trkpt><trkpt lat="42.116252813434954" lon="12.784853288049115"><ele>309.0</ele><time>2026-03-22T17:01:38Z</time></trkpt><trkpt lat="42.11608125501463" lon="12.784838235505255"><ele>307.0</ele><time>2026-03-22T17:01:39Z</time></trkpt><trkpt lat="42.11592875789028" lon="12.784839986015436"><ele>305.0</ele><time>2026-03-22T17:01:40Z</time></trkpt><trkpt lat="42.11576582460279" lon="12.784851010103207"><ele>302.6666666666667</ele><time>2026-03-22T17:01:41Z</time></trkpt><trkpt lat="42.11560176444057" lon="12.78489768574884"><ele>300.3333333333333</ele><time>2026-03-22T17:01:42Z</time></trkpt><trkpt lat="42.11544385163859" lon="12.784954367394924"><ele>298.0</ele><time>2026-03-22T17:01:43Z</time></trkpt><trkpt lat="42.11529975393533" lon="12.785006161689113"><ele>298.0</ele><time>2026-03-22T17:01:44Z</time></trkpt><trkpt lat="42.115175125821224" lon="12.785050260660176"><ele>298.0</ele><time>2026-03-22T17:01:45Z</time></trkpt><trkpt lat="42.115058713509384" lon="12.785086269748952"><ele>298.0</ele><time>2026-03-22T17:01:46Z</time></trkpt><trkpt lat="42.11496060932843" lon="12.785114856594893"><ele>298.0</ele><time>2026-03-22T17:01:47Z</time></trkpt><trkpt lat="42.11486809487678" lon="12.785068430857372"><ele>298.0</ele><time>2026-03-22T17:01:48Z</time></trkpt><trkpt lat="42.11479574434995" lon="12.784991025006487"><ele>299.25</ele><time>2026-03-22T17:01:49Z</time></trkpt><trkpt lat="42.11474005941217" lon="12.784891102780199"><ele>300.5</ele><time>2026-03-22T17:01:50Z</time></trkpt><trkpt lat="42.11469216990065" lon="12.784760155907918"><ele>301.75</ele><time>2026-03-22T17:01:51Z</time></trkpt><trkpt lat="42.11465045863095" lon="12.784605689984915"><ele>303.0</ele><time>2026-03-22T17:01:52Z</time></trkpt><trkpt lat="42.11460607542763" lon="12.78444556246423"><ele>305.4</ele><time>2026-03-22T17:01:53Z</time></trkpt><trkpt lat="42.11456828223681" lon="12.784264121925716"><ele>307.8</ele><time>2026-03-22T17:01:54Z</time></trkpt><trkpt lat="42.11455093659813" lon="12.78410885143428"><ele>310.2</ele><time>2026-03-22T17:01:55Z</time></trkpt><trkpt lat="42.11456048385553" lon="12.78398045291547"><ele>312.6</ele><time>2026-03-22T17:01:56Z</time></trkpt><trkpt lat="42.11459403952675" lon="12.783857351844008"><ele>315.0</ele><time>2026-03-22T17:01:57Z</time></trkpt><trkpt lat="42.11464848082015" lon="12.783736081189609"><ele>315.0</ele><time>2026-03-22T17:01:58Z</time></trkpt><trkpt lat="42.114727300338494" lon="12.783653478041249"><ele>315.0</ele><time>2026-03-22T17:01:59Z</time></trkpt><trkpt lat="42.114833063378676" lon="12.783596443080144"><ele>315.0</ele><time>2026-03-22T17:02:00Z</time></trkpt><trkpt lat="42.1149590051845" lon="12.783543898526016"><ele>315.0</ele><time>2026-03-22T17:02:01Z</time></trkpt><trkpt lat="42.11509690129814" lon="12.78347689035694"><ele>310.75</ele><time>2026-03-22T17:02:02Z</time></trkpt><trkpt lat="42.11523501068296" lon="12.783383074515314"><ele>306.5</ele><time>2026-03-22T17:02:03Z</time></trkpt><trkpt lat="42.115344433667794" lon="12.783270293264845"><ele>302.25</ele><time>2026-03-22T17:02:04Z</time></trkpt><trkpt lat="42.1154396470458" lon="12.783124761922059"><ele>298.0</ele><time>2026-03-22T17:02:05Z</time></trkpt><trkpt lat="42.115533246449644" lon="12.782951184759712"><ele>298.0</ele><time>2026-03-22T17:02:06Z</time></trkpt><trkpt lat="42.11563628687082" lon="12.782762405332235"><ele>298.0</ele><time>2026-03-22T17:02:07Z</time></trkpt><trkpt lat="42.11574811535585" lon="12.782566720181192"><ele>298.0</ele><time>2026-03-22T17:02:08Z</time></trkpt><trkpt lat="42.11586543415361" lon="12.782367790503027"><ele>299.3333333333333</ele><time>2026-03-22T17:02:09Z</time></trkpt><trkpt lat="42.11598194518142" lon="12.782167646517332"><ele>300.6666666666667</ele><time>2026-03-22T17:02:10Z</time></trkpt><trkpt lat="42.11608324312555" lon="12.781985109289993"><ele>302.0</ele><time>2026-03-22T17:02:11Z</time></trkpt><trkpt lat="42.11615199429527" lon="12.781807310435862"><ele>302.0</ele><time>2026-03-22T17:02:12Z</time></trkpt><trkpt lat="42.116197824681336" lon="12.781647168812944"><ele>302.0</ele><time>2026-03-22T17:02:13Z</time></trkpt><trkpt lat="42.116218024038304" lon="12.781488307433346"><ele>302.0</ele><time>2026-03-22T17:02:14Z</time></trkpt><trkpt lat="42.1162182738137" lon="12.78131583874066"><ele>302.0</ele><time>2026-03-22T17:02:15Z</time></trkpt><trkpt lat="42.116197168433644" lon="12.781131492561057"><ele>305.33333333333337</ele><time>2026-03-22T17:02:16Z</time></trkpt><trkpt lat="42.11616787187931" lon="12.780929150746749"><ele>308.6666666666667</ele><time>2026-03-22T17:02:17Z</time></trkpt><trkpt lat="42.11615991642619" lon="12.780713592934204"><ele>312.0</ele><time>2026-03-22T17:02:18Z</time></trkpt><trkpt lat="42.116163086329905" lon="12.780489763941361"><ele>312.0</ele><time>2026-03-22T17:02:19Z</time></trkpt><trkpt lat="42.116177643091895" lon="12.78025821620286"><ele>312.0</ele><time>2026-03-22T17:02:20Z</time></trkpt><trkpt lat="42.11620883820785" lon="12.780036739264585"><ele>312.0</ele><time>2026-03-22T17:02:21Z</time></trkpt><trkpt lat="42.11626518320602" lon="12.77979466335123"><ele>313.0</ele><time>2026-03-22T17:02:22Z</time></trkpt><trkpt lat="42.11631829964224" lon="12.77955425905164"><ele>314.0</ele><time>2026-03-22T17:02:23Z</time></trkpt><trkpt lat="42.116376199852354" lon="12.779299422699445"><ele>315.0</ele><time>2026-03-22T17:02:24Z</time></trkpt><trkpt lat="42.11640578294659" lon="12.779081951920844"><ele>315.5</ele><time>2026-03-22T17:02:25Z</time></trkpt><trkpt lat="42.1164328801329" lon="12.778892287971601"><ele>316.0</ele><time>2026-03-22T17:02:26Z</time></trkpt><trkpt lat="42.11645977601341" lon="12.778724008167034"><ele>316.5</ele><time>2026-03-22T17:02:27Z</time></trkpt><trkpt lat="42.116469020453664" lon="12.778582369431227"><ele>317.0</ele><time>2026-03-22T17:02:28Z</time></trkpt><trkpt lat="42.11646095723278" lon="12.778445398868644"><ele>315.4</ele><time>2026-03-22T17:02:29Z</time></trkpt><trkpt lat="42.116425668365025" lon="12.778329188708343"><ele>313.79999999999995</ele><time>2026-03-22T17:02:30Z</time></trkpt><trkpt lat="42.11638736400197" lon="12.77821334157563"><ele>312.2</ele><time>2026-03-22T17:02:31Z</time></trkpt><trkpt lat="42.11631312446107" lon="12.778108202883724"><ele>310.59999999999997</ele><time>2026-03-22T17:02:32Z</time></trkpt><trkpt lat="42.1162110894689" lon="12.778020167532178"><ele>309.0</ele><time>2026-03-22T17:02:33Z</time></trkpt><trkpt lat="42.11609008825202" lon="12.777967317136618"><ele>309.0</ele><time>2026-03-22T17:02:34Z</time></trkpt><trkpt lat="42.115964163653075" lon="12.77788684386017"><ele>309.0</ele><time>2026-03-22T17:02:35Z</time></trkpt><trkpt lat="42.115833163530894" lon="12.777801084254566"><ele>309.0</ele><time>2026-03-22T17:02:36Z</time></trkpt><trkpt lat="42.11571420802325" lon="12.777695723464312"><ele>309.0</ele><time>2026-03-22T17:02:37Z</time></trkpt><trkpt lat="42.11562624884862" lon="12.777566632221701"><ele>308.0</ele><time>2026-03-22T17:02:38Z</time></trkpt><trkpt lat="42.11556380969347" lon="12.777409084213462"><ele>307.0</ele><time>2026-03-22T17:02:39Z</time></trkpt><trkpt lat="42.11550877931978" lon="12.777229757684298"><ele>306.0</ele><time>2026-03-22T17:02:40Z</time></trkpt><trkpt lat="42.115451630057514" lon="12.777040083548707"><ele>305.0</ele><time>2026-03-22T17:02:41Z</time></trkpt><trkpt lat="42.115387302097034" lon="12.776846586421884"><ele>305.0</ele><time>2026-03-22T17:02:42Z</time></trkpt><trkpt lat="42.11532422508123" lon="12.776655946181538"><ele>305.0</ele><time>2026-03-22T17:02:43Z</time></trkpt><trkpt lat="42.11526518292936" lon="12.776480033343708"><ele>305.0</ele><time>2026-03-22T17:02:44Z</time></trkpt><trkpt lat="42.11520546461827" lon="12.776310502293926"><ele>305.0</ele><time>2026-03-22T17:02:45Z</time></trkpt><trkpt lat="42.115145000532756" lon="12.776151905166888"><ele>301.0</ele><time>2026-03-22T17:02:46Z</time></trkpt><trkpt lat="42.1150740144429" lon="12.775991063022595"><ele>297.0</ele><time>2026-03-22T17:02:47Z</time></trkpt><trkpt lat="42.11499412784061" lon="12.775830095130376"><ele>293.0</ele><time>2026-03-22T17:02:48Z</time></trkpt><trkpt lat="42.11490338601866" lon="12.775671445137863"><ele>289.0</ele><time>2026-03-22T17:02:49Z</time></trkpt><trkpt lat="42.11481577340631" lon="12.77551490213157"><ele>291.25</ele><time>2026-03-22T17:02:50Z</time></trkpt><trkpt lat="42.114733306142" lon="12.7753725780708"><ele>293.5</ele><time>2026-03-22T17:02:51Z</time></trkpt><trkpt lat="42.114659670808024" lon="12.77523644979917"><ele>295.75</ele><time>2026-03-22T17:02:52Z</time></trkpt><trkpt lat="42.11459009347228" lon="12.775106919858843"><ele>298.0</ele><time>2026-03-22T17:02:53Z</time></trkpt><trkpt lat="42.11452193930337" lon="12.774988418510748"><ele>298.0</ele><time>2026-03-22T17:02:54Z</time></trkpt><trkpt lat="42.114457456573525" lon="12.77487670449642"><ele>298.0</ele><time>2026-03-22T17:02:55Z</time></trkpt><trkpt lat="42.114400392501686" lon="12.774767722010457"><ele>298.0</ele><time>2026-03-22T17:02:56Z</time></trkpt><trkpt lat="42.11434180721254" lon="12.77464850770371"><ele>298.0</ele><time>2026-03-22T17:02:57Z</time></trkpt><trkpt lat="42.1142762184442" lon="12.77453213817644"><ele>298.0</ele><time>2026-03-22T17:02:58Z</time></trkpt><trkpt lat="42.11420282867085" lon="12.774420239099946"><ele>295.8</ele><time>2026-03-22T17:02:59Z</time></trkpt><trkpt lat="42.11411094209167" lon="12.774331976628183"><ele>293.6</ele><time>2026-03-22T17:03:00Z</time></trkpt><trkpt lat="42.11400840325263" lon="12.774252730353396"><ele>291.4</ele><time>2026-03-22T17:03:01Z</time></trkpt><trkpt lat="42.11390443990644" lon="12.774194802595376"><ele>289.2</ele><time>2026-03-22T17:03:02Z</time></trkpt><trkpt lat="42.113815288967146" lon="12.774157190353824"><ele>287.0</ele><time>2026-03-22T17:03:03Z</time></trkpt><trkpt lat="42.1137334529895" lon="12.774113237557957"><ele>287.0</ele><time>2026-03-22T17:03:04Z</time></trkpt><trkpt lat="42.11365986814807" lon="12.774072199145097"><ele>287.0</ele><time>2026-03-22T17:03:05Z</time></trkpt><trkpt lat="42.113595360255815" lon="12.774042294870195"><ele>287.0</ele><time>2026-03-22T17:03:06Z</time></trkpt><trkpt lat="42.11351882694517" lon="12.774004302585688"><ele>287.0</ele><time>2026-03-22T17:03:08Z</time></trkpt><trkpt lat="42.11345920610621" lon="12.77396545470742"><ele>287.0</ele><time>2026-03-22T17:03:11Z</time></trkpt><trkpt lat="42.11333575892541" lon="12.773984660186303"><ele>287.0</ele><time>2026-03-22T17:03:15Z</time></trkpt><trkpt lat="42.11327040122769" lon="12.77406595702845"><ele>284.5</ele><time>2026-03-22T17:03:16Z</time></trkpt><trkpt lat="42.11319967459929" lon="12.774141561737544"><ele>282.0</ele><time>2026-03-22T17:03:17Z</time></trkpt><trkpt lat="42.11310852897272" lon="12.774218455344997"><ele>279.5</ele><time>2026-03-22T17:03:18Z</time></trkpt><trkpt lat="42.11299663359687" lon="12.774296359086698"><ele>277.0</ele><time>2026-03-22T17:03:19Z</time></trkpt><trkpt lat="42.112872141340176" lon="12.774369770310486"><ele>284.3333333333333</ele><time>2026-03-22T17:03:20Z</time></trkpt><trkpt lat="42.11273675749922" lon="12.774437192433668"><ele>291.6666666666667</ele><time>2026-03-22T17:03:21Z</time></trkpt><trkpt lat="42.11258739972038" lon="12.774480478353789"><ele>299.0</ele><time>2026-03-22T17:03:22Z</time></trkpt><trkpt lat="42.11243661902316" lon="12.774515310475197"><ele>297.0</ele><time>2026-03-22T17:03:23Z</time></trkpt><trkpt lat="42.11228533474275" lon="12.774530618292856"><ele>295.0</ele><time>2026-03-22T17:03:24Z</time></trkpt><trkpt lat="42.112132855725946" lon="12.774522400568454"><ele>293.0</ele><time>2026-03-22T17:03:25Z</time></trkpt><trkpt lat="42.1119748655147" lon="12.774510588667862"><ele>293.0</ele><time>2026-03-22T17:03:26Z</time></trkpt><trkpt lat="42.11180823863135" lon="12.774500599620893"><ele>293.0</ele><time>2026-03-22T17:03:27Z</time></trkpt><trkpt lat="42.11164331665681" lon="12.774477524120261"><ele>293.0</ele><time>2026-03-22T17:03:28Z</time></trkpt><trkpt lat="42.11147174762046" lon="12.774482471717043"><ele>293.33333333333337</ele><time>2026-03-22T17:03:29Z</time></trkpt><trkpt lat="42.11129804675229" lon="12.774493884163006"><ele>293.6666666666667</ele><time>2026-03-22T17:03:30Z</time></trkpt><trkpt lat="42.11112836857494" lon="12.774515295555576"><ele>294.0</ele><time>2026-03-22T17:03:31Z</time></trkpt><trkpt lat="42.11096461021108" lon="12.774446279541587"><ele>290.0</ele><time>2026-03-22T17:03:32Z</time></trkpt><trkpt lat="42.11080542606545" lon="12.774351480832262"><ele>286.0</ele><time>2026-03-22T17:03:33Z</time></trkpt><trkpt lat="42.110641792136306" lon="12.77425236966266"><ele>282.0</ele><time>2026-03-22T17:03:34Z</time></trkpt><trkpt lat="42.1104659459812" lon="12.77416245308057"><ele>282.0</ele><time>2026-03-22T17:03:35Z</time></trkpt><trkpt lat="42.11029133894051" lon="12.774074672611363"><ele>282.0</ele><time>2026-03-22T17:03:36Z</time></trkpt><trkpt lat="42.11011932330673" lon="12.77398849597714"><ele>282.0</ele><time>2026-03-22T17:03:37Z</time></trkpt><trkpt lat="42.10996276695509" lon="12.7738927907438"><ele>280.6666666666667</ele><time>2026-03-22T17:03:38Z</time></trkpt><trkpt lat="42.10981670278534" lon="12.773779281350572"><ele>279.33333333333337</ele><time>2026-03-22T17:03:39Z</time></trkpt><trkpt lat="42.109682611256424" lon="12.77365398621489"><ele>278.0</ele><time>2026-03-22T17:03:40Z</time></trkpt><trkpt lat="42.109571693845716" lon="12.773518700757139"><ele>278.0</ele><time>2026-03-22T17:03:41Z</time></trkpt><trkpt lat="42.10948082779487" lon="12.773369144929713"><ele>278.0</ele><time>2026-03-22T17:03:42Z</time></trkpt><trkpt lat="42.10940549579243" lon="12.773221920655534"><ele>278.0</ele><time>2026-03-22T17:03:43Z</time></trkpt><trkpt lat="42.109333442540326" lon="12.773087048130243"><ele>278.0</ele><time>2026-03-22T17:03:44Z</time></trkpt><trkpt lat="42.109267375775666" lon="12.772962791242447"><ele>278.0</ele><time>2026-03-22T17:03:45Z</time></trkpt><trkpt lat="42.10921927250612" lon="12.772862448519009"><ele>278.0</ele><time>2026-03-22T17:03:46Z</time></trkpt><trkpt lat="42.10917597699305" lon="12.77277798083725"><ele>278.0</ele><time>2026-03-22T17:03:47Z</time></trkpt><trkpt lat="42.109131909224196" lon="12.772686551374115"><ele>278.0</ele><time>2026-03-22T17:03:49Z</time></trkpt><trkpt lat="42.10908541836781" lon="12.772593152489737"><ele>278.0</ele><time>2026-03-22T17:03:52Z</time></trkpt><trkpt lat="42.109034503693394" lon="12.772532534728041"><ele>278.0</ele><time>2026-03-22T17:03:54Z</time></trkpt><trkpt lat="42.10897688475357" lon="12.772468215113692"><ele>277.0</ele><time>2026-03-22T17:03:56Z</time></trkpt><trkpt lat="42.10891717290844" lon="12.77239431602859"><ele>276.0</ele><time>2026-03-22T17:03:58Z</time></trkpt><trkpt lat="42.10886050694511" lon="12.77233279500892"><ele>275.0</ele><time>2026-03-22T17:03:59Z</time></trkpt><trkpt lat="42.10877280905625" lon="12.772254391504724"><ele>274.0</ele><time>2026-03-22T17:04:00Z</time></trkpt><trkpt lat="42.10865898621367" lon="12.772183701589668"><ele>273.0</ele><time>2026-03-22T17:04:01Z</time></trkpt><trkpt lat="42.108552082881694" lon="12.772149552153738"><ele>273.0</ele><time>2026-03-22T17:04:02Z</time></trkpt><trkpt lat="42.1084680159442" lon="12.772156498178234"><ele>273.0</ele><time>2026-03-22T17:04:03Z</time></trkpt><trkpt lat="42.10833935335306" lon="12.772141237147489"><ele>273.0</ele><time>2026-03-22T17:04:05Z</time></trkpt><trkpt lat="42.10823081533879" lon="12.772083579039453"><ele>273.0</ele><time>2026-03-22T17:04:06Z</time></trkpt><trkpt lat="42.108074461026106" lon="12.772047923857823"><ele>272.6666666666667</ele><time>2026-03-22T17:04:07Z</time></trkpt><trkpt lat="42.10791354383873" lon="12.771999538828588"><ele>272.33333333333337</ele><time>2026-03-22T17:04:08Z</time></trkpt><trkpt lat="42.10774308353777" lon="12.771970300021957"><ele>272.0</ele><time>2026-03-22T17:04:09Z</time></trkpt><trkpt lat="42.107571545227295" lon="12.771942833473076"><ele>270.33333333333337</ele><time>2026-03-22T17:04:10Z</time></trkpt><trkpt lat="42.10738877548928" lon="12.771945437231752"><ele>268.6666666666667</ele><time>2026-03-22T17:04:11Z</time></trkpt><trkpt lat="42.10719078724288" lon="12.771951776089438"><ele>267.0</ele><time>2026-03-22T17:04:12Z</time></trkpt><trkpt lat="42.10700723239567" lon="12.771961565645162"><ele>267.0</ele><time>2026-03-22T17:04:13Z</time></trkpt><trkpt lat="42.10681418957358" lon="12.771974318331225"><ele>267.0</ele><time>2026-03-22T17:04:14Z</time></trkpt><trkpt lat="42.106619052134896" lon="12.771991162196164"><ele>267.0</ele><time>2026-03-22T17:04:15Z</time></trkpt><trkpt lat="42.106436603353096" lon="12.772006910802089"><ele>265.3333333333333</ele><time>2026-03-22T17:04:16Z</time></trkpt><trkpt lat="42.10627887064412" lon="12.772022735029525"><ele>263.66666666666663</ele><time>2026-03-22T17:04:17Z</time></trkpt><trkpt lat="42.10612252684709" lon="12.772042525429182"><ele>262.0</ele><time>2026-03-22T17:04:18Z</time></trkpt><trkpt lat="42.105978183097704" lon="12.772076194393254"><ele>262.0</ele><time>2026-03-22T17:04:19Z</time></trkpt><trkpt lat="42.105836616777744" lon="12.772125707023942"><ele>262.0</ele><time>2026-03-22T17:04:20Z</time></trkpt><trkpt lat="42.10569331499732" lon="12.77220945453691"><ele>262.0</ele><time>2026-03-22T17:04:21Z</time></trkpt><trkpt lat="42.10556520049898" lon="12.772336947752809"><ele>261.3333333333333</ele><time>2026-03-22T17:04:22Z</time></trkpt><trkpt lat="42.10545410760589" lon="12.772474152221188"><ele>260.6666666666667</ele><time>2026-03-22T17:04:23Z</time></trkpt><trkpt lat="42.10535926651893" lon="12.772633226120169"><ele>260.0</ele><time>2026-03-22T17:04:24Z</time></trkpt><trkpt lat="42.10527727912208" lon="12.772810231155573"><ele>260.0</ele><time>2026-03-22T17:04:25Z</time></trkpt><trkpt lat="42.10519368950752" lon="12.772981198898375"><ele>260.0</ele><time>2026-03-22T17:04:26Z</time></trkpt><trkpt lat="42.10510926010199" lon="12.773110722880254"><ele>260.0</ele><time>2026-03-22T17:04:27Z</time></trkpt><trkpt lat="42.10501128955133" lon="12.773221310818986"><ele>260.0</ele><time>2026-03-22T17:04:28Z</time></trkpt><trkpt lat="42.10488695465861" lon="12.773295842491674"><ele>257.6666666666667</ele><time>2026-03-22T17:04:29Z</time></trkpt><trkpt lat="42.10473585542365" lon="12.773349857463325"><ele>255.33333333333331</ele><time>2026-03-22T17:04:30Z</time></trkpt><trkpt lat="42.10456840272155" lon="12.773391481919399"><ele>253.0</ele><time>2026-03-22T17:04:31Z</time></trkpt><trkpt lat="42.104407061499835" lon="12.773429734254243"><ele>253.0</ele><time>2026-03-22T17:04:32Z</time></trkpt><trkpt lat="42.10423963331638" lon="12.773472815885372"><ele>253.0</ele><time>2026-03-22T17:04:33Z</time></trkpt><trkpt lat="42.10407559369715" lon="12.773515027347134"><ele>253.0</ele><time>2026-03-22T17:04:34Z</time></trkpt><trkpt lat="42.1039025246559" lon="12.773562078172953"><ele>257.0</ele><time>2026-03-22T17:04:35Z</time></trkpt><trkpt lat="42.1037149954195" lon="12.773620086353867"><ele>261.0</ele><time>2026-03-22T17:04:36Z</time></trkpt><trkpt lat="42.10351713814697" lon="12.773691976794268"><ele>265.0</ele><time>2026-03-22T17:04:37Z</time></trkpt><trkpt lat="42.10331946915213" lon="12.773772120003187"><ele>263.0</ele><time>2026-03-22T17:04:38Z</time></trkpt><trkpt lat="42.103118623697476" lon="12.773860053936627"><ele>261.0</ele><time>2026-03-22T17:04:39Z</time></trkpt><trkpt lat="42.10291369043697" lon="12.773908311764034"><ele>259.0</ele><time>2026-03-22T17:04:40Z</time></trkpt><trkpt lat="42.10270420734484" lon="12.773937692567957"><ele>259.0</ele><time>2026-03-22T17:04:41Z</time></trkpt><trkpt lat="42.102502191783344" lon="12.773960249815545"><ele>259.0</ele><time>2026-03-22T17:04:42Z</time></trkpt><trkpt lat="42.10231122228424" lon="12.774004406225288"><ele>259.0</ele><time>2026-03-22T17:04:43Z</time></trkpt><trkpt lat="42.10212286535765" lon="12.774096915570299"><ele>257.3333333333333</ele><time>2026-03-22T17:04:44Z</time></trkpt><trkpt lat="42.10194752693798" lon="12.774211921332206"><ele>255.66666666666669</ele><time>2026-03-22T17:04:45Z</time></trkpt><trkpt lat="42.101780846884985" lon="12.77433021562086"><ele>254.0</ele><time>2026-03-22T17:04:46Z</time></trkpt><trkpt lat="42.10161256741214" lon="12.77444662354208"><ele>255.66666666666669</ele><time>2026-03-22T17:04:47Z</time></trkpt><trkpt lat="42.10143655829877" lon="12.774540097354276"><ele>257.3333333333333</ele><time>2026-03-22T17:04:48Z</time></trkpt><trkpt lat="42.10125389166599" lon="12.77461673960961"><ele>259.0</ele><time>2026-03-22T17:04:49Z</time></trkpt><trkpt lat="42.10107930884985" lon="12.774718727214783"><ele>259.0</ele><time>2026-03-22T17:04:50Z</time></trkpt><trkpt lat="42.100910613962824" lon="12.774841047342223"><ele>259.0</ele><time>2026-03-22T17:04:51Z</time></trkpt><trkpt lat="42.10074492794261" lon="12.774973086984852"><ele>259.0</ele><time>2026-03-22T17:04:52Z</time></trkpt><trkpt lat="42.10059607210959" lon="12.775124650746596"><ele>260.66666666666663</ele><time>2026-03-22T17:04:53Z</time></trkpt><trkpt lat="42.10042180022837" lon="12.775256189660668"><ele>262.3333333333333</ele><time>2026-03-22T17:04:54Z</time></trkpt><trkpt lat="42.100264569043205" lon="12.775400993648777"><ele>264.0</ele><time>2026-03-22T17:04:55Z</time></trkpt><trkpt lat="42.10007658737743" lon="12.775563580486367"><ele>259.0</ele><time>2026-03-22T17:04:56Z</time></trkpt><trkpt lat="42.09989509361776" lon="12.775767583476894"><ele>254.0</ele><time>2026-03-22T17:04:57Z</time></trkpt><trkpt lat="42.09974478533481" lon="12.775868336165829"><ele>249.0</ele><time>2026-03-22T17:04:58Z</time></trkpt><trkpt lat="42.0996307763515" lon="12.77592499915107"><ele>255.0</ele><time>2026-03-22T17:04:59Z</time></trkpt><trkpt lat="42.09949295700748" lon="12.776030914730258"><ele>261.0</ele><time>2026-03-22T17:05:00Z</time></trkpt><trkpt lat="42.09935463928091" lon="12.776170701168027"><ele>267.0</ele><time>2026-03-22T17:05:01Z</time></trkpt><trkpt lat="42.09918900672112" lon="12.776272982189624"><ele>265.0</ele><time>2026-03-22T17:05:02Z</time></trkpt><trkpt lat="42.099036565537425" lon="12.776398111568158"><ele>263.0</ele><time>2026-03-22T17:05:03Z</time></trkpt><trkpt lat="42.09888363717072" lon="12.776515145336443"><ele>261.0</ele><time>2026-03-22T17:05:04Z</time></trkpt><trkpt lat="42.09872707062503" lon="12.776596193686554"><ele>261.0</ele><time>2026-03-22T17:05:05Z</time></trkpt><trkpt lat="42.098563165711994" lon="12.776648841811886"><ele>261.0</ele><time>2026-03-22T17:05:06Z</time></trkpt><trkpt lat="42.09839955967377" lon="12.776663884962433"><ele>261.0</ele><time>2026-03-22T17:05:07Z</time></trkpt><trkpt lat="42.09823609684327" lon="12.776650135272918"><ele>259.3333333333333</ele><time>2026-03-22T17:05:08Z</time></trkpt><trkpt lat="42.098071113238156" lon="12.776653276368974"><ele>257.66666666666663</ele><time>2026-03-22T17:05:09Z</time></trkpt><trkpt lat="42.09790965362968" lon="12.77668341937325"><ele>256.0</ele><time>2026-03-22T17:05:10Z</time></trkpt><trkpt lat="42.11815249428362" lon="12.784090867157623"><ele>265.66666666666663</ele><time>2026-03-22T17:01:10Z</time></trkpt><trkpt lat="42.118126503109146" lon="12.783979466199758"><ele>275.3333333333333</ele><time>2026-03-22T17:01:11Z</time></trkpt><trkpt lat="42.1180947277546" lon="12.783880733411973"><ele>285.0</ele><time>2026-03-22T17:01:12Z</time></trkpt><trkpt lat="42.11805453862659" lon="12.78380549524928"><ele>294.6666666666667</ele><time>2026-03-22T17:01:13Z</time></trkpt><trkpt lat="42.117952145349776" lon="12.783761345129268"><ele>304.33333333333337</ele><time>2026-03-22T17:01:15Z</time></trkpt><trkpt lat="42.11788406015681" lon="12.783794142457426"><ele>314.0</ele><time>2026-03-22T17:01:16Z</time></trkpt><trkpt lat="42.11782416482511" lon="12.783862214042838"><ele>314.0</ele><time>2026-03-22T17:01:17Z</time></trkpt><trkpt lat="42.11779784526405" lon="12.784017677948189"><ele>314.0</ele><time>2026-03-22T17:01:18Z</time></trkpt><trkpt lat="42.1177827055004" lon="12.784145260684769"><ele>314.0</ele><time>2026-03-22T17:01:19Z</time></trkpt><trkpt lat="42.11776721211875" lon="12.784276683886869"><ele>314.0</ele><time>2026-03-22T17:01:20Z</time></trkpt><trkpt lat="42.117751309967566" lon="12.784411574526644"><ele>314.0</ele><time>2026-03-22T17:01:21Z</time></trkpt><trkpt lat="42.117734174332824" lon="12.784554171506457"><ele>314.5</ele><time>2026-03-22T17:01:22Z</time></trkpt><trkpt lat="42.117716656093044" lon="12.784692951780238"><ele>315.0</ele><time>2026-03-22T17:01:23Z</time></trkpt><trkpt lat="42.11769875026598" lon="12.784817965504068"><ele>315.5</ele><time>2026-03-22T17:01:24Z</time></trkpt><trkpt lat="42.11767607204915" lon="12.784924707556815"><ele>316.0</ele><time>2026-03-22T17:01:25Z</time></trkpt><trkpt lat="42.11763798607212" lon="12.784994021692368"><ele>316.5</ele><time>2026-03-22T17:01:26Z</time></trkpt><trkpt lat="42.11758171998032" lon="12.785039602780154"><ele>317.0</ele><time>2026-03-22T17:01:27Z</time></trkpt><trkpt lat="42.117515490588055" lon="12.785082847219703"><ele>317.0</ele><time>2026-03-22T17:01:28Z</time></trkpt><trkpt lat="42.11742870174482" lon="12.785056735163712"><ele>317.0</ele><time>2026-03-22T17:01:29Z</time></trkpt><trkpt lat="42.11734018106696" lon="12.78499262825933"><ele>317.0</ele><time>2026-03-22T17:01:30Z</time></trkpt><trkpt lat="42.117249926819014" lon="12.784918172705813"><ele>317.0</ele><time>2026-03-22T17:01:31Z</time></trkpt><trkpt lat="42.11714958632884" lon="12.784872917145226"><ele>317.0</ele><time>2026-03-22T17:01:32Z</time></trkpt><trkpt lat="42.11703022237357" lon="12.784854383498878"><ele>315.5</ele><time>2026-03-22T17:01:33Z</time></trkpt><trkpt lat="42.116898076582956" lon="12.784850069842353"><ele>314.0</ele><time>2026-03-22T17:01:34Z</time></trkpt><trkpt lat="42.1167567725091" lon="12.784855415065413"><ele>312.5</ele><time>2026-03-22T17:01:35Z</time></trkpt><trkpt lat="42.116596618152535" lon="12.784866360117737"><ele>311.0</ele><time>2026-03-22T17:01:36Z</time></trkpt><trkpt lat="42.116429103419904" lon="12.784871094276452"><ele>309.0</ele><time>2026-03-22T17:01:37Z</time></trkpt><trkpt lat="42.116252813434954" lon="12.784853288049115"><ele>307.0</ele><time>2026-03-22T17:01:38Z</time></trkpt><trkpt lat="42.11608125501463" lon="12.784838235505255"><ele>305.0</ele><time>2026-03-22T17:01:39Z</time></trkpt><trkpt lat="42.11592875789028" lon="12.784839986015436"><ele>305.0</ele><time>2026-03-22T17:01:40Z</time></trkpt><trkpt lat="42.11576582460279" lon="12.784851010103207"><ele>305.0</ele><time>2026-03-22T17:01:41Z</time></trkpt><trkpt lat="42.11560176444057" lon="12.78489768574884"><ele>305.0</ele><time>2026-03-22T17:01:42Z</time></trkpt><trkpt lat="42.11544385163859" lon="12.784954367394924"><ele>303.25</ele><time>2026-03-22T17:01:43Z</time></trkpt><trkpt lat="42.11529975393533" lon="12.785006161689113"><ele>301.5</ele><time>2026-03-22T17:01:44Z</time></trkpt><trkpt lat="42.115175125821224" lon="12.785050260660176"><ele>299.75</ele><time>2026-03-22T17:01:45Z</time></trkpt><trkpt lat="42.115058713509384" lon="12.785086269748952"><ele>298.0</ele><time>2026-03-22T17:01:46Z</time></trkpt><trkpt lat="42.11496060932843" lon="12.785114856594893"><ele>299.0</ele><time>2026-03-22T17:01:47Z</time></trkpt><trkpt lat="42.11486809487678" lon="12.785068430857372"><ele>300.0</ele><time>2026-03-22T17:01:48Z</time></trkpt><trkpt lat="42.11479574434995" lon="12.784991025006487"><ele>301.0</ele><time>2026-03-22T17:01:49Z</time></trkpt><trkpt lat="42.11474005941217" lon="12.784891102780199"><ele>302.0</ele><time>2026-03-22T17:01:50Z</time></trkpt><trkpt lat="42.11469216990065" lon="12.784760155907918"><ele>303.0</ele><time>2026-03-22T17:01:51Z</time></trkpt><trkpt lat="42.11465045863095" lon="12.784605689984915"><ele>303.0</ele><time>2026-03-22T17:01:52Z</time></trkpt><trkpt lat="42.11460607542763" lon="12.78444556246423"><ele>303.0</ele><time>2026-03-22T17:01:53Z</time></trkpt><trkpt lat="42.11456828223681" lon="12.784264121925716"><ele>303.0</ele><time>2026-03-22T17:01:54Z</time></trkpt><trkpt lat="42.11455093659813" lon="12.78410885143428"><ele>303.0</ele><time>2026-03-22T17:01:55Z</time></trkpt><trkpt lat="42.11456048385553" lon="12.78398045291547"><ele>300.8</ele><time>2026-03-22T17:01:56Z</time></trkpt><trkpt lat="42.11459403952675" lon="12.783857351844008"><ele>298.6</ele><time>2026-03-22T17:01:57Z</time></trkpt><trkpt lat="42.11464848082015" lon="12.783736081189609"><ele>296.4</ele><time>2026-03-22T17:01:58Z</time></trkpt><trkpt lat="42.114727300338494" lon="12.783653478041249"><ele>294.2</ele><time>2026-03-22T17:01:59Z</time></trkpt><trkpt lat="42.114833063378676" lon="12.783596443080144"><ele>292.0</ele><time>2026-03-22T17:02:00Z</time></trkpt><trkpt lat="42.1149590051845" lon="12.783543898526016"><ele>293.5</ele><time>2026-03-22T17:02:01Z</time></trkpt><trkpt lat="42.11509690129814" lon="12.78347689035694"><ele>295.0</ele><time>2026-03-22T17:02:02Z</time></trkpt><trkpt lat="42.11523501068296" lon="12.783383074515314"><ele>296.5</ele><time>2026-03-22T17:02:03Z</time></trkpt><trkpt lat="42.115344433667794" lon="12.783270293264845"><ele>298.0</ele><time>2026-03-22T17:02:04Z</time></trkpt><trkpt lat="42.1154396470458" lon="12.783124761922059"><ele>298.0</ele><time>2026-03-22T17:02:05Z</time></trkpt><trkpt lat="42.115533246449644" lon="12.782951184759712"><ele>298.0</ele><time>2026-03-22T17:02:06Z</time></trkpt><trkpt lat="42.11563628687082" lon="12.782762405332235"><ele>298.0</ele><time>2026-03-22T17:02:07Z</time></trkpt><trkpt lat="42.11574811535585" lon="12.782566720181192"><ele>295.0</ele><time>2026-03-22T17:02:08Z</time></trkpt><trkpt lat="42.11586543415361" lon="12.782367790503027"><ele>292.0</ele><time>2026-03-22T17:02:09Z</time></trkpt><trkpt lat="42.11598194518142" lon="12.782167646517332"><ele>289.0</ele><time>2026-03-22T17:02:10Z</time></trkpt><trkpt lat="42.11608324312555" lon="12.781985109289993"><ele>292.25</ele><time>2026-03-22T17:02:11Z</time></trkpt><trkpt lat="42.11615199429527" lon="12.781807310435862"><ele>295.5</ele><time>2026-03-22T17:02:12Z</time></trkpt><trkpt lat="42.116197824681336" lon="12.781647168812944"><ele>298.75</ele><time>2026-03-22T17:02:13Z</time></trkpt><trkpt lat="42.116218024038304" lon="12.781488307433346"><ele>302.0</ele><time>2026-03-22T17:02:14Z</time></trkpt><trkpt lat="42.1162182738137" lon="12.78131583874066"><ele>302.0</ele><time>2026-03-22T17:02:15Z</time></trkpt><trkpt lat="42.116197168433644" lon="12.781131492561057"><ele>302.0</ele><time>2026-03-22T17:02:16Z</time></trkpt><trkpt lat="42.11616787187931" lon="12.780929150746749"><ele>302.0</ele><time>2026-03-22T17:02:17Z</time></trkpt><trkpt lat="42.11615991642619" lon="12.780713592934204"><ele>305.33333333333337</ele><time>2026-03-22T17:02:18Z</time></trkpt><trkpt lat="42.116163086329905" lon="12.780489763941361"><ele>308.6666666666667</ele><time>2026-03-22T17:02:19Z</time></trkpt><trkpt lat="42.116177643091895" lon="12.78025821620286"><ele>312.0</ele><time>2026-03-22T17:02:20Z</time></trkpt><trkpt lat="42.11620883820785" lon="12.780036739264585"><ele>313.0</ele><time>2026-03-22T17:02:21Z</time></trkpt><trkpt lat="42.11626518320602" lon="12.77979466335123"><ele>314.0</ele><time>2026-03-22T17:02:22Z</time></trkpt><trkpt lat="42.11631829964224" lon="12.77955425905164"><ele>315.0</ele><time>2026-03-22T17:02:23Z</time></trkpt><trkpt lat="42.116376199852354" lon="12.779299422699445"><ele>315.5</ele><time>2026-03-22T17:02:24Z</time></trkpt><trkpt lat="42.11640578294659" lon="12.779081951920844"><ele>316.0</ele><time>2026-03-22T17:02:25Z</time></trkpt><trkpt lat="42.1164328801329" lon="12.778892287971601"><ele>316.5</ele><time>2026-03-22T17:02:26Z</time></trkpt><trkpt lat="42.11645977601341" lon="12.778724008167034"><ele>317.0</ele><time>2026-03-22T17:02:27Z</time></trkpt><trkpt lat="42.116469020453664" lon="12.778582369431227"><ele>315.4</ele><time>2026-03-22T17:02:28Z</time></trkpt><trkpt lat="42.11646095723278" lon="12.778445398868644"><ele>313.79999999999995</ele><time>2026-03-22T17:02:29Z</time></trkpt><trkpt lat="42.116425668365025" lon="12.778329188708343"><ele>312.2</ele><time>2026-03-22T17:02:30Z</time></trkpt><trkpt lat="42.11638736400197" lon="12.77821334157563"><ele>310.59999999999997</ele><time>2026-03-22T17:02:31Z</time></trkpt><trkpt lat="42.11631312446107" lon="12.778108202883724"><ele>309.0</ele><time>2026-03-22T17:02:32Z</time></trkpt><trkpt lat="42.1162110894689" lon="12.778020167532178"><ele>309.0</ele><time>2026-03-22T17:02:33Z</time></trkpt><trkpt lat="42.11609008825202" lon="12.777967317136618"><ele>309.0</ele><time>2026-03-22T17:02:34Z</time></trkpt><trkpt lat="42.115964163653075" lon="12.77788684386017"><ele>309.0</ele><time>2026-03-22T17:02:35Z</time></trkpt><trkpt lat="42.115833163530894" lon="12.777801084254566"><ele>309.0</ele><time>2026-03-22T17:02:36Z</time></trkpt><trkpt lat="42.11571420802325" lon="12.777695723464312"><ele>313.25</ele><time>2026-03-22T17:02:37Z</time></trkpt><trkpt lat="42.11562624884862" lon="12.777566632221701"><ele>317.5</ele><time>2026-03-22T17:02:38Z</time></trkpt><trkpt lat="42.11556380969347" lon="12.777409084213462"><ele>321.75</ele><time>2026-03-22T17:02:39Z</time></trkpt><trkpt lat="42.11550877931978" lon="12.777229757684298"><ele>326.0</ele><time>2026-03-22T17:02:40Z</time></trkpt><trkpt lat="42.115451630057514" lon="12.777040083548707"><ele>319.0</ele><time>2026-03-22T17:02:41Z</time></trkpt><trkpt lat="42.115387302097034" lon="12.776846586421884"><ele>312.0</ele><time>2026-03-22T17:02:42Z</time></trkpt><trkpt lat="42.11532422508123" lon="12.776655946181538"><ele>305.0</ele><time>2026-03-22T17:02:43Z</time></trkpt><trkpt lat="42.11526518292936" lon="12.776480033343708"><ele>305.0</ele><time>2026-03-22T17:02:44Z</time></trkpt><trkpt lat="42.11520546461827" lon="12.776310502293926"><ele>305.0</ele><time>2026-03-22T17:02:45Z</time></trkpt><trkpt lat="42.115145000532756" lon="12.776151905166888"><ele>305.0</ele><time>2026-03-22T17:02:46Z</time></trkpt><trkpt lat="42.1150740144429" lon="12.775991063022595"><ele>305.0</ele><time>2026-03-22T17:02:47Z</time></trkpt><trkpt lat="42.11499412784061" lon="12.775830095130376"><ele>310.0</ele><time>2026-03-22T17:02:48Z</time></trkpt><trkpt lat="42.11490338601866" lon="12.775671445137863"><ele>315.0</ele><time>2026-03-22T17:02:49Z</time></trkpt><trkpt lat="42.11481577340631" lon="12.77551490213157"><ele>320.0</ele><time>2026-03-22T17:02:50Z</time></trkpt><trkpt lat="42.114733306142" lon="12.7753725780708"><ele>325.0</ele><time>2026-03-22T17:02:51Z</time></trkpt><trkpt lat="42.114659670808024" lon="12.77523644979917"><ele>319.6</ele><time>2026-03-22T17:02:52Z</time></trkpt><trkpt lat="42.11459009347228" lon="12.775106919858843"><ele>314.2</ele><time>2026-03-22T17:02:53Z</time></trkpt><trkpt lat="42.11452193930337" lon="12.774988418510748"><ele>308.8</ele><time>2026-03-22T17:02:54Z</time></trkpt><trkpt lat="42.114457456573525" lon="12.77487670449642"><ele>303.4</ele><time>2026-03-22T17:02:55Z</time></trkpt><trkpt lat="42.114400392501686" lon="12.774767722010457"><ele>298.0</ele><time>2026-03-22T17:02:56Z</time></trkpt><trkpt lat="42.11434180721254" lon="12.77464850770371"><ele>298.0</ele><time>2026-03-22T17:02:57Z</time></trkpt><trkpt lat="42.1142762184442" lon="12.77453213817644"><ele>298.0</ele><time>2026-03-22T17:02:58Z</time></trkpt><trkpt lat="42.11420282867085" lon="12.774420239099946"><ele>298.0</ele><time>2026-03-22T17:02:59Z</time></trkpt><trkpt lat="42.11411094209167" lon="12.774331976628183"><ele>298.0</ele><time>2026-03-22T17:03:00Z</time></trkpt><trkpt lat="42.11400840325263" lon="12.774252730353396"><ele>296.16666666666663</ele><time>2026-03-22T17:03:01Z</time></trkpt><trkpt lat="42.11390443990644" lon="12.774194802595376"><ele>294.3333333333333</ele><time>2026-03-22T17:03:02Z</time></trkpt><trkpt lat="42.113815288967146" lon="12.774157190353824"><ele>292.5</ele><time>2026-03-22T17:03:03Z</time></trkpt><trkpt lat="42.1137334529895" lon="12.774113237557957"><ele>290.6666666666667</ele><time>2026-03-22T17:03:04Z</time></trkpt><trkpt lat="42.11365986814807" lon="12.774072199145097"><ele>288.83333333333337</ele><time>2026-03-22T17:03:05Z</time></trkpt><trkpt lat="42.113595360255815" lon="12.774042294870195"><ele>287.0</ele><time>2026-03-22T17:03:06Z</time></trkpt><trkpt lat="42.11351882694517" lon="12.774004302585688"><ele>287.0</ele><time>2026-03-22T17:03:08Z</time></trkpt><trkpt lat="42.11345920610621" lon="12.77396545470742"><ele>287.0</ele><time>2026-03-22T17:03:11Z</time></trkpt><trkpt lat="42.11333575892541" lon="12.773984660186303"><ele>287.0</ele><time>2026-03-22T17:03:15Z</time></trkpt><trkpt lat="42.11327040122769" lon="12.77406595702845"><ele>287.0</ele><time>2026-03-22T17:03:16Z</time></trkpt><trkpt lat="42.11319967459929" lon="12.774141561737544"><ele>287.0</ele><time>2026-03-22T17:03:17Z</time></trkpt><trkpt lat="42.11310852897272" lon="12.774218455344997"><ele>284.5</ele><time>2026-03-22T17:03:18Z</time></trkpt><trkpt lat="42.11299663359687" lon="12.774296359086698"><ele>282.0</ele><time>2026-03-22T17:03:19Z</time></trkpt><trkpt lat="42.112872141340176" lon="12.774369770310486"><ele>279.5</ele><time>2026-03-22T17:03:20Z</time></trkpt><trkpt lat="42.11273675749922" lon="12.774437192433668"><ele>277.0</ele><time>2026-03-22T17:03:21Z</time></trkpt><trkpt lat="42.11258739972038" lon="12.774480478353789"><ele>282.3333333333333</ele><time>2026-03-22T17:03:22Z</time></trkpt><trkpt lat="42.11243661902316" lon="12.774515310475197"><ele>287.6666666666667</ele><time>2026-03-22T17:03:23Z</time></trkpt><trkpt lat="42.11228533474275" lon="12.774530618292856"><ele>293.0</ele><time>2026-03-22T17:03:24Z</time></trkpt><trkpt lat="42.112132855725946" lon="12.774522400568454"><ele>293.0</ele><time>2026-03-22T17:03:25Z</time></trkpt><trkpt lat="42.1119748655147" lon="12.774510588667862"><ele>293.0</ele><time>2026-03-22T17:03:26Z</time></trkpt><trkpt lat="42.11180823863135" lon="12.774500599620893"><ele>293.0</ele><time>2026-03-22T17:03:27Z</time></trkpt><trkpt lat="42.11164331665681" lon="12.774477524120261"><ele>293.33333333333337</ele><time>2026-03-22T17:03:28Z</time></trkpt><trkpt lat="42.11147174762046" lon="12.774482471717043"><ele>293.6666666666667</ele><time>2026-03-22T17:03:29Z</time></trkpt><trkpt lat="42.11129804675229" lon="12.774493884163006"><ele>294.0</ele><time>2026-03-22T17:03:30Z</time></trkpt><trkpt lat="42.11112836857494" lon="12.774515295555576"><ele>294.0</ele><time>2026-03-22T17:03:31Z</time></trkpt><trkpt lat="42.11096461021108" lon="12.774446279541587"><ele>294.0</ele><time>2026-03-22T17:03:32Z</time></trkpt><trkpt lat="42.11080542606545" lon="12.774351480832262"><ele>294.0</ele><time>2026-03-22T17:03:33Z</time></trkpt><trkpt lat="42.110641792136306" lon="12.77425236966266"><ele>290.0</ele><time>2026-03-22T17:03:34Z</time></trkpt><trkpt lat="42.1104659459812" lon="12.77416245308057"><ele>286.0</ele><time>2026-03-22T17:03:35Z</time></trkpt><trkpt lat="42.11029133894051" lon="12.774074672611363"><ele>282.0</ele><time>2026-03-22T17:03:36Z</time></trkpt><trkpt lat="42.11011932330673" lon="12.77398849597714"><ele>282.0</ele><time>2026-03-22T17:03:37Z</time></trkpt><trkpt lat="42.10996276695509" lon="12.7738927907438"><ele>282.0</ele><time>2026-03-22T17:03:38Z</time></trkpt><trkpt lat="42.10981670278534" lon="12.773779281350572"><ele>282.0</ele><time>2026-03-22T17:03:39Z</time></trkpt><trkpt lat="42.109682611256424" lon="12.77365398621489"><ele>281.0</ele><time>2026-03-22T17:03:40Z</time></trkpt><trkpt lat="42.109571693845716" lon="12.773518700757139"><ele>280.0</ele><time>2026-03-22T17:03:41Z</time></trkpt><trkpt lat="42.10948082779487" lon="12.773369144929713"><ele>279.0</ele><time>2026-03-22T17:03:42Z</time></trkpt><trkpt lat="42.10940549579243" lon="12.773221920655534"><ele>278.0</ele><time>2026-03-22T17:03:43Z</time></trkpt><trkpt lat="42.109333442540326" lon="12.773087048130243"><ele>278.0</ele><time>2026-03-22T17:03:44Z</time></trkpt><trkpt lat="42.109267375775666" lon="12.772962791242447"><ele>278.0</ele><time>2026-03-22T17:03:45Z</time></trkpt><trkpt lat="42.10921927250612" lon="12.772862448519009"><ele>278.0</ele><time>2026-03-22T17:03:46Z</time></trkpt><trkpt lat="42.10917597699305" lon="12.77277798083725"><ele>278.0</ele><time>2026-03-22T17:03:47Z</time></trkpt><trkpt lat="42.109131909224196" lon="12.772686551374115"><ele>278.0</ele><time>2026-03-22T17:03:49Z</time></trkpt><trkpt lat="42.10908541836781" lon="12.772593152489737"><ele>278.0</ele><time>2026-03-22T17:03:52Z</time></trkpt><trkpt lat="42.109034503693394" lon="12.772532534728041"><ele>277.0</ele><time>2026-03-22T17:03:54Z</time></trkpt><trkpt lat="42.10897688475357" lon="12.772468215113692"><ele>276.0</ele><time>2026-03-22T17:03:56Z</time></trkpt><trkpt lat="42.10891717290844" lon="12.77239431602859"><ele>275.0</ele><time>2026-03-22T17:03:58Z</time></trkpt><trkpt lat="42.10886050694511" lon="12.77233279500892"><ele>274.0</ele><time>2026-03-22T17:03:59Z</time></trkpt><trkpt lat="42.10877280905625" lon="12.772254391504724"><ele>273.0</ele><time>2026-03-22T17:04:00Z</time></trkpt><trkpt lat="42.10865898621367" lon="12.772183701589668"><ele>273.0</ele><time>2026-03-22T17:04:01Z</time></trkpt><trkpt lat="42.108552082881694" lon="12.772149552153738"><ele>273.0</ele><time>2026-03-22T17:04:02Z</time></trkpt><trkpt lat="42.1084680159442" lon="12.772156498178234"><ele>273.0</ele><time>2026-03-22T17:04:03Z</time></trkpt><trkpt lat="42.10833935335306" lon="12.772141237147489"><ele>273.0</ele><time>2026-03-22T17:04:05Z</time></trkpt><trkpt lat="42.10823081533879" lon="12.772083579039453"><ele>273.0</ele><time>2026-03-22T17:04:06Z</time></trkpt><trkpt lat="42.108074461026106" lon="12.772047923857823"><ele>272.6666666666667</ele><time>2026-03-22T17:04:07Z</time></trkpt><trkpt lat="42.10791354383873" lon="12.771999538828588"><ele>272.33333333333337</ele><time>2026-03-22T17:04:08Z</time></trkpt><trkpt lat="42.10774308353777" lon="12.771970300021957"><ele>272.0</ele><time>2026-03-22T17:04:09Z</time></trkpt><trkpt lat="42.107571545227295" lon="12.771942833473076"><ele>270.33333333333337</ele><time>2026-03-22T17:04:10Z</time></trkpt><trkpt lat="42.10738877548928" lon="12.771945437231752"><ele>268.6666666666667</ele><time>2026-03-22T17:04:11Z</time></trkpt><trkpt lat="42.10719078724288" lon="12.771951776089438"><ele>267.0</ele><time>2026-03-22T17:04:12Z</time></trkpt><trkpt lat="42.10700723239567" lon="12.771961565645162"><ele>267.0</ele><time>2026-03-22T17:04:13Z</time></trkpt><trkpt lat="42.10681418957358" lon="12.771974318331225"><ele>267.0</ele><time>2026-03-22T17:04:14Z</time></trkpt><trkpt lat="42.106619052134896" lon="12.771991162196164"><ele>267.0</ele><time>2026-03-22T17:04:15Z</time></trkpt><trkpt lat="42.106436603353096" lon="12.772006910802089"><ele>265.3333333333333</ele><time>2026-03-22T17:04:16Z</time></trkpt><trkpt lat="42.10627887064412" lon="12.772022735029525"><ele>263.66666666666663</ele><time>2026-03-22T17:04:17Z</time></trkpt><trkpt lat="42.10612252684709" lon="12.772042525429182"><ele>262.0</ele><time>2026-03-22T17:04:18Z</time></trkpt><trkpt lat="42.105978183097704" lon="12.772076194393254"><ele>262.0</ele><time>2026-03-22T17:04:19Z</time></trkpt><trkpt lat="42.105836616777744" lon="12.772125707023942"><ele>262.0</ele><time>2026-03-22T17:04:20Z</time></trkpt><trkpt lat="42.10569331499732" lon="12.77220945453691"><ele>262.0</ele><time>2026-03-22T17:04:21Z</time></trkpt><trkpt lat="42.10556520049898" lon="12.772336947752809"><ele>261.3333333333333</ele><time>2026-03-22T17:04:22Z</time></trkpt><trkpt lat="42.10545410760589" lon="12.772474152221188"><ele>260.6666666666667</ele><time>2026-03-22T17:04:23Z</time></trkpt><trkpt lat="42.10535926651893" lon="12.772633226120169"><ele>260.0</ele><time>2026-03-22T17:04:24Z</time></trkpt><trkpt lat="42.10527727912208" lon="12.772810231155573"><ele>260.0</ele><time>2026-03-22T17:04:25Z</time></trkpt><trkpt lat="42.10519368950752" lon="12.772981198898375"><ele>260.0</ele><time>2026-03-22T17:04:26Z</time></trkpt><trkpt lat="42.10510926010199" lon="12.773110722880254"><ele>260.0</ele><time>2026-03-22T17:04:27Z</time></trkpt><trkpt lat="42.10501128955133" lon="12.773221310818986"><ele>260.0</ele><time>2026-03-22T17:04:28Z</time></trkpt><trkpt lat="42.10488695465861" lon="12.773295842491674"><ele>257.6666666666667</ele><time>2026-03-22T17:04:29Z</time></trkpt><trkpt lat="42.10473585542365" lon="12.773349857463325"><ele>255.33333333333331</ele><time>2026-03-22T17:04:30Z</time></trkpt><trkpt lat="42.10456840272155" lon="12.773391481919399"><ele>253.0</ele><time>2026-03-22T17:04:31Z</time></trkpt><trkpt lat="42.104407061499835" lon="12.773429734254243"><ele>253.0</ele><time>2026-03-22T17:04:32Z</time></trkpt><trkpt lat="42.10423963331638" lon="12.773472815885372"><ele>253.0</ele><time>2026-03-22T17:04:33Z</time></trkpt><trkpt lat="42.10407559369715" lon="12.773515027347134"><ele>253.0</ele><time>2026-03-22T17:04:34Z</time></trkpt><trkpt lat="42.1039025246559" lon="12.773562078172953"><ele>257.0</ele><time>2026-03-22T17:04:35Z</time></trkpt><trkpt lat="42.1037149954195" lon="12.773620086353867"><ele>261.0</ele><time>2026-03-22T17:04:36Z</time></trkpt><trkpt lat="42.10351713814697" lon="12.773691976794268"><ele>265.0</ele><time>2026-03-22T17:04:37Z</time></trkpt><trkpt lat="42.10331946915213" lon="12.773772120003187"><ele>263.0</ele><time>2026-03-22T17:04:38Z</time></trkpt><trkpt lat="42.103118623697476" lon="12.773860053936627"><ele>261.0</ele><time>2026-03-22T17:04:39Z</time></trkpt><trkpt lat="42.10291369043697" lon="12.773908311764034"><ele>259.0</ele><time>2026-03-22T17:04:40Z</time></trkpt><trkpt lat="42.10270420734484" lon="12.773937692567957"><ele>259.0</ele><time>2026-03-22T17:04:41Z</time></trkpt><trkpt lat="42.102502191783344" lon="12.773960249815545"><ele>259.0</ele><time>2026-03-22T17:04:42Z</time></trkpt><trkpt lat="42.10231122228424" lon="12.774004406225288"><ele>259.0</ele><time>2026-03-22T17:04:43Z</time></trkpt><trkpt lat="42.10212286535765" lon="12.774096915570299"><ele>257.3333333333333</ele><time>2026-03-22T17:04:44Z</time></trkpt><trkpt lat="42.10194752693798" lon="12.774211921332206"><ele>255.66666666666669</ele><time>2026-03-22T17:04:45Z</time></trkpt><trkpt lat="42.101780846884985" lon="12.77433021562086"><ele>254.0</ele><time>2026-03-22T17:04:46Z</time></trkpt><trkpt lat="42.10161256741214" lon="12.77444662354208"><ele>255.66666666666669</ele><time>2026-03-22T17:04:47Z</time></trkpt><trkpt lat="42.10143655829877" lon="12.774540097354276"><ele>257.3333333333333</ele><time>2026-03-22T17:04:48Z</time></trkpt><trkpt lat="42.10125389166599" lon="12.77461673960961"><ele>259.0</ele><time>2026-03-22T17:04:49Z</time></trkpt><trkpt lat="42.10107930884985" lon="12.774718727214783"><ele>259.0</ele><time>2026-03-22T17:04:50Z</time></trkpt><trkpt lat="42.100910613962824" lon="12.774841047342223"><ele>259.0</ele><time>2026-03-22T17:04:51Z</time></trkpt><trkpt lat="42.10074492794261" lon="12.774973086984852"><ele>259.0</ele><time>2026-03-22T17:04:52Z</time></trkpt><trkpt lat="42.10059607210959" lon="12.775124650746596"><ele>260.66666666666663</ele><time>2026-03-22T17:04:53Z</time></trkpt><trkpt lat="42.10042180022837" lon="12.775256189660668"><ele>262.3333333333333</ele><time>2026-03-22T17:04:54Z</time></trkpt><trkpt lat="42.100264569043205" lon="12.775400993648777"><ele>264.0</ele><time>2026-03-22T17:04:55Z</time></trkpt><trkpt lat="42.10007658737743" lon="12.775563580486367"><ele>259.0</ele><time>2026-03-22T17:04:56Z</time></trkpt><trkpt lat="42.09989509361776" lon="12.775767583476894"><ele>254.0</ele><time>2026-03-22T17:04:57Z</time></trkpt><trkpt lat="42.09974478533481" lon="12.775868336165829"><ele>249.0</ele><time>2026-03-22T17:04:58Z</time></trkpt><trkpt lat="42.0996307763515" lon="12.77592499915107"><ele>255.0</ele><time>2026-03-22T17:04:59Z</time></trkpt><trkpt lat="42.09949295700748" lon="12.776030914730258"><ele>261.0</ele><time>2026-03-22T17:05:00Z</time></trkpt><trkpt lat="42.09935463928091" lon="12.776170701168027"><ele>267.0</ele><time>2026-03-22T17:05:01Z</time></trkpt><trkpt lat="42.09918900672112" lon="12.776272982189624"><ele>265.0</ele><time>2026-03-22T17:05:02Z</time></trkpt><trkpt lat="42.099036565537425" lon="12.776398111568158"><ele>263.0</ele><time>2026-03-22T17:05:03Z</time></trkpt><trkpt lat="42.09888363717072" lon="12.776515145336443"><ele>261.0</ele><time>2026-03-22T17:05:04Z</time></trkpt><trkpt lat="42.09872707062503" lon="12.776596193686554"><ele>261.0</ele><time>2026-03-22T17:05:05Z</time></trkpt><trkpt lat="42.098563165711994" lon="12.776648841811886"><ele>261.0</ele><time>2026-03-22T17:05:06Z</time></trkpt><trkpt lat="42.09839955967377" lon="12.776663884962433"><ele>261.0</ele><time>2026-03-22T17:05:07Z</time></trkpt><trkpt lat="42.09823609684327" lon="12.776650135272918"><ele>259.3333333333333</ele><time>2026-03-22T17:05:08Z</time></trkpt><trkpt lat="42.098071113238156" lon="12.776653276368974"><ele>257.66666666666663</ele><time>2026-03-22T17:05:09Z</time></trkpt><trkpt lat="42.09790965362968" lon="12.77668341937325"><ele>256.0</ele><time>2026-03-22T17:05:10Z</time></trkpt><trkpt lat="42.09777665033043" lon="12.776736321950267"><ele>256.0</ele><time>2026-03-22T17:05:11Z</time></trkpt><trkpt lat="42.097637738955086" lon="12.776821554023748"><ele>256.0</ele><time>2026-03-22T17:05:12Z</time></trkpt><trkpt lat="42.097499998375916" lon="12.776931118912843"><ele>256.0</ele><time>2026-03-22T17:05:13Z</time></trkpt><trkpt lat="42.09735311061699" lon="12.77704925584108"><ele>257.66666666666663</ele><time>2026-03-22T17:05:14Z</time></trkpt><trkpt lat="42.097209100388966" lon="12.777180831320672"><ele>259.3333333333333</ele><time>2026-03-22T17:05:15Z</time></trkpt><trkpt lat="42.09706172422623" lon="12.777329951715009"><ele>261.0</ele><time>2026-03-22T17:05:16Z</time></trkpt><trkpt lat="42.09691983098118" lon="12.777487728625811"><ele>261.0</ele><time>2026-03-22T17:05:17Z</time></trkpt><trkpt lat="42.09677510577531" lon="12.777636736592303"><ele>261.0</ele><time>2026-03-22T17:05:18Z</time></trkpt><trkpt lat="42.09663058249754" lon="12.777777442517097"><ele>261.0</ele><time>2026-03-22T17:05:19Z</time></trkpt><trkpt lat="42.09649229814724" lon="12.777885843348294"><ele>262.25</ele><time>2026-03-22T17:05:20Z</time></trkpt><trkpt lat="42.096353239726696" lon="12.777961537235138"><ele>263.5</ele><time>2026-03-22T17:05:21Z</time></trkpt><trkpt lat="42.09621797168982" lon="12.778007481608421"><ele>264.75</ele><time>2026-03-22T17:05:22Z</time></trkpt><trkpt lat="42.09608916208667" lon="12.778014287912859"><ele>266.0</ele><time>2026-03-22T17:05:23Z</time></trkpt><trkpt lat="42.09595512395655" lon="12.77800011319254"><ele>266.0</ele><time>2026-03-22T17:05:24Z</time></trkpt><trkpt lat="42.095825815572816" lon="12.777947028038383"><ele>266.0</ele><time>2026-03-22T17:05:25Z</time></trkpt><trkpt lat="42.09569857482017" lon="12.777870837968226"><ele>266.0</ele><time>2026-03-22T17:05:26Z</time></trkpt><trkpt lat="42.09556569954444" lon="12.777763696076425"><ele>266.0</ele><time>2026-03-22T17:05:27Z</time></trkpt><trkpt lat="42.095429266773706" lon="12.777645883834495"><ele>265.6666666666667</ele><time>2026-03-22T17:05:28Z</time></trkpt><trkpt lat="42.095286969761766" lon="12.777522589270854"><ele>265.3333333333333</ele><time>2026-03-22T17:05:29Z</time></trkpt><trkpt lat="42.09513213498476" lon="12.777395771484638"><ele>265.0</ele><time>2026-03-22T17:05:30Z</time></trkpt><trkpt lat="42.09498328979361" lon="12.777263372555648"><ele>265.0</ele><time>2026-03-22T17:05:31Z</time></trkpt><trkpt lat="42.094859490587105" lon="12.777133031835314"><ele>265.0</ele><time>2026-03-22T17:05:32Z</time></trkpt><trkpt lat="42.09475011386144" lon="12.77698947099686"><ele>265.0</ele><time>2026-03-22T17:05:33Z</time></trkpt><trkpt lat="42.09467066742691" lon="12.776846792380498"><ele>265.0</ele><time>2026-03-22T17:05:34Z</time></trkpt><trkpt lat="42.09461128780313" lon="12.776701572654227"><ele>264.5</ele><time>2026-03-22T17:05:35Z</time></trkpt><trkpt lat="42.09457934348315" lon="12.776547418303963"><ele>264.0</ele><time>2026-03-22T17:05:36Z</time></trkpt><trkpt lat="42.09457122478225" lon="12.77637935198078"><ele>263.5</ele><time>2026-03-22T17:05:37Z</time></trkpt><trkpt lat="42.094589093342805" lon="12.776188349238883"><ele>263.0</ele><time>2026-03-22T17:05:38Z</time></trkpt><trkpt lat="42.09461871304904" lon="12.77598857220328"><ele>261.6666666666667</ele><time>2026-03-22T17:05:39Z</time></trkpt><trkpt lat="42.094659230550064" lon="12.775772732041595"><ele>260.3333333333333</ele><time>2026-03-22T17:05:40Z</time></trkpt><trkpt lat="42.094706144205375" lon="12.775545495629256"><ele>259.0</ele><time>2026-03-22T17:05:41Z</time></trkpt><trkpt lat="42.09473777140054" lon="12.775321034865126"><ele>256.66666666666663</ele><time>2026-03-22T17:05:42Z</time></trkpt><trkpt lat="42.094745508436986" lon="12.775084685208405"><ele>254.33333333333331</ele><time>2026-03-22T17:05:43Z</time></trkpt><trkpt lat="42.09474130440435" lon="12.774834418337091"><ele>252.0</ele><time>2026-03-22T17:05:44Z</time></trkpt><trkpt lat="42.094742274517714" lon="12.774579989961792"><ele>250.66666666666669</ele><time>2026-03-22T17:05:45Z</time></trkpt><trkpt lat="42.09475909240824" lon="12.774337123102654"><ele>249.33333333333334</ele><time>2026-03-22T17:05:46Z</time></trkpt><trkpt lat="42.094792493887255" lon="12.774133829216144"><ele>248.0</ele><time>2026-03-22T17:05:47Z</time></trkpt><trkpt lat="42.094828755298536" lon="12.773937152434014"><ele>248.0</ele><time>2026-03-22T17:05:48Z</time></trkpt><trkpt lat="42.094854188527144" lon="12.7737666127542"><ele>248.0</ele><time>2026-03-22T17:05:49Z</time></trkpt><trkpt lat="42.09485608979862" lon="12.773632283356315"><ele>248.0</ele><time>2026-03-22T17:05:50Z</time></trkpt><trkpt lat="42.09483186538979" lon="12.773519656744403"><ele>248.0</ele><time>2026-03-22T17:05:51Z</time></trkpt><trkpt lat="42.09477155924122" lon="12.773416133448228"><ele>248.0</ele><time>2026-03-22T17:05:52Z</time></trkpt><trkpt lat="42.094685555401156" lon="12.773340207804909"><ele>248.0</ele><time>2026-03-22T17:05:53Z</time></trkpt><trkpt lat="42.09457091590191" lon="12.773279880411744"><ele>248.0</ele><time>2026-03-22T17:05:54Z</time></trkpt><trkpt lat="42.09443497639089" lon="12.77322409168024"><ele>248.0</ele><time>2026-03-22T17:05:55Z</time></trkpt><trkpt lat="42.09428806279101" lon="12.773153841768"><ele>248.0</ele><time>2026-03-22T17:05:56Z</time></trkpt><trkpt lat="42.09414275995565" lon="12.77309015953946"><ele>250.0</ele><time>2026-03-22T17:05:57Z</time></trkpt><trkpt lat="42.09401153589542" lon="12.773053828591785"><ele>252.0</ele><time>2026-03-22T17:05:58Z</time></trkpt><trkpt lat="42.09389299372525" lon="12.773062569424326"><ele>254.0</ele><time>2026-03-22T17:05:59Z</time></trkpt><trkpt lat="42.09377949859902" lon="12.7731131763871"><ele>256.0</ele><time>2026-03-22T17:06:00Z</time></trkpt><trkpt lat="42.09367329208735" lon="12.773201819601232"><ele>256.0</ele><time>2026-03-22T17:06:01Z</time></trkpt><trkpt lat="42.093569846414965" lon="12.773323300544066"><ele>256.0</ele><time>2026-03-22T17:06:02Z</time></trkpt><trkpt lat="42.093463326002556" lon="12.773486231167514"><ele>256.0</ele><time>2026-03-22T17:06:03Z</time></trkpt><trkpt lat="42.09336494829395" lon="12.773652896248247"><ele>256.0</ele><time>2026-03-22T17:06:04Z</time></trkpt><trkpt lat="42.09327148345054" lon="12.7738220214385"><ele>256.0</ele><time>2026-03-22T17:06:05Z</time></trkpt><trkpt lat="42.09317624399904" lon="12.77399278459901"><ele>256.0</ele><time>2026-03-22T17:06:06Z</time></trkpt><trkpt lat="42.0930614063248" lon="12.774152335251303"><ele>259.0</ele><time>2026-03-22T17:06:07Z</time></trkpt><trkpt lat="42.09294684076604" lon="12.774320531847469"><ele>262.0</ele><time>2026-03-22T17:06:08Z</time></trkpt><trkpt lat="42.092820525241656" lon="12.77447573184383"><ele>265.0</ele><time>2026-03-22T17:06:09Z</time></trkpt><trkpt lat="42.09268774512353" lon="12.774634319783816"><ele>265.0</ele><time>2026-03-22T17:06:10Z</time></trkpt><trkpt lat="42.09256062313102" lon="12.774793693383108"><ele>265.0</ele><time>2026-03-22T17:06:11Z</time></trkpt><trkpt lat="42.09243711185903" lon="12.774956513476603"><ele>265.0</ele><time>2026-03-22T17:06:12Z</time></trkpt><trkpt lat="42.09231519815955" lon="12.775136822612495"><ele>267.3333333333333</ele><time>2026-03-22T17:06:13Z</time></trkpt><trkpt lat="42.092202827478445" lon="12.775319507408078"><ele>269.6666666666667</ele><time>2026-03-22T17:06:14Z</time></trkpt><trkpt lat="42.09209987560577" lon="12.775504730808336"><ele>272.0</ele><time>2026-03-22T17:06:15Z</time></trkpt><trkpt lat="42.09201816769378" lon="12.775655455962372"><ele>272.0</ele><time>2026-03-22T17:06:16Z</time></trkpt><trkpt lat="42.09195891437812" lon="12.775774889388064"><ele>272.0</ele><time>2026-03-22T17:06:17Z</time></trkpt><trkpt lat="42.09188429772194" lon="12.775821587648055"><ele>272.0</ele><time>2026-03-22T17:06:18Z</time></trkpt><trkpt lat="42.091801691417274" lon="12.775825946425954"><ele>272.0</ele><time>2026-03-22T17:06:19Z</time></trkpt><trkpt lat="42.09172179151545" lon="12.77580330333881"><ele>272.0</ele><time>2026-03-22T17:06:20Z</time></trkpt><trkpt lat="42.09164204195514" lon="12.775734246566506"><ele>272.0</ele><time>2026-03-22T17:06:21Z</time></trkpt><trkpt lat="42.091560887479375" lon="12.775660577651852"><ele>274.25</ele><time>2026-03-22T17:06:22Z</time></trkpt><trkpt lat="42.091473141046485" lon="12.775596311516576"><ele>276.5</ele><time>2026-03-22T17:06:23Z</time></trkpt><trkpt lat="42.091369081402085" lon="12.77549954691693"><ele>278.75</ele><time>2026-03-22T17:06:25Z</time></trkpt><trkpt lat="42.09124177160936" lon="12.77542015668665"><ele>281.0</ele><time>2026-03-22T17:06:26Z</time></trkpt><trkpt lat="42.09104814544227" lon="12.77528250610687"><ele>280.75</ele><time>2026-03-22T17:06:27Z</time></trkpt><trkpt lat="42.090919215837346" lon="12.775160202310417"><ele>280.5</ele><time>2026-03-22T17:06:28Z</time></trkpt><trkpt lat="42.090810876080006" lon="12.775078048384326"><ele>280.25</ele><time>2026-03-22T17:06:29Z</time></trkpt><trkpt lat="42.090737005885735" lon="12.774974630981209"><ele>280.0</ele><time>2026-03-22T17:06:30Z</time></trkpt><trkpt lat="42.090690100688086" lon="12.774889811400511"><ele>279.5</ele><time>2026-03-22T17:06:31Z</time></trkpt><trkpt lat="42.09063198449827" lon="12.774818852554024"><ele>279.0</ele><time>2026-03-22T17:06:32Z</time></trkpt><trkpt lat="42.09052269442146" lon="12.774794239788077"><ele>278.5</ele><time>2026-03-22T17:06:33Z</time></trkpt><trkpt lat="42.090401294780555" lon="12.774770397684808"><ele>278.0</ele><time>2026-03-22T17:06:34Z</time></trkpt><trkpt lat="42.09026287601616" lon="12.774723777625512"><ele>278.0</ele><time>2026-03-22T17:06:35Z</time></trkpt><trkpt lat="42.09010466490841" lon="12.774703196713446"><ele>278.0</ele><time>2026-03-22T17:06:36Z</time></trkpt><trkpt lat="42.08994829386225" lon="12.774724284382565"><ele>278.0</ele><time>2026-03-22T17:06:37Z</time></trkpt><trkpt lat="42.08978546170094" lon="12.774771010036163"><ele>275.33333333333337</ele><time>2026-03-22T17:06:38Z</time></trkpt><trkpt lat="42.08962186410285" lon="12.774829837383622"><ele>272.6666666666667</ele><time>2026-03-22T17:06:39Z</time></trkpt><trkpt lat="42.08945682984379" lon="12.774895755355908"><ele>270.0</ele><time>2026-03-22T17:06:40Z</time></trkpt><trkpt lat="42.08928626545024" lon="12.774969784629155"><ele>270.0</ele><time>2026-03-22T17:06:41Z</time></trkpt><trkpt lat="42.08912365322588" lon="12.775045480002484"><ele>270.0</ele><time>2026-03-22T17:06:42Z</time></trkpt><trkpt lat="42.08897251993088" lon="12.775118406482294"><ele>270.0</ele><time>2026-03-22T17:06:43Z</time></trkpt><trkpt lat="42.08883975372092" lon="12.775201096716843"><ele>270.3333333333333</ele><time>2026-03-22T17:06:44Z</time></trkpt><trkpt lat="42.08869994877116" lon="12.775317617157327"><ele>270.66666666666663</ele><time>2026-03-22T17:06:45Z</time></trkpt><trkpt lat="42.088567326121876" lon="12.775491676449315"><ele>271.0</ele><time>2026-03-22T17:06:46Z</time></trkpt><trkpt lat="42.08844619250785" lon="12.775662713483449"><ele>271.0</ele><time>2026-03-22T17:06:47Z</time></trkpt><trkpt lat="42.088333343587806" lon="12.775814692750673"><ele>271.0</ele><time>2026-03-22T17:06:48Z</time></trkpt><trkpt lat="42.08825099479191" lon="12.77589792684753"><ele>271.0</ele><time>2026-03-22T17:06:49Z</time></trkpt><trkpt lat="42.08817869987562" lon="12.775958055935616"><ele>271.0</ele><time>2026-03-22T17:06:50Z</time></trkpt><trkpt lat="42.08809601737789" lon="12.775999939712326"><ele>271.0</ele><time>2026-03-22T17:06:51Z</time></trkpt><trkpt lat="42.08798947377946" lon="12.776025751372021"><ele>271.5</ele><time>2026-03-22T17:06:52Z</time></trkpt><trkpt lat="42.08786157096665" lon="12.77599634788751"><ele>272.0</ele><time>2026-03-22T17:06:53Z</time></trkpt><trkpt lat="42.087717195703746" lon="12.77590810089898"><ele>272.5</ele><time>2026-03-22T17:06:54Z</time></trkpt><trkpt lat="42.08758601910859" lon="12.775833539967394"><ele>273.0</ele><time>2026-03-22T17:06:55Z</time></trkpt><trkpt lat="42.08744665150703" lon="12.775756704978983"><ele>275.3333333333333</ele><time>2026-03-22T17:06:56Z</time></trkpt><trkpt lat="42.08730802961232" lon="12.775642080547792"><ele>277.66666666666663</ele><time>2026-03-22T17:06:57Z</time></trkpt><trkpt lat="42.08716252688768" lon="12.775508602960763"><ele>280.0</ele><time>2026-03-22T17:06:58Z</time></trkpt><trkpt lat="42.0870264957129" lon="12.775365007188046"><ele>280.0</ele><time>2026-03-22T17:06:59Z</time></trkpt><trkpt lat="42.08687881512683" lon="12.775240627839725"><ele>280.0</ele><time>2026-03-22T17:07:00Z</time></trkpt><trkpt lat="42.086710273069066" lon="12.775160967895996"><ele>280.0</ele><time>2026-03-22T17:07:01Z</time></trkpt><trkpt lat="42.08654645339286" lon="12.775094464681255"><ele>279.25</ele><time>2026-03-22T17:07:02Z</time></trkpt><trkpt lat="42.08641854945205" lon="12.775004572524665"><ele>278.5</ele><time>2026-03-22T17:07:03Z</time></trkpt><trkpt lat="42.086306462029995" lon="12.774883267730157"><ele>277.75</ele><time>2026-03-22T17:07:04Z</time></trkpt><trkpt lat="42.08621488593473" lon="12.77473683586007"><ele>277.0</ele><time>2026-03-22T17:07:05Z</time></trkpt><trkpt lat="42.08614011552918" lon="12.774557357355802"><ele>277.0</ele><time>2026-03-22T17:07:06Z</time></trkpt><trkpt lat="42.08607587764922" lon="12.774377866988823"><ele>277.0</ele><time>2026-03-22T17:07:07Z</time></trkpt><trkpt lat="42.08601808475887" lon="12.7742326837154"><ele>277.0</ele><time>2026-03-22T17:07:08Z</time></trkpt><trkpt lat="42.08596238176198" lon="12.77411646030671"><ele>277.0</ele><time>2026-03-22T17:07:09Z</time></trkpt><trkpt lat="42.085896222842315" lon="12.77401918605999"><ele>275.0</ele><time>2026-03-22T17:07:10Z</time></trkpt><trkpt lat="42.08580300413008" lon="12.773912918786499"><ele>273.0</ele><time>2026-03-22T17:07:11Z</time></trkpt><trkpt lat="42.08565589831089" lon="12.773865584977074"><ele>271.0</ele><time>2026-03-22T17:07:12Z</time></trkpt><trkpt lat="42.085499157830945" lon="12.773811541325687"><ele>269.0</ele><time>2026-03-22T17:07:13Z</time></trkpt><trkpt lat="42.08533345632065" lon="12.7737455742712"><ele>267.33333333333337</ele><time>2026-03-22T17:07:14Z</time></trkpt><trkpt lat="42.085166851023374" lon="12.773661319472009"><ele>265.6666666666667</ele><time>2026-03-22T17:07:15Z</time></trkpt><trkpt lat="42.08499392519883" lon="12.773577169067892"><ele>264.0</ele><time>2026-03-22T17:07:16Z</time></trkpt><trkpt lat="42.084830788521494" lon="12.7734307779712"><ele>262.6666666666667</ele><time>2026-03-22T17:07:17Z</time></trkpt><trkpt lat="42.08466932216137" lon="12.773264515126751"><ele>261.33333333333337</ele><time>2026-03-22T17:07:18Z</time></trkpt><trkpt lat="42.08450918754362" lon="12.773093700804159"><ele>260.0</ele><time>2026-03-22T17:07:19Z</time></trkpt><trkpt lat="42.08434891431551" lon="12.77292274492821"><ele>260.0</ele><time>2026-03-22T17:07:20Z</time></trkpt><trkpt lat="42.084191628424364" lon="12.772751485017697"><ele>260.0</ele><time>2026-03-22T17:07:21Z</time></trkpt><trkpt lat="42.08405151481202" lon="12.772605571715482"><ele>260.0</ele><time>2026-03-22T17:07:22Z</time></trkpt><trkpt lat="42.083933167255374" lon="12.772484369306667"><ele>261.75</ele><time>2026-03-22T17:07:23Z</time></trkpt><trkpt lat="42.083842689839976" lon="12.77239089241431"><ele>263.5</ele><time>2026-03-22T17:07:24Z</time></trkpt><trkpt lat="42.083755410934955" lon="12.772277513654794"><ele>265.25</ele><time>2026-03-22T17:07:25Z</time></trkpt><trkpt lat="42.083690098493314" lon="12.772143939494105"><ele>267.0</ele><time>2026-03-22T17:07:26Z</time></trkpt><trkpt lat="42.08366216032509" lon="12.77194123689619"><ele>268.25</ele><time>2026-03-22T17:07:27Z</time></trkpt><trkpt lat="42.08368309567811" lon="12.77175145453913"><ele>269.5</ele><time>2026-03-22T17:07:28Z</time></trkpt><trkpt lat="42.0837627116004" lon="12.771556943775005"><ele>270.75</ele><time>2026-03-22T17:07:29Z</time></trkpt><trkpt lat="42.08383467113015" lon="12.771403476251177"><ele>272.0</ele><time>2026-03-22T17:07:30Z</time></trkpt><trkpt lat="42.083910786500304" lon="12.771235407837992"><ele>272.0</ele><time>2026-03-22T17:07:31Z</time></trkpt><trkpt lat="42.08398093745409" lon="12.771061014773299"><ele>272.0</ele><time>2026-03-22T17:07:32Z</time></trkpt><trkpt lat="42.08403121118082" lon="12.770874744169582"><ele>272.0</ele><time>2026-03-22T17:07:33Z</time></trkpt><trkpt lat="42.08405588359322" lon="12.770676060368338"><ele>272.0</ele><time>2026-03-22T17:07:34Z</time></trkpt><trkpt lat="42.08406576686247" lon="12.770457314935873"><ele>273.0</ele><time>2026-03-22T17:07:35Z</time></trkpt><trkpt lat="42.084064502911104" lon="12.770230430996058"><ele>274.0</ele><time>2026-03-22T17:07:36Z</time></trkpt><trkpt lat="42.08406205894088" lon="12.769997207857056"><ele>275.0</ele><time>2026-03-22T17:07:37Z</time></trkpt><trkpt lat="42.08406202383136" lon="12.769764040152653"><ele>275.0</ele><time>2026-03-22T17:07:38Z</time></trkpt><trkpt lat="42.084063004816656" lon="12.769523562861137"><ele>275.0</ele><time>2026-03-22T17:07:39Z</time></trkpt><trkpt lat="42.08406399556307" lon="12.769280693445554"><ele>275.0</ele><time>2026-03-22T17:07:40Z</time></trkpt><trkpt lat="42.08406598313132" lon="12.76903666997762"><ele>277.33333333333337</ele><time>2026-03-22T17:07:41Z</time></trkpt><trkpt lat="42.0840719472529" lon="12.76877488844096"><ele>279.6666666666667</ele><time>2026-03-22T17:07:42Z</time></trkpt><trkpt lat="42.084087630233846" lon="12.768521505120486"><ele>282.0</ele><time>2026-03-22T17:07:43Z</time></trkpt><trkpt lat="42.084111542867866" lon="12.76826163067952"><ele>276.6666666666667</ele><time>2026-03-22T17:07:44Z</time></trkpt><trkpt lat="42.084145391216055" lon="12.767999015476878"><ele>271.33333333333337</ele><time>2026-03-22T17:07:45Z</time></trkpt><trkpt lat="42.08418658840024" lon="12.767748936677064"><ele>266.0</ele><time>2026-03-22T17:07:46Z</time></trkpt><trkpt lat="42.08422806697009" lon="12.767504481704593"><ele>266.0</ele><time>2026-03-22T17:07:47Z</time></trkpt><trkpt lat="42.0842695754373" lon="12.767267113781802"><ele>266.0</ele><time>2026-03-22T17:07:48Z</time></trkpt><trkpt lat="42.08431057612712" lon="12.767026154027494"><ele>266.0</ele><time>2026-03-22T17:07:49Z</time></trkpt><trkpt lat="42.08434777439097" lon="12.7667870136828"><ele>268.0</ele><time>2026-03-22T17:07:50Z</time></trkpt><trkpt lat="42.08437510151413" lon="12.766550973612667"><ele>270.0</ele><time>2026-03-22T17:07:51Z</time></trkpt><trkpt lat="42.08439152448181" lon="12.766316552568693"><ele>272.0</ele><time>2026-03-22T17:07:52Z</time></trkpt><trkpt lat="42.08439844245022" lon="12.766088809244028"><ele>272.6666666666667</ele><time>2026-03-22T17:07:53Z</time></trkpt><trkpt lat="42.08440335436222" lon="12.765860401024243"><ele>273.3333333333333</ele><time>2026-03-22T17:07:54Z</time></trkpt><trkpt lat="42.0844052366119" lon="12.765637255533058"><ele>274.0</ele><time>2026-03-22T17:07:55Z</time></trkpt><trkpt lat="42.084362105809305" lon="12.765412439090248"><ele>272.66666666666663</ele><time>2026-03-22T17:07:56Z</time></trkpt><trkpt lat="42.0843044663267" lon="12.765192089366906"><ele>271.3333333333333</ele><time>2026-03-22T17:07:57Z</time></trkpt><trkpt lat="42.08422820803492" lon="12.764976463479723"><ele>270.0</ele><time>2026-03-22T17:07:58Z</time></trkpt><trkpt lat="42.08414560020487" lon="12.764758722186174"><ele>273.6666666666667</ele><time>2026-03-22T17:07:59Z</time></trkpt><trkpt lat="42.08404293239678" lon="12.764549246547638"><ele>277.33333333333337</ele><time>2026-03-22T17:08:00Z</time></trkpt><trkpt lat="42.08393130879051" lon="12.764346521307068"><ele>281.0</ele><time>2026-03-22T17:08:01Z</time></trkpt><trkpt lat="42.08382517247666" lon="12.764162024361655"><ele>281.0</ele><time>2026-03-22T17:08:02Z</time></trkpt><trkpt lat="42.083737644232826" lon="12.764005204396923"><ele>281.0</ele><time>2026-03-22T17:08:03Z</time></trkpt><trkpt lat="42.08364127445537" lon="12.763871441550465"><ele>281.0</ele><time>2026-03-22T17:08:04Z</time></trkpt><trkpt lat="42.08354051412912" lon="12.763772062933198"><ele>281.0</ele><time>2026-03-22T17:08:05Z</time></trkpt><trkpt lat="42.08342798359719" lon="12.763704490459592"><ele>281.0</ele><time>2026-03-22T17:08:06Z</time></trkpt><trkpt lat="42.083305239586466" lon="12.763664685090655"><ele>281.0</ele><time>2026-03-22T17:08:07Z</time></trkpt><trkpt lat="42.08316609102367" lon="12.763634635572698"><ele>281.0</ele><time>2026-03-22T17:08:08Z</time></trkpt><trkpt lat="42.083022886348665" lon="12.763568213765216"><ele>281.0</ele><time>2026-03-22T17:08:09Z</time></trkpt><trkpt lat="42.08288391513737" lon="12.763465993044257"><ele>281.0</ele><time>2026-03-22T17:08:10Z</time></trkpt><trkpt lat="42.08274550515726" lon="12.763333576303275"><ele>281.0</ele><time>2026-03-22T17:08:11Z</time></trkpt><trkpt lat="42.08259958199381" lon="12.763197795027546"><ele>281.0</ele><time>2026-03-22T17:08:12Z</time></trkpt><trkpt lat="42.082445523961404" lon="12.763060227393677"><ele>281.33333333333337</ele><time>2026-03-22T17:08:13Z</time></trkpt><trkpt lat="42.082290955854624" lon="12.762925809485193"><ele>281.6666666666667</ele><time>2026-03-22T17:08:14Z</time></trkpt><trkpt lat="42.08214340014117" lon="12.762787299725815"><ele>282.0</ele><time>2026-03-22T17:08:15Z</time></trkpt><trkpt lat="42.082005757731686" lon="12.76264667429818"><ele>282.0</ele><time>2026-03-22T17:08:16Z</time></trkpt><trkpt lat="42.08188729105886" lon="12.762507376620597"><ele>282.0</ele><time>2026-03-22T17:08:17Z</time></trkpt><trkpt lat="42.08176931484077" lon="12.762371324593827"><ele>282.0</ele><time>2026-03-22T17:08:18Z</time></trkpt><trkpt lat="42.081653876912924" lon="12.762260965345963"><ele>282.25</ele><time>2026-03-22T17:08:19Z</time></trkpt><trkpt lat="42.081538214367995" lon="12.762188105492125"><ele>282.5</ele><time>2026-03-22T17:08:20Z</time></trkpt><trkpt lat="42.08141022953923" lon="12.762153344212017"><ele>282.75</ele><time>2026-03-22T17:08:21Z</time></trkpt><trkpt lat="42.081273694655856" lon="12.762158608828013"><ele>283.0</ele><time>2026-03-22T17:08:22Z</time></trkpt><trkpt lat="42.08112407306755" lon="12.762194395895884"><ele>283.0</ele><time>2026-03-22T17:08:23Z</time></trkpt><trkpt lat="42.080965290556044" lon="12.762264511629803"><ele>283.0</ele><time>2026-03-22T17:08:24Z</time></trkpt><trkpt lat="42.080809558377986" lon="12.762360474476601"><ele>283.0</ele><time>2026-03-22T17:08:25Z</time></trkpt><trkpt lat="42.0806540541989" lon="12.762465911906945"><ele>280.66666666666663</ele><time>2026-03-22T17:08:26Z</time></trkpt><trkpt lat="42.08049269319909" lon="12.76258378265279"><ele>278.3333333333333</ele><time>2026-03-22T17:08:27Z</time></trkpt><trkpt lat="42.08033090707627" lon="12.762705872835484"><ele>276.0</ele><time>2026-03-22T17:08:28Z</time></trkpt><trkpt lat="42.080161089437304" lon="12.76281469593264"><ele>278.0</ele><time>2026-03-22T17:08:29Z</time></trkpt><trkpt lat="42.079980794681674" lon="12.76291633220828"><ele>280.0</ele><time>2026-03-22T17:08:30Z</time></trkpt><trkpt lat="42.079801250675146" lon="12.763044463026505"><ele>282.0</ele><time>2026-03-22T17:08:31Z</time></trkpt><trkpt lat="42.07963021170495" lon="12.763168010383911"><ele>282.0</ele><time>2026-03-22T17:08:32Z</time></trkpt><trkpt lat="42.07946138355642" lon="12.763278393530069"><ele>282.0</ele><time>2026-03-22T17:08:33Z</time></trkpt><trkpt lat="42.079281611077576" lon="12.763384929346087"><ele>282.0</ele><time>2026-03-22T17:08:34Z</time></trkpt><trkpt lat="42.079109215549124" lon="12.7634972540376"><ele>283.0</ele><time>2026-03-22T17:08:35Z</time></trkpt><trkpt lat="42.07894099692209" lon="12.763618558328076"><ele>284.0</ele><time>2026-03-22T17:08:36Z</time></trkpt><trkpt lat="42.07877821850451" lon="12.763747084808688"><ele>285.0</ele><time>2026-03-22T17:08:37Z</time></trkpt><trkpt lat="42.07860645397749" lon="12.763866423513548"><ele>285.0</ele><time>2026-03-22T17:08:38Z</time></trkpt><trkpt lat="42.078430701363324" lon="12.76397594960004"><ele>285.0</ele><time>2026-03-22T17:08:39Z</time></trkpt><trkpt lat="42.07825446871264" lon="12.764080368478934"><ele>285.0</ele><time>2026-03-22T17:08:40Z</time></trkpt><trkpt lat="42.07807578135763" lon="12.764190744810243"><ele>283.0</ele><time>2026-03-22T17:08:41Z</time></trkpt><trkpt lat="42.07790298400416" lon="12.764299200676092"><ele>281.0</ele><time>2026-03-22T17:08:42Z</time></trkpt><trkpt lat="42.077730387238965" lon="12.764402610165684"><ele>279.0</ele><time>2026-03-22T17:08:43Z</time></trkpt><trkpt lat="42.07756705480196" lon="12.764491124343971"><ele>281.0</ele><time>2026-03-22T17:08:44Z</time></trkpt><trkpt lat="42.07742507284661" lon="12.764569261852335"><ele>283.0</ele><time>2026-03-22T17:08:45Z</time></trkpt><trkpt lat="42.077297738192414" lon="12.764672590029917"><ele>285.0</ele><time>2026-03-22T17:08:46Z</time></trkpt><trkpt lat="42.07719338788402" lon="12.764796294382172"><ele>287.0</ele><time>2026-03-22T17:08:47Z</time></trkpt><trkpt lat="42.07710298186319" lon="12.764938739991033"><ele>287.0</ele><time>2026-03-22T17:08:48Z</time></trkpt><trkpt lat="42.07699134580629" lon="12.765072268451952"><ele>287.0</ele><time>2026-03-22T17:08:49Z</time></trkpt><trkpt lat="42.076904785399584" lon="12.765221872597861"><ele>287.0</ele><time>2026-03-22T17:08:50Z</time></trkpt><trkpt lat="42.076823584826165" lon="12.765334303451223"><ele>287.0</ele><time>2026-03-22T17:08:51Z</time></trkpt><trkpt lat="42.0767244744031" lon="12.765408948975722"><ele>289.0</ele><time>2026-03-22T17:08:52Z</time></trkpt><trkpt lat="42.076518313208254" lon="12.76548395098435"><ele>291.0</ele><time>2026-03-22T17:08:53Z</time></trkpt><trkpt lat="42.076419919177575" lon="12.765511178349055"><ele>293.0</ele><time>2026-03-22T17:08:54Z</time></trkpt><trkpt lat="42.076319547106955" lon="12.76547966225496"><ele>295.0</ele><time>2026-03-22T17:08:55Z</time></trkpt><trkpt lat="42.07621518125781" lon="12.765401439309919"><ele>295.0</ele><time>2026-03-22T17:08:56Z</time></trkpt><trkpt lat="42.07610907851305" lon="12.765287986938116"><ele>295.0</ele><time>2026-03-22T17:08:57Z</time></trkpt><trkpt lat="42.07599587233675" lon="12.76517750137482"><ele>295.0</ele><time>2026-03-22T17:08:58Z</time></trkpt><trkpt lat="42.07586576084086" lon="12.765101513130004"><ele>295.0</ele><time>2026-03-22T17:08:59Z</time></trkpt><trkpt lat="42.075725077632164" lon="12.765072411457142"><ele>296.0</ele><time>2026-03-22T17:09:00Z</time></trkpt><trkpt lat="42.07558183538196" lon="12.765072703763003"><ele>297.0</ele><time>2026-03-22T17:09:01Z</time></trkpt><trkpt lat="42.075441287943285" lon="12.765149813727758"><ele>298.0</ele><time>2026-03-22T17:09:02Z</time></trkpt><trkpt lat="42.07529037412319" lon="12.765205595119024"><ele>298.0</ele><time>2026-03-22T17:09:03Z</time></trkpt><trkpt lat="42.07515000102023" lon="12.765289725720754"><ele>298.0</ele><time>2026-03-22T17:09:04Z</time></trkpt><trkpt lat="42.07502922471469" lon="12.76535797775845"><ele>298.0</ele><time>2026-03-22T17:09:05Z</time></trkpt><trkpt lat="42.07490174083585" lon="12.765426873124262"><ele>298.0</ele><time>2026-03-22T17:09:06Z</time></trkpt><trkpt lat="42.07474939605141" lon="12.76547797522765"><ele>297.0</ele><time>2026-03-22T17:09:07Z</time></trkpt><trkpt lat="42.074580370225306" lon="12.76549438795847"><ele>296.0</ele><time>2026-03-22T17:09:08Z</time></trkpt><trkpt lat="42.07439600439137" lon="12.765488178869388"><ele>295.0</ele><time>2026-03-22T17:09:09Z</time></trkpt><trkpt lat="42.07421172358648" lon="12.765493652314978"><ele>293.3333333333333</ele><time>2026-03-22T17:09:10Z</time></trkpt><trkpt lat="42.07403066010422" lon="12.765528132020286"><ele>291.6666666666667</ele><time>2026-03-22T17:09:11Z</time></trkpt><trkpt lat="42.073845456798196" lon="12.765587694807547"><ele>290.0</ele><time>2026-03-22T17:09:12Z</time></trkpt><trkpt lat="42.07364627531889" lon="12.765661003945192"><ele>290.0</ele><time>2026-03-22T17:09:13Z</time></trkpt><trkpt lat="42.073451141674084" lon="12.765741822298244"><ele>290.0</ele><time>2026-03-22T17:09:14Z</time></trkpt><trkpt lat="42.07325862625462" lon="12.765823808751398"><ele>290.0</ele><time>2026-03-22T17:09:15Z</time></trkpt><trkpt lat="42.073076551883425" lon="12.765906200222947"><ele>289.0</ele><time>2026-03-22T17:09:16Z</time></trkpt><trkpt lat="42.07288492724824" lon="12.765985688250797"><ele>288.0</ele><time>2026-03-22T17:09:17Z</time></trkpt><trkpt lat="42.07269798635464" lon="12.766059227997948"><ele>287.0</ele><time>2026-03-22T17:09:18Z</time></trkpt><trkpt lat="42.072519379923456" lon="12.766142021815345"><ele>289.6666666666667</ele><time>2026-03-22T17:09:19Z</time></trkpt><trkpt lat="42.072347878977695" lon="12.766218464126212"><ele>292.3333333333333</ele><time>2026-03-22T17:09:20Z</time></trkpt><trkpt lat="42.07217975578824" lon="12.76628494485652"><ele>295.0</ele><time>2026-03-22T17:09:21Z</time></trkpt><trkpt lat="42.07202479849642" lon="12.766340677782356"><ele>295.0</ele><time>2026-03-22T17:09:22Z</time></trkpt><trkpt lat="42.07187179464263" lon="12.766389657907458"><ele>295.0</ele><time>2026-03-22T17:09:23Z</time></trkpt><trkpt lat="42.071726236935454" lon="12.766427376968897"><ele>295.0</ele><time>2026-03-22T17:09:24Z</time></trkpt><trkpt lat="42.07160225033833" lon="12.766454098326992"><ele>295.0</ele><time>2026-03-22T17:09:25Z</time></trkpt><trkpt lat="42.07149473846601" lon="12.76647618760742"><ele>296.5</ele><time>2026-03-22T17:09:26Z</time></trkpt><trkpt lat="42.07137779309681" lon="12.766492414207866"><ele>298.0</ele><time>2026-03-22T17:09:27Z</time></trkpt><trkpt lat="42.07125524726456" lon="12.766494781295316"><ele>299.5</ele><time>2026-03-22T17:09:28Z</time></trkpt><trkpt lat="42.07111062769185" lon="12.766488227800608"><ele>301.0</ele><time>2026-03-22T17:09:29Z</time></trkpt><trkpt lat="42.07098082826326" lon="12.766491919214657"><ele>301.0</ele><time>2026-03-22T17:09:30Z</time></trkpt><trkpt lat="42.07084906044418" lon="12.766436156091395"><ele>301.0</ele><time>2026-03-22T17:09:31Z</time></trkpt><trkpt lat="42.0707264338231" lon="12.766457588672866"><ele>301.0</ele><time>2026-03-22T17:09:32Z</time></trkpt><trkpt lat="42.07059394354029" lon="12.766495136302778"><ele>301.0</ele><time>2026-03-22T17:09:33Z</time></trkpt><trkpt lat="42.07045289227271" lon="12.766503135666108"><ele>300.0</ele><time>2026-03-22T17:09:34Z</time></trkpt><trkpt lat="42.07030887708808" lon="12.766503524035858"><ele>299.0</ele><time>2026-03-22T17:09:35Z</time></trkpt><trkpt lat="42.07015715536566" lon="12.7664956764784"><ele>298.0</ele><time>2026-03-22T17:09:36Z</time></trkpt><trkpt lat="42.07001162654087" lon="12.766493103291541"><ele>297.0</ele><time>2026-03-22T17:09:37Z</time></trkpt><trkpt lat="42.069857757751734" lon="12.766493438642627"><ele>297.0</ele><time>2026-03-22T17:09:38Z</time></trkpt><trkpt lat="42.06970719829984" lon="12.766531633700893"><ele>297.0</ele><time>2026-03-22T17:09:39Z</time></trkpt><trkpt lat="42.06956868383116" lon="12.766591041019103"><ele>297.0</ele><time>2026-03-22T17:09:40Z</time></trkpt><trkpt lat="42.06946011980818" lon="12.76664782135439"><ele>297.0</ele><time>2026-03-22T17:09:41Z</time></trkpt><trkpt lat="42.06936345984248" lon="12.766672048477636"><ele>297.0</ele><time>2026-03-22T17:09:42Z</time></trkpt><trkpt lat="42.069268445591945" lon="12.766673610226992"><ele>297.0</ele><time>2026-03-22T17:09:43Z</time></trkpt><trkpt lat="42.06918927521085" lon="12.766669500528174"><ele>297.0</ele><time>2026-03-22T17:09:44Z</time></trkpt><trkpt lat="42.06912278254657" lon="12.766725525456312"><ele>297.0</ele><time>2026-03-22T17:09:45Z</time></trkpt><trkpt lat="42.0690562822508" lon="12.766837299934101"><ele>297.0</ele><time>2026-03-22T17:09:46Z</time></trkpt><trkpt lat="42.06899031537104" lon="12.766964881584606"><ele>297.0</ele><time>2026-03-22T17:09:47Z</time></trkpt><trkpt lat="42.06888890767715" lon="12.76705098528396"><ele>297.0</ele><time>2026-03-22T17:09:48Z</time></trkpt><trkpt lat="42.06876660582045" lon="12.767177266669846"><ele>297.0</ele><time>2026-03-22T17:09:49Z</time></trkpt><trkpt lat="42.0686123694388" lon="12.76733755418298"><ele>297.0</ele><time>2026-03-22T17:09:50Z</time></trkpt><trkpt lat="42.06845001841767" lon="12.767489812563316"><ele>297.0</ele><time>2026-03-22T17:09:51Z</time></trkpt><trkpt lat="42.068296703884286" lon="12.767641663660436"><ele>297.0</ele><time>2026-03-22T17:09:52Z</time></trkpt><trkpt lat="42.06814925091113" lon="12.767807849728388"><ele>298.3333333333333</ele><time>2026-03-22T17:09:53Z</time></trkpt><trkpt lat="42.06801575763168" lon="12.767980619814178"><ele>299.66666666666663</ele><time>2026-03-22T17:09:54Z</time></trkpt><trkpt lat="42.06789321469235" lon="12.768163815222925"><ele>301.0</ele><time>2026-03-22T17:09:55Z</time></trkpt><trkpt lat="42.06777454679182" lon="12.768356806132175"><ele>298.66666666666663</ele><time>2026-03-22T17:09:55.999Z</time></trkpt><trkpt lat="42.067651859264544" lon="12.768546241617047"><ele>296.3333333333333</ele><time>2026-03-22T17:09:56.999Z</time></trkpt><trkpt lat="42.06753402190992" lon="12.768733179325489"><ele>294.0</ele><time>2026-03-22T17:09:57.999Z</time></trkpt><trkpt lat="42.06740735609878" lon="12.76888870152761"><ele>294.0</ele><time>2026-03-22T17:09:58.999Z</time></trkpt><trkpt lat="42.06726822099612" lon="12.769036997441008"><ele>294.0</ele><time>2026-03-22T17:09:59.999Z</time></trkpt><trkpt lat="42.06712760366172" lon="12.769182261404225"><ele>294.0</ele><time>2026-03-22T17:10:01Z</time></trkpt><trkpt lat="42.06699077667044" lon="12.769300447590513"><ele>291.6666666666667</ele><time>2026-03-22T17:10:02Z</time></trkpt><trkpt lat="42.06686384718382" lon="12.769402898524246"><ele>289.33333333333337</ele><time>2026-03-22T17:10:03Z</time></trkpt><trkpt lat="42.066722582426245" lon="12.769485695839302"><ele>287.0</ele><time>2026-03-22T17:10:04Z</time></trkpt><trkpt lat="42.06656751342315" lon="12.769559469032256"><ele>286.6666666666667</ele><time>2026-03-22T17:10:05Z</time></trkpt><trkpt lat="42.06639790110401" lon="12.76956435536009"><ele>286.3333333333333</ele><time>2026-03-22T17:10:06Z</time></trkpt><trkpt lat="42.06624072221627" lon="12.769635605853235"><ele>286.0</ele><time>2026-03-22T17:10:07Z</time></trkpt><trkpt lat="42.06609066845185" lon="12.76970569574898"><ele>286.0</ele><time>2026-03-22T17:10:08Z</time></trkpt><trkpt lat="42.06595282656968" lon="12.769770622677175"><ele>286.0</ele><time>2026-03-22T17:10:09Z</time></trkpt><trkpt lat="42.065820395105725" lon="12.76983343198271"><ele>286.0</ele><time>2026-03-22T17:10:10Z</time></trkpt><trkpt lat="42.06569219116185" lon="12.769894494288723"><ele>286.0</ele><time>2026-03-22T17:10:11Z</time></trkpt><trkpt lat="42.06557907785106" lon="12.769947891587043"><ele>286.0</ele><time>2026-03-22T17:10:12Z</time></trkpt><trkpt lat="42.065481476005054" lon="12.769993085731022"><ele>286.0</ele><time>2026-03-22T17:10:13Z</time></trkpt><trkpt lat="42.06541352266042" lon="12.770024551251437"><ele>286.0</ele><time>2026-03-22T17:10:14Z</time></trkpt><trkpt lat="42.06533889612466" lon="12.770059106744208"><ele>286.0</ele><time>2026-03-22T17:10:16Z</time></trkpt><trkpt lat="42.065072578828186" lon="12.770322379776998"><ele>286.0</ele><time>2026-03-22T17:10:18Z</time></trkpt><trkpt lat="42.06528342568073" lon="12.770084791313648"><ele>286.0</ele><time>2026-03-22T17:10:35Z</time></trkpt><trkpt lat="42.065267962124025" lon="12.770297944388286"><ele>286.0</ele><time>2026-03-22T17:10:49Z</time></trkpt><trkpt lat="42.065237527867126" lon="12.77022228573413"><ele>286.0</ele><time>2026-03-22T17:12:58.015Z</time></trkpt><trkpt lat="42.065136277546316" lon="12.770100202608674"><ele>286.0</ele><time>2026-03-22T17:12:59.999Z</time></trkpt><trkpt lat="42.065271350324515" lon="12.770176274310707"><ele>286.0</ele><time>2026-03-22T17:13:03.999Z</time></trkpt><trkpt lat="42.06531286272341" lon="12.770246803652746"><ele>286.0</ele><time>2026-03-22T17:13:10Z</time></trkpt><trkpt lat="42.06532195497014" lon="12.770147019429663"><ele>286.0</ele><time>2026-03-22T17:13:40Z</time></trkpt><trkpt lat="42.065187973782336" lon="12.770149479062843"><ele>286.0</ele><time>2026-03-22T17:13:43Z</time></trkpt><trkpt lat="42.065087557741705" lon="12.770214387782133"><ele>286.0</ele><time>2026-03-22T17:13:44Z</time></trkpt><trkpt lat="42.06496099467041" lon="12.770268634083818"><ele>286.0</ele><time>2026-03-22T17:13:45Z</time></trkpt><trkpt lat="42.06482005045421" lon="12.770331151318992"><ele>286.0</ele><time>2026-03-22T17:13:46Z</time></trkpt><trkpt lat="42.064658949494955" lon="12.770410200077615"><ele>284.3333333333333</ele><time>2026-03-22T17:13:47Z</time></trkpt><trkpt lat="42.06448296354227" lon="12.770494171458278"><ele>282.6666666666667</ele><time>2026-03-22T17:13:48Z</time></trkpt><trkpt lat="42.064310764464324" lon="12.770568968499417"><ele>281.0</ele><time>2026-03-22T17:13:49Z</time></trkpt><trkpt lat="42.06413364533575" lon="12.77067061453012"><ele>279.6666666666667</ele><time>2026-03-22T17:13:50Z</time></trkpt><trkpt lat="42.06397535224264" lon="12.770758666989725"><ele>278.3333333333333</ele><time>2026-03-22T17:13:51Z</time></trkpt><trkpt lat="42.06383037584242" lon="12.770834095092924"><ele>277.0</ele><time>2026-03-22T17:13:52Z</time></trkpt><trkpt lat="42.06369186085832" lon="12.770887105428795"><ele>277.0</ele><time>2026-03-22T17:13:53Z</time></trkpt><trkpt lat="42.06356474463631" lon="12.770928024900975"><ele>277.0</ele><time>2026-03-22T17:13:54Z</time></trkpt><trkpt lat="42.063450754695566" lon="12.770926771940484"><ele>277.0</ele><time>2026-03-22T17:13:55Z</time></trkpt><trkpt lat="42.0633592564496" lon="12.770948645522457"><ele>277.0</ele><time>2026-03-22T17:13:56Z</time></trkpt><trkpt lat="42.063289434611924" lon="12.770898482556243"><ele>277.0</ele><time>2026-03-22T17:13:57Z</time></trkpt><trkpt lat="42.06321453543952" lon="12.770841100106464"><ele>275.75</ele><time>2026-03-22T17:13:58Z</time></trkpt><trkpt lat="42.063154509861654" lon="12.770745168272418"><ele>274.5</ele><time>2026-03-22T17:13:59Z</time></trkpt><trkpt lat="42.06317230409445" lon="12.770560888824756"><ele>273.25</ele><time>2026-03-22T17:14:00Z</time></trkpt><trkpt lat="42.063168983991396" lon="12.7703830006829"><ele>272.0</ele><time>2026-03-22T17:14:01Z</time></trkpt><trkpt lat="42.06317366197798" lon="12.770175544700992"><ele>270.33333333333337</ele><time>2026-03-22T17:14:02Z</time></trkpt><trkpt lat="42.06317069848894" lon="12.76995808394684"><ele>268.6666666666667</ele><time>2026-03-22T17:14:03Z</time></trkpt><trkpt lat="42.06316062019312" lon="12.769730558144694"><ele>267.0</ele><time>2026-03-22T17:14:04Z</time></trkpt><trkpt lat="42.06314751717551" lon="12.769497615390401"><ele>266.0</ele><time>2026-03-22T17:14:05Z</time></trkpt><trkpt lat="42.063143908898745" lon="12.769243624582023"><ele>265.0</ele><time>2026-03-22T17:14:06Z</time></trkpt><trkpt lat="42.06314221488144" lon="12.768977663459948"><ele>264.0</ele><time>2026-03-22T17:14:07Z</time></trkpt><trkpt lat="42.063136354015114" lon="12.768713509628709"><ele>263.3333333333333</ele><time>2026-03-22T17:14:08Z</time></trkpt><trkpt lat="42.0631306196606" lon="12.768464551411968"><ele>262.66666666666663</ele><time>2026-03-22T17:14:09Z</time></trkpt><trkpt lat="42.063120194892946" lon="12.76822150581235"><ele>262.0</ele><time>2026-03-22T17:14:10Z</time></trkpt><trkpt lat="42.063108471378435" lon="12.7679798697593"><ele>262.0</ele><time>2026-03-22T17:14:11Z</time></trkpt><trkpt lat="42.063096958065756" lon="12.767727641615947"><ele>262.0</ele><time>2026-03-22T17:14:12Z</time></trkpt><trkpt lat="42.06308369883169" lon="12.767485817636222"><ele>262.0</ele><time>2026-03-22T17:14:13Z</time></trkpt><trkpt lat="42.063066866380716" lon="12.767270039438468"><ele>262.25</ele><time>2026-03-22T17:14:14Z</time></trkpt><trkpt lat="42.0630457369524" lon="12.767080699753174"><ele>262.5</ele><time>2026-03-22T17:14:15Z</time></trkpt><trkpt lat="42.063032945035616" lon="12.766893086141202"><ele>262.75</ele><time>2026-03-22T17:14:16Z</time></trkpt><trkpt lat="42.063041980290535" lon="12.766700347823695"><ele>263.0</ele><time>2026-03-22T17:14:17Z</time></trkpt><trkpt lat="42.06304825127053" lon="12.766493517741019"><ele>263.0</ele><time>2026-03-22T17:14:18Z</time></trkpt><trkpt lat="42.06302325871073" lon="12.766306449466986"><ele>263.0</ele><time>2026-03-22T17:14:19Z</time></trkpt><trkpt lat="42.06297971718776" lon="12.76615654086466"><ele>263.0</ele><time>2026-03-22T17:14:20Z</time></trkpt><trkpt lat="42.06291276158713" lon="12.766022243424278"><ele>263.0</ele><time>2026-03-22T17:14:21Z</time></trkpt><trkpt lat="42.062814316638864" lon="12.765891296255498"><ele>263.0</ele><time>2026-03-22T17:14:22Z</time></trkpt><trkpt lat="42.06268976326526" lon="12.765762236724665"><ele>263.0</ele><time>2026-03-22T17:14:23Z</time></trkpt><trkpt lat="42.06255828787971" lon="12.765622342349022"><ele>263.0</ele><time>2026-03-22T17:14:24Z</time></trkpt><trkpt lat="42.062443484073405" lon="12.765453780526967"><ele>262.75</ele><time>2026-03-22T17:14:25Z</time></trkpt><trkpt lat="42.06234831155497" lon="12.765268491010724"><ele>262.5</ele><time>2026-03-22T17:14:26Z</time></trkpt><trkpt lat="42.062287807947634" lon="12.765086428933516"><ele>262.25</ele><time>2026-03-22T17:14:27Z</time></trkpt><trkpt lat="42.0622556795789" lon="12.764918636988375"><ele>262.0</ele><time>2026-03-22T17:14:28Z</time></trkpt><trkpt lat="42.06224967875651" lon="12.764744584586607"><ele>262.0</ele><time>2026-03-22T17:14:29Z</time></trkpt><trkpt lat="42.062265798787166" lon="12.764568129420095"><ele>262.0</ele><time>2026-03-22T17:14:30Z</time></trkpt><trkpt lat="42.062299633581254" lon="12.764420271737524"><ele>262.0</ele><time>2026-03-22T17:14:31Z</time></trkpt><trkpt lat="42.062312695009005" lon="12.76429420227321"><ele>262.0</ele><time>2026-03-22T17:14:32Z</time></trkpt><trkpt lat="42.06229383592178" lon="12.764181380784146"><ele>262.0</ele><time>2026-03-22T17:14:33Z</time></trkpt><trkpt lat="42.062248579184434" lon="12.76407811876474"><ele>259.4</ele><time>2026-03-22T17:14:34Z</time></trkpt><trkpt lat="42.06217965079113" lon="12.764009776839304"><ele>256.79999999999995</ele><time>2026-03-22T17:14:35Z</time></trkpt><trkpt lat="42.062082262541004" lon="12.76396341492848"><ele>254.2</ele><time>2026-03-22T17:14:36Z</time></trkpt><trkpt lat="42.06196310391915" lon="12.763931004035555"><ele>251.6</ele><time>2026-03-22T17:14:37Z</time></trkpt><trkpt lat="42.06183063970548" lon="12.763908357835076"><ele>249.0</ele><time>2026-03-22T17:14:38Z</time></trkpt><trkpt lat="42.06168278432814" lon="12.763886977586669"><ele>250.5</ele><time>2026-03-22T17:14:39Z</time></trkpt><trkpt lat="42.06153234993386" lon="12.76386347364175"><ele>252.0</ele><time>2026-03-22T17:14:40Z</time></trkpt><trkpt lat="42.06139580580922" lon="12.763815344758706"><ele>253.5</ele><time>2026-03-22T17:14:41Z</time></trkpt><trkpt lat="42.06127296157256" lon="12.763778070074208"><ele>255.0</ele><time>2026-03-22T17:14:42Z</time></trkpt><trkpt lat="42.061183881226334" lon="12.763744079661809"><ele>255.0</ele><time>2026-03-22T17:14:43Z</time></trkpt><trkpt lat="42.061136282274724" lon="12.76366792249019"><ele>255.0</ele><time>2026-03-22T17:14:44Z</time></trkpt><trkpt lat="42.061116606786165" lon="12.76356952221453"><ele>255.0</ele><time>2026-03-22T17:14:45Z</time></trkpt><trkpt lat="42.06112135599006" lon="12.763433626923618"><ele>255.0</ele><time>2026-03-22T17:14:46Z</time></trkpt><trkpt lat="42.06116535635372" lon="12.763291570966736"><ele>255.0</ele><time>2026-03-22T17:14:47Z</time></trkpt><trkpt lat="42.0612246632311" lon="12.76312835497706"><ele>254.25</ele><time>2026-03-22T17:14:48Z</time></trkpt><trkpt lat="42.06128256725696" lon="12.762952046422441"><ele>253.5</ele><time>2026-03-22T17:14:49Z</time></trkpt><trkpt lat="42.061321477571184" lon="12.762768585911115"><ele>252.75</ele><time>2026-03-22T17:14:50Z</time></trkpt><trkpt lat="42.06133161987798" lon="12.762585376449234"><ele>252.0</ele><time>2026-03-22T17:14:51Z</time></trkpt><trkpt lat="42.06131659997697" lon="12.76241008963216"><ele>251.2</ele><time>2026-03-22T17:14:52Z</time></trkpt><trkpt lat="42.06129742435241" lon="12.76223938659899"><ele>250.39999999999998</ele><time>2026-03-22T17:14:52.999Z</time></trkpt><trkpt lat="42.061285281180965" lon="12.762097287773528"><ele>249.60000000000002</ele><time>2026-03-22T17:14:53.999Z</time></trkpt><trkpt lat="42.06130261078859" lon="12.76198937417781"><ele>248.8</ele><time>2026-03-22T17:14:54.999Z</time></trkpt><trkpt lat="42.061352455355284" lon="12.761907260206382"><ele>248.0</ele><time>2026-03-22T17:14:55.999Z</time></trkpt><trkpt lat="42.06143024977207" lon="12.761825891403747"><ele>248.0</ele><time>2026-03-22T17:14:56.999Z</time></trkpt><trkpt lat="42.06152568106956" lon="12.761767978858739"><ele>248.0</ele><time>2026-03-22T17:14:57.999Z</time></trkpt><trkpt lat="42.06163711672595" lon="12.761741150955"><ele>248.0</ele><time>2026-03-22T17:14:58.999Z</time></trkpt><trkpt lat="42.06174309529029" lon="12.761678015224184"><ele>248.0</ele><time>2026-03-22T17:14:59.999Z</time></trkpt><trkpt lat="42.06185250177923" lon="12.761579614002404"><ele>244.5</ele><time>2026-03-22T17:15:00.999Z</time></trkpt><trkpt lat="42.06194352444103" lon="12.761453627546185"><ele>241.0</ele><time>2026-03-22T17:15:01.999Z</time></trkpt><trkpt lat="42.06200713586117" lon="12.761288848117287"><ele>237.5</ele><time>2026-03-22T17:15:02.999Z</time></trkpt><trkpt lat="42.062088467920994" lon="12.761119619213646"><ele>234.0</ele><time>2026-03-22T17:15:03.999Z</time></trkpt><trkpt lat="42.062146175910755" lon="12.76092273414049"><ele>234.0</ele><time>2026-03-22T17:15:04.999Z</time></trkpt><trkpt lat="42.06215131311598" lon="12.76071843966805"><ele>234.0</ele><time>2026-03-22T17:15:05.999Z</time></trkpt><trkpt lat="42.062168997363884" lon="12.760523088294864"><ele>234.0</ele><time>2026-03-22T17:15:06.999Z</time></trkpt><trkpt lat="42.06216174725453" lon="12.76028780100317"><ele>230.66666666666669</ele><time>2026-03-22T17:15:07.999Z</time></trkpt><trkpt lat="42.062142433174174" lon="12.760059662565906"><ele>227.33333333333334</ele><time>2026-03-22T17:15:08.999Z</time></trkpt><trkpt lat="42.06212510928041" lon="12.759829741451211"><ele>224.0</ele><time>2026-03-22T17:15:09.999Z</time></trkpt><trkpt lat="42.06208294189268" lon="12.759662983438858"><ele>224.0</ele><time>2026-03-22T17:15:10.999Z</time></trkpt><trkpt lat="42.06202309126252" lon="12.759513443215114"><ele>224.0</ele><time>2026-03-22T17:15:12Z</time></trkpt><trkpt lat="42.061927883304755" lon="12.759352987944359"><ele>224.0</ele><time>2026-03-22T17:15:13Z</time></trkpt><trkpt lat="42.06180925769826" lon="12.759205975038215"><ele>224.0</ele><time>2026-03-22T17:15:14Z</time></trkpt><trkpt lat="42.0616787538606" lon="12.759049830503635"><ele>224.5</ele><time>2026-03-22T17:15:15Z</time></trkpt><trkpt lat="42.061576648234656" lon="12.758902295820594"><ele>225.0</ele><time>2026-03-22T17:15:16Z</time></trkpt><trkpt lat="42.06150623011506" lon="12.758738244918339"><ele>225.5</ele><time>2026-03-22T17:15:17Z</time></trkpt><trkpt lat="42.06146346311377" lon="12.758572321418809"><ele>226.0</ele><time>2026-03-22T17:15:18Z</time></trkpt><trkpt lat="42.06143725752199" lon="12.758393180815103"><ele>224.5</ele><time>2026-03-22T17:15:19Z</time></trkpt><trkpt lat="42.06142872397986" lon="12.758207317675168"><ele>223.0</ele><time>2026-03-22T17:15:20Z</time></trkpt><trkpt lat="42.06142191118571" lon="12.75800974989237"><ele>221.5</ele><time>2026-03-22T17:15:21Z</time></trkpt><trkpt lat="42.061411433916255" lon="12.757804829638362"><ele>220.0</ele><time>2026-03-22T17:15:22Z</time></trkpt><trkpt lat="42.061387314471055" lon="12.757590604385113"><ele>216.33333333333331</ele><time>2026-03-22T17:15:23Z</time></trkpt><trkpt lat="42.06134904367538" lon="12.757355813826102"><ele>212.66666666666669</ele><time>2026-03-22T17:15:24Z</time></trkpt><trkpt lat="42.061327477957974" lon="12.75711061238319"><ele>209.0</ele><time>2026-03-22T17:15:25Z</time></trkpt><trkpt lat="42.06131862729901" lon="12.756862029563328"><ele>206.0</ele><time>2026-03-22T17:15:26Z</time></trkpt><trkpt lat="42.061329762619366" lon="12.756629269120651"><ele>203.0</ele><time>2026-03-22T17:15:27Z</time></trkpt><trkpt lat="42.061355269077666" lon="12.756403762449272"><ele>200.0</ele><time>2026-03-22T17:15:28Z</time></trkpt><trkpt lat="42.06140363462299" lon="12.756168654652557"><ele>200.0</ele><time>2026-03-22T17:15:29Z</time></trkpt><trkpt lat="42.0614809646468" lon="12.75592505420223"><ele>200.0</ele><time>2026-03-22T17:15:30Z</time></trkpt><trkpt lat="42.0615725253595" lon="12.75567411726172"><ele>200.0</ele><time>2026-03-22T17:15:31Z</time></trkpt><trkpt lat="42.06165757515238" lon="12.755437489186768"><ele>200.0</ele><time>2026-03-22T17:15:32Z</time></trkpt><trkpt lat="42.061729118736665" lon="12.755187577293393"><ele>200.0</ele><time>2026-03-22T17:15:33Z</time></trkpt><trkpt lat="42.06178619006945" lon="12.754947899321646"><ele>200.0</ele><time>2026-03-22T17:15:34Z</time></trkpt><trkpt lat="42.061838317060904" lon="12.754702981151265"><ele>200.0</ele><time>2026-03-22T17:15:35Z</time></trkpt><trkpt lat="42.06188357463625" lon="12.75445423340891"><ele>200.0</ele><time>2026-03-22T17:15:36Z</time></trkpt><trkpt lat="42.06193088940829" lon="12.754213867629709"><ele>200.0</ele><time>2026-03-22T17:15:37Z</time></trkpt><trkpt lat="42.06198218856166" lon="12.753973542396604"><ele>201.0</ele><time>2026-03-22T17:15:38Z</time></trkpt><trkpt lat="42.062026786209366" lon="12.75373529732505"><ele>202.0</ele><time>2026-03-22T17:15:39Z</time></trkpt><trkpt lat="42.06205776778297" lon="12.753493363813986"><ele>203.0</ele><time>2026-03-22T17:15:40Z</time></trkpt><trkpt lat="42.06208127404907" lon="12.75325204923131"><ele>203.66666666666669</ele><time>2026-03-22T17:15:41Z</time></trkpt><trkpt lat="42.06208151197163" lon="12.753010328847045"><ele>204.33333333333331</ele><time>2026-03-22T17:15:42Z</time></trkpt><trkpt lat="42.06206905822603" lon="12.752772414002242"><ele>205.0</ele><time>2026-03-22T17:15:43Z</time></trkpt><trkpt lat="42.06204428211959" lon="12.752534988723935"><ele>205.0</ele><time>2026-03-22T17:15:44Z</time></trkpt><trkpt lat="42.06201306769144" lon="12.752285562134523"><ele>205.0</ele><time>2026-03-22T17:15:45Z</time></trkpt><trkpt lat="42.06198436973665" lon="12.752039577110471"><ele>205.0</ele><time>2026-03-22T17:15:46Z</time></trkpt><trkpt lat="42.06195582889767" lon="12.751815854389418"><ele>206.0</ele><time>2026-03-22T17:15:47Z</time></trkpt><trkpt lat="42.06192604246352" lon="12.751613179507816"><ele>207.0</ele><time>2026-03-22T17:15:48Z</time></trkpt><trkpt lat="42.061903926590546" lon="12.75143415143137"><ele>208.0</ele><time>2026-03-22T17:15:49Z</time></trkpt><trkpt lat="42.06188142832264" lon="12.751275678551398"><ele>209.0</ele><time>2026-03-22T17:15:50Z</time></trkpt><trkpt lat="42.06186498389009" lon="12.751143521522195"><ele>209.0</ele><time>2026-03-22T17:15:51Z</time></trkpt><trkpt lat="42.06187495028816" lon="12.751043302463449"><ele>209.0</ele><time>2026-03-22T17:15:52Z</time></trkpt><trkpt lat="42.06197016882671" lon="12.750861769073058"><ele>209.0</ele><time>2026-03-22T17:15:54Z</time></trkpt><trkpt lat="42.06206159065664" lon="12.750796277259859"><ele>209.0</ele><time>2026-03-22T17:15:55Z</time></trkpt><trkpt lat="42.06214835237445" lon="12.75070931722304"><ele>210.0</ele><time>2026-03-22T17:15:56Z</time></trkpt><trkpt lat="42.06223973811127" lon="12.750617376983751"><ele>211.0</ele><time>2026-03-22T17:15:57Z</time></trkpt><trkpt lat="42.06232859982673" lon="12.750522205238173"><ele>211.99999999999997</ele><time>2026-03-22T17:15:58Z</time></trkpt><trkpt lat="42.06240762018007" lon="12.750425107208335"><ele>213.0</ele><time>2026-03-22T17:15:59Z</time></trkpt><trkpt lat="42.06249776444204" lon="12.750389470814817"><ele>214.0</ele><time>2026-03-22T17:16:00Z</time></trkpt><trkpt lat="42.062591639771476" lon="12.750392083756626"><ele>214.0</ele><time>2026-03-22T17:16:01Z</time></trkpt><trkpt lat="42.06268792392484" lon="12.75039781703318"><ele>214.0</ele><time>2026-03-22T17:16:02Z</time></trkpt><trkpt lat="42.062804734257746" lon="12.750411761290168"><ele>214.0</ele><time>2026-03-22T17:16:03Z</time></trkpt><trkpt lat="42.062926868363014" lon="12.750410511454103"><ele>214.0</ele><time>2026-03-22T17:16:04Z</time></trkpt><trkpt lat="42.06305014122038" lon="12.750428753493152"><ele>214.0</ele><time>2026-03-22T17:16:05Z</time></trkpt><trkpt lat="42.06315675993824" lon="12.750383383621042"><ele>213.99999999999997</ele><time>2026-03-22T17:16:06Z</time></trkpt><trkpt lat="42.06325372188519" lon="12.750378766433572"><ele>213.99999999999997</ele><time>2026-03-22T17:16:07Z</time></trkpt><trkpt lat="42.0633431789298" lon="12.750364179343972"><ele>214.0</ele><time>2026-03-22T17:16:08Z</time></trkpt><trkpt lat="42.063425156197304" lon="12.75029563929523"><ele>214.0</ele><time>2026-03-22T17:16:09Z</time></trkpt><trkpt lat="42.06350852677719" lon="12.750242128280304"><ele>216.79999999999998</ele><time>2026-03-22T17:16:10Z</time></trkpt><trkpt lat="42.06354874101763" lon="12.750124042251247"><ele>219.59999999999997</ele><time>2026-03-22T17:16:11Z</time></trkpt><trkpt lat="42.06361989813572" lon="12.75002184475275"><ele>222.4</ele><time>2026-03-22T17:16:12Z</time></trkpt><trkpt lat="42.063679419284995" lon="12.749894588856334"><ele>225.2</ele><time>2026-03-22T17:16:13Z</time></trkpt><trkpt lat="42.06373288580947" lon="12.749750365230948"><ele>228.0</ele><time>2026-03-22T17:16:14Z</time></trkpt><trkpt lat="42.06377861221159" lon="12.749634046409637"><ele>228.0</ele><time>2026-03-22T17:16:15Z</time></trkpt><trkpt lat="42.06383927416329" lon="12.749536097248656"><ele>228.0</ele><time>2026-03-22T17:16:16Z</time></trkpt><trkpt lat="42.06392761549345" lon="12.749404616227734"><ele>228.0</ele><time>2026-03-22T17:16:17Z</time></trkpt><trkpt lat="42.06403175112277" lon="12.749292400470056"><ele>228.0</ele><time>2026-03-22T17:16:18Z</time></trkpt><trkpt lat="42.06409502192128" lon="12.749200127344656"><ele>226.4</ele><time>2026-03-22T17:16:19Z</time></trkpt><trkpt lat="42.06415870662795" lon="12.749101656757343"><ele>224.8</ele><time>2026-03-22T17:16:20Z</time></trkpt><trkpt lat="42.06420714092246" lon="12.7489724404571"><ele>223.2</ele><time>2026-03-22T17:16:21Z</time></trkpt><trkpt lat="42.064261271667206" lon="12.748843195847295"><ele>221.6</ele><time>2026-03-22T17:16:22Z</time></trkpt><trkpt lat="42.064298994969704" lon="12.748702743694126"><ele>220.0</ele><time>2026-03-22T17:16:23Z</time></trkpt><trkpt lat="42.064354878532775" lon="12.748544819771597"><ele>216.8</ele><time>2026-03-22T17:16:24Z</time></trkpt><trkpt lat="42.064417887201415" lon="12.748432068110379"><ele>213.6</ele><time>2026-03-22T17:16:25Z</time></trkpt><trkpt lat="42.064473223789705" lon="12.748364561608346"><ele>210.39999999999998</ele><time>2026-03-22T17:16:26Z</time></trkpt><trkpt lat="42.06456337857121" lon="12.748306146041358"><ele>207.2</ele><time>2026-03-22T17:16:27Z</time></trkpt><trkpt lat="42.06465062458362" lon="12.748225505111408"><ele>204.0</ele><time>2026-03-22T17:16:28Z</time></trkpt><trkpt lat="42.06472388699455" lon="12.748125370728937"><ele>204.0</ele><time>2026-03-22T17:16:29Z</time></trkpt><trkpt lat="42.0647720828213" lon="12.748043875869637"><ele>204.0</ele><time>2026-03-22T17:16:30Z</time></trkpt><trkpt lat="42.06481814826276" lon="12.747962277534631"><ele>204.0</ele><time>2026-03-22T17:16:31Z</time></trkpt><trkpt lat="42.064881892087236" lon="12.747875954910459"><ele>204.0</ele><time>2026-03-22T17:16:32Z</time></trkpt><trkpt lat="42.064943837953024" lon="12.747790382893124"><ele>204.0</ele><time>2026-03-22T17:16:33Z</time></trkpt><trkpt lat="42.06500335190987" lon="12.747692211871131"><ele>204.0</ele><time>2026-03-22T17:16:34Z</time></trkpt><trkpt lat="42.06505159363845" lon="12.747576888335812"><ele>204.39999999999998</ele><time>2026-03-22T17:16:35Z</time></trkpt><trkpt lat="42.065082194429564" lon="12.747471159433204"><ele>204.8</ele><time>2026-03-22T17:16:36Z</time></trkpt><trkpt lat="42.065086501227505" lon="12.747363794549031"><ele>205.2</ele><time>2026-03-22T17:16:37Z</time></trkpt><trkpt lat="42.065078918999504" lon="12.747235130974001"><ele>205.60000000000002</ele><time>2026-03-22T17:16:38Z</time></trkpt><trkpt lat="42.06507552752595" lon="12.747093979101368"><ele>206.0</ele><time>2026-03-22T17:16:39Z</time></trkpt><trkpt lat="42.065111521698206" lon="12.746972179183274"><ele>205.20000000000002</ele><time>2026-03-22T17:16:40Z</time></trkpt><trkpt lat="42.06514287265591" lon="12.746843538020707"><ele>204.4</ele><time>2026-03-22T17:16:41Z</time></trkpt><trkpt lat="42.0651634181226" lon="12.74672823951304"><ele>203.6</ele><time>2026-03-22T17:16:42Z</time></trkpt><trkpt lat="42.06516675767944" lon="12.746604319922278"><ele>202.8</ele><time>2026-03-22T17:16:43Z</time></trkpt><trkpt lat="42.06515942703893" lon="12.746456417289348"><ele>202.0</ele><time>2026-03-22T17:16:44Z</time></trkpt><trkpt lat="42.065168993540304" lon="12.746310218875605"><ele>202.0</ele><time>2026-03-22T17:16:45Z</time></trkpt><trkpt lat="42.06516542020677" lon="12.74616387875268"><ele>202.0</ele><time>2026-03-22T17:16:46Z</time></trkpt><trkpt lat="42.06514931723172" lon="12.745984062846409"><ele>202.0</ele><time>2026-03-22T17:16:47Z</time></trkpt><trkpt lat="42.065156222582246" lon="12.745835541771854"><ele>202.0</ele><time>2026-03-22T17:16:47.999Z</time></trkpt><trkpt lat="42.065165583704" lon="12.745691073030711"><ele>200.8</ele><time>2026-03-22T17:16:48.999Z</time></trkpt><trkpt lat="42.06517684723876" lon="12.745567542255696"><ele>199.6</ele><time>2026-03-22T17:16:49.999Z</time></trkpt><trkpt lat="42.065191486308294" lon="12.745423229482292"><ele>198.4</ele><time>2026-03-22T17:16:50.999Z</time></trkpt><trkpt lat="42.06520609952" lon="12.745284502059452"><ele>197.20000000000002</ele><time>2026-03-22T17:16:51.999Z</time></trkpt><trkpt lat="42.065221356936064" lon="12.745143226505279"><ele>196.0</ele><time>2026-03-22T17:16:52.999Z</time></trkpt><trkpt lat="42.06523410454776" lon="12.745020540307411"><ele>194.4</ele><time>2026-03-22T17:16:53.999Z</time></trkpt><trkpt lat="42.06526395141143" lon="12.74489426813679"><ele>192.8</ele><time>2026-03-22T17:16:54.999Z</time></trkpt><trkpt lat="42.06530292072561" lon="12.744772657378167"><ele>191.20000000000002</ele><time>2026-03-22T17:16:55.999Z</time></trkpt><trkpt lat="42.06536966681353" lon="12.744679785061127"><ele>189.60000000000002</ele><time>2026-03-22T17:16:56.999Z</time></trkpt><trkpt lat="42.065393145250496" lon="12.744598269386161"><ele>188.0</ele><time>2026-03-22T17:16:57.999Z</time></trkpt><trkpt lat="42.06541297774948" lon="12.7444314503165"><ele>186.2</ele><time>2026-03-22T17:16:59.999Z</time></trkpt><trkpt lat="42.06537654563268" lon="12.744318450420112"><ele>184.4</ele><time>2026-03-22T17:17:00.999Z</time></trkpt><trkpt lat="42.065376224610475" lon="12.744219654140807"><ele>182.6</ele><time>2026-03-22T17:17:01.999Z</time></trkpt><trkpt lat="42.06536177736072" lon="12.744076173334511"><ele>180.79999999999998</ele><time>2026-03-22T17:17:03.999Z</time></trkpt><trkpt lat="42.06534698028107" lon="12.743914677293338"><ele>179.0</ele><time>2026-03-22T17:17:05.999Z</time></trkpt><trkpt lat="42.06533915137168" lon="12.743829232299088"><ele>179.0</ele><time>2026-03-22T17:17:06.999Z</time></trkpt><trkpt lat="42.06532458354069" lon="12.743656732466633"><ele>179.0</ele><time>2026-03-22T17:17:08.999Z</time></trkpt><trkpt lat="42.06531783646144" lon="12.743542958764525"><ele>179.0</ele><time>2026-03-22T17:17:09.999Z</time></trkpt><trkpt lat="42.0653147550466" lon="12.743421469112127"><ele>179.0</ele><time>2026-03-22T17:17:10.999Z</time></trkpt><trkpt lat="42.06530438868417" lon="12.74329569408861"><ele>179.0</ele><time>2026-03-22T17:17:11.999Z</time></trkpt><trkpt lat="42.06533068356492" lon="12.743174226434864"><ele>177.16666666666666</ele><time>2026-03-22T17:17:12.999Z</time></trkpt><trkpt lat="42.0653516869547" lon="12.743079334934462"><ele>175.33333333333331</ele><time>2026-03-22T17:17:13.999Z</time></trkpt><trkpt lat="42.065389394344" lon="12.743004062501443"><ele>173.5</ele><time>2026-03-22T17:17:14.999Z</time></trkpt><trkpt lat="42.06544908628517" lon="12.742910473529328"><ele>171.66666666666666</ele><time>2026-03-22T17:17:15.999Z</time></trkpt><trkpt lat="42.06550824271289" lon="12.742795287198641"><ele>169.83333333333334</ele><time>2026-03-22T17:17:17Z</time></trkpt><trkpt lat="42.065557346688934" lon="12.742689706868928"><ele>168.0</ele><time>2026-03-22T17:17:18Z</time></trkpt><trkpt lat="42.065611309660525" lon="12.742600726672556"><ele>166.4</ele><time>2026-03-22T17:17:19Z</time></trkpt><trkpt lat="42.065681746535034" lon="12.74251345916333"><ele>164.8</ele><time>2026-03-22T17:17:20Z</time></trkpt><trkpt lat="42.06576653273712" lon="12.742421896379335"><ele>163.2</ele><time>2026-03-22T17:17:21Z</time></trkpt><trkpt lat="42.065854473960925" lon="12.742328935583647"><ele>161.6</ele><time>2026-03-22T17:17:22Z</time></trkpt><trkpt lat="42.06594558622318" lon="12.74226035555349"><ele>160.0</ele><time>2026-03-22T17:17:23Z</time></trkpt><trkpt lat="42.06601288121777" lon="12.742152466244557"><ele>160.0</ele><time>2026-03-22T17:17:24Z</time></trkpt><trkpt lat="42.066076836018695" lon="12.742077390060887"><ele>160.0</ele><time>2026-03-22T17:17:25Z</time></trkpt><trkpt lat="42.0661402307915" lon="12.742000416247198"><ele>160.0</ele><time>2026-03-22T17:17:26Z</time></trkpt><trkpt lat="42.06620308936013" lon="12.74193070368207"><ele>160.0</ele><time>2026-03-22T17:17:27Z</time></trkpt><trkpt lat="42.06625374221606" lon="12.741852597182675"><ele>160.0</ele><time>2026-03-22T17:17:28Z</time></trkpt><trkpt lat="42.06630874441901" lon="12.741770231945605"><ele>160.0</ele><time>2026-03-22T17:17:29Z</time></trkpt><trkpt lat="42.06635105401768" lon="12.741683272036825"><ele>158.83333333333334</ele><time>2026-03-22T17:17:30Z</time></trkpt><trkpt lat="42.066395093945545" lon="12.741606964592778"><ele>157.66666666666669</ele><time>2026-03-22T17:17:31Z</time></trkpt><trkpt lat="42.06644492000024" lon="12.741533653518784"><ele>156.5</ele><time>2026-03-22T17:17:32Z</time></trkpt><trkpt lat="42.06651136435499" lon="12.74147200002495"><ele>155.33333333333334</ele><time>2026-03-22T17:17:34Z</time></trkpt><trkpt lat="42.06659986552548" lon="12.741564359966405"><ele>154.16666666666666</ele><time>2026-03-22T17:17:36Z</time></trkpt><trkpt lat="42.06666007170263" lon="12.741600400806364"><ele>153.0</ele><time>2026-03-22T17:17:37Z</time></trkpt><trkpt lat="42.06672140820459" lon="12.741620403200518"><ele>152.66666666666666</ele><time>2026-03-22T17:17:38Z</time></trkpt><trkpt lat="42.0668009070763" lon="12.741653802309214"><ele>152.33333333333334</ele><time>2026-03-22T17:17:40Z</time></trkpt><trkpt lat="42.06686727103582" lon="12.741696174805591"><ele>152.0</ele><time>2026-03-22T17:18:21Z</time></trkpt><trkpt lat="42.06691365334857" lon="12.741756160694527"><ele>151.66666666666669</ele><time>2026-03-22T17:18:28Z</time></trkpt><trkpt lat="42.06700001082764" lon="12.741733874966469"><ele>151.33333333333334</ele><time>2026-03-22T17:23:37Z</time></trkpt><trkpt lat="42.067062525305346" lon="12.741675176358537"><ele>151.0</ele><time>2026-03-22T17:23:42Z</time></trkpt><trkpt lat="42.06711205896159" lon="12.74161687411661"><ele>151.0</ele><time>2026-03-22T17:23:48Z</time></trkpt><trkpt lat="42.06712095663669" lon="12.741523721170902"><ele>151.0</ele><time>2026-03-22T17:24:07Z</time></trkpt><trkpt lat="42.06708327994121" lon="12.741598567479361"><ele>151.0</ele><time>2026-03-22T17:24:49.999Z</time></trkpt><trkpt lat="42.067148474339795" lon="12.741633566191265"><ele>151.0</ele><time>2026-03-22T17:24:52.999Z</time></trkpt><trkpt lat="42.067111001582504" lon="12.74156198253374"><ele>151.0</ele><time>2026-03-22T17:27:05.999Z</time></trkpt><trkpt lat="42.06691324360634" lon="12.741477147484618"><ele>151.0</ele><time>2026-03-22T17:27:06.999Z</time></trkpt><trkpt lat="42.067015297678125" lon="12.741522860408365"><ele>151.0</ele><time>2026-03-22T17:27:09.999Z</time></trkpt><trkpt lat="42.06710930283799" lon="12.741615442227157"><ele>151.0</ele><time>2026-03-22T17:27:14.999Z</time></trkpt><trkpt lat="42.067047993031856" lon="12.741667700540157"><ele>151.0</ele><time>2026-03-22T17:27:32.999Z</time></trkpt><trkpt lat="42.06699018671612" lon="12.741721742109087"><ele>151.0</ele><time>2026-03-22T17:27:41.999Z</time></trkpt><trkpt lat="42.06692439559367" lon="12.741725857848875"><ele>151.0</ele><time>2026-03-22T17:27:53Z</time></trkpt><trkpt lat="42.066879903195336" lon="12.74166359757789"><ele>151.0</ele><time>2026-03-22T17:28:12Z</time></trkpt><trkpt lat="42.06692201012172" lon="12.741595071402797"><ele>151.0</ele><time>2026-03-22T17:28:39.999Z</time></trkpt></trkseg></trk></gpx>